<?xml version="1.0" encoding="UTF-8" standalone="no" ?>
<gpx xmlns="http://www.topografix.com/GPX/1/1" xmlns:xsi="http://www.w3.org/2001/XMLSchema-instance" xsi:schemaLocation="http://www.topografix.com/GPX/1/1 http://www.topografix.com/GPX/1/1/gpx.xsd" version="1.1" creator="VisuGPX - https://www.visugpx.com">
  <metadata>
    <name>rando treilleres 2015 circuit 35km</name>
    <desc><![CDATA[circuit de la rando 2015 ]]></desc>
  </metadata>
  <trk>
    <name><![CDATA[Rando treilleres]]></name>
    <trkseg>
      <trkpt lat="47.3273" lon="-1.62237">
        <ele>49.6</ele>
        <time>2015-05-10T06:15:43Z</time>
      </trkpt>
      <trkpt lat="47.32732" lon="-1.62232">
        <ele>49.6</ele>
        <time>2015-05-10T06:15:44Z</time>
      </trkpt>
      <trkpt lat="47.32734" lon="-1.62229">
        <ele>49.7</ele>
        <time>2015-05-10T06:15:45Z</time>
      </trkpt>
      <trkpt lat="47.32738" lon="-1.62228">
        <ele>49.8</ele>
        <time>2015-05-10T06:15:47Z</time>
      </trkpt>
      <trkpt lat="47.3274" lon="-1.62231">
        <ele>49.9</ele>
        <time>2015-05-10T06:15:49Z</time>
      </trkpt>
      <trkpt lat="47.32742" lon="-1.62236">
        <ele>49.9</ele>
        <time>2015-05-10T06:15:50Z</time>
      </trkpt>
      <trkpt lat="47.32743" lon="-1.62243">
        <ele>50</ele>
        <time>2015-05-10T06:15:51Z</time>
      </trkpt>
      <trkpt lat="47.32745" lon="-1.6225">
        <ele>50.1</ele>
        <time>2015-05-10T06:15:52Z</time>
      </trkpt>
      <trkpt lat="47.32748" lon="-1.62258">
        <ele>50.2</ele>
        <time>2015-05-10T06:15:53Z</time>
      </trkpt>
      <trkpt lat="47.32748" lon="-1.62264">
        <ele>50.3</ele>
        <time>2015-05-10T06:15:54Z</time>
      </trkpt>
      <trkpt lat="47.32748" lon="-1.62271">
        <ele>50.3</ele>
        <time>2015-05-10T06:15:55Z</time>
      </trkpt>
      <trkpt lat="47.32748" lon="-1.62277">
        <ele>50.4</ele>
        <time>2015-05-10T06:15:56Z</time>
      </trkpt>
      <trkpt lat="47.32749" lon="-1.62284">
        <ele>50.4</ele>
        <time>2015-05-10T06:15:57Z</time>
      </trkpt>
      <trkpt lat="47.3275" lon="-1.62293">
        <ele>50.5</ele>
        <time>2015-05-10T06:15:58Z</time>
      </trkpt>
      <trkpt lat="47.3275" lon="-1.623">
        <ele>50.5</ele>
        <time>2015-05-10T06:15:59Z</time>
      </trkpt>
      <trkpt lat="47.3275" lon="-1.62306">
        <ele>50.5</ele>
        <time>2015-05-10T06:16:00Z</time>
      </trkpt>
      <trkpt lat="47.32751" lon="-1.62313">
        <ele>50.5</ele>
        <time>2015-05-10T06:16:01Z</time>
      </trkpt>
      <trkpt lat="47.32751" lon="-1.6232">
        <ele>50.5</ele>
        <time>2015-05-10T06:16:02Z</time>
      </trkpt>
      <trkpt lat="47.32751" lon="-1.62326">
        <ele>50.5</ele>
        <time>2015-05-10T06:16:03Z</time>
      </trkpt>
      <trkpt lat="47.32752" lon="-1.62334">
        <ele>50.6</ele>
        <time>2015-05-10T06:16:04Z</time>
      </trkpt>
      <trkpt lat="47.32751" lon="-1.6234">
        <ele>50.5</ele>
        <time>2015-05-10T06:16:05Z</time>
      </trkpt>
      <trkpt lat="47.32751" lon="-1.62346">
        <ele>50.5</ele>
        <time>2015-05-10T06:16:06Z</time>
      </trkpt>
      <trkpt lat="47.3275" lon="-1.62352">
        <ele>50.5</ele>
        <time>2015-05-10T06:16:07Z</time>
      </trkpt>
      <trkpt lat="47.32749" lon="-1.62357">
        <ele>50.5</ele>
        <time>2015-05-10T06:16:08Z</time>
      </trkpt>
      <trkpt lat="47.32749" lon="-1.62362">
        <ele>50.5</ele>
        <time>2015-05-10T06:16:09Z</time>
      </trkpt>
      <trkpt lat="47.32748" lon="-1.62367">
        <ele>50.4</ele>
        <time>2015-05-10T06:16:10Z</time>
      </trkpt>
      <trkpt lat="47.32748" lon="-1.62373">
        <ele>50.4</ele>
        <time>2015-05-10T06:16:11Z</time>
      </trkpt>
      <trkpt lat="47.32747" lon="-1.62378">
        <ele>50.3</ele>
        <time>2015-05-10T06:16:12Z</time>
      </trkpt>
      <trkpt lat="47.32747" lon="-1.62384">
        <ele>50</ele>
        <time>2015-05-10T06:16:13Z</time>
      </trkpt>
      <trkpt lat="47.32747" lon="-1.62389">
        <ele>49.8</ele>
        <time>2015-05-10T06:16:14Z</time>
      </trkpt>
      <trkpt lat="47.32748" lon="-1.62394">
        <ele>49.6</ele>
        <time>2015-05-10T06:16:15Z</time>
      </trkpt>
      <trkpt lat="47.3275" lon="-1.624">
        <ele>49.5</ele>
        <time>2015-05-10T06:16:16Z</time>
      </trkpt>
      <trkpt lat="47.32751" lon="-1.62406">
        <ele>49.2</ele>
        <time>2015-05-10T06:16:17Z</time>
      </trkpt>
      <trkpt lat="47.32751" lon="-1.62412">
        <ele>49</ele>
        <time>2015-05-10T06:16:18Z</time>
      </trkpt>
      <trkpt lat="47.3275" lon="-1.62418">
        <ele>48.7</ele>
        <time>2015-05-10T06:16:19Z</time>
      </trkpt>
      <trkpt lat="47.32748" lon="-1.62422">
        <ele>48.4</ele>
        <time>2015-05-10T06:16:20Z</time>
      </trkpt>
      <trkpt lat="47.32745" lon="-1.62425">
        <ele>48.2</ele>
        <time>2015-05-10T06:16:21Z</time>
      </trkpt>
      <trkpt lat="47.32741" lon="-1.62427">
        <ele>47.9</ele>
        <time>2015-05-10T06:16:22Z</time>
      </trkpt>
      <trkpt lat="47.32734" lon="-1.62429">
        <ele>47.5</ele>
        <time>2015-05-10T06:16:24Z</time>
      </trkpt>
      <trkpt lat="47.32729" lon="-1.62431">
        <ele>47.2</ele>
        <time>2015-05-10T06:16:25Z</time>
      </trkpt>
      <trkpt lat="47.32724" lon="-1.62433">
        <ele>46.9</ele>
        <time>2015-05-10T06:16:26Z</time>
      </trkpt>
      <trkpt lat="47.32719" lon="-1.62434">
        <ele>46.6</ele>
        <time>2015-05-10T06:16:27Z</time>
      </trkpt>
      <trkpt lat="47.32714" lon="-1.62434">
        <ele>46.5</ele>
        <time>2015-05-10T06:16:28Z</time>
      </trkpt>
      <trkpt lat="47.3271" lon="-1.62433">
        <ele>46.3</ele>
        <time>2015-05-10T06:16:29Z</time>
      </trkpt>
      <trkpt lat="47.32705" lon="-1.62433">
        <ele>46.2</ele>
        <time>2015-05-10T06:16:30Z</time>
      </trkpt>
      <trkpt lat="47.327" lon="-1.62433">
        <ele>46.2</ele>
        <time>2015-05-10T06:16:31Z</time>
      </trkpt>
      <trkpt lat="47.32696" lon="-1.62433">
        <ele>46.2</ele>
        <time>2015-05-10T06:16:32Z</time>
      </trkpt>
      <trkpt lat="47.32692" lon="-1.62433">
        <ele>46.2</ele>
        <time>2015-05-10T06:16:33Z</time>
      </trkpt>
      <trkpt lat="47.32688" lon="-1.62433">
        <ele>46.2</ele>
        <time>2015-05-10T06:16:34Z</time>
      </trkpt>
      <trkpt lat="47.32683" lon="-1.62433">
        <ele>46.2</ele>
        <time>2015-05-10T06:16:35Z</time>
      </trkpt>
      <trkpt lat="47.32678" lon="-1.62432">
        <ele>46.2</ele>
        <time>2015-05-10T06:16:36Z</time>
      </trkpt>
      <trkpt lat="47.32674" lon="-1.62432">
        <ele>46.3</ele>
        <time>2015-05-10T06:16:37Z</time>
      </trkpt>
      <trkpt lat="47.32669" lon="-1.62432">
        <ele>46.2</ele>
        <time>2015-05-10T06:16:38Z</time>
      </trkpt>
      <trkpt lat="47.32664" lon="-1.62432">
        <ele>46.3</ele>
        <time>2015-05-10T06:16:39Z</time>
      </trkpt>
      <trkpt lat="47.32658" lon="-1.62432">
        <ele>46.3</ele>
        <time>2015-05-10T06:16:40Z</time>
      </trkpt>
      <trkpt lat="47.32653" lon="-1.62431">
        <ele>46.3</ele>
        <time>2015-05-10T06:16:41Z</time>
      </trkpt>
      <trkpt lat="47.32648" lon="-1.62432">
        <ele>46.2</ele>
        <time>2015-05-10T06:16:42Z</time>
      </trkpt>
      <trkpt lat="47.32643" lon="-1.62433">
        <ele>46.2</ele>
        <time>2015-05-10T06:16:43Z</time>
      </trkpt>
      <trkpt lat="47.32637" lon="-1.62433">
        <ele>46.2</ele>
        <time>2015-05-10T06:16:44Z</time>
      </trkpt>
      <trkpt lat="47.32632" lon="-1.62432">
        <ele>46.3</ele>
        <time>2015-05-10T06:16:45Z</time>
      </trkpt>
      <trkpt lat="47.32627" lon="-1.62433">
        <ele>46.2</ele>
        <time>2015-05-10T06:16:46Z</time>
      </trkpt>
      <trkpt lat="47.32622" lon="-1.62433">
        <ele>46.3</ele>
        <time>2015-05-10T06:16:47Z</time>
      </trkpt>
      <trkpt lat="47.32616" lon="-1.62433">
        <ele>46.5</ele>
        <time>2015-05-10T06:16:48Z</time>
      </trkpt>
      <trkpt lat="47.32611" lon="-1.62432">
        <ele>46.7</ele>
        <time>2015-05-10T06:16:49Z</time>
      </trkpt>
      <trkpt lat="47.32605" lon="-1.62432">
        <ele>46.9</ele>
        <time>2015-05-10T06:16:50Z</time>
      </trkpt>
      <trkpt lat="47.326" lon="-1.62432">
        <ele>47.1</ele>
        <time>2015-05-10T06:16:51Z</time>
      </trkpt>
      <trkpt lat="47.32595" lon="-1.62432">
        <ele>47.2</ele>
        <time>2015-05-10T06:16:52Z</time>
      </trkpt>
      <trkpt lat="47.3259" lon="-1.62432">
        <ele>47.4</ele>
        <time>2015-05-10T06:16:53Z</time>
      </trkpt>
      <trkpt lat="47.32584" lon="-1.62431">
        <ele>47.6</ele>
        <time>2015-05-10T06:16:54Z</time>
      </trkpt>
      <trkpt lat="47.32579" lon="-1.62431">
        <ele>47.8</ele>
        <time>2015-05-10T06:16:55Z</time>
      </trkpt>
      <trkpt lat="47.32573" lon="-1.6243">
        <ele>48</ele>
        <time>2015-05-10T06:16:56Z</time>
      </trkpt>
      <trkpt lat="47.32568" lon="-1.62429">
        <ele>48.2</ele>
        <time>2015-05-10T06:16:57Z</time>
      </trkpt>
      <trkpt lat="47.32563" lon="-1.62428">
        <ele>48.4</ele>
        <time>2015-05-10T06:16:58Z</time>
      </trkpt>
      <trkpt lat="47.32558" lon="-1.62428">
        <ele>48.6</ele>
        <time>2015-05-10T06:16:59Z</time>
      </trkpt>
      <trkpt lat="47.32552" lon="-1.62428">
        <ele>48.8</ele>
        <time>2015-05-10T06:17:00Z</time>
      </trkpt>
      <trkpt lat="47.32547" lon="-1.62428">
        <ele>48.9</ele>
        <time>2015-05-10T06:17:01Z</time>
      </trkpt>
      <trkpt lat="47.32542" lon="-1.62427">
        <ele>49.1</ele>
        <time>2015-05-10T06:17:02Z</time>
      </trkpt>
      <trkpt lat="47.32537" lon="-1.62426">
        <ele>48.9</ele>
        <time>2015-05-10T06:17:03Z</time>
      </trkpt>
      <trkpt lat="47.32533" lon="-1.62426">
        <ele>48.7</ele>
        <time>2015-05-10T06:17:04Z</time>
      </trkpt>
      <trkpt lat="47.32529" lon="-1.62427">
        <ele>48.5</ele>
        <time>2015-05-10T06:17:05Z</time>
      </trkpt>
      <trkpt lat="47.32525" lon="-1.6243">
        <ele>48.2</ele>
        <time>2015-05-10T06:17:06Z</time>
      </trkpt>
      <trkpt lat="47.32521" lon="-1.62434">
        <ele>47.9</ele>
        <time>2015-05-10T06:17:07Z</time>
      </trkpt>
      <trkpt lat="47.32518" lon="-1.62438">
        <ele>47.7</ele>
        <time>2015-05-10T06:17:08Z</time>
      </trkpt>
      <trkpt lat="47.32514" lon="-1.62443">
        <ele>47.4</ele>
        <time>2015-05-10T06:17:09Z</time>
      </trkpt>
      <trkpt lat="47.3251" lon="-1.62447">
        <ele>47.1</ele>
        <time>2015-05-10T06:17:10Z</time>
      </trkpt>
      <trkpt lat="47.32506" lon="-1.62452">
        <ele>46.9</ele>
        <time>2015-05-10T06:17:11Z</time>
      </trkpt>
      <trkpt lat="47.32503" lon="-1.62456">
        <ele>46.6</ele>
        <time>2015-05-10T06:17:12Z</time>
      </trkpt>
      <trkpt lat="47.32499" lon="-1.62462">
        <ele>46.4</ele>
        <time>2015-05-10T06:17:13Z</time>
      </trkpt>
      <trkpt lat="47.32497" lon="-1.62467">
        <ele>46.2</ele>
        <time>2015-05-10T06:17:14Z</time>
      </trkpt>
      <trkpt lat="47.32493" lon="-1.62472">
        <ele>46</ele>
        <time>2015-05-10T06:17:15Z</time>
      </trkpt>
      <trkpt lat="47.32489" lon="-1.62478">
        <ele>45.8</ele>
        <time>2015-05-10T06:17:16Z</time>
      </trkpt>
      <trkpt lat="47.32485" lon="-1.62484">
        <ele>45.5</ele>
        <time>2015-05-10T06:17:17Z</time>
      </trkpt>
      <trkpt lat="47.32481" lon="-1.62491">
        <ele>45.3</ele>
        <time>2015-05-10T06:17:18Z</time>
      </trkpt>
      <trkpt lat="47.32477" lon="-1.62496">
        <ele>45.1</ele>
        <time>2015-05-10T06:17:19Z</time>
      </trkpt>
      <trkpt lat="47.32473" lon="-1.62501">
        <ele>44.9</ele>
        <time>2015-05-10T06:17:20Z</time>
      </trkpt>
      <trkpt lat="47.32469" lon="-1.62508">
        <ele>44.7</ele>
        <time>2015-05-10T06:17:21Z</time>
      </trkpt>
      <trkpt lat="47.32465" lon="-1.62514">
        <ele>44.5</ele>
        <time>2015-05-10T06:17:22Z</time>
      </trkpt>
      <trkpt lat="47.32461" lon="-1.6252">
        <ele>44.3</ele>
        <time>2015-05-10T06:17:23Z</time>
      </trkpt>
      <trkpt lat="47.32456" lon="-1.62525">
        <ele>44.1</ele>
        <time>2015-05-10T06:17:24Z</time>
      </trkpt>
      <trkpt lat="47.32452" lon="-1.62531">
        <ele>43.9</ele>
        <time>2015-05-10T06:17:25Z</time>
      </trkpt>
      <trkpt lat="47.32449" lon="-1.62537">
        <ele>43.7</ele>
        <time>2015-05-10T06:17:26Z</time>
      </trkpt>
      <trkpt lat="47.32445" lon="-1.62543">
        <ele>43.5</ele>
        <time>2015-05-10T06:17:27Z</time>
      </trkpt>
      <trkpt lat="47.32441" lon="-1.62548">
        <ele>43.2</ele>
        <time>2015-05-10T06:17:28Z</time>
      </trkpt>
      <trkpt lat="47.32438" lon="-1.62554">
        <ele>42.9</ele>
        <time>2015-05-10T06:17:29Z</time>
      </trkpt>
      <trkpt lat="47.32434" lon="-1.62561">
        <ele>42.6</ele>
        <time>2015-05-10T06:17:30Z</time>
      </trkpt>
      <trkpt lat="47.3243" lon="-1.62567">
        <ele>42.3</ele>
        <time>2015-05-10T06:17:31Z</time>
      </trkpt>
      <trkpt lat="47.32426" lon="-1.62572">
        <ele>42</ele>
        <time>2015-05-10T06:17:32Z</time>
      </trkpt>
      <trkpt lat="47.3242" lon="-1.62574">
        <ele>41.7</ele>
        <time>2015-05-10T06:17:33Z</time>
      </trkpt>
      <trkpt lat="47.32416" lon="-1.62578">
        <ele>41.4</ele>
        <time>2015-05-10T06:17:34Z</time>
      </trkpt>
      <trkpt lat="47.32411" lon="-1.62582">
        <ele>41.1</ele>
        <time>2015-05-10T06:17:35Z</time>
      </trkpt>
      <trkpt lat="47.32406" lon="-1.62585">
        <ele>40.8</ele>
        <time>2015-05-10T06:17:36Z</time>
      </trkpt>
      <trkpt lat="47.32401" lon="-1.62588">
        <ele>40.5</ele>
        <time>2015-05-10T06:17:37Z</time>
      </trkpt>
      <trkpt lat="47.32397" lon="-1.62591">
        <ele>40.2</ele>
        <time>2015-05-10T06:17:38Z</time>
      </trkpt>
      <trkpt lat="47.32392" lon="-1.62593">
        <ele>39.9</ele>
        <time>2015-05-10T06:17:39Z</time>
      </trkpt>
      <trkpt lat="47.32387" lon="-1.62596">
        <ele>39.6</ele>
        <time>2015-05-10T06:17:40Z</time>
      </trkpt>
      <trkpt lat="47.32382" lon="-1.62598">
        <ele>39.3</ele>
        <time>2015-05-10T06:17:41Z</time>
      </trkpt>
      <trkpt lat="47.32377" lon="-1.626">
        <ele>39</ele>
        <time>2015-05-10T06:17:42Z</time>
      </trkpt>
      <trkpt lat="47.32372" lon="-1.62603">
        <ele>38.7</ele>
        <time>2015-05-10T06:17:43Z</time>
      </trkpt>
      <trkpt lat="47.32367" lon="-1.62606">
        <ele>38.4</ele>
        <time>2015-05-10T06:17:44Z</time>
      </trkpt>
      <trkpt lat="47.32362" lon="-1.62607">
        <ele>38.1</ele>
        <time>2015-05-10T06:17:45Z</time>
      </trkpt>
      <trkpt lat="47.32358" lon="-1.62609">
        <ele>37.9</ele>
        <time>2015-05-10T06:17:46Z</time>
      </trkpt>
      <trkpt lat="47.32354" lon="-1.6261">
        <ele>37.6</ele>
        <time>2015-05-10T06:17:47Z</time>
      </trkpt>
      <trkpt lat="47.32349" lon="-1.62612">
        <ele>37.3</ele>
        <time>2015-05-10T06:17:48Z</time>
      </trkpt>
      <trkpt lat="47.32345" lon="-1.62614">
        <ele>37</ele>
        <time>2015-05-10T06:17:49Z</time>
      </trkpt>
      <trkpt lat="47.32342" lon="-1.62618">
        <ele>36.7</ele>
        <time>2015-05-10T06:17:50Z</time>
      </trkpt>
      <trkpt lat="47.3234" lon="-1.62624">
        <ele>36.4</ele>
        <time>2015-05-10T06:17:51Z</time>
      </trkpt>
      <trkpt lat="47.32339" lon="-1.6263">
        <ele>36</ele>
        <time>2015-05-10T06:17:52Z</time>
      </trkpt>
      <trkpt lat="47.3234" lon="-1.62636">
        <ele>35.7</ele>
        <time>2015-05-10T06:17:53Z</time>
      </trkpt>
      <trkpt lat="47.32342" lon="-1.62643">
        <ele>35.4</ele>
        <time>2015-05-10T06:17:54Z</time>
      </trkpt>
      <trkpt lat="47.32347" lon="-1.6265">
        <ele>35.2</ele>
        <time>2015-05-10T06:17:55Z</time>
      </trkpt>
      <trkpt lat="47.32351" lon="-1.62658">
        <ele>35</ele>
        <time>2015-05-10T06:17:56Z</time>
      </trkpt>
      <trkpt lat="47.32354" lon="-1.62666">
        <ele>34.6</ele>
        <time>2015-05-10T06:17:57Z</time>
      </trkpt>
      <trkpt lat="47.32356" lon="-1.62675">
        <ele>34.2</ele>
        <time>2015-05-10T06:17:58Z</time>
      </trkpt>
      <trkpt lat="47.32358" lon="-1.62684">
        <ele>33.8</ele>
        <time>2015-05-10T06:17:59Z</time>
      </trkpt>
      <trkpt lat="47.32356" lon="-1.62693">
        <ele>33.2</ele>
        <time>2015-05-10T06:18:00Z</time>
      </trkpt>
      <trkpt lat="47.32354" lon="-1.62701">
        <ele>32.7</ele>
        <time>2015-05-10T06:18:01Z</time>
      </trkpt>
      <trkpt lat="47.3235" lon="-1.62709">
        <ele>32.1</ele>
        <time>2015-05-10T06:18:02Z</time>
      </trkpt>
      <trkpt lat="47.32346" lon="-1.62718">
        <ele>31.6</ele>
        <time>2015-05-10T06:18:03Z</time>
      </trkpt>
      <trkpt lat="47.32342" lon="-1.62728">
        <ele>31</ele>
        <time>2015-05-10T06:18:04Z</time>
      </trkpt>
      <trkpt lat="47.32337" lon="-1.62738">
        <ele>30.4</ele>
        <time>2015-05-10T06:18:05Z</time>
      </trkpt>
      <trkpt lat="47.32333" lon="-1.62748">
        <ele>29.8</ele>
        <time>2015-05-10T06:18:06Z</time>
      </trkpt>
      <trkpt lat="47.32329" lon="-1.62758">
        <ele>29.2</ele>
        <time>2015-05-10T06:18:07Z</time>
      </trkpt>
      <trkpt lat="47.32325" lon="-1.62769">
        <ele>28.6</ele>
        <time>2015-05-10T06:18:08Z</time>
      </trkpt>
      <trkpt lat="47.32321" lon="-1.6278">
        <ele>27.9</ele>
        <time>2015-05-10T06:18:09Z</time>
      </trkpt>
      <trkpt lat="47.32317" lon="-1.62791">
        <ele>27.2</ele>
        <time>2015-05-10T06:18:10Z</time>
      </trkpt>
      <trkpt lat="47.32313" lon="-1.62803">
        <ele>26.4</ele>
        <time>2015-05-10T06:18:11Z</time>
      </trkpt>
      <trkpt lat="47.32309" lon="-1.62814">
        <ele>25.5</ele>
        <time>2015-05-10T06:18:12Z</time>
      </trkpt>
      <trkpt lat="47.32305" lon="-1.62825">
        <ele>24.6</ele>
        <time>2015-05-10T06:18:13Z</time>
      </trkpt>
      <trkpt lat="47.32301" lon="-1.62836">
        <ele>23.8</ele>
        <time>2015-05-10T06:18:14Z</time>
      </trkpt>
      <trkpt lat="47.32297" lon="-1.62845">
        <ele>23</ele>
        <time>2015-05-10T06:18:15Z</time>
      </trkpt>
      <trkpt lat="47.32293" lon="-1.62854">
        <ele>22.3</ele>
        <time>2015-05-10T06:18:16Z</time>
      </trkpt>
      <trkpt lat="47.3229" lon="-1.62862">
        <ele>21.7</ele>
        <time>2015-05-10T06:18:17Z</time>
      </trkpt>
      <trkpt lat="47.32287" lon="-1.6287">
        <ele>21.1</ele>
        <time>2015-05-10T06:18:18Z</time>
      </trkpt>
      <trkpt lat="47.32284" lon="-1.62878">
        <ele>20.7</ele>
        <time>2015-05-10T06:18:19Z</time>
      </trkpt>
      <trkpt lat="47.32282" lon="-1.62884">
        <ele>20.6</ele>
        <time>2015-05-10T06:18:20Z</time>
      </trkpt>
      <trkpt lat="47.32282" lon="-1.62891">
        <ele>20.5</ele>
        <time>2015-05-10T06:18:21Z</time>
      </trkpt>
      <trkpt lat="47.32283" lon="-1.62896">
        <ele>20.5</ele>
        <time>2015-05-10T06:18:22Z</time>
      </trkpt>
      <trkpt lat="47.32286" lon="-1.629">
        <ele>20.5</ele>
        <time>2015-05-10T06:18:23Z</time>
      </trkpt>
      <trkpt lat="47.3229" lon="-1.62905">
        <ele>20.6</ele>
        <time>2015-05-10T06:18:24Z</time>
      </trkpt>
      <trkpt lat="47.32294" lon="-1.6291">
        <ele>20.7</ele>
        <time>2015-05-10T06:18:25Z</time>
      </trkpt>
      <trkpt lat="47.32298" lon="-1.62915">
        <ele>20.8</ele>
        <time>2015-05-10T06:18:26Z</time>
      </trkpt>
      <trkpt lat="47.32302" lon="-1.6292">
        <ele>20.9</ele>
        <time>2015-05-10T06:18:27Z</time>
      </trkpt>
      <trkpt lat="47.32305" lon="-1.62924">
        <ele>20.9</ele>
        <time>2015-05-10T06:18:28Z</time>
      </trkpt>
      <trkpt lat="47.32308" lon="-1.62928">
        <ele>21</ele>
        <time>2015-05-10T06:18:29Z</time>
      </trkpt>
      <trkpt lat="47.32311" lon="-1.62931">
        <ele>21.1</ele>
        <time>2015-05-10T06:18:30Z</time>
      </trkpt>
      <trkpt lat="47.32315" lon="-1.62935">
        <ele>21.2</ele>
        <time>2015-05-10T06:18:31Z</time>
      </trkpt>
      <trkpt lat="47.32319" lon="-1.62938">
        <ele>21.3</ele>
        <time>2015-05-10T06:18:32Z</time>
      </trkpt>
      <trkpt lat="47.32323" lon="-1.62941">
        <ele>21.4</ele>
        <time>2015-05-10T06:18:33Z</time>
      </trkpt>
      <trkpt lat="47.32328" lon="-1.62945">
        <ele>21.5</ele>
        <time>2015-05-10T06:18:34Z</time>
      </trkpt>
      <trkpt lat="47.32332" lon="-1.6295">
        <ele>21.6</ele>
        <time>2015-05-10T06:18:35Z</time>
      </trkpt>
      <trkpt lat="47.32337" lon="-1.62955">
        <ele>21.7</ele>
        <time>2015-05-10T06:18:36Z</time>
      </trkpt>
      <trkpt lat="47.32341" lon="-1.6296">
        <ele>21.8</ele>
        <time>2015-05-10T06:18:37Z</time>
      </trkpt>
      <trkpt lat="47.32345" lon="-1.62964">
        <ele>21.9</ele>
        <time>2015-05-10T06:18:38Z</time>
      </trkpt>
      <trkpt lat="47.32349" lon="-1.62969">
        <ele>22</ele>
        <time>2015-05-10T06:18:39Z</time>
      </trkpt>
      <trkpt lat="47.32353" lon="-1.62973">
        <ele>22.1</ele>
        <time>2015-05-10T06:18:40Z</time>
      </trkpt>
      <trkpt lat="47.32356" lon="-1.62977">
        <ele>22.2</ele>
        <time>2015-05-10T06:18:41Z</time>
      </trkpt>
      <trkpt lat="47.32361" lon="-1.62981">
        <ele>22.3</ele>
        <time>2015-05-10T06:18:42Z</time>
      </trkpt>
      <trkpt lat="47.32365" lon="-1.62984">
        <ele>22.4</ele>
        <time>2015-05-10T06:18:43Z</time>
      </trkpt>
      <trkpt lat="47.32369" lon="-1.62987">
        <ele>22.5</ele>
        <time>2015-05-10T06:18:44Z</time>
      </trkpt>
      <trkpt lat="47.32373" lon="-1.62991">
        <ele>22.5</ele>
        <time>2015-05-10T06:18:45Z</time>
      </trkpt>
      <trkpt lat="47.32376" lon="-1.62994">
        <ele>22.6</ele>
        <time>2015-05-10T06:18:46Z</time>
      </trkpt>
      <trkpt lat="47.3238" lon="-1.62998">
        <ele>22.8</ele>
        <time>2015-05-10T06:18:47Z</time>
      </trkpt>
      <trkpt lat="47.32383" lon="-1.63001">
        <ele>22.9</ele>
        <time>2015-05-10T06:18:48Z</time>
      </trkpt>
      <trkpt lat="47.32387" lon="-1.63005">
        <ele>23</ele>
        <time>2015-05-10T06:18:49Z</time>
      </trkpt>
      <trkpt lat="47.3239" lon="-1.63008">
        <ele>23.2</ele>
        <time>2015-05-10T06:18:50Z</time>
      </trkpt>
      <trkpt lat="47.32393" lon="-1.63012">
        <ele>23.3</ele>
        <time>2015-05-10T06:18:51Z</time>
      </trkpt>
      <trkpt lat="47.32396" lon="-1.63014">
        <ele>23.4</ele>
        <time>2015-05-10T06:18:52Z</time>
      </trkpt>
      <trkpt lat="47.32399" lon="-1.63014">
        <ele>23.6</ele>
        <time>2015-05-10T06:18:53Z</time>
      </trkpt>
      <trkpt lat="47.32403" lon="-1.63012">
        <ele>23.8</ele>
        <time>2015-05-10T06:18:54Z</time>
      </trkpt>
      <trkpt lat="47.32405" lon="-1.6301">
        <ele>23.9</ele>
        <time>2015-05-10T06:18:55Z</time>
      </trkpt>
      <trkpt lat="47.32408" lon="-1.63007">
        <ele>24.1</ele>
        <time>2015-05-10T06:18:56Z</time>
      </trkpt>
      <trkpt lat="47.32411" lon="-1.63005">
        <ele>24.2</ele>
        <time>2015-05-10T06:18:57Z</time>
      </trkpt>
      <trkpt lat="47.32414" lon="-1.63004">
        <ele>24.3</ele>
        <time>2015-05-10T06:18:58Z</time>
      </trkpt>
      <trkpt lat="47.32418" lon="-1.63001">
        <ele>24.6</ele>
        <time>2015-05-10T06:19:00Z</time>
      </trkpt>
      <trkpt lat="47.32422" lon="-1.62998">
        <ele>24.8</ele>
        <time>2015-05-10T06:19:02Z</time>
      </trkpt>
      <trkpt lat="47.32425" lon="-1.62995">
        <ele>24.9</ele>
        <time>2015-05-10T06:19:04Z</time>
      </trkpt>
      <trkpt lat="47.32429" lon="-1.62991">
        <ele>25</ele>
        <time>2015-05-10T06:19:06Z</time>
      </trkpt>
      <trkpt lat="47.32433" lon="-1.62989">
        <ele>25.2</ele>
        <time>2015-05-10T06:19:08Z</time>
      </trkpt>
      <trkpt lat="47.32435" lon="-1.62988">
        <ele>25.3</ele>
        <time>2015-05-10T06:19:09Z</time>
      </trkpt>
      <trkpt lat="47.32438" lon="-1.62985">
        <ele>25.4</ele>
        <time>2015-05-10T06:19:10Z</time>
      </trkpt>
      <trkpt lat="47.32442" lon="-1.62982">
        <ele>25.6</ele>
        <time>2015-05-10T06:19:12Z</time>
      </trkpt>
      <trkpt lat="47.32445" lon="-1.62979">
        <ele>25.7</ele>
        <time>2015-05-10T06:19:14Z</time>
      </trkpt>
      <trkpt lat="47.32448" lon="-1.62977">
        <ele>25.8</ele>
        <time>2015-05-10T06:19:15Z</time>
      </trkpt>
      <trkpt lat="47.32453" lon="-1.62974">
        <ele>26</ele>
        <time>2015-05-10T06:19:17Z</time>
      </trkpt>
      <trkpt lat="47.32457" lon="-1.62971">
        <ele>26.1</ele>
        <time>2015-05-10T06:19:19Z</time>
      </trkpt>
      <trkpt lat="47.3246" lon="-1.62969">
        <ele>26.2</ele>
        <time>2015-05-10T06:19:20Z</time>
      </trkpt>
      <trkpt lat="47.32463" lon="-1.62967">
        <ele>26.3</ele>
        <time>2015-05-10T06:19:21Z</time>
      </trkpt>
      <trkpt lat="47.32464" lon="-1.62963">
        <ele>26.3</ele>
        <time>2015-05-10T06:19:22Z</time>
      </trkpt>
      <trkpt lat="47.32467" lon="-1.62962">
        <ele>26.4</ele>
        <time>2015-05-10T06:19:23Z</time>
      </trkpt>
      <trkpt lat="47.32472" lon="-1.62965">
        <ele>26.6</ele>
        <time>2015-05-10T06:19:24Z</time>
      </trkpt>
      <trkpt lat="47.32475" lon="-1.62969">
        <ele>26.7</ele>
        <time>2015-05-10T06:19:25Z</time>
      </trkpt>
      <trkpt lat="47.32482" lon="-1.62976">
        <ele>27.1</ele>
        <time>2015-05-10T06:19:26Z</time>
      </trkpt>
      <trkpt lat="47.32487" lon="-1.6298">
        <ele>27.4</ele>
        <time>2015-05-10T06:19:27Z</time>
      </trkpt>
      <trkpt lat="47.32491" lon="-1.62978">
        <ele>27.5</ele>
        <time>2015-05-10T06:19:28Z</time>
      </trkpt>
      <trkpt lat="47.32495" lon="-1.62976">
        <ele>27.6</ele>
        <time>2015-05-10T06:19:29Z</time>
      </trkpt>
      <trkpt lat="47.32499" lon="-1.62975">
        <ele>27.8</ele>
        <time>2015-05-10T06:19:30Z</time>
      </trkpt>
      <trkpt lat="47.32502" lon="-1.62974">
        <ele>27.9</ele>
        <time>2015-05-10T06:19:31Z</time>
      </trkpt>
      <trkpt lat="47.32505" lon="-1.62973">
        <ele>28</ele>
        <time>2015-05-10T06:19:32Z</time>
      </trkpt>
      <trkpt lat="47.32509" lon="-1.62972">
        <ele>28.1</ele>
        <time>2015-05-10T06:19:33Z</time>
      </trkpt>
      <trkpt lat="47.32512" lon="-1.6297">
        <ele>28.2</ele>
        <time>2015-05-10T06:19:34Z</time>
      </trkpt>
      <trkpt lat="47.32517" lon="-1.62966">
        <ele>28.3</ele>
        <time>2015-05-10T06:19:36Z</time>
      </trkpt>
      <trkpt lat="47.32519" lon="-1.62965">
        <ele>28.3</ele>
        <time>2015-05-10T06:19:37Z</time>
      </trkpt>
      <trkpt lat="47.32522" lon="-1.62964">
        <ele>28.4</ele>
        <time>2015-05-10T06:19:38Z</time>
      </trkpt>
      <trkpt lat="47.32525" lon="-1.62962">
        <ele>28.5</ele>
        <time>2015-05-10T06:19:39Z</time>
      </trkpt>
      <trkpt lat="47.32529" lon="-1.62962">
        <ele>28.6</ele>
        <time>2015-05-10T06:19:40Z</time>
      </trkpt>
      <trkpt lat="47.32532" lon="-1.62961">
        <ele>28.7</ele>
        <time>2015-05-10T06:19:41Z</time>
      </trkpt>
      <trkpt lat="47.32535" lon="-1.6296">
        <ele>28.8</ele>
        <time>2015-05-10T06:19:42Z</time>
      </trkpt>
      <trkpt lat="47.32538" lon="-1.62959">
        <ele>28.9</ele>
        <time>2015-05-10T06:19:43Z</time>
      </trkpt>
      <trkpt lat="47.32542" lon="-1.62958">
        <ele>29</ele>
        <time>2015-05-10T06:19:44Z</time>
      </trkpt>
      <trkpt lat="47.32545" lon="-1.62957">
        <ele>29.2</ele>
        <time>2015-05-10T06:19:45Z</time>
      </trkpt>
      <trkpt lat="47.32548" lon="-1.62955">
        <ele>29.3</ele>
        <time>2015-05-10T06:19:46Z</time>
      </trkpt>
      <trkpt lat="47.32551" lon="-1.62954">
        <ele>29.4</ele>
        <time>2015-05-10T06:19:47Z</time>
      </trkpt>
      <trkpt lat="47.32555" lon="-1.62953">
        <ele>29.6</ele>
        <time>2015-05-10T06:19:48Z</time>
      </trkpt>
      <trkpt lat="47.32558" lon="-1.62952">
        <ele>29.7</ele>
        <time>2015-05-10T06:19:49Z</time>
      </trkpt>
      <trkpt lat="47.3256" lon="-1.62951">
        <ele>29.8</ele>
        <time>2015-05-10T06:19:50Z</time>
      </trkpt>
      <trkpt lat="47.32563" lon="-1.62949">
        <ele>29.9</ele>
        <time>2015-05-10T06:19:51Z</time>
      </trkpt>
      <trkpt lat="47.32568" lon="-1.62946">
        <ele>30</ele>
        <time>2015-05-10T06:19:53Z</time>
      </trkpt>
      <trkpt lat="47.32572" lon="-1.62944">
        <ele>30.2</ele>
        <time>2015-05-10T06:19:55Z</time>
      </trkpt>
      <trkpt lat="47.32575" lon="-1.62943">
        <ele>30.3</ele>
        <time>2015-05-10T06:19:57Z</time>
      </trkpt>
      <trkpt lat="47.32577" lon="-1.62947">
        <ele>30.3</ele>
        <time>2015-05-10T06:20:00Z</time>
      </trkpt>
      <trkpt lat="47.32579" lon="-1.62951">
        <ele>30.4</ele>
        <time>2015-05-10T06:20:01Z</time>
      </trkpt>
      <trkpt lat="47.32582" lon="-1.62955">
        <ele>30.4</ele>
        <time>2015-05-10T06:20:02Z</time>
      </trkpt>
      <trkpt lat="47.32584" lon="-1.62959">
        <ele>30.5</ele>
        <time>2015-05-10T06:20:03Z</time>
      </trkpt>
      <trkpt lat="47.32587" lon="-1.62966">
        <ele>30.8</ele>
        <time>2015-05-10T06:20:05Z</time>
      </trkpt>
      <trkpt lat="47.32589" lon="-1.62972">
        <ele>31.1</ele>
        <time>2015-05-10T06:20:07Z</time>
      </trkpt>
      <trkpt lat="47.32592" lon="-1.62976">
        <ele>31.4</ele>
        <time>2015-05-10T06:20:08Z</time>
      </trkpt>
      <trkpt lat="47.32594" lon="-1.62979">
        <ele>31.5</ele>
        <time>2015-05-10T06:20:09Z</time>
      </trkpt>
      <trkpt lat="47.32597" lon="-1.62982">
        <ele>31.8</ele>
        <time>2015-05-10T06:20:10Z</time>
      </trkpt>
      <trkpt lat="47.326" lon="-1.62986">
        <ele>32</ele>
        <time>2015-05-10T06:20:11Z</time>
      </trkpt>
      <trkpt lat="47.32604" lon="-1.6299">
        <ele>32.3</ele>
        <time>2015-05-10T06:20:12Z</time>
      </trkpt>
      <trkpt lat="47.32607" lon="-1.62994">
        <ele>32.5</ele>
        <time>2015-05-10T06:20:13Z</time>
      </trkpt>
      <trkpt lat="47.32611" lon="-1.62997">
        <ele>32.8</ele>
        <time>2015-05-10T06:20:14Z</time>
      </trkpt>
      <trkpt lat="47.32614" lon="-1.63">
        <ele>33</ele>
        <time>2015-05-10T06:20:15Z</time>
      </trkpt>
      <trkpt lat="47.32617" lon="-1.63003">
        <ele>33.2</ele>
        <time>2015-05-10T06:20:16Z</time>
      </trkpt>
      <trkpt lat="47.32619" lon="-1.63005">
        <ele>33.4</ele>
        <time>2015-05-10T06:20:17Z</time>
      </trkpt>
      <trkpt lat="47.32622" lon="-1.63008">
        <ele>33.6</ele>
        <time>2015-05-10T06:20:18Z</time>
      </trkpt>
      <trkpt lat="47.32625" lon="-1.6301">
        <ele>33.8</ele>
        <time>2015-05-10T06:20:19Z</time>
      </trkpt>
      <trkpt lat="47.32628" lon="-1.63012">
        <ele>34</ele>
        <time>2015-05-10T06:20:20Z</time>
      </trkpt>
      <trkpt lat="47.32631" lon="-1.63014">
        <ele>34.1</ele>
        <time>2015-05-10T06:20:22Z</time>
      </trkpt>
      <trkpt lat="47.32636" lon="-1.63015">
        <ele>34.2</ele>
        <time>2015-05-10T06:20:24Z</time>
      </trkpt>
      <trkpt lat="47.32641" lon="-1.63017">
        <ele>34.3</ele>
        <time>2015-05-10T06:20:26Z</time>
      </trkpt>
      <trkpt lat="47.32644" lon="-1.63018">
        <ele>34.4</ele>
        <time>2015-05-10T06:20:28Z</time>
      </trkpt>
      <trkpt lat="47.32649" lon="-1.63018">
        <ele>34.4</ele>
        <time>2015-05-10T06:20:30Z</time>
      </trkpt>
      <trkpt lat="47.32652" lon="-1.63018">
        <ele>34.5</ele>
        <time>2015-05-10T06:20:31Z</time>
      </trkpt>
      <trkpt lat="47.32656" lon="-1.63019">
        <ele>34.5</ele>
        <time>2015-05-10T06:20:33Z</time>
      </trkpt>
      <trkpt lat="47.32659" lon="-1.6302">
        <ele>34.6</ele>
        <time>2015-05-10T06:20:34Z</time>
      </trkpt>
      <trkpt lat="47.32663" lon="-1.63022">
        <ele>34.7</ele>
        <time>2015-05-10T06:20:35Z</time>
      </trkpt>
      <trkpt lat="47.32667" lon="-1.63024">
        <ele>34.9</ele>
        <time>2015-05-10T06:20:36Z</time>
      </trkpt>
      <trkpt lat="47.3267" lon="-1.63026">
        <ele>35</ele>
        <time>2015-05-10T06:20:37Z</time>
      </trkpt>
      <trkpt lat="47.32673" lon="-1.63027">
        <ele>35.1</ele>
        <time>2015-05-10T06:20:38Z</time>
      </trkpt>
      <trkpt lat="47.32676" lon="-1.63029">
        <ele>35.1</ele>
        <time>2015-05-10T06:20:39Z</time>
      </trkpt>
      <trkpt lat="47.32679" lon="-1.63031">
        <ele>35.3</ele>
        <time>2015-05-10T06:20:40Z</time>
      </trkpt>
      <trkpt lat="47.32682" lon="-1.63032">
        <ele>35.3</ele>
        <time>2015-05-10T06:20:41Z</time>
      </trkpt>
      <trkpt lat="47.32686" lon="-1.63034">
        <ele>35.4</ele>
        <time>2015-05-10T06:20:43Z</time>
      </trkpt>
      <trkpt lat="47.32691" lon="-1.63034">
        <ele>35.5</ele>
        <time>2015-05-10T06:20:45Z</time>
      </trkpt>
      <trkpt lat="47.32695" lon="-1.63033">
        <ele>35.5</ele>
        <time>2015-05-10T06:20:46Z</time>
      </trkpt>
      <trkpt lat="47.32698" lon="-1.63032">
        <ele>35.5</ele>
        <time>2015-05-10T06:20:47Z</time>
      </trkpt>
      <trkpt lat="47.32702" lon="-1.6303">
        <ele>35.5</ele>
        <time>2015-05-10T06:20:49Z</time>
      </trkpt>
      <trkpt lat="47.32706" lon="-1.63027">
        <ele>35.5</ele>
        <time>2015-05-10T06:20:51Z</time>
      </trkpt>
      <trkpt lat="47.32711" lon="-1.63027">
        <ele>35.5</ele>
        <time>2015-05-10T06:20:53Z</time>
      </trkpt>
      <trkpt lat="47.32717" lon="-1.63027">
        <ele>35.5</ele>
        <time>2015-05-10T06:20:55Z</time>
      </trkpt>
      <trkpt lat="47.3272" lon="-1.63027">
        <ele>35.5</ele>
        <time>2015-05-10T06:20:56Z</time>
      </trkpt>
      <trkpt lat="47.32723" lon="-1.63028">
        <ele>35.5</ele>
        <time>2015-05-10T06:20:57Z</time>
      </trkpt>
      <trkpt lat="47.32726" lon="-1.6303">
        <ele>35.6</ele>
        <time>2015-05-10T06:20:58Z</time>
      </trkpt>
      <trkpt lat="47.32731" lon="-1.63034">
        <ele>35.7</ele>
        <time>2015-05-10T06:20:59Z</time>
      </trkpt>
      <trkpt lat="47.32736" lon="-1.63038">
        <ele>35.9</ele>
        <time>2015-05-10T06:21:00Z</time>
      </trkpt>
      <trkpt lat="47.32738" lon="-1.6304">
        <ele>35.9</ele>
        <time>2015-05-10T06:21:01Z</time>
      </trkpt>
      <trkpt lat="47.3274" lon="-1.63043">
        <ele>36</ele>
        <time>2015-05-10T06:21:02Z</time>
      </trkpt>
      <trkpt lat="47.32743" lon="-1.63045">
        <ele>36.1</ele>
        <time>2015-05-10T06:21:03Z</time>
      </trkpt>
      <trkpt lat="47.32747" lon="-1.63047">
        <ele>36.2</ele>
        <time>2015-05-10T06:21:04Z</time>
      </trkpt>
      <trkpt lat="47.3275" lon="-1.6305">
        <ele>36.3</ele>
        <time>2015-05-10T06:21:05Z</time>
      </trkpt>
      <trkpt lat="47.32753" lon="-1.63052">
        <ele>36.4</ele>
        <time>2015-05-10T06:21:06Z</time>
      </trkpt>
      <trkpt lat="47.32756" lon="-1.63055">
        <ele>36.4</ele>
        <time>2015-05-10T06:21:07Z</time>
      </trkpt>
      <trkpt lat="47.3276" lon="-1.63057">
        <ele>36.5</ele>
        <time>2015-05-10T06:21:08Z</time>
      </trkpt>
      <trkpt lat="47.32763" lon="-1.63059">
        <ele>36.6</ele>
        <time>2015-05-10T06:21:09Z</time>
      </trkpt>
      <trkpt lat="47.32766" lon="-1.63062">
        <ele>36.6</ele>
        <time>2015-05-10T06:21:10Z</time>
      </trkpt>
      <trkpt lat="47.3277" lon="-1.63063">
        <ele>36.7</ele>
        <time>2015-05-10T06:21:11Z</time>
      </trkpt>
      <trkpt lat="47.32773" lon="-1.63066">
        <ele>36.7</ele>
        <time>2015-05-10T06:21:12Z</time>
      </trkpt>
      <trkpt lat="47.32776" lon="-1.63068">
        <ele>36.8</ele>
        <time>2015-05-10T06:21:13Z</time>
      </trkpt>
      <trkpt lat="47.32779" lon="-1.63071">
        <ele>36.8</ele>
        <time>2015-05-10T06:21:14Z</time>
      </trkpt>
      <trkpt lat="47.32781" lon="-1.63073">
        <ele>36.8</ele>
        <time>2015-05-10T06:21:15Z</time>
      </trkpt>
      <trkpt lat="47.32783" lon="-1.63075">
        <ele>36.9</ele>
        <time>2015-05-10T06:21:16Z</time>
      </trkpt>
      <trkpt lat="47.32788" lon="-1.63081">
        <ele>37</ele>
        <time>2015-05-10T06:21:18Z</time>
      </trkpt>
      <trkpt lat="47.3279" lon="-1.63083">
        <ele>37</ele>
        <time>2015-05-10T06:21:19Z</time>
      </trkpt>
      <trkpt lat="47.32793" lon="-1.63089">
        <ele>37.1</ele>
        <time>2015-05-10T06:21:21Z</time>
      </trkpt>
      <trkpt lat="47.32795" lon="-1.63095">
        <ele>37.3</ele>
        <time>2015-05-10T06:21:23Z</time>
      </trkpt>
      <trkpt lat="47.32797" lon="-1.63102">
        <ele>37.4</ele>
        <time>2015-05-10T06:21:25Z</time>
      </trkpt>
      <trkpt lat="47.32798" lon="-1.63106">
        <ele>37.5</ele>
        <time>2015-05-10T06:21:26Z</time>
      </trkpt>
      <trkpt lat="47.328" lon="-1.63109">
        <ele>37.6</ele>
        <time>2015-05-10T06:21:27Z</time>
      </trkpt>
      <trkpt lat="47.32802" lon="-1.63113">
        <ele>37.7</ele>
        <time>2015-05-10T06:21:28Z</time>
      </trkpt>
      <trkpt lat="47.32805" lon="-1.63117">
        <ele>37.8</ele>
        <time>2015-05-10T06:21:29Z</time>
      </trkpt>
      <trkpt lat="47.32807" lon="-1.63124">
        <ele>38</ele>
        <time>2015-05-10T06:21:30Z</time>
      </trkpt>
      <trkpt lat="47.3281" lon="-1.63128">
        <ele>38.1</ele>
        <time>2015-05-10T06:21:31Z</time>
      </trkpt>
      <trkpt lat="47.32811" lon="-1.63131">
        <ele>38.2</ele>
        <time>2015-05-10T06:21:32Z</time>
      </trkpt>
      <trkpt lat="47.32813" lon="-1.63135">
        <ele>38.4</ele>
        <time>2015-05-10T06:21:33Z</time>
      </trkpt>
      <trkpt lat="47.32816" lon="-1.63141">
        <ele>38.6</ele>
        <time>2015-05-10T06:21:35Z</time>
      </trkpt>
      <trkpt lat="47.32817" lon="-1.63147">
        <ele>38.9</ele>
        <time>2015-05-10T06:21:37Z</time>
      </trkpt>
      <trkpt lat="47.32819" lon="-1.63154">
        <ele>39.1</ele>
        <time>2015-05-10T06:21:39Z</time>
      </trkpt>
      <trkpt lat="47.32821" lon="-1.63157">
        <ele>39.3</ele>
        <time>2015-05-10T06:21:40Z</time>
      </trkpt>
      <trkpt lat="47.32822" lon="-1.63161">
        <ele>39.4</ele>
        <time>2015-05-10T06:21:41Z</time>
      </trkpt>
      <trkpt lat="47.32824" lon="-1.63168">
        <ele>39.7</ele>
        <time>2015-05-10T06:21:43Z</time>
      </trkpt>
      <trkpt lat="47.32826" lon="-1.63175">
        <ele>40</ele>
        <time>2015-05-10T06:21:45Z</time>
      </trkpt>
      <trkpt lat="47.32828" lon="-1.6318">
        <ele>40.3</ele>
        <time>2015-05-10T06:21:47Z</time>
      </trkpt>
      <trkpt lat="47.3283" lon="-1.63184">
        <ele>40.4</ele>
        <time>2015-05-10T06:21:48Z</time>
      </trkpt>
      <trkpt lat="47.32832" lon="-1.63191">
        <ele>40.7</ele>
        <time>2015-05-10T06:21:50Z</time>
      </trkpt>
      <trkpt lat="47.32835" lon="-1.63197">
        <ele>41</ele>
        <time>2015-05-10T06:21:52Z</time>
      </trkpt>
      <trkpt lat="47.32837" lon="-1.63204">
        <ele>41.3</ele>
        <time>2015-05-10T06:21:54Z</time>
      </trkpt>
      <trkpt lat="47.32838" lon="-1.63208">
        <ele>41.5</ele>
        <time>2015-05-10T06:21:55Z</time>
      </trkpt>
      <trkpt lat="47.32839" lon="-1.63211">
        <ele>41.7</ele>
        <time>2015-05-10T06:21:56Z</time>
      </trkpt>
      <trkpt lat="47.32843" lon="-1.63218">
        <ele>42</ele>
        <time>2015-05-10T06:21:58Z</time>
      </trkpt>
      <trkpt lat="47.32845" lon="-1.63221">
        <ele>42.1</ele>
        <time>2015-05-10T06:21:59Z</time>
      </trkpt>
      <trkpt lat="47.3285" lon="-1.63225">
        <ele>42.3</ele>
        <time>2015-05-10T06:22:01Z</time>
      </trkpt>
      <trkpt lat="47.32854" lon="-1.63223">
        <ele>42.2</ele>
        <time>2015-05-10T06:22:04Z</time>
      </trkpt>
      <trkpt lat="47.32857" lon="-1.63222">
        <ele>42.2</ele>
        <time>2015-05-10T06:22:05Z</time>
      </trkpt>
      <trkpt lat="47.3286" lon="-1.6322">
        <ele>42.2</ele>
        <time>2015-05-10T06:22:06Z</time>
      </trkpt>
      <trkpt lat="47.32863" lon="-1.63219">
        <ele>42.2</ele>
        <time>2015-05-10T06:22:07Z</time>
      </trkpt>
      <trkpt lat="47.32866" lon="-1.63217">
        <ele>42.1</ele>
        <time>2015-05-10T06:22:08Z</time>
      </trkpt>
      <trkpt lat="47.3287" lon="-1.63214">
        <ele>42.1</ele>
        <time>2015-05-10T06:22:09Z</time>
      </trkpt>
      <trkpt lat="47.32873" lon="-1.63211">
        <ele>42</ele>
        <time>2015-05-10T06:22:10Z</time>
      </trkpt>
      <trkpt lat="47.32876" lon="-1.63208">
        <ele>42</ele>
        <time>2015-05-10T06:22:11Z</time>
      </trkpt>
      <trkpt lat="47.32879" lon="-1.63205">
        <ele>41.8</ele>
        <time>2015-05-10T06:22:12Z</time>
      </trkpt>
      <trkpt lat="47.32882" lon="-1.63202">
        <ele>41.6</ele>
        <time>2015-05-10T06:22:13Z</time>
      </trkpt>
      <trkpt lat="47.32885" lon="-1.63199">
        <ele>41.4</ele>
        <time>2015-05-10T06:22:14Z</time>
      </trkpt>
      <trkpt lat="47.32888" lon="-1.63196">
        <ele>41.2</ele>
        <time>2015-05-10T06:22:15Z</time>
      </trkpt>
      <trkpt lat="47.32891" lon="-1.63193">
        <ele>41</ele>
        <time>2015-05-10T06:22:16Z</time>
      </trkpt>
      <trkpt lat="47.32894" lon="-1.63189">
        <ele>40.8</ele>
        <time>2015-05-10T06:22:17Z</time>
      </trkpt>
      <trkpt lat="47.32896" lon="-1.63185">
        <ele>40.6</ele>
        <time>2015-05-10T06:22:18Z</time>
      </trkpt>
      <trkpt lat="47.32899" lon="-1.63182">
        <ele>40.4</ele>
        <time>2015-05-10T06:22:19Z</time>
      </trkpt>
      <trkpt lat="47.32902" lon="-1.63178">
        <ele>40.2</ele>
        <time>2015-05-10T06:22:20Z</time>
      </trkpt>
      <trkpt lat="47.32905" lon="-1.63174">
        <ele>40.1</ele>
        <time>2015-05-10T06:22:21Z</time>
      </trkpt>
      <trkpt lat="47.32908" lon="-1.63172">
        <ele>40</ele>
        <time>2015-05-10T06:22:22Z</time>
      </trkpt>
      <trkpt lat="47.32912" lon="-1.63171">
        <ele>39.9</ele>
        <time>2015-05-10T06:22:23Z</time>
      </trkpt>
      <trkpt lat="47.32916" lon="-1.63171">
        <ele>39.9</ele>
        <time>2015-05-10T06:22:24Z</time>
      </trkpt>
      <trkpt lat="47.32921" lon="-1.63176">
        <ele>40</ele>
        <time>2015-05-10T06:22:25Z</time>
      </trkpt>
      <trkpt lat="47.32925" lon="-1.6318">
        <ele>40.1</ele>
        <time>2015-05-10T06:22:26Z</time>
      </trkpt>
      <trkpt lat="47.32929" lon="-1.63185">
        <ele>40.1</ele>
        <time>2015-05-10T06:22:27Z</time>
      </trkpt>
      <trkpt lat="47.32933" lon="-1.63189">
        <ele>40.2</ele>
        <time>2015-05-10T06:22:28Z</time>
      </trkpt>
      <trkpt lat="47.32936" lon="-1.63194">
        <ele>40.2</ele>
        <time>2015-05-10T06:22:29Z</time>
      </trkpt>
      <trkpt lat="47.3294" lon="-1.63199">
        <ele>40.3</ele>
        <time>2015-05-10T06:22:30Z</time>
      </trkpt>
      <trkpt lat="47.32943" lon="-1.63203">
        <ele>40.3</ele>
        <time>2015-05-10T06:22:31Z</time>
      </trkpt>
      <trkpt lat="47.32947" lon="-1.63209">
        <ele>40.3</ele>
        <time>2015-05-10T06:22:32Z</time>
      </trkpt>
      <trkpt lat="47.3295" lon="-1.63214">
        <ele>40.5</ele>
        <time>2015-05-10T06:22:33Z</time>
      </trkpt>
      <trkpt lat="47.32953" lon="-1.63218">
        <ele>40.7</ele>
        <time>2015-05-10T06:22:34Z</time>
      </trkpt>
      <trkpt lat="47.32956" lon="-1.63222">
        <ele>40.8</ele>
        <time>2015-05-10T06:22:35Z</time>
      </trkpt>
      <trkpt lat="47.3296" lon="-1.63225">
        <ele>41</ele>
        <time>2015-05-10T06:22:36Z</time>
      </trkpt>
      <trkpt lat="47.32963" lon="-1.63227">
        <ele>41.2</ele>
        <time>2015-05-10T06:22:37Z</time>
      </trkpt>
      <trkpt lat="47.32967" lon="-1.6323">
        <ele>41.4</ele>
        <time>2015-05-10T06:22:38Z</time>
      </trkpt>
      <trkpt lat="47.32971" lon="-1.63232">
        <ele>41.5</ele>
        <time>2015-05-10T06:22:39Z</time>
      </trkpt>
      <trkpt lat="47.32974" lon="-1.63233">
        <ele>41.6</ele>
        <time>2015-05-10T06:22:40Z</time>
      </trkpt>
      <trkpt lat="47.32978" lon="-1.63234">
        <ele>41.7</ele>
        <time>2015-05-10T06:22:41Z</time>
      </trkpt>
      <trkpt lat="47.32981" lon="-1.63235">
        <ele>41.8</ele>
        <time>2015-05-10T06:22:42Z</time>
      </trkpt>
      <trkpt lat="47.32985" lon="-1.63236">
        <ele>41.9</ele>
        <time>2015-05-10T06:22:43Z</time>
      </trkpt>
      <trkpt lat="47.32988" lon="-1.63235">
        <ele>41.9</ele>
        <time>2015-05-10T06:22:44Z</time>
      </trkpt>
      <trkpt lat="47.32992" lon="-1.63233">
        <ele>41.7</ele>
        <time>2015-05-10T06:22:45Z</time>
      </trkpt>
      <trkpt lat="47.32995" lon="-1.63229">
        <ele>41.5</ele>
        <time>2015-05-10T06:22:46Z</time>
      </trkpt>
      <trkpt lat="47.32998" lon="-1.63224">
        <ele>41.3</ele>
        <time>2015-05-10T06:22:47Z</time>
      </trkpt>
      <trkpt lat="47.33001" lon="-1.63219">
        <ele>41.1</ele>
        <time>2015-05-10T06:22:48Z</time>
      </trkpt>
      <trkpt lat="47.33004" lon="-1.63214">
        <ele>40.9</ele>
        <time>2015-05-10T06:22:49Z</time>
      </trkpt>
      <trkpt lat="47.33008" lon="-1.63208">
        <ele>40.6</ele>
        <time>2015-05-10T06:22:50Z</time>
      </trkpt>
      <trkpt lat="47.33012" lon="-1.63203">
        <ele>40.5</ele>
        <time>2015-05-10T06:22:51Z</time>
      </trkpt>
      <trkpt lat="47.33015" lon="-1.63197">
        <ele>40.5</ele>
        <time>2015-05-10T06:22:52Z</time>
      </trkpt>
      <trkpt lat="47.33019" lon="-1.63191">
        <ele>40.4</ele>
        <time>2015-05-10T06:22:53Z</time>
      </trkpt>
      <trkpt lat="47.33023" lon="-1.63185">
        <ele>40.3</ele>
        <time>2015-05-10T06:22:54Z</time>
      </trkpt>
      <trkpt lat="47.33027" lon="-1.63179">
        <ele>40.2</ele>
        <time>2015-05-10T06:22:55Z</time>
      </trkpt>
      <trkpt lat="47.33031" lon="-1.63174">
        <ele>40.1</ele>
        <time>2015-05-10T06:22:56Z</time>
      </trkpt>
      <trkpt lat="47.33034" lon="-1.63168">
        <ele>40</ele>
        <time>2015-05-10T06:22:57Z</time>
      </trkpt>
      <trkpt lat="47.33037" lon="-1.63163">
        <ele>39.9</ele>
        <time>2015-05-10T06:22:58Z</time>
      </trkpt>
      <trkpt lat="47.33041" lon="-1.63158">
        <ele>39.8</ele>
        <time>2015-05-10T06:22:59Z</time>
      </trkpt>
      <trkpt lat="47.33044" lon="-1.63153">
        <ele>39.7</ele>
        <time>2015-05-10T06:23:00Z</time>
      </trkpt>
      <trkpt lat="47.33047" lon="-1.63149">
        <ele>39.7</ele>
        <time>2015-05-10T06:23:01Z</time>
      </trkpt>
      <trkpt lat="47.3305" lon="-1.63144">
        <ele>39.6</ele>
        <time>2015-05-10T06:23:02Z</time>
      </trkpt>
      <trkpt lat="47.33053" lon="-1.63139">
        <ele>39.6</ele>
        <time>2015-05-10T06:23:03Z</time>
      </trkpt>
      <trkpt lat="47.33056" lon="-1.63134">
        <ele>39.5</ele>
        <time>2015-05-10T06:23:04Z</time>
      </trkpt>
      <trkpt lat="47.33059" lon="-1.6313">
        <ele>39.5</ele>
        <time>2015-05-10T06:23:05Z</time>
      </trkpt>
      <trkpt lat="47.33061" lon="-1.63125">
        <ele>39.5</ele>
        <time>2015-05-10T06:23:06Z</time>
      </trkpt>
      <trkpt lat="47.33063" lon="-1.6312">
        <ele>39.5</ele>
        <time>2015-05-10T06:23:07Z</time>
      </trkpt>
      <trkpt lat="47.33065" lon="-1.63116">
        <ele>39.6</ele>
        <time>2015-05-10T06:23:08Z</time>
      </trkpt>
      <trkpt lat="47.33067" lon="-1.63111">
        <ele>39.7</ele>
        <time>2015-05-10T06:23:09Z</time>
      </trkpt>
      <trkpt lat="47.33069" lon="-1.63107">
        <ele>39.7</ele>
        <time>2015-05-10T06:23:10Z</time>
      </trkpt>
      <trkpt lat="47.33071" lon="-1.63103">
        <ele>39.8</ele>
        <time>2015-05-10T06:23:11Z</time>
      </trkpt>
      <trkpt lat="47.33072" lon="-1.63099">
        <ele>39.8</ele>
        <time>2015-05-10T06:23:12Z</time>
      </trkpt>
      <trkpt lat="47.33074" lon="-1.63095">
        <ele>39.9</ele>
        <time>2015-05-10T06:23:13Z</time>
      </trkpt>
      <trkpt lat="47.33077" lon="-1.63092">
        <ele>40</ele>
        <time>2015-05-10T06:23:14Z</time>
      </trkpt>
      <trkpt lat="47.3308" lon="-1.63088">
        <ele>40.1</ele>
        <time>2015-05-10T06:23:15Z</time>
      </trkpt>
      <trkpt lat="47.33082" lon="-1.63085">
        <ele>40.2</ele>
        <time>2015-05-10T06:23:16Z</time>
      </trkpt>
      <trkpt lat="47.33084" lon="-1.63082">
        <ele>40.3</ele>
        <time>2015-05-10T06:23:17Z</time>
      </trkpt>
      <trkpt lat="47.33087" lon="-1.63078">
        <ele>40.4</ele>
        <time>2015-05-10T06:23:18Z</time>
      </trkpt>
      <trkpt lat="47.33089" lon="-1.63075">
        <ele>40.5</ele>
        <time>2015-05-10T06:23:19Z</time>
      </trkpt>
      <trkpt lat="47.33092" lon="-1.63071">
        <ele>40.6</ele>
        <time>2015-05-10T06:23:20Z</time>
      </trkpt>
      <trkpt lat="47.33094" lon="-1.63068">
        <ele>40.7</ele>
        <time>2015-05-10T06:23:21Z</time>
      </trkpt>
      <trkpt lat="47.33096" lon="-1.63065">
        <ele>40.8</ele>
        <time>2015-05-10T06:23:22Z</time>
      </trkpt>
      <trkpt lat="47.33098" lon="-1.63061">
        <ele>40.9</ele>
        <time>2015-05-10T06:23:23Z</time>
      </trkpt>
      <trkpt lat="47.331" lon="-1.63058">
        <ele>41</ele>
        <time>2015-05-10T06:23:24Z</time>
      </trkpt>
      <trkpt lat="47.33102" lon="-1.63055">
        <ele>41.1</ele>
        <time>2015-05-10T06:23:25Z</time>
      </trkpt>
      <trkpt lat="47.33104" lon="-1.63051">
        <ele>41.2</ele>
        <time>2015-05-10T06:23:26Z</time>
      </trkpt>
      <trkpt lat="47.33106" lon="-1.63047">
        <ele>41.3</ele>
        <time>2015-05-10T06:23:27Z</time>
      </trkpt>
      <trkpt lat="47.33108" lon="-1.63044">
        <ele>41.4</ele>
        <time>2015-05-10T06:23:28Z</time>
      </trkpt>
      <trkpt lat="47.3311" lon="-1.63041">
        <ele>41.5</ele>
        <time>2015-05-10T06:23:29Z</time>
      </trkpt>
      <trkpt lat="47.33112" lon="-1.63037">
        <ele>41.6</ele>
        <time>2015-05-10T06:23:30Z</time>
      </trkpt>
      <trkpt lat="47.33114" lon="-1.63034">
        <ele>41.8</ele>
        <time>2015-05-10T06:23:31Z</time>
      </trkpt>
      <trkpt lat="47.33115" lon="-1.63031">
        <ele>41.9</ele>
        <time>2015-05-10T06:23:32Z</time>
      </trkpt>
      <trkpt lat="47.33118" lon="-1.63024">
        <ele>42.1</ele>
        <time>2015-05-10T06:23:34Z</time>
      </trkpt>
      <trkpt lat="47.33121" lon="-1.63018">
        <ele>42.4</ele>
        <time>2015-05-10T06:23:36Z</time>
      </trkpt>
      <trkpt lat="47.33122" lon="-1.63014">
        <ele>42.5</ele>
        <time>2015-05-10T06:23:37Z</time>
      </trkpt>
      <trkpt lat="47.33124" lon="-1.63011">
        <ele>42.7</ele>
        <time>2015-05-10T06:23:38Z</time>
      </trkpt>
      <trkpt lat="47.33127" lon="-1.63005">
        <ele>43</ele>
        <time>2015-05-10T06:23:40Z</time>
      </trkpt>
      <trkpt lat="47.3313" lon="-1.63001">
        <ele>43.4</ele>
        <time>2015-05-10T06:23:42Z</time>
      </trkpt>
      <trkpt lat="47.33134" lon="-1.63004">
        <ele>43.7</ele>
        <time>2015-05-10T06:23:44Z</time>
      </trkpt>
      <trkpt lat="47.33136" lon="-1.63007">
        <ele>43.7</ele>
        <time>2015-05-10T06:23:45Z</time>
      </trkpt>
      <trkpt lat="47.33137" lon="-1.6301">
        <ele>43.8</ele>
        <time>2015-05-10T06:23:46Z</time>
      </trkpt>
      <trkpt lat="47.33138" lon="-1.63014">
        <ele>43.8</ele>
        <time>2015-05-10T06:23:47Z</time>
      </trkpt>
      <trkpt lat="47.33139" lon="-1.63018">
        <ele>43.7</ele>
        <time>2015-05-10T06:23:48Z</time>
      </trkpt>
      <trkpt lat="47.33139" lon="-1.63023">
        <ele>43.6</ele>
        <time>2015-05-10T06:23:49Z</time>
      </trkpt>
      <trkpt lat="47.33139" lon="-1.63027">
        <ele>43.5</ele>
        <time>2015-05-10T06:23:50Z</time>
      </trkpt>
      <trkpt lat="47.3314" lon="-1.63032">
        <ele>43.4</ele>
        <time>2015-05-10T06:23:51Z</time>
      </trkpt>
      <trkpt lat="47.3314" lon="-1.63037">
        <ele>43.4</ele>
        <time>2015-05-10T06:23:52Z</time>
      </trkpt>
      <trkpt lat="47.3314" lon="-1.63043">
        <ele>43.3</ele>
        <time>2015-05-10T06:23:53Z</time>
      </trkpt>
      <trkpt lat="47.33141" lon="-1.63048">
        <ele>43.3</ele>
        <time>2015-05-10T06:23:54Z</time>
      </trkpt>
      <trkpt lat="47.33142" lon="-1.63053">
        <ele>43.2</ele>
        <time>2015-05-10T06:23:55Z</time>
      </trkpt>
      <trkpt lat="47.33143" lon="-1.63058">
        <ele>43.2</ele>
        <time>2015-05-10T06:23:56Z</time>
      </trkpt>
      <trkpt lat="47.33143" lon="-1.63063">
        <ele>43.2</ele>
        <time>2015-05-10T06:23:57Z</time>
      </trkpt>
      <trkpt lat="47.33144" lon="-1.63067">
        <ele>43.2</ele>
        <time>2015-05-10T06:23:58Z</time>
      </trkpt>
      <trkpt lat="47.33146" lon="-1.63072">
        <ele>43.3</ele>
        <time>2015-05-10T06:23:59Z</time>
      </trkpt>
      <trkpt lat="47.33148" lon="-1.63078">
        <ele>43.4</ele>
        <time>2015-05-10T06:24:00Z</time>
      </trkpt>
      <trkpt lat="47.3315" lon="-1.63083">
        <ele>43.4</ele>
        <time>2015-05-10T06:24:01Z</time>
      </trkpt>
      <trkpt lat="47.33152" lon="-1.63089">
        <ele>43.5</ele>
        <time>2015-05-10T06:24:02Z</time>
      </trkpt>
      <trkpt lat="47.33156" lon="-1.63095">
        <ele>43.7</ele>
        <time>2015-05-10T06:24:03Z</time>
      </trkpt>
      <trkpt lat="47.33159" lon="-1.631">
        <ele>43.8</ele>
        <time>2015-05-10T06:24:04Z</time>
      </trkpt>
      <trkpt lat="47.33161" lon="-1.63106">
        <ele>43.9</ele>
        <time>2015-05-10T06:24:05Z</time>
      </trkpt>
      <trkpt lat="47.33164" lon="-1.63111">
        <ele>44.1</ele>
        <time>2015-05-10T06:24:06Z</time>
      </trkpt>
      <trkpt lat="47.33168" lon="-1.63116">
        <ele>44.2</ele>
        <time>2015-05-10T06:24:07Z</time>
      </trkpt>
      <trkpt lat="47.3317" lon="-1.63121">
        <ele>44.3</ele>
        <time>2015-05-10T06:24:08Z</time>
      </trkpt>
      <trkpt lat="47.33173" lon="-1.63125">
        <ele>44.5</ele>
        <time>2015-05-10T06:24:09Z</time>
      </trkpt>
      <trkpt lat="47.33176" lon="-1.63129">
        <ele>44.6</ele>
        <time>2015-05-10T06:24:10Z</time>
      </trkpt>
      <trkpt lat="47.33179" lon="-1.63135">
        <ele>44.8</ele>
        <time>2015-05-10T06:24:11Z</time>
      </trkpt>
      <trkpt lat="47.33183" lon="-1.6314">
        <ele>44.9</ele>
        <time>2015-05-10T06:24:12Z</time>
      </trkpt>
      <trkpt lat="47.33185" lon="-1.63146">
        <ele>45</ele>
        <time>2015-05-10T06:24:13Z</time>
      </trkpt>
      <trkpt lat="47.33187" lon="-1.63151">
        <ele>45</ele>
        <time>2015-05-10T06:24:14Z</time>
      </trkpt>
      <trkpt lat="47.33189" lon="-1.63156">
        <ele>45</ele>
        <time>2015-05-10T06:24:15Z</time>
      </trkpt>
      <trkpt lat="47.33191" lon="-1.63162">
        <ele>45</ele>
        <time>2015-05-10T06:24:16Z</time>
      </trkpt>
      <trkpt lat="47.33192" lon="-1.63167">
        <ele>45</ele>
        <time>2015-05-10T06:24:17Z</time>
      </trkpt>
      <trkpt lat="47.33194" lon="-1.63173">
        <ele>45</ele>
        <time>2015-05-10T06:24:18Z</time>
      </trkpt>
      <trkpt lat="47.33195" lon="-1.63178">
        <ele>45</ele>
        <time>2015-05-10T06:24:19Z</time>
      </trkpt>
      <trkpt lat="47.33197" lon="-1.63183">
        <ele>45</ele>
        <time>2015-05-10T06:24:20Z</time>
      </trkpt>
      <trkpt lat="47.33198" lon="-1.63189">
        <ele>44.9</ele>
        <time>2015-05-10T06:24:21Z</time>
      </trkpt>
      <trkpt lat="47.332" lon="-1.63194">
        <ele>44.9</ele>
        <time>2015-05-10T06:24:22Z</time>
      </trkpt>
      <trkpt lat="47.33202" lon="-1.63199">
        <ele>44.9</ele>
        <time>2015-05-10T06:24:23Z</time>
      </trkpt>
      <trkpt lat="47.33203" lon="-1.63205">
        <ele>44.8</ele>
        <time>2015-05-10T06:24:24Z</time>
      </trkpt>
      <trkpt lat="47.33203" lon="-1.6321">
        <ele>44.8</ele>
        <time>2015-05-10T06:24:25Z</time>
      </trkpt>
      <trkpt lat="47.33204" lon="-1.63216">
        <ele>44.8</ele>
        <time>2015-05-10T06:24:26Z</time>
      </trkpt>
      <trkpt lat="47.33205" lon="-1.63221">
        <ele>44.9</ele>
        <time>2015-05-10T06:24:27Z</time>
      </trkpt>
      <trkpt lat="47.33206" lon="-1.63227">
        <ele>44.9</ele>
        <time>2015-05-10T06:24:28Z</time>
      </trkpt>
      <trkpt lat="47.33208" lon="-1.63232">
        <ele>45</ele>
        <time>2015-05-10T06:24:29Z</time>
      </trkpt>
      <trkpt lat="47.3321" lon="-1.63237">
        <ele>45.1</ele>
        <time>2015-05-10T06:24:30Z</time>
      </trkpt>
      <trkpt lat="47.33212" lon="-1.63241">
        <ele>45.2</ele>
        <time>2015-05-10T06:24:31Z</time>
      </trkpt>
      <trkpt lat="47.33215" lon="-1.63245">
        <ele>45.5</ele>
        <time>2015-05-10T06:24:32Z</time>
      </trkpt>
      <trkpt lat="47.33218" lon="-1.63249">
        <ele>45.7</ele>
        <time>2015-05-10T06:24:33Z</time>
      </trkpt>
      <trkpt lat="47.33221" lon="-1.63253">
        <ele>45.9</ele>
        <time>2015-05-10T06:24:34Z</time>
      </trkpt>
      <trkpt lat="47.33222" lon="-1.63258">
        <ele>46</ele>
        <time>2015-05-10T06:24:35Z</time>
      </trkpt>
      <trkpt lat="47.33222" lon="-1.63264">
        <ele>45.9</ele>
        <time>2015-05-10T06:24:36Z</time>
      </trkpt>
      <trkpt lat="47.33222" lon="-1.6327">
        <ele>46</ele>
        <time>2015-05-10T06:24:37Z</time>
      </trkpt>
      <trkpt lat="47.33223" lon="-1.63276">
        <ele>46.1</ele>
        <time>2015-05-10T06:24:38Z</time>
      </trkpt>
      <trkpt lat="47.33224" lon="-1.63282">
        <ele>46.1</ele>
        <time>2015-05-10T06:24:39Z</time>
      </trkpt>
      <trkpt lat="47.33224" lon="-1.63287">
        <ele>46.1</ele>
        <time>2015-05-10T06:24:40Z</time>
      </trkpt>
      <trkpt lat="47.33224" lon="-1.63293">
        <ele>46.2</ele>
        <time>2015-05-10T06:24:41Z</time>
      </trkpt>
      <trkpt lat="47.33224" lon="-1.63298">
        <ele>46.4</ele>
        <time>2015-05-10T06:24:42Z</time>
      </trkpt>
      <trkpt lat="47.33225" lon="-1.63304">
        <ele>46.6</ele>
        <time>2015-05-10T06:24:43Z</time>
      </trkpt>
      <trkpt lat="47.33227" lon="-1.63308">
        <ele>46.9</ele>
        <time>2015-05-10T06:24:44Z</time>
      </trkpt>
      <trkpt lat="47.3323" lon="-1.63312">
        <ele>47.2</ele>
        <time>2015-05-10T06:24:45Z</time>
      </trkpt>
      <trkpt lat="47.33234" lon="-1.63313">
        <ele>47.5</ele>
        <time>2015-05-10T06:24:46Z</time>
      </trkpt>
      <trkpt lat="47.33238" lon="-1.63313">
        <ele>47.8</ele>
        <time>2015-05-10T06:24:47Z</time>
      </trkpt>
      <trkpt lat="47.33242" lon="-1.63313">
        <ele>48.1</ele>
        <time>2015-05-10T06:24:48Z</time>
      </trkpt>
      <trkpt lat="47.33245" lon="-1.63313">
        <ele>48.3</ele>
        <time>2015-05-10T06:24:49Z</time>
      </trkpt>
      <trkpt lat="47.33249" lon="-1.63313">
        <ele>48.6</ele>
        <time>2015-05-10T06:24:50Z</time>
      </trkpt>
      <trkpt lat="47.33252" lon="-1.63313">
        <ele>48.8</ele>
        <time>2015-05-10T06:24:51Z</time>
      </trkpt>
      <trkpt lat="47.33256" lon="-1.63313">
        <ele>49</ele>
        <time>2015-05-10T06:24:52Z</time>
      </trkpt>
      <trkpt lat="47.33259" lon="-1.63313">
        <ele>49.3</ele>
        <time>2015-05-10T06:24:53Z</time>
      </trkpt>
      <trkpt lat="47.33263" lon="-1.63313">
        <ele>49.5</ele>
        <time>2015-05-10T06:24:54Z</time>
      </trkpt>
      <trkpt lat="47.33266" lon="-1.63313">
        <ele>49.8</ele>
        <time>2015-05-10T06:24:55Z</time>
      </trkpt>
      <trkpt lat="47.33269" lon="-1.63313">
        <ele>50</ele>
        <time>2015-05-10T06:24:56Z</time>
      </trkpt>
      <trkpt lat="47.33273" lon="-1.63313">
        <ele>50.2</ele>
        <time>2015-05-10T06:24:57Z</time>
      </trkpt>
      <trkpt lat="47.33276" lon="-1.63313">
        <ele>50.4</ele>
        <time>2015-05-10T06:24:58Z</time>
      </trkpt>
      <trkpt lat="47.33279" lon="-1.63314">
        <ele>50.7</ele>
        <time>2015-05-10T06:24:59Z</time>
      </trkpt>
      <trkpt lat="47.33282" lon="-1.63315">
        <ele>50.9</ele>
        <time>2015-05-10T06:25:00Z</time>
      </trkpt>
      <trkpt lat="47.33285" lon="-1.63317">
        <ele>51.1</ele>
        <time>2015-05-10T06:25:01Z</time>
      </trkpt>
      <trkpt lat="47.33288" lon="-1.63318">
        <ele>51.4</ele>
        <time>2015-05-10T06:25:02Z</time>
      </trkpt>
      <trkpt lat="47.33292" lon="-1.6332">
        <ele>51.7</ele>
        <time>2015-05-10T06:25:03Z</time>
      </trkpt>
      <trkpt lat="47.33295" lon="-1.63322">
        <ele>51.9</ele>
        <time>2015-05-10T06:25:04Z</time>
      </trkpt>
      <trkpt lat="47.33299" lon="-1.63323">
        <ele>52</ele>
        <time>2015-05-10T06:25:05Z</time>
      </trkpt>
      <trkpt lat="47.33302" lon="-1.63324">
        <ele>52.2</ele>
        <time>2015-05-10T06:25:06Z</time>
      </trkpt>
      <trkpt lat="47.33307" lon="-1.63324">
        <ele>52.4</ele>
        <time>2015-05-10T06:25:07Z</time>
      </trkpt>
      <trkpt lat="47.33311" lon="-1.63325">
        <ele>52.5</ele>
        <time>2015-05-10T06:25:08Z</time>
      </trkpt>
      <trkpt lat="47.33314" lon="-1.63326">
        <ele>52.7</ele>
        <time>2015-05-10T06:25:09Z</time>
      </trkpt>
      <trkpt lat="47.33317" lon="-1.63328">
        <ele>52.8</ele>
        <time>2015-05-10T06:25:10Z</time>
      </trkpt>
      <trkpt lat="47.3332" lon="-1.63329">
        <ele>53</ele>
        <time>2015-05-10T06:25:11Z</time>
      </trkpt>
      <trkpt lat="47.33325" lon="-1.6333">
        <ele>53.2</ele>
        <time>2015-05-10T06:25:13Z</time>
      </trkpt>
      <trkpt lat="47.33329" lon="-1.6333">
        <ele>53.3</ele>
        <time>2015-05-10T06:25:14Z</time>
      </trkpt>
      <trkpt lat="47.33332" lon="-1.63328">
        <ele>53.4</ele>
        <time>2015-05-10T06:25:15Z</time>
      </trkpt>
      <trkpt lat="47.33335" lon="-1.63327">
        <ele>53.5</ele>
        <time>2015-05-10T06:25:16Z</time>
      </trkpt>
      <trkpt lat="47.33339" lon="-1.63325">
        <ele>53.6</ele>
        <time>2015-05-10T06:25:17Z</time>
      </trkpt>
      <trkpt lat="47.33343" lon="-1.63324">
        <ele>53.7</ele>
        <time>2015-05-10T06:25:18Z</time>
      </trkpt>
      <trkpt lat="47.33346" lon="-1.63323">
        <ele>53.9</ele>
        <time>2015-05-10T06:25:19Z</time>
      </trkpt>
      <trkpt lat="47.33349" lon="-1.63321">
        <ele>54</ele>
        <time>2015-05-10T06:25:20Z</time>
      </trkpt>
      <trkpt lat="47.33353" lon="-1.63319">
        <ele>54.1</ele>
        <time>2015-05-10T06:25:21Z</time>
      </trkpt>
      <trkpt lat="47.33356" lon="-1.63318">
        <ele>54.2</ele>
        <time>2015-05-10T06:25:22Z</time>
      </trkpt>
      <trkpt lat="47.33359" lon="-1.63316">
        <ele>54.4</ele>
        <time>2015-05-10T06:25:23Z</time>
      </trkpt>
      <trkpt lat="47.33362" lon="-1.63315">
        <ele>54.5</ele>
        <time>2015-05-10T06:25:24Z</time>
      </trkpt>
      <trkpt lat="47.33364" lon="-1.63313">
        <ele>54.6</ele>
        <time>2015-05-10T06:25:25Z</time>
      </trkpt>
      <trkpt lat="47.33367" lon="-1.63312">
        <ele>54.7</ele>
        <time>2015-05-10T06:25:26Z</time>
      </trkpt>
      <trkpt lat="47.3337" lon="-1.6331">
        <ele>54.8</ele>
        <time>2015-05-10T06:25:27Z</time>
      </trkpt>
      <trkpt lat="47.33373" lon="-1.63309">
        <ele>54.9</ele>
        <time>2015-05-10T06:25:28Z</time>
      </trkpt>
      <trkpt lat="47.33376" lon="-1.63306">
        <ele>55</ele>
        <time>2015-05-10T06:25:29Z</time>
      </trkpt>
      <trkpt lat="47.33378" lon="-1.63304">
        <ele>55.1</ele>
        <time>2015-05-10T06:25:30Z</time>
      </trkpt>
      <trkpt lat="47.33381" lon="-1.63303">
        <ele>55.2</ele>
        <time>2015-05-10T06:25:31Z</time>
      </trkpt>
      <trkpt lat="47.33384" lon="-1.63302">
        <ele>55.3</ele>
        <time>2015-05-10T06:25:32Z</time>
      </trkpt>
      <trkpt lat="47.33387" lon="-1.63301">
        <ele>55.4</ele>
        <time>2015-05-10T06:25:33Z</time>
      </trkpt>
      <trkpt lat="47.3339" lon="-1.63302">
        <ele>55.6</ele>
        <time>2015-05-10T06:25:34Z</time>
      </trkpt>
      <trkpt lat="47.33394" lon="-1.63303">
        <ele>55.7</ele>
        <time>2015-05-10T06:25:35Z</time>
      </trkpt>
      <trkpt lat="47.33399" lon="-1.63307">
        <ele>55.9</ele>
        <time>2015-05-10T06:25:37Z</time>
      </trkpt>
      <trkpt lat="47.33403" lon="-1.63311">
        <ele>56.1</ele>
        <time>2015-05-10T06:25:38Z</time>
      </trkpt>
      <trkpt lat="47.33406" lon="-1.63313">
        <ele>56.2</ele>
        <time>2015-05-10T06:25:39Z</time>
      </trkpt>
      <trkpt lat="47.33408" lon="-1.63314">
        <ele>56.3</ele>
        <time>2015-05-10T06:25:40Z</time>
      </trkpt>
      <trkpt lat="47.33413" lon="-1.63316">
        <ele>56.5</ele>
        <time>2015-05-10T06:25:42Z</time>
      </trkpt>
      <trkpt lat="47.33418" lon="-1.63316">
        <ele>56.7</ele>
        <time>2015-05-10T06:25:44Z</time>
      </trkpt>
      <trkpt lat="47.33421" lon="-1.63316">
        <ele>56.8</ele>
        <time>2015-05-10T06:25:45Z</time>
      </trkpt>
      <trkpt lat="47.33425" lon="-1.63314">
        <ele>57</ele>
        <time>2015-05-10T06:25:47Z</time>
      </trkpt>
      <trkpt lat="47.33428" lon="-1.63312">
        <ele>57</ele>
        <time>2015-05-10T06:25:48Z</time>
      </trkpt>
      <trkpt lat="47.33432" lon="-1.63309">
        <ele>57.2</ele>
        <time>2015-05-10T06:25:50Z</time>
      </trkpt>
      <trkpt lat="47.33434" lon="-1.63307">
        <ele>57.3</ele>
        <time>2015-05-10T06:25:51Z</time>
      </trkpt>
      <trkpt lat="47.33438" lon="-1.63303">
        <ele>57.4</ele>
        <time>2015-05-10T06:25:53Z</time>
      </trkpt>
      <trkpt lat="47.33441" lon="-1.63302">
        <ele>57.5</ele>
        <time>2015-05-10T06:25:54Z</time>
      </trkpt>
      <trkpt lat="47.33447" lon="-1.63304">
        <ele>57.7</ele>
        <time>2015-05-10T06:25:56Z</time>
      </trkpt>
      <trkpt lat="47.33451" lon="-1.6331">
        <ele>57.9</ele>
        <time>2015-05-10T06:25:58Z</time>
      </trkpt>
      <trkpt lat="47.33454" lon="-1.63314">
        <ele>58.1</ele>
        <time>2015-05-10T06:25:59Z</time>
      </trkpt>
      <trkpt lat="47.33457" lon="-1.63321">
        <ele>58.3</ele>
        <time>2015-05-10T06:26:00Z</time>
      </trkpt>
      <trkpt lat="47.33458" lon="-1.63326">
        <ele>58.4</ele>
        <time>2015-05-10T06:26:01Z</time>
      </trkpt>
      <trkpt lat="47.3346" lon="-1.6333">
        <ele>58.5</ele>
        <time>2015-05-10T06:26:02Z</time>
      </trkpt>
      <trkpt lat="47.33463" lon="-1.63337">
        <ele>58.7</ele>
        <time>2015-05-10T06:26:04Z</time>
      </trkpt>
      <trkpt lat="47.33464" lon="-1.63345">
        <ele>58.8</ele>
        <time>2015-05-10T06:26:06Z</time>
      </trkpt>
      <trkpt lat="47.33467" lon="-1.63352">
        <ele>59</ele>
        <time>2015-05-10T06:26:07Z</time>
      </trkpt>
      <trkpt lat="47.33469" lon="-1.63358">
        <ele>59.2</ele>
        <time>2015-05-10T06:26:08Z</time>
      </trkpt>
      <trkpt lat="47.3347" lon="-1.63362">
        <ele>59.3</ele>
        <time>2015-05-10T06:26:09Z</time>
      </trkpt>
      <trkpt lat="47.33471" lon="-1.63367">
        <ele>59.4</ele>
        <time>2015-05-10T06:26:10Z</time>
      </trkpt>
      <trkpt lat="47.33472" lon="-1.63373">
        <ele>59.5</ele>
        <time>2015-05-10T06:26:11Z</time>
      </trkpt>
      <trkpt lat="47.33474" lon="-1.63379">
        <ele>59.6</ele>
        <time>2015-05-10T06:26:12Z</time>
      </trkpt>
      <trkpt lat="47.33475" lon="-1.63384">
        <ele>59.7</ele>
        <time>2015-05-10T06:26:13Z</time>
      </trkpt>
      <trkpt lat="47.33475" lon="-1.63388">
        <ele>59.8</ele>
        <time>2015-05-10T06:26:14Z</time>
      </trkpt>
      <trkpt lat="47.33477" lon="-1.63396">
        <ele>60</ele>
        <time>2015-05-10T06:26:16Z</time>
      </trkpt>
      <trkpt lat="47.33478" lon="-1.63402">
        <ele>60.1</ele>
        <time>2015-05-10T06:26:18Z</time>
      </trkpt>
      <trkpt lat="47.3348" lon="-1.6341">
        <ele>60.3</ele>
        <time>2015-05-10T06:26:20Z</time>
      </trkpt>
      <trkpt lat="47.33481" lon="-1.63414">
        <ele>60.4</ele>
        <time>2015-05-10T06:26:21Z</time>
      </trkpt>
      <trkpt lat="47.33482" lon="-1.63418">
        <ele>60.5</ele>
        <time>2015-05-10T06:26:22Z</time>
      </trkpt>
      <trkpt lat="47.33483" lon="-1.63422">
        <ele>60.6</ele>
        <time>2015-05-10T06:26:23Z</time>
      </trkpt>
      <trkpt lat="47.33485" lon="-1.63429">
        <ele>60.8</ele>
        <time>2015-05-10T06:26:25Z</time>
      </trkpt>
      <trkpt lat="47.33486" lon="-1.63434">
        <ele>60.9</ele>
        <time>2015-05-10T06:26:26Z</time>
      </trkpt>
      <trkpt lat="47.33489" lon="-1.6344">
        <ele>61.2</ele>
        <time>2015-05-10T06:26:27Z</time>
      </trkpt>
      <trkpt lat="47.33491" lon="-1.63446">
        <ele>61.4</ele>
        <time>2015-05-10T06:26:28Z</time>
      </trkpt>
      <trkpt lat="47.33493" lon="-1.6345">
        <ele>61.5</ele>
        <time>2015-05-10T06:26:29Z</time>
      </trkpt>
      <trkpt lat="47.33494" lon="-1.63454">
        <ele>61.7</ele>
        <time>2015-05-10T06:26:30Z</time>
      </trkpt>
      <trkpt lat="47.33496" lon="-1.63458">
        <ele>61.8</ele>
        <time>2015-05-10T06:26:31Z</time>
      </trkpt>
      <trkpt lat="47.33497" lon="-1.63461">
        <ele>61.8</ele>
        <time>2015-05-10T06:26:32Z</time>
      </trkpt>
      <trkpt lat="47.33498" lon="-1.63465">
        <ele>61.8</ele>
        <time>2015-05-10T06:26:33Z</time>
      </trkpt>
      <trkpt lat="47.33499" lon="-1.63469">
        <ele>61.8</ele>
        <time>2015-05-10T06:26:34Z</time>
      </trkpt>
      <trkpt lat="47.335" lon="-1.63473">
        <ele>61.8</ele>
        <time>2015-05-10T06:26:35Z</time>
      </trkpt>
      <trkpt lat="47.33502" lon="-1.63478">
        <ele>61.8</ele>
        <time>2015-05-10T06:26:36Z</time>
      </trkpt>
      <trkpt lat="47.33504" lon="-1.63485">
        <ele>61.9</ele>
        <time>2015-05-10T06:26:37Z</time>
      </trkpt>
      <trkpt lat="47.33506" lon="-1.63491">
        <ele>61.9</ele>
        <time>2015-05-10T06:26:38Z</time>
      </trkpt>
      <trkpt lat="47.33507" lon="-1.63496">
        <ele>61.9</ele>
        <time>2015-05-10T06:26:39Z</time>
      </trkpt>
      <trkpt lat="47.33508" lon="-1.635">
        <ele>61.9</ele>
        <time>2015-05-10T06:26:40Z</time>
      </trkpt>
      <trkpt lat="47.33509" lon="-1.63506">
        <ele>61.9</ele>
        <time>2015-05-10T06:26:41Z</time>
      </trkpt>
      <trkpt lat="47.33509" lon="-1.63511">
        <ele>61.8</ele>
        <time>2015-05-10T06:26:42Z</time>
      </trkpt>
      <trkpt lat="47.3351" lon="-1.63515">
        <ele>61.8</ele>
        <time>2015-05-10T06:26:43Z</time>
      </trkpt>
      <trkpt lat="47.33511" lon="-1.63519">
        <ele>61.8</ele>
        <time>2015-05-10T06:26:44Z</time>
      </trkpt>
      <trkpt lat="47.33513" lon="-1.63526">
        <ele>61.8</ele>
        <time>2015-05-10T06:26:46Z</time>
      </trkpt>
      <trkpt lat="47.33514" lon="-1.6353">
        <ele>61.8</ele>
        <time>2015-05-10T06:26:47Z</time>
      </trkpt>
      <trkpt lat="47.33515" lon="-1.63538">
        <ele>61.8</ele>
        <time>2015-05-10T06:26:49Z</time>
      </trkpt>
      <trkpt lat="47.33516" lon="-1.63544">
        <ele>61.8</ele>
        <time>2015-05-10T06:26:51Z</time>
      </trkpt>
      <trkpt lat="47.33517" lon="-1.63548">
        <ele>61.9</ele>
        <time>2015-05-10T06:26:52Z</time>
      </trkpt>
      <trkpt lat="47.33519" lon="-1.63555">
        <ele>62</ele>
        <time>2015-05-10T06:26:54Z</time>
      </trkpt>
      <trkpt lat="47.33521" lon="-1.63563">
        <ele>62.1</ele>
        <time>2015-05-10T06:26:56Z</time>
      </trkpt>
      <trkpt lat="47.33523" lon="-1.63567">
        <ele>62.2</ele>
        <time>2015-05-10T06:26:57Z</time>
      </trkpt>
      <trkpt lat="47.33525" lon="-1.63571">
        <ele>62.3</ele>
        <time>2015-05-10T06:26:58Z</time>
      </trkpt>
      <trkpt lat="47.33526" lon="-1.63574">
        <ele>62.4</ele>
        <time>2015-05-10T06:26:59Z</time>
      </trkpt>
      <trkpt lat="47.33529" lon="-1.63582">
        <ele>62.6</ele>
        <time>2015-05-10T06:27:01Z</time>
      </trkpt>
      <trkpt lat="47.33531" lon="-1.63586">
        <ele>62.6</ele>
        <time>2015-05-10T06:27:02Z</time>
      </trkpt>
      <trkpt lat="47.33532" lon="-1.63592">
        <ele>62.7</ele>
        <time>2015-05-10T06:27:03Z</time>
      </trkpt>
      <trkpt lat="47.33534" lon="-1.63599">
        <ele>62.8</ele>
        <time>2015-05-10T06:27:04Z</time>
      </trkpt>
      <trkpt lat="47.33536" lon="-1.63604">
        <ele>62.8</ele>
        <time>2015-05-10T06:27:05Z</time>
      </trkpt>
      <trkpt lat="47.33538" lon="-1.6361">
        <ele>62.9</ele>
        <time>2015-05-10T06:27:06Z</time>
      </trkpt>
      <trkpt lat="47.33539" lon="-1.63615">
        <ele>62.9</ele>
        <time>2015-05-10T06:27:07Z</time>
      </trkpt>
      <trkpt lat="47.3354" lon="-1.63619">
        <ele>63</ele>
        <time>2015-05-10T06:27:08Z</time>
      </trkpt>
      <trkpt lat="47.33542" lon="-1.63625">
        <ele>63</ele>
        <time>2015-05-10T06:27:09Z</time>
      </trkpt>
      <trkpt lat="47.33542" lon="-1.63629">
        <ele>63.1</ele>
        <time>2015-05-10T06:27:10Z</time>
      </trkpt>
      <trkpt lat="47.33543" lon="-1.63635">
        <ele>63.1</ele>
        <time>2015-05-10T06:27:11Z</time>
      </trkpt>
      <trkpt lat="47.33544" lon="-1.6364">
        <ele>63.2</ele>
        <time>2015-05-10T06:27:12Z</time>
      </trkpt>
      <trkpt lat="47.33545" lon="-1.63645">
        <ele>63.3</ele>
        <time>2015-05-10T06:27:13Z</time>
      </trkpt>
      <trkpt lat="47.33546" lon="-1.6365">
        <ele>63.4</ele>
        <time>2015-05-10T06:27:14Z</time>
      </trkpt>
      <trkpt lat="47.33547" lon="-1.63655">
        <ele>63.5</ele>
        <time>2015-05-10T06:27:15Z</time>
      </trkpt>
      <trkpt lat="47.33549" lon="-1.6366">
        <ele>63.6</ele>
        <time>2015-05-10T06:27:16Z</time>
      </trkpt>
      <trkpt lat="47.3355" lon="-1.63665">
        <ele>63.6</ele>
        <time>2015-05-10T06:27:17Z</time>
      </trkpt>
      <trkpt lat="47.33553" lon="-1.63672">
        <ele>63.8</ele>
        <time>2015-05-10T06:27:19Z</time>
      </trkpt>
      <trkpt lat="47.33554" lon="-1.63677">
        <ele>63.8</ele>
        <time>2015-05-10T06:27:20Z</time>
      </trkpt>
      <trkpt lat="47.33555" lon="-1.63683">
        <ele>63.9</ele>
        <time>2015-05-10T06:27:21Z</time>
      </trkpt>
      <trkpt lat="47.33557" lon="-1.63687">
        <ele>64</ele>
        <time>2015-05-10T06:27:22Z</time>
      </trkpt>
      <trkpt lat="47.33558" lon="-1.63693">
        <ele>64</ele>
        <time>2015-05-10T06:27:24Z</time>
      </trkpt>
      <trkpt lat="47.3356" lon="-1.63698">
        <ele>64.1</ele>
        <time>2015-05-10T06:27:25Z</time>
      </trkpt>
      <trkpt lat="47.33562" lon="-1.63701">
        <ele>64.2</ele>
        <time>2015-05-10T06:27:26Z</time>
      </trkpt>
      <trkpt lat="47.33565" lon="-1.6371">
        <ele>64.3</ele>
        <time>2015-05-10T06:27:28Z</time>
      </trkpt>
      <trkpt lat="47.33567" lon="-1.63716">
        <ele>64.2</ele>
        <time>2015-05-10T06:27:29Z</time>
      </trkpt>
      <trkpt lat="47.33568" lon="-1.6372">
        <ele>64.2</ele>
        <time>2015-05-10T06:27:30Z</time>
      </trkpt>
      <trkpt lat="47.33571" lon="-1.63727">
        <ele>64.1</ele>
        <time>2015-05-10T06:27:32Z</time>
      </trkpt>
      <trkpt lat="47.33572" lon="-1.63731">
        <ele>64.1</ele>
        <time>2015-05-10T06:27:33Z</time>
      </trkpt>
      <trkpt lat="47.33573" lon="-1.63737">
        <ele>64</ele>
        <time>2015-05-10T06:27:34Z</time>
      </trkpt>
      <trkpt lat="47.33574" lon="-1.63742">
        <ele>64</ele>
        <time>2015-05-10T06:27:35Z</time>
      </trkpt>
      <trkpt lat="47.33574" lon="-1.63747">
        <ele>63.9</ele>
        <time>2015-05-10T06:27:36Z</time>
      </trkpt>
      <trkpt lat="47.33575" lon="-1.63752">
        <ele>63.9</ele>
        <time>2015-05-10T06:27:37Z</time>
      </trkpt>
      <trkpt lat="47.33575" lon="-1.63756">
        <ele>63.8</ele>
        <time>2015-05-10T06:27:38Z</time>
      </trkpt>
      <trkpt lat="47.33577" lon="-1.63761">
        <ele>63.8</ele>
        <time>2015-05-10T06:27:39Z</time>
      </trkpt>
      <trkpt lat="47.33582" lon="-1.63773">
        <ele>63.7</ele>
        <time>2015-05-10T06:27:41Z</time>
      </trkpt>
      <trkpt lat="47.33587" lon="-1.63784">
        <ele>63.6</ele>
        <time>2015-05-10T06:27:42Z</time>
      </trkpt>
      <trkpt lat="47.33588" lon="-1.6379">
        <ele>63.6</ele>
        <time>2015-05-10T06:27:43Z</time>
      </trkpt>
      <trkpt lat="47.3359" lon="-1.63796">
        <ele>63.6</ele>
        <time>2015-05-10T06:27:44Z</time>
      </trkpt>
      <trkpt lat="47.33592" lon="-1.63801">
        <ele>63.5</ele>
        <time>2015-05-10T06:27:45Z</time>
      </trkpt>
      <trkpt lat="47.33592" lon="-1.63805">
        <ele>63.5</ele>
        <time>2015-05-10T06:27:46Z</time>
      </trkpt>
      <trkpt lat="47.33592" lon="-1.6381">
        <ele>63.5</ele>
        <time>2015-05-10T06:27:47Z</time>
      </trkpt>
      <trkpt lat="47.33593" lon="-1.63815">
        <ele>63.4</ele>
        <time>2015-05-10T06:27:48Z</time>
      </trkpt>
      <trkpt lat="47.33594" lon="-1.6382">
        <ele>63.4</ele>
        <time>2015-05-10T06:27:49Z</time>
      </trkpt>
      <trkpt lat="47.33594" lon="-1.63825">
        <ele>63.4</ele>
        <time>2015-05-10T06:27:50Z</time>
      </trkpt>
      <trkpt lat="47.33596" lon="-1.6383">
        <ele>63.4</ele>
        <time>2015-05-10T06:27:51Z</time>
      </trkpt>
      <trkpt lat="47.33597" lon="-1.63834">
        <ele>63.3</ele>
        <time>2015-05-10T06:27:52Z</time>
      </trkpt>
      <trkpt lat="47.33598" lon="-1.63838">
        <ele>63.3</ele>
        <time>2015-05-10T06:27:53Z</time>
      </trkpt>
      <trkpt lat="47.336" lon="-1.63846">
        <ele>63.2</ele>
        <time>2015-05-10T06:27:55Z</time>
      </trkpt>
      <trkpt lat="47.33601" lon="-1.6385">
        <ele>63.2</ele>
        <time>2015-05-10T06:27:56Z</time>
      </trkpt>
      <trkpt lat="47.33602" lon="-1.63854">
        <ele>63.2</ele>
        <time>2015-05-10T06:27:57Z</time>
      </trkpt>
      <trkpt lat="47.33602" lon="-1.63858">
        <ele>63.2</ele>
        <time>2015-05-10T06:27:58Z</time>
      </trkpt>
      <trkpt lat="47.33605" lon="-1.63865">
        <ele>63.1</ele>
        <time>2015-05-10T06:28:00Z</time>
      </trkpt>
      <trkpt lat="47.33607" lon="-1.63871">
        <ele>63</ele>
        <time>2015-05-10T06:28:02Z</time>
      </trkpt>
      <trkpt lat="47.33608" lon="-1.63878">
        <ele>63</ele>
        <time>2015-05-10T06:28:03Z</time>
      </trkpt>
      <trkpt lat="47.3361" lon="-1.63882">
        <ele>63</ele>
        <time>2015-05-10T06:28:04Z</time>
      </trkpt>
      <trkpt lat="47.33611" lon="-1.63886">
        <ele>63</ele>
        <time>2015-05-10T06:28:05Z</time>
      </trkpt>
      <trkpt lat="47.33612" lon="-1.6389">
        <ele>63</ele>
        <time>2015-05-10T06:28:06Z</time>
      </trkpt>
      <trkpt lat="47.33613" lon="-1.63894">
        <ele>63</ele>
        <time>2015-05-10T06:28:07Z</time>
      </trkpt>
      <trkpt lat="47.33615" lon="-1.63902">
        <ele>63</ele>
        <time>2015-05-10T06:28:09Z</time>
      </trkpt>
      <trkpt lat="47.33617" lon="-1.63906">
        <ele>63</ele>
        <time>2015-05-10T06:28:10Z</time>
      </trkpt>
      <trkpt lat="47.33619" lon="-1.6391">
        <ele>63</ele>
        <time>2015-05-10T06:28:11Z</time>
      </trkpt>
      <trkpt lat="47.33621" lon="-1.63915">
        <ele>63</ele>
        <time>2015-05-10T06:28:12Z</time>
      </trkpt>
      <trkpt lat="47.33621" lon="-1.6392">
        <ele>63</ele>
        <time>2015-05-10T06:28:13Z</time>
      </trkpt>
      <trkpt lat="47.33625" lon="-1.63926">
        <ele>63</ele>
        <time>2015-05-10T06:28:14Z</time>
      </trkpt>
      <trkpt lat="47.33626" lon="-1.63931">
        <ele>63</ele>
        <time>2015-05-10T06:28:15Z</time>
      </trkpt>
      <trkpt lat="47.33628" lon="-1.63936">
        <ele>63</ele>
        <time>2015-05-10T06:28:16Z</time>
      </trkpt>
      <trkpt lat="47.33629" lon="-1.63939">
        <ele>62.9</ele>
        <time>2015-05-10T06:28:17Z</time>
      </trkpt>
      <trkpt lat="47.33631" lon="-1.63944">
        <ele>62.9</ele>
        <time>2015-05-10T06:28:18Z</time>
      </trkpt>
      <trkpt lat="47.33633" lon="-1.63951">
        <ele>62.9</ele>
        <time>2015-05-10T06:28:19Z</time>
      </trkpt>
      <trkpt lat="47.33635" lon="-1.63956">
        <ele>62.9</ele>
        <time>2015-05-10T06:28:20Z</time>
      </trkpt>
      <trkpt lat="47.33636" lon="-1.63963">
        <ele>62.8</ele>
        <time>2015-05-10T06:28:21Z</time>
      </trkpt>
      <trkpt lat="47.33638" lon="-1.63967">
        <ele>62.8</ele>
        <time>2015-05-10T06:28:22Z</time>
      </trkpt>
      <trkpt lat="47.33639" lon="-1.63973">
        <ele>62.7</ele>
        <time>2015-05-10T06:28:23Z</time>
      </trkpt>
      <trkpt lat="47.33641" lon="-1.63978">
        <ele>62.6</ele>
        <time>2015-05-10T06:28:24Z</time>
      </trkpt>
      <trkpt lat="47.33643" lon="-1.63983">
        <ele>62.6</ele>
        <time>2015-05-10T06:28:25Z</time>
      </trkpt>
      <trkpt lat="47.33643" lon="-1.63987">
        <ele>62.5</ele>
        <time>2015-05-10T06:28:26Z</time>
      </trkpt>
      <trkpt lat="47.33645" lon="-1.63991">
        <ele>62.5</ele>
        <time>2015-05-10T06:28:27Z</time>
      </trkpt>
      <trkpt lat="47.33647" lon="-1.63997">
        <ele>62.4</ele>
        <time>2015-05-10T06:28:28Z</time>
      </trkpt>
      <trkpt lat="47.33648" lon="-1.64002">
        <ele>62.4</ele>
        <time>2015-05-10T06:28:29Z</time>
      </trkpt>
      <trkpt lat="47.33649" lon="-1.64006">
        <ele>62.3</ele>
        <time>2015-05-10T06:28:30Z</time>
      </trkpt>
      <trkpt lat="47.3365" lon="-1.64014">
        <ele>62.2</ele>
        <time>2015-05-10T06:28:32Z</time>
      </trkpt>
      <trkpt lat="47.33652" lon="-1.64018">
        <ele>62.2</ele>
        <time>2015-05-10T06:28:33Z</time>
      </trkpt>
      <trkpt lat="47.33654" lon="-1.64023">
        <ele>62.1</ele>
        <time>2015-05-10T06:28:34Z</time>
      </trkpt>
      <trkpt lat="47.33655" lon="-1.64029">
        <ele>62.1</ele>
        <time>2015-05-10T06:28:35Z</time>
      </trkpt>
      <trkpt lat="47.33656" lon="-1.64034">
        <ele>62.1</ele>
        <time>2015-05-10T06:28:36Z</time>
      </trkpt>
      <trkpt lat="47.33657" lon="-1.64039">
        <ele>62</ele>
        <time>2015-05-10T06:28:37Z</time>
      </trkpt>
      <trkpt lat="47.33659" lon="-1.64043">
        <ele>62</ele>
        <time>2015-05-10T06:28:38Z</time>
      </trkpt>
      <trkpt lat="47.3366" lon="-1.64049">
        <ele>62</ele>
        <time>2015-05-10T06:28:39Z</time>
      </trkpt>
      <trkpt lat="47.33662" lon="-1.64053">
        <ele>62</ele>
        <time>2015-05-10T06:28:40Z</time>
      </trkpt>
      <trkpt lat="47.33662" lon="-1.64058">
        <ele>62</ele>
        <time>2015-05-10T06:28:41Z</time>
      </trkpt>
      <trkpt lat="47.33663" lon="-1.64062">
        <ele>62</ele>
        <time>2015-05-10T06:28:42Z</time>
      </trkpt>
      <trkpt lat="47.33663" lon="-1.64067">
        <ele>62</ele>
        <time>2015-05-10T06:28:43Z</time>
      </trkpt>
      <trkpt lat="47.33663" lon="-1.64074">
        <ele>62</ele>
        <time>2015-05-10T06:28:44Z</time>
      </trkpt>
      <trkpt lat="47.33663" lon="-1.64079">
        <ele>62</ele>
        <time>2015-05-10T06:28:45Z</time>
      </trkpt>
      <trkpt lat="47.33665" lon="-1.64084">
        <ele>62</ele>
        <time>2015-05-10T06:28:46Z</time>
      </trkpt>
      <trkpt lat="47.33667" lon="-1.64089">
        <ele>62</ele>
        <time>2015-05-10T06:28:47Z</time>
      </trkpt>
      <trkpt lat="47.33669" lon="-1.64094">
        <ele>62</ele>
        <time>2015-05-10T06:28:48Z</time>
      </trkpt>
      <trkpt lat="47.33669" lon="-1.641">
        <ele>62</ele>
        <time>2015-05-10T06:28:49Z</time>
      </trkpt>
      <trkpt lat="47.3367" lon="-1.64105">
        <ele>62.1</ele>
        <time>2015-05-10T06:28:50Z</time>
      </trkpt>
      <trkpt lat="47.33671" lon="-1.64109">
        <ele>62.1</ele>
        <time>2015-05-10T06:28:51Z</time>
      </trkpt>
      <trkpt lat="47.33672" lon="-1.64113">
        <ele>62.1</ele>
        <time>2015-05-10T06:28:52Z</time>
      </trkpt>
      <trkpt lat="47.33674" lon="-1.64119">
        <ele>62.2</ele>
        <time>2015-05-10T06:28:53Z</time>
      </trkpt>
      <trkpt lat="47.33676" lon="-1.64124">
        <ele>62.2</ele>
        <time>2015-05-10T06:28:54Z</time>
      </trkpt>
      <trkpt lat="47.33677" lon="-1.6413">
        <ele>62.2</ele>
        <time>2015-05-10T06:28:55Z</time>
      </trkpt>
      <trkpt lat="47.33678" lon="-1.64136">
        <ele>62.2</ele>
        <time>2015-05-10T06:28:56Z</time>
      </trkpt>
      <trkpt lat="47.33679" lon="-1.64141">
        <ele>62.2</ele>
        <time>2015-05-10T06:28:57Z</time>
      </trkpt>
      <trkpt lat="47.33679" lon="-1.64145">
        <ele>62.1</ele>
        <time>2015-05-10T06:28:58Z</time>
      </trkpt>
      <trkpt lat="47.3368" lon="-1.64149">
        <ele>62.1</ele>
        <time>2015-05-10T06:28:59Z</time>
      </trkpt>
      <trkpt lat="47.33681" lon="-1.64153">
        <ele>62.1</ele>
        <time>2015-05-10T06:29:00Z</time>
      </trkpt>
      <trkpt lat="47.33683" lon="-1.64158">
        <ele>62.1</ele>
        <time>2015-05-10T06:29:01Z</time>
      </trkpt>
      <trkpt lat="47.33684" lon="-1.64163">
        <ele>62.1</ele>
        <time>2015-05-10T06:29:02Z</time>
      </trkpt>
      <trkpt lat="47.33686" lon="-1.64167">
        <ele>62.1</ele>
        <time>2015-05-10T06:29:03Z</time>
      </trkpt>
      <trkpt lat="47.33689" lon="-1.64172">
        <ele>62.1</ele>
        <time>2015-05-10T06:29:04Z</time>
      </trkpt>
      <trkpt lat="47.3369" lon="-1.64177">
        <ele>62.1</ele>
        <time>2015-05-10T06:29:05Z</time>
      </trkpt>
      <trkpt lat="47.33692" lon="-1.64183">
        <ele>62</ele>
        <time>2015-05-10T06:29:06Z</time>
      </trkpt>
      <trkpt lat="47.33693" lon="-1.64189">
        <ele>62</ele>
        <time>2015-05-10T06:29:07Z</time>
      </trkpt>
      <trkpt lat="47.33697" lon="-1.64198">
        <ele>62</ele>
        <time>2015-05-10T06:29:08Z</time>
      </trkpt>
      <trkpt lat="47.33699" lon="-1.64204">
        <ele>61.9</ele>
        <time>2015-05-10T06:29:09Z</time>
      </trkpt>
      <trkpt lat="47.33699" lon="-1.6421">
        <ele>61.9</ele>
        <time>2015-05-10T06:29:10Z</time>
      </trkpt>
      <trkpt lat="47.33701" lon="-1.64216">
        <ele>61.7</ele>
        <time>2015-05-10T06:29:11Z</time>
      </trkpt>
      <trkpt lat="47.33705" lon="-1.64225">
        <ele>61.6</ele>
        <time>2015-05-10T06:29:12Z</time>
      </trkpt>
      <trkpt lat="47.33709" lon="-1.64233">
        <ele>61.4</ele>
        <time>2015-05-10T06:29:13Z</time>
      </trkpt>
      <trkpt lat="47.33712" lon="-1.64241">
        <ele>61.2</ele>
        <time>2015-05-10T06:29:14Z</time>
      </trkpt>
      <trkpt lat="47.33715" lon="-1.64249">
        <ele>61</ele>
        <time>2015-05-10T06:29:15Z</time>
      </trkpt>
      <trkpt lat="47.33717" lon="-1.64259">
        <ele>60.8</ele>
        <time>2015-05-10T06:29:16Z</time>
      </trkpt>
      <trkpt lat="47.3372" lon="-1.64268">
        <ele>60.5</ele>
        <time>2015-05-10T06:29:17Z</time>
      </trkpt>
      <trkpt lat="47.33721" lon="-1.64276">
        <ele>60.3</ele>
        <time>2015-05-10T06:29:18Z</time>
      </trkpt>
      <trkpt lat="47.33723" lon="-1.64282">
        <ele>60.2</ele>
        <time>2015-05-10T06:29:19Z</time>
      </trkpt>
      <trkpt lat="47.33725" lon="-1.64289">
        <ele>60.1</ele>
        <time>2015-05-10T06:29:20Z</time>
      </trkpt>
      <trkpt lat="47.33727" lon="-1.64295">
        <ele>59.9</ele>
        <time>2015-05-10T06:29:21Z</time>
      </trkpt>
      <trkpt lat="47.33729" lon="-1.64301">
        <ele>59.9</ele>
        <time>2015-05-10T06:29:22Z</time>
      </trkpt>
      <trkpt lat="47.3373" lon="-1.64308">
        <ele>59.8</ele>
        <time>2015-05-10T06:29:23Z</time>
      </trkpt>
      <trkpt lat="47.33732" lon="-1.64314">
        <ele>59.7</ele>
        <time>2015-05-10T06:29:24Z</time>
      </trkpt>
      <trkpt lat="47.33732" lon="-1.6432">
        <ele>59.6</ele>
        <time>2015-05-10T06:29:25Z</time>
      </trkpt>
      <trkpt lat="47.33733" lon="-1.64325">
        <ele>59.5</ele>
        <time>2015-05-10T06:29:26Z</time>
      </trkpt>
      <trkpt lat="47.33734" lon="-1.6433">
        <ele>59.4</ele>
        <time>2015-05-10T06:29:27Z</time>
      </trkpt>
      <trkpt lat="47.33735" lon="-1.64335">
        <ele>59.3</ele>
        <time>2015-05-10T06:29:28Z</time>
      </trkpt>
      <trkpt lat="47.33736" lon="-1.64339">
        <ele>59.2</ele>
        <time>2015-05-10T06:29:29Z</time>
      </trkpt>
      <trkpt lat="47.33737" lon="-1.64347">
        <ele>59.1</ele>
        <time>2015-05-10T06:29:31Z</time>
      </trkpt>
      <trkpt lat="47.33738" lon="-1.64351">
        <ele>59</ele>
        <time>2015-05-10T06:29:32Z</time>
      </trkpt>
      <trkpt lat="47.3374" lon="-1.64356">
        <ele>58.9</ele>
        <time>2015-05-10T06:29:33Z</time>
      </trkpt>
      <trkpt lat="47.33741" lon="-1.64361">
        <ele>58.8</ele>
        <time>2015-05-10T06:29:34Z</time>
      </trkpt>
      <trkpt lat="47.33742" lon="-1.64367">
        <ele>58.7</ele>
        <time>2015-05-10T06:29:35Z</time>
      </trkpt>
      <trkpt lat="47.33743" lon="-1.64372">
        <ele>58.6</ele>
        <time>2015-05-10T06:29:36Z</time>
      </trkpt>
      <trkpt lat="47.33745" lon="-1.64377">
        <ele>58.6</ele>
        <time>2015-05-10T06:29:37Z</time>
      </trkpt>
      <trkpt lat="47.33746" lon="-1.64382">
        <ele>58.6</ele>
        <time>2015-05-10T06:29:38Z</time>
      </trkpt>
      <trkpt lat="47.33747" lon="-1.64386">
        <ele>58.5</ele>
        <time>2015-05-10T06:29:39Z</time>
      </trkpt>
      <trkpt lat="47.33749" lon="-1.64392">
        <ele>58.5</ele>
        <time>2015-05-10T06:29:40Z</time>
      </trkpt>
      <trkpt lat="47.33751" lon="-1.64398">
        <ele>58.5</ele>
        <time>2015-05-10T06:29:41Z</time>
      </trkpt>
      <trkpt lat="47.33753" lon="-1.64404">
        <ele>58.5</ele>
        <time>2015-05-10T06:29:42Z</time>
      </trkpt>
      <trkpt lat="47.33755" lon="-1.64411">
        <ele>58.4</ele>
        <time>2015-05-10T06:29:43Z</time>
      </trkpt>
      <trkpt lat="47.33755" lon="-1.64416">
        <ele>58.4</ele>
        <time>2015-05-10T06:29:44Z</time>
      </trkpt>
      <trkpt lat="47.33757" lon="-1.64422">
        <ele>58.4</ele>
        <time>2015-05-10T06:29:45Z</time>
      </trkpt>
      <trkpt lat="47.33757" lon="-1.64428">
        <ele>58.4</ele>
        <time>2015-05-10T06:29:46Z</time>
      </trkpt>
      <trkpt lat="47.33757" lon="-1.64432">
        <ele>58.4</ele>
        <time>2015-05-10T06:29:47Z</time>
      </trkpt>
      <trkpt lat="47.33759" lon="-1.64438">
        <ele>58.4</ele>
        <time>2015-05-10T06:29:48Z</time>
      </trkpt>
      <trkpt lat="47.3376" lon="-1.64444">
        <ele>58.4</ele>
        <time>2015-05-10T06:29:49Z</time>
      </trkpt>
      <trkpt lat="47.33761" lon="-1.64449">
        <ele>58.4</ele>
        <time>2015-05-10T06:29:50Z</time>
      </trkpt>
      <trkpt lat="47.33763" lon="-1.64455">
        <ele>58.3</ele>
        <time>2015-05-10T06:29:51Z</time>
      </trkpt>
      <trkpt lat="47.33766" lon="-1.64462">
        <ele>58.4</ele>
        <time>2015-05-10T06:29:52Z</time>
      </trkpt>
      <trkpt lat="47.33768" lon="-1.64468">
        <ele>58.5</ele>
        <time>2015-05-10T06:29:53Z</time>
      </trkpt>
      <trkpt lat="47.33769" lon="-1.64474">
        <ele>58.7</ele>
        <time>2015-05-10T06:29:54Z</time>
      </trkpt>
      <trkpt lat="47.33769" lon="-1.6448">
        <ele>58.8</ele>
        <time>2015-05-10T06:29:55Z</time>
      </trkpt>
      <trkpt lat="47.3377" lon="-1.64485">
        <ele>58.9</ele>
        <time>2015-05-10T06:29:56Z</time>
      </trkpt>
      <trkpt lat="47.33771" lon="-1.64489">
        <ele>59</ele>
        <time>2015-05-10T06:29:57Z</time>
      </trkpt>
      <trkpt lat="47.33771" lon="-1.64493">
        <ele>59.1</ele>
        <time>2015-05-10T06:29:58Z</time>
      </trkpt>
      <trkpt lat="47.33772" lon="-1.64497">
        <ele>59.2</ele>
        <time>2015-05-10T06:29:59Z</time>
      </trkpt>
      <trkpt lat="47.33774" lon="-1.64504">
        <ele>59.3</ele>
        <time>2015-05-10T06:30:01Z</time>
      </trkpt>
      <trkpt lat="47.33776" lon="-1.64512">
        <ele>59.5</ele>
        <time>2015-05-10T06:30:03Z</time>
      </trkpt>
      <trkpt lat="47.33778" lon="-1.64517">
        <ele>59.6</ele>
        <time>2015-05-10T06:30:04Z</time>
      </trkpt>
      <trkpt lat="47.33781" lon="-1.64525">
        <ele>59.7</ele>
        <time>2015-05-10T06:30:05Z</time>
      </trkpt>
      <trkpt lat="47.33783" lon="-1.64531">
        <ele>59.8</ele>
        <time>2015-05-10T06:30:06Z</time>
      </trkpt>
      <trkpt lat="47.33783" lon="-1.64538">
        <ele>60</ele>
        <time>2015-05-10T06:30:08Z</time>
      </trkpt>
      <trkpt lat="47.33784" lon="-1.64542">
        <ele>60.1</ele>
        <time>2015-05-10T06:30:09Z</time>
      </trkpt>
      <trkpt lat="47.33786" lon="-1.64546">
        <ele>60.1</ele>
        <time>2015-05-10T06:30:10Z</time>
      </trkpt>
      <trkpt lat="47.33789" lon="-1.64564">
        <ele>60.3</ele>
        <time>2015-05-10T06:30:24Z</time>
      </trkpt>
      <trkpt lat="47.33791" lon="-1.64572">
        <ele>60.4</ele>
        <time>2015-05-10T06:30:26Z</time>
      </trkpt>
      <trkpt lat="47.33792" lon="-1.64576">
        <ele>60.4</ele>
        <time>2015-05-10T06:30:27Z</time>
      </trkpt>
      <trkpt lat="47.33794" lon="-1.64583">
        <ele>60.5</ele>
        <time>2015-05-10T06:30:28Z</time>
      </trkpt>
      <trkpt lat="47.33797" lon="-1.6459">
        <ele>60.6</ele>
        <time>2015-05-10T06:30:29Z</time>
      </trkpt>
      <trkpt lat="47.33799" lon="-1.64597">
        <ele>60.7</ele>
        <time>2015-05-10T06:30:30Z</time>
      </trkpt>
      <trkpt lat="47.338" lon="-1.64603">
        <ele>60.7</ele>
        <time>2015-05-10T06:30:31Z</time>
      </trkpt>
      <trkpt lat="47.33801" lon="-1.64609">
        <ele>60.8</ele>
        <time>2015-05-10T06:30:32Z</time>
      </trkpt>
      <trkpt lat="47.33803" lon="-1.64615">
        <ele>60.9</ele>
        <time>2015-05-10T06:30:33Z</time>
      </trkpt>
      <trkpt lat="47.33806" lon="-1.64624">
        <ele>61</ele>
        <time>2015-05-10T06:30:34Z</time>
      </trkpt>
      <trkpt lat="47.33807" lon="-1.64631">
        <ele>60.9</ele>
        <time>2015-05-10T06:30:35Z</time>
      </trkpt>
      <trkpt lat="47.33808" lon="-1.64636">
        <ele>60.9</ele>
        <time>2015-05-10T06:30:36Z</time>
      </trkpt>
      <trkpt lat="47.3381" lon="-1.64642">
        <ele>60.8</ele>
        <time>2015-05-10T06:30:37Z</time>
      </trkpt>
      <trkpt lat="47.33811" lon="-1.64646">
        <ele>60.8</ele>
        <time>2015-05-10T06:30:38Z</time>
      </trkpt>
      <trkpt lat="47.33812" lon="-1.64651">
        <ele>60.8</ele>
        <time>2015-05-10T06:30:39Z</time>
      </trkpt>
      <trkpt lat="47.33815" lon="-1.64655">
        <ele>60.7</ele>
        <time>2015-05-10T06:30:40Z</time>
      </trkpt>
      <trkpt lat="47.33816" lon="-1.6466">
        <ele>60.7</ele>
        <time>2015-05-10T06:30:41Z</time>
      </trkpt>
      <trkpt lat="47.33818" lon="-1.64665">
        <ele>60.7</ele>
        <time>2015-05-10T06:30:42Z</time>
      </trkpt>
      <trkpt lat="47.33819" lon="-1.64669">
        <ele>60.6</ele>
        <time>2015-05-10T06:30:43Z</time>
      </trkpt>
      <trkpt lat="47.33822" lon="-1.64679">
        <ele>60.6</ele>
        <time>2015-05-10T06:30:45Z</time>
      </trkpt>
      <trkpt lat="47.33823" lon="-1.64685">
        <ele>60.6</ele>
        <time>2015-05-10T06:30:46Z</time>
      </trkpt>
      <trkpt lat="47.33824" lon="-1.64689">
        <ele>60.5</ele>
        <time>2015-05-10T06:30:47Z</time>
      </trkpt>
      <trkpt lat="47.33826" lon="-1.64694">
        <ele>60.5</ele>
        <time>2015-05-10T06:30:48Z</time>
      </trkpt>
      <trkpt lat="47.33828" lon="-1.64698">
        <ele>60.5</ele>
        <time>2015-05-10T06:30:49Z</time>
      </trkpt>
      <trkpt lat="47.3383" lon="-1.64704">
        <ele>60.5</ele>
        <time>2015-05-10T06:30:50Z</time>
      </trkpt>
      <trkpt lat="47.33833" lon="-1.6471">
        <ele>60.5</ele>
        <time>2015-05-10T06:30:51Z</time>
      </trkpt>
      <trkpt lat="47.33835" lon="-1.64716">
        <ele>60.6</ele>
        <time>2015-05-10T06:30:52Z</time>
      </trkpt>
      <trkpt lat="47.33836" lon="-1.64722">
        <ele>60.7</ele>
        <time>2015-05-10T06:30:53Z</time>
      </trkpt>
      <trkpt lat="47.33837" lon="-1.64727">
        <ele>60.8</ele>
        <time>2015-05-10T06:30:54Z</time>
      </trkpt>
      <trkpt lat="47.33838" lon="-1.64732">
        <ele>60.8</ele>
        <time>2015-05-10T06:30:55Z</time>
      </trkpt>
      <trkpt lat="47.3384" lon="-1.64737">
        <ele>60.9</ele>
        <time>2015-05-10T06:30:56Z</time>
      </trkpt>
      <trkpt lat="47.33842" lon="-1.64744">
        <ele>61</ele>
        <time>2015-05-10T06:30:57Z</time>
      </trkpt>
      <trkpt lat="47.33845" lon="-1.64749">
        <ele>61.1</ele>
        <time>2015-05-10T06:30:58Z</time>
      </trkpt>
      <trkpt lat="47.33847" lon="-1.64753">
        <ele>61.2</ele>
        <time>2015-05-10T06:30:59Z</time>
      </trkpt>
      <trkpt lat="47.33849" lon="-1.64758">
        <ele>61.3</ele>
        <time>2015-05-10T06:31:00Z</time>
      </trkpt>
      <trkpt lat="47.3385" lon="-1.64764">
        <ele>61.4</ele>
        <time>2015-05-10T06:31:01Z</time>
      </trkpt>
      <trkpt lat="47.33854" lon="-1.64771">
        <ele>61.5</ele>
        <time>2015-05-10T06:31:02Z</time>
      </trkpt>
      <trkpt lat="47.33855" lon="-1.64778">
        <ele>61.6</ele>
        <time>2015-05-10T06:31:03Z</time>
      </trkpt>
      <trkpt lat="47.33857" lon="-1.64784">
        <ele>61.7</ele>
        <time>2015-05-10T06:31:04Z</time>
      </trkpt>
      <trkpt lat="47.33858" lon="-1.64791">
        <ele>61.8</ele>
        <time>2015-05-10T06:31:05Z</time>
      </trkpt>
      <trkpt lat="47.33861" lon="-1.64797">
        <ele>61.9</ele>
        <time>2015-05-10T06:31:06Z</time>
      </trkpt>
      <trkpt lat="47.33863" lon="-1.64804">
        <ele>62</ele>
        <time>2015-05-10T06:31:07Z</time>
      </trkpt>
      <trkpt lat="47.33865" lon="-1.64811">
        <ele>62.1</ele>
        <time>2015-05-10T06:31:08Z</time>
      </trkpt>
      <trkpt lat="47.33867" lon="-1.64817">
        <ele>62.2</ele>
        <time>2015-05-10T06:31:09Z</time>
      </trkpt>
      <trkpt lat="47.33869" lon="-1.64823">
        <ele>62.3</ele>
        <time>2015-05-10T06:31:10Z</time>
      </trkpt>
      <trkpt lat="47.33872" lon="-1.64827">
        <ele>62.4</ele>
        <time>2015-05-10T06:31:11Z</time>
      </trkpt>
      <trkpt lat="47.33873" lon="-1.64831">
        <ele>62.5</ele>
        <time>2015-05-10T06:31:12Z</time>
      </trkpt>
      <trkpt lat="47.33875" lon="-1.64838">
        <ele>62.5</ele>
        <time>2015-05-10T06:31:13Z</time>
      </trkpt>
      <trkpt lat="47.33878" lon="-1.64843">
        <ele>62.6</ele>
        <time>2015-05-10T06:31:14Z</time>
      </trkpt>
      <trkpt lat="47.3388" lon="-1.64849">
        <ele>62.7</ele>
        <time>2015-05-10T06:31:15Z</time>
      </trkpt>
      <trkpt lat="47.33881" lon="-1.64855">
        <ele>62.7</ele>
        <time>2015-05-10T06:31:16Z</time>
      </trkpt>
      <trkpt lat="47.33883" lon="-1.64861">
        <ele>62.8</ele>
        <time>2015-05-10T06:31:17Z</time>
      </trkpt>
      <trkpt lat="47.33884" lon="-1.64866">
        <ele>62.9</ele>
        <time>2015-05-10T06:31:18Z</time>
      </trkpt>
      <trkpt lat="47.33886" lon="-1.64871">
        <ele>62.9</ele>
        <time>2015-05-10T06:31:19Z</time>
      </trkpt>
      <trkpt lat="47.33887" lon="-1.64877">
        <ele>63</ele>
        <time>2015-05-10T06:31:20Z</time>
      </trkpt>
      <trkpt lat="47.33889" lon="-1.64883">
        <ele>63</ele>
        <time>2015-05-10T06:31:21Z</time>
      </trkpt>
      <trkpt lat="47.33891" lon="-1.64889">
        <ele>63</ele>
        <time>2015-05-10T06:31:22Z</time>
      </trkpt>
      <trkpt lat="47.33893" lon="-1.64895">
        <ele>63</ele>
        <time>2015-05-10T06:31:23Z</time>
      </trkpt>
      <trkpt lat="47.33895" lon="-1.649">
        <ele>63</ele>
        <time>2015-05-10T06:31:24Z</time>
      </trkpt>
      <trkpt lat="47.33896" lon="-1.64905">
        <ele>63</ele>
        <time>2015-05-10T06:31:25Z</time>
      </trkpt>
      <trkpt lat="47.33897" lon="-1.6491">
        <ele>63</ele>
        <time>2015-05-10T06:31:26Z</time>
      </trkpt>
      <trkpt lat="47.33899" lon="-1.64917">
        <ele>63</ele>
        <time>2015-05-10T06:31:27Z</time>
      </trkpt>
      <trkpt lat="47.339" lon="-1.64924">
        <ele>63</ele>
        <time>2015-05-10T06:31:28Z</time>
      </trkpt>
      <trkpt lat="47.33902" lon="-1.6493">
        <ele>63</ele>
        <time>2015-05-10T06:31:29Z</time>
      </trkpt>
      <trkpt lat="47.33905" lon="-1.64938">
        <ele>63</ele>
        <time>2015-05-10T06:31:30Z</time>
      </trkpt>
      <trkpt lat="47.33908" lon="-1.64945">
        <ele>63</ele>
        <time>2015-05-10T06:31:31Z</time>
      </trkpt>
      <trkpt lat="47.33909" lon="-1.6495">
        <ele>63</ele>
        <time>2015-05-10T06:31:32Z</time>
      </trkpt>
      <trkpt lat="47.3391" lon="-1.64955">
        <ele>63</ele>
        <time>2015-05-10T06:31:33Z</time>
      </trkpt>
      <trkpt lat="47.33912" lon="-1.64961">
        <ele>63.1</ele>
        <time>2015-05-10T06:31:34Z</time>
      </trkpt>
      <trkpt lat="47.33913" lon="-1.64966">
        <ele>63.2</ele>
        <time>2015-05-10T06:31:35Z</time>
      </trkpt>
      <trkpt lat="47.33915" lon="-1.64972">
        <ele>63.3</ele>
        <time>2015-05-10T06:31:36Z</time>
      </trkpt>
      <trkpt lat="47.33916" lon="-1.64978">
        <ele>63.5</ele>
        <time>2015-05-10T06:31:37Z</time>
      </trkpt>
      <trkpt lat="47.33918" lon="-1.64983">
        <ele>63.6</ele>
        <time>2015-05-10T06:31:38Z</time>
      </trkpt>
      <trkpt lat="47.3392" lon="-1.64989">
        <ele>63.7</ele>
        <time>2015-05-10T06:31:39Z</time>
      </trkpt>
      <trkpt lat="47.33921" lon="-1.64995">
        <ele>63.9</ele>
        <time>2015-05-10T06:31:40Z</time>
      </trkpt>
      <trkpt lat="47.33922" lon="-1.65002">
        <ele>64</ele>
        <time>2015-05-10T06:31:41Z</time>
      </trkpt>
      <trkpt lat="47.33922" lon="-1.65006">
        <ele>64.1</ele>
        <time>2015-05-10T06:31:42Z</time>
      </trkpt>
      <trkpt lat="47.33925" lon="-1.65011">
        <ele>64.3</ele>
        <time>2015-05-10T06:31:44Z</time>
      </trkpt>
      <trkpt lat="47.33928" lon="-1.65015">
        <ele>64.4</ele>
        <time>2015-05-10T06:31:46Z</time>
      </trkpt>
      <trkpt lat="47.33929" lon="-1.65019">
        <ele>64.4</ele>
        <time>2015-05-10T06:31:47Z</time>
      </trkpt>
      <trkpt lat="47.3393" lon="-1.65026">
        <ele>64.6</ele>
        <time>2015-05-10T06:31:49Z</time>
      </trkpt>
      <trkpt lat="47.33931" lon="-1.65029">
        <ele>64.7</ele>
        <time>2015-05-10T06:31:50Z</time>
      </trkpt>
      <trkpt lat="47.33931" lon="-1.65034">
        <ele>64.8</ele>
        <time>2015-05-10T06:31:51Z</time>
      </trkpt>
      <trkpt lat="47.33933" lon="-1.65038">
        <ele>64.9</ele>
        <time>2015-05-10T06:31:54Z</time>
      </trkpt>
      <trkpt lat="47.3393" lon="-1.6504">
        <ele>64.9</ele>
        <time>2015-05-10T06:31:57Z</time>
      </trkpt>
      <trkpt lat="47.33927" lon="-1.65037">
        <ele>64.9</ele>
        <time>2015-05-10T06:32:02Z</time>
      </trkpt>
      <trkpt lat="47.33925" lon="-1.65032">
        <ele>64.8</ele>
        <time>2015-05-10T06:32:04Z</time>
      </trkpt>
      <trkpt lat="47.33923" lon="-1.65026">
        <ele>64.6</ele>
        <time>2015-05-10T06:32:06Z</time>
      </trkpt>
      <trkpt lat="47.3392" lon="-1.65024">
        <ele>64.6</ele>
        <time>2015-05-10T06:32:08Z</time>
      </trkpt>
      <trkpt lat="47.33917" lon="-1.65028">
        <ele>64.7</ele>
        <time>2015-05-10T06:32:10Z</time>
      </trkpt>
      <trkpt lat="47.33915" lon="-1.65031">
        <ele>64.7</ele>
        <time>2015-05-10T06:32:11Z</time>
      </trkpt>
      <trkpt lat="47.33913" lon="-1.65034">
        <ele>64.8</ele>
        <time>2015-05-10T06:32:12Z</time>
      </trkpt>
      <trkpt lat="47.3391" lon="-1.65038">
        <ele>64.9</ele>
        <time>2015-05-10T06:32:13Z</time>
      </trkpt>
      <trkpt lat="47.33907" lon="-1.65041">
        <ele>65</ele>
        <time>2015-05-10T06:32:14Z</time>
      </trkpt>
      <trkpt lat="47.33905" lon="-1.65044">
        <ele>65</ele>
        <time>2015-05-10T06:32:15Z</time>
      </trkpt>
      <trkpt lat="47.33901" lon="-1.65047">
        <ele>65</ele>
        <time>2015-05-10T06:32:16Z</time>
      </trkpt>
      <trkpt lat="47.33897" lon="-1.6505">
        <ele>65</ele>
        <time>2015-05-10T06:32:17Z</time>
      </trkpt>
      <trkpt lat="47.33893" lon="-1.65053">
        <ele>65</ele>
        <time>2015-05-10T06:32:18Z</time>
      </trkpt>
      <trkpt lat="47.33889" lon="-1.65056">
        <ele>65</ele>
        <time>2015-05-10T06:32:19Z</time>
      </trkpt>
      <trkpt lat="47.33886" lon="-1.65059">
        <ele>65</ele>
        <time>2015-05-10T06:32:20Z</time>
      </trkpt>
      <trkpt lat="47.33883" lon="-1.65061">
        <ele>65</ele>
        <time>2015-05-10T06:32:21Z</time>
      </trkpt>
      <trkpt lat="47.33879" lon="-1.65064">
        <ele>65</ele>
        <time>2015-05-10T06:32:22Z</time>
      </trkpt>
      <trkpt lat="47.33875" lon="-1.65066">
        <ele>65</ele>
        <time>2015-05-10T06:32:23Z</time>
      </trkpt>
      <trkpt lat="47.33872" lon="-1.65069">
        <ele>65</ele>
        <time>2015-05-10T06:32:24Z</time>
      </trkpt>
      <trkpt lat="47.33868" lon="-1.65071">
        <ele>64.9</ele>
        <time>2015-05-10T06:32:25Z</time>
      </trkpt>
      <trkpt lat="47.33864" lon="-1.65074">
        <ele>64.9</ele>
        <time>2015-05-10T06:32:26Z</time>
      </trkpt>
      <trkpt lat="47.33861" lon="-1.65077">
        <ele>64.8</ele>
        <time>2015-05-10T06:32:27Z</time>
      </trkpt>
      <trkpt lat="47.33856" lon="-1.65079">
        <ele>64.8</ele>
        <time>2015-05-10T06:32:28Z</time>
      </trkpt>
      <trkpt lat="47.33851" lon="-1.65083">
        <ele>64.7</ele>
        <time>2015-05-10T06:32:29Z</time>
      </trkpt>
      <trkpt lat="47.33846" lon="-1.65087">
        <ele>64.6</ele>
        <time>2015-05-10T06:32:30Z</time>
      </trkpt>
      <trkpt lat="47.33841" lon="-1.6509">
        <ele>64.6</ele>
        <time>2015-05-10T06:32:31Z</time>
      </trkpt>
      <trkpt lat="47.33836" lon="-1.65094">
        <ele>64.5</ele>
        <time>2015-05-10T06:32:32Z</time>
      </trkpt>
      <trkpt lat="47.33831" lon="-1.65097">
        <ele>64.5</ele>
        <time>2015-05-10T06:32:33Z</time>
      </trkpt>
      <trkpt lat="47.33825" lon="-1.651">
        <ele>64.4</ele>
        <time>2015-05-10T06:32:34Z</time>
      </trkpt>
      <trkpt lat="47.3382" lon="-1.65105">
        <ele>64.3</ele>
        <time>2015-05-10T06:32:35Z</time>
      </trkpt>
      <trkpt lat="47.33815" lon="-1.65109">
        <ele>64.3</ele>
        <time>2015-05-10T06:32:36Z</time>
      </trkpt>
      <trkpt lat="47.33811" lon="-1.65112">
        <ele>64.2</ele>
        <time>2015-05-10T06:32:37Z</time>
      </trkpt>
      <trkpt lat="47.33806" lon="-1.65116">
        <ele>64.2</ele>
        <time>2015-05-10T06:32:38Z</time>
      </trkpt>
      <trkpt lat="47.33802" lon="-1.65119">
        <ele>64.1</ele>
        <time>2015-05-10T06:32:39Z</time>
      </trkpt>
      <trkpt lat="47.33797" lon="-1.65122">
        <ele>64.1</ele>
        <time>2015-05-10T06:32:40Z</time>
      </trkpt>
      <trkpt lat="47.33793" lon="-1.65126">
        <ele>64</ele>
        <time>2015-05-10T06:32:41Z</time>
      </trkpt>
      <trkpt lat="47.3379" lon="-1.65129">
        <ele>64</ele>
        <time>2015-05-10T06:32:42Z</time>
      </trkpt>
      <trkpt lat="47.33786" lon="-1.65133">
        <ele>64</ele>
        <time>2015-05-10T06:32:43Z</time>
      </trkpt>
      <trkpt lat="47.33782" lon="-1.65136">
        <ele>64</ele>
        <time>2015-05-10T06:32:44Z</time>
      </trkpt>
      <trkpt lat="47.33777" lon="-1.65139">
        <ele>64</ele>
        <time>2015-05-10T06:32:45Z</time>
      </trkpt>
      <trkpt lat="47.33773" lon="-1.65142">
        <ele>63.9</ele>
        <time>2015-05-10T06:32:46Z</time>
      </trkpt>
      <trkpt lat="47.33768" lon="-1.65145">
        <ele>63.9</ele>
        <time>2015-05-10T06:32:47Z</time>
      </trkpt>
      <trkpt lat="47.33764" lon="-1.65147">
        <ele>63.8</ele>
        <time>2015-05-10T06:32:48Z</time>
      </trkpt>
      <trkpt lat="47.3376" lon="-1.6515">
        <ele>63.8</ele>
        <time>2015-05-10T06:32:49Z</time>
      </trkpt>
      <trkpt lat="47.33756" lon="-1.65149">
        <ele>63.7</ele>
        <time>2015-05-10T06:32:50Z</time>
      </trkpt>
      <trkpt lat="47.33752" lon="-1.65146">
        <ele>63.6</ele>
        <time>2015-05-10T06:32:51Z</time>
      </trkpt>
      <trkpt lat="47.33748" lon="-1.65141">
        <ele>63.6</ele>
        <time>2015-05-10T06:32:52Z</time>
      </trkpt>
      <trkpt lat="47.33746" lon="-1.65135">
        <ele>63.5</ele>
        <time>2015-05-10T06:32:53Z</time>
      </trkpt>
      <trkpt lat="47.33744" lon="-1.65129">
        <ele>63.4</ele>
        <time>2015-05-10T06:32:54Z</time>
      </trkpt>
      <trkpt lat="47.33742" lon="-1.65123">
        <ele>63.4</ele>
        <time>2015-05-10T06:32:55Z</time>
      </trkpt>
      <trkpt lat="47.33741" lon="-1.65117">
        <ele>63.3</ele>
        <time>2015-05-10T06:32:56Z</time>
      </trkpt>
      <trkpt lat="47.33739" lon="-1.65111">
        <ele>63.3</ele>
        <time>2015-05-10T06:32:57Z</time>
      </trkpt>
      <trkpt lat="47.33738" lon="-1.65104">
        <ele>63.2</ele>
        <time>2015-05-10T06:32:58Z</time>
      </trkpt>
      <trkpt lat="47.33736" lon="-1.65098">
        <ele>63.1</ele>
        <time>2015-05-10T06:32:59Z</time>
      </trkpt>
      <trkpt lat="47.33734" lon="-1.65092">
        <ele>63</ele>
        <time>2015-05-10T06:33:00Z</time>
      </trkpt>
      <trkpt lat="47.33732" lon="-1.65085">
        <ele>62.9</ele>
        <time>2015-05-10T06:33:01Z</time>
      </trkpt>
      <trkpt lat="47.3373" lon="-1.65078">
        <ele>62.9</ele>
        <time>2015-05-10T06:33:02Z</time>
      </trkpt>
      <trkpt lat="47.33729" lon="-1.65071">
        <ele>62.8</ele>
        <time>2015-05-10T06:33:03Z</time>
      </trkpt>
      <trkpt lat="47.33727" lon="-1.65064">
        <ele>62.7</ele>
        <time>2015-05-10T06:33:04Z</time>
      </trkpt>
      <trkpt lat="47.33725" lon="-1.65057">
        <ele>62.5</ele>
        <time>2015-05-10T06:33:05Z</time>
      </trkpt>
      <trkpt lat="47.33723" lon="-1.65051">
        <ele>62.4</ele>
        <time>2015-05-10T06:33:06Z</time>
      </trkpt>
      <trkpt lat="47.33721" lon="-1.65044">
        <ele>62.3</ele>
        <time>2015-05-10T06:33:07Z</time>
      </trkpt>
      <trkpt lat="47.33719" lon="-1.65038">
        <ele>62.2</ele>
        <time>2015-05-10T06:33:08Z</time>
      </trkpt>
      <trkpt lat="47.33717" lon="-1.65032">
        <ele>62.2</ele>
        <time>2015-05-10T06:33:09Z</time>
      </trkpt>
      <trkpt lat="47.33715" lon="-1.65026">
        <ele>62.2</ele>
        <time>2015-05-10T06:33:10Z</time>
      </trkpt>
      <trkpt lat="47.33714" lon="-1.65021">
        <ele>62.1</ele>
        <time>2015-05-10T06:33:11Z</time>
      </trkpt>
      <trkpt lat="47.33712" lon="-1.65015">
        <ele>62.1</ele>
        <time>2015-05-10T06:33:12Z</time>
      </trkpt>
      <trkpt lat="47.3371" lon="-1.65009">
        <ele>62</ele>
        <time>2015-05-10T06:33:13Z</time>
      </trkpt>
      <trkpt lat="47.33708" lon="-1.65002">
        <ele>62</ele>
        <time>2015-05-10T06:33:14Z</time>
      </trkpt>
      <trkpt lat="47.33706" lon="-1.64995">
        <ele>61.9</ele>
        <time>2015-05-10T06:33:15Z</time>
      </trkpt>
      <trkpt lat="47.33705" lon="-1.64989">
        <ele>61.9</ele>
        <time>2015-05-10T06:33:16Z</time>
      </trkpt>
      <trkpt lat="47.33703" lon="-1.64982">
        <ele>61.8</ele>
        <time>2015-05-10T06:33:17Z</time>
      </trkpt>
      <trkpt lat="47.33701" lon="-1.64974">
        <ele>61.8</ele>
        <time>2015-05-10T06:33:18Z</time>
      </trkpt>
      <trkpt lat="47.337" lon="-1.64967">
        <ele>61.7</ele>
        <time>2015-05-10T06:33:19Z</time>
      </trkpt>
      <trkpt lat="47.33698" lon="-1.6496">
        <ele>61.6</ele>
        <time>2015-05-10T06:33:20Z</time>
      </trkpt>
      <trkpt lat="47.33697" lon="-1.64953">
        <ele>61.5</ele>
        <time>2015-05-10T06:33:21Z</time>
      </trkpt>
      <trkpt lat="47.33695" lon="-1.64946">
        <ele>61.3</ele>
        <time>2015-05-10T06:33:22Z</time>
      </trkpt>
      <trkpt lat="47.33693" lon="-1.64939">
        <ele>61.2</ele>
        <time>2015-05-10T06:33:23Z</time>
      </trkpt>
      <trkpt lat="47.33691" lon="-1.64932">
        <ele>61</ele>
        <time>2015-05-10T06:33:24Z</time>
      </trkpt>
      <trkpt lat="47.33687" lon="-1.64927">
        <ele>60.8</ele>
        <time>2015-05-10T06:33:25Z</time>
      </trkpt>
      <trkpt lat="47.33683" lon="-1.64924">
        <ele>60.5</ele>
        <time>2015-05-10T06:33:26Z</time>
      </trkpt>
      <trkpt lat="47.33678" lon="-1.64925">
        <ele>60.3</ele>
        <time>2015-05-10T06:33:27Z</time>
      </trkpt>
      <trkpt lat="47.33673" lon="-1.64927">
        <ele>60.2</ele>
        <time>2015-05-10T06:33:28Z</time>
      </trkpt>
      <trkpt lat="47.33668" lon="-1.6493">
        <ele>60.1</ele>
        <time>2015-05-10T06:33:29Z</time>
      </trkpt>
      <trkpt lat="47.33664" lon="-1.64933">
        <ele>59.9</ele>
        <time>2015-05-10T06:33:30Z</time>
      </trkpt>
      <trkpt lat="47.33659" lon="-1.64935">
        <ele>59.8</ele>
        <time>2015-05-10T06:33:31Z</time>
      </trkpt>
      <trkpt lat="47.33655" lon="-1.64938">
        <ele>59.7</ele>
        <time>2015-05-10T06:33:32Z</time>
      </trkpt>
      <trkpt lat="47.3365" lon="-1.64941">
        <ele>59.5</ele>
        <time>2015-05-10T06:33:33Z</time>
      </trkpt>
      <trkpt lat="47.33645" lon="-1.64944">
        <ele>59.4</ele>
        <time>2015-05-10T06:33:34Z</time>
      </trkpt>
      <trkpt lat="47.33641" lon="-1.64946">
        <ele>59.3</ele>
        <time>2015-05-10T06:33:35Z</time>
      </trkpt>
      <trkpt lat="47.33636" lon="-1.64947">
        <ele>59.2</ele>
        <time>2015-05-10T06:33:36Z</time>
      </trkpt>
      <trkpt lat="47.33632" lon="-1.64949">
        <ele>59.1</ele>
        <time>2015-05-10T06:33:37Z</time>
      </trkpt>
      <trkpt lat="47.33628" lon="-1.64953">
        <ele>59</ele>
        <time>2015-05-10T06:33:38Z</time>
      </trkpt>
      <trkpt lat="47.33623" lon="-1.64955">
        <ele>58.8</ele>
        <time>2015-05-10T06:33:39Z</time>
      </trkpt>
      <trkpt lat="47.33619" lon="-1.64959">
        <ele>58.6</ele>
        <time>2015-05-10T06:33:40Z</time>
      </trkpt>
      <trkpt lat="47.33614" lon="-1.64962">
        <ele>58.3</ele>
        <time>2015-05-10T06:33:41Z</time>
      </trkpt>
      <trkpt lat="47.3361" lon="-1.64965">
        <ele>58</ele>
        <time>2015-05-10T06:33:42Z</time>
      </trkpt>
      <trkpt lat="47.33605" lon="-1.64968">
        <ele>57.7</ele>
        <time>2015-05-10T06:33:43Z</time>
      </trkpt>
      <trkpt lat="47.33599" lon="-1.64971">
        <ele>57.3</ele>
        <time>2015-05-10T06:33:44Z</time>
      </trkpt>
      <trkpt lat="47.33594" lon="-1.64973">
        <ele>57</ele>
        <time>2015-05-10T06:33:45Z</time>
      </trkpt>
      <trkpt lat="47.33588" lon="-1.64975">
        <ele>56.6</ele>
        <time>2015-05-10T06:33:46Z</time>
      </trkpt>
      <trkpt lat="47.33582" lon="-1.64978">
        <ele>56.1</ele>
        <time>2015-05-10T06:33:47Z</time>
      </trkpt>
      <trkpt lat="47.33575" lon="-1.64981">
        <ele>55.6</ele>
        <time>2015-05-10T06:33:48Z</time>
      </trkpt>
      <trkpt lat="47.33569" lon="-1.64984">
        <ele>55.2</ele>
        <time>2015-05-10T06:33:49Z</time>
      </trkpt>
      <trkpt lat="47.33562" lon="-1.64987">
        <ele>54.6</ele>
        <time>2015-05-10T06:33:50Z</time>
      </trkpt>
      <trkpt lat="47.33555" lon="-1.64991">
        <ele>54.1</ele>
        <time>2015-05-10T06:33:51Z</time>
      </trkpt>
      <trkpt lat="47.33548" lon="-1.64995">
        <ele>53.5</ele>
        <time>2015-05-10T06:33:52Z</time>
      </trkpt>
      <trkpt lat="47.3354" lon="-1.64999">
        <ele>52.9</ele>
        <time>2015-05-10T06:33:53Z</time>
      </trkpt>
      <trkpt lat="47.33532" lon="-1.65002">
        <ele>52.5</ele>
        <time>2015-05-10T06:33:54Z</time>
      </trkpt>
      <trkpt lat="47.33523" lon="-1.65006">
        <ele>52.1</ele>
        <time>2015-05-10T06:33:55Z</time>
      </trkpt>
      <trkpt lat="47.33515" lon="-1.6501">
        <ele>51.8</ele>
        <time>2015-05-10T06:33:56Z</time>
      </trkpt>
      <trkpt lat="47.33506" lon="-1.65013">
        <ele>51.4</ele>
        <time>2015-05-10T06:33:57Z</time>
      </trkpt>
      <trkpt lat="47.33498" lon="-1.65017">
        <ele>51.1</ele>
        <time>2015-05-10T06:33:58Z</time>
      </trkpt>
      <trkpt lat="47.33489" lon="-1.65021">
        <ele>50.8</ele>
        <time>2015-05-10T06:33:59Z</time>
      </trkpt>
      <trkpt lat="47.3348" lon="-1.65025">
        <ele>50.5</ele>
        <time>2015-05-10T06:34:00Z</time>
      </trkpt>
      <trkpt lat="47.33471" lon="-1.65029">
        <ele>50.2</ele>
        <time>2015-05-10T06:34:01Z</time>
      </trkpt>
      <trkpt lat="47.33462" lon="-1.65033">
        <ele>49.9</ele>
        <time>2015-05-10T06:34:02Z</time>
      </trkpt>
      <trkpt lat="47.33453" lon="-1.65037">
        <ele>49.6</ele>
        <time>2015-05-10T06:34:03Z</time>
      </trkpt>
      <trkpt lat="47.33444" lon="-1.65041">
        <ele>49.1</ele>
        <time>2015-05-10T06:34:04Z</time>
      </trkpt>
      <trkpt lat="47.33435" lon="-1.65045">
        <ele>48.6</ele>
        <time>2015-05-10T06:34:05Z</time>
      </trkpt>
      <trkpt lat="47.33426" lon="-1.65049">
        <ele>48.1</ele>
        <time>2015-05-10T06:34:06Z</time>
      </trkpt>
      <trkpt lat="47.33418" lon="-1.65052">
        <ele>47.7</ele>
        <time>2015-05-10T06:34:07Z</time>
      </trkpt>
      <trkpt lat="47.33409" lon="-1.65057">
        <ele>47.3</ele>
        <time>2015-05-10T06:34:08Z</time>
      </trkpt>
      <trkpt lat="47.334" lon="-1.65062">
        <ele>46.8</ele>
        <time>2015-05-10T06:34:09Z</time>
      </trkpt>
      <trkpt lat="47.33391" lon="-1.65066">
        <ele>46.4</ele>
        <time>2015-05-10T06:34:10Z</time>
      </trkpt>
      <trkpt lat="47.33382" lon="-1.65069">
        <ele>46</ele>
        <time>2015-05-10T06:34:11Z</time>
      </trkpt>
      <trkpt lat="47.33373" lon="-1.65072">
        <ele>45.7</ele>
        <time>2015-05-10T06:34:12Z</time>
      </trkpt>
      <trkpt lat="47.33364" lon="-1.65074">
        <ele>45.6</ele>
        <time>2015-05-10T06:34:13Z</time>
      </trkpt>
      <trkpt lat="47.33356" lon="-1.65077">
        <ele>45.5</ele>
        <time>2015-05-10T06:34:14Z</time>
      </trkpt>
      <trkpt lat="47.33347" lon="-1.65078">
        <ele>45.3</ele>
        <time>2015-05-10T06:34:15Z</time>
      </trkpt>
      <trkpt lat="47.33339" lon="-1.65079">
        <ele>45.2</ele>
        <time>2015-05-10T06:34:16Z</time>
      </trkpt>
      <trkpt lat="47.33332" lon="-1.65079">
        <ele>45.1</ele>
        <time>2015-05-10T06:34:17Z</time>
      </trkpt>
      <trkpt lat="47.33323" lon="-1.65079">
        <ele>44.9</ele>
        <time>2015-05-10T06:34:18Z</time>
      </trkpt>
      <trkpt lat="47.33315" lon="-1.6508">
        <ele>44.8</ele>
        <time>2015-05-10T06:34:19Z</time>
      </trkpt>
      <trkpt lat="47.33307" lon="-1.65082">
        <ele>44.7</ele>
        <time>2015-05-10T06:34:20Z</time>
      </trkpt>
      <trkpt lat="47.33298" lon="-1.65083">
        <ele>44.6</ele>
        <time>2015-05-10T06:34:21Z</time>
      </trkpt>
      <trkpt lat="47.33291" lon="-1.65086">
        <ele>44.6</ele>
        <time>2015-05-10T06:34:22Z</time>
      </trkpt>
      <trkpt lat="47.33283" lon="-1.65089">
        <ele>44.5</ele>
        <time>2015-05-10T06:34:23Z</time>
      </trkpt>
      <trkpt lat="47.33275" lon="-1.65091">
        <ele>44.4</ele>
        <time>2015-05-10T06:34:24Z</time>
      </trkpt>
      <trkpt lat="47.33268" lon="-1.65094">
        <ele>44.3</ele>
        <time>2015-05-10T06:34:25Z</time>
      </trkpt>
      <trkpt lat="47.33261" lon="-1.65097">
        <ele>44.2</ele>
        <time>2015-05-10T06:34:26Z</time>
      </trkpt>
      <trkpt lat="47.33255" lon="-1.65101">
        <ele>44.2</ele>
        <time>2015-05-10T06:34:27Z</time>
      </trkpt>
      <trkpt lat="47.33248" lon="-1.65106">
        <ele>44.3</ele>
        <time>2015-05-10T06:34:28Z</time>
      </trkpt>
      <trkpt lat="47.33242" lon="-1.6511">
        <ele>44.3</ele>
        <time>2015-05-10T06:34:29Z</time>
      </trkpt>
      <trkpt lat="47.33236" lon="-1.65114">
        <ele>44.3</ele>
        <time>2015-05-10T06:34:30Z</time>
      </trkpt>
      <trkpt lat="47.3323" lon="-1.65116">
        <ele>44.2</ele>
        <time>2015-05-10T06:34:31Z</time>
      </trkpt>
      <trkpt lat="47.33224" lon="-1.65117">
        <ele>44.1</ele>
        <time>2015-05-10T06:34:32Z</time>
      </trkpt>
      <trkpt lat="47.33216" lon="-1.65117">
        <ele>43.9</ele>
        <time>2015-05-10T06:34:33Z</time>
      </trkpt>
      <trkpt lat="47.33209" lon="-1.65117">
        <ele>43.7</ele>
        <time>2015-05-10T06:34:34Z</time>
      </trkpt>
      <trkpt lat="47.33202" lon="-1.65116">
        <ele>43.4</ele>
        <time>2015-05-10T06:34:35Z</time>
      </trkpt>
      <trkpt lat="47.33194" lon="-1.65114">
        <ele>43</ele>
        <time>2015-05-10T06:34:36Z</time>
      </trkpt>
      <trkpt lat="47.33186" lon="-1.65112">
        <ele>42.6</ele>
        <time>2015-05-10T06:34:37Z</time>
      </trkpt>
      <trkpt lat="47.33178" lon="-1.6511">
        <ele>42.2</ele>
        <time>2015-05-10T06:34:38Z</time>
      </trkpt>
      <trkpt lat="47.3317" lon="-1.65107">
        <ele>41.9</ele>
        <time>2015-05-10T06:34:39Z</time>
      </trkpt>
      <trkpt lat="47.33163" lon="-1.65104">
        <ele>41.6</ele>
        <time>2015-05-10T06:34:40Z</time>
      </trkpt>
      <trkpt lat="47.33155" lon="-1.651">
        <ele>41.3</ele>
        <time>2015-05-10T06:34:41Z</time>
      </trkpt>
      <trkpt lat="47.33148" lon="-1.65096">
        <ele>41.1</ele>
        <time>2015-05-10T06:34:42Z</time>
      </trkpt>
      <trkpt lat="47.33142" lon="-1.65092">
        <ele>40.9</ele>
        <time>2015-05-10T06:34:43Z</time>
      </trkpt>
      <trkpt lat="47.33135" lon="-1.65087">
        <ele>40.7</ele>
        <time>2015-05-10T06:34:44Z</time>
      </trkpt>
      <trkpt lat="47.33129" lon="-1.65083">
        <ele>40.6</ele>
        <time>2015-05-10T06:34:45Z</time>
      </trkpt>
      <trkpt lat="47.33123" lon="-1.65079">
        <ele>40.6</ele>
        <time>2015-05-10T06:34:46Z</time>
      </trkpt>
      <trkpt lat="47.33117" lon="-1.65075">
        <ele>40.6</ele>
        <time>2015-05-10T06:34:47Z</time>
      </trkpt>
      <trkpt lat="47.33111" lon="-1.65071">
        <ele>40.7</ele>
        <time>2015-05-10T06:34:48Z</time>
      </trkpt>
      <trkpt lat="47.33105" lon="-1.65066">
        <ele>40.8</ele>
        <time>2015-05-10T06:34:49Z</time>
      </trkpt>
      <trkpt lat="47.33098" lon="-1.65061">
        <ele>40.8</ele>
        <time>2015-05-10T06:34:50Z</time>
      </trkpt>
      <trkpt lat="47.33093" lon="-1.65057">
        <ele>40.9</ele>
        <time>2015-05-10T06:34:51Z</time>
      </trkpt>
      <trkpt lat="47.33087" lon="-1.65052">
        <ele>40.9</ele>
        <time>2015-05-10T06:34:52Z</time>
      </trkpt>
      <trkpt lat="47.33082" lon="-1.65046">
        <ele>41</ele>
        <time>2015-05-10T06:34:53Z</time>
      </trkpt>
      <trkpt lat="47.33077" lon="-1.6504">
        <ele>41.1</ele>
        <time>2015-05-10T06:34:54Z</time>
      </trkpt>
      <trkpt lat="47.33074" lon="-1.65032">
        <ele>41.3</ele>
        <time>2015-05-10T06:34:55Z</time>
      </trkpt>
      <trkpt lat="47.33072" lon="-1.65024">
        <ele>41.5</ele>
        <time>2015-05-10T06:34:56Z</time>
      </trkpt>
      <trkpt lat="47.33071" lon="-1.65015">
        <ele>41.7</ele>
        <time>2015-05-10T06:34:57Z</time>
      </trkpt>
      <trkpt lat="47.33071" lon="-1.65007">
        <ele>42</ele>
        <time>2015-05-10T06:34:58Z</time>
      </trkpt>
      <trkpt lat="47.33071" lon="-1.64998">
        <ele>42.2</ele>
        <time>2015-05-10T06:34:59Z</time>
      </trkpt>
      <trkpt lat="47.33072" lon="-1.6499">
        <ele>42.5</ele>
        <time>2015-05-10T06:35:00Z</time>
      </trkpt>
      <trkpt lat="47.33072" lon="-1.64982">
        <ele>42.7</ele>
        <time>2015-05-10T06:35:01Z</time>
      </trkpt>
      <trkpt lat="47.33073" lon="-1.64976">
        <ele>42.9</ele>
        <time>2015-05-10T06:35:02Z</time>
      </trkpt>
      <trkpt lat="47.33073" lon="-1.6497">
        <ele>43.1</ele>
        <time>2015-05-10T06:35:03Z</time>
      </trkpt>
      <trkpt lat="47.33073" lon="-1.64962">
        <ele>43.3</ele>
        <time>2015-05-10T06:35:04Z</time>
      </trkpt>
      <trkpt lat="47.33073" lon="-1.64955">
        <ele>43.5</ele>
        <time>2015-05-10T06:35:05Z</time>
      </trkpt>
      <trkpt lat="47.33073" lon="-1.64948">
        <ele>43.7</ele>
        <time>2015-05-10T06:35:06Z</time>
      </trkpt>
      <trkpt lat="47.33073" lon="-1.64942">
        <ele>43.9</ele>
        <time>2015-05-10T06:35:07Z</time>
      </trkpt>
      <trkpt lat="47.33073" lon="-1.64934">
        <ele>44.1</ele>
        <time>2015-05-10T06:35:08Z</time>
      </trkpt>
      <trkpt lat="47.33072" lon="-1.64927">
        <ele>44.4</ele>
        <time>2015-05-10T06:35:09Z</time>
      </trkpt>
      <trkpt lat="47.33072" lon="-1.6492">
        <ele>44.6</ele>
        <time>2015-05-10T06:35:10Z</time>
      </trkpt>
      <trkpt lat="47.33071" lon="-1.64913">
        <ele>44.8</ele>
        <time>2015-05-10T06:35:11Z</time>
      </trkpt>
      <trkpt lat="47.33071" lon="-1.64906">
        <ele>45</ele>
        <time>2015-05-10T06:35:12Z</time>
      </trkpt>
      <trkpt lat="47.33072" lon="-1.649">
        <ele>45.2</ele>
        <time>2015-05-10T06:35:13Z</time>
      </trkpt>
      <trkpt lat="47.33071" lon="-1.64894">
        <ele>45.4</ele>
        <time>2015-05-10T06:35:14Z</time>
      </trkpt>
      <trkpt lat="47.3307" lon="-1.64888">
        <ele>45.6</ele>
        <time>2015-05-10T06:35:15Z</time>
      </trkpt>
      <trkpt lat="47.33067" lon="-1.64884">
        <ele>45.7</ele>
        <time>2015-05-10T06:35:16Z</time>
      </trkpt>
      <trkpt lat="47.33065" lon="-1.6488">
        <ele>45.8</ele>
        <time>2015-05-10T06:35:17Z</time>
      </trkpt>
      <trkpt lat="47.33062" lon="-1.64877">
        <ele>46</ele>
        <time>2015-05-10T06:35:18Z</time>
      </trkpt>
      <trkpt lat="47.33059" lon="-1.64874">
        <ele>46.1</ele>
        <time>2015-05-10T06:35:19Z</time>
      </trkpt>
      <trkpt lat="47.33056" lon="-1.64873">
        <ele>46.1</ele>
        <time>2015-05-10T06:35:20Z</time>
      </trkpt>
      <trkpt lat="47.33052" lon="-1.64876">
        <ele>46</ele>
        <time>2015-05-10T06:35:21Z</time>
      </trkpt>
      <trkpt lat="47.3305" lon="-1.64879">
        <ele>45.9</ele>
        <time>2015-05-10T06:35:22Z</time>
      </trkpt>
      <trkpt lat="47.33048" lon="-1.64884">
        <ele>45.7</ele>
        <time>2015-05-10T06:35:23Z</time>
      </trkpt>
      <trkpt lat="47.33048" lon="-1.64889">
        <ele>45.5</ele>
        <time>2015-05-10T06:35:24Z</time>
      </trkpt>
      <trkpt lat="47.33048" lon="-1.64894">
        <ele>45.3</ele>
        <time>2015-05-10T06:35:25Z</time>
      </trkpt>
      <trkpt lat="47.33048" lon="-1.64899">
        <ele>45.2</ele>
        <time>2015-05-10T06:35:26Z</time>
      </trkpt>
      <trkpt lat="47.33048" lon="-1.64905">
        <ele>44.9</ele>
        <time>2015-05-10T06:35:27Z</time>
      </trkpt>
      <trkpt lat="47.33048" lon="-1.64912">
        <ele>44.7</ele>
        <time>2015-05-10T06:35:28Z</time>
      </trkpt>
      <trkpt lat="47.33048" lon="-1.64919">
        <ele>44.5</ele>
        <time>2015-05-10T06:35:29Z</time>
      </trkpt>
      <trkpt lat="47.33047" lon="-1.64925">
        <ele>44.2</ele>
        <time>2015-05-10T06:35:30Z</time>
      </trkpt>
      <trkpt lat="47.33046" lon="-1.64932">
        <ele>44</ele>
        <time>2015-05-10T06:35:31Z</time>
      </trkpt>
      <trkpt lat="47.33045" lon="-1.64939">
        <ele>43.7</ele>
        <time>2015-05-10T06:35:32Z</time>
      </trkpt>
      <trkpt lat="47.33044" lon="-1.64946">
        <ele>43.5</ele>
        <time>2015-05-10T06:35:33Z</time>
      </trkpt>
      <trkpt lat="47.33043" lon="-1.64953">
        <ele>43.2</ele>
        <time>2015-05-10T06:35:34Z</time>
      </trkpt>
      <trkpt lat="47.33043" lon="-1.64959">
        <ele>43</ele>
        <time>2015-05-10T06:35:35Z</time>
      </trkpt>
      <trkpt lat="47.33042" lon="-1.64966">
        <ele>42.8</ele>
        <time>2015-05-10T06:35:36Z</time>
      </trkpt>
      <trkpt lat="47.33041" lon="-1.64973">
        <ele>42.6</ele>
        <time>2015-05-10T06:35:37Z</time>
      </trkpt>
      <trkpt lat="47.33039" lon="-1.64979">
        <ele>42.4</ele>
        <time>2015-05-10T06:35:38Z</time>
      </trkpt>
      <trkpt lat="47.33037" lon="-1.64986">
        <ele>42.1</ele>
        <time>2015-05-10T06:35:39Z</time>
      </trkpt>
      <trkpt lat="47.33036" lon="-1.64994">
        <ele>41.9</ele>
        <time>2015-05-10T06:35:40Z</time>
      </trkpt>
      <trkpt lat="47.33035" lon="-1.65001">
        <ele>41.6</ele>
        <time>2015-05-10T06:35:41Z</time>
      </trkpt>
      <trkpt lat="47.33033" lon="-1.65009">
        <ele>41.4</ele>
        <time>2015-05-10T06:35:42Z</time>
      </trkpt>
      <trkpt lat="47.33032" lon="-1.65016">
        <ele>41.1</ele>
        <time>2015-05-10T06:35:43Z</time>
      </trkpt>
      <trkpt lat="47.3303" lon="-1.65024">
        <ele>40.9</ele>
        <time>2015-05-10T06:35:44Z</time>
      </trkpt>
      <trkpt lat="47.33028" lon="-1.65031">
        <ele>40.6</ele>
        <time>2015-05-10T06:35:45Z</time>
      </trkpt>
      <trkpt lat="47.33026" lon="-1.65039">
        <ele>40.3</ele>
        <time>2015-05-10T06:35:46Z</time>
      </trkpt>
      <trkpt lat="47.33023" lon="-1.65047">
        <ele>40.1</ele>
        <time>2015-05-10T06:35:47Z</time>
      </trkpt>
      <trkpt lat="47.33022" lon="-1.65054">
        <ele>40.1</ele>
        <time>2015-05-10T06:35:48Z</time>
      </trkpt>
      <trkpt lat="47.33021" lon="-1.65061">
        <ele>40</ele>
        <time>2015-05-10T06:35:49Z</time>
      </trkpt>
      <trkpt lat="47.33018" lon="-1.65068">
        <ele>40</ele>
        <time>2015-05-10T06:35:50Z</time>
      </trkpt>
      <trkpt lat="47.33017" lon="-1.65076">
        <ele>39.9</ele>
        <time>2015-05-10T06:35:51Z</time>
      </trkpt>
      <trkpt lat="47.33015" lon="-1.65084">
        <ele>39.9</ele>
        <time>2015-05-10T06:35:52Z</time>
      </trkpt>
      <trkpt lat="47.33013" lon="-1.65093">
        <ele>39.8</ele>
        <time>2015-05-10T06:35:53Z</time>
      </trkpt>
      <trkpt lat="47.3301" lon="-1.65101">
        <ele>39.8</ele>
        <time>2015-05-10T06:35:54Z</time>
      </trkpt>
      <trkpt lat="47.33007" lon="-1.6511">
        <ele>39.7</ele>
        <time>2015-05-10T06:35:55Z</time>
      </trkpt>
      <trkpt lat="47.33003" lon="-1.65119">
        <ele>39.6</ele>
        <time>2015-05-10T06:35:56Z</time>
      </trkpt>
      <trkpt lat="47.33001" lon="-1.65127">
        <ele>39.5</ele>
        <time>2015-05-10T06:35:57Z</time>
      </trkpt>
      <trkpt lat="47.32998" lon="-1.65135">
        <ele>39.5</ele>
        <time>2015-05-10T06:35:58Z</time>
      </trkpt>
      <trkpt lat="47.32996" lon="-1.65144">
        <ele>39.5</ele>
        <time>2015-05-10T06:35:59Z</time>
      </trkpt>
      <trkpt lat="47.32995" lon="-1.65152">
        <ele>39.5</ele>
        <time>2015-05-10T06:36:00Z</time>
      </trkpt>
      <trkpt lat="47.32993" lon="-1.65161">
        <ele>39.5</ele>
        <time>2015-05-10T06:36:01Z</time>
      </trkpt>
      <trkpt lat="47.3299" lon="-1.65169">
        <ele>39.5</ele>
        <time>2015-05-10T06:36:02Z</time>
      </trkpt>
      <trkpt lat="47.32988" lon="-1.65178">
        <ele>39.5</ele>
        <time>2015-05-10T06:36:03Z</time>
      </trkpt>
      <trkpt lat="47.32985" lon="-1.65186">
        <ele>39.5</ele>
        <time>2015-05-10T06:36:04Z</time>
      </trkpt>
      <trkpt lat="47.32984" lon="-1.65195">
        <ele>39.5</ele>
        <time>2015-05-10T06:36:05Z</time>
      </trkpt>
      <trkpt lat="47.32983" lon="-1.65203">
        <ele>39.5</ele>
        <time>2015-05-10T06:36:06Z</time>
      </trkpt>
      <trkpt lat="47.32981" lon="-1.65211">
        <ele>39.7</ele>
        <time>2015-05-10T06:36:07Z</time>
      </trkpt>
      <trkpt lat="47.3298" lon="-1.6522">
        <ele>40.1</ele>
        <time>2015-05-10T06:36:08Z</time>
      </trkpt>
      <trkpt lat="47.32979" lon="-1.65228">
        <ele>40.5</ele>
        <time>2015-05-10T06:36:09Z</time>
      </trkpt>
      <trkpt lat="47.32979" lon="-1.65236">
        <ele>40.9</ele>
        <time>2015-05-10T06:36:10Z</time>
      </trkpt>
      <trkpt lat="47.32979" lon="-1.65244">
        <ele>41.3</ele>
        <time>2015-05-10T06:36:11Z</time>
      </trkpt>
      <trkpt lat="47.32979" lon="-1.65252">
        <ele>41.7</ele>
        <time>2015-05-10T06:36:12Z</time>
      </trkpt>
      <trkpt lat="47.32979" lon="-1.65261">
        <ele>42.2</ele>
        <time>2015-05-10T06:36:13Z</time>
      </trkpt>
      <trkpt lat="47.32979" lon="-1.65269">
        <ele>42.6</ele>
        <time>2015-05-10T06:36:14Z</time>
      </trkpt>
      <trkpt lat="47.32979" lon="-1.65277">
        <ele>43</ele>
        <time>2015-05-10T06:36:15Z</time>
      </trkpt>
      <trkpt lat="47.32979" lon="-1.65284">
        <ele>43.4</ele>
        <time>2015-05-10T06:36:16Z</time>
      </trkpt>
      <trkpt lat="47.32979" lon="-1.65291">
        <ele>43.7</ele>
        <time>2015-05-10T06:36:17Z</time>
      </trkpt>
      <trkpt lat="47.32979" lon="-1.65299">
        <ele>44.2</ele>
        <time>2015-05-10T06:36:18Z</time>
      </trkpt>
      <trkpt lat="47.32978" lon="-1.65308">
        <ele>44.7</ele>
        <time>2015-05-10T06:36:19Z</time>
      </trkpt>
      <trkpt lat="47.32978" lon="-1.65316">
        <ele>45.2</ele>
        <time>2015-05-10T06:36:20Z</time>
      </trkpt>
      <trkpt lat="47.32978" lon="-1.65324">
        <ele>45.7</ele>
        <time>2015-05-10T06:36:21Z</time>
      </trkpt>
      <trkpt lat="47.32979" lon="-1.65332">
        <ele>46.2</ele>
        <time>2015-05-10T06:36:22Z</time>
      </trkpt>
      <trkpt lat="47.32978" lon="-1.6534">
        <ele>46.6</ele>
        <time>2015-05-10T06:36:23Z</time>
      </trkpt>
      <trkpt lat="47.32979" lon="-1.65348">
        <ele>47.1</ele>
        <time>2015-05-10T06:36:24Z</time>
      </trkpt>
      <trkpt lat="47.3298" lon="-1.65355">
        <ele>47.5</ele>
        <time>2015-05-10T06:36:25Z</time>
      </trkpt>
      <trkpt lat="47.3298" lon="-1.65362">
        <ele>47.9</ele>
        <time>2015-05-10T06:36:26Z</time>
      </trkpt>
      <trkpt lat="47.32981" lon="-1.65369">
        <ele>48.4</ele>
        <time>2015-05-10T06:36:27Z</time>
      </trkpt>
      <trkpt lat="47.32981" lon="-1.65376">
        <ele>48.8</ele>
        <time>2015-05-10T06:36:28Z</time>
      </trkpt>
      <trkpt lat="47.32981" lon="-1.65383">
        <ele>49</ele>
        <time>2015-05-10T06:36:29Z</time>
      </trkpt>
      <trkpt lat="47.32981" lon="-1.6539">
        <ele>49.2</ele>
        <time>2015-05-10T06:36:30Z</time>
      </trkpt>
      <trkpt lat="47.32981" lon="-1.65397">
        <ele>49.4</ele>
        <time>2015-05-10T06:36:31Z</time>
      </trkpt>
      <trkpt lat="47.32982" lon="-1.65404">
        <ele>49.6</ele>
        <time>2015-05-10T06:36:32Z</time>
      </trkpt>
      <trkpt lat="47.32982" lon="-1.65411">
        <ele>49.8</ele>
        <time>2015-05-10T06:36:33Z</time>
      </trkpt>
      <trkpt lat="47.32982" lon="-1.65419">
        <ele>50.1</ele>
        <time>2015-05-10T06:36:34Z</time>
      </trkpt>
      <trkpt lat="47.32982" lon="-1.65426">
        <ele>50.3</ele>
        <time>2015-05-10T06:36:35Z</time>
      </trkpt>
      <trkpt lat="47.32982" lon="-1.65432">
        <ele>50.5</ele>
        <time>2015-05-10T06:36:36Z</time>
      </trkpt>
      <trkpt lat="47.32982" lon="-1.6544">
        <ele>50.7</ele>
        <time>2015-05-10T06:36:37Z</time>
      </trkpt>
      <trkpt lat="47.32982" lon="-1.65447">
        <ele>50.9</ele>
        <time>2015-05-10T06:36:38Z</time>
      </trkpt>
      <trkpt lat="47.32983" lon="-1.65454">
        <ele>51.1</ele>
        <time>2015-05-10T06:36:39Z</time>
      </trkpt>
      <trkpt lat="47.32982" lon="-1.6546">
        <ele>51.4</ele>
        <time>2015-05-10T06:36:40Z</time>
      </trkpt>
      <trkpt lat="47.32982" lon="-1.65466">
        <ele>51.6</ele>
        <time>2015-05-10T06:36:41Z</time>
      </trkpt>
      <trkpt lat="47.32982" lon="-1.65472">
        <ele>51.8</ele>
        <time>2015-05-10T06:36:42Z</time>
      </trkpt>
      <trkpt lat="47.32982" lon="-1.65478">
        <ele>52</ele>
        <time>2015-05-10T06:36:43Z</time>
      </trkpt>
      <trkpt lat="47.32982" lon="-1.65484">
        <ele>52.3</ele>
        <time>2015-05-10T06:36:44Z</time>
      </trkpt>
      <trkpt lat="47.32982" lon="-1.65491">
        <ele>52.5</ele>
        <time>2015-05-10T06:36:45Z</time>
      </trkpt>
      <trkpt lat="47.32982" lon="-1.65497">
        <ele>52.8</ele>
        <time>2015-05-10T06:36:46Z</time>
      </trkpt>
      <trkpt lat="47.32982" lon="-1.65504">
        <ele>53</ele>
        <time>2015-05-10T06:36:47Z</time>
      </trkpt>
      <trkpt lat="47.32981" lon="-1.65511">
        <ele>53.3</ele>
        <time>2015-05-10T06:36:48Z</time>
      </trkpt>
      <trkpt lat="47.32981" lon="-1.65517">
        <ele>53.5</ele>
        <time>2015-05-10T06:36:49Z</time>
      </trkpt>
      <trkpt lat="47.32981" lon="-1.65523">
        <ele>53.7</ele>
        <time>2015-05-10T06:36:50Z</time>
      </trkpt>
      <trkpt lat="47.32981" lon="-1.65529">
        <ele>54</ele>
        <time>2015-05-10T06:36:51Z</time>
      </trkpt>
      <trkpt lat="47.32981" lon="-1.65535">
        <ele>54.2</ele>
        <time>2015-05-10T06:36:52Z</time>
      </trkpt>
      <trkpt lat="47.3298" lon="-1.65541">
        <ele>54.5</ele>
        <time>2015-05-10T06:36:53Z</time>
      </trkpt>
      <trkpt lat="47.3298" lon="-1.65547">
        <ele>54.4</ele>
        <time>2015-05-10T06:36:54Z</time>
      </trkpt>
      <trkpt lat="47.32981" lon="-1.65552">
        <ele>54.3</ele>
        <time>2015-05-10T06:36:55Z</time>
      </trkpt>
      <trkpt lat="47.32982" lon="-1.65557">
        <ele>54.3</ele>
        <time>2015-05-10T06:36:56Z</time>
      </trkpt>
      <trkpt lat="47.32981" lon="-1.65563">
        <ele>54.2</ele>
        <time>2015-05-10T06:36:57Z</time>
      </trkpt>
      <trkpt lat="47.32982" lon="-1.65568">
        <ele>54.1</ele>
        <time>2015-05-10T06:36:58Z</time>
      </trkpt>
      <trkpt lat="47.32982" lon="-1.65574">
        <ele>54</ele>
        <time>2015-05-10T06:36:59Z</time>
      </trkpt>
      <trkpt lat="47.32983" lon="-1.65578">
        <ele>54</ele>
        <time>2015-05-10T06:37:00Z</time>
      </trkpt>
      <trkpt lat="47.32983" lon="-1.65584">
        <ele>53.9</ele>
        <time>2015-05-10T06:37:01Z</time>
      </trkpt>
      <trkpt lat="47.32984" lon="-1.6559">
        <ele>53.8</ele>
        <time>2015-05-10T06:37:02Z</time>
      </trkpt>
      <trkpt lat="47.32984" lon="-1.65595">
        <ele>53.7</ele>
        <time>2015-05-10T06:37:03Z</time>
      </trkpt>
      <trkpt lat="47.32985" lon="-1.65602">
        <ele>53.7</ele>
        <time>2015-05-10T06:37:04Z</time>
      </trkpt>
      <trkpt lat="47.32985" lon="-1.65608">
        <ele>53.6</ele>
        <time>2015-05-10T06:37:05Z</time>
      </trkpt>
      <trkpt lat="47.32986" lon="-1.65614">
        <ele>53.5</ele>
        <time>2015-05-10T06:37:06Z</time>
      </trkpt>
      <trkpt lat="47.32989" lon="-1.65619">
        <ele>53.3</ele>
        <time>2015-05-10T06:37:07Z</time>
      </trkpt>
      <trkpt lat="47.32992" lon="-1.65623">
        <ele>53.2</ele>
        <time>2015-05-10T06:37:08Z</time>
      </trkpt>
      <trkpt lat="47.32996" lon="-1.65623">
        <ele>53.1</ele>
        <time>2015-05-10T06:37:09Z</time>
      </trkpt>
      <trkpt lat="47.33" lon="-1.65622">
        <ele>53</ele>
        <time>2015-05-10T06:37:10Z</time>
      </trkpt>
      <trkpt lat="47.33004" lon="-1.6562">
        <ele>53</ele>
        <time>2015-05-10T06:37:11Z</time>
      </trkpt>
      <trkpt lat="47.33008" lon="-1.65618">
        <ele>52.9</ele>
        <time>2015-05-10T06:37:12Z</time>
      </trkpt>
      <trkpt lat="47.33011" lon="-1.65615">
        <ele>52.9</ele>
        <time>2015-05-10T06:37:13Z</time>
      </trkpt>
      <trkpt lat="47.33016" lon="-1.65612">
        <ele>52.8</ele>
        <time>2015-05-10T06:37:14Z</time>
      </trkpt>
      <trkpt lat="47.3302" lon="-1.65609">
        <ele>52.7</ele>
        <time>2015-05-10T06:37:15Z</time>
      </trkpt>
      <trkpt lat="47.33023" lon="-1.65606">
        <ele>52.7</ele>
        <time>2015-05-10T06:37:16Z</time>
      </trkpt>
      <trkpt lat="47.33027" lon="-1.65604">
        <ele>52.6</ele>
        <time>2015-05-10T06:37:17Z</time>
      </trkpt>
      <trkpt lat="47.3303" lon="-1.65601">
        <ele>52.6</ele>
        <time>2015-05-10T06:37:18Z</time>
      </trkpt>
      <trkpt lat="47.33034" lon="-1.65598">
        <ele>52.5</ele>
        <time>2015-05-10T06:37:19Z</time>
      </trkpt>
      <trkpt lat="47.33037" lon="-1.65595">
        <ele>52.5</ele>
        <time>2015-05-10T06:37:20Z</time>
      </trkpt>
      <trkpt lat="47.33041" lon="-1.65593">
        <ele>52.4</ele>
        <time>2015-05-10T06:37:21Z</time>
      </trkpt>
      <trkpt lat="47.33044" lon="-1.6559">
        <ele>52.4</ele>
        <time>2015-05-10T06:37:22Z</time>
      </trkpt>
      <trkpt lat="47.33049" lon="-1.65588">
        <ele>52.4</ele>
        <time>2015-05-10T06:37:23Z</time>
      </trkpt>
      <trkpt lat="47.33053" lon="-1.65585">
        <ele>52.5</ele>
        <time>2015-05-10T06:37:24Z</time>
      </trkpt>
      <trkpt lat="47.33057" lon="-1.65583">
        <ele>52.5</ele>
        <time>2015-05-10T06:37:25Z</time>
      </trkpt>
      <trkpt lat="47.33061" lon="-1.65579">
        <ele>52.5</ele>
        <time>2015-05-10T06:37:26Z</time>
      </trkpt>
      <trkpt lat="47.33065" lon="-1.65576">
        <ele>52.6</ele>
        <time>2015-05-10T06:37:27Z</time>
      </trkpt>
      <trkpt lat="47.33069" lon="-1.65574">
        <ele>52.6</ele>
        <time>2015-05-10T06:37:28Z</time>
      </trkpt>
      <trkpt lat="47.33075" lon="-1.65573">
        <ele>52.6</ele>
        <time>2015-05-10T06:37:29Z</time>
      </trkpt>
      <trkpt lat="47.33079" lon="-1.6557">
        <ele>52.7</ele>
        <time>2015-05-10T06:37:30Z</time>
      </trkpt>
      <trkpt lat="47.33084" lon="-1.65569">
        <ele>52.7</ele>
        <time>2015-05-10T06:37:31Z</time>
      </trkpt>
      <trkpt lat="47.33088" lon="-1.65568">
        <ele>52.7</ele>
        <time>2015-05-10T06:37:32Z</time>
      </trkpt>
      <trkpt lat="47.33093" lon="-1.65567">
        <ele>52.7</ele>
        <time>2015-05-10T06:37:33Z</time>
      </trkpt>
      <trkpt lat="47.33097" lon="-1.65566">
        <ele>52.7</ele>
        <time>2015-05-10T06:37:34Z</time>
      </trkpt>
      <trkpt lat="47.33102" lon="-1.65564">
        <ele>52.7</ele>
        <time>2015-05-10T06:37:35Z</time>
      </trkpt>
      <trkpt lat="47.33106" lon="-1.65563">
        <ele>52.7</ele>
        <time>2015-05-10T06:37:36Z</time>
      </trkpt>
      <trkpt lat="47.33109" lon="-1.65561">
        <ele>52.8</ele>
        <time>2015-05-10T06:37:37Z</time>
      </trkpt>
      <trkpt lat="47.33113" lon="-1.6556">
        <ele>52.8</ele>
        <time>2015-05-10T06:37:38Z</time>
      </trkpt>
      <trkpt lat="47.33118" lon="-1.65559">
        <ele>52.8</ele>
        <time>2015-05-10T06:37:39Z</time>
      </trkpt>
      <trkpt lat="47.33122" lon="-1.65556">
        <ele>52.8</ele>
        <time>2015-05-10T06:37:40Z</time>
      </trkpt>
      <trkpt lat="47.33126" lon="-1.65555">
        <ele>52.9</ele>
        <time>2015-05-10T06:37:41Z</time>
      </trkpt>
      <trkpt lat="47.3313" lon="-1.65553">
        <ele>53</ele>
        <time>2015-05-10T06:37:42Z</time>
      </trkpt>
      <trkpt lat="47.33134" lon="-1.65552">
        <ele>53.1</ele>
        <time>2015-05-10T06:37:43Z</time>
      </trkpt>
      <trkpt lat="47.33138" lon="-1.6555">
        <ele>53.2</ele>
        <time>2015-05-10T06:37:44Z</time>
      </trkpt>
      <trkpt lat="47.33141" lon="-1.6555">
        <ele>53.3</ele>
        <time>2015-05-10T06:37:45Z</time>
      </trkpt>
      <trkpt lat="47.33145" lon="-1.65549">
        <ele>53.4</ele>
        <time>2015-05-10T06:37:46Z</time>
      </trkpt>
      <trkpt lat="47.33149" lon="-1.65548">
        <ele>53.5</ele>
        <time>2015-05-10T06:37:47Z</time>
      </trkpt>
      <trkpt lat="47.33153" lon="-1.65548">
        <ele>53.6</ele>
        <time>2015-05-10T06:37:48Z</time>
      </trkpt>
      <trkpt lat="47.33157" lon="-1.65547">
        <ele>53.7</ele>
        <time>2015-05-10T06:37:49Z</time>
      </trkpt>
      <trkpt lat="47.33161" lon="-1.65547">
        <ele>53.8</ele>
        <time>2015-05-10T06:37:50Z</time>
      </trkpt>
      <trkpt lat="47.33164" lon="-1.65546">
        <ele>53.9</ele>
        <time>2015-05-10T06:37:51Z</time>
      </trkpt>
      <trkpt lat="47.33168" lon="-1.65546">
        <ele>54</ele>
        <time>2015-05-10T06:37:52Z</time>
      </trkpt>
      <trkpt lat="47.33171" lon="-1.65546">
        <ele>54.1</ele>
        <time>2015-05-10T06:37:53Z</time>
      </trkpt>
      <trkpt lat="47.33175" lon="-1.65546">
        <ele>54.2</ele>
        <time>2015-05-10T06:37:54Z</time>
      </trkpt>
      <trkpt lat="47.33179" lon="-1.65548">
        <ele>54.3</ele>
        <time>2015-05-10T06:37:55Z</time>
      </trkpt>
      <trkpt lat="47.33183" lon="-1.65548">
        <ele>54.4</ele>
        <time>2015-05-10T06:37:56Z</time>
      </trkpt>
      <trkpt lat="47.33186" lon="-1.65548">
        <ele>54.5</ele>
        <time>2015-05-10T06:37:57Z</time>
      </trkpt>
      <trkpt lat="47.3319" lon="-1.65548">
        <ele>54.5</ele>
        <time>2015-05-10T06:37:58Z</time>
      </trkpt>
      <trkpt lat="47.33194" lon="-1.65548">
        <ele>54.6</ele>
        <time>2015-05-10T06:37:59Z</time>
      </trkpt>
      <trkpt lat="47.33197" lon="-1.65547">
        <ele>54.7</ele>
        <time>2015-05-10T06:38:00Z</time>
      </trkpt>
      <trkpt lat="47.33201" lon="-1.65547">
        <ele>54.8</ele>
        <time>2015-05-10T06:38:01Z</time>
      </trkpt>
      <trkpt lat="47.33205" lon="-1.65547">
        <ele>54.9</ele>
        <time>2015-05-10T06:38:02Z</time>
      </trkpt>
      <trkpt lat="47.33208" lon="-1.65548">
        <ele>55</ele>
        <time>2015-05-10T06:38:03Z</time>
      </trkpt>
      <trkpt lat="47.33212" lon="-1.65548">
        <ele>55.2</ele>
        <time>2015-05-10T06:38:04Z</time>
      </trkpt>
      <trkpt lat="47.33216" lon="-1.65547">
        <ele>55.5</ele>
        <time>2015-05-10T06:38:06Z</time>
      </trkpt>
      <trkpt lat="47.33219" lon="-1.65546">
        <ele>55.6</ele>
        <time>2015-05-10T06:38:07Z</time>
      </trkpt>
      <trkpt lat="47.33222" lon="-1.65546">
        <ele>55.8</ele>
        <time>2015-05-10T06:38:08Z</time>
      </trkpt>
      <trkpt lat="47.33225" lon="-1.65545">
        <ele>56</ele>
        <time>2015-05-10T06:38:09Z</time>
      </trkpt>
      <trkpt lat="47.33228" lon="-1.65544">
        <ele>56.2</ele>
        <time>2015-05-10T06:38:10Z</time>
      </trkpt>
      <trkpt lat="47.33231" lon="-1.65544">
        <ele>56.3</ele>
        <time>2015-05-10T06:38:11Z</time>
      </trkpt>
      <trkpt lat="47.33236" lon="-1.65543">
        <ele>56.6</ele>
        <time>2015-05-10T06:38:13Z</time>
      </trkpt>
      <trkpt lat="47.33239" lon="-1.65542">
        <ele>56.8</ele>
        <time>2015-05-10T06:38:14Z</time>
      </trkpt>
      <trkpt lat="47.33242" lon="-1.65542">
        <ele>57</ele>
        <time>2015-05-10T06:38:15Z</time>
      </trkpt>
      <trkpt lat="47.33245" lon="-1.65541">
        <ele>57.2</ele>
        <time>2015-05-10T06:38:16Z</time>
      </trkpt>
      <trkpt lat="47.33247" lon="-1.65541">
        <ele>57.3</ele>
        <time>2015-05-10T06:38:17Z</time>
      </trkpt>
      <trkpt lat="47.33251" lon="-1.6554">
        <ele>57.5</ele>
        <time>2015-05-10T06:38:18Z</time>
      </trkpt>
      <trkpt lat="47.33254" lon="-1.65539">
        <ele>57.7</ele>
        <time>2015-05-10T06:38:19Z</time>
      </trkpt>
      <trkpt lat="47.33256" lon="-1.65539">
        <ele>57.8</ele>
        <time>2015-05-10T06:38:20Z</time>
      </trkpt>
      <trkpt lat="47.33259" lon="-1.65539">
        <ele>58</ele>
        <time>2015-05-10T06:38:21Z</time>
      </trkpt>
      <trkpt lat="47.33262" lon="-1.65538">
        <ele>58.2</ele>
        <time>2015-05-10T06:38:22Z</time>
      </trkpt>
      <trkpt lat="47.33265" lon="-1.65537">
        <ele>58.4</ele>
        <time>2015-05-10T06:38:23Z</time>
      </trkpt>
      <trkpt lat="47.33268" lon="-1.65536">
        <ele>58.5</ele>
        <time>2015-05-10T06:38:24Z</time>
      </trkpt>
      <trkpt lat="47.33271" lon="-1.65535">
        <ele>58.7</ele>
        <time>2015-05-10T06:38:25Z</time>
      </trkpt>
      <trkpt lat="47.33275" lon="-1.65534">
        <ele>58.9</ele>
        <time>2015-05-10T06:38:26Z</time>
      </trkpt>
      <trkpt lat="47.33278" lon="-1.65534">
        <ele>59.1</ele>
        <time>2015-05-10T06:38:27Z</time>
      </trkpt>
      <trkpt lat="47.33281" lon="-1.65533">
        <ele>59.2</ele>
        <time>2015-05-10T06:38:28Z</time>
      </trkpt>
      <trkpt lat="47.33284" lon="-1.65532">
        <ele>59.4</ele>
        <time>2015-05-10T06:38:29Z</time>
      </trkpt>
      <trkpt lat="47.33287" lon="-1.65531">
        <ele>59.6</ele>
        <time>2015-05-10T06:38:30Z</time>
      </trkpt>
      <trkpt lat="47.33291" lon="-1.65531">
        <ele>59.8</ele>
        <time>2015-05-10T06:38:31Z</time>
      </trkpt>
      <trkpt lat="47.33294" lon="-1.6553">
        <ele>59.9</ele>
        <time>2015-05-10T06:38:32Z</time>
      </trkpt>
      <trkpt lat="47.33297" lon="-1.6553">
        <ele>60</ele>
        <time>2015-05-10T06:38:33Z</time>
      </trkpt>
      <trkpt lat="47.333" lon="-1.65528">
        <ele>60.1</ele>
        <time>2015-05-10T06:38:34Z</time>
      </trkpt>
      <trkpt lat="47.33303" lon="-1.65528">
        <ele>60.2</ele>
        <time>2015-05-10T06:38:35Z</time>
      </trkpt>
      <trkpt lat="47.33306" lon="-1.65527">
        <ele>60.3</ele>
        <time>2015-05-10T06:38:36Z</time>
      </trkpt>
      <trkpt lat="47.3331" lon="-1.65525">
        <ele>60.4</ele>
        <time>2015-05-10T06:38:37Z</time>
      </trkpt>
      <trkpt lat="47.33313" lon="-1.65524">
        <ele>60.5</ele>
        <time>2015-05-10T06:38:38Z</time>
      </trkpt>
      <trkpt lat="47.33316" lon="-1.65523">
        <ele>60.6</ele>
        <time>2015-05-10T06:38:39Z</time>
      </trkpt>
      <trkpt lat="47.33319" lon="-1.65522">
        <ele>60.7</ele>
        <time>2015-05-10T06:38:40Z</time>
      </trkpt>
      <trkpt lat="47.33322" lon="-1.65521">
        <ele>60.8</ele>
        <time>2015-05-10T06:38:41Z</time>
      </trkpt>
      <trkpt lat="47.33326" lon="-1.6552">
        <ele>60.9</ele>
        <time>2015-05-10T06:38:42Z</time>
      </trkpt>
      <trkpt lat="47.3333" lon="-1.6552">
        <ele>61</ele>
        <time>2015-05-10T06:38:43Z</time>
      </trkpt>
      <trkpt lat="47.33333" lon="-1.65518">
        <ele>61.1</ele>
        <time>2015-05-10T06:38:44Z</time>
      </trkpt>
      <trkpt lat="47.33337" lon="-1.65516">
        <ele>61.2</ele>
        <time>2015-05-10T06:38:45Z</time>
      </trkpt>
      <trkpt lat="47.33341" lon="-1.65515">
        <ele>61.3</ele>
        <time>2015-05-10T06:38:46Z</time>
      </trkpt>
      <trkpt lat="47.33345" lon="-1.65513">
        <ele>61.4</ele>
        <time>2015-05-10T06:38:47Z</time>
      </trkpt>
      <trkpt lat="47.3335" lon="-1.65511">
        <ele>61.5</ele>
        <time>2015-05-10T06:38:48Z</time>
      </trkpt>
      <trkpt lat="47.33354" lon="-1.6551">
        <ele>61.6</ele>
        <time>2015-05-10T06:38:49Z</time>
      </trkpt>
      <trkpt lat="47.33359" lon="-1.65509">
        <ele>61.7</ele>
        <time>2015-05-10T06:38:50Z</time>
      </trkpt>
      <trkpt lat="47.33364" lon="-1.65507">
        <ele>61.8</ele>
        <time>2015-05-10T06:38:51Z</time>
      </trkpt>
      <trkpt lat="47.33369" lon="-1.65505">
        <ele>61.9</ele>
        <time>2015-05-10T06:38:52Z</time>
      </trkpt>
      <trkpt lat="47.33374" lon="-1.65503">
        <ele>62</ele>
        <time>2015-05-10T06:38:53Z</time>
      </trkpt>
      <trkpt lat="47.33379" lon="-1.65501">
        <ele>62.1</ele>
        <time>2015-05-10T06:38:54Z</time>
      </trkpt>
      <trkpt lat="47.33386" lon="-1.65499">
        <ele>62.2</ele>
        <time>2015-05-10T06:38:55Z</time>
      </trkpt>
      <trkpt lat="47.33392" lon="-1.65496">
        <ele>62.3</ele>
        <time>2015-05-10T06:38:56Z</time>
      </trkpt>
      <trkpt lat="47.33398" lon="-1.65496">
        <ele>62.4</ele>
        <time>2015-05-10T06:38:57Z</time>
      </trkpt>
      <trkpt lat="47.33405" lon="-1.65494">
        <ele>62.5</ele>
        <time>2015-05-10T06:38:58Z</time>
      </trkpt>
      <trkpt lat="47.3341" lon="-1.65491">
        <ele>62.5</ele>
        <time>2015-05-10T06:38:59Z</time>
      </trkpt>
      <trkpt lat="47.33415" lon="-1.65489">
        <ele>62.6</ele>
        <time>2015-05-10T06:39:00Z</time>
      </trkpt>
      <trkpt lat="47.3342" lon="-1.65487">
        <ele>62.6</ele>
        <time>2015-05-10T06:39:01Z</time>
      </trkpt>
      <trkpt lat="47.33426" lon="-1.65483">
        <ele>62.6</ele>
        <time>2015-05-10T06:39:02Z</time>
      </trkpt>
      <trkpt lat="47.33431" lon="-1.65479">
        <ele>62.5</ele>
        <time>2015-05-10T06:39:03Z</time>
      </trkpt>
      <trkpt lat="47.33436" lon="-1.65475">
        <ele>62.4</ele>
        <time>2015-05-10T06:39:04Z</time>
      </trkpt>
      <trkpt lat="47.33442" lon="-1.65472">
        <ele>62.4</ele>
        <time>2015-05-10T06:39:05Z</time>
      </trkpt>
      <trkpt lat="47.33446" lon="-1.65467">
        <ele>62.2</ele>
        <time>2015-05-10T06:39:06Z</time>
      </trkpt>
      <trkpt lat="47.33452" lon="-1.65464">
        <ele>62.2</ele>
        <time>2015-05-10T06:39:07Z</time>
      </trkpt>
      <trkpt lat="47.33457" lon="-1.65459">
        <ele>62</ele>
        <time>2015-05-10T06:39:08Z</time>
      </trkpt>
      <trkpt lat="47.33462" lon="-1.65454">
        <ele>61.7</ele>
        <time>2015-05-10T06:39:09Z</time>
      </trkpt>
      <trkpt lat="47.33467" lon="-1.65448">
        <ele>61.2</ele>
        <time>2015-05-10T06:39:10Z</time>
      </trkpt>
      <trkpt lat="47.33472" lon="-1.65443">
        <ele>60.8</ele>
        <time>2015-05-10T06:39:11Z</time>
      </trkpt>
      <trkpt lat="47.33478" lon="-1.65437">
        <ele>60.4</ele>
        <time>2015-05-10T06:39:12Z</time>
      </trkpt>
      <trkpt lat="47.33482" lon="-1.65431">
        <ele>60</ele>
        <time>2015-05-10T06:39:13Z</time>
      </trkpt>
      <trkpt lat="47.33487" lon="-1.65426">
        <ele>59.6</ele>
        <time>2015-05-10T06:39:14Z</time>
      </trkpt>
      <trkpt lat="47.33493" lon="-1.65421">
        <ele>59.3</ele>
        <time>2015-05-10T06:39:15Z</time>
      </trkpt>
      <trkpt lat="47.33498" lon="-1.65416">
        <ele>59</ele>
        <time>2015-05-10T06:39:16Z</time>
      </trkpt>
      <trkpt lat="47.33503" lon="-1.65411">
        <ele>58.7</ele>
        <time>2015-05-10T06:39:17Z</time>
      </trkpt>
      <trkpt lat="47.33507" lon="-1.65406">
        <ele>58.4</ele>
        <time>2015-05-10T06:39:18Z</time>
      </trkpt>
      <trkpt lat="47.33512" lon="-1.65401">
        <ele>58.2</ele>
        <time>2015-05-10T06:39:19Z</time>
      </trkpt>
      <trkpt lat="47.33516" lon="-1.65396">
        <ele>57.9</ele>
        <time>2015-05-10T06:39:20Z</time>
      </trkpt>
      <trkpt lat="47.33521" lon="-1.65391">
        <ele>57.7</ele>
        <time>2015-05-10T06:39:21Z</time>
      </trkpt>
      <trkpt lat="47.33524" lon="-1.65386">
        <ele>57.5</ele>
        <time>2015-05-10T06:39:22Z</time>
      </trkpt>
      <trkpt lat="47.33528" lon="-1.65382">
        <ele>57.3</ele>
        <time>2015-05-10T06:39:23Z</time>
      </trkpt>
      <trkpt lat="47.33532" lon="-1.65378">
        <ele>57.1</ele>
        <time>2015-05-10T06:39:24Z</time>
      </trkpt>
      <trkpt lat="47.33536" lon="-1.65375">
        <ele>57</ele>
        <time>2015-05-10T06:39:25Z</time>
      </trkpt>
      <trkpt lat="47.3354" lon="-1.65372">
        <ele>57</ele>
        <time>2015-05-10T06:39:26Z</time>
      </trkpt>
      <trkpt lat="47.33544" lon="-1.65369">
        <ele>57</ele>
        <time>2015-05-10T06:39:27Z</time>
      </trkpt>
      <trkpt lat="47.33547" lon="-1.65367">
        <ele>57.1</ele>
        <time>2015-05-10T06:39:28Z</time>
      </trkpt>
      <trkpt lat="47.33551" lon="-1.65368">
        <ele>57.3</ele>
        <time>2015-05-10T06:39:29Z</time>
      </trkpt>
      <trkpt lat="47.33554" lon="-1.65372">
        <ele>57.4</ele>
        <time>2015-05-10T06:39:30Z</time>
      </trkpt>
      <trkpt lat="47.33557" lon="-1.65377">
        <ele>57.6</ele>
        <time>2015-05-10T06:39:31Z</time>
      </trkpt>
      <trkpt lat="47.3356" lon="-1.65383">
        <ele>58</ele>
        <time>2015-05-10T06:39:32Z</time>
      </trkpt>
      <trkpt lat="47.33562" lon="-1.6539">
        <ele>58.2</ele>
        <time>2015-05-10T06:39:33Z</time>
      </trkpt>
      <trkpt lat="47.33563" lon="-1.65395">
        <ele>58.5</ele>
        <time>2015-05-10T06:39:34Z</time>
      </trkpt>
      <trkpt lat="47.33564" lon="-1.65401">
        <ele>58.7</ele>
        <time>2015-05-10T06:39:35Z</time>
      </trkpt>
      <trkpt lat="47.33565" lon="-1.65407">
        <ele>59</ele>
        <time>2015-05-10T06:39:36Z</time>
      </trkpt>
      <trkpt lat="47.33566" lon="-1.65412">
        <ele>59.2</ele>
        <time>2015-05-10T06:39:37Z</time>
      </trkpt>
      <trkpt lat="47.33567" lon="-1.65417">
        <ele>59.4</ele>
        <time>2015-05-10T06:39:38Z</time>
      </trkpt>
      <trkpt lat="47.33569" lon="-1.65421">
        <ele>59.6</ele>
        <time>2015-05-10T06:39:39Z</time>
      </trkpt>
      <trkpt lat="47.33571" lon="-1.65425">
        <ele>59.8</ele>
        <time>2015-05-10T06:39:40Z</time>
      </trkpt>
      <trkpt lat="47.33573" lon="-1.65432">
        <ele>60.2</ele>
        <time>2015-05-10T06:39:42Z</time>
      </trkpt>
      <trkpt lat="47.33573" lon="-1.65437">
        <ele>60.4</ele>
        <time>2015-05-10T06:39:43Z</time>
      </trkpt>
      <trkpt lat="47.33575" lon="-1.65444">
        <ele>60.7</ele>
        <time>2015-05-10T06:39:45Z</time>
      </trkpt>
      <trkpt lat="47.33577" lon="-1.6545">
        <ele>61</ele>
        <time>2015-05-10T06:39:47Z</time>
      </trkpt>
      <trkpt lat="47.33578" lon="-1.65456">
        <ele>61.2</ele>
        <time>2015-05-10T06:39:49Z</time>
      </trkpt>
      <trkpt lat="47.33579" lon="-1.65459">
        <ele>61.4</ele>
        <time>2015-05-10T06:39:50Z</time>
      </trkpt>
      <trkpt lat="47.33581" lon="-1.65464">
        <ele>61.6</ele>
        <time>2015-05-10T06:39:51Z</time>
      </trkpt>
      <trkpt lat="47.33582" lon="-1.65468">
        <ele>61.8</ele>
        <time>2015-05-10T06:39:52Z</time>
      </trkpt>
      <trkpt lat="47.33583" lon="-1.65473">
        <ele>62</ele>
        <time>2015-05-10T06:39:53Z</time>
      </trkpt>
      <trkpt lat="47.33584" lon="-1.65477">
        <ele>62.2</ele>
        <time>2015-05-10T06:39:54Z</time>
      </trkpt>
      <trkpt lat="47.33586" lon="-1.65484">
        <ele>62.5</ele>
        <time>2015-05-10T06:39:56Z</time>
      </trkpt>
      <trkpt lat="47.33588" lon="-1.65488">
        <ele>62.7</ele>
        <time>2015-05-10T06:39:57Z</time>
      </trkpt>
      <trkpt lat="47.3359" lon="-1.65495">
        <ele>63</ele>
        <time>2015-05-10T06:39:59Z</time>
      </trkpt>
      <trkpt lat="47.33592" lon="-1.65502">
        <ele>63.3</ele>
        <time>2015-05-10T06:40:01Z</time>
      </trkpt>
      <trkpt lat="47.33594" lon="-1.65506">
        <ele>63.4</ele>
        <time>2015-05-10T06:40:02Z</time>
      </trkpt>
      <trkpt lat="47.33595" lon="-1.6551">
        <ele>63.6</ele>
        <time>2015-05-10T06:40:03Z</time>
      </trkpt>
      <trkpt lat="47.33595" lon="-1.65514">
        <ele>63.7</ele>
        <time>2015-05-10T06:40:04Z</time>
      </trkpt>
      <trkpt lat="47.33596" lon="-1.65519">
        <ele>63.9</ele>
        <time>2015-05-10T06:40:05Z</time>
      </trkpt>
      <trkpt lat="47.33598" lon="-1.65523">
        <ele>64.1</ele>
        <time>2015-05-10T06:40:06Z</time>
      </trkpt>
      <trkpt lat="47.33599" lon="-1.65528">
        <ele>64.2</ele>
        <time>2015-05-10T06:40:07Z</time>
      </trkpt>
      <trkpt lat="47.336" lon="-1.65532">
        <ele>64.4</ele>
        <time>2015-05-10T06:40:08Z</time>
      </trkpt>
      <trkpt lat="47.33601" lon="-1.65538">
        <ele>64.6</ele>
        <time>2015-05-10T06:40:09Z</time>
      </trkpt>
      <trkpt lat="47.33602" lon="-1.65542">
        <ele>64.7</ele>
        <time>2015-05-10T06:40:10Z</time>
      </trkpt>
      <trkpt lat="47.33604" lon="-1.65547">
        <ele>64.8</ele>
        <time>2015-05-10T06:40:11Z</time>
      </trkpt>
      <trkpt lat="47.33604" lon="-1.65552">
        <ele>64.9</ele>
        <time>2015-05-10T06:40:12Z</time>
      </trkpt>
      <trkpt lat="47.33605" lon="-1.65557">
        <ele>64.9</ele>
        <time>2015-05-10T06:40:13Z</time>
      </trkpt>
      <trkpt lat="47.33606" lon="-1.65562">
        <ele>65</ele>
        <time>2015-05-10T06:40:14Z</time>
      </trkpt>
      <trkpt lat="47.33608" lon="-1.65567">
        <ele>65.1</ele>
        <time>2015-05-10T06:40:15Z</time>
      </trkpt>
      <trkpt lat="47.33609" lon="-1.65572">
        <ele>65.2</ele>
        <time>2015-05-10T06:40:16Z</time>
      </trkpt>
      <trkpt lat="47.3361" lon="-1.65577">
        <ele>65.2</ele>
        <time>2015-05-10T06:40:17Z</time>
      </trkpt>
      <trkpt lat="47.33612" lon="-1.65581">
        <ele>65.3</ele>
        <time>2015-05-10T06:40:18Z</time>
      </trkpt>
      <trkpt lat="47.33614" lon="-1.65585">
        <ele>65.4</ele>
        <time>2015-05-10T06:40:19Z</time>
      </trkpt>
      <trkpt lat="47.33616" lon="-1.65589">
        <ele>65.5</ele>
        <time>2015-05-10T06:40:20Z</time>
      </trkpt>
      <trkpt lat="47.33617" lon="-1.65594">
        <ele>65.5</ele>
        <time>2015-05-10T06:40:21Z</time>
      </trkpt>
      <trkpt lat="47.33618" lon="-1.65597">
        <ele>65.6</ele>
        <time>2015-05-10T06:40:22Z</time>
      </trkpt>
      <trkpt lat="47.3362" lon="-1.65605">
        <ele>65.7</ele>
        <time>2015-05-10T06:40:24Z</time>
      </trkpt>
      <trkpt lat="47.33622" lon="-1.65612">
        <ele>65.8</ele>
        <time>2015-05-10T06:40:26Z</time>
      </trkpt>
      <trkpt lat="47.33625" lon="-1.65618">
        <ele>65.9</ele>
        <time>2015-05-10T06:40:28Z</time>
      </trkpt>
      <trkpt lat="47.33628" lon="-1.65623">
        <ele>66</ele>
        <time>2015-05-10T06:40:30Z</time>
      </trkpt>
      <trkpt lat="47.33631" lon="-1.65626">
        <ele>66.1</ele>
        <time>2015-05-10T06:40:31Z</time>
      </trkpt>
      <trkpt lat="47.33634" lon="-1.65627">
        <ele>66.1</ele>
        <time>2015-05-10T06:40:32Z</time>
      </trkpt>
      <trkpt lat="47.33637" lon="-1.65629">
        <ele>66.2</ele>
        <time>2015-05-10T06:40:33Z</time>
      </trkpt>
      <trkpt lat="47.3364" lon="-1.6563">
        <ele>66.2</ele>
        <time>2015-05-10T06:40:34Z</time>
      </trkpt>
      <trkpt lat="47.33645" lon="-1.65631">
        <ele>66.3</ele>
        <time>2015-05-10T06:40:36Z</time>
      </trkpt>
      <trkpt lat="47.33648" lon="-1.6563">
        <ele>66.3</ele>
        <time>2015-05-10T06:40:38Z</time>
      </trkpt>
      <trkpt lat="47.33652" lon="-1.6563">
        <ele>66.3</ele>
        <time>2015-05-10T06:40:40Z</time>
      </trkpt>
      <trkpt lat="47.33657" lon="-1.65628">
        <ele>66.4</ele>
        <time>2015-05-10T06:40:42Z</time>
      </trkpt>
      <trkpt lat="47.33662" lon="-1.65626">
        <ele>66.4</ele>
        <time>2015-05-10T06:40:44Z</time>
      </trkpt>
      <trkpt lat="47.33667" lon="-1.65623">
        <ele>66.5</ele>
        <time>2015-05-10T06:40:46Z</time>
      </trkpt>
      <trkpt lat="47.3367" lon="-1.65622">
        <ele>66.5</ele>
        <time>2015-05-10T06:40:47Z</time>
      </trkpt>
      <trkpt lat="47.33673" lon="-1.65622">
        <ele>66.6</ele>
        <time>2015-05-10T06:40:48Z</time>
      </trkpt>
      <trkpt lat="47.33676" lon="-1.6562">
        <ele>66.6</ele>
        <time>2015-05-10T06:40:49Z</time>
      </trkpt>
      <trkpt lat="47.33679" lon="-1.65619">
        <ele>66.6</ele>
        <time>2015-05-10T06:40:50Z</time>
      </trkpt>
      <trkpt lat="47.33682" lon="-1.65618">
        <ele>66.7</ele>
        <time>2015-05-10T06:40:51Z</time>
      </trkpt>
      <trkpt lat="47.33685" lon="-1.65618">
        <ele>66.7</ele>
        <time>2015-05-10T06:40:52Z</time>
      </trkpt>
      <trkpt lat="47.33688" lon="-1.65618">
        <ele>66.7</ele>
        <time>2015-05-10T06:40:53Z</time>
      </trkpt>
      <trkpt lat="47.33692" lon="-1.65617">
        <ele>66.8</ele>
        <time>2015-05-10T06:40:54Z</time>
      </trkpt>
      <trkpt lat="47.33695" lon="-1.65616">
        <ele>66.8</ele>
        <time>2015-05-10T06:40:55Z</time>
      </trkpt>
      <trkpt lat="47.33698" lon="-1.65616">
        <ele>66.9</ele>
        <time>2015-05-10T06:40:56Z</time>
      </trkpt>
      <trkpt lat="47.33701" lon="-1.65615">
        <ele>66.9</ele>
        <time>2015-05-10T06:40:57Z</time>
      </trkpt>
      <trkpt lat="47.33705" lon="-1.65615">
        <ele>66.9</ele>
        <time>2015-05-10T06:40:58Z</time>
      </trkpt>
      <trkpt lat="47.33708" lon="-1.65614">
        <ele>67</ele>
        <time>2015-05-10T06:40:59Z</time>
      </trkpt>
      <trkpt lat="47.33711" lon="-1.65614">
        <ele>67</ele>
        <time>2015-05-10T06:41:00Z</time>
      </trkpt>
      <trkpt lat="47.33716" lon="-1.65616">
        <ele>67</ele>
        <time>2015-05-10T06:41:01Z</time>
      </trkpt>
      <trkpt lat="47.3372" lon="-1.65618">
        <ele>67</ele>
        <time>2015-05-10T06:41:02Z</time>
      </trkpt>
      <trkpt lat="47.33724" lon="-1.65622">
        <ele>67</ele>
        <time>2015-05-10T06:41:03Z</time>
      </trkpt>
      <trkpt lat="47.33727" lon="-1.65628">
        <ele>66.9</ele>
        <time>2015-05-10T06:41:04Z</time>
      </trkpt>
      <trkpt lat="47.33728" lon="-1.65635">
        <ele>66.8</ele>
        <time>2015-05-10T06:41:05Z</time>
      </trkpt>
      <trkpt lat="47.33729" lon="-1.65641">
        <ele>66.7</ele>
        <time>2015-05-10T06:41:06Z</time>
      </trkpt>
      <trkpt lat="47.33729" lon="-1.65647">
        <ele>66.6</ele>
        <time>2015-05-10T06:41:07Z</time>
      </trkpt>
      <trkpt lat="47.33729" lon="-1.65654">
        <ele>66.5</ele>
        <time>2015-05-10T06:41:08Z</time>
      </trkpt>
      <trkpt lat="47.33729" lon="-1.65661">
        <ele>66.4</ele>
        <time>2015-05-10T06:41:09Z</time>
      </trkpt>
      <trkpt lat="47.33729" lon="-1.65667">
        <ele>66.2</ele>
        <time>2015-05-10T06:41:10Z</time>
      </trkpt>
      <trkpt lat="47.33728" lon="-1.65673">
        <ele>66.1</ele>
        <time>2015-05-10T06:41:11Z</time>
      </trkpt>
      <trkpt lat="47.33728" lon="-1.65679">
        <ele>66</ele>
        <time>2015-05-10T06:41:12Z</time>
      </trkpt>
      <trkpt lat="47.33728" lon="-1.65686">
        <ele>65.9</ele>
        <time>2015-05-10T06:41:13Z</time>
      </trkpt>
      <trkpt lat="47.33728" lon="-1.65693">
        <ele>65.8</ele>
        <time>2015-05-10T06:41:14Z</time>
      </trkpt>
      <trkpt lat="47.33728" lon="-1.657">
        <ele>65.6</ele>
        <time>2015-05-10T06:41:15Z</time>
      </trkpt>
      <trkpt lat="47.33728" lon="-1.65707">
        <ele>65.5</ele>
        <time>2015-05-10T06:41:16Z</time>
      </trkpt>
      <trkpt lat="47.33727" lon="-1.65713">
        <ele>65.5</ele>
        <time>2015-05-10T06:41:17Z</time>
      </trkpt>
      <trkpt lat="47.33727" lon="-1.65719">
        <ele>65.6</ele>
        <time>2015-05-10T06:41:18Z</time>
      </trkpt>
      <trkpt lat="47.33727" lon="-1.65725">
        <ele>65.7</ele>
        <time>2015-05-10T06:41:19Z</time>
      </trkpt>
      <trkpt lat="47.33727" lon="-1.65731">
        <ele>65.8</ele>
        <time>2015-05-10T06:41:20Z</time>
      </trkpt>
      <trkpt lat="47.33727" lon="-1.65737">
        <ele>65.9</ele>
        <time>2015-05-10T06:41:21Z</time>
      </trkpt>
      <trkpt lat="47.33727" lon="-1.65743">
        <ele>66</ele>
        <time>2015-05-10T06:41:22Z</time>
      </trkpt>
      <trkpt lat="47.33727" lon="-1.6575">
        <ele>66.1</ele>
        <time>2015-05-10T06:41:23Z</time>
      </trkpt>
      <trkpt lat="47.33727" lon="-1.65756">
        <ele>66.2</ele>
        <time>2015-05-10T06:41:24Z</time>
      </trkpt>
      <trkpt lat="47.33727" lon="-1.65763">
        <ele>66.3</ele>
        <time>2015-05-10T06:41:25Z</time>
      </trkpt>
      <trkpt lat="47.33726" lon="-1.6577">
        <ele>66.4</ele>
        <time>2015-05-10T06:41:26Z</time>
      </trkpt>
      <trkpt lat="47.33726" lon="-1.65777">
        <ele>66.5</ele>
        <time>2015-05-10T06:41:27Z</time>
      </trkpt>
      <trkpt lat="47.33726" lon="-1.65782">
        <ele>66.6</ele>
        <time>2015-05-10T06:41:28Z</time>
      </trkpt>
      <trkpt lat="47.33726" lon="-1.65788">
        <ele>66.7</ele>
        <time>2015-05-10T06:41:29Z</time>
      </trkpt>
      <trkpt lat="47.33726" lon="-1.65793">
        <ele>66.8</ele>
        <time>2015-05-10T06:41:30Z</time>
      </trkpt>
      <trkpt lat="47.33726" lon="-1.65799">
        <ele>66.8</ele>
        <time>2015-05-10T06:41:31Z</time>
      </trkpt>
      <trkpt lat="47.33726" lon="-1.65805">
        <ele>66.8</ele>
        <time>2015-05-10T06:41:32Z</time>
      </trkpt>
      <trkpt lat="47.33726" lon="-1.65812">
        <ele>66.8</ele>
        <time>2015-05-10T06:41:33Z</time>
      </trkpt>
      <trkpt lat="47.33724" lon="-1.65819">
        <ele>66.9</ele>
        <time>2015-05-10T06:41:34Z</time>
      </trkpt>
      <trkpt lat="47.33724" lon="-1.65826">
        <ele>66.9</ele>
        <time>2015-05-10T06:41:35Z</time>
      </trkpt>
      <trkpt lat="47.33723" lon="-1.65833">
        <ele>66.9</ele>
        <time>2015-05-10T06:41:36Z</time>
      </trkpt>
      <trkpt lat="47.33723" lon="-1.6584">
        <ele>66.9</ele>
        <time>2015-05-10T06:41:37Z</time>
      </trkpt>
      <trkpt lat="47.33723" lon="-1.65846">
        <ele>66.9</ele>
        <time>2015-05-10T06:41:38Z</time>
      </trkpt>
      <trkpt lat="47.33722" lon="-1.65852">
        <ele>67</ele>
        <time>2015-05-10T06:41:39Z</time>
      </trkpt>
      <trkpt lat="47.33721" lon="-1.65858">
        <ele>67</ele>
        <time>2015-05-10T06:41:40Z</time>
      </trkpt>
      <trkpt lat="47.33721" lon="-1.65864">
        <ele>67</ele>
        <time>2015-05-10T06:41:41Z</time>
      </trkpt>
      <trkpt lat="47.3372" lon="-1.65869">
        <ele>67</ele>
        <time>2015-05-10T06:41:42Z</time>
      </trkpt>
      <trkpt lat="47.3372" lon="-1.65875">
        <ele>67</ele>
        <time>2015-05-10T06:41:43Z</time>
      </trkpt>
      <trkpt lat="47.3372" lon="-1.65881">
        <ele>66.9</ele>
        <time>2015-05-10T06:41:44Z</time>
      </trkpt>
      <trkpt lat="47.3372" lon="-1.65887">
        <ele>66.8</ele>
        <time>2015-05-10T06:41:45Z</time>
      </trkpt>
      <trkpt lat="47.3372" lon="-1.65893">
        <ele>66.8</ele>
        <time>2015-05-10T06:41:46Z</time>
      </trkpt>
      <trkpt lat="47.3372" lon="-1.65899">
        <ele>66.7</ele>
        <time>2015-05-10T06:41:47Z</time>
      </trkpt>
      <trkpt lat="47.3372" lon="-1.65904">
        <ele>66.6</ele>
        <time>2015-05-10T06:41:48Z</time>
      </trkpt>
      <trkpt lat="47.3372" lon="-1.6591">
        <ele>66.5</ele>
        <time>2015-05-10T06:41:49Z</time>
      </trkpt>
      <trkpt lat="47.3372" lon="-1.65916">
        <ele>66.4</ele>
        <time>2015-05-10T06:41:50Z</time>
      </trkpt>
      <trkpt lat="47.3372" lon="-1.65922">
        <ele>66.4</ele>
        <time>2015-05-10T06:41:51Z</time>
      </trkpt>
      <trkpt lat="47.33718" lon="-1.65928">
        <ele>66.3</ele>
        <time>2015-05-10T06:41:52Z</time>
      </trkpt>
      <trkpt lat="47.33717" lon="-1.65933">
        <ele>66.2</ele>
        <time>2015-05-10T06:41:53Z</time>
      </trkpt>
      <trkpt lat="47.33714" lon="-1.65938">
        <ele>66.2</ele>
        <time>2015-05-10T06:41:54Z</time>
      </trkpt>
      <trkpt lat="47.33712" lon="-1.65943">
        <ele>66.2</ele>
        <time>2015-05-10T06:41:55Z</time>
      </trkpt>
      <trkpt lat="47.33709" lon="-1.65947">
        <ele>66.1</ele>
        <time>2015-05-10T06:41:56Z</time>
      </trkpt>
      <trkpt lat="47.33705" lon="-1.65949">
        <ele>66</ele>
        <time>2015-05-10T06:41:57Z</time>
      </trkpt>
      <trkpt lat="47.33702" lon="-1.65952">
        <ele>65.8</ele>
        <time>2015-05-10T06:41:58Z</time>
      </trkpt>
      <trkpt lat="47.33698" lon="-1.65954">
        <ele>65.6</ele>
        <time>2015-05-10T06:41:59Z</time>
      </trkpt>
      <trkpt lat="47.33694" lon="-1.65956">
        <ele>65.4</ele>
        <time>2015-05-10T06:42:00Z</time>
      </trkpt>
      <trkpt lat="47.3369" lon="-1.65957">
        <ele>65.2</ele>
        <time>2015-05-10T06:42:01Z</time>
      </trkpt>
      <trkpt lat="47.33687" lon="-1.65959">
        <ele>64.9</ele>
        <time>2015-05-10T06:42:02Z</time>
      </trkpt>
      <trkpt lat="47.33683" lon="-1.65959">
        <ele>64.8</ele>
        <time>2015-05-10T06:42:03Z</time>
      </trkpt>
      <trkpt lat="47.33679" lon="-1.65961">
        <ele>64.5</ele>
        <time>2015-05-10T06:42:04Z</time>
      </trkpt>
      <trkpt lat="47.33675" lon="-1.65963">
        <ele>64.3</ele>
        <time>2015-05-10T06:42:05Z</time>
      </trkpt>
      <trkpt lat="47.33671" lon="-1.65965">
        <ele>64.1</ele>
        <time>2015-05-10T06:42:06Z</time>
      </trkpt>
      <trkpt lat="47.33668" lon="-1.65966">
        <ele>63.9</ele>
        <time>2015-05-10T06:42:07Z</time>
      </trkpt>
      <trkpt lat="47.33664" lon="-1.65967">
        <ele>63.7</ele>
        <time>2015-05-10T06:42:08Z</time>
      </trkpt>
      <trkpt lat="47.3366" lon="-1.65969">
        <ele>63.5</ele>
        <time>2015-05-10T06:42:09Z</time>
      </trkpt>
      <trkpt lat="47.33657" lon="-1.65971">
        <ele>63.2</ele>
        <time>2015-05-10T06:42:10Z</time>
      </trkpt>
      <trkpt lat="47.33653" lon="-1.65972">
        <ele>63.1</ele>
        <time>2015-05-10T06:42:11Z</time>
      </trkpt>
      <trkpt lat="47.33649" lon="-1.65974">
        <ele>62.9</ele>
        <time>2015-05-10T06:42:12Z</time>
      </trkpt>
      <trkpt lat="47.33645" lon="-1.65975">
        <ele>62.7</ele>
        <time>2015-05-10T06:42:13Z</time>
      </trkpt>
      <trkpt lat="47.33642" lon="-1.65977">
        <ele>62.5</ele>
        <time>2015-05-10T06:42:14Z</time>
      </trkpt>
      <trkpt lat="47.33638" lon="-1.65978">
        <ele>62.3</ele>
        <time>2015-05-10T06:42:15Z</time>
      </trkpt>
      <trkpt lat="47.33635" lon="-1.6598">
        <ele>62.1</ele>
        <time>2015-05-10T06:42:16Z</time>
      </trkpt>
      <trkpt lat="47.33631" lon="-1.65982">
        <ele>62</ele>
        <time>2015-05-10T06:42:17Z</time>
      </trkpt>
      <trkpt lat="47.33627" lon="-1.65983">
        <ele>61.8</ele>
        <time>2015-05-10T06:42:18Z</time>
      </trkpt>
      <trkpt lat="47.33623" lon="-1.65984">
        <ele>61.7</ele>
        <time>2015-05-10T06:42:19Z</time>
      </trkpt>
      <trkpt lat="47.33619" lon="-1.65986">
        <ele>61.6</ele>
        <time>2015-05-10T06:42:20Z</time>
      </trkpt>
      <trkpt lat="47.33615" lon="-1.65987">
        <ele>61.5</ele>
        <time>2015-05-10T06:42:21Z</time>
      </trkpt>
      <trkpt lat="47.3361" lon="-1.65988">
        <ele>61.5</ele>
        <time>2015-05-10T06:42:22Z</time>
      </trkpt>
      <trkpt lat="47.33605" lon="-1.65989">
        <ele>61.4</ele>
        <time>2015-05-10T06:42:23Z</time>
      </trkpt>
      <trkpt lat="47.336" lon="-1.65991">
        <ele>61.3</ele>
        <time>2015-05-10T06:42:24Z</time>
      </trkpt>
      <trkpt lat="47.33595" lon="-1.65992">
        <ele>61.2</ele>
        <time>2015-05-10T06:42:25Z</time>
      </trkpt>
      <trkpt lat="47.3359" lon="-1.65994">
        <ele>61.1</ele>
        <time>2015-05-10T06:42:26Z</time>
      </trkpt>
      <trkpt lat="47.33584" lon="-1.65997">
        <ele>61</ele>
        <time>2015-05-10T06:42:27Z</time>
      </trkpt>
      <trkpt lat="47.33579" lon="-1.65999">
        <ele>61</ele>
        <time>2015-05-10T06:42:28Z</time>
      </trkpt>
      <trkpt lat="47.33574" lon="-1.66002">
        <ele>60.9</ele>
        <time>2015-05-10T06:42:29Z</time>
      </trkpt>
      <trkpt lat="47.33569" lon="-1.66004">
        <ele>60.8</ele>
        <time>2015-05-10T06:42:30Z</time>
      </trkpt>
      <trkpt lat="47.33563" lon="-1.66007">
        <ele>60.7</ele>
        <time>2015-05-10T06:42:31Z</time>
      </trkpt>
      <trkpt lat="47.33556" lon="-1.66009">
        <ele>60.6</ele>
        <time>2015-05-10T06:42:32Z</time>
      </trkpt>
      <trkpt lat="47.33549" lon="-1.66012">
        <ele>60.5</ele>
        <time>2015-05-10T06:42:33Z</time>
      </trkpt>
      <trkpt lat="47.33542" lon="-1.66015">
        <ele>60.3</ele>
        <time>2015-05-10T06:42:34Z</time>
      </trkpt>
      <trkpt lat="47.33533" lon="-1.66018">
        <ele>60</ele>
        <time>2015-05-10T06:42:35Z</time>
      </trkpt>
      <trkpt lat="47.33526" lon="-1.66022">
        <ele>59.7</ele>
        <time>2015-05-10T06:42:36Z</time>
      </trkpt>
      <trkpt lat="47.33518" lon="-1.66027">
        <ele>59.3</ele>
        <time>2015-05-10T06:42:37Z</time>
      </trkpt>
      <trkpt lat="47.33511" lon="-1.66032">
        <ele>59</ele>
        <time>2015-05-10T06:42:38Z</time>
      </trkpt>
      <trkpt lat="47.33504" lon="-1.66037">
        <ele>58.7</ele>
        <time>2015-05-10T06:42:39Z</time>
      </trkpt>
      <trkpt lat="47.33496" lon="-1.66043">
        <ele>58.3</ele>
        <time>2015-05-10T06:42:40Z</time>
      </trkpt>
      <trkpt lat="47.33488" lon="-1.66049">
        <ele>57.8</ele>
        <time>2015-05-10T06:42:41Z</time>
      </trkpt>
      <trkpt lat="47.33481" lon="-1.66054">
        <ele>57.3</ele>
        <time>2015-05-10T06:42:42Z</time>
      </trkpt>
      <trkpt lat="47.33473" lon="-1.6606">
        <ele>56.8</ele>
        <time>2015-05-10T06:42:43Z</time>
      </trkpt>
      <trkpt lat="47.33466" lon="-1.66065">
        <ele>56.4</ele>
        <time>2015-05-10T06:42:44Z</time>
      </trkpt>
      <trkpt lat="47.33458" lon="-1.6607">
        <ele>56</ele>
        <time>2015-05-10T06:42:45Z</time>
      </trkpt>
      <trkpt lat="47.33451" lon="-1.66075">
        <ele>55.6</ele>
        <time>2015-05-10T06:42:46Z</time>
      </trkpt>
      <trkpt lat="47.33444" lon="-1.6608">
        <ele>55.3</ele>
        <time>2015-05-10T06:42:47Z</time>
      </trkpt>
      <trkpt lat="47.33437" lon="-1.66086">
        <ele>55</ele>
        <time>2015-05-10T06:42:48Z</time>
      </trkpt>
      <trkpt lat="47.33431" lon="-1.66092">
        <ele>54.8</ele>
        <time>2015-05-10T06:42:49Z</time>
      </trkpt>
      <trkpt lat="47.33424" lon="-1.66097">
        <ele>54.6</ele>
        <time>2015-05-10T06:42:50Z</time>
      </trkpt>
      <trkpt lat="47.33418" lon="-1.66103">
        <ele>54.4</ele>
        <time>2015-05-10T06:42:51Z</time>
      </trkpt>
      <trkpt lat="47.33413" lon="-1.6611">
        <ele>54.2</ele>
        <time>2015-05-10T06:42:52Z</time>
      </trkpt>
      <trkpt lat="47.33408" lon="-1.66118">
        <ele>54.1</ele>
        <time>2015-05-10T06:42:53Z</time>
      </trkpt>
      <trkpt lat="47.33405" lon="-1.66127">
        <ele>53.9</ele>
        <time>2015-05-10T06:42:54Z</time>
      </trkpt>
      <trkpt lat="47.33404" lon="-1.66137">
        <ele>53.3</ele>
        <time>2015-05-10T06:42:55Z</time>
      </trkpt>
      <trkpt lat="47.33406" lon="-1.66148">
        <ele>52.7</ele>
        <time>2015-05-10T06:42:56Z</time>
      </trkpt>
      <trkpt lat="47.33407" lon="-1.66158">
        <ele>52.2</ele>
        <time>2015-05-10T06:42:57Z</time>
      </trkpt>
      <trkpt lat="47.33408" lon="-1.66168">
        <ele>51.6</ele>
        <time>2015-05-10T06:42:58Z</time>
      </trkpt>
      <trkpt lat="47.33409" lon="-1.66177">
        <ele>51.1</ele>
        <time>2015-05-10T06:42:59Z</time>
      </trkpt>
      <trkpt lat="47.33411" lon="-1.66185">
        <ele>50.7</ele>
        <time>2015-05-10T06:43:00Z</time>
      </trkpt>
      <trkpt lat="47.33413" lon="-1.66194">
        <ele>50.2</ele>
        <time>2015-05-10T06:43:01Z</time>
      </trkpt>
      <trkpt lat="47.33417" lon="-1.66202">
        <ele>49.9</ele>
        <time>2015-05-10T06:43:02Z</time>
      </trkpt>
      <trkpt lat="47.33422" lon="-1.66208">
        <ele>49.6</ele>
        <time>2015-05-10T06:43:03Z</time>
      </trkpt>
      <trkpt lat="47.33427" lon="-1.66213">
        <ele>49.4</ele>
        <time>2015-05-10T06:43:04Z</time>
      </trkpt>
      <trkpt lat="47.33433" lon="-1.66219">
        <ele>49.3</ele>
        <time>2015-05-10T06:43:05Z</time>
      </trkpt>
      <trkpt lat="47.3344" lon="-1.66225">
        <ele>49.1</ele>
        <time>2015-05-10T06:43:06Z</time>
      </trkpt>
      <trkpt lat="47.33446" lon="-1.66231">
        <ele>49</ele>
        <time>2015-05-10T06:43:07Z</time>
      </trkpt>
      <trkpt lat="47.33453" lon="-1.66238">
        <ele>48.9</ele>
        <time>2015-05-10T06:43:08Z</time>
      </trkpt>
      <trkpt lat="47.33459" lon="-1.66244">
        <ele>48.7</ele>
        <time>2015-05-10T06:43:09Z</time>
      </trkpt>
      <trkpt lat="47.33464" lon="-1.6625">
        <ele>48.8</ele>
        <time>2015-05-10T06:43:10Z</time>
      </trkpt>
      <trkpt lat="47.33468" lon="-1.66257">
        <ele>48.9</ele>
        <time>2015-05-10T06:43:11Z</time>
      </trkpt>
      <trkpt lat="47.33472" lon="-1.66263">
        <ele>48.9</ele>
        <time>2015-05-10T06:43:12Z</time>
      </trkpt>
      <trkpt lat="47.33476" lon="-1.66269">
        <ele>49</ele>
        <time>2015-05-10T06:43:13Z</time>
      </trkpt>
      <trkpt lat="47.3348" lon="-1.66275">
        <ele>49.1</ele>
        <time>2015-05-10T06:43:14Z</time>
      </trkpt>
      <trkpt lat="47.33483" lon="-1.66281">
        <ele>49.1</ele>
        <time>2015-05-10T06:43:15Z</time>
      </trkpt>
      <trkpt lat="47.33486" lon="-1.66286">
        <ele>49.2</ele>
        <time>2015-05-10T06:43:16Z</time>
      </trkpt>
      <trkpt lat="47.33489" lon="-1.66292">
        <ele>49.2</ele>
        <time>2015-05-10T06:43:17Z</time>
      </trkpt>
      <trkpt lat="47.33493" lon="-1.66298">
        <ele>49.3</ele>
        <time>2015-05-10T06:43:18Z</time>
      </trkpt>
      <trkpt lat="47.33497" lon="-1.66304">
        <ele>49.4</ele>
        <time>2015-05-10T06:43:19Z</time>
      </trkpt>
      <trkpt lat="47.335" lon="-1.66311">
        <ele>49.4</ele>
        <time>2015-05-10T06:43:20Z</time>
      </trkpt>
      <trkpt lat="47.33503" lon="-1.66317">
        <ele>49.5</ele>
        <time>2015-05-10T06:43:21Z</time>
      </trkpt>
      <trkpt lat="47.33506" lon="-1.66323">
        <ele>49.5</ele>
        <time>2015-05-10T06:43:22Z</time>
      </trkpt>
      <trkpt lat="47.3351" lon="-1.6633">
        <ele>49.5</ele>
        <time>2015-05-10T06:43:23Z</time>
      </trkpt>
      <trkpt lat="47.33512" lon="-1.66338">
        <ele>49.4</ele>
        <time>2015-05-10T06:43:24Z</time>
      </trkpt>
      <trkpt lat="47.33513" lon="-1.66346">
        <ele>49.2</ele>
        <time>2015-05-10T06:43:25Z</time>
      </trkpt>
      <trkpt lat="47.33513" lon="-1.66354">
        <ele>49</ele>
        <time>2015-05-10T06:43:26Z</time>
      </trkpt>
      <trkpt lat="47.33513" lon="-1.66363">
        <ele>48.7</ele>
        <time>2015-05-10T06:43:27Z</time>
      </trkpt>
      <trkpt lat="47.33511" lon="-1.66371">
        <ele>48.3</ele>
        <time>2015-05-10T06:43:28Z</time>
      </trkpt>
      <trkpt lat="47.33508" lon="-1.66379">
        <ele>47.8</ele>
        <time>2015-05-10T06:43:29Z</time>
      </trkpt>
      <trkpt lat="47.33505" lon="-1.66387">
        <ele>47.1</ele>
        <time>2015-05-10T06:43:30Z</time>
      </trkpt>
      <trkpt lat="47.33501" lon="-1.66395">
        <ele>46.5</ele>
        <time>2015-05-10T06:43:31Z</time>
      </trkpt>
      <trkpt lat="47.33498" lon="-1.66402">
        <ele>45.9</ele>
        <time>2015-05-10T06:43:32Z</time>
      </trkpt>
      <trkpt lat="47.33494" lon="-1.66409">
        <ele>45.3</ele>
        <time>2015-05-10T06:43:33Z</time>
      </trkpt>
      <trkpt lat="47.33491" lon="-1.66417">
        <ele>44.8</ele>
        <time>2015-05-10T06:43:34Z</time>
      </trkpt>
      <trkpt lat="47.33487" lon="-1.66424">
        <ele>44.2</ele>
        <time>2015-05-10T06:43:35Z</time>
      </trkpt>
      <trkpt lat="47.33484" lon="-1.66432">
        <ele>43.6</ele>
        <time>2015-05-10T06:43:36Z</time>
      </trkpt>
      <trkpt lat="47.3348" lon="-1.66439">
        <ele>43</ele>
        <time>2015-05-10T06:43:37Z</time>
      </trkpt>
      <trkpt lat="47.33477" lon="-1.66447">
        <ele>42.5</ele>
        <time>2015-05-10T06:43:38Z</time>
      </trkpt>
      <trkpt lat="47.33473" lon="-1.66455">
        <ele>41.8</ele>
        <time>2015-05-10T06:43:39Z</time>
      </trkpt>
      <trkpt lat="47.33469" lon="-1.66464">
        <ele>41.4</ele>
        <time>2015-05-10T06:43:40Z</time>
      </trkpt>
      <trkpt lat="47.33465" lon="-1.66473">
        <ele>41.1</ele>
        <time>2015-05-10T06:43:41Z</time>
      </trkpt>
      <trkpt lat="47.33461" lon="-1.66482">
        <ele>40.8</ele>
        <time>2015-05-10T06:43:42Z</time>
      </trkpt>
      <trkpt lat="47.33457" lon="-1.66493">
        <ele>40.6</ele>
        <time>2015-05-10T06:43:43Z</time>
      </trkpt>
      <trkpt lat="47.33452" lon="-1.66504">
        <ele>40.5</ele>
        <time>2015-05-10T06:43:44Z</time>
      </trkpt>
      <trkpt lat="47.33447" lon="-1.66515">
        <ele>40.4</ele>
        <time>2015-05-10T06:43:45Z</time>
      </trkpt>
      <trkpt lat="47.33442" lon="-1.66528">
        <ele>40.3</ele>
        <time>2015-05-10T06:43:46Z</time>
      </trkpt>
      <trkpt lat="47.33438" lon="-1.66542">
        <ele>40.3</ele>
        <time>2015-05-10T06:43:47Z</time>
      </trkpt>
      <trkpt lat="47.33435" lon="-1.66557">
        <ele>40.7</ele>
        <time>2015-05-10T06:43:48Z</time>
      </trkpt>
      <trkpt lat="47.33433" lon="-1.66572">
        <ele>41.1</ele>
        <time>2015-05-10T06:43:49Z</time>
      </trkpt>
      <trkpt lat="47.33432" lon="-1.66587">
        <ele>41.6</ele>
        <time>2015-05-10T06:43:50Z</time>
      </trkpt>
      <trkpt lat="47.3343" lon="-1.66601">
        <ele>42</ele>
        <time>2015-05-10T06:43:51Z</time>
      </trkpt>
      <trkpt lat="47.3343" lon="-1.66614">
        <ele>42.4</ele>
        <time>2015-05-10T06:43:52Z</time>
      </trkpt>
      <trkpt lat="47.3343" lon="-1.66626">
        <ele>42.8</ele>
        <time>2015-05-10T06:43:53Z</time>
      </trkpt>
      <trkpt lat="47.33429" lon="-1.66638">
        <ele>43.3</ele>
        <time>2015-05-10T06:43:54Z</time>
      </trkpt>
      <trkpt lat="47.33428" lon="-1.6665">
        <ele>43.7</ele>
        <time>2015-05-10T06:43:55Z</time>
      </trkpt>
      <trkpt lat="47.33427" lon="-1.6666">
        <ele>44.2</ele>
        <time>2015-05-10T06:43:56Z</time>
      </trkpt>
      <trkpt lat="47.33425" lon="-1.66669">
        <ele>44.6</ele>
        <time>2015-05-10T06:43:57Z</time>
      </trkpt>
      <trkpt lat="47.33424" lon="-1.66678">
        <ele>45</ele>
        <time>2015-05-10T06:43:58Z</time>
      </trkpt>
      <trkpt lat="47.33424" lon="-1.66687">
        <ele>45.3</ele>
        <time>2015-05-10T06:43:59Z</time>
      </trkpt>
      <trkpt lat="47.33423" lon="-1.66696">
        <ele>45.7</ele>
        <time>2015-05-10T06:44:00Z</time>
      </trkpt>
      <trkpt lat="47.33422" lon="-1.66705">
        <ele>46.1</ele>
        <time>2015-05-10T06:44:01Z</time>
      </trkpt>
      <trkpt lat="47.33421" lon="-1.66712">
        <ele>46.4</ele>
        <time>2015-05-10T06:44:02Z</time>
      </trkpt>
      <trkpt lat="47.3342" lon="-1.6672">
        <ele>46.8</ele>
        <time>2015-05-10T06:44:03Z</time>
      </trkpt>
      <trkpt lat="47.33419" lon="-1.66728">
        <ele>47.1</ele>
        <time>2015-05-10T06:44:04Z</time>
      </trkpt>
      <trkpt lat="47.33418" lon="-1.66735">
        <ele>47.4</ele>
        <time>2015-05-10T06:44:05Z</time>
      </trkpt>
      <trkpt lat="47.33418" lon="-1.66742">
        <ele>47.7</ele>
        <time>2015-05-10T06:44:06Z</time>
      </trkpt>
      <trkpt lat="47.33416" lon="-1.66749">
        <ele>48</ele>
        <time>2015-05-10T06:44:07Z</time>
      </trkpt>
      <trkpt lat="47.33415" lon="-1.66755">
        <ele>48.3</ele>
        <time>2015-05-10T06:44:08Z</time>
      </trkpt>
      <trkpt lat="47.33414" lon="-1.6676">
        <ele>48.5</ele>
        <time>2015-05-10T06:44:09Z</time>
      </trkpt>
      <trkpt lat="47.33414" lon="-1.66765">
        <ele>48.7</ele>
        <time>2015-05-10T06:44:10Z</time>
      </trkpt>
      <trkpt lat="47.33414" lon="-1.6677">
        <ele>48.9</ele>
        <time>2015-05-10T06:44:11Z</time>
      </trkpt>
      <trkpt lat="47.33413" lon="-1.66775">
        <ele>49</ele>
        <time>2015-05-10T06:44:12Z</time>
      </trkpt>
      <trkpt lat="47.33413" lon="-1.6678">
        <ele>49.2</ele>
        <time>2015-05-10T06:44:13Z</time>
      </trkpt>
      <trkpt lat="47.33413" lon="-1.66785">
        <ele>49.4</ele>
        <time>2015-05-10T06:44:14Z</time>
      </trkpt>
      <trkpt lat="47.33412" lon="-1.6679">
        <ele>49.6</ele>
        <time>2015-05-10T06:44:15Z</time>
      </trkpt>
      <trkpt lat="47.33412" lon="-1.66795">
        <ele>49.8</ele>
        <time>2015-05-10T06:44:16Z</time>
      </trkpt>
      <trkpt lat="47.33412" lon="-1.668">
        <ele>49.9</ele>
        <time>2015-05-10T06:44:17Z</time>
      </trkpt>
      <trkpt lat="47.33411" lon="-1.66804">
        <ele>50</ele>
        <time>2015-05-10T06:44:18Z</time>
      </trkpt>
      <trkpt lat="47.33411" lon="-1.66809">
        <ele>50.1</ele>
        <time>2015-05-10T06:44:19Z</time>
      </trkpt>
      <trkpt lat="47.33411" lon="-1.66814">
        <ele>50.2</ele>
        <time>2015-05-10T06:44:20Z</time>
      </trkpt>
      <trkpt lat="47.33411" lon="-1.66819">
        <ele>50.4</ele>
        <time>2015-05-10T06:44:21Z</time>
      </trkpt>
      <trkpt lat="47.33411" lon="-1.66824">
        <ele>50.5</ele>
        <time>2015-05-10T06:44:22Z</time>
      </trkpt>
      <trkpt lat="47.33411" lon="-1.66829">
        <ele>50.6</ele>
        <time>2015-05-10T06:44:23Z</time>
      </trkpt>
      <trkpt lat="47.33411" lon="-1.66834">
        <ele>50.7</ele>
        <time>2015-05-10T06:44:24Z</time>
      </trkpt>
      <trkpt lat="47.33411" lon="-1.66838">
        <ele>50.8</ele>
        <time>2015-05-10T06:44:25Z</time>
      </trkpt>
      <trkpt lat="47.33411" lon="-1.66843">
        <ele>50.9</ele>
        <time>2015-05-10T06:44:26Z</time>
      </trkpt>
      <trkpt lat="47.33411" lon="-1.66847">
        <ele>51</ele>
        <time>2015-05-10T06:44:27Z</time>
      </trkpt>
      <trkpt lat="47.33411" lon="-1.66855">
        <ele>51.2</ele>
        <time>2015-05-10T06:44:29Z</time>
      </trkpt>
      <trkpt lat="47.33411" lon="-1.66859">
        <ele>51.3</ele>
        <time>2015-05-10T06:44:30Z</time>
      </trkpt>
      <trkpt lat="47.33411" lon="-1.66864">
        <ele>51.5</ele>
        <time>2015-05-10T06:44:31Z</time>
      </trkpt>
      <trkpt lat="47.33411" lon="-1.66869">
        <ele>51.6</ele>
        <time>2015-05-10T06:44:32Z</time>
      </trkpt>
      <trkpt lat="47.3341" lon="-1.66874">
        <ele>51.7</ele>
        <time>2015-05-10T06:44:33Z</time>
      </trkpt>
      <trkpt lat="47.3341" lon="-1.66878">
        <ele>51.8</ele>
        <time>2015-05-10T06:44:34Z</time>
      </trkpt>
      <trkpt lat="47.33409" lon="-1.66882">
        <ele>51.9</ele>
        <time>2015-05-10T06:44:35Z</time>
      </trkpt>
      <trkpt lat="47.33407" lon="-1.66885">
        <ele>52</ele>
        <time>2015-05-10T06:44:36Z</time>
      </trkpt>
      <trkpt lat="47.33404" lon="-1.66887">
        <ele>52.2</ele>
        <time>2015-05-10T06:44:37Z</time>
      </trkpt>
      <trkpt lat="47.33399" lon="-1.6689">
        <ele>52.4</ele>
        <time>2015-05-10T06:44:39Z</time>
      </trkpt>
      <trkpt lat="47.33396" lon="-1.66889">
        <ele>52.5</ele>
        <time>2015-05-10T06:44:40Z</time>
      </trkpt>
      <trkpt lat="47.33393" lon="-1.66888">
        <ele>52.6</ele>
        <time>2015-05-10T06:44:41Z</time>
      </trkpt>
      <trkpt lat="47.3339" lon="-1.66887">
        <ele>52.7</ele>
        <time>2015-05-10T06:44:42Z</time>
      </trkpt>
      <trkpt lat="47.33387" lon="-1.66886">
        <ele>52.8</ele>
        <time>2015-05-10T06:44:43Z</time>
      </trkpt>
      <trkpt lat="47.33382" lon="-1.66886">
        <ele>53</ele>
        <time>2015-05-10T06:44:45Z</time>
      </trkpt>
      <trkpt lat="47.33378" lon="-1.66885">
        <ele>53.1</ele>
        <time>2015-05-10T06:44:46Z</time>
      </trkpt>
      <trkpt lat="47.33376" lon="-1.66884">
        <ele>53.2</ele>
        <time>2015-05-10T06:44:47Z</time>
      </trkpt>
      <trkpt lat="47.33371" lon="-1.66884">
        <ele>53.3</ele>
        <time>2015-05-10T06:44:49Z</time>
      </trkpt>
      <trkpt lat="47.33366" lon="-1.66882">
        <ele>53.3</ele>
        <time>2015-05-10T06:44:51Z</time>
      </trkpt>
      <trkpt lat="47.33363" lon="-1.66881">
        <ele>53.3</ele>
        <time>2015-05-10T06:44:52Z</time>
      </trkpt>
      <trkpt lat="47.3336" lon="-1.66881">
        <ele>53.3</ele>
        <time>2015-05-10T06:44:53Z</time>
      </trkpt>
      <trkpt lat="47.33357" lon="-1.6688">
        <ele>53.3</ele>
        <time>2015-05-10T06:44:54Z</time>
      </trkpt>
      <trkpt lat="47.33354" lon="-1.66879">
        <ele>53.4</ele>
        <time>2015-05-10T06:44:55Z</time>
      </trkpt>
      <trkpt lat="47.3335" lon="-1.66879">
        <ele>53.4</ele>
        <time>2015-05-10T06:44:56Z</time>
      </trkpt>
      <trkpt lat="47.33345" lon="-1.66878">
        <ele>53.4</ele>
        <time>2015-05-10T06:44:58Z</time>
      </trkpt>
      <trkpt lat="47.33339" lon="-1.66877">
        <ele>53.5</ele>
        <time>2015-05-10T06:45:00Z</time>
      </trkpt>
      <trkpt lat="47.33333" lon="-1.66876">
        <ele>53.5</ele>
        <time>2015-05-10T06:45:02Z</time>
      </trkpt>
      <trkpt lat="47.33331" lon="-1.66875">
        <ele>53.5</ele>
        <time>2015-05-10T06:45:03Z</time>
      </trkpt>
      <trkpt lat="47.33326" lon="-1.66874">
        <ele>53.6</ele>
        <time>2015-05-10T06:45:05Z</time>
      </trkpt>
      <trkpt lat="47.33323" lon="-1.66873">
        <ele>53.6</ele>
        <time>2015-05-10T06:45:06Z</time>
      </trkpt>
      <trkpt lat="47.33317" lon="-1.66873">
        <ele>53.7</ele>
        <time>2015-05-10T06:45:08Z</time>
      </trkpt>
      <trkpt lat="47.33313" lon="-1.66874">
        <ele>53.7</ele>
        <time>2015-05-10T06:45:09Z</time>
      </trkpt>
      <trkpt lat="47.33309" lon="-1.66874">
        <ele>53.8</ele>
        <time>2015-05-10T06:45:10Z</time>
      </trkpt>
      <trkpt lat="47.33305" lon="-1.66872">
        <ele>53.8</ele>
        <time>2015-05-10T06:45:12Z</time>
      </trkpt>
      <trkpt lat="47.33299" lon="-1.66871">
        <ele>53.9</ele>
        <time>2015-05-10T06:45:13Z</time>
      </trkpt>
      <trkpt lat="47.33295" lon="-1.6687">
        <ele>54</ele>
        <time>2015-05-10T06:45:14Z</time>
      </trkpt>
      <trkpt lat="47.33289" lon="-1.66868">
        <ele>54</ele>
        <time>2015-05-10T06:45:16Z</time>
      </trkpt>
      <trkpt lat="47.33285" lon="-1.66867">
        <ele>54.1</ele>
        <time>2015-05-10T06:45:17Z</time>
      </trkpt>
      <trkpt lat="47.33282" lon="-1.66865">
        <ele>54.1</ele>
        <time>2015-05-10T06:45:18Z</time>
      </trkpt>
      <trkpt lat="47.33279" lon="-1.66863">
        <ele>54.1</ele>
        <time>2015-05-10T06:45:19Z</time>
      </trkpt>
      <trkpt lat="47.33275" lon="-1.66861">
        <ele>54.2</ele>
        <time>2015-05-10T06:45:20Z</time>
      </trkpt>
      <trkpt lat="47.33272" lon="-1.6686">
        <ele>54.2</ele>
        <time>2015-05-10T06:45:21Z</time>
      </trkpt>
      <trkpt lat="47.33268" lon="-1.66859">
        <ele>54.3</ele>
        <time>2015-05-10T06:45:22Z</time>
      </trkpt>
      <trkpt lat="47.33265" lon="-1.66858">
        <ele>54.3</ele>
        <time>2015-05-10T06:45:23Z</time>
      </trkpt>
      <trkpt lat="47.33261" lon="-1.66857">
        <ele>54.4</ele>
        <time>2015-05-10T06:45:24Z</time>
      </trkpt>
      <trkpt lat="47.33258" lon="-1.66856">
        <ele>54.4</ele>
        <time>2015-05-10T06:45:25Z</time>
      </trkpt>
      <trkpt lat="47.33255" lon="-1.66855">
        <ele>54.4</ele>
        <time>2015-05-10T06:45:26Z</time>
      </trkpt>
      <trkpt lat="47.33251" lon="-1.66854">
        <ele>54.5</ele>
        <time>2015-05-10T06:45:27Z</time>
      </trkpt>
      <trkpt lat="47.33247" lon="-1.66853">
        <ele>54.5</ele>
        <time>2015-05-10T06:45:28Z</time>
      </trkpt>
      <trkpt lat="47.33244" lon="-1.66852">
        <ele>54.6</ele>
        <time>2015-05-10T06:45:29Z</time>
      </trkpt>
      <trkpt lat="47.3324" lon="-1.66852">
        <ele>54.6</ele>
        <time>2015-05-10T06:45:30Z</time>
      </trkpt>
      <trkpt lat="47.33236" lon="-1.66851">
        <ele>54.7</ele>
        <time>2015-05-10T06:45:31Z</time>
      </trkpt>
      <trkpt lat="47.33232" lon="-1.6685">
        <ele>54.7</ele>
        <time>2015-05-10T06:45:32Z</time>
      </trkpt>
      <trkpt lat="47.33228" lon="-1.6685">
        <ele>54.8</ele>
        <time>2015-05-10T06:45:33Z</time>
      </trkpt>
      <trkpt lat="47.33224" lon="-1.6685">
        <ele>54.8</ele>
        <time>2015-05-10T06:45:34Z</time>
      </trkpt>
      <trkpt lat="47.3322" lon="-1.66849">
        <ele>54.9</ele>
        <time>2015-05-10T06:45:35Z</time>
      </trkpt>
      <trkpt lat="47.33216" lon="-1.66848">
        <ele>54.9</ele>
        <time>2015-05-10T06:45:36Z</time>
      </trkpt>
      <trkpt lat="47.33212" lon="-1.66847">
        <ele>55</ele>
        <time>2015-05-10T06:45:37Z</time>
      </trkpt>
      <trkpt lat="47.33207" lon="-1.66846">
        <ele>55</ele>
        <time>2015-05-10T06:45:38Z</time>
      </trkpt>
      <trkpt lat="47.33203" lon="-1.66845">
        <ele>54.9</ele>
        <time>2015-05-10T06:45:39Z</time>
      </trkpt>
      <trkpt lat="47.33198" lon="-1.66844">
        <ele>54.9</ele>
        <time>2015-05-10T06:45:40Z</time>
      </trkpt>
      <trkpt lat="47.33193" lon="-1.66844">
        <ele>54.8</ele>
        <time>2015-05-10T06:45:41Z</time>
      </trkpt>
      <trkpt lat="47.33188" lon="-1.6684">
        <ele>54.8</ele>
        <time>2015-05-10T06:45:42Z</time>
      </trkpt>
      <trkpt lat="47.33184" lon="-1.66839">
        <ele>54.7</ele>
        <time>2015-05-10T06:45:43Z</time>
      </trkpt>
      <trkpt lat="47.33179" lon="-1.66837">
        <ele>54.6</ele>
        <time>2015-05-10T06:45:44Z</time>
      </trkpt>
      <trkpt lat="47.33174" lon="-1.66835">
        <ele>54.6</ele>
        <time>2015-05-10T06:45:45Z</time>
      </trkpt>
      <trkpt lat="47.3317" lon="-1.66834">
        <ele>54.5</ele>
        <time>2015-05-10T06:45:46Z</time>
      </trkpt>
      <trkpt lat="47.33165" lon="-1.66834">
        <ele>54.5</ele>
        <time>2015-05-10T06:45:47Z</time>
      </trkpt>
      <trkpt lat="47.3316" lon="-1.66833">
        <ele>54.4</ele>
        <time>2015-05-10T06:45:48Z</time>
      </trkpt>
      <trkpt lat="47.33156" lon="-1.66832">
        <ele>54.4</ele>
        <time>2015-05-10T06:45:49Z</time>
      </trkpt>
      <trkpt lat="47.33152" lon="-1.66831">
        <ele>54.3</ele>
        <time>2015-05-10T06:45:50Z</time>
      </trkpt>
      <trkpt lat="47.33148" lon="-1.66831">
        <ele>54.3</ele>
        <time>2015-05-10T06:45:51Z</time>
      </trkpt>
      <trkpt lat="47.33145" lon="-1.6683">
        <ele>54.2</ele>
        <time>2015-05-10T06:45:52Z</time>
      </trkpt>
      <trkpt lat="47.33142" lon="-1.66828">
        <ele>54.2</ele>
        <time>2015-05-10T06:45:53Z</time>
      </trkpt>
      <trkpt lat="47.33139" lon="-1.66826">
        <ele>54.2</ele>
        <time>2015-05-10T06:45:54Z</time>
      </trkpt>
      <trkpt lat="47.33137" lon="-1.66821">
        <ele>54.1</ele>
        <time>2015-05-10T06:45:55Z</time>
      </trkpt>
      <trkpt lat="47.33136" lon="-1.66816">
        <ele>54.1</ele>
        <time>2015-05-10T06:45:56Z</time>
      </trkpt>
      <trkpt lat="47.33137" lon="-1.66811">
        <ele>54.1</ele>
        <time>2015-05-10T06:45:57Z</time>
      </trkpt>
      <trkpt lat="47.33137" lon="-1.66806">
        <ele>54.1</ele>
        <time>2015-05-10T06:45:58Z</time>
      </trkpt>
      <trkpt lat="47.33138" lon="-1.66801">
        <ele>54.2</ele>
        <time>2015-05-10T06:45:59Z</time>
      </trkpt>
      <trkpt lat="47.33141" lon="-1.66794">
        <ele>54.2</ele>
        <time>2015-05-10T06:46:00Z</time>
      </trkpt>
      <trkpt lat="47.33143" lon="-1.66787">
        <ele>54.1</ele>
        <time>2015-05-10T06:46:01Z</time>
      </trkpt>
      <trkpt lat="47.33145" lon="-1.6678">
        <ele>54</ele>
        <time>2015-05-10T06:46:02Z</time>
      </trkpt>
      <trkpt lat="47.33147" lon="-1.66773">
        <ele>53.9</ele>
        <time>2015-05-10T06:46:03Z</time>
      </trkpt>
      <trkpt lat="47.33149" lon="-1.66767">
        <ele>53.8</ele>
        <time>2015-05-10T06:46:04Z</time>
      </trkpt>
      <trkpt lat="47.3315" lon="-1.6676">
        <ele>53.7</ele>
        <time>2015-05-10T06:46:05Z</time>
      </trkpt>
      <trkpt lat="47.33151" lon="-1.66753">
        <ele>53.5</ele>
        <time>2015-05-10T06:46:06Z</time>
      </trkpt>
      <trkpt lat="47.33152" lon="-1.66745">
        <ele>53.4</ele>
        <time>2015-05-10T06:46:07Z</time>
      </trkpt>
      <trkpt lat="47.33152" lon="-1.66736">
        <ele>53.2</ele>
        <time>2015-05-10T06:46:08Z</time>
      </trkpt>
      <trkpt lat="47.33152" lon="-1.66728">
        <ele>53</ele>
        <time>2015-05-10T06:46:09Z</time>
      </trkpt>
      <trkpt lat="47.33153" lon="-1.6672">
        <ele>52.9</ele>
        <time>2015-05-10T06:46:10Z</time>
      </trkpt>
      <trkpt lat="47.33154" lon="-1.66712">
        <ele>52.8</ele>
        <time>2015-05-10T06:46:11Z</time>
      </trkpt>
      <trkpt lat="47.33153" lon="-1.66704">
        <ele>52.5</ele>
        <time>2015-05-10T06:46:12Z</time>
      </trkpt>
      <trkpt lat="47.33153" lon="-1.66696">
        <ele>52.3</ele>
        <time>2015-05-10T06:46:13Z</time>
      </trkpt>
      <trkpt lat="47.33152" lon="-1.66688">
        <ele>52</ele>
        <time>2015-05-10T06:46:14Z</time>
      </trkpt>
      <trkpt lat="47.33151" lon="-1.66679">
        <ele>51.7</ele>
        <time>2015-05-10T06:46:15Z</time>
      </trkpt>
      <trkpt lat="47.3315" lon="-1.6667">
        <ele>51.3</ele>
        <time>2015-05-10T06:46:16Z</time>
      </trkpt>
      <trkpt lat="47.33149" lon="-1.66661">
        <ele>51</ele>
        <time>2015-05-10T06:46:17Z</time>
      </trkpt>
      <trkpt lat="47.33147" lon="-1.66653">
        <ele>50.7</ele>
        <time>2015-05-10T06:46:18Z</time>
      </trkpt>
      <trkpt lat="47.33146" lon="-1.66645">
        <ele>50.4</ele>
        <time>2015-05-10T06:46:19Z</time>
      </trkpt>
      <trkpt lat="47.33143" lon="-1.66637">
        <ele>50.1</ele>
        <time>2015-05-10T06:46:20Z</time>
      </trkpt>
      <trkpt lat="47.33142" lon="-1.66629">
        <ele>49.7</ele>
        <time>2015-05-10T06:46:21Z</time>
      </trkpt>
      <trkpt lat="47.33139" lon="-1.66622">
        <ele>49.4</ele>
        <time>2015-05-10T06:46:22Z</time>
      </trkpt>
      <trkpt lat="47.33137" lon="-1.66614">
        <ele>49.2</ele>
        <time>2015-05-10T06:46:23Z</time>
      </trkpt>
      <trkpt lat="47.33135" lon="-1.66606">
        <ele>48.9</ele>
        <time>2015-05-10T06:46:24Z</time>
      </trkpt>
      <trkpt lat="47.33133" lon="-1.66598">
        <ele>48.6</ele>
        <time>2015-05-10T06:46:25Z</time>
      </trkpt>
      <trkpt lat="47.33131" lon="-1.6659">
        <ele>48.3</ele>
        <time>2015-05-10T06:46:26Z</time>
      </trkpt>
      <trkpt lat="47.33128" lon="-1.66581">
        <ele>48</ele>
        <time>2015-05-10T06:46:27Z</time>
      </trkpt>
      <trkpt lat="47.33125" lon="-1.66573">
        <ele>47.8</ele>
        <time>2015-05-10T06:46:28Z</time>
      </trkpt>
      <trkpt lat="47.33122" lon="-1.66566">
        <ele>47.5</ele>
        <time>2015-05-10T06:46:29Z</time>
      </trkpt>
      <trkpt lat="47.3312" lon="-1.66558">
        <ele>47.2</ele>
        <time>2015-05-10T06:46:30Z</time>
      </trkpt>
      <trkpt lat="47.33118" lon="-1.66548">
        <ele>46.9</ele>
        <time>2015-05-10T06:46:31Z</time>
      </trkpt>
      <trkpt lat="47.33116" lon="-1.66539">
        <ele>46.7</ele>
        <time>2015-05-10T06:46:32Z</time>
      </trkpt>
      <trkpt lat="47.33113" lon="-1.66529">
        <ele>46.6</ele>
        <time>2015-05-10T06:46:33Z</time>
      </trkpt>
      <trkpt lat="47.33111" lon="-1.6652">
        <ele>46.5</ele>
        <time>2015-05-10T06:46:34Z</time>
      </trkpt>
      <trkpt lat="47.33108" lon="-1.66511">
        <ele>46.4</ele>
        <time>2015-05-10T06:46:35Z</time>
      </trkpt>
      <trkpt lat="47.33105" lon="-1.66503">
        <ele>46.3</ele>
        <time>2015-05-10T06:46:36Z</time>
      </trkpt>
      <trkpt lat="47.33103" lon="-1.66494">
        <ele>46.2</ele>
        <time>2015-05-10T06:46:37Z</time>
      </trkpt>
      <trkpt lat="47.33101" lon="-1.66487">
        <ele>46.1</ele>
        <time>2015-05-10T06:46:38Z</time>
      </trkpt>
      <trkpt lat="47.33098" lon="-1.66478">
        <ele>46</ele>
        <time>2015-05-10T06:46:39Z</time>
      </trkpt>
      <trkpt lat="47.33096" lon="-1.6647">
        <ele>46</ele>
        <time>2015-05-10T06:46:40Z</time>
      </trkpt>
      <trkpt lat="47.33095" lon="-1.66462">
        <ele>45.9</ele>
        <time>2015-05-10T06:46:41Z</time>
      </trkpt>
      <trkpt lat="47.33092" lon="-1.66453">
        <ele>45.7</ele>
        <time>2015-05-10T06:46:42Z</time>
      </trkpt>
      <trkpt lat="47.33091" lon="-1.66442">
        <ele>45.5</ele>
        <time>2015-05-10T06:46:43Z</time>
      </trkpt>
      <trkpt lat="47.33089" lon="-1.66431">
        <ele>45.3</ele>
        <time>2015-05-10T06:46:44Z</time>
      </trkpt>
      <trkpt lat="47.33086" lon="-1.66421">
        <ele>45.1</ele>
        <time>2015-05-10T06:46:45Z</time>
      </trkpt>
      <trkpt lat="47.33084" lon="-1.66412">
        <ele>45</ele>
        <time>2015-05-10T06:46:46Z</time>
      </trkpt>
      <trkpt lat="47.33082" lon="-1.66403">
        <ele>44.8</ele>
        <time>2015-05-10T06:46:47Z</time>
      </trkpt>
      <trkpt lat="47.33078" lon="-1.66394">
        <ele>44.6</ele>
        <time>2015-05-10T06:46:48Z</time>
      </trkpt>
      <trkpt lat="47.33076" lon="-1.66386">
        <ele>44.5</ele>
        <time>2015-05-10T06:46:49Z</time>
      </trkpt>
      <trkpt lat="47.33074" lon="-1.66376">
        <ele>44.4</ele>
        <time>2015-05-10T06:46:50Z</time>
      </trkpt>
      <trkpt lat="47.33073" lon="-1.66367">
        <ele>44.1</ele>
        <time>2015-05-10T06:46:51Z</time>
      </trkpt>
      <trkpt lat="47.33072" lon="-1.66359">
        <ele>43.9</ele>
        <time>2015-05-10T06:46:52Z</time>
      </trkpt>
      <trkpt lat="47.33071" lon="-1.66352">
        <ele>43.6</ele>
        <time>2015-05-10T06:46:53Z</time>
      </trkpt>
      <trkpt lat="47.33069" lon="-1.66344">
        <ele>43.3</ele>
        <time>2015-05-10T06:46:54Z</time>
      </trkpt>
      <trkpt lat="47.33067" lon="-1.66336">
        <ele>43</ele>
        <time>2015-05-10T06:46:55Z</time>
      </trkpt>
      <trkpt lat="47.33064" lon="-1.66328">
        <ele>42.7</ele>
        <time>2015-05-10T06:46:56Z</time>
      </trkpt>
      <trkpt lat="47.33061" lon="-1.66319">
        <ele>42.4</ele>
        <time>2015-05-10T06:46:57Z</time>
      </trkpt>
      <trkpt lat="47.33058" lon="-1.6631">
        <ele>42</ele>
        <time>2015-05-10T06:46:58Z</time>
      </trkpt>
      <trkpt lat="47.33056" lon="-1.66301">
        <ele>41.6</ele>
        <time>2015-05-10T06:46:59Z</time>
      </trkpt>
      <trkpt lat="47.33054" lon="-1.66292">
        <ele>41.3</ele>
        <time>2015-05-10T06:47:00Z</time>
      </trkpt>
      <trkpt lat="47.33053" lon="-1.66283">
        <ele>41.1</ele>
        <time>2015-05-10T06:47:01Z</time>
      </trkpt>
      <trkpt lat="47.33052" lon="-1.66275">
        <ele>41</ele>
        <time>2015-05-10T06:47:02Z</time>
      </trkpt>
      <trkpt lat="47.3305" lon="-1.66265">
        <ele>40.8</ele>
        <time>2015-05-10T06:47:03Z</time>
      </trkpt>
      <trkpt lat="47.33049" lon="-1.66256">
        <ele>40.7</ele>
        <time>2015-05-10T06:47:04Z</time>
      </trkpt>
      <trkpt lat="47.33049" lon="-1.66247">
        <ele>40.5</ele>
        <time>2015-05-10T06:47:05Z</time>
      </trkpt>
      <trkpt lat="47.33048" lon="-1.66238">
        <ele>40.4</ele>
        <time>2015-05-10T06:47:06Z</time>
      </trkpt>
      <trkpt lat="47.33048" lon="-1.66229">
        <ele>40.3</ele>
        <time>2015-05-10T06:47:07Z</time>
      </trkpt>
      <trkpt lat="47.33047" lon="-1.66219">
        <ele>40.1</ele>
        <time>2015-05-10T06:47:08Z</time>
      </trkpt>
      <trkpt lat="47.33046" lon="-1.6621">
        <ele>40</ele>
        <time>2015-05-10T06:47:09Z</time>
      </trkpt>
      <trkpt lat="47.33046" lon="-1.66201">
        <ele>39.8</ele>
        <time>2015-05-10T06:47:10Z</time>
      </trkpt>
      <trkpt lat="47.33045" lon="-1.66192">
        <ele>39.6</ele>
        <time>2015-05-10T06:47:11Z</time>
      </trkpt>
      <trkpt lat="47.33044" lon="-1.66182">
        <ele>39.4</ele>
        <time>2015-05-10T06:47:12Z</time>
      </trkpt>
      <trkpt lat="47.33044" lon="-1.66171">
        <ele>39.1</ele>
        <time>2015-05-10T06:47:13Z</time>
      </trkpt>
      <trkpt lat="47.33041" lon="-1.66161">
        <ele>38.9</ele>
        <time>2015-05-10T06:47:14Z</time>
      </trkpt>
      <trkpt lat="47.3304" lon="-1.66151">
        <ele>38.6</ele>
        <time>2015-05-10T06:47:15Z</time>
      </trkpt>
      <trkpt lat="47.33038" lon="-1.66141">
        <ele>38.3</ele>
        <time>2015-05-10T06:47:16Z</time>
      </trkpt>
      <trkpt lat="47.33036" lon="-1.66131">
        <ele>38.1</ele>
        <time>2015-05-10T06:47:17Z</time>
      </trkpt>
      <trkpt lat="47.33035" lon="-1.66121">
        <ele>37.9</ele>
        <time>2015-05-10T06:47:18Z</time>
      </trkpt>
      <trkpt lat="47.33033" lon="-1.66112">
        <ele>37.9</ele>
        <time>2015-05-10T06:47:19Z</time>
      </trkpt>
      <trkpt lat="47.33031" lon="-1.66102">
        <ele>37.8</ele>
        <time>2015-05-10T06:47:20Z</time>
      </trkpt>
      <trkpt lat="47.3303" lon="-1.66093">
        <ele>37.8</ele>
        <time>2015-05-10T06:47:21Z</time>
      </trkpt>
      <trkpt lat="47.33028" lon="-1.66085">
        <ele>37.8</ele>
        <time>2015-05-10T06:47:22Z</time>
      </trkpt>
      <trkpt lat="47.33027" lon="-1.66077">
        <ele>37.7</ele>
        <time>2015-05-10T06:47:23Z</time>
      </trkpt>
      <trkpt lat="47.33025" lon="-1.6607">
        <ele>37.7</ele>
        <time>2015-05-10T06:47:24Z</time>
      </trkpt>
      <trkpt lat="47.33023" lon="-1.66062">
        <ele>37.6</ele>
        <time>2015-05-10T06:47:25Z</time>
      </trkpt>
      <trkpt lat="47.33022" lon="-1.66055">
        <ele>37.6</ele>
        <time>2015-05-10T06:47:26Z</time>
      </trkpt>
      <trkpt lat="47.33021" lon="-1.66048">
        <ele>37.5</ele>
        <time>2015-05-10T06:47:27Z</time>
      </trkpt>
      <trkpt lat="47.33019" lon="-1.6604">
        <ele>37.5</ele>
        <time>2015-05-10T06:47:28Z</time>
      </trkpt>
      <trkpt lat="47.33018" lon="-1.66034">
        <ele>37.7</ele>
        <time>2015-05-10T06:47:29Z</time>
      </trkpt>
      <trkpt lat="47.33018" lon="-1.66027">
        <ele>38</ele>
        <time>2015-05-10T06:47:30Z</time>
      </trkpt>
      <trkpt lat="47.33017" lon="-1.6602">
        <ele>38.2</ele>
        <time>2015-05-10T06:47:31Z</time>
      </trkpt>
      <trkpt lat="47.33016" lon="-1.66014">
        <ele>38.4</ele>
        <time>2015-05-10T06:47:32Z</time>
      </trkpt>
      <trkpt lat="47.33015" lon="-1.66008">
        <ele>38.6</ele>
        <time>2015-05-10T06:47:33Z</time>
      </trkpt>
      <trkpt lat="47.33015" lon="-1.66002">
        <ele>38.8</ele>
        <time>2015-05-10T06:47:34Z</time>
      </trkpt>
      <trkpt lat="47.33015" lon="-1.65996">
        <ele>39</ele>
        <time>2015-05-10T06:47:35Z</time>
      </trkpt>
      <trkpt lat="47.33014" lon="-1.65991">
        <ele>39.2</ele>
        <time>2015-05-10T06:47:36Z</time>
      </trkpt>
      <trkpt lat="47.33013" lon="-1.65985">
        <ele>39.3</ele>
        <time>2015-05-10T06:47:37Z</time>
      </trkpt>
      <trkpt lat="47.33012" lon="-1.6598">
        <ele>39.5</ele>
        <time>2015-05-10T06:47:38Z</time>
      </trkpt>
      <trkpt lat="47.33011" lon="-1.65975">
        <ele>39.7</ele>
        <time>2015-05-10T06:47:39Z</time>
      </trkpt>
      <trkpt lat="47.33011" lon="-1.65971">
        <ele>39.8</ele>
        <time>2015-05-10T06:47:40Z</time>
      </trkpt>
      <trkpt lat="47.3301" lon="-1.65967">
        <ele>39.9</ele>
        <time>2015-05-10T06:47:41Z</time>
      </trkpt>
      <trkpt lat="47.33008" lon="-1.65963">
        <ele>40</ele>
        <time>2015-05-10T06:47:42Z</time>
      </trkpt>
      <trkpt lat="47.33008" lon="-1.65954">
        <ele>40.4</ele>
        <time>2015-05-10T06:47:44Z</time>
      </trkpt>
      <trkpt lat="47.33008" lon="-1.6595">
        <ele>40.7</ele>
        <time>2015-05-10T06:47:45Z</time>
      </trkpt>
      <trkpt lat="47.33006" lon="-1.65945">
        <ele>40.9</ele>
        <time>2015-05-10T06:47:46Z</time>
      </trkpt>
      <trkpt lat="47.33006" lon="-1.65939">
        <ele>41.2</ele>
        <time>2015-05-10T06:47:47Z</time>
      </trkpt>
      <trkpt lat="47.33005" lon="-1.65935">
        <ele>41.5</ele>
        <time>2015-05-10T06:47:48Z</time>
      </trkpt>
      <trkpt lat="47.33004" lon="-1.6593">
        <ele>41.8</ele>
        <time>2015-05-10T06:47:49Z</time>
      </trkpt>
      <trkpt lat="47.33004" lon="-1.65925">
        <ele>42</ele>
        <time>2015-05-10T06:47:50Z</time>
      </trkpt>
      <trkpt lat="47.33003" lon="-1.6592">
        <ele>42.3</ele>
        <time>2015-05-10T06:47:51Z</time>
      </trkpt>
      <trkpt lat="47.33002" lon="-1.65915">
        <ele>42.6</ele>
        <time>2015-05-10T06:47:52Z</time>
      </trkpt>
      <trkpt lat="47.33002" lon="-1.6591">
        <ele>42.9</ele>
        <time>2015-05-10T06:47:53Z</time>
      </trkpt>
      <trkpt lat="47.33001" lon="-1.65906">
        <ele>43.1</ele>
        <time>2015-05-10T06:47:54Z</time>
      </trkpt>
      <trkpt lat="47.33" lon="-1.65902">
        <ele>43.4</ele>
        <time>2015-05-10T06:47:55Z</time>
      </trkpt>
      <trkpt lat="47.33" lon="-1.65898">
        <ele>43.6</ele>
        <time>2015-05-10T06:47:56Z</time>
      </trkpt>
      <trkpt lat="47.32999" lon="-1.65893">
        <ele>43.9</ele>
        <time>2015-05-10T06:47:57Z</time>
      </trkpt>
      <trkpt lat="47.32998" lon="-1.65889">
        <ele>44.2</ele>
        <time>2015-05-10T06:47:58Z</time>
      </trkpt>
      <trkpt lat="47.32998" lon="-1.65884">
        <ele>44.5</ele>
        <time>2015-05-10T06:47:59Z</time>
      </trkpt>
      <trkpt lat="47.32998" lon="-1.65879">
        <ele>44.8</ele>
        <time>2015-05-10T06:48:00Z</time>
      </trkpt>
      <trkpt lat="47.32997" lon="-1.65874">
        <ele>45.1</ele>
        <time>2015-05-10T06:48:01Z</time>
      </trkpt>
      <trkpt lat="47.32996" lon="-1.65869">
        <ele>45.2</ele>
        <time>2015-05-10T06:48:02Z</time>
      </trkpt>
      <trkpt lat="47.32996" lon="-1.65864">
        <ele>45.3</ele>
        <time>2015-05-10T06:48:03Z</time>
      </trkpt>
      <trkpt lat="47.32996" lon="-1.65858">
        <ele>45.4</ele>
        <time>2015-05-10T06:48:04Z</time>
      </trkpt>
      <trkpt lat="47.32995" lon="-1.65853">
        <ele>45.5</ele>
        <time>2015-05-10T06:48:05Z</time>
      </trkpt>
      <trkpt lat="47.32995" lon="-1.65849">
        <ele>45.5</ele>
        <time>2015-05-10T06:48:06Z</time>
      </trkpt>
      <trkpt lat="47.32994" lon="-1.65843">
        <ele>45.6</ele>
        <time>2015-05-10T06:48:07Z</time>
      </trkpt>
      <trkpt lat="47.32994" lon="-1.65838">
        <ele>45.7</ele>
        <time>2015-05-10T06:48:08Z</time>
      </trkpt>
      <trkpt lat="47.32993" lon="-1.65833">
        <ele>45.8</ele>
        <time>2015-05-10T06:48:09Z</time>
      </trkpt>
      <trkpt lat="47.32993" lon="-1.65828">
        <ele>45.9</ele>
        <time>2015-05-10T06:48:10Z</time>
      </trkpt>
      <trkpt lat="47.32992" lon="-1.65822">
        <ele>46</ele>
        <time>2015-05-10T06:48:11Z</time>
      </trkpt>
      <trkpt lat="47.32992" lon="-1.65818">
        <ele>46</ele>
        <time>2015-05-10T06:48:12Z</time>
      </trkpt>
      <trkpt lat="47.32992" lon="-1.65813">
        <ele>46.1</ele>
        <time>2015-05-10T06:48:13Z</time>
      </trkpt>
      <trkpt lat="47.32991" lon="-1.65808">
        <ele>46.2</ele>
        <time>2015-05-10T06:48:14Z</time>
      </trkpt>
      <trkpt lat="47.32991" lon="-1.65803">
        <ele>46.2</ele>
        <time>2015-05-10T06:48:15Z</time>
      </trkpt>
      <trkpt lat="47.3299" lon="-1.65798">
        <ele>46.3</ele>
        <time>2015-05-10T06:48:16Z</time>
      </trkpt>
      <trkpt lat="47.32989" lon="-1.65794">
        <ele>46.3</ele>
        <time>2015-05-10T06:48:17Z</time>
      </trkpt>
      <trkpt lat="47.32988" lon="-1.65789">
        <ele>46.4</ele>
        <time>2015-05-10T06:48:18Z</time>
      </trkpt>
      <trkpt lat="47.32987" lon="-1.65785">
        <ele>46.5</ele>
        <time>2015-05-10T06:48:19Z</time>
      </trkpt>
      <trkpt lat="47.32987" lon="-1.6578">
        <ele>46.6</ele>
        <time>2015-05-10T06:48:20Z</time>
      </trkpt>
      <trkpt lat="47.32986" lon="-1.65776">
        <ele>46.7</ele>
        <time>2015-05-10T06:48:21Z</time>
      </trkpt>
      <trkpt lat="47.32986" lon="-1.65772">
        <ele>46.8</ele>
        <time>2015-05-10T06:48:22Z</time>
      </trkpt>
      <trkpt lat="47.32985" lon="-1.65768">
        <ele>46.9</ele>
        <time>2015-05-10T06:48:23Z</time>
      </trkpt>
      <trkpt lat="47.32985" lon="-1.6576">
        <ele>47.1</ele>
        <time>2015-05-10T06:48:25Z</time>
      </trkpt>
      <trkpt lat="47.32983" lon="-1.65753">
        <ele>47.2</ele>
        <time>2015-05-10T06:48:27Z</time>
      </trkpt>
      <trkpt lat="47.32981" lon="-1.65751">
        <ele>47.3</ele>
        <time>2015-05-10T06:48:28Z</time>
      </trkpt>
      <trkpt lat="47.32978" lon="-1.6575">
        <ele>47.2</ele>
        <time>2015-05-10T06:48:29Z</time>
      </trkpt>
      <trkpt lat="47.32975" lon="-1.6575">
        <ele>47.2</ele>
        <time>2015-05-10T06:48:30Z</time>
      </trkpt>
      <trkpt lat="47.32972" lon="-1.65751">
        <ele>47.1</ele>
        <time>2015-05-10T06:48:31Z</time>
      </trkpt>
      <trkpt lat="47.32968" lon="-1.65752">
        <ele>47.1</ele>
        <time>2015-05-10T06:48:32Z</time>
      </trkpt>
      <trkpt lat="47.32965" lon="-1.65753">
        <ele>47</ele>
        <time>2015-05-10T06:48:33Z</time>
      </trkpt>
      <trkpt lat="47.32962" lon="-1.65753">
        <ele>47</ele>
        <time>2015-05-10T06:48:34Z</time>
      </trkpt>
      <trkpt lat="47.32958" lon="-1.65753">
        <ele>46.9</ele>
        <time>2015-05-10T06:48:35Z</time>
      </trkpt>
      <trkpt lat="47.32955" lon="-1.65754">
        <ele>46.8</ele>
        <time>2015-05-10T06:48:36Z</time>
      </trkpt>
      <trkpt lat="47.32952" lon="-1.65755">
        <ele>46.6</ele>
        <time>2015-05-10T06:48:37Z</time>
      </trkpt>
      <trkpt lat="47.32949" lon="-1.65756">
        <ele>46.4</ele>
        <time>2015-05-10T06:48:38Z</time>
      </trkpt>
      <trkpt lat="47.32945" lon="-1.65756">
        <ele>46.2</ele>
        <time>2015-05-10T06:48:39Z</time>
      </trkpt>
      <trkpt lat="47.32941" lon="-1.65756">
        <ele>46</ele>
        <time>2015-05-10T06:48:40Z</time>
      </trkpt>
      <trkpt lat="47.32938" lon="-1.65756">
        <ele>45.9</ele>
        <time>2015-05-10T06:48:41Z</time>
      </trkpt>
      <trkpt lat="47.32934" lon="-1.65757">
        <ele>45.7</ele>
        <time>2015-05-10T06:48:42Z</time>
      </trkpt>
      <trkpt lat="47.32931" lon="-1.65758">
        <ele>45.5</ele>
        <time>2015-05-10T06:48:43Z</time>
      </trkpt>
      <trkpt lat="47.32927" lon="-1.65758">
        <ele>45.3</ele>
        <time>2015-05-10T06:48:44Z</time>
      </trkpt>
      <trkpt lat="47.32924" lon="-1.65757">
        <ele>45.2</ele>
        <time>2015-05-10T06:48:45Z</time>
      </trkpt>
      <trkpt lat="47.32921" lon="-1.65757">
        <ele>45</ele>
        <time>2015-05-10T06:48:46Z</time>
      </trkpt>
      <trkpt lat="47.32917" lon="-1.65757">
        <ele>44.9</ele>
        <time>2015-05-10T06:48:47Z</time>
      </trkpt>
      <trkpt lat="47.32914" lon="-1.65756">
        <ele>44.7</ele>
        <time>2015-05-10T06:48:48Z</time>
      </trkpt>
      <trkpt lat="47.3291" lon="-1.65756">
        <ele>44.6</ele>
        <time>2015-05-10T06:48:49Z</time>
      </trkpt>
      <trkpt lat="47.32907" lon="-1.65756">
        <ele>44.4</ele>
        <time>2015-05-10T06:48:50Z</time>
      </trkpt>
      <trkpt lat="47.32903" lon="-1.65756">
        <ele>44.2</ele>
        <time>2015-05-10T06:48:51Z</time>
      </trkpt>
      <trkpt lat="47.32899" lon="-1.65755">
        <ele>44</ele>
        <time>2015-05-10T06:48:52Z</time>
      </trkpt>
      <trkpt lat="47.32895" lon="-1.65755">
        <ele>43.9</ele>
        <time>2015-05-10T06:48:53Z</time>
      </trkpt>
      <trkpt lat="47.32891" lon="-1.65754">
        <ele>43.7</ele>
        <time>2015-05-10T06:48:54Z</time>
      </trkpt>
      <trkpt lat="47.32887" lon="-1.65754">
        <ele>43.5</ele>
        <time>2015-05-10T06:48:55Z</time>
      </trkpt>
      <trkpt lat="47.32883" lon="-1.65755">
        <ele>43.3</ele>
        <time>2015-05-10T06:48:56Z</time>
      </trkpt>
      <trkpt lat="47.32879" lon="-1.65755">
        <ele>43</ele>
        <time>2015-05-10T06:48:57Z</time>
      </trkpt>
      <trkpt lat="47.32874" lon="-1.65756">
        <ele>42.8</ele>
        <time>2015-05-10T06:48:58Z</time>
      </trkpt>
      <trkpt lat="47.3287" lon="-1.65757">
        <ele>42.8</ele>
        <time>2015-05-10T06:48:59Z</time>
      </trkpt>
      <trkpt lat="47.32865" lon="-1.65757">
        <ele>42.8</ele>
        <time>2015-05-10T06:49:00Z</time>
      </trkpt>
      <trkpt lat="47.3286" lon="-1.65759">
        <ele>42.7</ele>
        <time>2015-05-10T06:49:01Z</time>
      </trkpt>
      <trkpt lat="47.32856" lon="-1.65759">
        <ele>42.6</ele>
        <time>2015-05-10T06:49:02Z</time>
      </trkpt>
      <trkpt lat="47.32851" lon="-1.65759">
        <ele>42.6</ele>
        <time>2015-05-10T06:49:03Z</time>
      </trkpt>
      <trkpt lat="47.32846" lon="-1.6576">
        <ele>42.6</ele>
        <time>2015-05-10T06:49:04Z</time>
      </trkpt>
      <trkpt lat="47.32841" lon="-1.65759">
        <ele>42.5</ele>
        <time>2015-05-10T06:49:05Z</time>
      </trkpt>
      <trkpt lat="47.32836" lon="-1.65759">
        <ele>42.5</ele>
        <time>2015-05-10T06:49:06Z</time>
      </trkpt>
      <trkpt lat="47.3283" lon="-1.65759">
        <ele>42.5</ele>
        <time>2015-05-10T06:49:07Z</time>
      </trkpt>
      <trkpt lat="47.32825" lon="-1.65759">
        <ele>42.4</ele>
        <time>2015-05-10T06:49:08Z</time>
      </trkpt>
      <trkpt lat="47.32819" lon="-1.65759">
        <ele>42.4</ele>
        <time>2015-05-10T06:49:09Z</time>
      </trkpt>
      <trkpt lat="47.32813" lon="-1.65759">
        <ele>42.3</ele>
        <time>2015-05-10T06:49:10Z</time>
      </trkpt>
      <trkpt lat="47.32807" lon="-1.65759">
        <ele>42.3</ele>
        <time>2015-05-10T06:49:11Z</time>
      </trkpt>
      <trkpt lat="47.32801" lon="-1.65759">
        <ele>42.2</ele>
        <time>2015-05-10T06:49:12Z</time>
      </trkpt>
      <trkpt lat="47.32796" lon="-1.6576">
        <ele>42.2</ele>
        <time>2015-05-10T06:49:13Z</time>
      </trkpt>
      <trkpt lat="47.3279" lon="-1.65762">
        <ele>41.9</ele>
        <time>2015-05-10T06:49:14Z</time>
      </trkpt>
      <trkpt lat="47.32785" lon="-1.65765">
        <ele>41.5</ele>
        <time>2015-05-10T06:49:15Z</time>
      </trkpt>
      <trkpt lat="47.32779" lon="-1.65769">
        <ele>41</ele>
        <time>2015-05-10T06:49:16Z</time>
      </trkpt>
      <trkpt lat="47.32775" lon="-1.65776">
        <ele>40.4</ele>
        <time>2015-05-10T06:49:17Z</time>
      </trkpt>
      <trkpt lat="47.32772" lon="-1.65783">
        <ele>39.9</ele>
        <time>2015-05-10T06:49:18Z</time>
      </trkpt>
      <trkpt lat="47.3277" lon="-1.6579">
        <ele>39.5</ele>
        <time>2015-05-10T06:49:19Z</time>
      </trkpt>
      <trkpt lat="47.32767" lon="-1.65795">
        <ele>39</ele>
        <time>2015-05-10T06:49:20Z</time>
      </trkpt>
      <trkpt lat="47.32764" lon="-1.65803">
        <ele>38.4</ele>
        <time>2015-05-10T06:49:21Z</time>
      </trkpt>
      <trkpt lat="47.32762" lon="-1.6581">
        <ele>37.7</ele>
        <time>2015-05-10T06:49:22Z</time>
      </trkpt>
      <trkpt lat="47.3276" lon="-1.65819">
        <ele>37.1</ele>
        <time>2015-05-10T06:49:23Z</time>
      </trkpt>
      <trkpt lat="47.32757" lon="-1.65828">
        <ele>36.4</ele>
        <time>2015-05-10T06:49:24Z</time>
      </trkpt>
      <trkpt lat="47.32754" lon="-1.65836">
        <ele>35.8</ele>
        <time>2015-05-10T06:49:25Z</time>
      </trkpt>
      <trkpt lat="47.32752" lon="-1.65844">
        <ele>35.3</ele>
        <time>2015-05-10T06:49:26Z</time>
      </trkpt>
      <trkpt lat="47.3275" lon="-1.65852">
        <ele>34.7</ele>
        <time>2015-05-10T06:49:27Z</time>
      </trkpt>
      <trkpt lat="47.32747" lon="-1.6586">
        <ele>34.2</ele>
        <time>2015-05-10T06:49:28Z</time>
      </trkpt>
      <trkpt lat="47.32745" lon="-1.65869">
        <ele>33.6</ele>
        <time>2015-05-10T06:49:29Z</time>
      </trkpt>
      <trkpt lat="47.32743" lon="-1.65878">
        <ele>33.2</ele>
        <time>2015-05-10T06:49:30Z</time>
      </trkpt>
      <trkpt lat="47.3274" lon="-1.65886">
        <ele>33</ele>
        <time>2015-05-10T06:49:31Z</time>
      </trkpt>
      <trkpt lat="47.32735" lon="-1.65895">
        <ele>32.7</ele>
        <time>2015-05-10T06:49:32Z</time>
      </trkpt>
      <trkpt lat="47.32729" lon="-1.65903">
        <ele>32.4</ele>
        <time>2015-05-10T06:49:33Z</time>
      </trkpt>
      <trkpt lat="47.32722" lon="-1.6591">
        <ele>32.1</ele>
        <time>2015-05-10T06:49:34Z</time>
      </trkpt>
      <trkpt lat="47.32715" lon="-1.65914">
        <ele>31.8</ele>
        <time>2015-05-10T06:49:35Z</time>
      </trkpt>
      <trkpt lat="47.32706" lon="-1.65915">
        <ele>31.4</ele>
        <time>2015-05-10T06:49:36Z</time>
      </trkpt>
      <trkpt lat="47.32697" lon="-1.65914">
        <ele>31</ele>
        <time>2015-05-10T06:49:37Z</time>
      </trkpt>
      <trkpt lat="47.32688" lon="-1.65914">
        <ele>30.7</ele>
        <time>2015-05-10T06:49:38Z</time>
      </trkpt>
      <trkpt lat="47.32677" lon="-1.65915">
        <ele>30.2</ele>
        <time>2015-05-10T06:49:39Z</time>
      </trkpt>
      <trkpt lat="47.32667" lon="-1.65913">
        <ele>29.8</ele>
        <time>2015-05-10T06:49:40Z</time>
      </trkpt>
      <trkpt lat="47.32657" lon="-1.6591">
        <ele>29.4</ele>
        <time>2015-05-10T06:49:41Z</time>
      </trkpt>
      <trkpt lat="47.32647" lon="-1.65905">
        <ele>29</ele>
        <time>2015-05-10T06:49:42Z</time>
      </trkpt>
      <trkpt lat="47.32637" lon="-1.659">
        <ele>28.5</ele>
        <time>2015-05-10T06:49:43Z</time>
      </trkpt>
      <trkpt lat="47.32628" lon="-1.65893">
        <ele>28.1</ele>
        <time>2015-05-10T06:49:44Z</time>
      </trkpt>
      <trkpt lat="47.32621" lon="-1.65885">
        <ele>28</ele>
        <time>2015-05-10T06:49:45Z</time>
      </trkpt>
      <trkpt lat="47.32614" lon="-1.65877">
        <ele>28</ele>
        <time>2015-05-10T06:49:46Z</time>
      </trkpt>
      <trkpt lat="47.32608" lon="-1.6587">
        <ele>28</ele>
        <time>2015-05-10T06:49:47Z</time>
      </trkpt>
      <trkpt lat="47.326" lon="-1.65864">
        <ele>28</ele>
        <time>2015-05-10T06:49:48Z</time>
      </trkpt>
      <trkpt lat="47.32595" lon="-1.65857">
        <ele>28</ele>
        <time>2015-05-10T06:49:49Z</time>
      </trkpt>
      <trkpt lat="47.32591" lon="-1.65849">
        <ele>27.9</ele>
        <time>2015-05-10T06:49:50Z</time>
      </trkpt>
      <trkpt lat="47.32587" lon="-1.65843">
        <ele>27.9</ele>
        <time>2015-05-10T06:49:51Z</time>
      </trkpt>
      <trkpt lat="47.32582" lon="-1.65838">
        <ele>27.8</ele>
        <time>2015-05-10T06:49:52Z</time>
      </trkpt>
      <trkpt lat="47.32579" lon="-1.65833">
        <ele>27.7</ele>
        <time>2015-05-10T06:49:53Z</time>
      </trkpt>
      <trkpt lat="47.32574" lon="-1.65829">
        <ele>27.5</ele>
        <time>2015-05-10T06:49:54Z</time>
      </trkpt>
      <trkpt lat="47.32569" lon="-1.65826">
        <ele>27.4</ele>
        <time>2015-05-10T06:49:55Z</time>
      </trkpt>
      <trkpt lat="47.32564" lon="-1.65824">
        <ele>27.3</ele>
        <time>2015-05-10T06:49:56Z</time>
      </trkpt>
      <trkpt lat="47.32559" lon="-1.65822">
        <ele>27.1</ele>
        <time>2015-05-10T06:49:57Z</time>
      </trkpt>
      <trkpt lat="47.32556" lon="-1.65816">
        <ele>26.9</ele>
        <time>2015-05-10T06:49:58Z</time>
      </trkpt>
      <trkpt lat="47.32551" lon="-1.65815">
        <ele>26.8</ele>
        <time>2015-05-10T06:49:59Z</time>
      </trkpt>
      <trkpt lat="47.32544" lon="-1.65813">
        <ele>26.6</ele>
        <time>2015-05-10T06:50:00Z</time>
      </trkpt>
      <trkpt lat="47.32539" lon="-1.65811">
        <ele>26.5</ele>
        <time>2015-05-10T06:50:01Z</time>
      </trkpt>
      <trkpt lat="47.32534" lon="-1.65807">
        <ele>26.4</ele>
        <time>2015-05-10T06:50:02Z</time>
      </trkpt>
      <trkpt lat="47.32529" lon="-1.65804">
        <ele>26.3</ele>
        <time>2015-05-10T06:50:03Z</time>
      </trkpt>
      <trkpt lat="47.32524" lon="-1.65799">
        <ele>26.1</ele>
        <time>2015-05-10T06:50:04Z</time>
      </trkpt>
      <trkpt lat="47.3252" lon="-1.65793">
        <ele>26</ele>
        <time>2015-05-10T06:50:05Z</time>
      </trkpt>
      <trkpt lat="47.32516" lon="-1.65788">
        <ele>26</ele>
        <time>2015-05-10T06:50:06Z</time>
      </trkpt>
      <trkpt lat="47.32512" lon="-1.65782">
        <ele>26</ele>
        <time>2015-05-10T06:50:07Z</time>
      </trkpt>
      <trkpt lat="47.32509" lon="-1.65777">
        <ele>26</ele>
        <time>2015-05-10T06:50:08Z</time>
      </trkpt>
      <trkpt lat="47.32505" lon="-1.65771">
        <ele>25.9</ele>
        <time>2015-05-10T06:50:09Z</time>
      </trkpt>
      <trkpt lat="47.32501" lon="-1.65766">
        <ele>25.9</ele>
        <time>2015-05-10T06:50:10Z</time>
      </trkpt>
      <trkpt lat="47.32498" lon="-1.65761">
        <ele>25.8</ele>
        <time>2015-05-10T06:50:11Z</time>
      </trkpt>
      <trkpt lat="47.32494" lon="-1.65755">
        <ele>25.7</ele>
        <time>2015-05-10T06:50:12Z</time>
      </trkpt>
      <trkpt lat="47.3249" lon="-1.6575">
        <ele>25.6</ele>
        <time>2015-05-10T06:50:13Z</time>
      </trkpt>
      <trkpt lat="47.32486" lon="-1.65745">
        <ele>25.4</ele>
        <time>2015-05-10T06:50:14Z</time>
      </trkpt>
      <trkpt lat="47.32482" lon="-1.65739">
        <ele>25.3</ele>
        <time>2015-05-10T06:50:15Z</time>
      </trkpt>
      <trkpt lat="47.32478" lon="-1.65734">
        <ele>25.1</ele>
        <time>2015-05-10T06:50:16Z</time>
      </trkpt>
      <trkpt lat="47.32474" lon="-1.65729">
        <ele>24.9</ele>
        <time>2015-05-10T06:50:17Z</time>
      </trkpt>
      <trkpt lat="47.32471" lon="-1.65723">
        <ele>24.7</ele>
        <time>2015-05-10T06:50:18Z</time>
      </trkpt>
      <trkpt lat="47.32467" lon="-1.65717">
        <ele>24.5</ele>
        <time>2015-05-10T06:50:19Z</time>
      </trkpt>
      <trkpt lat="47.32463" lon="-1.6571">
        <ele>24.2</ele>
        <time>2015-05-10T06:50:20Z</time>
      </trkpt>
      <trkpt lat="47.3246" lon="-1.65702">
        <ele>24.4</ele>
        <time>2015-05-10T06:50:21Z</time>
      </trkpt>
      <trkpt lat="47.32459" lon="-1.65694">
        <ele>24.7</ele>
        <time>2015-05-10T06:50:22Z</time>
      </trkpt>
      <trkpt lat="47.32457" lon="-1.65687">
        <ele>25.1</ele>
        <time>2015-05-10T06:50:23Z</time>
      </trkpt>
      <trkpt lat="47.32457" lon="-1.6568">
        <ele>25.5</ele>
        <time>2015-05-10T06:50:24Z</time>
      </trkpt>
      <trkpt lat="47.32457" lon="-1.65672">
        <ele>25.8</ele>
        <time>2015-05-10T06:50:25Z</time>
      </trkpt>
      <trkpt lat="47.32457" lon="-1.65665">
        <ele>26.1</ele>
        <time>2015-05-10T06:50:26Z</time>
      </trkpt>
      <trkpt lat="47.32458" lon="-1.65659">
        <ele>26.4</ele>
        <time>2015-05-10T06:50:27Z</time>
      </trkpt>
      <trkpt lat="47.32459" lon="-1.65652">
        <ele>26.7</ele>
        <time>2015-05-10T06:50:28Z</time>
      </trkpt>
      <trkpt lat="47.3246" lon="-1.65645">
        <ele>27.1</ele>
        <time>2015-05-10T06:50:29Z</time>
      </trkpt>
      <trkpt lat="47.32461" lon="-1.65637">
        <ele>27.5</ele>
        <time>2015-05-10T06:50:30Z</time>
      </trkpt>
      <trkpt lat="47.32462" lon="-1.65629">
        <ele>27.9</ele>
        <time>2015-05-10T06:50:31Z</time>
      </trkpt>
      <trkpt lat="47.32463" lon="-1.65622">
        <ele>28.2</ele>
        <time>2015-05-10T06:50:32Z</time>
      </trkpt>
      <trkpt lat="47.32464" lon="-1.65614">
        <ele>28.3</ele>
        <time>2015-05-10T06:50:33Z</time>
      </trkpt>
      <trkpt lat="47.32466" lon="-1.65607">
        <ele>28.5</ele>
        <time>2015-05-10T06:50:34Z</time>
      </trkpt>
      <trkpt lat="47.32467" lon="-1.656">
        <ele>28.6</ele>
        <time>2015-05-10T06:50:35Z</time>
      </trkpt>
      <trkpt lat="47.32469" lon="-1.65592">
        <ele>28.8</ele>
        <time>2015-05-10T06:50:36Z</time>
      </trkpt>
      <trkpt lat="47.32471" lon="-1.65586">
        <ele>28.9</ele>
        <time>2015-05-10T06:50:37Z</time>
      </trkpt>
      <trkpt lat="47.32473" lon="-1.65579">
        <ele>29.1</ele>
        <time>2015-05-10T06:50:38Z</time>
      </trkpt>
      <trkpt lat="47.32474" lon="-1.65572">
        <ele>29.2</ele>
        <time>2015-05-10T06:50:39Z</time>
      </trkpt>
      <trkpt lat="47.32475" lon="-1.65562">
        <ele>29.3</ele>
        <time>2015-05-10T06:50:40Z</time>
      </trkpt>
      <trkpt lat="47.32475" lon="-1.65554">
        <ele>29.4</ele>
        <time>2015-05-10T06:50:41Z</time>
      </trkpt>
      <trkpt lat="47.32473" lon="-1.65547">
        <ele>29.5</ele>
        <time>2015-05-10T06:50:42Z</time>
      </trkpt>
      <trkpt lat="47.3247" lon="-1.65541">
        <ele>29.4</ele>
        <time>2015-05-10T06:50:43Z</time>
      </trkpt>
      <trkpt lat="47.32467" lon="-1.65537">
        <ele>29.3</ele>
        <time>2015-05-10T06:50:44Z</time>
      </trkpt>
      <trkpt lat="47.32463" lon="-1.65534">
        <ele>29.1</ele>
        <time>2015-05-10T06:50:45Z</time>
      </trkpt>
      <trkpt lat="47.32459" lon="-1.65531">
        <ele>28.9</ele>
        <time>2015-05-10T06:50:46Z</time>
      </trkpt>
      <trkpt lat="47.32455" lon="-1.65532">
        <ele>29.2</ele>
        <time>2015-05-10T06:50:47Z</time>
      </trkpt>
      <trkpt lat="47.32451" lon="-1.65531">
        <ele>29.7</ele>
        <time>2015-05-10T06:50:48Z</time>
      </trkpt>
      <trkpt lat="47.32446" lon="-1.6553">
        <ele>30.2</ele>
        <time>2015-05-10T06:50:49Z</time>
      </trkpt>
      <trkpt lat="47.32442" lon="-1.6553">
        <ele>30.8</ele>
        <time>2015-05-10T06:50:50Z</time>
      </trkpt>
      <trkpt lat="47.32437" lon="-1.65529">
        <ele>31.3</ele>
        <time>2015-05-10T06:50:51Z</time>
      </trkpt>
      <trkpt lat="47.32432" lon="-1.65529">
        <ele>31.9</ele>
        <time>2015-05-10T06:50:52Z</time>
      </trkpt>
      <trkpt lat="47.32427" lon="-1.65529">
        <ele>32.4</ele>
        <time>2015-05-10T06:50:53Z</time>
      </trkpt>
      <trkpt lat="47.32422" lon="-1.65528">
        <ele>32.9</ele>
        <time>2015-05-10T06:50:54Z</time>
      </trkpt>
      <trkpt lat="47.32419" lon="-1.65527">
        <ele>33.3</ele>
        <time>2015-05-10T06:50:55Z</time>
      </trkpt>
      <trkpt lat="47.32415" lon="-1.65525">
        <ele>33.8</ele>
        <time>2015-05-10T06:50:56Z</time>
      </trkpt>
      <trkpt lat="47.32411" lon="-1.65523">
        <ele>34.2</ele>
        <time>2015-05-10T06:50:57Z</time>
      </trkpt>
      <trkpt lat="47.32406" lon="-1.65521">
        <ele>34.8</ele>
        <time>2015-05-10T06:50:58Z</time>
      </trkpt>
      <trkpt lat="47.32401" lon="-1.65519">
        <ele>35.5</ele>
        <time>2015-05-10T06:50:59Z</time>
      </trkpt>
      <trkpt lat="47.32397" lon="-1.65517">
        <ele>36</ele>
        <time>2015-05-10T06:51:00Z</time>
      </trkpt>
      <trkpt lat="47.32392" lon="-1.65517">
        <ele>36.5</ele>
        <time>2015-05-10T06:51:01Z</time>
      </trkpt>
      <trkpt lat="47.32388" lon="-1.65518">
        <ele>37</ele>
        <time>2015-05-10T06:51:02Z</time>
      </trkpt>
      <trkpt lat="47.32383" lon="-1.65521">
        <ele>37.6</ele>
        <time>2015-05-10T06:51:03Z</time>
      </trkpt>
      <trkpt lat="47.32378" lon="-1.65524">
        <ele>38.1</ele>
        <time>2015-05-10T06:51:04Z</time>
      </trkpt>
      <trkpt lat="47.32373" lon="-1.65524">
        <ele>38.6</ele>
        <time>2015-05-10T06:51:05Z</time>
      </trkpt>
      <trkpt lat="47.32368" lon="-1.65523">
        <ele>39</ele>
        <time>2015-05-10T06:51:06Z</time>
      </trkpt>
      <trkpt lat="47.32364" lon="-1.6552">
        <ele>39.4</ele>
        <time>2015-05-10T06:51:07Z</time>
      </trkpt>
      <trkpt lat="47.3236" lon="-1.65517">
        <ele>39.7</ele>
        <time>2015-05-10T06:51:08Z</time>
      </trkpt>
      <trkpt lat="47.32358" lon="-1.65513">
        <ele>40</ele>
        <time>2015-05-10T06:51:09Z</time>
      </trkpt>
      <trkpt lat="47.32356" lon="-1.65508">
        <ele>40.2</ele>
        <time>2015-05-10T06:51:10Z</time>
      </trkpt>
      <trkpt lat="47.32355" lon="-1.65503">
        <ele>40.4</ele>
        <time>2015-05-10T06:51:11Z</time>
      </trkpt>
      <trkpt lat="47.32355" lon="-1.65498">
        <ele>40.5</ele>
        <time>2015-05-10T06:51:12Z</time>
      </trkpt>
      <trkpt lat="47.32355" lon="-1.65493">
        <ele>40.6</ele>
        <time>2015-05-10T06:51:13Z</time>
      </trkpt>
      <trkpt lat="47.32355" lon="-1.65488">
        <ele>40.7</ele>
        <time>2015-05-10T06:51:14Z</time>
      </trkpt>
      <trkpt lat="47.32355" lon="-1.65483">
        <ele>40.8</ele>
        <time>2015-05-10T06:51:15Z</time>
      </trkpt>
      <trkpt lat="47.32356" lon="-1.65478">
        <ele>40.8</ele>
        <time>2015-05-10T06:51:16Z</time>
      </trkpt>
      <trkpt lat="47.32355" lon="-1.65472">
        <ele>41</ele>
        <time>2015-05-10T06:51:17Z</time>
      </trkpt>
      <trkpt lat="47.32354" lon="-1.65467">
        <ele>41.1</ele>
        <time>2015-05-10T06:51:18Z</time>
      </trkpt>
      <trkpt lat="47.32354" lon="-1.65463">
        <ele>41.2</ele>
        <time>2015-05-10T06:51:19Z</time>
      </trkpt>
      <trkpt lat="47.32353" lon="-1.65458">
        <ele>41.3</ele>
        <time>2015-05-10T06:51:20Z</time>
      </trkpt>
      <trkpt lat="47.32352" lon="-1.65452">
        <ele>41.1</ele>
        <time>2015-05-10T06:51:21Z</time>
      </trkpt>
      <trkpt lat="47.32351" lon="-1.65448">
        <ele>41</ele>
        <time>2015-05-10T06:51:22Z</time>
      </trkpt>
      <trkpt lat="47.32348" lon="-1.65442">
        <ele>40.9</ele>
        <time>2015-05-10T06:51:24Z</time>
      </trkpt>
      <trkpt lat="47.32347" lon="-1.65438">
        <ele>40.9</ele>
        <time>2015-05-10T06:51:26Z</time>
      </trkpt>
      <trkpt lat="47.32345" lon="-1.65434">
        <ele>40.8</ele>
        <time>2015-05-10T06:51:28Z</time>
      </trkpt>
      <trkpt lat="47.32344" lon="-1.65429">
        <ele>40.8</ele>
        <time>2015-05-10T06:51:30Z</time>
      </trkpt>
      <trkpt lat="47.32342" lon="-1.65426">
        <ele>40.7</ele>
        <time>2015-05-10T06:51:32Z</time>
      </trkpt>
      <trkpt lat="47.3234" lon="-1.65422">
        <ele>40.7</ele>
        <time>2015-05-10T06:51:34Z</time>
      </trkpt>
      <trkpt lat="47.32337" lon="-1.65417">
        <ele>40.7</ele>
        <time>2015-05-10T06:51:36Z</time>
      </trkpt>
      <trkpt lat="47.32326" lon="-1.65403">
        <ele>41.1</ele>
        <time>2015-05-10T06:51:43Z</time>
      </trkpt>
      <trkpt lat="47.32322" lon="-1.65401">
        <ele>41.3</ele>
        <time>2015-05-10T06:51:45Z</time>
      </trkpt>
      <trkpt lat="47.32319" lon="-1.65396">
        <ele>41.4</ele>
        <time>2015-05-10T06:51:47Z</time>
      </trkpt>
      <trkpt lat="47.32316" lon="-1.65393">
        <ele>41.5</ele>
        <time>2015-05-10T06:51:48Z</time>
      </trkpt>
      <trkpt lat="47.32312" lon="-1.6539">
        <ele>41.7</ele>
        <time>2015-05-10T06:51:50Z</time>
      </trkpt>
      <trkpt lat="47.32308" lon="-1.65386">
        <ele>42</ele>
        <time>2015-05-10T06:51:52Z</time>
      </trkpt>
      <trkpt lat="47.32304" lon="-1.65382">
        <ele>42.2</ele>
        <time>2015-05-10T06:51:54Z</time>
      </trkpt>
      <trkpt lat="47.323" lon="-1.65379">
        <ele>42.4</ele>
        <time>2015-05-10T06:51:56Z</time>
      </trkpt>
      <trkpt lat="47.32296" lon="-1.65377">
        <ele>42.7</ele>
        <time>2015-05-10T06:51:58Z</time>
      </trkpt>
      <trkpt lat="47.32293" lon="-1.65375">
        <ele>42.9</ele>
        <time>2015-05-10T06:52:00Z</time>
      </trkpt>
      <trkpt lat="47.3229" lon="-1.65374">
        <ele>43.1</ele>
        <time>2015-05-10T06:52:02Z</time>
      </trkpt>
      <trkpt lat="47.32287" lon="-1.65374">
        <ele>43.4</ele>
        <time>2015-05-10T06:52:04Z</time>
      </trkpt>
      <trkpt lat="47.32284" lon="-1.65373">
        <ele>43.7</ele>
        <time>2015-05-10T06:52:06Z</time>
      </trkpt>
      <trkpt lat="47.32281" lon="-1.65373">
        <ele>43.9</ele>
        <time>2015-05-10T06:52:08Z</time>
      </trkpt>
      <trkpt lat="47.32275" lon="-1.65373">
        <ele>44.4</ele>
        <time>2015-05-10T06:52:10Z</time>
      </trkpt>
      <trkpt lat="47.32272" lon="-1.65373">
        <ele>44.7</ele>
        <time>2015-05-10T06:52:11Z</time>
      </trkpt>
      <trkpt lat="47.32269" lon="-1.65373">
        <ele>44.9</ele>
        <time>2015-05-10T06:52:13Z</time>
      </trkpt>
      <trkpt lat="47.32266" lon="-1.65374">
        <ele>45.2</ele>
        <time>2015-05-10T06:52:16Z</time>
      </trkpt>
      <trkpt lat="47.32261" lon="-1.65374">
        <ele>45.6</ele>
        <time>2015-05-10T06:52:18Z</time>
      </trkpt>
      <trkpt lat="47.32258" lon="-1.65375">
        <ele>45.8</ele>
        <time>2015-05-10T06:52:19Z</time>
      </trkpt>
      <trkpt lat="47.32255" lon="-1.65376">
        <ele>46.1</ele>
        <time>2015-05-10T06:52:20Z</time>
      </trkpt>
      <trkpt lat="47.32251" lon="-1.65378">
        <ele>46.5</ele>
        <time>2015-05-10T06:52:22Z</time>
      </trkpt>
      <trkpt lat="47.32247" lon="-1.65378">
        <ele>46.8</ele>
        <time>2015-05-10T06:52:24Z</time>
      </trkpt>
      <trkpt lat="47.32244" lon="-1.65379">
        <ele>47.1</ele>
        <time>2015-05-10T06:52:26Z</time>
      </trkpt>
      <trkpt lat="47.32239" lon="-1.6538">
        <ele>47.5</ele>
        <time>2015-05-10T06:52:29Z</time>
      </trkpt>
      <trkpt lat="47.32236" lon="-1.65382">
        <ele>47.9</ele>
        <time>2015-05-10T06:52:31Z</time>
      </trkpt>
      <trkpt lat="47.32232" lon="-1.65383">
        <ele>48.2</ele>
        <time>2015-05-10T06:52:33Z</time>
      </trkpt>
      <trkpt lat="47.32229" lon="-1.65384">
        <ele>48.5</ele>
        <time>2015-05-10T06:52:35Z</time>
      </trkpt>
      <trkpt lat="47.32225" lon="-1.65384">
        <ele>48.9</ele>
        <time>2015-05-10T06:52:37Z</time>
      </trkpt>
      <trkpt lat="47.32222" lon="-1.65385">
        <ele>49.1</ele>
        <time>2015-05-10T06:52:38Z</time>
      </trkpt>
      <trkpt lat="47.32218" lon="-1.65385">
        <ele>49.4</ele>
        <time>2015-05-10T06:52:40Z</time>
      </trkpt>
      <trkpt lat="47.32215" lon="-1.65385">
        <ele>49.7</ele>
        <time>2015-05-10T06:52:42Z</time>
      </trkpt>
      <trkpt lat="47.32212" lon="-1.65386">
        <ele>50</ele>
        <time>2015-05-10T06:52:44Z</time>
      </trkpt>
      <trkpt lat="47.32209" lon="-1.65386">
        <ele>50.2</ele>
        <time>2015-05-10T06:52:46Z</time>
      </trkpt>
      <trkpt lat="47.32205" lon="-1.65386">
        <ele>50.4</ele>
        <time>2015-05-10T06:52:49Z</time>
      </trkpt>
      <trkpt lat="47.32203" lon="-1.65382">
        <ele>50.4</ele>
        <time>2015-05-10T06:52:51Z</time>
      </trkpt>
      <trkpt lat="47.32199" lon="-1.65381">
        <ele>50.6</ele>
        <time>2015-05-10T06:52:54Z</time>
      </trkpt>
      <trkpt lat="47.32196" lon="-1.65383">
        <ele>50.8</ele>
        <time>2015-05-10T06:53:00Z</time>
      </trkpt>
      <trkpt lat="47.32193" lon="-1.65383">
        <ele>51</ele>
        <time>2015-05-10T06:53:03Z</time>
      </trkpt>
      <trkpt lat="47.32155" lon="-1.65448">
        <ele>54.3</ele>
        <time>2015-05-10T06:53:47Z</time>
      </trkpt>
      <trkpt lat="47.32149" lon="-1.65458">
        <ele>54.8</ele>
        <time>2015-05-10T06:53:49Z</time>
      </trkpt>
      <trkpt lat="47.32147" lon="-1.6546">
        <ele>55</ele>
        <time>2015-05-10T06:53:50Z</time>
      </trkpt>
      <trkpt lat="47.32143" lon="-1.65461">
        <ele>55.2</ele>
        <time>2015-05-10T06:53:52Z</time>
      </trkpt>
      <trkpt lat="47.32126" lon="-1.65487">
        <ele>56.3</ele>
        <time>2015-05-10T06:54:16Z</time>
      </trkpt>
      <trkpt lat="47.32127" lon="-1.65491">
        <ele>56.3</ele>
        <time>2015-05-10T06:54:18Z</time>
      </trkpt>
      <trkpt lat="47.32126" lon="-1.65497">
        <ele>56.4</ele>
        <time>2015-05-10T06:54:20Z</time>
      </trkpt>
      <trkpt lat="47.32124" lon="-1.65504">
        <ele>56.6</ele>
        <time>2015-05-10T06:54:22Z</time>
      </trkpt>
      <trkpt lat="47.32122" lon="-1.65508">
        <ele>56.7</ele>
        <time>2015-05-10T06:54:23Z</time>
      </trkpt>
      <trkpt lat="47.3212" lon="-1.65511">
        <ele>56.7</ele>
        <time>2015-05-10T06:54:24Z</time>
      </trkpt>
      <trkpt lat="47.32117" lon="-1.65518">
        <ele>56.9</ele>
        <time>2015-05-10T06:54:26Z</time>
      </trkpt>
      <trkpt lat="47.32114" lon="-1.65524">
        <ele>57</ele>
        <time>2015-05-10T06:54:28Z</time>
      </trkpt>
      <trkpt lat="47.32112" lon="-1.65528">
        <ele>57.1</ele>
        <time>2015-05-10T06:54:29Z</time>
      </trkpt>
      <trkpt lat="47.3211" lon="-1.65535">
        <ele>57.3</ele>
        <time>2015-05-10T06:54:31Z</time>
      </trkpt>
      <trkpt lat="47.32108" lon="-1.65538">
        <ele>57.4</ele>
        <time>2015-05-10T06:54:32Z</time>
      </trkpt>
      <trkpt lat="47.32106" lon="-1.65541">
        <ele>57.5</ele>
        <time>2015-05-10T06:54:33Z</time>
      </trkpt>
      <trkpt lat="47.32103" lon="-1.65547">
        <ele>57.6</ele>
        <time>2015-05-10T06:54:35Z</time>
      </trkpt>
      <trkpt lat="47.321" lon="-1.65551">
        <ele>57.8</ele>
        <time>2015-05-10T06:54:36Z</time>
      </trkpt>
      <trkpt lat="47.32098" lon="-1.65553">
        <ele>57.9</ele>
        <time>2015-05-10T06:54:37Z</time>
      </trkpt>
      <trkpt lat="47.32096" lon="-1.65557">
        <ele>58</ele>
        <time>2015-05-10T06:54:39Z</time>
      </trkpt>
      <trkpt lat="47.32094" lon="-1.6556">
        <ele>58.1</ele>
        <time>2015-05-10T06:54:40Z</time>
      </trkpt>
      <trkpt lat="47.32091" lon="-1.65563">
        <ele>58.3</ele>
        <time>2015-05-10T06:54:41Z</time>
      </trkpt>
      <trkpt lat="47.32088" lon="-1.65568">
        <ele>58.5</ele>
        <time>2015-05-10T06:54:43Z</time>
      </trkpt>
      <trkpt lat="47.32086" lon="-1.65572">
        <ele>58.6</ele>
        <time>2015-05-10T06:54:44Z</time>
      </trkpt>
      <trkpt lat="47.32085" lon="-1.65575">
        <ele>58.8</ele>
        <time>2015-05-10T06:54:45Z</time>
      </trkpt>
      <trkpt lat="47.32082" lon="-1.65581">
        <ele>59</ele>
        <time>2015-05-10T06:54:47Z</time>
      </trkpt>
      <trkpt lat="47.32081" lon="-1.65585">
        <ele>59.1</ele>
        <time>2015-05-10T06:54:48Z</time>
      </trkpt>
      <trkpt lat="47.32078" lon="-1.65591">
        <ele>59.4</ele>
        <time>2015-05-10T06:54:50Z</time>
      </trkpt>
      <trkpt lat="47.32073" lon="-1.65597">
        <ele>59.7</ele>
        <time>2015-05-10T06:54:52Z</time>
      </trkpt>
      <trkpt lat="47.32062" lon="-1.65614">
        <ele>60.7</ele>
        <time>2015-05-10T06:55:30Z</time>
      </trkpt>
      <trkpt lat="47.3206" lon="-1.65617">
        <ele>60.9</ele>
        <time>2015-05-10T06:55:32Z</time>
      </trkpt>
      <trkpt lat="47.32054" lon="-1.65621">
        <ele>61.3</ele>
        <time>2015-05-10T06:55:34Z</time>
      </trkpt>
      <trkpt lat="47.32052" lon="-1.65623">
        <ele>61.4</ele>
        <time>2015-05-10T06:55:35Z</time>
      </trkpt>
      <trkpt lat="47.32049" lon="-1.65624">
        <ele>61.6</ele>
        <time>2015-05-10T06:55:36Z</time>
      </trkpt>
      <trkpt lat="47.32046" lon="-1.65625">
        <ele>61.8</ele>
        <time>2015-05-10T06:55:37Z</time>
      </trkpt>
      <trkpt lat="47.32043" lon="-1.65627">
        <ele>61.9</ele>
        <time>2015-05-10T06:55:38Z</time>
      </trkpt>
      <trkpt lat="47.3204" lon="-1.65628">
        <ele>61.9</ele>
        <time>2015-05-10T06:55:39Z</time>
      </trkpt>
      <trkpt lat="47.32036" lon="-1.6563">
        <ele>61.7</ele>
        <time>2015-05-10T06:55:41Z</time>
      </trkpt>
      <trkpt lat="47.32031" lon="-1.65634">
        <ele>61.4</ele>
        <time>2015-05-10T06:55:43Z</time>
      </trkpt>
      <trkpt lat="47.32029" lon="-1.65636">
        <ele>61.3</ele>
        <time>2015-05-10T06:55:44Z</time>
      </trkpt>
      <trkpt lat="47.32026" lon="-1.65639">
        <ele>61.1</ele>
        <time>2015-05-10T06:55:45Z</time>
      </trkpt>
      <trkpt lat="47.32023" lon="-1.65641">
        <ele>61</ele>
        <time>2015-05-10T06:55:46Z</time>
      </trkpt>
      <trkpt lat="47.32021" lon="-1.65642">
        <ele>60.9</ele>
        <time>2015-05-10T06:55:47Z</time>
      </trkpt>
      <trkpt lat="47.32018" lon="-1.65644">
        <ele>60.8</ele>
        <time>2015-05-10T06:55:48Z</time>
      </trkpt>
      <trkpt lat="47.32015" lon="-1.65645">
        <ele>60.6</ele>
        <time>2015-05-10T06:55:49Z</time>
      </trkpt>
      <trkpt lat="47.32012" lon="-1.65647">
        <ele>60.5</ele>
        <time>2015-05-10T06:55:50Z</time>
      </trkpt>
      <trkpt lat="47.32009" lon="-1.65649">
        <ele>60.4</ele>
        <time>2015-05-10T06:55:51Z</time>
      </trkpt>
      <trkpt lat="47.32005" lon="-1.6565">
        <ele>60.2</ele>
        <time>2015-05-10T06:55:52Z</time>
      </trkpt>
      <trkpt lat="47.32002" lon="-1.65652">
        <ele>60.1</ele>
        <time>2015-05-10T06:55:53Z</time>
      </trkpt>
      <trkpt lat="47.32" lon="-1.65654">
        <ele>60</ele>
        <time>2015-05-10T06:55:54Z</time>
      </trkpt>
      <trkpt lat="47.31995" lon="-1.65656">
        <ele>59.8</ele>
        <time>2015-05-10T06:55:56Z</time>
      </trkpt>
      <trkpt lat="47.31992" lon="-1.65658">
        <ele>59.7</ele>
        <time>2015-05-10T06:55:57Z</time>
      </trkpt>
      <trkpt lat="47.31989" lon="-1.65659">
        <ele>59.6</ele>
        <time>2015-05-10T06:55:58Z</time>
      </trkpt>
      <trkpt lat="47.31987" lon="-1.6566">
        <ele>59.4</ele>
        <time>2015-05-10T06:55:59Z</time>
      </trkpt>
      <trkpt lat="47.31983" lon="-1.65662">
        <ele>59.3</ele>
        <time>2015-05-10T06:56:00Z</time>
      </trkpt>
      <trkpt lat="47.31981" lon="-1.65663">
        <ele>59.2</ele>
        <time>2015-05-10T06:56:01Z</time>
      </trkpt>
      <trkpt lat="47.31976" lon="-1.65666">
        <ele>59</ele>
        <time>2015-05-10T06:56:03Z</time>
      </trkpt>
      <trkpt lat="47.31972" lon="-1.6567">
        <ele>58.9</ele>
        <time>2015-05-10T06:56:05Z</time>
      </trkpt>
      <trkpt lat="47.31967" lon="-1.65673">
        <ele>58.7</ele>
        <time>2015-05-10T06:56:07Z</time>
      </trkpt>
      <trkpt lat="47.31965" lon="-1.65674">
        <ele>58.6</ele>
        <time>2015-05-10T06:56:08Z</time>
      </trkpt>
      <trkpt lat="47.3196" lon="-1.65676">
        <ele>58.4</ele>
        <time>2015-05-10T06:56:10Z</time>
      </trkpt>
      <trkpt lat="47.31954" lon="-1.65679">
        <ele>58.4</ele>
        <time>2015-05-10T06:56:12Z</time>
      </trkpt>
      <trkpt lat="47.3195" lon="-1.65683">
        <ele>58.3</ele>
        <time>2015-05-10T06:56:13Z</time>
      </trkpt>
      <trkpt lat="47.31945" lon="-1.65686">
        <ele>58.3</ele>
        <time>2015-05-10T06:56:14Z</time>
      </trkpt>
      <trkpt lat="47.31941" lon="-1.6569">
        <ele>58.3</ele>
        <time>2015-05-10T06:56:15Z</time>
      </trkpt>
      <trkpt lat="47.31936" lon="-1.65692">
        <ele>58.2</ele>
        <time>2015-05-10T06:56:16Z</time>
      </trkpt>
      <trkpt lat="47.31934" lon="-1.65696">
        <ele>58.2</ele>
        <time>2015-05-10T06:56:17Z</time>
      </trkpt>
      <trkpt lat="47.31934" lon="-1.65702">
        <ele>58.1</ele>
        <time>2015-05-10T06:56:19Z</time>
      </trkpt>
      <trkpt lat="47.31939" lon="-1.65705">
        <ele>58</ele>
        <time>2015-05-10T06:56:21Z</time>
      </trkpt>
      <trkpt lat="47.31942" lon="-1.65708">
        <ele>58</ele>
        <time>2015-05-10T06:56:22Z</time>
      </trkpt>
      <trkpt lat="47.31945" lon="-1.65711">
        <ele>57.9</ele>
        <time>2015-05-10T06:56:23Z</time>
      </trkpt>
      <trkpt lat="47.31948" lon="-1.65714">
        <ele>57.9</ele>
        <time>2015-05-10T06:56:24Z</time>
      </trkpt>
      <trkpt lat="47.31951" lon="-1.65717">
        <ele>57.8</ele>
        <time>2015-05-10T06:56:25Z</time>
      </trkpt>
      <trkpt lat="47.31953" lon="-1.6572">
        <ele>57.7</ele>
        <time>2015-05-10T06:56:26Z</time>
      </trkpt>
      <trkpt lat="47.31956" lon="-1.65724">
        <ele>57.6</ele>
        <time>2015-05-10T06:56:27Z</time>
      </trkpt>
      <trkpt lat="47.31959" lon="-1.65728">
        <ele>57.5</ele>
        <time>2015-05-10T06:56:28Z</time>
      </trkpt>
      <trkpt lat="47.31962" lon="-1.65733">
        <ele>57.5</ele>
        <time>2015-05-10T06:56:29Z</time>
      </trkpt>
      <trkpt lat="47.31965" lon="-1.65737">
        <ele>57.4</ele>
        <time>2015-05-10T06:56:30Z</time>
      </trkpt>
      <trkpt lat="47.31968" lon="-1.65741">
        <ele>57.3</ele>
        <time>2015-05-10T06:56:31Z</time>
      </trkpt>
      <trkpt lat="47.31971" lon="-1.65745">
        <ele>57.2</ele>
        <time>2015-05-10T06:56:32Z</time>
      </trkpt>
      <trkpt lat="47.31975" lon="-1.6575">
        <ele>57.1</ele>
        <time>2015-05-10T06:56:33Z</time>
      </trkpt>
      <trkpt lat="47.31978" lon="-1.65755">
        <ele>57</ele>
        <time>2015-05-10T06:56:34Z</time>
      </trkpt>
      <trkpt lat="47.31981" lon="-1.6576">
        <ele>56.8</ele>
        <time>2015-05-10T06:56:35Z</time>
      </trkpt>
      <trkpt lat="47.31985" lon="-1.65766">
        <ele>56.6</ele>
        <time>2015-05-10T06:56:36Z</time>
      </trkpt>
      <trkpt lat="47.3199" lon="-1.65771">
        <ele>56.4</ele>
        <time>2015-05-10T06:56:37Z</time>
      </trkpt>
      <trkpt lat="47.31993" lon="-1.65776">
        <ele>56.2</ele>
        <time>2015-05-10T06:56:38Z</time>
      </trkpt>
      <trkpt lat="47.31997" lon="-1.65781">
        <ele>56</ele>
        <time>2015-05-10T06:56:39Z</time>
      </trkpt>
      <trkpt lat="47.32002" lon="-1.65787">
        <ele>55.7</ele>
        <time>2015-05-10T06:56:40Z</time>
      </trkpt>
      <trkpt lat="47.32005" lon="-1.65794">
        <ele>55.3</ele>
        <time>2015-05-10T06:56:41Z</time>
      </trkpt>
      <trkpt lat="47.32009" lon="-1.658">
        <ele>55</ele>
        <time>2015-05-10T06:56:42Z</time>
      </trkpt>
      <trkpt lat="47.32011" lon="-1.65805">
        <ele>54.7</ele>
        <time>2015-05-10T06:56:43Z</time>
      </trkpt>
      <trkpt lat="47.32015" lon="-1.65809">
        <ele>54.5</ele>
        <time>2015-05-10T06:56:44Z</time>
      </trkpt>
      <trkpt lat="47.32019" lon="-1.65813">
        <ele>54.3</ele>
        <time>2015-05-10T06:56:45Z</time>
      </trkpt>
      <trkpt lat="47.32022" lon="-1.65817">
        <ele>54</ele>
        <time>2015-05-10T06:56:46Z</time>
      </trkpt>
      <trkpt lat="47.32025" lon="-1.65821">
        <ele>53.8</ele>
        <time>2015-05-10T06:56:47Z</time>
      </trkpt>
      <trkpt lat="47.32027" lon="-1.65826">
        <ele>53.5</ele>
        <time>2015-05-10T06:56:48Z</time>
      </trkpt>
      <trkpt lat="47.32029" lon="-1.6583">
        <ele>53.3</ele>
        <time>2015-05-10T06:56:49Z</time>
      </trkpt>
      <trkpt lat="47.32031" lon="-1.65833">
        <ele>53.1</ele>
        <time>2015-05-10T06:56:50Z</time>
      </trkpt>
      <trkpt lat="47.32033" lon="-1.65836">
        <ele>53</ele>
        <time>2015-05-10T06:56:51Z</time>
      </trkpt>
      <trkpt lat="47.32035" lon="-1.6584">
        <ele>52.8</ele>
        <time>2015-05-10T06:56:52Z</time>
      </trkpt>
      <trkpt lat="47.32038" lon="-1.65843">
        <ele>52.6</ele>
        <time>2015-05-10T06:56:53Z</time>
      </trkpt>
      <trkpt lat="47.3204" lon="-1.65846">
        <ele>52.4</ele>
        <time>2015-05-10T06:56:54Z</time>
      </trkpt>
      <trkpt lat="47.32043" lon="-1.65848">
        <ele>52.3</ele>
        <time>2015-05-10T06:56:55Z</time>
      </trkpt>
      <trkpt lat="47.32046" lon="-1.65851">
        <ele>52</ele>
        <time>2015-05-10T06:56:56Z</time>
      </trkpt>
      <trkpt lat="47.32049" lon="-1.65855">
        <ele>51.7</ele>
        <time>2015-05-10T06:56:57Z</time>
      </trkpt>
      <trkpt lat="47.32052" lon="-1.65859">
        <ele>51.5</ele>
        <time>2015-05-10T06:56:58Z</time>
      </trkpt>
      <trkpt lat="47.32055" lon="-1.65863">
        <ele>51.2</ele>
        <time>2015-05-10T06:56:59Z</time>
      </trkpt>
      <trkpt lat="47.32058" lon="-1.65866">
        <ele>51</ele>
        <time>2015-05-10T06:57:00Z</time>
      </trkpt>
      <trkpt lat="47.32061" lon="-1.65869">
        <ele>50.8</ele>
        <time>2015-05-10T06:57:01Z</time>
      </trkpt>
      <trkpt lat="47.32064" lon="-1.65874">
        <ele>50.5</ele>
        <time>2015-05-10T06:57:02Z</time>
      </trkpt>
      <trkpt lat="47.3207" lon="-1.6588">
        <ele>49.9</ele>
        <time>2015-05-10T06:57:03Z</time>
      </trkpt>
      <trkpt lat="47.32074" lon="-1.65888">
        <ele>49.3</ele>
        <time>2015-05-10T06:57:04Z</time>
      </trkpt>
      <trkpt lat="47.32078" lon="-1.65896">
        <ele>48.6</ele>
        <time>2015-05-10T06:57:05Z</time>
      </trkpt>
      <trkpt lat="47.32082" lon="-1.65904">
        <ele>47.9</ele>
        <time>2015-05-10T06:57:06Z</time>
      </trkpt>
      <trkpt lat="47.32085" lon="-1.6591">
        <ele>47.5</ele>
        <time>2015-05-10T06:57:07Z</time>
      </trkpt>
      <trkpt lat="47.32088" lon="-1.65917">
        <ele>46.9</ele>
        <time>2015-05-10T06:57:08Z</time>
      </trkpt>
      <trkpt lat="47.32089" lon="-1.65922">
        <ele>46.6</ele>
        <time>2015-05-10T06:57:09Z</time>
      </trkpt>
      <trkpt lat="47.32092" lon="-1.65927">
        <ele>46.2</ele>
        <time>2015-05-10T06:57:10Z</time>
      </trkpt>
      <trkpt lat="47.32095" lon="-1.65934">
        <ele>45.7</ele>
        <time>2015-05-10T06:57:11Z</time>
      </trkpt>
      <trkpt lat="47.32097" lon="-1.65943">
        <ele>45.1</ele>
        <time>2015-05-10T06:57:12Z</time>
      </trkpt>
      <trkpt lat="47.321" lon="-1.65949">
        <ele>44.6</ele>
        <time>2015-05-10T06:57:13Z</time>
      </trkpt>
      <trkpt lat="47.32102" lon="-1.65955">
        <ele>44.2</ele>
        <time>2015-05-10T06:57:14Z</time>
      </trkpt>
      <trkpt lat="47.32106" lon="-1.65961">
        <ele>43.7</ele>
        <time>2015-05-10T06:57:15Z</time>
      </trkpt>
      <trkpt lat="47.3211" lon="-1.65969">
        <ele>42.9</ele>
        <time>2015-05-10T06:57:16Z</time>
      </trkpt>
      <trkpt lat="47.32112" lon="-1.65974">
        <ele>42.4</ele>
        <time>2015-05-10T06:57:17Z</time>
      </trkpt>
      <trkpt lat="47.32114" lon="-1.65979">
        <ele>41.9</ele>
        <time>2015-05-10T06:57:18Z</time>
      </trkpt>
      <trkpt lat="47.32116" lon="-1.65983">
        <ele>41.4</ele>
        <time>2015-05-10T06:57:19Z</time>
      </trkpt>
      <trkpt lat="47.32118" lon="-1.65988">
        <ele>40.9</ele>
        <time>2015-05-10T06:57:20Z</time>
      </trkpt>
      <trkpt lat="47.32119" lon="-1.65992">
        <ele>40.4</ele>
        <time>2015-05-10T06:57:21Z</time>
      </trkpt>
      <trkpt lat="47.3212" lon="-1.65996">
        <ele>40</ele>
        <time>2015-05-10T06:57:22Z</time>
      </trkpt>
      <trkpt lat="47.32124" lon="-1.66003">
        <ele>39.2</ele>
        <time>2015-05-10T06:57:24Z</time>
      </trkpt>
      <trkpt lat="47.32125" lon="-1.6601">
        <ele>38.5</ele>
        <time>2015-05-10T06:57:25Z</time>
      </trkpt>
      <trkpt lat="47.32126" lon="-1.66017">
        <ele>37.7</ele>
        <time>2015-05-10T06:57:26Z</time>
      </trkpt>
      <trkpt lat="47.32126" lon="-1.66025">
        <ele>36.8</ele>
        <time>2015-05-10T06:57:27Z</time>
      </trkpt>
      <trkpt lat="47.32126" lon="-1.66033">
        <ele>35.8</ele>
        <time>2015-05-10T06:57:28Z</time>
      </trkpt>
      <trkpt lat="47.32127" lon="-1.6604">
        <ele>35</ele>
        <time>2015-05-10T06:57:29Z</time>
      </trkpt>
      <trkpt lat="47.32131" lon="-1.66048">
        <ele>34.2</ele>
        <time>2015-05-10T06:57:30Z</time>
      </trkpt>
      <trkpt lat="47.32135" lon="-1.66057">
        <ele>33.5</ele>
        <time>2015-05-10T06:57:31Z</time>
      </trkpt>
      <trkpt lat="47.32137" lon="-1.66067">
        <ele>32.8</ele>
        <time>2015-05-10T06:57:32Z</time>
      </trkpt>
      <trkpt lat="47.3214" lon="-1.66077">
        <ele>32.1</ele>
        <time>2015-05-10T06:57:33Z</time>
      </trkpt>
      <trkpt lat="47.32144" lon="-1.66088">
        <ele>31.2</ele>
        <time>2015-05-10T06:57:34Z</time>
      </trkpt>
      <trkpt lat="47.32149" lon="-1.66099">
        <ele>30.4</ele>
        <time>2015-05-10T06:57:35Z</time>
      </trkpt>
      <trkpt lat="47.32152" lon="-1.66109">
        <ele>29.8</ele>
        <time>2015-05-10T06:57:36Z</time>
      </trkpt>
      <trkpt lat="47.32154" lon="-1.66119">
        <ele>29.2</ele>
        <time>2015-05-10T06:57:37Z</time>
      </trkpt>
      <trkpt lat="47.32154" lon="-1.66128">
        <ele>29</ele>
        <time>2015-05-10T06:57:38Z</time>
      </trkpt>
      <trkpt lat="47.32153" lon="-1.66137">
        <ele>29.1</ele>
        <time>2015-05-10T06:57:39Z</time>
      </trkpt>
      <trkpt lat="47.3215" lon="-1.66144">
        <ele>29.3</ele>
        <time>2015-05-10T06:57:40Z</time>
      </trkpt>
      <trkpt lat="47.32146" lon="-1.66152">
        <ele>29.5</ele>
        <time>2015-05-10T06:57:41Z</time>
      </trkpt>
      <trkpt lat="47.32141" lon="-1.6616">
        <ele>29.7</ele>
        <time>2015-05-10T06:57:42Z</time>
      </trkpt>
      <trkpt lat="47.32137" lon="-1.66167">
        <ele>30</ele>
        <time>2015-05-10T06:57:43Z</time>
      </trkpt>
      <trkpt lat="47.32132" lon="-1.66174">
        <ele>30.3</ele>
        <time>2015-05-10T06:57:44Z</time>
      </trkpt>
      <trkpt lat="47.32129" lon="-1.6618">
        <ele>30.5</ele>
        <time>2015-05-10T06:57:45Z</time>
      </trkpt>
      <trkpt lat="47.32125" lon="-1.66188">
        <ele>30.7</ele>
        <time>2015-05-10T06:57:46Z</time>
      </trkpt>
      <trkpt lat="47.32122" lon="-1.66196">
        <ele>30.9</ele>
        <time>2015-05-10T06:57:47Z</time>
      </trkpt>
      <trkpt lat="47.32118" lon="-1.66204">
        <ele>31.1</ele>
        <time>2015-05-10T06:57:48Z</time>
      </trkpt>
      <trkpt lat="47.32117" lon="-1.6621">
        <ele>31.2</ele>
        <time>2015-05-10T06:57:49Z</time>
      </trkpt>
      <trkpt lat="47.32116" lon="-1.66218">
        <ele>31</ele>
        <time>2015-05-10T06:57:50Z</time>
      </trkpt>
      <trkpt lat="47.32114" lon="-1.66226">
        <ele>30.9</ele>
        <time>2015-05-10T06:57:51Z</time>
      </trkpt>
      <trkpt lat="47.32112" lon="-1.66234">
        <ele>30.7</ele>
        <time>2015-05-10T06:57:52Z</time>
      </trkpt>
      <trkpt lat="47.3211" lon="-1.66242">
        <ele>30.6</ele>
        <time>2015-05-10T06:57:53Z</time>
      </trkpt>
      <trkpt lat="47.32107" lon="-1.66251">
        <ele>30.5</ele>
        <time>2015-05-10T06:57:54Z</time>
      </trkpt>
      <trkpt lat="47.32105" lon="-1.66259">
        <ele>30.4</ele>
        <time>2015-05-10T06:57:55Z</time>
      </trkpt>
      <trkpt lat="47.32104" lon="-1.66266">
        <ele>30.3</ele>
        <time>2015-05-10T06:57:56Z</time>
      </trkpt>
      <trkpt lat="47.32102" lon="-1.66272">
        <ele>30.2</ele>
        <time>2015-05-10T06:57:57Z</time>
      </trkpt>
      <trkpt lat="47.321" lon="-1.6628">
        <ele>30.1</ele>
        <time>2015-05-10T06:57:58Z</time>
      </trkpt>
      <trkpt lat="47.32099" lon="-1.66287">
        <ele>30</ele>
        <time>2015-05-10T06:57:59Z</time>
      </trkpt>
      <trkpt lat="47.32097" lon="-1.66294">
        <ele>30.1</ele>
        <time>2015-05-10T06:58:00Z</time>
      </trkpt>
      <trkpt lat="47.32095" lon="-1.66302">
        <ele>30.3</ele>
        <time>2015-05-10T06:58:01Z</time>
      </trkpt>
      <trkpt lat="47.32093" lon="-1.66309">
        <ele>30.5</ele>
        <time>2015-05-10T06:58:02Z</time>
      </trkpt>
      <trkpt lat="47.3209" lon="-1.66316">
        <ele>30.8</ele>
        <time>2015-05-10T06:58:03Z</time>
      </trkpt>
      <trkpt lat="47.32089" lon="-1.66323">
        <ele>31</ele>
        <time>2015-05-10T06:58:04Z</time>
      </trkpt>
      <trkpt lat="47.32087" lon="-1.6633">
        <ele>31.3</ele>
        <time>2015-05-10T06:58:05Z</time>
      </trkpt>
      <trkpt lat="47.32084" lon="-1.66336">
        <ele>31.5</ele>
        <time>2015-05-10T06:58:06Z</time>
      </trkpt>
      <trkpt lat="47.32082" lon="-1.66343">
        <ele>31.8</ele>
        <time>2015-05-10T06:58:07Z</time>
      </trkpt>
      <trkpt lat="47.32081" lon="-1.6635">
        <ele>32</ele>
        <time>2015-05-10T06:58:08Z</time>
      </trkpt>
      <trkpt lat="47.32078" lon="-1.66356">
        <ele>32.3</ele>
        <time>2015-05-10T06:58:09Z</time>
      </trkpt>
      <trkpt lat="47.32077" lon="-1.66362">
        <ele>32.6</ele>
        <time>2015-05-10T06:58:10Z</time>
      </trkpt>
      <trkpt lat="47.32075" lon="-1.66368">
        <ele>32.8</ele>
        <time>2015-05-10T06:58:11Z</time>
      </trkpt>
      <trkpt lat="47.32072" lon="-1.66373">
        <ele>33.1</ele>
        <time>2015-05-10T06:58:12Z</time>
      </trkpt>
      <trkpt lat="47.3207" lon="-1.66379">
        <ele>33.4</ele>
        <time>2015-05-10T06:58:13Z</time>
      </trkpt>
      <trkpt lat="47.32068" lon="-1.66385">
        <ele>33.7</ele>
        <time>2015-05-10T06:58:14Z</time>
      </trkpt>
      <trkpt lat="47.32065" lon="-1.6639">
        <ele>34</ele>
        <time>2015-05-10T06:58:15Z</time>
      </trkpt>
      <trkpt lat="47.32063" lon="-1.66396">
        <ele>34.3</ele>
        <time>2015-05-10T06:58:16Z</time>
      </trkpt>
      <trkpt lat="47.32062" lon="-1.66402">
        <ele>34.6</ele>
        <time>2015-05-10T06:58:17Z</time>
      </trkpt>
      <trkpt lat="47.32059" lon="-1.66407">
        <ele>35</ele>
        <time>2015-05-10T06:58:18Z</time>
      </trkpt>
      <trkpt lat="47.32057" lon="-1.66414">
        <ele>35.3</ele>
        <time>2015-05-10T06:58:19Z</time>
      </trkpt>
      <trkpt lat="47.32054" lon="-1.6642">
        <ele>35.7</ele>
        <time>2015-05-10T06:58:20Z</time>
      </trkpt>
      <trkpt lat="47.32052" lon="-1.66425">
        <ele>36</ele>
        <time>2015-05-10T06:58:21Z</time>
      </trkpt>
      <trkpt lat="47.3205" lon="-1.6643">
        <ele>36.3</ele>
        <time>2015-05-10T06:58:22Z</time>
      </trkpt>
      <trkpt lat="47.32049" lon="-1.66434">
        <ele>36.6</ele>
        <time>2015-05-10T06:58:23Z</time>
      </trkpt>
      <trkpt lat="47.32047" lon="-1.6644">
        <ele>36.9</ele>
        <time>2015-05-10T06:58:24Z</time>
      </trkpt>
      <trkpt lat="47.32046" lon="-1.66445">
        <ele>37.2</ele>
        <time>2015-05-10T06:58:25Z</time>
      </trkpt>
      <trkpt lat="47.32044" lon="-1.6645">
        <ele>37.5</ele>
        <time>2015-05-10T06:58:26Z</time>
      </trkpt>
      <trkpt lat="47.32043" lon="-1.66455">
        <ele>37.8</ele>
        <time>2015-05-10T06:58:27Z</time>
      </trkpt>
      <trkpt lat="47.32042" lon="-1.66461">
        <ele>38</ele>
        <time>2015-05-10T06:58:28Z</time>
      </trkpt>
      <trkpt lat="47.3204" lon="-1.66466">
        <ele>38.1</ele>
        <time>2015-05-10T06:58:29Z</time>
      </trkpt>
      <trkpt lat="47.32039" lon="-1.6647">
        <ele>38.1</ele>
        <time>2015-05-10T06:58:30Z</time>
      </trkpt>
      <trkpt lat="47.32038" lon="-1.66474">
        <ele>38.2</ele>
        <time>2015-05-10T06:58:31Z</time>
      </trkpt>
      <trkpt lat="47.32037" lon="-1.66479">
        <ele>38.3</ele>
        <time>2015-05-10T06:58:32Z</time>
      </trkpt>
      <trkpt lat="47.32037" lon="-1.66485">
        <ele>38.3</ele>
        <time>2015-05-10T06:58:34Z</time>
      </trkpt>
      <trkpt lat="47.32033" lon="-1.66493">
        <ele>38.5</ele>
        <time>2015-05-10T06:58:36Z</time>
      </trkpt>
      <trkpt lat="47.32031" lon="-1.66497">
        <ele>38.5</ele>
        <time>2015-05-10T06:58:37Z</time>
      </trkpt>
      <trkpt lat="47.32031" lon="-1.66501">
        <ele>38.6</ele>
        <time>2015-05-10T06:58:38Z</time>
      </trkpt>
      <trkpt lat="47.3203" lon="-1.66506">
        <ele>38.6</ele>
        <time>2015-05-10T06:58:39Z</time>
      </trkpt>
      <trkpt lat="47.3203" lon="-1.66513">
        <ele>38.8</ele>
        <time>2015-05-10T06:58:41Z</time>
      </trkpt>
      <trkpt lat="47.3203" lon="-1.66517">
        <ele>38.8</ele>
        <time>2015-05-10T06:58:42Z</time>
      </trkpt>
      <trkpt lat="47.3203" lon="-1.66523">
        <ele>38.9</ele>
        <time>2015-05-10T06:58:44Z</time>
      </trkpt>
      <trkpt lat="47.32031" lon="-1.66529">
        <ele>39</ele>
        <time>2015-05-10T06:58:46Z</time>
      </trkpt>
      <trkpt lat="47.32031" lon="-1.66533">
        <ele>39</ele>
        <time>2015-05-10T06:58:48Z</time>
      </trkpt>
      <trkpt lat="47.32031" lon="-1.66537">
        <ele>39.1</ele>
        <time>2015-05-10T06:58:51Z</time>
      </trkpt>
      <trkpt lat="47.32024" lon="-1.66542">
        <ele>39.2</ele>
        <time>2015-05-10T07:01:48Z</time>
      </trkpt>
      <trkpt lat="47.32021" lon="-1.66547">
        <ele>39.4</ele>
        <time>2015-05-10T07:01:50Z</time>
      </trkpt>
      <trkpt lat="47.32018" lon="-1.66552">
        <ele>39.5</ele>
        <time>2015-05-10T07:01:51Z</time>
      </trkpt>
      <trkpt lat="47.32015" lon="-1.66556">
        <ele>39.7</ele>
        <time>2015-05-10T07:01:52Z</time>
      </trkpt>
      <trkpt lat="47.32011" lon="-1.66559">
        <ele>39.8</ele>
        <time>2015-05-10T07:01:53Z</time>
      </trkpt>
      <trkpt lat="47.32008" lon="-1.66561">
        <ele>39.9</ele>
        <time>2015-05-10T07:01:54Z</time>
      </trkpt>
      <trkpt lat="47.32003" lon="-1.66565">
        <ele>40.1</ele>
        <time>2015-05-10T07:01:56Z</time>
      </trkpt>
      <trkpt lat="47.32001" lon="-1.66569">
        <ele>40.3</ele>
        <time>2015-05-10T07:01:57Z</time>
      </trkpt>
      <trkpt lat="47.31999" lon="-1.66571">
        <ele>40.4</ele>
        <time>2015-05-10T07:01:58Z</time>
      </trkpt>
      <trkpt lat="47.31996" lon="-1.66574">
        <ele>40.6</ele>
        <time>2015-05-10T07:01:59Z</time>
      </trkpt>
      <trkpt lat="47.31994" lon="-1.66576">
        <ele>40.7</ele>
        <time>2015-05-10T07:02:00Z</time>
      </trkpt>
      <trkpt lat="47.31992" lon="-1.66579">
        <ele>40.9</ele>
        <time>2015-05-10T07:02:01Z</time>
      </trkpt>
      <trkpt lat="47.3199" lon="-1.66582">
        <ele>41</ele>
        <time>2015-05-10T07:02:02Z</time>
      </trkpt>
      <trkpt lat="47.31986" lon="-1.66587">
        <ele>41.3</ele>
        <time>2015-05-10T07:02:04Z</time>
      </trkpt>
      <trkpt lat="47.31984" lon="-1.6659">
        <ele>41.5</ele>
        <time>2015-05-10T07:02:05Z</time>
      </trkpt>
      <trkpt lat="47.31981" lon="-1.66596">
        <ele>41.8</ele>
        <time>2015-05-10T07:02:07Z</time>
      </trkpt>
      <trkpt lat="47.31978" lon="-1.66602">
        <ele>42.2</ele>
        <time>2015-05-10T07:02:09Z</time>
      </trkpt>
      <trkpt lat="47.31974" lon="-1.66607">
        <ele>42.5</ele>
        <time>2015-05-10T07:02:11Z</time>
      </trkpt>
      <trkpt lat="47.31972" lon="-1.6661">
        <ele>42.7</ele>
        <time>2015-05-10T07:02:12Z</time>
      </trkpt>
      <trkpt lat="47.3197" lon="-1.66614">
        <ele>42.9</ele>
        <time>2015-05-10T07:02:13Z</time>
      </trkpt>
      <trkpt lat="47.31967" lon="-1.66619">
        <ele>43.3</ele>
        <time>2015-05-10T07:02:15Z</time>
      </trkpt>
      <trkpt lat="47.31964" lon="-1.66622">
        <ele>43.6</ele>
        <time>2015-05-10T07:02:16Z</time>
      </trkpt>
      <trkpt lat="47.31962" lon="-1.66625">
        <ele>43.8</ele>
        <time>2015-05-10T07:02:17Z</time>
      </trkpt>
      <trkpt lat="47.3196" lon="-1.66629">
        <ele>44</ele>
        <time>2015-05-10T07:02:18Z</time>
      </trkpt>
      <trkpt lat="47.31958" lon="-1.66635">
        <ele>44.2</ele>
        <time>2015-05-10T07:02:20Z</time>
      </trkpt>
      <trkpt lat="47.31954" lon="-1.66641">
        <ele>44.4</ele>
        <time>2015-05-10T07:02:22Z</time>
      </trkpt>
      <trkpt lat="47.31951" lon="-1.66645">
        <ele>44.5</ele>
        <time>2015-05-10T07:02:23Z</time>
      </trkpt>
      <trkpt lat="47.3195" lon="-1.66649">
        <ele>44.7</ele>
        <time>2015-05-10T07:02:24Z</time>
      </trkpt>
      <trkpt lat="47.31947" lon="-1.66653">
        <ele>44.8</ele>
        <time>2015-05-10T07:02:25Z</time>
      </trkpt>
      <trkpt lat="47.31945" lon="-1.66657">
        <ele>44.9</ele>
        <time>2015-05-10T07:02:26Z</time>
      </trkpt>
      <trkpt lat="47.31943" lon="-1.66661">
        <ele>45.1</ele>
        <time>2015-05-10T07:02:27Z</time>
      </trkpt>
      <trkpt lat="47.31941" lon="-1.66664">
        <ele>45.2</ele>
        <time>2015-05-10T07:02:28Z</time>
      </trkpt>
      <trkpt lat="47.3194" lon="-1.66667">
        <ele>45.4</ele>
        <time>2015-05-10T07:02:29Z</time>
      </trkpt>
      <trkpt lat="47.31938" lon="-1.66671">
        <ele>45.5</ele>
        <time>2015-05-10T07:02:30Z</time>
      </trkpt>
      <trkpt lat="47.31936" lon="-1.66675">
        <ele>45.7</ele>
        <time>2015-05-10T07:02:31Z</time>
      </trkpt>
      <trkpt lat="47.31934" lon="-1.66679">
        <ele>45.9</ele>
        <time>2015-05-10T07:02:32Z</time>
      </trkpt>
      <trkpt lat="47.31932" lon="-1.66683">
        <ele>46</ele>
        <time>2015-05-10T07:02:33Z</time>
      </trkpt>
      <trkpt lat="47.3193" lon="-1.66687">
        <ele>46.2</ele>
        <time>2015-05-10T07:02:34Z</time>
      </trkpt>
      <trkpt lat="47.31929" lon="-1.66691">
        <ele>46.4</ele>
        <time>2015-05-10T07:02:35Z</time>
      </trkpt>
      <trkpt lat="47.31927" lon="-1.66695">
        <ele>46.7</ele>
        <time>2015-05-10T07:02:36Z</time>
      </trkpt>
      <trkpt lat="47.31925" lon="-1.66698">
        <ele>46.8</ele>
        <time>2015-05-10T07:02:37Z</time>
      </trkpt>
      <trkpt lat="47.31923" lon="-1.66702">
        <ele>47</ele>
        <time>2015-05-10T07:02:38Z</time>
      </trkpt>
      <trkpt lat="47.31921" lon="-1.66705">
        <ele>47.2</ele>
        <time>2015-05-10T07:02:39Z</time>
      </trkpt>
      <trkpt lat="47.31919" lon="-1.66709">
        <ele>47.4</ele>
        <time>2015-05-10T07:02:40Z</time>
      </trkpt>
      <trkpt lat="47.31918" lon="-1.66712">
        <ele>47.6</ele>
        <time>2015-05-10T07:02:41Z</time>
      </trkpt>
      <trkpt lat="47.31916" lon="-1.66715">
        <ele>47.8</ele>
        <time>2015-05-10T07:02:42Z</time>
      </trkpt>
      <trkpt lat="47.31914" lon="-1.66718">
        <ele>48</ele>
        <time>2015-05-10T07:02:43Z</time>
      </trkpt>
      <trkpt lat="47.31911" lon="-1.66724">
        <ele>48.2</ele>
        <time>2015-05-10T07:02:45Z</time>
      </trkpt>
      <trkpt lat="47.3191" lon="-1.66727">
        <ele>48.4</ele>
        <time>2015-05-10T07:02:46Z</time>
      </trkpt>
      <trkpt lat="47.31908" lon="-1.66731">
        <ele>48.6</ele>
        <time>2015-05-10T07:02:47Z</time>
      </trkpt>
      <trkpt lat="47.31904" lon="-1.66736">
        <ele>48.9</ele>
        <time>2015-05-10T07:02:49Z</time>
      </trkpt>
      <trkpt lat="47.31902" lon="-1.66738">
        <ele>49.1</ele>
        <time>2015-05-10T07:02:50Z</time>
      </trkpt>
      <trkpt lat="47.319" lon="-1.66741">
        <ele>49.3</ele>
        <time>2015-05-10T07:02:51Z</time>
      </trkpt>
      <trkpt lat="47.31898" lon="-1.66744">
        <ele>49.4</ele>
        <time>2015-05-10T07:02:52Z</time>
      </trkpt>
      <trkpt lat="47.31896" lon="-1.66747">
        <ele>49.7</ele>
        <time>2015-05-10T07:02:53Z</time>
      </trkpt>
      <trkpt lat="47.31893" lon="-1.6675">
        <ele>49.8</ele>
        <time>2015-05-10T07:02:54Z</time>
      </trkpt>
      <trkpt lat="47.31891" lon="-1.66752">
        <ele>50</ele>
        <time>2015-05-10T07:02:55Z</time>
      </trkpt>
      <trkpt lat="47.31888" lon="-1.66755">
        <ele>50.2</ele>
        <time>2015-05-10T07:02:56Z</time>
      </trkpt>
      <trkpt lat="47.31885" lon="-1.66757">
        <ele>50.4</ele>
        <time>2015-05-10T07:02:57Z</time>
      </trkpt>
      <trkpt lat="47.31883" lon="-1.6676">
        <ele>50.6</ele>
        <time>2015-05-10T07:02:58Z</time>
      </trkpt>
      <trkpt lat="47.31881" lon="-1.66763">
        <ele>50.7</ele>
        <time>2015-05-10T07:02:59Z</time>
      </trkpt>
      <trkpt lat="47.31877" lon="-1.66768">
        <ele>51.1</ele>
        <time>2015-05-10T07:03:01Z</time>
      </trkpt>
      <trkpt lat="47.31874" lon="-1.66773">
        <ele>51.3</ele>
        <time>2015-05-10T07:03:03Z</time>
      </trkpt>
      <trkpt lat="47.31872" lon="-1.66777">
        <ele>51.4</ele>
        <time>2015-05-10T07:03:04Z</time>
      </trkpt>
      <trkpt lat="47.3187" lon="-1.6678">
        <ele>51.5</ele>
        <time>2015-05-10T07:03:05Z</time>
      </trkpt>
      <trkpt lat="47.31868" lon="-1.66783">
        <ele>51.6</ele>
        <time>2015-05-10T07:03:06Z</time>
      </trkpt>
      <trkpt lat="47.31864" lon="-1.66788">
        <ele>51.8</ele>
        <time>2015-05-10T07:03:08Z</time>
      </trkpt>
      <trkpt lat="47.3186" lon="-1.66793">
        <ele>51.8</ele>
        <time>2015-05-10T07:03:10Z</time>
      </trkpt>
      <trkpt lat="47.31856" lon="-1.66798">
        <ele>51.9</ele>
        <time>2015-05-10T07:03:12Z</time>
      </trkpt>
      <trkpt lat="47.31854" lon="-1.66802">
        <ele>51.9</ele>
        <time>2015-05-10T07:03:13Z</time>
      </trkpt>
      <trkpt lat="47.31852" lon="-1.66805">
        <ele>51.9</ele>
        <time>2015-05-10T07:03:14Z</time>
      </trkpt>
      <trkpt lat="47.3185" lon="-1.66807">
        <ele>51.9</ele>
        <time>2015-05-10T07:03:15Z</time>
      </trkpt>
      <trkpt lat="47.31846" lon="-1.66813">
        <ele>52</ele>
        <time>2015-05-10T07:03:17Z</time>
      </trkpt>
      <trkpt lat="47.31842" lon="-1.66819">
        <ele>52.1</ele>
        <time>2015-05-10T07:03:19Z</time>
      </trkpt>
      <trkpt lat="47.3184" lon="-1.66822">
        <ele>52.1</ele>
        <time>2015-05-10T07:03:20Z</time>
      </trkpt>
      <trkpt lat="47.31838" lon="-1.66825">
        <ele>52.1</ele>
        <time>2015-05-10T07:03:21Z</time>
      </trkpt>
      <trkpt lat="47.31836" lon="-1.66828">
        <ele>52.2</ele>
        <time>2015-05-10T07:03:22Z</time>
      </trkpt>
      <trkpt lat="47.31833" lon="-1.66833">
        <ele>52.2</ele>
        <time>2015-05-10T07:03:24Z</time>
      </trkpt>
      <trkpt lat="47.31832" lon="-1.66838">
        <ele>52.3</ele>
        <time>2015-05-10T07:03:26Z</time>
      </trkpt>
      <trkpt lat="47.3183" lon="-1.66844">
        <ele>52.4</ele>
        <time>2015-05-10T07:03:28Z</time>
      </trkpt>
      <trkpt lat="47.31828" lon="-1.6685">
        <ele>52.5</ele>
        <time>2015-05-10T07:03:30Z</time>
      </trkpt>
      <trkpt lat="47.31828" lon="-1.66855">
        <ele>52.6</ele>
        <time>2015-05-10T07:03:32Z</time>
      </trkpt>
      <trkpt lat="47.31827" lon="-1.66859">
        <ele>52.7</ele>
        <time>2015-05-10T07:03:34Z</time>
      </trkpt>
      <trkpt lat="47.31826" lon="-1.66866">
        <ele>52.8</ele>
        <time>2015-05-10T07:03:36Z</time>
      </trkpt>
      <trkpt lat="47.31825" lon="-1.66873">
        <ele>53</ele>
        <time>2015-05-10T07:03:38Z</time>
      </trkpt>
      <trkpt lat="47.31823" lon="-1.66876">
        <ele>53</ele>
        <time>2015-05-10T07:03:39Z</time>
      </trkpt>
      <trkpt lat="47.3182" lon="-1.66879">
        <ele>53</ele>
        <time>2015-05-10T07:03:40Z</time>
      </trkpt>
      <trkpt lat="47.31819" lon="-1.66883">
        <ele>53</ele>
        <time>2015-05-10T07:03:41Z</time>
      </trkpt>
      <trkpt lat="47.31818" lon="-1.66887">
        <ele>53.1</ele>
        <time>2015-05-10T07:03:42Z</time>
      </trkpt>
      <trkpt lat="47.31816" lon="-1.6689">
        <ele>53.1</ele>
        <time>2015-05-10T07:03:43Z</time>
      </trkpt>
      <trkpt lat="47.31814" lon="-1.66896">
        <ele>53.1</ele>
        <time>2015-05-10T07:03:45Z</time>
      </trkpt>
      <trkpt lat="47.31811" lon="-1.66902">
        <ele>53.2</ele>
        <time>2015-05-10T07:03:47Z</time>
      </trkpt>
      <trkpt lat="47.31809" lon="-1.66906">
        <ele>53.2</ele>
        <time>2015-05-10T07:03:49Z</time>
      </trkpt>
      <trkpt lat="47.31807" lon="-1.6691">
        <ele>53.3</ele>
        <time>2015-05-10T07:03:51Z</time>
      </trkpt>
      <trkpt lat="47.31804" lon="-1.66916">
        <ele>53.3</ele>
        <time>2015-05-10T07:03:53Z</time>
      </trkpt>
      <trkpt lat="47.31802" lon="-1.66918">
        <ele>53.4</ele>
        <time>2015-05-10T07:03:54Z</time>
      </trkpt>
      <trkpt lat="47.318" lon="-1.66923">
        <ele>53.5</ele>
        <time>2015-05-10T07:03:56Z</time>
      </trkpt>
      <trkpt lat="47.31793" lon="-1.66933">
        <ele>53.7</ele>
        <time>2015-05-10T07:03:58Z</time>
      </trkpt>
      <trkpt lat="47.31789" lon="-1.66938">
        <ele>54.1</ele>
        <time>2015-05-10T07:03:59Z</time>
      </trkpt>
      <trkpt lat="47.31787" lon="-1.66941">
        <ele>54.5</ele>
        <time>2015-05-10T07:04:00Z</time>
      </trkpt>
      <trkpt lat="47.31783" lon="-1.66946">
        <ele>55</ele>
        <time>2015-05-10T07:04:02Z</time>
      </trkpt>
      <trkpt lat="47.3178" lon="-1.66948">
        <ele>55.6</ele>
        <time>2015-05-10T07:04:03Z</time>
      </trkpt>
      <trkpt lat="47.31776" lon="-1.66949">
        <ele>56.1</ele>
        <time>2015-05-10T07:04:04Z</time>
      </trkpt>
      <trkpt lat="47.31771" lon="-1.66952">
        <ele>56.9</ele>
        <time>2015-05-10T07:04:06Z</time>
      </trkpt>
      <trkpt lat="47.31768" lon="-1.66954">
        <ele>57.3</ele>
        <time>2015-05-10T07:04:07Z</time>
      </trkpt>
      <trkpt lat="47.31766" lon="-1.66956">
        <ele>57.7</ele>
        <time>2015-05-10T07:04:08Z</time>
      </trkpt>
      <trkpt lat="47.31763" lon="-1.66958">
        <ele>58.2</ele>
        <time>2015-05-10T07:04:09Z</time>
      </trkpt>
      <trkpt lat="47.31759" lon="-1.66962">
        <ele>58.7</ele>
        <time>2015-05-10T07:04:11Z</time>
      </trkpt>
      <trkpt lat="47.31755" lon="-1.66965">
        <ele>59.1</ele>
        <time>2015-05-10T07:04:13Z</time>
      </trkpt>
      <trkpt lat="47.31751" lon="-1.66967">
        <ele>59.6</ele>
        <time>2015-05-10T07:04:15Z</time>
      </trkpt>
      <trkpt lat="47.31747" lon="-1.6697">
        <ele>60.3</ele>
        <time>2015-05-10T07:04:17Z</time>
      </trkpt>
      <trkpt lat="47.31743" lon="-1.66971">
        <ele>60.9</ele>
        <time>2015-05-10T07:04:18Z</time>
      </trkpt>
      <trkpt lat="47.3174" lon="-1.66973">
        <ele>61.4</ele>
        <time>2015-05-10T07:04:19Z</time>
      </trkpt>
      <trkpt lat="47.31737" lon="-1.66975">
        <ele>61.8</ele>
        <time>2015-05-10T07:04:20Z</time>
      </trkpt>
      <trkpt lat="47.31735" lon="-1.66977">
        <ele>62.2</ele>
        <time>2015-05-10T07:04:21Z</time>
      </trkpt>
      <trkpt lat="47.31731" lon="-1.6698">
        <ele>62.8</ele>
        <time>2015-05-10T07:04:22Z</time>
      </trkpt>
      <trkpt lat="47.31729" lon="-1.66982">
        <ele>63.2</ele>
        <time>2015-05-10T07:04:23Z</time>
      </trkpt>
      <trkpt lat="47.31722" lon="-1.66985">
        <ele>64.3</ele>
        <time>2015-05-10T07:04:25Z</time>
      </trkpt>
      <trkpt lat="47.31719" lon="-1.66988">
        <ele>64.9</ele>
        <time>2015-05-10T07:04:26Z</time>
      </trkpt>
      <trkpt lat="47.31715" lon="-1.66991">
        <ele>65.7</ele>
        <time>2015-05-10T07:04:28Z</time>
      </trkpt>
      <trkpt lat="47.3171" lon="-1.66992">
        <ele>66.6</ele>
        <time>2015-05-10T07:04:30Z</time>
      </trkpt>
      <trkpt lat="47.31706" lon="-1.66993">
        <ele>66.9</ele>
        <time>2015-05-10T07:04:31Z</time>
      </trkpt>
      <trkpt lat="47.31702" lon="-1.66998">
        <ele>67.2</ele>
        <time>2015-05-10T07:04:33Z</time>
      </trkpt>
      <trkpt lat="47.31699" lon="-1.66999">
        <ele>67.3</ele>
        <time>2015-05-10T07:04:34Z</time>
      </trkpt>
      <trkpt lat="47.31695" lon="-1.67002">
        <ele>67.5</ele>
        <time>2015-05-10T07:04:35Z</time>
      </trkpt>
      <trkpt lat="47.31692" lon="-1.67005">
        <ele>67.7</ele>
        <time>2015-05-10T07:04:36Z</time>
      </trkpt>
      <trkpt lat="47.31689" lon="-1.67007">
        <ele>67.8</ele>
        <time>2015-05-10T07:04:37Z</time>
      </trkpt>
      <trkpt lat="47.31686" lon="-1.67009">
        <ele>68</ele>
        <time>2015-05-10T07:04:39Z</time>
      </trkpt>
      <trkpt lat="47.31685" lon="-1.67016">
        <ele>68.1</ele>
        <time>2015-05-10T07:04:42Z</time>
      </trkpt>
      <trkpt lat="47.31686" lon="-1.67023">
        <ele>68.2</ele>
        <time>2015-05-10T07:04:44Z</time>
      </trkpt>
      <trkpt lat="47.31686" lon="-1.67029">
        <ele>68.3</ele>
        <time>2015-05-10T07:04:46Z</time>
      </trkpt>
      <trkpt lat="47.31686" lon="-1.67037">
        <ele>68.4</ele>
        <time>2015-05-10T07:04:48Z</time>
      </trkpt>
      <trkpt lat="47.31686" lon="-1.67044">
        <ele>68.5</ele>
        <time>2015-05-10T07:04:50Z</time>
      </trkpt>
      <trkpt lat="47.31686" lon="-1.6705">
        <ele>68.6</ele>
        <time>2015-05-10T07:04:52Z</time>
      </trkpt>
      <trkpt lat="47.31686" lon="-1.67056">
        <ele>68.6</ele>
        <time>2015-05-10T07:04:54Z</time>
      </trkpt>
      <trkpt lat="47.31687" lon="-1.67062">
        <ele>68.6</ele>
        <time>2015-05-10T07:04:56Z</time>
      </trkpt>
      <trkpt lat="47.31688" lon="-1.67068">
        <ele>68.6</ele>
        <time>2015-05-10T07:04:58Z</time>
      </trkpt>
      <trkpt lat="47.31689" lon="-1.67072">
        <ele>68.7</ele>
        <time>2015-05-10T07:04:59Z</time>
      </trkpt>
      <trkpt lat="47.3169" lon="-1.67076">
        <ele>68.7</ele>
        <time>2015-05-10T07:05:00Z</time>
      </trkpt>
      <trkpt lat="47.3169" lon="-1.67082">
        <ele>68.7</ele>
        <time>2015-05-10T07:05:02Z</time>
      </trkpt>
      <trkpt lat="47.31689" lon="-1.67087">
        <ele>68.8</ele>
        <time>2015-05-10T07:05:04Z</time>
      </trkpt>
      <trkpt lat="47.31687" lon="-1.67091">
        <ele>68.8</ele>
        <time>2015-05-10T07:05:05Z</time>
      </trkpt>
      <trkpt lat="47.31685" lon="-1.67094">
        <ele>68.8</ele>
        <time>2015-05-10T07:05:06Z</time>
      </trkpt>
      <trkpt lat="47.31685" lon="-1.671">
        <ele>68.9</ele>
        <time>2015-05-10T07:05:08Z</time>
      </trkpt>
      <trkpt lat="47.31685" lon="-1.67106">
        <ele>68.9</ele>
        <time>2015-05-10T07:05:10Z</time>
      </trkpt>
      <trkpt lat="47.31684" lon="-1.67111">
        <ele>68.9</ele>
        <time>2015-05-10T07:05:12Z</time>
      </trkpt>
      <trkpt lat="47.31682" lon="-1.67113">
        <ele>68.9</ele>
        <time>2015-05-10T07:05:13Z</time>
      </trkpt>
      <trkpt lat="47.31681" lon="-1.67119">
        <ele>69</ele>
        <time>2015-05-10T07:05:15Z</time>
      </trkpt>
      <trkpt lat="47.31682" lon="-1.67124">
        <ele>69</ele>
        <time>2015-05-10T07:05:17Z</time>
      </trkpt>
      <trkpt lat="47.31681" lon="-1.67129">
        <ele>68.9</ele>
        <time>2015-05-10T07:05:19Z</time>
      </trkpt>
      <trkpt lat="47.3168" lon="-1.67133">
        <ele>68.8</ele>
        <time>2015-05-10T07:05:21Z</time>
      </trkpt>
      <trkpt lat="47.3168" lon="-1.67137">
        <ele>68.6</ele>
        <time>2015-05-10T07:05:23Z</time>
      </trkpt>
      <trkpt lat="47.3168" lon="-1.67142">
        <ele>68.5</ele>
        <time>2015-05-10T07:05:25Z</time>
      </trkpt>
      <trkpt lat="47.31678" lon="-1.67147">
        <ele>68.3</ele>
        <time>2015-05-10T07:05:27Z</time>
      </trkpt>
      <trkpt lat="47.31677" lon="-1.67151">
        <ele>68.2</ele>
        <time>2015-05-10T07:05:29Z</time>
      </trkpt>
      <trkpt lat="47.31676" lon="-1.67155">
        <ele>68.1</ele>
        <time>2015-05-10T07:05:32Z</time>
      </trkpt>
      <trkpt lat="47.31675" lon="-1.6716">
        <ele>68</ele>
        <time>2015-05-10T07:05:35Z</time>
      </trkpt>
      <trkpt lat="47.31673" lon="-1.67166">
        <ele>67.9</ele>
        <time>2015-05-10T07:05:38Z</time>
      </trkpt>
      <trkpt lat="47.3167" lon="-1.6717">
        <ele>67.8</ele>
        <time>2015-05-10T07:05:40Z</time>
      </trkpt>
      <trkpt lat="47.31668" lon="-1.67173">
        <ele>67.8</ele>
        <time>2015-05-10T07:05:42Z</time>
      </trkpt>
      <trkpt lat="47.31666" lon="-1.67176">
        <ele>67.8</ele>
        <time>2015-05-10T07:05:44Z</time>
      </trkpt>
      <trkpt lat="47.31664" lon="-1.67181">
        <ele>67.7</ele>
        <time>2015-05-10T07:05:47Z</time>
      </trkpt>
      <trkpt lat="47.31664" lon="-1.67186">
        <ele>67.6</ele>
        <time>2015-05-10T07:05:51Z</time>
      </trkpt>
      <trkpt lat="47.31664" lon="-1.6719">
        <ele>67.5</ele>
        <time>2015-05-10T07:05:54Z</time>
      </trkpt>
      <trkpt lat="47.31662" lon="-1.67195">
        <ele>67.5</ele>
        <time>2015-05-10T07:05:56Z</time>
      </trkpt>
      <trkpt lat="47.3166" lon="-1.672">
        <ele>67.5</ele>
        <time>2015-05-10T07:05:58Z</time>
      </trkpt>
      <trkpt lat="47.31658" lon="-1.67204">
        <ele>67.5</ele>
        <time>2015-05-10T07:06:00Z</time>
      </trkpt>
      <trkpt lat="47.31655" lon="-1.6721">
        <ele>67.5</ele>
        <time>2015-05-10T07:06:02Z</time>
      </trkpt>
      <trkpt lat="47.31652" lon="-1.67214">
        <ele>67.6</ele>
        <time>2015-05-10T07:06:04Z</time>
      </trkpt>
      <trkpt lat="47.31648" lon="-1.67216">
        <ele>67.7</ele>
        <time>2015-05-10T07:06:06Z</time>
      </trkpt>
      <trkpt lat="47.31643" lon="-1.6722">
        <ele>67.9</ele>
        <time>2015-05-10T07:06:07Z</time>
      </trkpt>
      <trkpt lat="47.31639" lon="-1.67223">
        <ele>68.1</ele>
        <time>2015-05-10T07:06:08Z</time>
      </trkpt>
      <trkpt lat="47.31635" lon="-1.67224">
        <ele>68.3</ele>
        <time>2015-05-10T07:06:09Z</time>
      </trkpt>
      <trkpt lat="47.31632" lon="-1.67226">
        <ele>68.4</ele>
        <time>2015-05-10T07:06:10Z</time>
      </trkpt>
      <trkpt lat="47.31629" lon="-1.67228">
        <ele>68.5</ele>
        <time>2015-05-10T07:06:11Z</time>
      </trkpt>
      <trkpt lat="47.31627" lon="-1.67229">
        <ele>68.7</ele>
        <time>2015-05-10T07:06:12Z</time>
      </trkpt>
      <trkpt lat="47.31624" lon="-1.67231">
        <ele>68.8</ele>
        <time>2015-05-10T07:06:13Z</time>
      </trkpt>
      <trkpt lat="47.3162" lon="-1.67232">
        <ele>68.9</ele>
        <time>2015-05-10T07:06:14Z</time>
      </trkpt>
      <trkpt lat="47.31618" lon="-1.67234">
        <ele>68.9</ele>
        <time>2015-05-10T07:06:15Z</time>
      </trkpt>
      <trkpt lat="47.31615" lon="-1.67236">
        <ele>69</ele>
        <time>2015-05-10T07:06:16Z</time>
      </trkpt>
      <trkpt lat="47.31612" lon="-1.67237">
        <ele>69</ele>
        <time>2015-05-10T07:06:17Z</time>
      </trkpt>
      <trkpt lat="47.3161" lon="-1.67239">
        <ele>69</ele>
        <time>2015-05-10T07:06:18Z</time>
      </trkpt>
      <trkpt lat="47.31607" lon="-1.67241">
        <ele>69.1</ele>
        <time>2015-05-10T07:06:19Z</time>
      </trkpt>
      <trkpt lat="47.31603" lon="-1.67244">
        <ele>69.1</ele>
        <time>2015-05-10T07:06:21Z</time>
      </trkpt>
      <trkpt lat="47.31598" lon="-1.67247">
        <ele>69.2</ele>
        <time>2015-05-10T07:06:23Z</time>
      </trkpt>
      <trkpt lat="47.31596" lon="-1.67249">
        <ele>69.2</ele>
        <time>2015-05-10T07:06:24Z</time>
      </trkpt>
      <trkpt lat="47.31593" lon="-1.6725">
        <ele>69.3</ele>
        <time>2015-05-10T07:06:25Z</time>
      </trkpt>
      <trkpt lat="47.3159" lon="-1.67251">
        <ele>69.3</ele>
        <time>2015-05-10T07:06:26Z</time>
      </trkpt>
      <trkpt lat="47.31586" lon="-1.67252">
        <ele>69.4</ele>
        <time>2015-05-10T07:06:27Z</time>
      </trkpt>
      <trkpt lat="47.31583" lon="-1.67253">
        <ele>69.4</ele>
        <time>2015-05-10T07:06:28Z</time>
      </trkpt>
      <trkpt lat="47.3158" lon="-1.67254">
        <ele>69.5</ele>
        <time>2015-05-10T07:06:29Z</time>
      </trkpt>
      <trkpt lat="47.31576" lon="-1.67256">
        <ele>69.5</ele>
        <time>2015-05-10T07:06:30Z</time>
      </trkpt>
      <trkpt lat="47.31573" lon="-1.67258">
        <ele>69.5</ele>
        <time>2015-05-10T07:06:31Z</time>
      </trkpt>
      <trkpt lat="47.3157" lon="-1.6726">
        <ele>69.5</ele>
        <time>2015-05-10T07:06:32Z</time>
      </trkpt>
      <trkpt lat="47.31567" lon="-1.67263">
        <ele>69.5</ele>
        <time>2015-05-10T07:06:33Z</time>
      </trkpt>
      <trkpt lat="47.31563" lon="-1.67267">
        <ele>69.5</ele>
        <time>2015-05-10T07:06:34Z</time>
      </trkpt>
      <trkpt lat="47.3156" lon="-1.67271">
        <ele>69.4</ele>
        <time>2015-05-10T07:06:35Z</time>
      </trkpt>
      <trkpt lat="47.31557" lon="-1.67273">
        <ele>69.4</ele>
        <time>2015-05-10T07:06:36Z</time>
      </trkpt>
      <trkpt lat="47.31553" lon="-1.67277">
        <ele>69.4</ele>
        <time>2015-05-10T07:06:37Z</time>
      </trkpt>
      <trkpt lat="47.3155" lon="-1.67283">
        <ele>69.2</ele>
        <time>2015-05-10T07:06:38Z</time>
      </trkpt>
      <trkpt lat="47.31546" lon="-1.67288">
        <ele>69.1</ele>
        <time>2015-05-10T07:06:39Z</time>
      </trkpt>
      <trkpt lat="47.31542" lon="-1.67292">
        <ele>69</ele>
        <time>2015-05-10T07:06:40Z</time>
      </trkpt>
      <trkpt lat="47.31538" lon="-1.67296">
        <ele>69</ele>
        <time>2015-05-10T07:06:41Z</time>
      </trkpt>
      <trkpt lat="47.31534" lon="-1.67301">
        <ele>69</ele>
        <time>2015-05-10T07:06:42Z</time>
      </trkpt>
      <trkpt lat="47.3153" lon="-1.67305">
        <ele>69</ele>
        <time>2015-05-10T07:06:43Z</time>
      </trkpt>
      <trkpt lat="47.31527" lon="-1.67307">
        <ele>69</ele>
        <time>2015-05-10T07:06:44Z</time>
      </trkpt>
      <trkpt lat="47.31524" lon="-1.67312">
        <ele>69</ele>
        <time>2015-05-10T07:06:45Z</time>
      </trkpt>
      <trkpt lat="47.31521" lon="-1.67316">
        <ele>69.1</ele>
        <time>2015-05-10T07:06:46Z</time>
      </trkpt>
      <trkpt lat="47.31518" lon="-1.6732">
        <ele>69.1</ele>
        <time>2015-05-10T07:06:47Z</time>
      </trkpt>
      <trkpt lat="47.31515" lon="-1.67325">
        <ele>69.1</ele>
        <time>2015-05-10T07:06:48Z</time>
      </trkpt>
      <trkpt lat="47.31513" lon="-1.67327">
        <ele>69.1</ele>
        <time>2015-05-10T07:06:49Z</time>
      </trkpt>
      <trkpt lat="47.31507" lon="-1.67328">
        <ele>69.3</ele>
        <time>2015-05-10T07:06:51Z</time>
      </trkpt>
      <trkpt lat="47.31504" lon="-1.67326">
        <ele>69.4</ele>
        <time>2015-05-10T07:06:52Z</time>
      </trkpt>
      <trkpt lat="47.31502" lon="-1.67324">
        <ele>69.6</ele>
        <time>2015-05-10T07:06:53Z</time>
      </trkpt>
      <trkpt lat="47.31499" lon="-1.6732">
        <ele>69.7</ele>
        <time>2015-05-10T07:06:54Z</time>
      </trkpt>
      <trkpt lat="47.31494" lon="-1.67316">
        <ele>69.9</ele>
        <time>2015-05-10T07:06:56Z</time>
      </trkpt>
      <trkpt lat="47.31492" lon="-1.67312">
        <ele>70</ele>
        <time>2015-05-10T07:06:57Z</time>
      </trkpt>
      <trkpt lat="47.3149" lon="-1.67309">
        <ele>70.1</ele>
        <time>2015-05-10T07:06:58Z</time>
      </trkpt>
      <trkpt lat="47.31487" lon="-1.67305">
        <ele>70.2</ele>
        <time>2015-05-10T07:06:59Z</time>
      </trkpt>
      <trkpt lat="47.31485" lon="-1.67302">
        <ele>70.3</ele>
        <time>2015-05-10T07:07:00Z</time>
      </trkpt>
      <trkpt lat="47.31483" lon="-1.67299">
        <ele>70.4</ele>
        <time>2015-05-10T07:07:01Z</time>
      </trkpt>
      <trkpt lat="47.31479" lon="-1.67292">
        <ele>70.5</ele>
        <time>2015-05-10T07:07:03Z</time>
      </trkpt>
      <trkpt lat="47.31477" lon="-1.67287">
        <ele>70.6</ele>
        <time>2015-05-10T07:07:04Z</time>
      </trkpt>
      <trkpt lat="47.31474" lon="-1.67282">
        <ele>70.8</ele>
        <time>2015-05-10T07:07:05Z</time>
      </trkpt>
      <trkpt lat="47.31472" lon="-1.67278">
        <ele>70.9</ele>
        <time>2015-05-10T07:07:06Z</time>
      </trkpt>
      <trkpt lat="47.3147" lon="-1.67274">
        <ele>71</ele>
        <time>2015-05-10T07:07:07Z</time>
      </trkpt>
      <trkpt lat="47.31468" lon="-1.6727">
        <ele>71.1</ele>
        <time>2015-05-10T07:07:08Z</time>
      </trkpt>
      <trkpt lat="47.31463" lon="-1.67261">
        <ele>71.3</ele>
        <time>2015-05-10T07:07:09Z</time>
      </trkpt>
      <trkpt lat="47.31461" lon="-1.67254">
        <ele>71.4</ele>
        <time>2015-05-10T07:07:10Z</time>
      </trkpt>
      <trkpt lat="47.31458" lon="-1.6725">
        <ele>71.5</ele>
        <time>2015-05-10T07:07:11Z</time>
      </trkpt>
      <trkpt lat="47.31458" lon="-1.67243">
        <ele>71.6</ele>
        <time>2015-05-10T07:07:13Z</time>
      </trkpt>
      <trkpt lat="47.31457" lon="-1.67239">
        <ele>71.7</ele>
        <time>2015-05-10T07:07:14Z</time>
      </trkpt>
      <trkpt lat="47.31458" lon="-1.67235">
        <ele>71.7</ele>
        <time>2015-05-10T07:07:15Z</time>
      </trkpt>
      <trkpt lat="47.31457" lon="-1.6723">
        <ele>71.8</ele>
        <time>2015-05-10T07:07:16Z</time>
      </trkpt>
      <trkpt lat="47.31456" lon="-1.67225">
        <ele>71.8</ele>
        <time>2015-05-10T07:07:17Z</time>
      </trkpt>
      <trkpt lat="47.31455" lon="-1.6722">
        <ele>71.9</ele>
        <time>2015-05-10T07:07:18Z</time>
      </trkpt>
      <trkpt lat="47.31455" lon="-1.67215">
        <ele>72</ele>
        <time>2015-05-10T07:07:19Z</time>
      </trkpt>
      <trkpt lat="47.31454" lon="-1.6721">
        <ele>72</ele>
        <time>2015-05-10T07:07:20Z</time>
      </trkpt>
      <trkpt lat="47.31454" lon="-1.67206">
        <ele>72.1</ele>
        <time>2015-05-10T07:07:21Z</time>
      </trkpt>
      <trkpt lat="47.31454" lon="-1.67201">
        <ele>72.1</ele>
        <time>2015-05-10T07:07:22Z</time>
      </trkpt>
      <trkpt lat="47.31452" lon="-1.67197">
        <ele>72.2</ele>
        <time>2015-05-10T07:07:23Z</time>
      </trkpt>
      <trkpt lat="47.31452" lon="-1.67193">
        <ele>72.2</ele>
        <time>2015-05-10T07:07:24Z</time>
      </trkpt>
      <trkpt lat="47.31452" lon="-1.67189">
        <ele>72.3</ele>
        <time>2015-05-10T07:07:25Z</time>
      </trkpt>
      <trkpt lat="47.31451" lon="-1.67181">
        <ele>72.4</ele>
        <time>2015-05-10T07:07:27Z</time>
      </trkpt>
      <trkpt lat="47.3145" lon="-1.67177">
        <ele>72.4</ele>
        <time>2015-05-10T07:07:28Z</time>
      </trkpt>
      <trkpt lat="47.31449" lon="-1.67173">
        <ele>72.4</ele>
        <time>2015-05-10T07:07:29Z</time>
      </trkpt>
      <trkpt lat="47.31449" lon="-1.67169">
        <ele>72.5</ele>
        <time>2015-05-10T07:07:30Z</time>
      </trkpt>
      <trkpt lat="47.31448" lon="-1.67161">
        <ele>72.6</ele>
        <time>2015-05-10T07:07:32Z</time>
      </trkpt>
      <trkpt lat="47.31448" lon="-1.67157">
        <ele>72.6</ele>
        <time>2015-05-10T07:07:33Z</time>
      </trkpt>
      <trkpt lat="47.31448" lon="-1.67153">
        <ele>72.6</ele>
        <time>2015-05-10T07:07:34Z</time>
      </trkpt>
      <trkpt lat="47.31447" lon="-1.67145">
        <ele>72.7</ele>
        <time>2015-05-10T07:07:36Z</time>
      </trkpt>
      <trkpt lat="47.31445" lon="-1.67138">
        <ele>72.7</ele>
        <time>2015-05-10T07:07:38Z</time>
      </trkpt>
      <trkpt lat="47.31444" lon="-1.67133">
        <ele>72.8</ele>
        <time>2015-05-10T07:07:39Z</time>
      </trkpt>
      <trkpt lat="47.31443" lon="-1.67128">
        <ele>72.8</ele>
        <time>2015-05-10T07:07:40Z</time>
      </trkpt>
      <trkpt lat="47.31443" lon="-1.67123">
        <ele>72.8</ele>
        <time>2015-05-10T07:07:41Z</time>
      </trkpt>
      <trkpt lat="47.31442" lon="-1.67118">
        <ele>72.9</ele>
        <time>2015-05-10T07:07:42Z</time>
      </trkpt>
      <trkpt lat="47.31441" lon="-1.67113">
        <ele>72.9</ele>
        <time>2015-05-10T07:07:43Z</time>
      </trkpt>
      <trkpt lat="47.3144" lon="-1.67108">
        <ele>73</ele>
        <time>2015-05-10T07:07:44Z</time>
      </trkpt>
      <trkpt lat="47.3144" lon="-1.67103">
        <ele>73</ele>
        <time>2015-05-10T07:07:45Z</time>
      </trkpt>
      <trkpt lat="47.31439" lon="-1.67098">
        <ele>73.1</ele>
        <time>2015-05-10T07:07:46Z</time>
      </trkpt>
      <trkpt lat="47.31438" lon="-1.67093">
        <ele>73.1</ele>
        <time>2015-05-10T07:07:47Z</time>
      </trkpt>
      <trkpt lat="47.31438" lon="-1.67089">
        <ele>73.2</ele>
        <time>2015-05-10T07:07:48Z</time>
      </trkpt>
      <trkpt lat="47.31438" lon="-1.67085">
        <ele>73.2</ele>
        <time>2015-05-10T07:07:49Z</time>
      </trkpt>
      <trkpt lat="47.31437" lon="-1.6708">
        <ele>73.3</ele>
        <time>2015-05-10T07:07:50Z</time>
      </trkpt>
      <trkpt lat="47.31437" lon="-1.67075">
        <ele>73.3</ele>
        <time>2015-05-10T07:07:51Z</time>
      </trkpt>
      <trkpt lat="47.31436" lon="-1.6707">
        <ele>73.4</ele>
        <time>2015-05-10T07:07:52Z</time>
      </trkpt>
      <trkpt lat="47.31435" lon="-1.67065">
        <ele>73.4</ele>
        <time>2015-05-10T07:07:53Z</time>
      </trkpt>
      <trkpt lat="47.31435" lon="-1.6706">
        <ele>73.5</ele>
        <time>2015-05-10T07:07:54Z</time>
      </trkpt>
      <trkpt lat="47.31435" lon="-1.67055">
        <ele>73.6</ele>
        <time>2015-05-10T07:07:55Z</time>
      </trkpt>
      <trkpt lat="47.31434" lon="-1.6705">
        <ele>73.6</ele>
        <time>2015-05-10T07:07:56Z</time>
      </trkpt>
      <trkpt lat="47.31434" lon="-1.67045">
        <ele>73.7</ele>
        <time>2015-05-10T07:07:57Z</time>
      </trkpt>
      <trkpt lat="47.31433" lon="-1.67039">
        <ele>73.8</ele>
        <time>2015-05-10T07:07:58Z</time>
      </trkpt>
      <trkpt lat="47.31433" lon="-1.67033">
        <ele>73.9</ele>
        <time>2015-05-10T07:07:59Z</time>
      </trkpt>
      <trkpt lat="47.31433" lon="-1.67028">
        <ele>74</ele>
        <time>2015-05-10T07:08:00Z</time>
      </trkpt>
      <trkpt lat="47.31432" lon="-1.67022">
        <ele>74.1</ele>
        <time>2015-05-10T07:08:01Z</time>
      </trkpt>
      <trkpt lat="47.31431" lon="-1.67016">
        <ele>74.2</ele>
        <time>2015-05-10T07:08:02Z</time>
      </trkpt>
      <trkpt lat="47.31431" lon="-1.6701">
        <ele>74.3</ele>
        <time>2015-05-10T07:08:03Z</time>
      </trkpt>
      <trkpt lat="47.31431" lon="-1.67004">
        <ele>74.4</ele>
        <time>2015-05-10T07:08:04Z</time>
      </trkpt>
      <trkpt lat="47.3143" lon="-1.66998">
        <ele>74.5</ele>
        <time>2015-05-10T07:08:05Z</time>
      </trkpt>
      <trkpt lat="47.3143" lon="-1.66992">
        <ele>74.6</ele>
        <time>2015-05-10T07:08:06Z</time>
      </trkpt>
      <trkpt lat="47.31429" lon="-1.66986">
        <ele>74.7</ele>
        <time>2015-05-10T07:08:07Z</time>
      </trkpt>
      <trkpt lat="47.31428" lon="-1.66981">
        <ele>74.8</ele>
        <time>2015-05-10T07:08:08Z</time>
      </trkpt>
      <trkpt lat="47.31427" lon="-1.66976">
        <ele>74.9</ele>
        <time>2015-05-10T07:08:09Z</time>
      </trkpt>
      <trkpt lat="47.31426" lon="-1.6697">
        <ele>75</ele>
        <time>2015-05-10T07:08:10Z</time>
      </trkpt>
      <trkpt lat="47.31427" lon="-1.66963">
        <ele>75.2</ele>
        <time>2015-05-10T07:08:11Z</time>
      </trkpt>
      <trkpt lat="47.31426" lon="-1.66956">
        <ele>75.2</ele>
        <time>2015-05-10T07:08:12Z</time>
      </trkpt>
      <trkpt lat="47.31426" lon="-1.66949">
        <ele>75.2</ele>
        <time>2015-05-10T07:08:13Z</time>
      </trkpt>
      <trkpt lat="47.31426" lon="-1.66942">
        <ele>75.2</ele>
        <time>2015-05-10T07:08:14Z</time>
      </trkpt>
      <trkpt lat="47.31425" lon="-1.66936">
        <ele>75.1</ele>
        <time>2015-05-10T07:08:15Z</time>
      </trkpt>
      <trkpt lat="47.31423" lon="-1.6693">
        <ele>75.1</ele>
        <time>2015-05-10T07:08:16Z</time>
      </trkpt>
      <trkpt lat="47.31422" lon="-1.66923">
        <ele>75.1</ele>
        <time>2015-05-10T07:08:17Z</time>
      </trkpt>
      <trkpt lat="47.31422" lon="-1.66917">
        <ele>75.1</ele>
        <time>2015-05-10T07:08:18Z</time>
      </trkpt>
      <trkpt lat="47.31422" lon="-1.66911">
        <ele>75.1</ele>
        <time>2015-05-10T07:08:19Z</time>
      </trkpt>
      <trkpt lat="47.31422" lon="-1.66905">
        <ele>75</ele>
        <time>2015-05-10T07:08:20Z</time>
      </trkpt>
      <trkpt lat="47.31422" lon="-1.66898">
        <ele>75</ele>
        <time>2015-05-10T07:08:21Z</time>
      </trkpt>
      <trkpt lat="47.31423" lon="-1.6689">
        <ele>75</ele>
        <time>2015-05-10T07:08:22Z</time>
      </trkpt>
      <trkpt lat="47.31423" lon="-1.66883">
        <ele>75</ele>
        <time>2015-05-10T07:08:23Z</time>
      </trkpt>
      <trkpt lat="47.31423" lon="-1.66876">
        <ele>75</ele>
        <time>2015-05-10T07:08:24Z</time>
      </trkpt>
      <trkpt lat="47.31423" lon="-1.66868">
        <ele>74.9</ele>
        <time>2015-05-10T07:08:25Z</time>
      </trkpt>
      <trkpt lat="47.31424" lon="-1.66861">
        <ele>74.8</ele>
        <time>2015-05-10T07:08:26Z</time>
      </trkpt>
      <trkpt lat="47.31424" lon="-1.66854">
        <ele>74.6</ele>
        <time>2015-05-10T07:08:27Z</time>
      </trkpt>
      <trkpt lat="47.31425" lon="-1.66847">
        <ele>74.5</ele>
        <time>2015-05-10T07:08:28Z</time>
      </trkpt>
      <trkpt lat="47.31425" lon="-1.6684">
        <ele>74.4</ele>
        <time>2015-05-10T07:08:29Z</time>
      </trkpt>
      <trkpt lat="47.31425" lon="-1.66834">
        <ele>74.3</ele>
        <time>2015-05-10T07:08:30Z</time>
      </trkpt>
      <trkpt lat="47.31425" lon="-1.66827">
        <ele>74.2</ele>
        <time>2015-05-10T07:08:31Z</time>
      </trkpt>
      <trkpt lat="47.31426" lon="-1.6682">
        <ele>74.1</ele>
        <time>2015-05-10T07:08:32Z</time>
      </trkpt>
      <trkpt lat="47.31426" lon="-1.66813">
        <ele>74</ele>
        <time>2015-05-10T07:08:33Z</time>
      </trkpt>
      <trkpt lat="47.31426" lon="-1.66805">
        <ele>73.8</ele>
        <time>2015-05-10T07:08:34Z</time>
      </trkpt>
      <trkpt lat="47.31426" lon="-1.66798">
        <ele>73.7</ele>
        <time>2015-05-10T07:08:35Z</time>
      </trkpt>
      <trkpt lat="47.31427" lon="-1.6679">
        <ele>73.6</ele>
        <time>2015-05-10T07:08:36Z</time>
      </trkpt>
      <trkpt lat="47.31427" lon="-1.66783">
        <ele>73.5</ele>
        <time>2015-05-10T07:08:37Z</time>
      </trkpt>
      <trkpt lat="47.31427" lon="-1.66776">
        <ele>73.3</ele>
        <time>2015-05-10T07:08:38Z</time>
      </trkpt>
      <trkpt lat="47.31428" lon="-1.66769">
        <ele>73.2</ele>
        <time>2015-05-10T07:08:39Z</time>
      </trkpt>
      <trkpt lat="47.31429" lon="-1.6676">
        <ele>73</ele>
        <time>2015-05-10T07:08:40Z</time>
      </trkpt>
      <trkpt lat="47.31428" lon="-1.66752">
        <ele>72.8</ele>
        <time>2015-05-10T07:08:41Z</time>
      </trkpt>
      <trkpt lat="47.31428" lon="-1.66745">
        <ele>72.6</ele>
        <time>2015-05-10T07:08:42Z</time>
      </trkpt>
      <trkpt lat="47.31428" lon="-1.66737">
        <ele>72.5</ele>
        <time>2015-05-10T07:08:43Z</time>
      </trkpt>
      <trkpt lat="47.31427" lon="-1.66728">
        <ele>72.3</ele>
        <time>2015-05-10T07:08:44Z</time>
      </trkpt>
      <trkpt lat="47.31427" lon="-1.6672">
        <ele>72.1</ele>
        <time>2015-05-10T07:08:45Z</time>
      </trkpt>
      <trkpt lat="47.31426" lon="-1.6671">
        <ele>71.9</ele>
        <time>2015-05-10T07:08:46Z</time>
      </trkpt>
      <trkpt lat="47.31424" lon="-1.66702">
        <ele>71.6</ele>
        <time>2015-05-10T07:08:47Z</time>
      </trkpt>
      <trkpt lat="47.31421" lon="-1.66691">
        <ele>71.3</ele>
        <time>2015-05-10T07:08:48Z</time>
      </trkpt>
      <trkpt lat="47.31422" lon="-1.66683">
        <ele>71.1</ele>
        <time>2015-05-10T07:08:49Z</time>
      </trkpt>
      <trkpt lat="47.31422" lon="-1.66675">
        <ele>70.9</ele>
        <time>2015-05-10T07:08:50Z</time>
      </trkpt>
      <trkpt lat="47.31423" lon="-1.66666">
        <ele>70.7</ele>
        <time>2015-05-10T07:08:51Z</time>
      </trkpt>
      <trkpt lat="47.31422" lon="-1.66658">
        <ele>70.5</ele>
        <time>2015-05-10T07:08:52Z</time>
      </trkpt>
      <trkpt lat="47.31421" lon="-1.6665">
        <ele>70.2</ele>
        <time>2015-05-10T07:08:53Z</time>
      </trkpt>
      <trkpt lat="47.31421" lon="-1.66642">
        <ele>70.1</ele>
        <time>2015-05-10T07:08:54Z</time>
      </trkpt>
      <trkpt lat="47.3142" lon="-1.66635">
        <ele>69.8</ele>
        <time>2015-05-10T07:08:55Z</time>
      </trkpt>
      <trkpt lat="47.31419" lon="-1.66627">
        <ele>69.6</ele>
        <time>2015-05-10T07:08:56Z</time>
      </trkpt>
      <trkpt lat="47.31418" lon="-1.6662">
        <ele>69.5</ele>
        <time>2015-05-10T07:08:57Z</time>
      </trkpt>
      <trkpt lat="47.31417" lon="-1.66612">
        <ele>69.4</ele>
        <time>2015-05-10T07:08:58Z</time>
      </trkpt>
      <trkpt lat="47.31417" lon="-1.66604">
        <ele>69.2</ele>
        <time>2015-05-10T07:08:59Z</time>
      </trkpt>
      <trkpt lat="47.31417" lon="-1.66596">
        <ele>69.1</ele>
        <time>2015-05-10T07:09:00Z</time>
      </trkpt>
      <trkpt lat="47.31416" lon="-1.66588">
        <ele>69</ele>
        <time>2015-05-10T07:09:01Z</time>
      </trkpt>
      <trkpt lat="47.31415" lon="-1.66581">
        <ele>68.9</ele>
        <time>2015-05-10T07:09:02Z</time>
      </trkpt>
      <trkpt lat="47.31414" lon="-1.66574">
        <ele>68.8</ele>
        <time>2015-05-10T07:09:03Z</time>
      </trkpt>
      <trkpt lat="47.31413" lon="-1.66568">
        <ele>68.7</ele>
        <time>2015-05-10T07:09:04Z</time>
      </trkpt>
      <trkpt lat="47.31411" lon="-1.66561">
        <ele>68.5</ele>
        <time>2015-05-10T07:09:05Z</time>
      </trkpt>
      <trkpt lat="47.3141" lon="-1.66554">
        <ele>68.4</ele>
        <time>2015-05-10T07:09:06Z</time>
      </trkpt>
      <trkpt lat="47.31409" lon="-1.66547">
        <ele>68.3</ele>
        <time>2015-05-10T07:09:07Z</time>
      </trkpt>
      <trkpt lat="47.31408" lon="-1.6654">
        <ele>68.1</ele>
        <time>2015-05-10T07:09:08Z</time>
      </trkpt>
      <trkpt lat="47.31407" lon="-1.66532">
        <ele>68</ele>
        <time>2015-05-10T07:09:09Z</time>
      </trkpt>
      <trkpt lat="47.31407" lon="-1.66524">
        <ele>67.8</ele>
        <time>2015-05-10T07:09:10Z</time>
      </trkpt>
      <trkpt lat="47.31408" lon="-1.66517">
        <ele>67.6</ele>
        <time>2015-05-10T07:09:11Z</time>
      </trkpt>
      <trkpt lat="47.31411" lon="-1.6651">
        <ele>67.6</ele>
        <time>2015-05-10T07:09:12Z</time>
      </trkpt>
      <trkpt lat="47.31416" lon="-1.66506">
        <ele>67.6</ele>
        <time>2015-05-10T07:09:13Z</time>
      </trkpt>
      <trkpt lat="47.3142" lon="-1.66504">
        <ele>67.7</ele>
        <time>2015-05-10T07:09:14Z</time>
      </trkpt>
      <trkpt lat="47.31426" lon="-1.665">
        <ele>67.7</ele>
        <time>2015-05-10T07:09:15Z</time>
      </trkpt>
      <trkpt lat="47.3143" lon="-1.66497">
        <ele>67.7</ele>
        <time>2015-05-10T07:09:16Z</time>
      </trkpt>
      <trkpt lat="47.31436" lon="-1.66495">
        <ele>67.8</ele>
        <time>2015-05-10T07:09:17Z</time>
      </trkpt>
      <trkpt lat="47.3144" lon="-1.66493">
        <ele>67.8</ele>
        <time>2015-05-10T07:09:18Z</time>
      </trkpt>
      <trkpt lat="47.31446" lon="-1.6649">
        <ele>67.9</ele>
        <time>2015-05-10T07:09:19Z</time>
      </trkpt>
      <trkpt lat="47.31451" lon="-1.66486">
        <ele>67.9</ele>
        <time>2015-05-10T07:09:20Z</time>
      </trkpt>
      <trkpt lat="47.31455" lon="-1.66483">
        <ele>67.8</ele>
        <time>2015-05-10T07:09:21Z</time>
      </trkpt>
      <trkpt lat="47.31458" lon="-1.66482">
        <ele>67.8</ele>
        <time>2015-05-10T07:09:22Z</time>
      </trkpt>
      <trkpt lat="47.31459" lon="-1.66478">
        <ele>67.7</ele>
        <time>2015-05-10T07:09:24Z</time>
      </trkpt>
      <trkpt lat="47.3146" lon="-1.66473">
        <ele>67.5</ele>
        <time>2015-05-10T07:09:26Z</time>
      </trkpt>
      <trkpt lat="47.31464" lon="-1.6647">
        <ele>67.2</ele>
        <time>2015-05-10T07:09:28Z</time>
      </trkpt>
      <trkpt lat="47.31468" lon="-1.66467">
        <ele>66.9</ele>
        <time>2015-05-10T07:09:30Z</time>
      </trkpt>
      <trkpt lat="47.3147" lon="-1.66464">
        <ele>66.8</ele>
        <time>2015-05-10T07:09:31Z</time>
      </trkpt>
      <trkpt lat="47.31472" lon="-1.6646">
        <ele>66.5</ele>
        <time>2015-05-10T07:09:33Z</time>
      </trkpt>
      <trkpt lat="47.3147" lon="-1.66454">
        <ele>66.5</ele>
        <time>2015-05-10T07:09:35Z</time>
      </trkpt>
      <trkpt lat="47.31471" lon="-1.66448">
        <ele>66.4</ele>
        <time>2015-05-10T07:09:37Z</time>
      </trkpt>
      <trkpt lat="47.3147" lon="-1.66441">
        <ele>66.4</ele>
        <time>2015-05-10T07:09:39Z</time>
      </trkpt>
      <trkpt lat="47.31466" lon="-1.66441">
        <ele>66.5</ele>
        <time>2015-05-10T07:09:42Z</time>
      </trkpt>
      <trkpt lat="47.31462" lon="-1.66441">
        <ele>66.6</ele>
        <time>2015-05-10T07:09:44Z</time>
      </trkpt>
      <trkpt lat="47.31459" lon="-1.66438">
        <ele>66.7</ele>
        <time>2015-05-10T07:09:46Z</time>
      </trkpt>
      <trkpt lat="47.31457" lon="-1.66433">
        <ele>66.7</ele>
        <time>2015-05-10T07:09:48Z</time>
      </trkpt>
      <trkpt lat="47.31454" lon="-1.66429">
        <ele>66.6</ele>
        <time>2015-05-10T07:09:50Z</time>
      </trkpt>
      <trkpt lat="47.31454" lon="-1.66422">
        <ele>66.5</ele>
        <time>2015-05-10T07:09:52Z</time>
      </trkpt>
      <trkpt lat="47.31455" lon="-1.66417">
        <ele>66.4</ele>
        <time>2015-05-10T07:09:54Z</time>
      </trkpt>
      <trkpt lat="47.31453" lon="-1.66408">
        <ele>66.3</ele>
        <time>2015-05-10T07:09:56Z</time>
      </trkpt>
      <trkpt lat="47.31451" lon="-1.66402">
        <ele>66.2</ele>
        <time>2015-05-10T07:09:58Z</time>
      </trkpt>
      <trkpt lat="47.31449" lon="-1.66399">
        <ele>66.1</ele>
        <time>2015-05-10T07:09:59Z</time>
      </trkpt>
      <trkpt lat="47.31447" lon="-1.66393">
        <ele>66</ele>
        <time>2015-05-10T07:10:01Z</time>
      </trkpt>
      <trkpt lat="47.31448" lon="-1.66387">
        <ele>65.9</ele>
        <time>2015-05-10T07:10:03Z</time>
      </trkpt>
      <trkpt lat="47.31451" lon="-1.66382">
        <ele>65.9</ele>
        <time>2015-05-10T07:10:05Z</time>
      </trkpt>
      <trkpt lat="47.31455" lon="-1.6638">
        <ele>66</ele>
        <time>2015-05-10T07:10:08Z</time>
      </trkpt>
      <trkpt lat="47.31458" lon="-1.66382">
        <ele>66.1</ele>
        <time>2015-05-10T07:10:10Z</time>
      </trkpt>
      <trkpt lat="47.31461" lon="-1.66384">
        <ele>66</ele>
        <time>2015-05-10T07:10:12Z</time>
      </trkpt>
      <trkpt lat="47.31463" lon="-1.66387">
        <ele>65.9</ele>
        <time>2015-05-10T07:10:16Z</time>
      </trkpt>
      <trkpt lat="47.31463" lon="-1.66393">
        <ele>66</ele>
        <time>2015-05-10T07:10:19Z</time>
      </trkpt>
      <trkpt lat="47.31464" lon="-1.66397">
        <ele>66</ele>
        <time>2015-05-10T07:10:20Z</time>
      </trkpt>
      <trkpt lat="47.31464" lon="-1.66402">
        <ele>66.1</ele>
        <time>2015-05-10T07:10:22Z</time>
      </trkpt>
      <trkpt lat="47.31467" lon="-1.66404">
        <ele>66</ele>
        <time>2015-05-10T07:10:25Z</time>
      </trkpt>
      <trkpt lat="47.31471" lon="-1.66405">
        <ele>65.8</ele>
        <time>2015-05-10T07:10:26Z</time>
      </trkpt>
      <trkpt lat="47.31474" lon="-1.66404">
        <ele>65.7</ele>
        <time>2015-05-10T07:10:28Z</time>
      </trkpt>
      <trkpt lat="47.31477" lon="-1.66402">
        <ele>65.5</ele>
        <time>2015-05-10T07:10:30Z</time>
      </trkpt>
      <trkpt lat="47.31479" lon="-1.66399">
        <ele>65.4</ele>
        <time>2015-05-10T07:10:32Z</time>
      </trkpt>
      <trkpt lat="47.31479" lon="-1.66394">
        <ele>65.3</ele>
        <time>2015-05-10T07:10:34Z</time>
      </trkpt>
      <trkpt lat="47.31479" lon="-1.66389">
        <ele>65.2</ele>
        <time>2015-05-10T07:10:36Z</time>
      </trkpt>
      <trkpt lat="47.31477" lon="-1.66385">
        <ele>65.2</ele>
        <time>2015-05-10T07:10:38Z</time>
      </trkpt>
      <trkpt lat="47.31473" lon="-1.66384">
        <ele>65.4</ele>
        <time>2015-05-10T07:10:40Z</time>
      </trkpt>
      <trkpt lat="47.3147" lon="-1.66385">
        <ele>65.6</ele>
        <time>2015-05-10T07:10:42Z</time>
      </trkpt>
      <trkpt lat="47.31466" lon="-1.66384">
        <ele>65.7</ele>
        <time>2015-05-10T07:10:46Z</time>
      </trkpt>
      <trkpt lat="47.31465" lon="-1.66379">
        <ele>65.7</ele>
        <time>2015-05-10T07:10:48Z</time>
      </trkpt>
      <trkpt lat="47.31465" lon="-1.66375">
        <ele>65.7</ele>
        <time>2015-05-10T07:10:50Z</time>
      </trkpt>
      <trkpt lat="47.31465" lon="-1.6637">
        <ele>65.6</ele>
        <time>2015-05-10T07:10:52Z</time>
      </trkpt>
      <trkpt lat="47.31467" lon="-1.66367">
        <ele>65.5</ele>
        <time>2015-05-10T07:10:57Z</time>
      </trkpt>
      <trkpt lat="47.31466" lon="-1.66362">
        <ele>65.5</ele>
        <time>2015-05-10T07:11:00Z</time>
      </trkpt>
      <trkpt lat="47.31466" lon="-1.66358">
        <ele>65.4</ele>
        <time>2015-05-10T07:11:02Z</time>
      </trkpt>
      <trkpt lat="47.31468" lon="-1.66355">
        <ele>65.3</ele>
        <time>2015-05-10T07:11:04Z</time>
      </trkpt>
      <trkpt lat="47.31471" lon="-1.66351">
        <ele>65.1</ele>
        <time>2015-05-10T07:11:06Z</time>
      </trkpt>
      <trkpt lat="47.31474" lon="-1.6635">
        <ele>64.9</ele>
        <time>2015-05-10T07:11:09Z</time>
      </trkpt>
      <trkpt lat="47.31477" lon="-1.6635">
        <ele>64.7</ele>
        <time>2015-05-10T07:11:11Z</time>
      </trkpt>
      <trkpt lat="47.31481" lon="-1.6635">
        <ele>64.6</ele>
        <time>2015-05-10T07:11:13Z</time>
      </trkpt>
      <trkpt lat="47.31484" lon="-1.66351">
        <ele>64.4</ele>
        <time>2015-05-10T07:11:15Z</time>
      </trkpt>
      <trkpt lat="47.31487" lon="-1.6635">
        <ele>64.2</ele>
        <time>2015-05-10T07:11:17Z</time>
      </trkpt>
      <trkpt lat="47.3149" lon="-1.66349">
        <ele>64.1</ele>
        <time>2015-05-10T07:11:21Z</time>
      </trkpt>
      <trkpt lat="47.31494" lon="-1.66346">
        <ele>63.8</ele>
        <time>2015-05-10T07:11:24Z</time>
      </trkpt>
      <trkpt lat="47.31499" lon="-1.66343">
        <ele>63.5</ele>
        <time>2015-05-10T07:11:26Z</time>
      </trkpt>
      <trkpt lat="47.31503" lon="-1.66343">
        <ele>63.3</ele>
        <time>2015-05-10T07:11:28Z</time>
      </trkpt>
      <trkpt lat="47.31505" lon="-1.66346">
        <ele>63.2</ele>
        <time>2015-05-10T07:11:30Z</time>
      </trkpt>
      <trkpt lat="47.31508" lon="-1.66344">
        <ele>63</ele>
        <time>2015-05-10T07:11:33Z</time>
      </trkpt>
      <trkpt lat="47.31511" lon="-1.6634">
        <ele>62.8</ele>
        <time>2015-05-10T07:11:36Z</time>
      </trkpt>
      <trkpt lat="47.31515" lon="-1.66338">
        <ele>62.6</ele>
        <time>2015-05-10T07:11:38Z</time>
      </trkpt>
      <trkpt lat="47.31519" lon="-1.66339">
        <ele>62.4</ele>
        <time>2015-05-10T07:11:41Z</time>
      </trkpt>
      <trkpt lat="47.31522" lon="-1.66341">
        <ele>62.2</ele>
        <time>2015-05-10T07:11:44Z</time>
      </trkpt>
      <trkpt lat="47.31529" lon="-1.66336">
        <ele>61.7</ele>
        <time>2015-05-10T07:11:48Z</time>
      </trkpt>
      <trkpt lat="47.31533" lon="-1.66334">
        <ele>61.5</ele>
        <time>2015-05-10T07:11:50Z</time>
      </trkpt>
      <trkpt lat="47.31484" lon="-1.66339">
        <ele>64.2</ele>
        <time>2015-05-10T07:12:48Z</time>
      </trkpt>
      <trkpt lat="47.31481" lon="-1.66341">
        <ele>64.4</ele>
        <time>2015-05-10T07:12:51Z</time>
      </trkpt>
      <trkpt lat="47.31479" lon="-1.66344">
        <ele>64.5</ele>
        <time>2015-05-10T07:12:53Z</time>
      </trkpt>
      <trkpt lat="47.31479" lon="-1.66349">
        <ele>64.6</ele>
        <time>2015-05-10T07:12:56Z</time>
      </trkpt>
      <trkpt lat="47.31474" lon="-1.66352">
        <ele>64.9</ele>
        <time>2015-05-10T07:12:59Z</time>
      </trkpt>
      <trkpt lat="47.3147" lon="-1.66353">
        <ele>65.1</ele>
        <time>2015-05-10T07:13:01Z</time>
      </trkpt>
      <trkpt lat="47.31467" lon="-1.66351">
        <ele>65.3</ele>
        <time>2015-05-10T07:13:03Z</time>
      </trkpt>
      <trkpt lat="47.31464" lon="-1.66353">
        <ele>65.5</ele>
        <time>2015-05-10T07:13:05Z</time>
      </trkpt>
      <trkpt lat="47.3146" lon="-1.66356">
        <ele>65.7</ele>
        <time>2015-05-10T07:13:14Z</time>
      </trkpt>
      <trkpt lat="47.31459" lon="-1.6636">
        <ele>65.8</ele>
        <time>2015-05-10T07:13:20Z</time>
      </trkpt>
      <trkpt lat="47.31457" lon="-1.66363">
        <ele>65.8</ele>
        <time>2015-05-10T07:13:23Z</time>
      </trkpt>
      <trkpt lat="47.31459" lon="-1.66367">
        <ele>65.9</ele>
        <time>2015-05-10T07:13:27Z</time>
      </trkpt>
      <trkpt lat="47.31455" lon="-1.6637">
        <ele>65.9</ele>
        <time>2015-05-10T07:13:30Z</time>
      </trkpt>
      <trkpt lat="47.31453" lon="-1.66373">
        <ele>65.9</ele>
        <time>2015-05-10T07:13:33Z</time>
      </trkpt>
      <trkpt lat="47.31451" lon="-1.66375">
        <ele>65.8</ele>
        <time>2015-05-10T07:13:34Z</time>
      </trkpt>
      <trkpt lat="47.31447" lon="-1.66378">
        <ele>65.8</ele>
        <time>2015-05-10T07:13:35Z</time>
      </trkpt>
      <trkpt lat="47.3144" lon="-1.66385">
        <ele>65.7</ele>
        <time>2015-05-10T07:13:36Z</time>
      </trkpt>
      <trkpt lat="47.31436" lon="-1.66385">
        <ele>65.6</ele>
        <time>2015-05-10T07:13:37Z</time>
      </trkpt>
      <trkpt lat="47.31431" lon="-1.66385">
        <ele>65.5</ele>
        <time>2015-05-10T07:13:39Z</time>
      </trkpt>
      <trkpt lat="47.31428" lon="-1.66386">
        <ele>65.5</ele>
        <time>2015-05-10T07:13:40Z</time>
      </trkpt>
      <trkpt lat="47.31424" lon="-1.66386">
        <ele>65.4</ele>
        <time>2015-05-10T07:13:42Z</time>
      </trkpt>
      <trkpt lat="47.31419" lon="-1.66383">
        <ele>65.2</ele>
        <time>2015-05-10T07:13:44Z</time>
      </trkpt>
      <trkpt lat="47.31415" lon="-1.66379">
        <ele>65</ele>
        <time>2015-05-10T07:13:46Z</time>
      </trkpt>
      <trkpt lat="47.31413" lon="-1.66376">
        <ele>64.9</ele>
        <time>2015-05-10T07:13:48Z</time>
      </trkpt>
      <trkpt lat="47.31411" lon="-1.66371">
        <ele>64.8</ele>
        <time>2015-05-10T07:13:50Z</time>
      </trkpt>
      <trkpt lat="47.31408" lon="-1.66365">
        <ele>64.7</ele>
        <time>2015-05-10T07:13:52Z</time>
      </trkpt>
      <trkpt lat="47.31404" lon="-1.66361">
        <ele>64.6</ele>
        <time>2015-05-10T07:13:54Z</time>
      </trkpt>
      <trkpt lat="47.31401" lon="-1.6636">
        <ele>64.6</ele>
        <time>2015-05-10T07:13:56Z</time>
      </trkpt>
      <trkpt lat="47.31397" lon="-1.66357">
        <ele>64.5</ele>
        <time>2015-05-10T07:13:58Z</time>
      </trkpt>
      <trkpt lat="47.31394" lon="-1.66356">
        <ele>64.4</ele>
        <time>2015-05-10T07:14:02Z</time>
      </trkpt>
      <trkpt lat="47.31394" lon="-1.66352">
        <ele>64.4</ele>
        <time>2015-05-10T07:14:04Z</time>
      </trkpt>
      <trkpt lat="47.31395" lon="-1.66345">
        <ele>64.4</ele>
        <time>2015-05-10T07:14:07Z</time>
      </trkpt>
      <trkpt lat="47.31397" lon="-1.66341">
        <ele>64.4</ele>
        <time>2015-05-10T07:14:09Z</time>
      </trkpt>
      <trkpt lat="47.31398" lon="-1.66335">
        <ele>64.4</ele>
        <time>2015-05-10T07:14:11Z</time>
      </trkpt>
      <trkpt lat="47.31401" lon="-1.66334">
        <ele>64.5</ele>
        <time>2015-05-10T07:14:13Z</time>
      </trkpt>
      <trkpt lat="47.31405" lon="-1.66334">
        <ele>64.5</ele>
        <time>2015-05-10T07:14:16Z</time>
      </trkpt>
      <trkpt lat="47.31408" lon="-1.66333">
        <ele>64.6</ele>
        <time>2015-05-10T07:14:20Z</time>
      </trkpt>
      <trkpt lat="47.31417" lon="-1.66334">
        <ele>64.8</ele>
        <time>2015-05-10T07:14:34Z</time>
      </trkpt>
      <trkpt lat="47.31418" lon="-1.66338">
        <ele>64.8</ele>
        <time>2015-05-10T07:14:36Z</time>
      </trkpt>
      <trkpt lat="47.31422" lon="-1.66341">
        <ele>64.9</ele>
        <time>2015-05-10T07:14:42Z</time>
      </trkpt>
      <trkpt lat="47.31439" lon="-1.66347">
        <ele>65.3</ele>
        <time>2015-05-10T07:15:44Z</time>
      </trkpt>
      <trkpt lat="47.31439" lon="-1.66343">
        <ele>65.2</ele>
        <time>2015-05-10T07:15:48Z</time>
      </trkpt>
      <trkpt lat="47.31441" lon="-1.66339">
        <ele>65.2</ele>
        <time>2015-05-10T07:15:53Z</time>
      </trkpt>
      <trkpt lat="47.31444" lon="-1.66335">
        <ele>65.3</ele>
        <time>2015-05-10T07:15:59Z</time>
      </trkpt>
      <trkpt lat="47.31455" lon="-1.66328">
        <ele>65.4</ele>
        <time>2015-05-10T07:16:14Z</time>
      </trkpt>
      <trkpt lat="47.3146" lon="-1.66326">
        <ele>65.3</ele>
        <time>2015-05-10T07:16:17Z</time>
      </trkpt>
      <trkpt lat="47.31462" lon="-1.66325">
        <ele>65.2</ele>
        <time>2015-05-10T07:16:20Z</time>
      </trkpt>
      <trkpt lat="47.31461" lon="-1.66321">
        <ele>65.2</ele>
        <time>2015-05-10T07:16:26Z</time>
      </trkpt>
      <trkpt lat="47.31464" lon="-1.66318">
        <ele>65</ele>
        <time>2015-05-10T07:16:31Z</time>
      </trkpt>
      <trkpt lat="47.31467" lon="-1.66313">
        <ele>64.8</ele>
        <time>2015-05-10T07:16:45Z</time>
      </trkpt>
      <trkpt lat="47.31468" lon="-1.6631">
        <ele>64.6</ele>
        <time>2015-05-10T07:16:48Z</time>
      </trkpt>
      <trkpt lat="47.31473" lon="-1.66306">
        <ele>64.4</ele>
        <time>2015-05-10T07:16:50Z</time>
      </trkpt>
      <trkpt lat="47.31476" lon="-1.66304">
        <ele>64.1</ele>
        <time>2015-05-10T07:16:52Z</time>
      </trkpt>
      <trkpt lat="47.31476" lon="-1.66299">
        <ele>64.1</ele>
        <time>2015-05-10T07:16:54Z</time>
      </trkpt>
      <trkpt lat="47.31474" lon="-1.66294">
        <ele>64.1</ele>
        <time>2015-05-10T07:17:00Z</time>
      </trkpt>
      <trkpt lat="47.31471" lon="-1.6629">
        <ele>64.3</ele>
        <time>2015-05-10T07:17:04Z</time>
      </trkpt>
      <trkpt lat="47.31468" lon="-1.66288">
        <ele>64.5</ele>
        <time>2015-05-10T07:17:07Z</time>
      </trkpt>
      <trkpt lat="47.31465" lon="-1.66288">
        <ele>64.7</ele>
        <time>2015-05-10T07:17:10Z</time>
      </trkpt>
      <trkpt lat="47.31463" lon="-1.66285">
        <ele>64.9</ele>
        <time>2015-05-10T07:17:14Z</time>
      </trkpt>
      <trkpt lat="47.31461" lon="-1.66281">
        <ele>65.1</ele>
        <time>2015-05-10T07:17:17Z</time>
      </trkpt>
      <trkpt lat="47.31459" lon="-1.66278">
        <ele>65.3</ele>
        <time>2015-05-10T07:17:21Z</time>
      </trkpt>
      <trkpt lat="47.3145" lon="-1.66265">
        <ele>65.5</ele>
        <time>2015-05-10T07:17:44Z</time>
      </trkpt>
      <trkpt lat="47.31449" lon="-1.6626">
        <ele>65.6</ele>
        <time>2015-05-10T07:17:47Z</time>
      </trkpt>
      <trkpt lat="47.31448" lon="-1.66256">
        <ele>65.7</ele>
        <time>2015-05-10T07:17:50Z</time>
      </trkpt>
      <trkpt lat="47.31448" lon="-1.66251">
        <ele>65.9</ele>
        <time>2015-05-10T07:17:53Z</time>
      </trkpt>
      <trkpt lat="47.31446" lon="-1.66247">
        <ele>65.9</ele>
        <time>2015-05-10T07:17:55Z</time>
      </trkpt>
      <trkpt lat="47.31444" lon="-1.66244">
        <ele>66</ele>
        <time>2015-05-10T07:17:57Z</time>
      </trkpt>
      <trkpt lat="47.31447" lon="-1.66232">
        <ele>66.3</ele>
        <time>2015-05-10T07:18:29Z</time>
      </trkpt>
      <trkpt lat="47.31447" lon="-1.66228">
        <ele>66.4</ele>
        <time>2015-05-10T07:18:31Z</time>
      </trkpt>
      <trkpt lat="47.31444" lon="-1.66225">
        <ele>66.4</ele>
        <time>2015-05-10T07:18:33Z</time>
      </trkpt>
      <trkpt lat="47.31445" lon="-1.66221">
        <ele>66.5</ele>
        <time>2015-05-10T07:18:35Z</time>
      </trkpt>
      <trkpt lat="47.31445" lon="-1.66217">
        <ele>66.6</ele>
        <time>2015-05-10T07:18:38Z</time>
      </trkpt>
      <trkpt lat="47.31446" lon="-1.66212">
        <ele>66.8</ele>
        <time>2015-05-10T07:18:41Z</time>
      </trkpt>
      <trkpt lat="47.31447" lon="-1.66206">
        <ele>66.9</ele>
        <time>2015-05-10T07:18:44Z</time>
      </trkpt>
      <trkpt lat="47.31445" lon="-1.66203">
        <ele>66.9</ele>
        <time>2015-05-10T07:18:46Z</time>
      </trkpt>
      <trkpt lat="47.31444" lon="-1.66198">
        <ele>67</ele>
        <time>2015-05-10T07:18:48Z</time>
      </trkpt>
      <trkpt lat="47.31444" lon="-1.66193">
        <ele>67</ele>
        <time>2015-05-10T07:18:50Z</time>
      </trkpt>
      <trkpt lat="47.31442" lon="-1.66188">
        <ele>67.1</ele>
        <time>2015-05-10T07:18:52Z</time>
      </trkpt>
      <trkpt lat="47.31439" lon="-1.66186">
        <ele>67.1</ele>
        <time>2015-05-10T07:18:54Z</time>
      </trkpt>
      <trkpt lat="47.31436" lon="-1.66181">
        <ele>67.1</ele>
        <time>2015-05-10T07:18:56Z</time>
      </trkpt>
      <trkpt lat="47.31433" lon="-1.66181">
        <ele>67.1</ele>
        <time>2015-05-10T07:19:01Z</time>
      </trkpt>
      <trkpt lat="47.31431" lon="-1.66179">
        <ele>67.1</ele>
        <time>2015-05-10T07:19:06Z</time>
      </trkpt>
      <trkpt lat="47.31428" lon="-1.66182">
        <ele>67.1</ele>
        <time>2015-05-10T07:19:14Z</time>
      </trkpt>
      <trkpt lat="47.31427" lon="-1.66186">
        <ele>67</ele>
        <time>2015-05-10T07:19:21Z</time>
      </trkpt>
      <trkpt lat="47.31425" lon="-1.66189">
        <ele>66.9</ele>
        <time>2015-05-10T07:19:25Z</time>
      </trkpt>
      <trkpt lat="47.31421" lon="-1.6619">
        <ele>66.9</ele>
        <time>2015-05-10T07:19:29Z</time>
      </trkpt>
      <trkpt lat="47.31418" lon="-1.66191">
        <ele>66.8</ele>
        <time>2015-05-10T07:19:33Z</time>
      </trkpt>
      <trkpt lat="47.31418" lon="-1.66195">
        <ele>66.7</ele>
        <time>2015-05-10T07:19:37Z</time>
      </trkpt>
      <trkpt lat="47.3142" lon="-1.66199">
        <ele>66.7</ele>
        <time>2015-05-10T07:19:42Z</time>
      </trkpt>
      <trkpt lat="47.31419" lon="-1.66205">
        <ele>66.6</ele>
        <time>2015-05-10T07:19:46Z</time>
      </trkpt>
      <trkpt lat="47.31418" lon="-1.6621">
        <ele>66.5</ele>
        <time>2015-05-10T07:19:48Z</time>
      </trkpt>
      <trkpt lat="47.31417" lon="-1.66214">
        <ele>66.4</ele>
        <time>2015-05-10T07:19:50Z</time>
      </trkpt>
      <trkpt lat="47.31417" lon="-1.66219">
        <ele>66.2</ele>
        <time>2015-05-10T07:19:52Z</time>
      </trkpt>
      <trkpt lat="47.31418" lon="-1.66226">
        <ele>66.1</ele>
        <time>2015-05-10T07:19:55Z</time>
      </trkpt>
      <trkpt lat="47.3142" lon="-1.66229">
        <ele>66</ele>
        <time>2015-05-10T07:19:57Z</time>
      </trkpt>
      <trkpt lat="47.31422" lon="-1.66233">
        <ele>66</ele>
        <time>2015-05-10T07:19:59Z</time>
      </trkpt>
      <trkpt lat="47.31425" lon="-1.66236">
        <ele>65.9</ele>
        <time>2015-05-10T07:20:01Z</time>
      </trkpt>
      <trkpt lat="47.31429" lon="-1.66238">
        <ele>65.9</ele>
        <time>2015-05-10T07:20:03Z</time>
      </trkpt>
      <trkpt lat="47.31432" lon="-1.66241">
        <ele>65.9</ele>
        <time>2015-05-10T07:20:05Z</time>
      </trkpt>
      <trkpt lat="47.31432" lon="-1.66247">
        <ele>65.8</ele>
        <time>2015-05-10T07:20:07Z</time>
      </trkpt>
      <trkpt lat="47.31432" lon="-1.66253">
        <ele>65.6</ele>
        <time>2015-05-10T07:20:10Z</time>
      </trkpt>
      <trkpt lat="47.31431" lon="-1.66258">
        <ele>65.5</ele>
        <time>2015-05-10T07:20:13Z</time>
      </trkpt>
      <trkpt lat="47.31427" lon="-1.66261">
        <ele>65.4</ele>
        <time>2015-05-10T07:20:15Z</time>
      </trkpt>
      <trkpt lat="47.31423" lon="-1.66264">
        <ele>65.2</ele>
        <time>2015-05-10T07:20:17Z</time>
      </trkpt>
      <trkpt lat="47.3142" lon="-1.66271">
        <ele>65</ele>
        <time>2015-05-10T07:20:19Z</time>
      </trkpt>
      <trkpt lat="47.31419" lon="-1.66276">
        <ele>64.9</ele>
        <time>2015-05-10T07:20:20Z</time>
      </trkpt>
      <trkpt lat="47.31416" lon="-1.66279">
        <ele>64.8</ele>
        <time>2015-05-10T07:20:21Z</time>
      </trkpt>
      <trkpt lat="47.31413" lon="-1.66282">
        <ele>64.7</ele>
        <time>2015-05-10T07:20:23Z</time>
      </trkpt>
      <trkpt lat="47.3141" lon="-1.66284">
        <ele>64.6</ele>
        <time>2015-05-10T07:20:27Z</time>
      </trkpt>
      <trkpt lat="47.31409" lon="-1.66288">
        <ele>64.5</ele>
        <time>2015-05-10T07:20:33Z</time>
      </trkpt>
      <trkpt lat="47.31405" lon="-1.66288">
        <ele>64.5</ele>
        <time>2015-05-10T07:20:36Z</time>
      </trkpt>
      <trkpt lat="47.31402" lon="-1.66287">
        <ele>64.4</ele>
        <time>2015-05-10T07:20:39Z</time>
      </trkpt>
      <trkpt lat="47.31401" lon="-1.66284">
        <ele>64.5</ele>
        <time>2015-05-10T07:20:42Z</time>
      </trkpt>
      <trkpt lat="47.31402" lon="-1.66279">
        <ele>64.6</ele>
        <time>2015-05-10T07:20:49Z</time>
      </trkpt>
      <trkpt lat="47.31399" lon="-1.66276">
        <ele>64.7</ele>
        <time>2015-05-10T07:20:52Z</time>
      </trkpt>
      <trkpt lat="47.31379" lon="-1.66281">
        <ele>64.3</ele>
        <time>2015-05-10T07:21:18Z</time>
      </trkpt>
      <trkpt lat="47.31375" lon="-1.6628">
        <ele>64.3</ele>
        <time>2015-05-10T07:21:20Z</time>
      </trkpt>
      <trkpt lat="47.31372" lon="-1.6628">
        <ele>64.2</ele>
        <time>2015-05-10T07:21:22Z</time>
      </trkpt>
      <trkpt lat="47.31369" lon="-1.66281">
        <ele>64.1</ele>
        <time>2015-05-10T07:21:23Z</time>
      </trkpt>
      <trkpt lat="47.31366" lon="-1.66279">
        <ele>64.1</ele>
        <time>2015-05-10T07:21:24Z</time>
      </trkpt>
      <trkpt lat="47.31363" lon="-1.66278">
        <ele>64</ele>
        <time>2015-05-10T07:21:25Z</time>
      </trkpt>
      <trkpt lat="47.31359" lon="-1.66275">
        <ele>64</ele>
        <time>2015-05-10T07:21:26Z</time>
      </trkpt>
      <trkpt lat="47.31358" lon="-1.66271">
        <ele>64</ele>
        <time>2015-05-10T07:21:28Z</time>
      </trkpt>
      <trkpt lat="47.31357" lon="-1.66267">
        <ele>64.1</ele>
        <time>2015-05-10T07:21:30Z</time>
      </trkpt>
      <trkpt lat="47.31359" lon="-1.66263">
        <ele>64.2</ele>
        <time>2015-05-10T07:21:34Z</time>
      </trkpt>
      <trkpt lat="47.31363" lon="-1.66261">
        <ele>64.4</ele>
        <time>2015-05-10T07:21:36Z</time>
      </trkpt>
      <trkpt lat="47.31365" lon="-1.66259">
        <ele>64.5</ele>
        <time>2015-05-10T07:21:38Z</time>
      </trkpt>
      <trkpt lat="47.31368" lon="-1.66257">
        <ele>64.6</ele>
        <time>2015-05-10T07:21:39Z</time>
      </trkpt>
      <trkpt lat="47.31371" lon="-1.66255">
        <ele>64.8</ele>
        <time>2015-05-10T07:21:41Z</time>
      </trkpt>
      <trkpt lat="47.31374" lon="-1.66255">
        <ele>64.9</ele>
        <time>2015-05-10T07:21:43Z</time>
      </trkpt>
      <trkpt lat="47.31378" lon="-1.66254">
        <ele>64.9</ele>
        <time>2015-05-10T07:21:45Z</time>
      </trkpt>
      <trkpt lat="47.31381" lon="-1.66252">
        <ele>65</ele>
        <time>2015-05-10T07:21:47Z</time>
      </trkpt>
      <trkpt lat="47.31383" lon="-1.66248">
        <ele>65.1</ele>
        <time>2015-05-10T07:21:50Z</time>
      </trkpt>
      <trkpt lat="47.31382" lon="-1.66243">
        <ele>65.3</ele>
        <time>2015-05-10T07:21:53Z</time>
      </trkpt>
      <trkpt lat="47.31379" lon="-1.66241">
        <ele>65.3</ele>
        <time>2015-05-10T07:21:55Z</time>
      </trkpt>
      <trkpt lat="47.31377" lon="-1.66238">
        <ele>65.3</ele>
        <time>2015-05-10T07:21:57Z</time>
      </trkpt>
      <trkpt lat="47.31378" lon="-1.66231">
        <ele>65.5</ele>
        <time>2015-05-10T07:21:59Z</time>
      </trkpt>
      <trkpt lat="47.3138" lon="-1.66227">
        <ele>65.6</ele>
        <time>2015-05-10T07:22:01Z</time>
      </trkpt>
      <trkpt lat="47.31382" lon="-1.66222">
        <ele>65.8</ele>
        <time>2015-05-10T07:22:03Z</time>
      </trkpt>
      <trkpt lat="47.31384" lon="-1.66218">
        <ele>65.9</ele>
        <time>2015-05-10T07:22:05Z</time>
      </trkpt>
      <trkpt lat="47.31386" lon="-1.66213">
        <ele>66</ele>
        <time>2015-05-10T07:22:07Z</time>
      </trkpt>
      <trkpt lat="47.31385" lon="-1.66208">
        <ele>66.1</ele>
        <time>2015-05-10T07:22:09Z</time>
      </trkpt>
      <trkpt lat="47.31383" lon="-1.66205">
        <ele>66.2</ele>
        <time>2015-05-10T07:22:11Z</time>
      </trkpt>
      <trkpt lat="47.3138" lon="-1.66201">
        <ele>66.2</ele>
        <time>2015-05-10T07:22:14Z</time>
      </trkpt>
      <trkpt lat="47.31378" lon="-1.66197">
        <ele>66.3</ele>
        <time>2015-05-10T07:22:16Z</time>
      </trkpt>
      <trkpt lat="47.31375" lon="-1.66192">
        <ele>66.4</ele>
        <time>2015-05-10T07:22:18Z</time>
      </trkpt>
      <trkpt lat="47.31372" lon="-1.66191">
        <ele>66.3</ele>
        <time>2015-05-10T07:22:20Z</time>
      </trkpt>
      <trkpt lat="47.3137" lon="-1.66189">
        <ele>66.3</ele>
        <time>2015-05-10T07:22:22Z</time>
      </trkpt>
      <trkpt lat="47.31366" lon="-1.66185">
        <ele>66.3</ele>
        <time>2015-05-10T07:22:25Z</time>
      </trkpt>
      <trkpt lat="47.31364" lon="-1.66182">
        <ele>66.3</ele>
        <time>2015-05-10T07:22:26Z</time>
      </trkpt>
      <trkpt lat="47.31361" lon="-1.6618">
        <ele>66.2</ele>
        <time>2015-05-10T07:22:27Z</time>
      </trkpt>
      <trkpt lat="47.31358" lon="-1.66177">
        <ele>66.2</ele>
        <time>2015-05-10T07:22:28Z</time>
      </trkpt>
      <trkpt lat="47.31357" lon="-1.66172">
        <ele>66.3</ele>
        <time>2015-05-10T07:22:29Z</time>
      </trkpt>
      <trkpt lat="47.31358" lon="-1.66167">
        <ele>66.5</ele>
        <time>2015-05-10T07:22:30Z</time>
      </trkpt>
      <trkpt lat="47.3136" lon="-1.66162">
        <ele>66.7</ele>
        <time>2015-05-10T07:22:31Z</time>
      </trkpt>
      <trkpt lat="47.31364" lon="-1.66156">
        <ele>66.9</ele>
        <time>2015-05-10T07:22:32Z</time>
      </trkpt>
      <trkpt lat="47.31367" lon="-1.66155">
        <ele>67.1</ele>
        <time>2015-05-10T07:22:34Z</time>
      </trkpt>
      <trkpt lat="47.3137" lon="-1.66158">
        <ele>67.1</ele>
        <time>2015-05-10T07:22:36Z</time>
      </trkpt>
      <trkpt lat="47.31374" lon="-1.66162">
        <ele>67.1</ele>
        <time>2015-05-10T07:22:38Z</time>
      </trkpt>
      <trkpt lat="47.31379" lon="-1.66163">
        <ele>67.1</ele>
        <time>2015-05-10T07:22:40Z</time>
      </trkpt>
      <trkpt lat="47.31383" lon="-1.66162">
        <ele>67.2</ele>
        <time>2015-05-10T07:22:42Z</time>
      </trkpt>
      <trkpt lat="47.31386" lon="-1.66162">
        <ele>67.2</ele>
        <time>2015-05-10T07:22:45Z</time>
      </trkpt>
      <trkpt lat="47.31389" lon="-1.66162">
        <ele>67.2</ele>
        <time>2015-05-10T07:22:49Z</time>
      </trkpt>
      <trkpt lat="47.31393" lon="-1.66164">
        <ele>67.2</ele>
        <time>2015-05-10T07:23:10Z</time>
      </trkpt>
      <trkpt lat="47.31396" lon="-1.66163">
        <ele>67.2</ele>
        <time>2015-05-10T07:23:12Z</time>
      </trkpt>
      <trkpt lat="47.31399" lon="-1.66161">
        <ele>67.3</ele>
        <time>2015-05-10T07:23:15Z</time>
      </trkpt>
      <trkpt lat="47.31403" lon="-1.66163">
        <ele>67.2</ele>
        <time>2015-05-10T07:23:16Z</time>
      </trkpt>
      <trkpt lat="47.31406" lon="-1.66161">
        <ele>67.3</ele>
        <time>2015-05-10T07:23:19Z</time>
      </trkpt>
      <trkpt lat="47.31408" lon="-1.66157">
        <ele>67.4</ele>
        <time>2015-05-10T07:23:28Z</time>
      </trkpt>
      <trkpt lat="47.31412" lon="-1.66151">
        <ele>67.5</ele>
        <time>2015-05-10T07:23:30Z</time>
      </trkpt>
      <trkpt lat="47.31415" lon="-1.66148">
        <ele>67.6</ele>
        <time>2015-05-10T07:23:32Z</time>
      </trkpt>
      <trkpt lat="47.31418" lon="-1.66145">
        <ele>67.6</ele>
        <time>2015-05-10T07:23:34Z</time>
      </trkpt>
      <trkpt lat="47.31422" lon="-1.66143">
        <ele>67.7</ele>
        <time>2015-05-10T07:23:36Z</time>
      </trkpt>
      <trkpt lat="47.31425" lon="-1.66141">
        <ele>67.7</ele>
        <time>2015-05-10T07:23:38Z</time>
      </trkpt>
      <trkpt lat="47.31428" lon="-1.66141">
        <ele>67.7</ele>
        <time>2015-05-10T07:23:40Z</time>
      </trkpt>
      <trkpt lat="47.31431" lon="-1.66144">
        <ele>67.7</ele>
        <time>2015-05-10T07:23:42Z</time>
      </trkpt>
      <trkpt lat="47.31434" lon="-1.66146">
        <ele>67.7</ele>
        <time>2015-05-10T07:23:44Z</time>
      </trkpt>
      <trkpt lat="47.31437" lon="-1.66146">
        <ele>67.7</ele>
        <time>2015-05-10T07:23:46Z</time>
      </trkpt>
      <trkpt lat="47.3144" lon="-1.66146">
        <ele>67.7</ele>
        <time>2015-05-10T07:23:48Z</time>
      </trkpt>
      <trkpt lat="47.31445" lon="-1.66146">
        <ele>67.7</ele>
        <time>2015-05-10T07:23:51Z</time>
      </trkpt>
      <trkpt lat="47.31449" lon="-1.66146">
        <ele>67.7</ele>
        <time>2015-05-10T07:23:53Z</time>
      </trkpt>
      <trkpt lat="47.31453" lon="-1.66146">
        <ele>67.7</ele>
        <time>2015-05-10T07:23:55Z</time>
      </trkpt>
      <trkpt lat="47.31457" lon="-1.66146">
        <ele>67.8</ele>
        <time>2015-05-10T07:23:57Z</time>
      </trkpt>
      <trkpt lat="47.3146" lon="-1.66146">
        <ele>67.7</ele>
        <time>2015-05-10T07:23:59Z</time>
      </trkpt>
      <trkpt lat="47.31463" lon="-1.66149">
        <ele>67.5</ele>
        <time>2015-05-10T07:24:01Z</time>
      </trkpt>
      <trkpt lat="47.31465" lon="-1.66153">
        <ele>67.4</ele>
        <time>2015-05-10T07:24:03Z</time>
      </trkpt>
      <trkpt lat="47.31468" lon="-1.66157">
        <ele>67.2</ele>
        <time>2015-05-10T07:24:06Z</time>
      </trkpt>
      <trkpt lat="47.3147" lon="-1.6616">
        <ele>67</ele>
        <time>2015-05-10T07:24:09Z</time>
      </trkpt>
      <trkpt lat="47.31472" lon="-1.66164">
        <ele>66.9</ele>
        <time>2015-05-10T07:24:11Z</time>
      </trkpt>
      <trkpt lat="47.31473" lon="-1.66167">
        <ele>66.8</ele>
        <time>2015-05-10T07:24:13Z</time>
      </trkpt>
      <trkpt lat="47.31476" lon="-1.66171">
        <ele>66.6</ele>
        <time>2015-05-10T07:24:16Z</time>
      </trkpt>
      <trkpt lat="47.31478" lon="-1.66173">
        <ele>66.4</ele>
        <time>2015-05-10T07:24:18Z</time>
      </trkpt>
      <trkpt lat="47.3148" lon="-1.66178">
        <ele>66.3</ele>
        <time>2015-05-10T07:24:20Z</time>
      </trkpt>
      <trkpt lat="47.3148" lon="-1.66182">
        <ele>66.2</ele>
        <time>2015-05-10T07:24:22Z</time>
      </trkpt>
      <trkpt lat="47.31483" lon="-1.66186">
        <ele>66</ele>
        <time>2015-05-10T07:24:24Z</time>
      </trkpt>
      <trkpt lat="47.31486" lon="-1.66186">
        <ele>65.8</ele>
        <time>2015-05-10T07:24:25Z</time>
      </trkpt>
      <trkpt lat="47.3149" lon="-1.66187">
        <ele>65.6</ele>
        <time>2015-05-10T07:24:26Z</time>
      </trkpt>
      <trkpt lat="47.31493" lon="-1.66187">
        <ele>65.4</ele>
        <time>2015-05-10T07:24:27Z</time>
      </trkpt>
      <trkpt lat="47.31497" lon="-1.66187">
        <ele>65.2</ele>
        <time>2015-05-10T07:24:29Z</time>
      </trkpt>
      <trkpt lat="47.315" lon="-1.66185">
        <ele>65.1</ele>
        <time>2015-05-10T07:24:32Z</time>
      </trkpt>
      <trkpt lat="47.31503" lon="-1.66187">
        <ele>64.9</ele>
        <time>2015-05-10T07:24:34Z</time>
      </trkpt>
      <trkpt lat="47.31507" lon="-1.66189">
        <ele>64.6</ele>
        <time>2015-05-10T07:24:37Z</time>
      </trkpt>
      <trkpt lat="47.31511" lon="-1.66188">
        <ele>64.4</ele>
        <time>2015-05-10T07:24:39Z</time>
      </trkpt>
      <trkpt lat="47.31515" lon="-1.66189">
        <ele>64.2</ele>
        <time>2015-05-10T07:24:41Z</time>
      </trkpt>
      <trkpt lat="47.31517" lon="-1.66193">
        <ele>63.9</ele>
        <time>2015-05-10T07:24:43Z</time>
      </trkpt>
      <trkpt lat="47.3152" lon="-1.66192">
        <ele>63.8</ele>
        <time>2015-05-10T07:24:45Z</time>
      </trkpt>
      <trkpt lat="47.31521" lon="-1.66188">
        <ele>63.8</ele>
        <time>2015-05-10T07:24:48Z</time>
      </trkpt>
      <trkpt lat="47.3152" lon="-1.66184">
        <ele>64.1</ele>
        <time>2015-05-10T07:24:50Z</time>
      </trkpt>
      <trkpt lat="47.31516" lon="-1.66184">
        <ele>64.2</ele>
        <time>2015-05-10T07:24:52Z</time>
      </trkpt>
      <trkpt lat="47.31515" lon="-1.6618">
        <ele>64.4</ele>
        <time>2015-05-10T07:24:54Z</time>
      </trkpt>
      <trkpt lat="47.31514" lon="-1.66176">
        <ele>64.6</ele>
        <time>2015-05-10T07:24:56Z</time>
      </trkpt>
      <trkpt lat="47.31517" lon="-1.66169">
        <ele>64.6</ele>
        <time>2015-05-10T07:24:58Z</time>
      </trkpt>
      <trkpt lat="47.31521" lon="-1.66164">
        <ele>64.6</ele>
        <time>2015-05-10T07:25:00Z</time>
      </trkpt>
      <trkpt lat="47.31523" lon="-1.6616">
        <ele>64.6</ele>
        <time>2015-05-10T07:25:02Z</time>
      </trkpt>
      <trkpt lat="47.31522" lon="-1.66156">
        <ele>64.8</ele>
        <time>2015-05-10T07:25:07Z</time>
      </trkpt>
      <trkpt lat="47.31523" lon="-1.66153">
        <ele>64.8</ele>
        <time>2015-05-10T07:25:10Z</time>
      </trkpt>
      <trkpt lat="47.31531" lon="-1.6613">
        <ele>65.2</ele>
        <time>2015-05-10T07:25:34Z</time>
      </trkpt>
      <trkpt lat="47.31528" lon="-1.66127">
        <ele>65.4</ele>
        <time>2015-05-10T07:25:36Z</time>
      </trkpt>
      <trkpt lat="47.31527" lon="-1.66122">
        <ele>65.5</ele>
        <time>2015-05-10T07:25:39Z</time>
      </trkpt>
      <trkpt lat="47.31524" lon="-1.66119">
        <ele>65.5</ele>
        <time>2015-05-10T07:25:42Z</time>
      </trkpt>
      <trkpt lat="47.31524" lon="-1.66115">
        <ele>65.4</ele>
        <time>2015-05-10T07:25:49Z</time>
      </trkpt>
      <trkpt lat="47.31524" lon="-1.6611">
        <ele>65.3</ele>
        <time>2015-05-10T07:25:53Z</time>
      </trkpt>
      <trkpt lat="47.31522" lon="-1.66105">
        <ele>65.3</ele>
        <time>2015-05-10T07:25:56Z</time>
      </trkpt>
      <trkpt lat="47.31525" lon="-1.66105">
        <ele>65.1</ele>
        <time>2015-05-10T07:25:59Z</time>
      </trkpt>
      <trkpt lat="47.31524" lon="-1.66101">
        <ele>65.1</ele>
        <time>2015-05-10T07:26:03Z</time>
      </trkpt>
      <trkpt lat="47.31523" lon="-1.66096">
        <ele>65.1</ele>
        <time>2015-05-10T07:26:06Z</time>
      </trkpt>
      <trkpt lat="47.31519" lon="-1.66092">
        <ele>65.1</ele>
        <time>2015-05-10T07:26:08Z</time>
      </trkpt>
      <trkpt lat="47.31517" lon="-1.66089">
        <ele>65.2</ele>
        <time>2015-05-10T07:26:10Z</time>
      </trkpt>
      <trkpt lat="47.31513" lon="-1.66085">
        <ele>65.3</ele>
        <time>2015-05-10T07:26:13Z</time>
      </trkpt>
      <trkpt lat="47.31507" lon="-1.66084">
        <ele>65.5</ele>
        <time>2015-05-10T07:26:15Z</time>
      </trkpt>
      <trkpt lat="47.31505" lon="-1.6608">
        <ele>65.5</ele>
        <time>2015-05-10T07:26:17Z</time>
      </trkpt>
      <trkpt lat="47.31502" lon="-1.66075">
        <ele>65.5</ele>
        <time>2015-05-10T07:26:19Z</time>
      </trkpt>
      <trkpt lat="47.31499" lon="-1.6607">
        <ele>65.6</ele>
        <time>2015-05-10T07:26:21Z</time>
      </trkpt>
      <trkpt lat="47.31496" lon="-1.66067">
        <ele>65.6</ele>
        <time>2015-05-10T07:26:23Z</time>
      </trkpt>
      <trkpt lat="47.31494" lon="-1.66065">
        <ele>65.7</ele>
        <time>2015-05-10T07:26:25Z</time>
      </trkpt>
      <trkpt lat="47.3149" lon="-1.66059">
        <ele>65.8</ele>
        <time>2015-05-10T07:26:28Z</time>
      </trkpt>
      <trkpt lat="47.31488" lon="-1.66055">
        <ele>65.8</ele>
        <time>2015-05-10T07:26:30Z</time>
      </trkpt>
      <trkpt lat="47.31486" lon="-1.66058">
        <ele>65.9</ele>
        <time>2015-05-10T07:26:34Z</time>
      </trkpt>
      <trkpt lat="47.31488" lon="-1.66062">
        <ele>65.9</ele>
        <time>2015-05-10T07:26:41Z</time>
      </trkpt>
      <trkpt lat="47.3149" lon="-1.66064">
        <ele>65.8</ele>
        <time>2015-05-10T07:26:44Z</time>
      </trkpt>
      <trkpt lat="47.31491" lon="-1.66069">
        <ele>65.9</ele>
        <time>2015-05-10T07:26:50Z</time>
      </trkpt>
      <trkpt lat="47.3149" lon="-1.66073">
        <ele>66</ele>
        <time>2015-05-10T07:26:52Z</time>
      </trkpt>
      <trkpt lat="47.31485" lon="-1.66071">
        <ele>66.2</ele>
        <time>2015-05-10T07:26:54Z</time>
      </trkpt>
      <trkpt lat="47.31481" lon="-1.66068">
        <ele>66.3</ele>
        <time>2015-05-10T07:26:56Z</time>
      </trkpt>
      <trkpt lat="47.31479" lon="-1.66065">
        <ele>66.4</ele>
        <time>2015-05-10T07:26:58Z</time>
      </trkpt>
      <trkpt lat="47.31476" lon="-1.66064">
        <ele>66.5</ele>
        <time>2015-05-10T07:26:59Z</time>
      </trkpt>
      <trkpt lat="47.31474" lon="-1.66061">
        <ele>66.5</ele>
        <time>2015-05-10T07:27:01Z</time>
      </trkpt>
      <trkpt lat="47.31469" lon="-1.6606">
        <ele>66.7</ele>
        <time>2015-05-10T07:27:03Z</time>
      </trkpt>
      <trkpt lat="47.31465" lon="-1.66059">
        <ele>66.9</ele>
        <time>2015-05-10T07:27:05Z</time>
      </trkpt>
      <trkpt lat="47.31462" lon="-1.66059">
        <ele>67</ele>
        <time>2015-05-10T07:27:06Z</time>
      </trkpt>
      <trkpt lat="47.31458" lon="-1.66057">
        <ele>67.2</ele>
        <time>2015-05-10T07:27:08Z</time>
      </trkpt>
      <trkpt lat="47.31454" lon="-1.66059">
        <ele>67.3</ele>
        <time>2015-05-10T07:27:11Z</time>
      </trkpt>
      <trkpt lat="47.3145" lon="-1.6606">
        <ele>67.4</ele>
        <time>2015-05-10T07:27:14Z</time>
      </trkpt>
      <trkpt lat="47.31447" lon="-1.66059">
        <ele>67.4</ele>
        <time>2015-05-10T07:27:15Z</time>
      </trkpt>
      <trkpt lat="47.31444" lon="-1.66056">
        <ele>67.5</ele>
        <time>2015-05-10T07:27:16Z</time>
      </trkpt>
      <trkpt lat="47.31442" lon="-1.66053">
        <ele>67.5</ele>
        <time>2015-05-10T07:27:17Z</time>
      </trkpt>
      <trkpt lat="47.31442" lon="-1.66048">
        <ele>67.5</ele>
        <time>2015-05-10T07:27:19Z</time>
      </trkpt>
      <trkpt lat="47.3144" lon="-1.66045">
        <ele>67.5</ele>
        <time>2015-05-10T07:27:20Z</time>
      </trkpt>
      <trkpt lat="47.31439" lon="-1.66041">
        <ele>67.5</ele>
        <time>2015-05-10T07:27:21Z</time>
      </trkpt>
      <trkpt lat="47.31439" lon="-1.66037">
        <ele>67.5</ele>
        <time>2015-05-10T07:27:22Z</time>
      </trkpt>
      <trkpt lat="47.3144" lon="-1.66031">
        <ele>67.5</ele>
        <time>2015-05-10T07:27:24Z</time>
      </trkpt>
      <trkpt lat="47.31442" lon="-1.66026">
        <ele>67.4</ele>
        <time>2015-05-10T07:27:26Z</time>
      </trkpt>
      <trkpt lat="47.31442" lon="-1.6602">
        <ele>67.5</ele>
        <time>2015-05-10T07:27:28Z</time>
      </trkpt>
      <trkpt lat="47.3144" lon="-1.66016">
        <ele>67.5</ele>
        <time>2015-05-10T07:27:30Z</time>
      </trkpt>
      <trkpt lat="47.31437" lon="-1.66011">
        <ele>67.6</ele>
        <time>2015-05-10T07:27:35Z</time>
      </trkpt>
      <trkpt lat="47.31434" lon="-1.66007">
        <ele>67.7</ele>
        <time>2015-05-10T07:27:38Z</time>
      </trkpt>
      <trkpt lat="47.31435" lon="-1.66003">
        <ele>67.7</ele>
        <time>2015-05-10T07:27:40Z</time>
      </trkpt>
      <trkpt lat="47.31436" lon="-1.65997">
        <ele>67.7</ele>
        <time>2015-05-10T07:27:43Z</time>
      </trkpt>
      <trkpt lat="47.31437" lon="-1.65992">
        <ele>67.7</ele>
        <time>2015-05-10T07:27:46Z</time>
      </trkpt>
      <trkpt lat="47.31439" lon="-1.65985">
        <ele>67.6</ele>
        <time>2015-05-10T07:27:48Z</time>
      </trkpt>
      <trkpt lat="47.31441" lon="-1.65979">
        <ele>67.6</ele>
        <time>2015-05-10T07:27:50Z</time>
      </trkpt>
      <trkpt lat="47.31441" lon="-1.65971">
        <ele>67.6</ele>
        <time>2015-05-10T07:27:52Z</time>
      </trkpt>
      <trkpt lat="47.31442" lon="-1.65966">
        <ele>67.6</ele>
        <time>2015-05-10T07:27:54Z</time>
      </trkpt>
      <trkpt lat="47.31444" lon="-1.65962">
        <ele>67.5</ele>
        <time>2015-05-10T07:27:55Z</time>
      </trkpt>
      <trkpt lat="47.31444" lon="-1.65956">
        <ele>67.5</ele>
        <time>2015-05-10T07:27:57Z</time>
      </trkpt>
      <trkpt lat="47.31446" lon="-1.65951">
        <ele>67.5</ele>
        <time>2015-05-10T07:27:59Z</time>
      </trkpt>
      <trkpt lat="47.31446" lon="-1.65947">
        <ele>67.5</ele>
        <time>2015-05-10T07:28:01Z</time>
      </trkpt>
      <trkpt lat="47.31447" lon="-1.65942">
        <ele>67.5</ele>
        <time>2015-05-10T07:28:04Z</time>
      </trkpt>
      <trkpt lat="47.31451" lon="-1.65942">
        <ele>67.4</ele>
        <time>2015-05-10T07:28:06Z</time>
      </trkpt>
      <trkpt lat="47.31455" lon="-1.65941">
        <ele>67.3</ele>
        <time>2015-05-10T07:28:08Z</time>
      </trkpt>
      <trkpt lat="47.31458" lon="-1.65938">
        <ele>67.3</ele>
        <time>2015-05-10T07:28:09Z</time>
      </trkpt>
      <trkpt lat="47.31463" lon="-1.65934">
        <ele>66.7</ele>
        <time>2015-05-10T07:28:10Z</time>
      </trkpt>
      <trkpt lat="47.31465" lon="-1.6593">
        <ele>66.6</ele>
        <time>2015-05-10T07:28:11Z</time>
      </trkpt>
      <trkpt lat="47.31465" lon="-1.65925">
        <ele>66.6</ele>
        <time>2015-05-10T07:28:12Z</time>
      </trkpt>
      <trkpt lat="47.31464" lon="-1.65921">
        <ele>66.7</ele>
        <time>2015-05-10T07:28:13Z</time>
      </trkpt>
      <trkpt lat="47.31463" lon="-1.65913">
        <ele>66.9</ele>
        <time>2015-05-10T07:28:15Z</time>
      </trkpt>
      <trkpt lat="47.31464" lon="-1.65906">
        <ele>66.9</ele>
        <time>2015-05-10T07:28:17Z</time>
      </trkpt>
      <trkpt lat="47.31463" lon="-1.65899">
        <ele>67.1</ele>
        <time>2015-05-10T07:28:19Z</time>
      </trkpt>
      <trkpt lat="47.31462" lon="-1.6589">
        <ele>67.3</ele>
        <time>2015-05-10T07:28:21Z</time>
      </trkpt>
      <trkpt lat="47.31461" lon="-1.65883">
        <ele>67.6</ele>
        <time>2015-05-10T07:28:23Z</time>
      </trkpt>
      <trkpt lat="47.31461" lon="-1.65876">
        <ele>67.7</ele>
        <time>2015-05-10T07:28:25Z</time>
      </trkpt>
      <trkpt lat="47.31459" lon="-1.6587">
        <ele>68</ele>
        <time>2015-05-10T07:28:27Z</time>
      </trkpt>
      <trkpt lat="47.31456" lon="-1.65866">
        <ele>68</ele>
        <time>2015-05-10T07:28:29Z</time>
      </trkpt>
      <trkpt lat="47.31456" lon="-1.65862">
        <ele>68</ele>
        <time>2015-05-10T07:28:31Z</time>
      </trkpt>
      <trkpt lat="47.31456" lon="-1.65857">
        <ele>68</ele>
        <time>2015-05-10T07:28:33Z</time>
      </trkpt>
      <trkpt lat="47.31458" lon="-1.65852">
        <ele>68</ele>
        <time>2015-05-10T07:28:35Z</time>
      </trkpt>
      <trkpt lat="47.3146" lon="-1.65842">
        <ele>67.8</ele>
        <time>2015-05-10T07:28:38Z</time>
      </trkpt>
      <trkpt lat="47.31461" lon="-1.65838">
        <ele>67.7</ele>
        <time>2015-05-10T07:28:39Z</time>
      </trkpt>
      <trkpt lat="47.31462" lon="-1.65834">
        <ele>67.6</ele>
        <time>2015-05-10T07:28:40Z</time>
      </trkpt>
      <trkpt lat="47.31461" lon="-1.65829">
        <ele>67.7</ele>
        <time>2015-05-10T07:28:41Z</time>
      </trkpt>
      <trkpt lat="47.31461" lon="-1.65824">
        <ele>67.7</ele>
        <time>2015-05-10T07:28:42Z</time>
      </trkpt>
      <trkpt lat="47.31462" lon="-1.65818">
        <ele>67.7</ele>
        <time>2015-05-10T07:28:43Z</time>
      </trkpt>
      <trkpt lat="47.31462" lon="-1.65811">
        <ele>67.6</ele>
        <time>2015-05-10T07:28:44Z</time>
      </trkpt>
      <trkpt lat="47.31464" lon="-1.65806">
        <ele>67.5</ele>
        <time>2015-05-10T07:28:45Z</time>
      </trkpt>
      <trkpt lat="47.31465" lon="-1.65801">
        <ele>67.4</ele>
        <time>2015-05-10T07:28:46Z</time>
      </trkpt>
      <trkpt lat="47.31467" lon="-1.65797">
        <ele>67.3</ele>
        <time>2015-05-10T07:28:47Z</time>
      </trkpt>
      <trkpt lat="47.31469" lon="-1.65792">
        <ele>67.1</ele>
        <time>2015-05-10T07:28:48Z</time>
      </trkpt>
      <trkpt lat="47.31471" lon="-1.65787">
        <ele>66.9</ele>
        <time>2015-05-10T07:28:49Z</time>
      </trkpt>
      <trkpt lat="47.31472" lon="-1.65783">
        <ele>66.8</ele>
        <time>2015-05-10T07:28:50Z</time>
      </trkpt>
      <trkpt lat="47.31474" lon="-1.6578">
        <ele>66.6</ele>
        <time>2015-05-10T07:28:51Z</time>
      </trkpt>
      <trkpt lat="47.31478" lon="-1.65776">
        <ele>66.3</ele>
        <time>2015-05-10T07:28:53Z</time>
      </trkpt>
      <trkpt lat="47.31481" lon="-1.65776">
        <ele>66</ele>
        <time>2015-05-10T07:28:54Z</time>
      </trkpt>
      <trkpt lat="47.31484" lon="-1.65773">
        <ele>65.7</ele>
        <time>2015-05-10T07:28:56Z</time>
      </trkpt>
      <trkpt lat="47.31486" lon="-1.65768">
        <ele>65.6</ele>
        <time>2015-05-10T07:28:58Z</time>
      </trkpt>
      <trkpt lat="47.31488" lon="-1.65763">
        <ele>65.4</ele>
        <time>2015-05-10T07:29:00Z</time>
      </trkpt>
      <trkpt lat="47.31488" lon="-1.65758">
        <ele>65.4</ele>
        <time>2015-05-10T07:29:02Z</time>
      </trkpt>
      <trkpt lat="47.31485" lon="-1.65756">
        <ele>65.6</ele>
        <time>2015-05-10T07:29:03Z</time>
      </trkpt>
      <trkpt lat="47.31482" lon="-1.65752">
        <ele>65.8</ele>
        <time>2015-05-10T07:29:05Z</time>
      </trkpt>
      <trkpt lat="47.31479" lon="-1.6575">
        <ele>66</ele>
        <time>2015-05-10T07:29:07Z</time>
      </trkpt>
      <trkpt lat="47.31476" lon="-1.65744">
        <ele>66.2</ele>
        <time>2015-05-10T07:29:09Z</time>
      </trkpt>
      <trkpt lat="47.31473" lon="-1.65742">
        <ele>66.4</ele>
        <time>2015-05-10T07:29:11Z</time>
      </trkpt>
      <trkpt lat="47.31469" lon="-1.65738">
        <ele>66.6</ele>
        <time>2015-05-10T07:29:15Z</time>
      </trkpt>
      <trkpt lat="47.31466" lon="-1.65735">
        <ele>66.8</ele>
        <time>2015-05-10T07:29:17Z</time>
      </trkpt>
      <trkpt lat="47.31463" lon="-1.65733">
        <ele>67</ele>
        <time>2015-05-10T07:29:19Z</time>
      </trkpt>
      <trkpt lat="47.3146" lon="-1.65731">
        <ele>67.1</ele>
        <time>2015-05-10T07:29:21Z</time>
      </trkpt>
      <trkpt lat="47.31455" lon="-1.65729">
        <ele>67.2</ele>
        <time>2015-05-10T07:29:23Z</time>
      </trkpt>
      <trkpt lat="47.31452" lon="-1.65729">
        <ele>67.2</ele>
        <time>2015-05-10T07:29:25Z</time>
      </trkpt>
      <trkpt lat="47.31449" lon="-1.65727">
        <ele>67.1</ele>
        <time>2015-05-10T07:29:28Z</time>
      </trkpt>
      <trkpt lat="47.31447" lon="-1.65728">
        <ele>67.1</ele>
        <time>2015-05-10T07:29:30Z</time>
      </trkpt>
      <trkpt lat="47.31444" lon="-1.65727">
        <ele>67.1</ele>
        <time>2015-05-10T07:29:31Z</time>
      </trkpt>
      <trkpt lat="47.3144" lon="-1.65728">
        <ele>67.1</ele>
        <time>2015-05-10T07:29:33Z</time>
      </trkpt>
      <trkpt lat="47.31435" lon="-1.65727">
        <ele>67</ele>
        <time>2015-05-10T07:29:35Z</time>
      </trkpt>
      <trkpt lat="47.31432" lon="-1.65723">
        <ele>66.9</ele>
        <time>2015-05-10T07:29:37Z</time>
      </trkpt>
      <trkpt lat="47.31433" lon="-1.65718">
        <ele>66.8</ele>
        <time>2015-05-10T07:29:39Z</time>
      </trkpt>
      <trkpt lat="47.31438" lon="-1.65712">
        <ele>66.8</ele>
        <time>2015-05-10T07:29:41Z</time>
      </trkpt>
      <trkpt lat="47.31441" lon="-1.6571">
        <ele>66.8</ele>
        <time>2015-05-10T07:29:42Z</time>
      </trkpt>
      <trkpt lat="47.31445" lon="-1.65708">
        <ele>66.8</ele>
        <time>2015-05-10T07:29:43Z</time>
      </trkpt>
      <trkpt lat="47.3145" lon="-1.65706">
        <ele>66.9</ele>
        <time>2015-05-10T07:29:45Z</time>
      </trkpt>
      <trkpt lat="47.31453" lon="-1.65705">
        <ele>66.9</ele>
        <time>2015-05-10T07:29:46Z</time>
      </trkpt>
      <trkpt lat="47.31456" lon="-1.65704">
        <ele>66.9</ele>
        <time>2015-05-10T07:29:47Z</time>
      </trkpt>
      <trkpt lat="47.31461" lon="-1.65703">
        <ele>66.8</ele>
        <time>2015-05-10T07:29:49Z</time>
      </trkpt>
      <trkpt lat="47.31465" lon="-1.65701">
        <ele>66.5</ele>
        <time>2015-05-10T07:29:51Z</time>
      </trkpt>
      <trkpt lat="47.31467" lon="-1.657">
        <ele>66.3</ele>
        <time>2015-05-10T07:29:52Z</time>
      </trkpt>
      <trkpt lat="47.31471" lon="-1.65698">
        <ele>66</ele>
        <time>2015-05-10T07:29:54Z</time>
      </trkpt>
      <trkpt lat="47.31474" lon="-1.65696">
        <ele>65.9</ele>
        <time>2015-05-10T07:29:55Z</time>
      </trkpt>
      <trkpt lat="47.31476" lon="-1.6569">
        <ele>65.7</ele>
        <time>2015-05-10T07:29:57Z</time>
      </trkpt>
      <trkpt lat="47.31476" lon="-1.65683">
        <ele>65.5</ele>
        <time>2015-05-10T07:29:59Z</time>
      </trkpt>
      <trkpt lat="47.31476" lon="-1.65676">
        <ele>65.4</ele>
        <time>2015-05-10T07:30:01Z</time>
      </trkpt>
      <trkpt lat="47.31476" lon="-1.65668">
        <ele>65.3</ele>
        <time>2015-05-10T07:30:03Z</time>
      </trkpt>
      <trkpt lat="47.31476" lon="-1.65664">
        <ele>65.2</ele>
        <time>2015-05-10T07:30:04Z</time>
      </trkpt>
      <trkpt lat="47.31476" lon="-1.65657">
        <ele>65.1</ele>
        <time>2015-05-10T07:30:06Z</time>
      </trkpt>
      <trkpt lat="47.31477" lon="-1.65653">
        <ele>65</ele>
        <time>2015-05-10T07:30:07Z</time>
      </trkpt>
      <trkpt lat="47.31477" lon="-1.65649">
        <ele>64.9</ele>
        <time>2015-05-10T07:30:08Z</time>
      </trkpt>
      <trkpt lat="47.31478" lon="-1.65642">
        <ele>64.8</ele>
        <time>2015-05-10T07:30:10Z</time>
      </trkpt>
      <trkpt lat="47.31478" lon="-1.65636">
        <ele>64.7</ele>
        <time>2015-05-10T07:30:12Z</time>
      </trkpt>
      <trkpt lat="47.31479" lon="-1.6563">
        <ele>64.6</ele>
        <time>2015-05-10T07:30:14Z</time>
      </trkpt>
      <trkpt lat="47.3148" lon="-1.65625">
        <ele>64.5</ele>
        <time>2015-05-10T07:30:16Z</time>
      </trkpt>
      <trkpt lat="47.31479" lon="-1.65621">
        <ele>64.5</ele>
        <time>2015-05-10T07:30:18Z</time>
      </trkpt>
      <trkpt lat="47.31478" lon="-1.65617">
        <ele>64.5</ele>
        <time>2015-05-10T07:30:20Z</time>
      </trkpt>
      <trkpt lat="47.31479" lon="-1.65613">
        <ele>64.5</ele>
        <time>2015-05-10T07:30:25Z</time>
      </trkpt>
      <trkpt lat="47.31481" lon="-1.65616">
        <ele>64.5</ele>
        <time>2015-05-10T07:30:33Z</time>
      </trkpt>
      <trkpt lat="47.31483" lon="-1.65613">
        <ele>64.4</ele>
        <time>2015-05-10T07:31:27Z</time>
      </trkpt>
      <trkpt lat="47.3148" lon="-1.65608">
        <ele>64.5</ele>
        <time>2015-05-10T07:35:46Z</time>
      </trkpt>
      <trkpt lat="47.31476" lon="-1.65607">
        <ele>64.6</ele>
        <time>2015-05-10T07:35:48Z</time>
      </trkpt>
      <trkpt lat="47.31472" lon="-1.65606">
        <ele>64.7</ele>
        <time>2015-05-10T07:35:50Z</time>
      </trkpt>
      <trkpt lat="47.31469" lon="-1.65604">
        <ele>64.7</ele>
        <time>2015-05-10T07:35:51Z</time>
      </trkpt>
      <trkpt lat="47.31465" lon="-1.65602">
        <ele>64.8</ele>
        <time>2015-05-10T07:35:52Z</time>
      </trkpt>
      <trkpt lat="47.31462" lon="-1.65599">
        <ele>64.9</ele>
        <time>2015-05-10T07:35:53Z</time>
      </trkpt>
      <trkpt lat="47.31458" lon="-1.65595">
        <ele>65</ele>
        <time>2015-05-10T07:35:54Z</time>
      </trkpt>
      <trkpt lat="47.31454" lon="-1.65591">
        <ele>65.1</ele>
        <time>2015-05-10T07:35:55Z</time>
      </trkpt>
      <trkpt lat="47.3145" lon="-1.65587">
        <ele>65.2</ele>
        <time>2015-05-10T07:35:56Z</time>
      </trkpt>
      <trkpt lat="47.31447" lon="-1.65583">
        <ele>65.4</ele>
        <time>2015-05-10T07:35:57Z</time>
      </trkpt>
      <trkpt lat="47.31443" lon="-1.65579">
        <ele>65.5</ele>
        <time>2015-05-10T07:35:58Z</time>
      </trkpt>
      <trkpt lat="47.31439" lon="-1.65576">
        <ele>65.6</ele>
        <time>2015-05-10T07:35:59Z</time>
      </trkpt>
      <trkpt lat="47.31436" lon="-1.65573">
        <ele>65.6</ele>
        <time>2015-05-10T07:36:00Z</time>
      </trkpt>
      <trkpt lat="47.31433" lon="-1.6557">
        <ele>65.7</ele>
        <time>2015-05-10T07:36:01Z</time>
      </trkpt>
      <trkpt lat="47.31429" lon="-1.65566">
        <ele>65.8</ele>
        <time>2015-05-10T07:36:02Z</time>
      </trkpt>
      <trkpt lat="47.31426" lon="-1.65563">
        <ele>65.9</ele>
        <time>2015-05-10T07:36:03Z</time>
      </trkpt>
      <trkpt lat="47.31421" lon="-1.6556">
        <ele>66</ele>
        <time>2015-05-10T07:36:04Z</time>
      </trkpt>
      <trkpt lat="47.31417" lon="-1.65555">
        <ele>66.1</ele>
        <time>2015-05-10T07:36:05Z</time>
      </trkpt>
      <trkpt lat="47.31413" lon="-1.65551">
        <ele>66.2</ele>
        <time>2015-05-10T07:36:06Z</time>
      </trkpt>
      <trkpt lat="47.31409" lon="-1.65546">
        <ele>66.2</ele>
        <time>2015-05-10T07:36:07Z</time>
      </trkpt>
      <trkpt lat="47.31404" lon="-1.65541">
        <ele>66.3</ele>
        <time>2015-05-10T07:36:08Z</time>
      </trkpt>
      <trkpt lat="47.31399" lon="-1.65536">
        <ele>66.4</ele>
        <time>2015-05-10T07:36:09Z</time>
      </trkpt>
      <trkpt lat="47.31392" lon="-1.6553">
        <ele>66.4</ele>
        <time>2015-05-10T07:36:10Z</time>
      </trkpt>
      <trkpt lat="47.31386" lon="-1.65523">
        <ele>66.5</ele>
        <time>2015-05-10T07:36:11Z</time>
      </trkpt>
      <trkpt lat="47.31379" lon="-1.65517">
        <ele>66.6</ele>
        <time>2015-05-10T07:36:12Z</time>
      </trkpt>
      <trkpt lat="47.31372" lon="-1.65514">
        <ele>66.7</ele>
        <time>2015-05-10T07:36:13Z</time>
      </trkpt>
      <trkpt lat="47.31365" lon="-1.65513">
        <ele>66.7</ele>
        <time>2015-05-10T07:36:14Z</time>
      </trkpt>
      <trkpt lat="47.31357" lon="-1.65513">
        <ele>66.8</ele>
        <time>2015-05-10T07:36:15Z</time>
      </trkpt>
      <trkpt lat="47.31351" lon="-1.65514">
        <ele>66.9</ele>
        <time>2015-05-10T07:36:16Z</time>
      </trkpt>
      <trkpt lat="47.31345" lon="-1.65516">
        <ele>66.9</ele>
        <time>2015-05-10T07:36:17Z</time>
      </trkpt>
      <trkpt lat="47.3134" lon="-1.65517">
        <ele>67</ele>
        <time>2015-05-10T07:36:18Z</time>
      </trkpt>
      <trkpt lat="47.31336" lon="-1.6552">
        <ele>67</ele>
        <time>2015-05-10T07:36:19Z</time>
      </trkpt>
      <trkpt lat="47.3133" lon="-1.65522">
        <ele>67</ele>
        <time>2015-05-10T07:36:20Z</time>
      </trkpt>
      <trkpt lat="47.31322" lon="-1.65524">
        <ele>67.1</ele>
        <time>2015-05-10T07:36:21Z</time>
      </trkpt>
      <trkpt lat="47.31317" lon="-1.65526">
        <ele>67.1</ele>
        <time>2015-05-10T07:36:22Z</time>
      </trkpt>
      <trkpt lat="47.31313" lon="-1.65527">
        <ele>67.1</ele>
        <time>2015-05-10T07:36:23Z</time>
      </trkpt>
      <trkpt lat="47.31308" lon="-1.65528">
        <ele>67.1</ele>
        <time>2015-05-10T07:36:24Z</time>
      </trkpt>
      <trkpt lat="47.31304" lon="-1.65529">
        <ele>67.1</ele>
        <time>2015-05-10T07:36:25Z</time>
      </trkpt>
      <trkpt lat="47.31298" lon="-1.6553">
        <ele>67.1</ele>
        <time>2015-05-10T07:36:26Z</time>
      </trkpt>
      <trkpt lat="47.31293" lon="-1.65531">
        <ele>67.1</ele>
        <time>2015-05-10T07:36:27Z</time>
      </trkpt>
      <trkpt lat="47.31289" lon="-1.65532">
        <ele>67.1</ele>
        <time>2015-05-10T07:36:28Z</time>
      </trkpt>
      <trkpt lat="47.31285" lon="-1.65532">
        <ele>67.1</ele>
        <time>2015-05-10T07:36:29Z</time>
      </trkpt>
      <trkpt lat="47.31281" lon="-1.65531">
        <ele>67.1</ele>
        <time>2015-05-10T07:36:30Z</time>
      </trkpt>
      <trkpt lat="47.31277" lon="-1.65532">
        <ele>67.1</ele>
        <time>2015-05-10T07:36:31Z</time>
      </trkpt>
      <trkpt lat="47.31274" lon="-1.65532">
        <ele>67.1</ele>
        <time>2015-05-10T07:36:32Z</time>
      </trkpt>
      <trkpt lat="47.3127" lon="-1.65533">
        <ele>67.1</ele>
        <time>2015-05-10T07:36:33Z</time>
      </trkpt>
      <trkpt lat="47.31265" lon="-1.65533">
        <ele>67.1</ele>
        <time>2015-05-10T07:36:34Z</time>
      </trkpt>
      <trkpt lat="47.31261" lon="-1.65535">
        <ele>67.1</ele>
        <time>2015-05-10T07:36:35Z</time>
      </trkpt>
      <trkpt lat="47.31257" lon="-1.65535">
        <ele>67.1</ele>
        <time>2015-05-10T07:36:36Z</time>
      </trkpt>
      <trkpt lat="47.31254" lon="-1.65536">
        <ele>67.1</ele>
        <time>2015-05-10T07:36:37Z</time>
      </trkpt>
      <trkpt lat="47.3125" lon="-1.65536">
        <ele>67.1</ele>
        <time>2015-05-10T07:36:38Z</time>
      </trkpt>
      <trkpt lat="47.31247" lon="-1.65536">
        <ele>67.1</ele>
        <time>2015-05-10T07:36:39Z</time>
      </trkpt>
      <trkpt lat="47.31243" lon="-1.65537">
        <ele>67.1</ele>
        <time>2015-05-10T07:36:40Z</time>
      </trkpt>
      <trkpt lat="47.31238" lon="-1.65538">
        <ele>67.1</ele>
        <time>2015-05-10T07:36:41Z</time>
      </trkpt>
      <trkpt lat="47.31234" lon="-1.65539">
        <ele>67</ele>
        <time>2015-05-10T07:36:42Z</time>
      </trkpt>
      <trkpt lat="47.3123" lon="-1.6554">
        <ele>67</ele>
        <time>2015-05-10T07:36:43Z</time>
      </trkpt>
      <trkpt lat="47.31227" lon="-1.6554">
        <ele>67</ele>
        <time>2015-05-10T07:36:44Z</time>
      </trkpt>
      <trkpt lat="47.31223" lon="-1.6554">
        <ele>67</ele>
        <time>2015-05-10T07:36:45Z</time>
      </trkpt>
      <trkpt lat="47.3122" lon="-1.65538">
        <ele>67.1</ele>
        <time>2015-05-10T07:36:46Z</time>
      </trkpt>
      <trkpt lat="47.31216" lon="-1.65535">
        <ele>67.2</ele>
        <time>2015-05-10T07:36:47Z</time>
      </trkpt>
      <trkpt lat="47.31214" lon="-1.65531">
        <ele>67.2</ele>
        <time>2015-05-10T07:36:48Z</time>
      </trkpt>
      <trkpt lat="47.31212" lon="-1.65527">
        <ele>67.4</ele>
        <time>2015-05-10T07:36:49Z</time>
      </trkpt>
      <trkpt lat="47.3121" lon="-1.65522">
        <ele>67.5</ele>
        <time>2015-05-10T07:36:50Z</time>
      </trkpt>
      <trkpt lat="47.31208" lon="-1.65518">
        <ele>67.6</ele>
        <time>2015-05-10T07:36:51Z</time>
      </trkpt>
      <trkpt lat="47.31205" lon="-1.65513">
        <ele>67.7</ele>
        <time>2015-05-10T07:36:52Z</time>
      </trkpt>
      <trkpt lat="47.31202" lon="-1.65509">
        <ele>67.9</ele>
        <time>2015-05-10T07:36:53Z</time>
      </trkpt>
      <trkpt lat="47.31201" lon="-1.65505">
        <ele>68</ele>
        <time>2015-05-10T07:36:54Z</time>
      </trkpt>
      <trkpt lat="47.31199" lon="-1.65501">
        <ele>68.1</ele>
        <time>2015-05-10T07:36:55Z</time>
      </trkpt>
      <trkpt lat="47.31197" lon="-1.65496">
        <ele>68.2</ele>
        <time>2015-05-10T07:36:56Z</time>
      </trkpt>
      <trkpt lat="47.31194" lon="-1.65492">
        <ele>68.3</ele>
        <time>2015-05-10T07:36:57Z</time>
      </trkpt>
      <trkpt lat="47.31192" lon="-1.65488">
        <ele>68.4</ele>
        <time>2015-05-10T07:36:58Z</time>
      </trkpt>
      <trkpt lat="47.3119" lon="-1.65483">
        <ele>68.5</ele>
        <time>2015-05-10T07:36:59Z</time>
      </trkpt>
      <trkpt lat="47.31187" lon="-1.65477">
        <ele>68.7</ele>
        <time>2015-05-10T07:37:00Z</time>
      </trkpt>
      <trkpt lat="47.31185" lon="-1.65472">
        <ele>68.8</ele>
        <time>2015-05-10T07:37:01Z</time>
      </trkpt>
      <trkpt lat="47.31182" lon="-1.65467">
        <ele>68.9</ele>
        <time>2015-05-10T07:37:02Z</time>
      </trkpt>
      <trkpt lat="47.3118" lon="-1.65463">
        <ele>68.9</ele>
        <time>2015-05-10T07:37:03Z</time>
      </trkpt>
      <trkpt lat="47.31177" lon="-1.65457">
        <ele>69</ele>
        <time>2015-05-10T07:37:04Z</time>
      </trkpt>
      <trkpt lat="47.31175" lon="-1.65452">
        <ele>69</ele>
        <time>2015-05-10T07:37:05Z</time>
      </trkpt>
      <trkpt lat="47.31172" lon="-1.65446">
        <ele>68.9</ele>
        <time>2015-05-10T07:37:06Z</time>
      </trkpt>
      <trkpt lat="47.31169" lon="-1.6544">
        <ele>68.9</ele>
        <time>2015-05-10T07:37:07Z</time>
      </trkpt>
      <trkpt lat="47.31166" lon="-1.65434">
        <ele>68.9</ele>
        <time>2015-05-10T07:37:08Z</time>
      </trkpt>
      <trkpt lat="47.31163" lon="-1.65428">
        <ele>68.8</ele>
        <time>2015-05-10T07:37:09Z</time>
      </trkpt>
      <trkpt lat="47.31161" lon="-1.65421">
        <ele>68.7</ele>
        <time>2015-05-10T07:37:10Z</time>
      </trkpt>
      <trkpt lat="47.3116" lon="-1.65414">
        <ele>68.7</ele>
        <time>2015-05-10T07:37:11Z</time>
      </trkpt>
      <trkpt lat="47.3116" lon="-1.65406">
        <ele>68.6</ele>
        <time>2015-05-10T07:37:12Z</time>
      </trkpt>
      <trkpt lat="47.3116" lon="-1.65398">
        <ele>68.6</ele>
        <time>2015-05-10T07:37:13Z</time>
      </trkpt>
      <trkpt lat="47.3116" lon="-1.65391">
        <ele>68.5</ele>
        <time>2015-05-10T07:37:14Z</time>
      </trkpt>
      <trkpt lat="47.31159" lon="-1.65385">
        <ele>68.5</ele>
        <time>2015-05-10T07:37:15Z</time>
      </trkpt>
      <trkpt lat="47.31157" lon="-1.65379">
        <ele>68.4</ele>
        <time>2015-05-10T07:37:16Z</time>
      </trkpt>
      <trkpt lat="47.31154" lon="-1.65374">
        <ele>68.4</ele>
        <time>2015-05-10T07:37:17Z</time>
      </trkpt>
      <trkpt lat="47.31151" lon="-1.65369">
        <ele>68.4</ele>
        <time>2015-05-10T07:37:18Z</time>
      </trkpt>
      <trkpt lat="47.31147" lon="-1.65365">
        <ele>68.4</ele>
        <time>2015-05-10T07:37:19Z</time>
      </trkpt>
      <trkpt lat="47.31145" lon="-1.65361">
        <ele>68.4</ele>
        <time>2015-05-10T07:37:20Z</time>
      </trkpt>
      <trkpt lat="47.31142" lon="-1.65357">
        <ele>68.4</ele>
        <time>2015-05-10T07:37:21Z</time>
      </trkpt>
      <trkpt lat="47.3114" lon="-1.65352">
        <ele>68.4</ele>
        <time>2015-05-10T07:37:22Z</time>
      </trkpt>
      <trkpt lat="47.31137" lon="-1.65347">
        <ele>68.5</ele>
        <time>2015-05-10T07:37:23Z</time>
      </trkpt>
      <trkpt lat="47.31136" lon="-1.65342">
        <ele>68.5</ele>
        <time>2015-05-10T07:37:24Z</time>
      </trkpt>
      <trkpt lat="47.31136" lon="-1.65338">
        <ele>68.6</ele>
        <time>2015-05-10T07:37:25Z</time>
      </trkpt>
      <trkpt lat="47.31138" lon="-1.65331">
        <ele>68.7</ele>
        <time>2015-05-10T07:37:27Z</time>
      </trkpt>
      <trkpt lat="47.31141" lon="-1.65327">
        <ele>68.8</ele>
        <time>2015-05-10T07:37:28Z</time>
      </trkpt>
      <trkpt lat="47.31142" lon="-1.65321">
        <ele>68.9</ele>
        <time>2015-05-10T07:37:29Z</time>
      </trkpt>
      <trkpt lat="47.31143" lon="-1.65316">
        <ele>68.9</ele>
        <time>2015-05-10T07:37:30Z</time>
      </trkpt>
      <trkpt lat="47.31145" lon="-1.65311">
        <ele>69</ele>
        <time>2015-05-10T07:37:31Z</time>
      </trkpt>
      <trkpt lat="47.31147" lon="-1.65305">
        <ele>69.1</ele>
        <time>2015-05-10T07:37:32Z</time>
      </trkpt>
      <trkpt lat="47.31148" lon="-1.65301">
        <ele>69.2</ele>
        <time>2015-05-10T07:37:33Z</time>
      </trkpt>
      <trkpt lat="47.31148" lon="-1.65296">
        <ele>69.2</ele>
        <time>2015-05-10T07:37:34Z</time>
      </trkpt>
      <trkpt lat="47.31147" lon="-1.65291">
        <ele>69.2</ele>
        <time>2015-05-10T07:37:36Z</time>
      </trkpt>
      <trkpt lat="47.3115" lon="-1.65284">
        <ele>69.1</ele>
        <time>2015-05-10T07:37:38Z</time>
      </trkpt>
      <trkpt lat="47.31155" lon="-1.65279">
        <ele>69</ele>
        <time>2015-05-10T07:37:40Z</time>
      </trkpt>
      <trkpt lat="47.31158" lon="-1.65277">
        <ele>69</ele>
        <time>2015-05-10T07:37:41Z</time>
      </trkpt>
      <trkpt lat="47.3116" lon="-1.65275">
        <ele>69</ele>
        <time>2015-05-10T07:37:42Z</time>
      </trkpt>
      <trkpt lat="47.31163" lon="-1.65273">
        <ele>69</ele>
        <time>2015-05-10T07:37:43Z</time>
      </trkpt>
      <trkpt lat="47.31166" lon="-1.65266">
        <ele>68.9</ele>
        <time>2015-05-10T07:37:45Z</time>
      </trkpt>
      <trkpt lat="47.31168" lon="-1.6526">
        <ele>68.7</ele>
        <time>2015-05-10T07:37:47Z</time>
      </trkpt>
      <trkpt lat="47.31168" lon="-1.65255">
        <ele>68.7</ele>
        <time>2015-05-10T07:37:48Z</time>
      </trkpt>
      <trkpt lat="47.31171" lon="-1.65251">
        <ele>68.6</ele>
        <time>2015-05-10T07:37:49Z</time>
      </trkpt>
      <trkpt lat="47.31175" lon="-1.65245">
        <ele>68.6</ele>
        <time>2015-05-10T07:37:50Z</time>
      </trkpt>
      <trkpt lat="47.31181" lon="-1.6524">
        <ele>68.6</ele>
        <time>2015-05-10T07:37:51Z</time>
      </trkpt>
      <trkpt lat="47.31185" lon="-1.65237">
        <ele>68.7</ele>
        <time>2015-05-10T07:37:52Z</time>
      </trkpt>
      <trkpt lat="47.31188" lon="-1.65233">
        <ele>68.7</ele>
        <time>2015-05-10T07:37:54Z</time>
      </trkpt>
      <trkpt lat="47.31188" lon="-1.65229">
        <ele>68.6</ele>
        <time>2015-05-10T07:37:57Z</time>
      </trkpt>
      <trkpt lat="47.31191" lon="-1.65227">
        <ele>68.7</ele>
        <time>2015-05-10T07:38:00Z</time>
      </trkpt>
      <trkpt lat="47.31194" lon="-1.65228">
        <ele>68.8</ele>
        <time>2015-05-10T07:38:02Z</time>
      </trkpt>
      <trkpt lat="47.31198" lon="-1.65227">
        <ele>68.9</ele>
        <time>2015-05-10T07:38:04Z</time>
      </trkpt>
      <trkpt lat="47.31203" lon="-1.65227">
        <ele>69.1</ele>
        <time>2015-05-10T07:38:06Z</time>
      </trkpt>
      <trkpt lat="47.31206" lon="-1.65228">
        <ele>69.2</ele>
        <time>2015-05-10T07:38:09Z</time>
      </trkpt>
      <trkpt lat="47.31209" lon="-1.65227">
        <ele>69.2</ele>
        <time>2015-05-10T07:38:13Z</time>
      </trkpt>
      <trkpt lat="47.31211" lon="-1.65223">
        <ele>69.1</ele>
        <time>2015-05-10T07:38:16Z</time>
      </trkpt>
      <trkpt lat="47.31214" lon="-1.65219">
        <ele>69</ele>
        <time>2015-05-10T07:38:18Z</time>
      </trkpt>
      <trkpt lat="47.31217" lon="-1.65216">
        <ele>69</ele>
        <time>2015-05-10T07:38:21Z</time>
      </trkpt>
      <trkpt lat="47.3122" lon="-1.65214">
        <ele>68.9</ele>
        <time>2015-05-10T07:38:23Z</time>
      </trkpt>
      <trkpt lat="47.31215" lon="-1.65207">
        <ele>68.9</ele>
        <time>2015-05-10T07:38:34Z</time>
      </trkpt>
      <trkpt lat="47.31211" lon="-1.65204">
        <ele>68.9</ele>
        <time>2015-05-10T07:38:36Z</time>
      </trkpt>
      <trkpt lat="47.31209" lon="-1.65201">
        <ele>68.9</ele>
        <time>2015-05-10T07:38:37Z</time>
      </trkpt>
      <trkpt lat="47.31206" lon="-1.65195">
        <ele>68.7</ele>
        <time>2015-05-10T07:38:39Z</time>
      </trkpt>
      <trkpt lat="47.31202" lon="-1.65193">
        <ele>68.6</ele>
        <time>2015-05-10T07:38:42Z</time>
      </trkpt>
      <trkpt lat="47.31198" lon="-1.65191">
        <ele>68.4</ele>
        <time>2015-05-10T07:38:44Z</time>
      </trkpt>
      <trkpt lat="47.31195" lon="-1.6519">
        <ele>68.3</ele>
        <time>2015-05-10T07:38:46Z</time>
      </trkpt>
      <trkpt lat="47.31192" lon="-1.65189">
        <ele>68.2</ele>
        <time>2015-05-10T07:38:48Z</time>
      </trkpt>
      <trkpt lat="47.3119" lon="-1.65188">
        <ele>68.1</ele>
        <time>2015-05-10T07:38:49Z</time>
      </trkpt>
      <trkpt lat="47.31187" lon="-1.65186">
        <ele>68</ele>
        <time>2015-05-10T07:38:50Z</time>
      </trkpt>
      <trkpt lat="47.31184" lon="-1.65182">
        <ele>67.8</ele>
        <time>2015-05-10T07:38:52Z</time>
      </trkpt>
      <trkpt lat="47.31183" lon="-1.65178">
        <ele>67.7</ele>
        <time>2015-05-10T07:38:53Z</time>
      </trkpt>
      <trkpt lat="47.31183" lon="-1.65172">
        <ele>67.7</ele>
        <time>2015-05-10T07:38:55Z</time>
      </trkpt>
      <trkpt lat="47.31189" lon="-1.65166">
        <ele>67.8</ele>
        <time>2015-05-10T07:38:56Z</time>
      </trkpt>
      <trkpt lat="47.31192" lon="-1.65164">
        <ele>67.9</ele>
        <time>2015-05-10T07:38:57Z</time>
      </trkpt>
      <trkpt lat="47.31197" lon="-1.65161">
        <ele>68</ele>
        <time>2015-05-10T07:39:00Z</time>
      </trkpt>
      <trkpt lat="47.312" lon="-1.65158">
        <ele>68.1</ele>
        <time>2015-05-10T07:39:02Z</time>
      </trkpt>
      <trkpt lat="47.31237" lon="-1.6517">
        <ele>68.7</ele>
        <time>2015-05-10T07:40:10Z</time>
      </trkpt>
      <trkpt lat="47.31237" lon="-1.65165">
        <ele>68.7</ele>
        <time>2015-05-10T07:40:13Z</time>
      </trkpt>
      <trkpt lat="47.31236" lon="-1.65159">
        <ele>68.7</ele>
        <time>2015-05-10T07:40:15Z</time>
      </trkpt>
      <trkpt lat="47.31236" lon="-1.65152">
        <ele>68.7</ele>
        <time>2015-05-10T07:40:17Z</time>
      </trkpt>
      <trkpt lat="47.31238" lon="-1.65145">
        <ele>68.7</ele>
        <time>2015-05-10T07:40:19Z</time>
      </trkpt>
      <trkpt lat="47.3124" lon="-1.65138">
        <ele>68.7</ele>
        <time>2015-05-10T07:40:21Z</time>
      </trkpt>
      <trkpt lat="47.3124" lon="-1.65134">
        <ele>68.7</ele>
        <time>2015-05-10T07:40:22Z</time>
      </trkpt>
      <trkpt lat="47.3124" lon="-1.65126">
        <ele>68.8</ele>
        <time>2015-05-10T07:40:24Z</time>
      </trkpt>
      <trkpt lat="47.31241" lon="-1.65121">
        <ele>68.8</ele>
        <time>2015-05-10T07:40:25Z</time>
      </trkpt>
      <trkpt lat="47.3124" lon="-1.65117">
        <ele>68.7</ele>
        <time>2015-05-10T07:40:26Z</time>
      </trkpt>
      <trkpt lat="47.3124" lon="-1.65112">
        <ele>68.7</ele>
        <time>2015-05-10T07:40:27Z</time>
      </trkpt>
      <trkpt lat="47.31239" lon="-1.65107">
        <ele>68.7</ele>
        <time>2015-05-10T07:40:28Z</time>
      </trkpt>
      <trkpt lat="47.31238" lon="-1.651">
        <ele>68.6</ele>
        <time>2015-05-10T07:40:30Z</time>
      </trkpt>
      <trkpt lat="47.31238" lon="-1.65095">
        <ele>68.6</ele>
        <time>2015-05-10T07:40:31Z</time>
      </trkpt>
      <trkpt lat="47.31238" lon="-1.65089">
        <ele>68.6</ele>
        <time>2015-05-10T07:40:33Z</time>
      </trkpt>
      <trkpt lat="47.31238" lon="-1.65083">
        <ele>68.5</ele>
        <time>2015-05-10T07:40:35Z</time>
      </trkpt>
      <trkpt lat="47.31236" lon="-1.65076">
        <ele>68.5</ele>
        <time>2015-05-10T07:40:37Z</time>
      </trkpt>
      <trkpt lat="47.31236" lon="-1.65072">
        <ele>68.5</ele>
        <time>2015-05-10T07:40:38Z</time>
      </trkpt>
      <trkpt lat="47.31235" lon="-1.65064">
        <ele>68.4</ele>
        <time>2015-05-10T07:40:40Z</time>
      </trkpt>
      <trkpt lat="47.31234" lon="-1.6506">
        <ele>68.4</ele>
        <time>2015-05-10T07:40:41Z</time>
      </trkpt>
      <trkpt lat="47.31233" lon="-1.65052">
        <ele>68.3</ele>
        <time>2015-05-10T07:40:43Z</time>
      </trkpt>
      <trkpt lat="47.31232" lon="-1.65046">
        <ele>68.3</ele>
        <time>2015-05-10T07:40:44Z</time>
      </trkpt>
      <trkpt lat="47.31233" lon="-1.65041">
        <ele>68.3</ele>
        <time>2015-05-10T07:40:45Z</time>
      </trkpt>
      <trkpt lat="47.31235" lon="-1.65037">
        <ele>68.3</ele>
        <time>2015-05-10T07:40:46Z</time>
      </trkpt>
      <trkpt lat="47.31238" lon="-1.65034">
        <ele>68.3</ele>
        <time>2015-05-10T07:40:47Z</time>
      </trkpt>
      <trkpt lat="47.31242" lon="-1.65032">
        <ele>68.3</ele>
        <time>2015-05-10T07:40:48Z</time>
      </trkpt>
      <trkpt lat="47.31246" lon="-1.65031">
        <ele>68.3</ele>
        <time>2015-05-10T07:40:49Z</time>
      </trkpt>
      <trkpt lat="47.3125" lon="-1.65029">
        <ele>68.3</ele>
        <time>2015-05-10T07:40:50Z</time>
      </trkpt>
      <trkpt lat="47.31254" lon="-1.65027">
        <ele>68.4</ele>
        <time>2015-05-10T07:40:51Z</time>
      </trkpt>
      <trkpt lat="47.31257" lon="-1.65025">
        <ele>68.4</ele>
        <time>2015-05-10T07:40:52Z</time>
      </trkpt>
      <trkpt lat="47.31261" lon="-1.65023">
        <ele>68.4</ele>
        <time>2015-05-10T07:40:53Z</time>
      </trkpt>
      <trkpt lat="47.31264" lon="-1.65022">
        <ele>68.4</ele>
        <time>2015-05-10T07:40:54Z</time>
      </trkpt>
      <trkpt lat="47.31267" lon="-1.65021">
        <ele>68.5</ele>
        <time>2015-05-10T07:40:55Z</time>
      </trkpt>
      <trkpt lat="47.31271" lon="-1.65019">
        <ele>68.5</ele>
        <time>2015-05-10T07:40:56Z</time>
      </trkpt>
      <trkpt lat="47.31275" lon="-1.65016">
        <ele>68.5</ele>
        <time>2015-05-10T07:40:57Z</time>
      </trkpt>
      <trkpt lat="47.31278" lon="-1.65014">
        <ele>68.5</ele>
        <time>2015-05-10T07:40:58Z</time>
      </trkpt>
      <trkpt lat="47.31283" lon="-1.65011">
        <ele>68.5</ele>
        <time>2015-05-10T07:40:59Z</time>
      </trkpt>
      <trkpt lat="47.31287" lon="-1.65009">
        <ele>68.6</ele>
        <time>2015-05-10T07:41:00Z</time>
      </trkpt>
      <trkpt lat="47.31291" lon="-1.65007">
        <ele>68.6</ele>
        <time>2015-05-10T07:41:01Z</time>
      </trkpt>
      <trkpt lat="47.31295" lon="-1.65005">
        <ele>68.6</ele>
        <time>2015-05-10T07:41:02Z</time>
      </trkpt>
      <trkpt lat="47.31298" lon="-1.65003">
        <ele>68.7</ele>
        <time>2015-05-10T07:41:03Z</time>
      </trkpt>
      <trkpt lat="47.31302" lon="-1.65001">
        <ele>68.7</ele>
        <time>2015-05-10T07:41:04Z</time>
      </trkpt>
      <trkpt lat="47.31305" lon="-1.64999">
        <ele>68.8</ele>
        <time>2015-05-10T07:41:05Z</time>
      </trkpt>
      <trkpt lat="47.31309" lon="-1.64996">
        <ele>68.9</ele>
        <time>2015-05-10T07:41:06Z</time>
      </trkpt>
      <trkpt lat="47.31313" lon="-1.64994">
        <ele>69</ele>
        <time>2015-05-10T07:41:07Z</time>
      </trkpt>
      <trkpt lat="47.31317" lon="-1.64991">
        <ele>69.1</ele>
        <time>2015-05-10T07:41:08Z</time>
      </trkpt>
      <trkpt lat="47.31321" lon="-1.64988">
        <ele>69.2</ele>
        <time>2015-05-10T07:41:09Z</time>
      </trkpt>
      <trkpt lat="47.31324" lon="-1.64986">
        <ele>69.2</ele>
        <time>2015-05-10T07:41:10Z</time>
      </trkpt>
      <trkpt lat="47.31328" lon="-1.64984">
        <ele>69.4</ele>
        <time>2015-05-10T07:41:11Z</time>
      </trkpt>
      <trkpt lat="47.31332" lon="-1.64981">
        <ele>69.5</ele>
        <time>2015-05-10T07:41:12Z</time>
      </trkpt>
      <trkpt lat="47.31336" lon="-1.64979">
        <ele>69.6</ele>
        <time>2015-05-10T07:41:13Z</time>
      </trkpt>
      <trkpt lat="47.3134" lon="-1.64976">
        <ele>69.7</ele>
        <time>2015-05-10T07:41:14Z</time>
      </trkpt>
      <trkpt lat="47.31344" lon="-1.64973">
        <ele>69.8</ele>
        <time>2015-05-10T07:41:15Z</time>
      </trkpt>
      <trkpt lat="47.31348" lon="-1.64971">
        <ele>70</ele>
        <time>2015-05-10T07:41:16Z</time>
      </trkpt>
      <trkpt lat="47.31352" lon="-1.64968">
        <ele>70.1</ele>
        <time>2015-05-10T07:41:17Z</time>
      </trkpt>
      <trkpt lat="47.31356" lon="-1.64965">
        <ele>70.3</ele>
        <time>2015-05-10T07:41:18Z</time>
      </trkpt>
      <trkpt lat="47.3136" lon="-1.64962">
        <ele>70.4</ele>
        <time>2015-05-10T07:41:19Z</time>
      </trkpt>
      <trkpt lat="47.31363" lon="-1.6496">
        <ele>70.6</ele>
        <time>2015-05-10T07:41:20Z</time>
      </trkpt>
      <trkpt lat="47.31367" lon="-1.64957">
        <ele>70.7</ele>
        <time>2015-05-10T07:41:21Z</time>
      </trkpt>
      <trkpt lat="47.31371" lon="-1.64955">
        <ele>70.8</ele>
        <time>2015-05-10T07:41:22Z</time>
      </trkpt>
      <trkpt lat="47.31376" lon="-1.64952">
        <ele>70.9</ele>
        <time>2015-05-10T07:41:23Z</time>
      </trkpt>
      <trkpt lat="47.3138" lon="-1.64949">
        <ele>71</ele>
        <time>2015-05-10T07:41:24Z</time>
      </trkpt>
      <trkpt lat="47.31384" lon="-1.64946">
        <ele>71.1</ele>
        <time>2015-05-10T07:41:25Z</time>
      </trkpt>
      <trkpt lat="47.31388" lon="-1.64944">
        <ele>71.1</ele>
        <time>2015-05-10T07:41:26Z</time>
      </trkpt>
      <trkpt lat="47.31392" lon="-1.64941">
        <ele>71.2</ele>
        <time>2015-05-10T07:41:27Z</time>
      </trkpt>
      <trkpt lat="47.31396" lon="-1.64938">
        <ele>71.3</ele>
        <time>2015-05-10T07:41:28Z</time>
      </trkpt>
      <trkpt lat="47.314" lon="-1.64936">
        <ele>71.3</ele>
        <time>2015-05-10T07:41:29Z</time>
      </trkpt>
      <trkpt lat="47.31405" lon="-1.64932">
        <ele>71.4</ele>
        <time>2015-05-10T07:41:30Z</time>
      </trkpt>
      <trkpt lat="47.31408" lon="-1.64929">
        <ele>71.4</ele>
        <time>2015-05-10T07:41:31Z</time>
      </trkpt>
      <trkpt lat="47.31413" lon="-1.64925">
        <ele>71.5</ele>
        <time>2015-05-10T07:41:32Z</time>
      </trkpt>
      <trkpt lat="47.31417" lon="-1.64924">
        <ele>71.6</ele>
        <time>2015-05-10T07:41:33Z</time>
      </trkpt>
      <trkpt lat="47.31421" lon="-1.64922">
        <ele>71.7</ele>
        <time>2015-05-10T07:41:34Z</time>
      </trkpt>
      <trkpt lat="47.31426" lon="-1.64921">
        <ele>71.8</ele>
        <time>2015-05-10T07:41:35Z</time>
      </trkpt>
      <trkpt lat="47.31431" lon="-1.6492">
        <ele>71.9</ele>
        <time>2015-05-10T07:41:36Z</time>
      </trkpt>
      <trkpt lat="47.31437" lon="-1.64919">
        <ele>72</ele>
        <time>2015-05-10T07:41:37Z</time>
      </trkpt>
      <trkpt lat="47.31444" lon="-1.64917">
        <ele>72.2</ele>
        <time>2015-05-10T07:41:38Z</time>
      </trkpt>
      <trkpt lat="47.31451" lon="-1.64915">
        <ele>72.3</ele>
        <time>2015-05-10T07:41:39Z</time>
      </trkpt>
      <trkpt lat="47.31458" lon="-1.64913">
        <ele>72.5</ele>
        <time>2015-05-10T07:41:40Z</time>
      </trkpt>
      <trkpt lat="47.31465" lon="-1.64912">
        <ele>72.2</ele>
        <time>2015-05-10T07:41:41Z</time>
      </trkpt>
      <trkpt lat="47.31472" lon="-1.64909">
        <ele>71.9</ele>
        <time>2015-05-10T07:41:42Z</time>
      </trkpt>
      <trkpt lat="47.31478" lon="-1.64907">
        <ele>71.6</ele>
        <time>2015-05-10T07:41:43Z</time>
      </trkpt>
      <trkpt lat="47.31485" lon="-1.64904">
        <ele>71.3</ele>
        <time>2015-05-10T07:41:44Z</time>
      </trkpt>
      <trkpt lat="47.31492" lon="-1.64903">
        <ele>71</ele>
        <time>2015-05-10T07:41:45Z</time>
      </trkpt>
      <trkpt lat="47.31497" lon="-1.64902">
        <ele>70.8</ele>
        <time>2015-05-10T07:41:46Z</time>
      </trkpt>
      <trkpt lat="47.31501" lon="-1.64899">
        <ele>70.6</ele>
        <time>2015-05-10T07:41:47Z</time>
      </trkpt>
      <trkpt lat="47.31504" lon="-1.64895">
        <ele>70.5</ele>
        <time>2015-05-10T07:41:48Z</time>
      </trkpt>
      <trkpt lat="47.31505" lon="-1.6489">
        <ele>70.4</ele>
        <time>2015-05-10T07:41:49Z</time>
      </trkpt>
      <trkpt lat="47.31504" lon="-1.64883">
        <ele>70.4</ele>
        <time>2015-05-10T07:41:51Z</time>
      </trkpt>
      <trkpt lat="47.31501" lon="-1.64879">
        <ele>70.5</ele>
        <time>2015-05-10T07:41:52Z</time>
      </trkpt>
      <trkpt lat="47.31498" lon="-1.64876">
        <ele>70.6</ele>
        <time>2015-05-10T07:41:53Z</time>
      </trkpt>
      <trkpt lat="47.31494" lon="-1.64873">
        <ele>70.7</ele>
        <time>2015-05-10T07:41:54Z</time>
      </trkpt>
      <trkpt lat="47.3149" lon="-1.64869">
        <ele>70.7</ele>
        <time>2015-05-10T07:41:55Z</time>
      </trkpt>
      <trkpt lat="47.31486" lon="-1.64866">
        <ele>70.8</ele>
        <time>2015-05-10T07:41:56Z</time>
      </trkpt>
      <trkpt lat="47.31482" lon="-1.64864">
        <ele>70.9</ele>
        <time>2015-05-10T07:41:57Z</time>
      </trkpt>
      <trkpt lat="47.31477" lon="-1.6486">
        <ele>71</ele>
        <time>2015-05-10T07:41:58Z</time>
      </trkpt>
      <trkpt lat="47.31474" lon="-1.64857">
        <ele>71</ele>
        <time>2015-05-10T07:41:59Z</time>
      </trkpt>
      <trkpt lat="47.31469" lon="-1.64853">
        <ele>71.1</ele>
        <time>2015-05-10T07:42:00Z</time>
      </trkpt>
      <trkpt lat="47.31463" lon="-1.64851">
        <ele>71.2</ele>
        <time>2015-05-10T07:42:01Z</time>
      </trkpt>
      <trkpt lat="47.31459" lon="-1.64849">
        <ele>71.4</ele>
        <time>2015-05-10T07:42:02Z</time>
      </trkpt>
      <trkpt lat="47.31454" lon="-1.64847">
        <ele>71.2</ele>
        <time>2015-05-10T07:42:03Z</time>
      </trkpt>
      <trkpt lat="47.31451" lon="-1.64844">
        <ele>71.1</ele>
        <time>2015-05-10T07:42:04Z</time>
      </trkpt>
      <trkpt lat="47.31446" lon="-1.64842">
        <ele>71</ele>
        <time>2015-05-10T07:42:05Z</time>
      </trkpt>
      <trkpt lat="47.31442" lon="-1.64839">
        <ele>70.8</ele>
        <time>2015-05-10T07:42:06Z</time>
      </trkpt>
      <trkpt lat="47.31437" lon="-1.64836">
        <ele>70.7</ele>
        <time>2015-05-10T07:42:07Z</time>
      </trkpt>
      <trkpt lat="47.31433" lon="-1.64834">
        <ele>70.5</ele>
        <time>2015-05-10T07:42:08Z</time>
      </trkpt>
      <trkpt lat="47.3143" lon="-1.64831">
        <ele>70.4</ele>
        <time>2015-05-10T07:42:09Z</time>
      </trkpt>
      <trkpt lat="47.31427" lon="-1.64827">
        <ele>70.3</ele>
        <time>2015-05-10T07:42:10Z</time>
      </trkpt>
      <trkpt lat="47.31424" lon="-1.64823">
        <ele>70.2</ele>
        <time>2015-05-10T07:42:11Z</time>
      </trkpt>
      <trkpt lat="47.31421" lon="-1.64821">
        <ele>70.1</ele>
        <time>2015-05-10T07:42:12Z</time>
      </trkpt>
      <trkpt lat="47.31418" lon="-1.64818">
        <ele>70</ele>
        <time>2015-05-10T07:42:13Z</time>
      </trkpt>
      <trkpt lat="47.31415" lon="-1.64815">
        <ele>69.9</ele>
        <time>2015-05-10T07:42:14Z</time>
      </trkpt>
      <trkpt lat="47.31412" lon="-1.64812">
        <ele>69.8</ele>
        <time>2015-05-10T07:42:15Z</time>
      </trkpt>
      <trkpt lat="47.31409" lon="-1.6481">
        <ele>69.7</ele>
        <time>2015-05-10T07:42:16Z</time>
      </trkpt>
      <trkpt lat="47.31405" lon="-1.64808">
        <ele>69.6</ele>
        <time>2015-05-10T07:42:17Z</time>
      </trkpt>
      <trkpt lat="47.31401" lon="-1.64805">
        <ele>69.5</ele>
        <time>2015-05-10T07:42:18Z</time>
      </trkpt>
      <trkpt lat="47.31398" lon="-1.64804">
        <ele>69.5</ele>
        <time>2015-05-10T07:42:19Z</time>
      </trkpt>
      <trkpt lat="47.31394" lon="-1.64801">
        <ele>69.4</ele>
        <time>2015-05-10T07:42:20Z</time>
      </trkpt>
      <trkpt lat="47.3139" lon="-1.64798">
        <ele>69.3</ele>
        <time>2015-05-10T07:42:21Z</time>
      </trkpt>
      <trkpt lat="47.31387" lon="-1.64796">
        <ele>69.2</ele>
        <time>2015-05-10T07:42:22Z</time>
      </trkpt>
      <trkpt lat="47.31383" lon="-1.64793">
        <ele>69.1</ele>
        <time>2015-05-10T07:42:23Z</time>
      </trkpt>
      <trkpt lat="47.31378" lon="-1.64789">
        <ele>69</ele>
        <time>2015-05-10T07:42:24Z</time>
      </trkpt>
      <trkpt lat="47.31374" lon="-1.64786">
        <ele>68.9</ele>
        <time>2015-05-10T07:42:25Z</time>
      </trkpt>
      <trkpt lat="47.3137" lon="-1.64782">
        <ele>68.9</ele>
        <time>2015-05-10T07:42:26Z</time>
      </trkpt>
      <trkpt lat="47.31365" lon="-1.64779">
        <ele>68.8</ele>
        <time>2015-05-10T07:42:27Z</time>
      </trkpt>
      <trkpt lat="47.3136" lon="-1.64774">
        <ele>68.8</ele>
        <time>2015-05-10T07:42:28Z</time>
      </trkpt>
      <trkpt lat="47.31356" lon="-1.6477">
        <ele>68.7</ele>
        <time>2015-05-10T07:42:29Z</time>
      </trkpt>
      <trkpt lat="47.31353" lon="-1.64766">
        <ele>68.7</ele>
        <time>2015-05-10T07:42:30Z</time>
      </trkpt>
      <trkpt lat="47.31349" lon="-1.64762">
        <ele>68.6</ele>
        <time>2015-05-10T07:42:31Z</time>
      </trkpt>
      <trkpt lat="47.31344" lon="-1.64757">
        <ele>68.6</ele>
        <time>2015-05-10T07:42:32Z</time>
      </trkpt>
      <trkpt lat="47.3134" lon="-1.64752">
        <ele>68.5</ele>
        <time>2015-05-10T07:42:33Z</time>
      </trkpt>
      <trkpt lat="47.31336" lon="-1.64746">
        <ele>68.4</ele>
        <time>2015-05-10T07:42:34Z</time>
      </trkpt>
      <trkpt lat="47.31332" lon="-1.6474">
        <ele>68.4</ele>
        <time>2015-05-10T07:42:35Z</time>
      </trkpt>
      <trkpt lat="47.31328" lon="-1.64734">
        <ele>68.3</ele>
        <time>2015-05-10T07:42:36Z</time>
      </trkpt>
      <trkpt lat="47.31325" lon="-1.64729">
        <ele>68.3</ele>
        <time>2015-05-10T07:42:37Z</time>
      </trkpt>
      <trkpt lat="47.31321" lon="-1.64725">
        <ele>68.2</ele>
        <time>2015-05-10T07:42:38Z</time>
      </trkpt>
      <trkpt lat="47.31317" lon="-1.6472">
        <ele>68.1</ele>
        <time>2015-05-10T07:42:39Z</time>
      </trkpt>
      <trkpt lat="47.31314" lon="-1.64715">
        <ele>68.1</ele>
        <time>2015-05-10T07:42:40Z</time>
      </trkpt>
      <trkpt lat="47.3131" lon="-1.64711">
        <ele>68</ele>
        <time>2015-05-10T07:42:41Z</time>
      </trkpt>
      <trkpt lat="47.31307" lon="-1.64707">
        <ele>68</ele>
        <time>2015-05-10T07:42:42Z</time>
      </trkpt>
      <trkpt lat="47.31303" lon="-1.64703">
        <ele>68</ele>
        <time>2015-05-10T07:42:43Z</time>
      </trkpt>
      <trkpt lat="47.31299" lon="-1.64698">
        <ele>68.1</ele>
        <time>2015-05-10T07:42:44Z</time>
      </trkpt>
      <trkpt lat="47.31294" lon="-1.64693">
        <ele>68.2</ele>
        <time>2015-05-10T07:42:45Z</time>
      </trkpt>
      <trkpt lat="47.3129" lon="-1.64689">
        <ele>68.2</ele>
        <time>2015-05-10T07:42:46Z</time>
      </trkpt>
      <trkpt lat="47.31286" lon="-1.64685">
        <ele>68.3</ele>
        <time>2015-05-10T07:42:47Z</time>
      </trkpt>
      <trkpt lat="47.31282" lon="-1.64681">
        <ele>68.4</ele>
        <time>2015-05-10T07:42:48Z</time>
      </trkpt>
      <trkpt lat="47.31279" lon="-1.64677">
        <ele>68.5</ele>
        <time>2015-05-10T07:42:49Z</time>
      </trkpt>
      <trkpt lat="47.31276" lon="-1.64673">
        <ele>68.6</ele>
        <time>2015-05-10T07:42:50Z</time>
      </trkpt>
      <trkpt lat="47.31272" lon="-1.64669">
        <ele>68.7</ele>
        <time>2015-05-10T07:42:51Z</time>
      </trkpt>
      <trkpt lat="47.31268" lon="-1.64666">
        <ele>68.8</ele>
        <time>2015-05-10T07:42:52Z</time>
      </trkpt>
      <trkpt lat="47.31265" lon="-1.64662">
        <ele>68.9</ele>
        <time>2015-05-10T07:42:53Z</time>
      </trkpt>
      <trkpt lat="47.31263" lon="-1.64657">
        <ele>69</ele>
        <time>2015-05-10T07:42:54Z</time>
      </trkpt>
      <trkpt lat="47.31261" lon="-1.64651">
        <ele>69</ele>
        <time>2015-05-10T07:42:55Z</time>
      </trkpt>
      <trkpt lat="47.31261" lon="-1.64645">
        <ele>69.1</ele>
        <time>2015-05-10T07:42:56Z</time>
      </trkpt>
      <trkpt lat="47.31264" lon="-1.64638">
        <ele>69.2</ele>
        <time>2015-05-10T07:42:57Z</time>
      </trkpt>
      <trkpt lat="47.31269" lon="-1.64633">
        <ele>69.2</ele>
        <time>2015-05-10T07:42:58Z</time>
      </trkpt>
      <trkpt lat="47.31274" lon="-1.64629">
        <ele>69.2</ele>
        <time>2015-05-10T07:42:59Z</time>
      </trkpt>
      <trkpt lat="47.3128" lon="-1.64625">
        <ele>69.1</ele>
        <time>2015-05-10T07:43:00Z</time>
      </trkpt>
      <trkpt lat="47.31286" lon="-1.64623">
        <ele>69</ele>
        <time>2015-05-10T07:43:01Z</time>
      </trkpt>
      <trkpt lat="47.31291" lon="-1.6462">
        <ele>68.8</ele>
        <time>2015-05-10T07:43:02Z</time>
      </trkpt>
      <trkpt lat="47.31298" lon="-1.64618">
        <ele>68.5</ele>
        <time>2015-05-10T07:43:03Z</time>
      </trkpt>
      <trkpt lat="47.31304" lon="-1.64615">
        <ele>68.2</ele>
        <time>2015-05-10T07:43:04Z</time>
      </trkpt>
      <trkpt lat="47.31311" lon="-1.64611">
        <ele>67.9</ele>
        <time>2015-05-10T07:43:05Z</time>
      </trkpt>
      <trkpt lat="47.31316" lon="-1.64607">
        <ele>67.6</ele>
        <time>2015-05-10T07:43:06Z</time>
      </trkpt>
      <trkpt lat="47.31322" lon="-1.64604">
        <ele>67.3</ele>
        <time>2015-05-10T07:43:07Z</time>
      </trkpt>
      <trkpt lat="47.31328" lon="-1.64601">
        <ele>67.1</ele>
        <time>2015-05-10T07:43:08Z</time>
      </trkpt>
      <trkpt lat="47.31334" lon="-1.64597">
        <ele>66.8</ele>
        <time>2015-05-10T07:43:09Z</time>
      </trkpt>
      <trkpt lat="47.31339" lon="-1.64594">
        <ele>66.6</ele>
        <time>2015-05-10T07:43:10Z</time>
      </trkpt>
      <trkpt lat="47.31345" lon="-1.64592">
        <ele>66.4</ele>
        <time>2015-05-10T07:43:11Z</time>
      </trkpt>
      <trkpt lat="47.3135" lon="-1.64589">
        <ele>66.2</ele>
        <time>2015-05-10T07:43:12Z</time>
      </trkpt>
      <trkpt lat="47.31355" lon="-1.64586">
        <ele>66</ele>
        <time>2015-05-10T07:43:13Z</time>
      </trkpt>
      <trkpt lat="47.31359" lon="-1.64582">
        <ele>65.9</ele>
        <time>2015-05-10T07:43:14Z</time>
      </trkpt>
      <trkpt lat="47.31364" lon="-1.64578">
        <ele>65.7</ele>
        <time>2015-05-10T07:43:15Z</time>
      </trkpt>
      <trkpt lat="47.31368" lon="-1.64575">
        <ele>65.5</ele>
        <time>2015-05-10T07:43:16Z</time>
      </trkpt>
      <trkpt lat="47.31373" lon="-1.64571">
        <ele>65.4</ele>
        <time>2015-05-10T07:43:17Z</time>
      </trkpt>
      <trkpt lat="47.31377" lon="-1.64568">
        <ele>65.3</ele>
        <time>2015-05-10T07:43:18Z</time>
      </trkpt>
      <trkpt lat="47.31382" lon="-1.64565">
        <ele>65.2</ele>
        <time>2015-05-10T07:43:19Z</time>
      </trkpt>
      <trkpt lat="47.31387" lon="-1.64563">
        <ele>65.1</ele>
        <time>2015-05-10T07:43:20Z</time>
      </trkpt>
      <trkpt lat="47.31392" lon="-1.64561">
        <ele>65.1</ele>
        <time>2015-05-10T07:43:21Z</time>
      </trkpt>
      <trkpt lat="47.31397" lon="-1.64559">
        <ele>65</ele>
        <time>2015-05-10T07:43:22Z</time>
      </trkpt>
      <trkpt lat="47.31402" lon="-1.64558">
        <ele>64.9</ele>
        <time>2015-05-10T07:43:23Z</time>
      </trkpt>
      <trkpt lat="47.31407" lon="-1.64556">
        <ele>64.9</ele>
        <time>2015-05-10T07:43:24Z</time>
      </trkpt>
      <trkpt lat="47.31412" lon="-1.64555">
        <ele>64.8</ele>
        <time>2015-05-10T07:43:25Z</time>
      </trkpt>
      <trkpt lat="47.31417" lon="-1.64554">
        <ele>64.7</ele>
        <time>2015-05-10T07:43:26Z</time>
      </trkpt>
      <trkpt lat="47.31421" lon="-1.64553">
        <ele>64.7</ele>
        <time>2015-05-10T07:43:27Z</time>
      </trkpt>
      <trkpt lat="47.31426" lon="-1.64552">
        <ele>64.6</ele>
        <time>2015-05-10T07:43:28Z</time>
      </trkpt>
      <trkpt lat="47.3143" lon="-1.64552">
        <ele>64.5</ele>
        <time>2015-05-10T07:43:29Z</time>
      </trkpt>
      <trkpt lat="47.31435" lon="-1.64552">
        <ele>64.5</ele>
        <time>2015-05-10T07:43:30Z</time>
      </trkpt>
      <trkpt lat="47.31439" lon="-1.64552">
        <ele>64.5</ele>
        <time>2015-05-10T07:43:31Z</time>
      </trkpt>
      <trkpt lat="47.31442" lon="-1.64553">
        <ele>64.4</ele>
        <time>2015-05-10T07:43:32Z</time>
      </trkpt>
      <trkpt lat="47.31446" lon="-1.64552">
        <ele>64.4</ele>
        <time>2015-05-10T07:43:33Z</time>
      </trkpt>
      <trkpt lat="47.31449" lon="-1.6455">
        <ele>64.3</ele>
        <time>2015-05-10T07:43:34Z</time>
      </trkpt>
      <trkpt lat="47.31454" lon="-1.64548">
        <ele>64.2</ele>
        <time>2015-05-10T07:43:35Z</time>
      </trkpt>
      <trkpt lat="47.31458" lon="-1.64547">
        <ele>64.1</ele>
        <time>2015-05-10T07:43:36Z</time>
      </trkpt>
      <trkpt lat="47.31461" lon="-1.64546">
        <ele>64</ele>
        <time>2015-05-10T07:43:37Z</time>
      </trkpt>
      <trkpt lat="47.31466" lon="-1.64543">
        <ele>63.8</ele>
        <time>2015-05-10T07:43:38Z</time>
      </trkpt>
      <trkpt lat="47.3147" lon="-1.6454">
        <ele>63.7</ele>
        <time>2015-05-10T07:43:39Z</time>
      </trkpt>
      <trkpt lat="47.31474" lon="-1.64537">
        <ele>63.5</ele>
        <time>2015-05-10T07:43:40Z</time>
      </trkpt>
      <trkpt lat="47.31479" lon="-1.64535">
        <ele>63.3</ele>
        <time>2015-05-10T07:43:41Z</time>
      </trkpt>
      <trkpt lat="47.31485" lon="-1.64531">
        <ele>63</ele>
        <time>2015-05-10T07:43:42Z</time>
      </trkpt>
      <trkpt lat="47.31491" lon="-1.64529">
        <ele>62.8</ele>
        <time>2015-05-10T07:43:43Z</time>
      </trkpt>
      <trkpt lat="47.31499" lon="-1.64526">
        <ele>62.5</ele>
        <time>2015-05-10T07:43:44Z</time>
      </trkpt>
      <trkpt lat="47.31506" lon="-1.64523">
        <ele>62.2</ele>
        <time>2015-05-10T07:43:45Z</time>
      </trkpt>
      <trkpt lat="47.31511" lon="-1.64521">
        <ele>61.9</ele>
        <time>2015-05-10T07:43:46Z</time>
      </trkpt>
      <trkpt lat="47.31516" lon="-1.64517">
        <ele>61.6</ele>
        <time>2015-05-10T07:43:47Z</time>
      </trkpt>
      <trkpt lat="47.31521" lon="-1.64513">
        <ele>61.3</ele>
        <time>2015-05-10T07:43:48Z</time>
      </trkpt>
      <trkpt lat="47.31526" lon="-1.64509">
        <ele>61</ele>
        <time>2015-05-10T07:43:49Z</time>
      </trkpt>
      <trkpt lat="47.31531" lon="-1.64504">
        <ele>60.6</ele>
        <time>2015-05-10T07:43:50Z</time>
      </trkpt>
      <trkpt lat="47.31536" lon="-1.64499">
        <ele>60.2</ele>
        <time>2015-05-10T07:43:51Z</time>
      </trkpt>
      <trkpt lat="47.31541" lon="-1.64495">
        <ele>59.8</ele>
        <time>2015-05-10T07:43:52Z</time>
      </trkpt>
      <trkpt lat="47.31545" lon="-1.6449">
        <ele>59.4</ele>
        <time>2015-05-10T07:43:53Z</time>
      </trkpt>
      <trkpt lat="47.3155" lon="-1.64485">
        <ele>59</ele>
        <time>2015-05-10T07:43:54Z</time>
      </trkpt>
      <trkpt lat="47.31554" lon="-1.6448">
        <ele>58.6</ele>
        <time>2015-05-10T07:43:55Z</time>
      </trkpt>
      <trkpt lat="47.31559" lon="-1.64475">
        <ele>58.2</ele>
        <time>2015-05-10T07:43:56Z</time>
      </trkpt>
      <trkpt lat="47.31563" lon="-1.64471">
        <ele>57.9</ele>
        <time>2015-05-10T07:43:57Z</time>
      </trkpt>
      <trkpt lat="47.31568" lon="-1.64467">
        <ele>57.7</ele>
        <time>2015-05-10T07:43:58Z</time>
      </trkpt>
      <trkpt lat="47.31573" lon="-1.64463">
        <ele>57.4</ele>
        <time>2015-05-10T07:43:59Z</time>
      </trkpt>
      <trkpt lat="47.31577" lon="-1.64457">
        <ele>57.1</ele>
        <time>2015-05-10T07:44:00Z</time>
      </trkpt>
      <trkpt lat="47.31582" lon="-1.64453">
        <ele>56.9</ele>
        <time>2015-05-10T07:44:01Z</time>
      </trkpt>
      <trkpt lat="47.31586" lon="-1.6445">
        <ele>56.7</ele>
        <time>2015-05-10T07:44:02Z</time>
      </trkpt>
      <trkpt lat="47.31591" lon="-1.64445">
        <ele>56.5</ele>
        <time>2015-05-10T07:44:03Z</time>
      </trkpt>
      <trkpt lat="47.31596" lon="-1.64441">
        <ele>56.3</ele>
        <time>2015-05-10T07:44:04Z</time>
      </trkpt>
      <trkpt lat="47.31602" lon="-1.64436">
        <ele>56</ele>
        <time>2015-05-10T07:44:05Z</time>
      </trkpt>
      <trkpt lat="47.31608" lon="-1.64431">
        <ele>55.8</ele>
        <time>2015-05-10T07:44:06Z</time>
      </trkpt>
      <trkpt lat="47.31614" lon="-1.64427">
        <ele>55.5</ele>
        <time>2015-05-10T07:44:07Z</time>
      </trkpt>
      <trkpt lat="47.31619" lon="-1.64422">
        <ele>55.3</ele>
        <time>2015-05-10T07:44:08Z</time>
      </trkpt>
      <trkpt lat="47.31625" lon="-1.64418">
        <ele>55</ele>
        <time>2015-05-10T07:44:09Z</time>
      </trkpt>
      <trkpt lat="47.31631" lon="-1.64414">
        <ele>54.7</ele>
        <time>2015-05-10T07:44:10Z</time>
      </trkpt>
      <trkpt lat="47.31637" lon="-1.6441">
        <ele>54.3</ele>
        <time>2015-05-10T07:44:11Z</time>
      </trkpt>
      <trkpt lat="47.31642" lon="-1.64406">
        <ele>54</ele>
        <time>2015-05-10T07:44:12Z</time>
      </trkpt>
      <trkpt lat="47.31647" lon="-1.64402">
        <ele>53.7</ele>
        <time>2015-05-10T07:44:13Z</time>
      </trkpt>
      <trkpt lat="47.3165" lon="-1.64398">
        <ele>53.4</ele>
        <time>2015-05-10T07:44:14Z</time>
      </trkpt>
      <trkpt lat="47.31653" lon="-1.6439">
        <ele>53.1</ele>
        <time>2015-05-10T07:44:15Z</time>
      </trkpt>
      <trkpt lat="47.31654" lon="-1.64383">
        <ele>52.8</ele>
        <time>2015-05-10T07:44:16Z</time>
      </trkpt>
      <trkpt lat="47.31652" lon="-1.64376">
        <ele>52.7</ele>
        <time>2015-05-10T07:44:17Z</time>
      </trkpt>
      <trkpt lat="47.31651" lon="-1.64371">
        <ele>52.6</ele>
        <time>2015-05-10T07:44:18Z</time>
      </trkpt>
      <trkpt lat="47.31646" lon="-1.64368">
        <ele>52.7</ele>
        <time>2015-05-10T07:44:19Z</time>
      </trkpt>
      <trkpt lat="47.3164" lon="-1.64365">
        <ele>52.9</ele>
        <time>2015-05-10T07:44:20Z</time>
      </trkpt>
      <trkpt lat="47.31634" lon="-1.64362">
        <ele>53.1</ele>
        <time>2015-05-10T07:44:21Z</time>
      </trkpt>
      <trkpt lat="47.31629" lon="-1.6436">
        <ele>53.3</ele>
        <time>2015-05-10T07:44:22Z</time>
      </trkpt>
      <trkpt lat="47.31624" lon="-1.64358">
        <ele>53.4</ele>
        <time>2015-05-10T07:44:23Z</time>
      </trkpt>
      <trkpt lat="47.31619" lon="-1.64355">
        <ele>53.5</ele>
        <time>2015-05-10T07:44:24Z</time>
      </trkpt>
      <trkpt lat="47.31615" lon="-1.64352">
        <ele>53.5</ele>
        <time>2015-05-10T07:44:25Z</time>
      </trkpt>
      <trkpt lat="47.31611" lon="-1.64348">
        <ele>53.5</ele>
        <time>2015-05-10T07:44:26Z</time>
      </trkpt>
      <trkpt lat="47.31608" lon="-1.64342">
        <ele>53.4</ele>
        <time>2015-05-10T07:44:27Z</time>
      </trkpt>
      <trkpt lat="47.31607" lon="-1.64336">
        <ele>53.2</ele>
        <time>2015-05-10T07:44:28Z</time>
      </trkpt>
      <trkpt lat="47.31608" lon="-1.64328">
        <ele>53</ele>
        <time>2015-05-10T07:44:29Z</time>
      </trkpt>
      <trkpt lat="47.31608" lon="-1.6432">
        <ele>52.7</ele>
        <time>2015-05-10T07:44:30Z</time>
      </trkpt>
      <trkpt lat="47.31609" lon="-1.64313">
        <ele>52.5</ele>
        <time>2015-05-10T07:44:31Z</time>
      </trkpt>
      <trkpt lat="47.31609" lon="-1.64307">
        <ele>52.2</ele>
        <time>2015-05-10T07:44:32Z</time>
      </trkpt>
      <trkpt lat="47.31609" lon="-1.64301">
        <ele>52</ele>
        <time>2015-05-10T07:44:33Z</time>
      </trkpt>
      <trkpt lat="47.31609" lon="-1.64294">
        <ele>51.8</ele>
        <time>2015-05-10T07:44:34Z</time>
      </trkpt>
      <trkpt lat="47.31609" lon="-1.64287">
        <ele>51.6</ele>
        <time>2015-05-10T07:44:35Z</time>
      </trkpt>
      <trkpt lat="47.3161" lon="-1.6428">
        <ele>51.3</ele>
        <time>2015-05-10T07:44:36Z</time>
      </trkpt>
      <trkpt lat="47.31617" lon="-1.64268">
        <ele>50.6</ele>
        <time>2015-05-10T07:44:37Z</time>
      </trkpt>
      <trkpt lat="47.31619" lon="-1.64258">
        <ele>50.2</ele>
        <time>2015-05-10T07:44:38Z</time>
      </trkpt>
      <trkpt lat="47.31618" lon="-1.64251">
        <ele>49.9</ele>
        <time>2015-05-10T07:44:39Z</time>
      </trkpt>
      <trkpt lat="47.31619" lon="-1.64246">
        <ele>49.7</ele>
        <time>2015-05-10T07:44:40Z</time>
      </trkpt>
      <trkpt lat="47.31621" lon="-1.6424">
        <ele>49.4</ele>
        <time>2015-05-10T07:44:41Z</time>
      </trkpt>
      <trkpt lat="47.31623" lon="-1.64232">
        <ele>49</ele>
        <time>2015-05-10T07:44:42Z</time>
      </trkpt>
      <trkpt lat="47.31624" lon="-1.64224">
        <ele>48.6</ele>
        <time>2015-05-10T07:44:43Z</time>
      </trkpt>
      <trkpt lat="47.31625" lon="-1.64216">
        <ele>48.3</ele>
        <time>2015-05-10T07:44:44Z</time>
      </trkpt>
      <trkpt lat="47.31626" lon="-1.64209">
        <ele>48</ele>
        <time>2015-05-10T07:44:45Z</time>
      </trkpt>
      <trkpt lat="47.31627" lon="-1.64201">
        <ele>47.6</ele>
        <time>2015-05-10T07:44:46Z</time>
      </trkpt>
      <trkpt lat="47.31627" lon="-1.64194">
        <ele>47.2</ele>
        <time>2015-05-10T07:44:47Z</time>
      </trkpt>
      <trkpt lat="47.31628" lon="-1.64186">
        <ele>46.8</ele>
        <time>2015-05-10T07:44:48Z</time>
      </trkpt>
      <trkpt lat="47.31628" lon="-1.64178">
        <ele>46.4</ele>
        <time>2015-05-10T07:44:49Z</time>
      </trkpt>
      <trkpt lat="47.31628" lon="-1.6417">
        <ele>46</ele>
        <time>2015-05-10T07:44:50Z</time>
      </trkpt>
      <trkpt lat="47.31628" lon="-1.64163">
        <ele>45.7</ele>
        <time>2015-05-10T07:44:51Z</time>
      </trkpt>
      <trkpt lat="47.31628" lon="-1.64156">
        <ele>45.3</ele>
        <time>2015-05-10T07:44:52Z</time>
      </trkpt>
      <trkpt lat="47.31627" lon="-1.64149">
        <ele>45</ele>
        <time>2015-05-10T07:44:53Z</time>
      </trkpt>
      <trkpt lat="47.31627" lon="-1.64143">
        <ele>44.8</ele>
        <time>2015-05-10T07:44:54Z</time>
      </trkpt>
      <trkpt lat="47.31625" lon="-1.64138">
        <ele>44.6</ele>
        <time>2015-05-10T07:44:56Z</time>
      </trkpt>
      <trkpt lat="47.31628" lon="-1.64135">
        <ele>44.3</ele>
        <time>2015-05-10T07:45:53Z</time>
      </trkpt>
      <trkpt lat="47.31626" lon="-1.64131">
        <ele>44.2</ele>
        <time>2015-05-10T07:45:54Z</time>
      </trkpt>
      <trkpt lat="47.31622" lon="-1.64125">
        <ele>44.3</ele>
        <time>2015-05-10T07:45:56Z</time>
      </trkpt>
      <trkpt lat="47.31619" lon="-1.64121">
        <ele>44.5</ele>
        <time>2015-05-10T07:45:57Z</time>
      </trkpt>
      <trkpt lat="47.31616" lon="-1.64117">
        <ele>44.7</ele>
        <time>2015-05-10T07:45:58Z</time>
      </trkpt>
      <trkpt lat="47.31614" lon="-1.64113">
        <ele>44.9</ele>
        <time>2015-05-10T07:45:59Z</time>
      </trkpt>
      <trkpt lat="47.31611" lon="-1.64109">
        <ele>45.1</ele>
        <time>2015-05-10T07:46:00Z</time>
      </trkpt>
      <trkpt lat="47.31608" lon="-1.64105">
        <ele>45.3</ele>
        <time>2015-05-10T07:46:01Z</time>
      </trkpt>
      <trkpt lat="47.31605" lon="-1.64101">
        <ele>45.5</ele>
        <time>2015-05-10T07:46:02Z</time>
      </trkpt>
      <trkpt lat="47.31602" lon="-1.64096">
        <ele>45.8</ele>
        <time>2015-05-10T07:46:03Z</time>
      </trkpt>
      <trkpt lat="47.31599" lon="-1.64092">
        <ele>46.1</ele>
        <time>2015-05-10T07:46:04Z</time>
      </trkpt>
      <trkpt lat="47.31596" lon="-1.64087">
        <ele>46.4</ele>
        <time>2015-05-10T07:46:05Z</time>
      </trkpt>
      <trkpt lat="47.31592" lon="-1.64083">
        <ele>46.7</ele>
        <time>2015-05-10T07:46:06Z</time>
      </trkpt>
      <trkpt lat="47.3159" lon="-1.64078">
        <ele>47</ele>
        <time>2015-05-10T07:46:07Z</time>
      </trkpt>
      <trkpt lat="47.31587" lon="-1.64074">
        <ele>47.3</ele>
        <time>2015-05-10T07:46:08Z</time>
      </trkpt>
      <trkpt lat="47.31583" lon="-1.6407">
        <ele>47.7</ele>
        <time>2015-05-10T07:46:09Z</time>
      </trkpt>
      <trkpt lat="47.3158" lon="-1.64065">
        <ele>48.1</ele>
        <time>2015-05-10T07:46:10Z</time>
      </trkpt>
      <trkpt lat="47.31577" lon="-1.64061">
        <ele>48.4</ele>
        <time>2015-05-10T07:46:11Z</time>
      </trkpt>
      <trkpt lat="47.31574" lon="-1.64057">
        <ele>48.8</ele>
        <time>2015-05-10T07:46:12Z</time>
      </trkpt>
      <trkpt lat="47.3157" lon="-1.64053">
        <ele>49.2</ele>
        <time>2015-05-10T07:46:13Z</time>
      </trkpt>
      <trkpt lat="47.31567" lon="-1.64049">
        <ele>49.6</ele>
        <time>2015-05-10T07:46:14Z</time>
      </trkpt>
      <trkpt lat="47.31564" lon="-1.64045">
        <ele>50.1</ele>
        <time>2015-05-10T07:46:15Z</time>
      </trkpt>
      <trkpt lat="47.31561" lon="-1.6404">
        <ele>50.4</ele>
        <time>2015-05-10T07:46:16Z</time>
      </trkpt>
      <trkpt lat="47.31559" lon="-1.64037">
        <ele>50.8</ele>
        <time>2015-05-10T07:46:17Z</time>
      </trkpt>
      <trkpt lat="47.31556" lon="-1.64034">
        <ele>51.1</ele>
        <time>2015-05-10T07:46:18Z</time>
      </trkpt>
      <trkpt lat="47.31553" lon="-1.6403">
        <ele>51.5</ele>
        <time>2015-05-10T07:46:19Z</time>
      </trkpt>
      <trkpt lat="47.31551" lon="-1.64027">
        <ele>51.8</ele>
        <time>2015-05-10T07:46:20Z</time>
      </trkpt>
      <trkpt lat="47.31549" lon="-1.64023">
        <ele>52.1</ele>
        <time>2015-05-10T07:46:21Z</time>
      </trkpt>
      <trkpt lat="47.31546" lon="-1.6402">
        <ele>52.5</ele>
        <time>2015-05-10T07:46:22Z</time>
      </trkpt>
      <trkpt lat="47.31543" lon="-1.64017">
        <ele>52.9</ele>
        <time>2015-05-10T07:46:23Z</time>
      </trkpt>
      <trkpt lat="47.3154" lon="-1.64013">
        <ele>53.2</ele>
        <time>2015-05-10T07:46:24Z</time>
      </trkpt>
      <trkpt lat="47.31538" lon="-1.64009">
        <ele>53.7</ele>
        <time>2015-05-10T07:46:25Z</time>
      </trkpt>
      <trkpt lat="47.31535" lon="-1.64005">
        <ele>54.1</ele>
        <time>2015-05-10T07:46:26Z</time>
      </trkpt>
      <trkpt lat="47.31532" lon="-1.64002">
        <ele>54.5</ele>
        <time>2015-05-10T07:46:27Z</time>
      </trkpt>
      <trkpt lat="47.3153" lon="-1.63999">
        <ele>54.9</ele>
        <time>2015-05-10T07:46:28Z</time>
      </trkpt>
      <trkpt lat="47.31528" lon="-1.63995">
        <ele>55.2</ele>
        <time>2015-05-10T07:46:29Z</time>
      </trkpt>
      <trkpt lat="47.31525" lon="-1.63991">
        <ele>55.6</ele>
        <time>2015-05-10T07:46:30Z</time>
      </trkpt>
      <trkpt lat="47.31522" lon="-1.63988">
        <ele>56</ele>
        <time>2015-05-10T07:46:31Z</time>
      </trkpt>
      <trkpt lat="47.3152" lon="-1.63984">
        <ele>56.3</ele>
        <time>2015-05-10T07:46:32Z</time>
      </trkpt>
      <trkpt lat="47.31518" lon="-1.63981">
        <ele>56.6</ele>
        <time>2015-05-10T07:46:33Z</time>
      </trkpt>
      <trkpt lat="47.31515" lon="-1.63977">
        <ele>56.9</ele>
        <time>2015-05-10T07:46:34Z</time>
      </trkpt>
      <trkpt lat="47.31512" lon="-1.63971">
        <ele>57.4</ele>
        <time>2015-05-10T07:46:36Z</time>
      </trkpt>
      <trkpt lat="47.31509" lon="-1.63968">
        <ele>57.8</ele>
        <time>2015-05-10T07:46:37Z</time>
      </trkpt>
      <trkpt lat="47.31506" lon="-1.63965">
        <ele>58.2</ele>
        <time>2015-05-10T07:46:38Z</time>
      </trkpt>
      <trkpt lat="47.31504" lon="-1.63962">
        <ele>58.5</ele>
        <time>2015-05-10T07:46:39Z</time>
      </trkpt>
      <trkpt lat="47.31502" lon="-1.63958">
        <ele>58.7</ele>
        <time>2015-05-10T07:46:40Z</time>
      </trkpt>
      <trkpt lat="47.315" lon="-1.63955">
        <ele>58.9</ele>
        <time>2015-05-10T07:46:41Z</time>
      </trkpt>
      <trkpt lat="47.31498" lon="-1.63952">
        <ele>59.1</ele>
        <time>2015-05-10T07:46:42Z</time>
      </trkpt>
      <trkpt lat="47.31495" lon="-1.63946">
        <ele>59.6</ele>
        <time>2015-05-10T07:46:44Z</time>
      </trkpt>
      <trkpt lat="47.31491" lon="-1.63941">
        <ele>60</ele>
        <time>2015-05-10T07:46:46Z</time>
      </trkpt>
      <trkpt lat="47.31489" lon="-1.63935">
        <ele>60.2</ele>
        <time>2015-05-10T07:46:48Z</time>
      </trkpt>
      <trkpt lat="47.31487" lon="-1.6393">
        <ele>60.3</ele>
        <time>2015-05-10T07:46:50Z</time>
      </trkpt>
      <trkpt lat="47.31485" lon="-1.63924">
        <ele>60.5</ele>
        <time>2015-05-10T07:46:52Z</time>
      </trkpt>
      <trkpt lat="47.31482" lon="-1.6392">
        <ele>60.8</ele>
        <time>2015-05-10T07:46:54Z</time>
      </trkpt>
      <trkpt lat="47.31478" lon="-1.63915">
        <ele>61.2</ele>
        <time>2015-05-10T07:46:56Z</time>
      </trkpt>
      <trkpt lat="47.31474" lon="-1.63911">
        <ele>61.7</ele>
        <time>2015-05-10T07:46:58Z</time>
      </trkpt>
      <trkpt lat="47.31471" lon="-1.63908">
        <ele>62</ele>
        <time>2015-05-10T07:47:00Z</time>
      </trkpt>
      <trkpt lat="47.31472" lon="-1.63901">
        <ele>61.8</ele>
        <time>2015-05-10T07:47:02Z</time>
      </trkpt>
      <trkpt lat="47.31471" lon="-1.63895">
        <ele>61.7</ele>
        <time>2015-05-10T07:47:03Z</time>
      </trkpt>
      <trkpt lat="47.31469" lon="-1.6389">
        <ele>62</ele>
        <time>2015-05-10T07:47:05Z</time>
      </trkpt>
      <trkpt lat="47.31467" lon="-1.63886">
        <ele>62.1</ele>
        <time>2015-05-10T07:47:07Z</time>
      </trkpt>
      <trkpt lat="47.31465" lon="-1.6388">
        <ele>62.2</ele>
        <time>2015-05-10T07:47:09Z</time>
      </trkpt>
      <trkpt lat="47.31463" lon="-1.63875">
        <ele>62.4</ele>
        <time>2015-05-10T07:47:11Z</time>
      </trkpt>
      <trkpt lat="47.31461" lon="-1.63868">
        <ele>62.4</ele>
        <time>2015-05-10T07:47:13Z</time>
      </trkpt>
      <trkpt lat="47.31459" lon="-1.63863">
        <ele>62.6</ele>
        <time>2015-05-10T07:47:15Z</time>
      </trkpt>
      <trkpt lat="47.31457" lon="-1.63858">
        <ele>62.6</ele>
        <time>2015-05-10T07:47:17Z</time>
      </trkpt>
      <trkpt lat="47.31455" lon="-1.63854">
        <ele>62.6</ele>
        <time>2015-05-10T07:47:19Z</time>
      </trkpt>
      <trkpt lat="47.31453" lon="-1.63849">
        <ele>62.5</ele>
        <time>2015-05-10T07:47:21Z</time>
      </trkpt>
      <trkpt lat="47.31451" lon="-1.63844">
        <ele>62.4</ele>
        <time>2015-05-10T07:47:23Z</time>
      </trkpt>
      <trkpt lat="47.31448" lon="-1.6384">
        <ele>62.4</ele>
        <time>2015-05-10T07:47:25Z</time>
      </trkpt>
      <trkpt lat="47.31447" lon="-1.63835">
        <ele>62.3</ele>
        <time>2015-05-10T07:47:27Z</time>
      </trkpt>
      <trkpt lat="47.31447" lon="-1.6383">
        <ele>62.2</ele>
        <time>2015-05-10T07:47:29Z</time>
      </trkpt>
      <trkpt lat="47.31447" lon="-1.63823">
        <ele>62</ele>
        <time>2015-05-10T07:47:31Z</time>
      </trkpt>
      <trkpt lat="47.31446" lon="-1.63817">
        <ele>61.9</ele>
        <time>2015-05-10T07:47:33Z</time>
      </trkpt>
      <trkpt lat="47.31444" lon="-1.63813">
        <ele>61.8</ele>
        <time>2015-05-10T07:47:34Z</time>
      </trkpt>
      <trkpt lat="47.31444" lon="-1.63807">
        <ele>61.7</ele>
        <time>2015-05-10T07:47:36Z</time>
      </trkpt>
      <trkpt lat="47.31444" lon="-1.63801">
        <ele>61.6</ele>
        <time>2015-05-10T07:47:38Z</time>
      </trkpt>
      <trkpt lat="47.31444" lon="-1.63797">
        <ele>61.5</ele>
        <time>2015-05-10T07:47:39Z</time>
      </trkpt>
      <trkpt lat="47.31443" lon="-1.63793">
        <ele>61.4</ele>
        <time>2015-05-10T07:47:40Z</time>
      </trkpt>
      <trkpt lat="47.31443" lon="-1.63787">
        <ele>61.3</ele>
        <time>2015-05-10T07:47:42Z</time>
      </trkpt>
      <trkpt lat="47.31442" lon="-1.63781">
        <ele>61.3</ele>
        <time>2015-05-10T07:47:44Z</time>
      </trkpt>
      <trkpt lat="47.31442" lon="-1.63775">
        <ele>61.2</ele>
        <time>2015-05-10T07:47:46Z</time>
      </trkpt>
      <trkpt lat="47.3144" lon="-1.63771">
        <ele>61.2</ele>
        <time>2015-05-10T07:47:48Z</time>
      </trkpt>
      <trkpt lat="47.3144" lon="-1.63766">
        <ele>61.2</ele>
        <time>2015-05-10T07:47:50Z</time>
      </trkpt>
      <trkpt lat="47.31438" lon="-1.63761">
        <ele>61.2</ele>
        <time>2015-05-10T07:47:52Z</time>
      </trkpt>
      <trkpt lat="47.31436" lon="-1.63756">
        <ele>61.2</ele>
        <time>2015-05-10T07:47:54Z</time>
      </trkpt>
      <trkpt lat="47.31434" lon="-1.63751">
        <ele>61.2</ele>
        <time>2015-05-10T07:47:56Z</time>
      </trkpt>
      <trkpt lat="47.31432" lon="-1.63746">
        <ele>61.2</ele>
        <time>2015-05-10T07:47:58Z</time>
      </trkpt>
      <trkpt lat="47.31431" lon="-1.63742">
        <ele>61.3</ele>
        <time>2015-05-10T07:48:00Z</time>
      </trkpt>
      <trkpt lat="47.3143" lon="-1.63737">
        <ele>61.3</ele>
        <time>2015-05-10T07:48:02Z</time>
      </trkpt>
      <trkpt lat="47.31428" lon="-1.63731">
        <ele>61.3</ele>
        <time>2015-05-10T07:48:05Z</time>
      </trkpt>
      <trkpt lat="47.31429" lon="-1.63725">
        <ele>61.2</ele>
        <time>2015-05-10T07:48:07Z</time>
      </trkpt>
      <trkpt lat="47.31429" lon="-1.63719">
        <ele>61.1</ele>
        <time>2015-05-10T07:48:09Z</time>
      </trkpt>
      <trkpt lat="47.31431" lon="-1.63712">
        <ele>61</ele>
        <time>2015-05-10T07:48:11Z</time>
      </trkpt>
      <trkpt lat="47.31431" lon="-1.63707">
        <ele>61</ele>
        <time>2015-05-10T07:48:13Z</time>
      </trkpt>
      <trkpt lat="47.31432" lon="-1.63701">
        <ele>60.9</ele>
        <time>2015-05-10T07:48:15Z</time>
      </trkpt>
      <trkpt lat="47.31432" lon="-1.63694">
        <ele>60.9</ele>
        <time>2015-05-10T07:48:17Z</time>
      </trkpt>
      <trkpt lat="47.31432" lon="-1.63687">
        <ele>60.9</ele>
        <time>2015-05-10T07:48:19Z</time>
      </trkpt>
      <trkpt lat="47.31431" lon="-1.63682">
        <ele>60.9</ele>
        <time>2015-05-10T07:48:21Z</time>
      </trkpt>
      <trkpt lat="47.31428" lon="-1.63679">
        <ele>60.9</ele>
        <time>2015-05-10T07:48:23Z</time>
      </trkpt>
      <trkpt lat="47.31426" lon="-1.63676">
        <ele>61</ele>
        <time>2015-05-10T07:48:25Z</time>
      </trkpt>
      <trkpt lat="47.31422" lon="-1.63674">
        <ele>61</ele>
        <time>2015-05-10T07:48:27Z</time>
      </trkpt>
      <trkpt lat="47.31418" lon="-1.63672">
        <ele>61</ele>
        <time>2015-05-10T07:48:29Z</time>
      </trkpt>
      <trkpt lat="47.31416" lon="-1.63669">
        <ele>61</ele>
        <time>2015-05-10T07:48:31Z</time>
      </trkpt>
      <trkpt lat="47.31412" lon="-1.63666">
        <ele>61</ele>
        <time>2015-05-10T07:48:33Z</time>
      </trkpt>
      <trkpt lat="47.31407" lon="-1.63663">
        <ele>61</ele>
        <time>2015-05-10T07:48:35Z</time>
      </trkpt>
      <trkpt lat="47.31404" lon="-1.63659">
        <ele>61</ele>
        <time>2015-05-10T07:48:37Z</time>
      </trkpt>
      <trkpt lat="47.31401" lon="-1.63658">
        <ele>61</ele>
        <time>2015-05-10T07:48:39Z</time>
      </trkpt>
      <trkpt lat="47.31398" lon="-1.63658">
        <ele>61</ele>
        <time>2015-05-10T07:48:40Z</time>
      </trkpt>
      <trkpt lat="47.31394" lon="-1.63657">
        <ele>61</ele>
        <time>2015-05-10T07:48:41Z</time>
      </trkpt>
      <trkpt lat="47.31389" lon="-1.63657">
        <ele>61</ele>
        <time>2015-05-10T07:48:42Z</time>
      </trkpt>
      <trkpt lat="47.31385" lon="-1.63656">
        <ele>61</ele>
        <time>2015-05-10T07:48:43Z</time>
      </trkpt>
      <trkpt lat="47.31381" lon="-1.63655">
        <ele>61</ele>
        <time>2015-05-10T07:48:44Z</time>
      </trkpt>
      <trkpt lat="47.31378" lon="-1.63654">
        <ele>61</ele>
        <time>2015-05-10T07:48:45Z</time>
      </trkpt>
      <trkpt lat="47.31375" lon="-1.63651">
        <ele>60.9</ele>
        <time>2015-05-10T07:48:46Z</time>
      </trkpt>
      <trkpt lat="47.31372" lon="-1.63649">
        <ele>60.8</ele>
        <time>2015-05-10T07:48:47Z</time>
      </trkpt>
      <trkpt lat="47.31364" lon="-1.63644">
        <ele>60.6</ele>
        <time>2015-05-10T07:48:48Z</time>
      </trkpt>
      <trkpt lat="47.31358" lon="-1.6364">
        <ele>60.3</ele>
        <time>2015-05-10T07:48:49Z</time>
      </trkpt>
      <trkpt lat="47.31356" lon="-1.63637">
        <ele>60.2</ele>
        <time>2015-05-10T07:48:50Z</time>
      </trkpt>
      <trkpt lat="47.31359" lon="-1.63631">
        <ele>60</ele>
        <time>2015-05-10T07:48:51Z</time>
      </trkpt>
      <trkpt lat="47.31362" lon="-1.63625">
        <ele>59.8</ele>
        <time>2015-05-10T07:48:53Z</time>
      </trkpt>
      <trkpt lat="47.31364" lon="-1.63619">
        <ele>59.8</ele>
        <time>2015-05-10T07:48:55Z</time>
      </trkpt>
      <trkpt lat="47.31365" lon="-1.63615">
        <ele>59.8</ele>
        <time>2015-05-10T07:48:56Z</time>
      </trkpt>
      <trkpt lat="47.31367" lon="-1.63611">
        <ele>59.8</ele>
        <time>2015-05-10T07:48:57Z</time>
      </trkpt>
      <trkpt lat="47.31371" lon="-1.63602">
        <ele>59.7</ele>
        <time>2015-05-10T07:48:59Z</time>
      </trkpt>
      <trkpt lat="47.31372" lon="-1.63597">
        <ele>59.7</ele>
        <time>2015-05-10T07:49:00Z</time>
      </trkpt>
      <trkpt lat="47.31373" lon="-1.63591">
        <ele>59.6</ele>
        <time>2015-05-10T07:49:01Z</time>
      </trkpt>
      <trkpt lat="47.31375" lon="-1.63585">
        <ele>59.5</ele>
        <time>2015-05-10T07:49:02Z</time>
      </trkpt>
      <trkpt lat="47.3138" lon="-1.63577">
        <ele>59.5</ele>
        <time>2015-05-10T07:49:03Z</time>
      </trkpt>
      <trkpt lat="47.31383" lon="-1.6357">
        <ele>59.4</ele>
        <time>2015-05-10T07:49:04Z</time>
      </trkpt>
      <trkpt lat="47.31387" lon="-1.63564">
        <ele>59.4</ele>
        <time>2015-05-10T07:49:05Z</time>
      </trkpt>
      <trkpt lat="47.31389" lon="-1.63557">
        <ele>59.4</ele>
        <time>2015-05-10T07:49:06Z</time>
      </trkpt>
      <trkpt lat="47.31392" lon="-1.63549">
        <ele>59.3</ele>
        <time>2015-05-10T07:49:07Z</time>
      </trkpt>
      <trkpt lat="47.31395" lon="-1.63541">
        <ele>59.2</ele>
        <time>2015-05-10T07:49:08Z</time>
      </trkpt>
      <trkpt lat="47.31396" lon="-1.63533">
        <ele>59.1</ele>
        <time>2015-05-10T07:49:09Z</time>
      </trkpt>
      <trkpt lat="47.31398" lon="-1.63525">
        <ele>59</ele>
        <time>2015-05-10T07:49:10Z</time>
      </trkpt>
      <trkpt lat="47.314" lon="-1.63518">
        <ele>58.9</ele>
        <time>2015-05-10T07:49:11Z</time>
      </trkpt>
      <trkpt lat="47.31402" lon="-1.6351">
        <ele>58.7</ele>
        <time>2015-05-10T07:49:12Z</time>
      </trkpt>
      <trkpt lat="47.31405" lon="-1.63502">
        <ele>58.5</ele>
        <time>2015-05-10T07:49:13Z</time>
      </trkpt>
      <trkpt lat="47.31409" lon="-1.63494">
        <ele>58.2</ele>
        <time>2015-05-10T07:49:14Z</time>
      </trkpt>
      <trkpt lat="47.31415" lon="-1.63486">
        <ele>57.9</ele>
        <time>2015-05-10T07:49:15Z</time>
      </trkpt>
      <trkpt lat="47.3142" lon="-1.63478">
        <ele>57.5</ele>
        <time>2015-05-10T07:49:16Z</time>
      </trkpt>
      <trkpt lat="47.31425" lon="-1.6347">
        <ele>57</ele>
        <time>2015-05-10T07:49:17Z</time>
      </trkpt>
      <trkpt lat="47.31429" lon="-1.63462">
        <ele>56.6</ele>
        <time>2015-05-10T07:49:18Z</time>
      </trkpt>
      <trkpt lat="47.31432" lon="-1.63455">
        <ele>56.1</ele>
        <time>2015-05-10T07:49:19Z</time>
      </trkpt>
      <trkpt lat="47.31435" lon="-1.63449">
        <ele>55.8</ele>
        <time>2015-05-10T07:49:20Z</time>
      </trkpt>
      <trkpt lat="47.31437" lon="-1.63444">
        <ele>55.5</ele>
        <time>2015-05-10T07:49:21Z</time>
      </trkpt>
      <trkpt lat="47.3144" lon="-1.63439">
        <ele>55.2</ele>
        <time>2015-05-10T07:49:22Z</time>
      </trkpt>
      <trkpt lat="47.31443" lon="-1.63434">
        <ele>54.8</ele>
        <time>2015-05-10T07:49:23Z</time>
      </trkpt>
      <trkpt lat="47.31447" lon="-1.63429">
        <ele>54.3</ele>
        <time>2015-05-10T07:49:24Z</time>
      </trkpt>
      <trkpt lat="47.31451" lon="-1.63423">
        <ele>53.8</ele>
        <time>2015-05-10T07:49:25Z</time>
      </trkpt>
      <trkpt lat="47.31455" lon="-1.6342">
        <ele>53.4</ele>
        <time>2015-05-10T07:49:26Z</time>
      </trkpt>
      <trkpt lat="47.31457" lon="-1.63415">
        <ele>53</ele>
        <time>2015-05-10T07:49:27Z</time>
      </trkpt>
      <trkpt lat="47.31453" lon="-1.63406">
        <ele>52.9</ele>
        <time>2015-05-10T07:49:28Z</time>
      </trkpt>
      <trkpt lat="47.31451" lon="-1.63399">
        <ele>52.8</ele>
        <time>2015-05-10T07:49:29Z</time>
      </trkpt>
      <trkpt lat="47.31448" lon="-1.63392">
        <ele>52.7</ele>
        <time>2015-05-10T07:49:30Z</time>
      </trkpt>
      <trkpt lat="47.31447" lon="-1.63386">
        <ele>52.6</ele>
        <time>2015-05-10T07:49:31Z</time>
      </trkpt>
      <trkpt lat="47.31445" lon="-1.6338">
        <ele>52.5</ele>
        <time>2015-05-10T07:49:32Z</time>
      </trkpt>
      <trkpt lat="47.31443" lon="-1.63373">
        <ele>52.4</ele>
        <time>2015-05-10T07:49:33Z</time>
      </trkpt>
      <trkpt lat="47.31441" lon="-1.63367">
        <ele>52.4</ele>
        <time>2015-05-10T07:49:34Z</time>
      </trkpt>
      <trkpt lat="47.3144" lon="-1.6336">
        <ele>52.4</ele>
        <time>2015-05-10T07:49:35Z</time>
      </trkpt>
      <trkpt lat="47.31439" lon="-1.63353">
        <ele>52.3</ele>
        <time>2015-05-10T07:49:36Z</time>
      </trkpt>
      <trkpt lat="47.31437" lon="-1.63346">
        <ele>52.2</ele>
        <time>2015-05-10T07:49:37Z</time>
      </trkpt>
      <trkpt lat="47.31436" lon="-1.63339">
        <ele>52.2</ele>
        <time>2015-05-10T07:49:38Z</time>
      </trkpt>
      <trkpt lat="47.31434" lon="-1.63332">
        <ele>52.2</ele>
        <time>2015-05-10T07:49:39Z</time>
      </trkpt>
      <trkpt lat="47.31433" lon="-1.63326">
        <ele>52</ele>
        <time>2015-05-10T07:49:40Z</time>
      </trkpt>
      <trkpt lat="47.31432" lon="-1.63319">
        <ele>52</ele>
        <time>2015-05-10T07:49:41Z</time>
      </trkpt>
      <trkpt lat="47.31431" lon="-1.63312">
        <ele>51.8</ele>
        <time>2015-05-10T07:49:42Z</time>
      </trkpt>
      <trkpt lat="47.3143" lon="-1.63305">
        <ele>51.8</ele>
        <time>2015-05-10T07:49:43Z</time>
      </trkpt>
      <trkpt lat="47.31429" lon="-1.633">
        <ele>51.7</ele>
        <time>2015-05-10T07:49:44Z</time>
      </trkpt>
      <trkpt lat="47.31428" lon="-1.63295">
        <ele>51.6</ele>
        <time>2015-05-10T07:49:45Z</time>
      </trkpt>
      <trkpt lat="47.31427" lon="-1.63291">
        <ele>51.6</ele>
        <time>2015-05-10T07:49:46Z</time>
      </trkpt>
      <trkpt lat="47.31424" lon="-1.63285">
        <ele>51.7</ele>
        <time>2015-05-10T07:49:47Z</time>
      </trkpt>
      <trkpt lat="47.31422" lon="-1.63281">
        <ele>51.7</ele>
        <time>2015-05-10T07:49:48Z</time>
      </trkpt>
      <trkpt lat="47.3142" lon="-1.63276">
        <ele>51.8</ele>
        <time>2015-05-10T07:49:49Z</time>
      </trkpt>
      <trkpt lat="47.31414" lon="-1.63268">
        <ele>52</ele>
        <time>2015-05-10T07:49:50Z</time>
      </trkpt>
      <trkpt lat="47.3141" lon="-1.63264">
        <ele>52.2</ele>
        <time>2015-05-10T07:49:51Z</time>
      </trkpt>
      <trkpt lat="47.31408" lon="-1.63259">
        <ele>52.2</ele>
        <time>2015-05-10T07:49:52Z</time>
      </trkpt>
      <trkpt lat="47.31406" lon="-1.63253">
        <ele>52.1</ele>
        <time>2015-05-10T07:49:53Z</time>
      </trkpt>
      <trkpt lat="47.31404" lon="-1.63248">
        <ele>52</ele>
        <time>2015-05-10T07:49:54Z</time>
      </trkpt>
      <trkpt lat="47.31404" lon="-1.63242">
        <ele>51.8</ele>
        <time>2015-05-10T07:49:55Z</time>
      </trkpt>
      <trkpt lat="47.31407" lon="-1.63235">
        <ele>51.4</ele>
        <time>2015-05-10T07:49:56Z</time>
      </trkpt>
      <trkpt lat="47.3141" lon="-1.6323">
        <ele>51</ele>
        <time>2015-05-10T07:49:57Z</time>
      </trkpt>
      <trkpt lat="47.31412" lon="-1.63226">
        <ele>50.8</ele>
        <time>2015-05-10T07:49:58Z</time>
      </trkpt>
      <trkpt lat="47.31415" lon="-1.63224">
        <ele>50.6</ele>
        <time>2015-05-10T07:49:59Z</time>
      </trkpt>
      <trkpt lat="47.31418" lon="-1.63222">
        <ele>50.3</ele>
        <time>2015-05-10T07:50:00Z</time>
      </trkpt>
      <trkpt lat="47.31421" lon="-1.63219">
        <ele>50.1</ele>
        <time>2015-05-10T07:50:01Z</time>
      </trkpt>
      <trkpt lat="47.31424" lon="-1.63216">
        <ele>49.9</ele>
        <time>2015-05-10T07:50:02Z</time>
      </trkpt>
      <trkpt lat="47.31427" lon="-1.63213">
        <ele>49.6</ele>
        <time>2015-05-10T07:50:03Z</time>
      </trkpt>
      <trkpt lat="47.3143" lon="-1.6321">
        <ele>49.4</ele>
        <time>2015-05-10T07:50:04Z</time>
      </trkpt>
      <trkpt lat="47.31434" lon="-1.63207">
        <ele>49.1</ele>
        <time>2015-05-10T07:50:05Z</time>
      </trkpt>
      <trkpt lat="47.31437" lon="-1.63203">
        <ele>48.9</ele>
        <time>2015-05-10T07:50:06Z</time>
      </trkpt>
      <trkpt lat="47.31441" lon="-1.632">
        <ele>48.7</ele>
        <time>2015-05-10T07:50:07Z</time>
      </trkpt>
      <trkpt lat="47.31444" lon="-1.63196">
        <ele>48.4</ele>
        <time>2015-05-10T07:50:08Z</time>
      </trkpt>
      <trkpt lat="47.31447" lon="-1.63192">
        <ele>48.2</ele>
        <time>2015-05-10T07:50:09Z</time>
      </trkpt>
      <trkpt lat="47.31451" lon="-1.63187">
        <ele>47.9</ele>
        <time>2015-05-10T07:50:10Z</time>
      </trkpt>
      <trkpt lat="47.31454" lon="-1.63183">
        <ele>47.6</ele>
        <time>2015-05-10T07:50:11Z</time>
      </trkpt>
      <trkpt lat="47.31458" lon="-1.63178">
        <ele>47.3</ele>
        <time>2015-05-10T07:50:12Z</time>
      </trkpt>
      <trkpt lat="47.31462" lon="-1.63174">
        <ele>47.1</ele>
        <time>2015-05-10T07:50:13Z</time>
      </trkpt>
      <trkpt lat="47.31467" lon="-1.6317">
        <ele>47</ele>
        <time>2015-05-10T07:50:14Z</time>
      </trkpt>
      <trkpt lat="47.31471" lon="-1.63165">
        <ele>46.8</ele>
        <time>2015-05-10T07:50:15Z</time>
      </trkpt>
      <trkpt lat="47.31475" lon="-1.63161">
        <ele>46.7</ele>
        <time>2015-05-10T07:50:16Z</time>
      </trkpt>
      <trkpt lat="47.31479" lon="-1.63156">
        <ele>46.6</ele>
        <time>2015-05-10T07:50:17Z</time>
      </trkpt>
      <trkpt lat="47.31483" lon="-1.63151">
        <ele>46.4</ele>
        <time>2015-05-10T07:50:18Z</time>
      </trkpt>
      <trkpt lat="47.31486" lon="-1.63146">
        <ele>46.3</ele>
        <time>2015-05-10T07:50:19Z</time>
      </trkpt>
      <trkpt lat="47.3149" lon="-1.63141">
        <ele>46.2</ele>
        <time>2015-05-10T07:50:20Z</time>
      </trkpt>
      <trkpt lat="47.31495" lon="-1.63134">
        <ele>46.1</ele>
        <time>2015-05-10T07:50:21Z</time>
      </trkpt>
      <trkpt lat="47.31498" lon="-1.63129">
        <ele>46</ele>
        <time>2015-05-10T07:50:22Z</time>
      </trkpt>
      <trkpt lat="47.31503" lon="-1.63124">
        <ele>46</ele>
        <time>2015-05-10T07:50:23Z</time>
      </trkpt>
      <trkpt lat="47.31507" lon="-1.63119">
        <ele>46</ele>
        <time>2015-05-10T07:50:24Z</time>
      </trkpt>
      <trkpt lat="47.31511" lon="-1.63113">
        <ele>45.9</ele>
        <time>2015-05-10T07:50:25Z</time>
      </trkpt>
      <trkpt lat="47.31515" lon="-1.63108">
        <ele>45.9</ele>
        <time>2015-05-10T07:50:26Z</time>
      </trkpt>
      <trkpt lat="47.31519" lon="-1.63102">
        <ele>45.8</ele>
        <time>2015-05-10T07:50:27Z</time>
      </trkpt>
      <trkpt lat="47.31524" lon="-1.63097">
        <ele>45.7</ele>
        <time>2015-05-10T07:50:28Z</time>
      </trkpt>
      <trkpt lat="47.31529" lon="-1.63092">
        <ele>45.7</ele>
        <time>2015-05-10T07:50:29Z</time>
      </trkpt>
      <trkpt lat="47.31533" lon="-1.63086">
        <ele>45.6</ele>
        <time>2015-05-10T07:50:30Z</time>
      </trkpt>
      <trkpt lat="47.31537" lon="-1.63082">
        <ele>45.5</ele>
        <time>2015-05-10T07:50:31Z</time>
      </trkpt>
      <trkpt lat="47.31541" lon="-1.63076">
        <ele>45.4</ele>
        <time>2015-05-10T07:50:32Z</time>
      </trkpt>
      <trkpt lat="47.31545" lon="-1.6307">
        <ele>45.2</ele>
        <time>2015-05-10T07:50:33Z</time>
      </trkpt>
      <trkpt lat="47.31549" lon="-1.63064">
        <ele>45</ele>
        <time>2015-05-10T07:50:34Z</time>
      </trkpt>
      <trkpt lat="47.31553" lon="-1.63058">
        <ele>44.8</ele>
        <time>2015-05-10T07:50:35Z</time>
      </trkpt>
      <trkpt lat="47.31556" lon="-1.63052">
        <ele>44.6</ele>
        <time>2015-05-10T07:50:36Z</time>
      </trkpt>
      <trkpt lat="47.31561" lon="-1.63046">
        <ele>44.3</ele>
        <time>2015-05-10T07:50:37Z</time>
      </trkpt>
      <trkpt lat="47.31566" lon="-1.63041">
        <ele>44.1</ele>
        <time>2015-05-10T07:50:38Z</time>
      </trkpt>
      <trkpt lat="47.3157" lon="-1.63035">
        <ele>43.7</ele>
        <time>2015-05-10T07:50:39Z</time>
      </trkpt>
      <trkpt lat="47.31574" lon="-1.63029">
        <ele>43.4</ele>
        <time>2015-05-10T07:50:40Z</time>
      </trkpt>
      <trkpt lat="47.31579" lon="-1.63023">
        <ele>43.1</ele>
        <time>2015-05-10T07:50:41Z</time>
      </trkpt>
      <trkpt lat="47.31585" lon="-1.63018">
        <ele>42.7</ele>
        <time>2015-05-10T07:50:42Z</time>
      </trkpt>
      <trkpt lat="47.3159" lon="-1.63011">
        <ele>42.4</ele>
        <time>2015-05-10T07:50:43Z</time>
      </trkpt>
      <trkpt lat="47.31594" lon="-1.63005">
        <ele>42.2</ele>
        <time>2015-05-10T07:50:44Z</time>
      </trkpt>
      <trkpt lat="47.31599" lon="-1.62998">
        <ele>41.9</ele>
        <time>2015-05-10T07:50:45Z</time>
      </trkpt>
      <trkpt lat="47.31603" lon="-1.62992">
        <ele>41.7</ele>
        <time>2015-05-10T07:50:46Z</time>
      </trkpt>
      <trkpt lat="47.31607" lon="-1.62986">
        <ele>41.6</ele>
        <time>2015-05-10T07:50:47Z</time>
      </trkpt>
      <trkpt lat="47.31611" lon="-1.6298">
        <ele>41.4</ele>
        <time>2015-05-10T07:50:48Z</time>
      </trkpt>
      <trkpt lat="47.31615" lon="-1.62975">
        <ele>41.3</ele>
        <time>2015-05-10T07:50:49Z</time>
      </trkpt>
      <trkpt lat="47.3162" lon="-1.62969">
        <ele>41.2</ele>
        <time>2015-05-10T07:50:50Z</time>
      </trkpt>
      <trkpt lat="47.31624" lon="-1.62963">
        <ele>41.1</ele>
        <time>2015-05-10T07:50:51Z</time>
      </trkpt>
      <trkpt lat="47.31629" lon="-1.62957">
        <ele>40.8</ele>
        <time>2015-05-10T07:50:52Z</time>
      </trkpt>
      <trkpt lat="47.31633" lon="-1.62951">
        <ele>40.4</ele>
        <time>2015-05-10T07:50:53Z</time>
      </trkpt>
      <trkpt lat="47.31638" lon="-1.62945">
        <ele>40.1</ele>
        <time>2015-05-10T07:50:54Z</time>
      </trkpt>
      <trkpt lat="47.31644" lon="-1.62939">
        <ele>39.7</ele>
        <time>2015-05-10T07:50:55Z</time>
      </trkpt>
      <trkpt lat="47.31649" lon="-1.62933">
        <ele>39.3</ele>
        <time>2015-05-10T07:50:56Z</time>
      </trkpt>
      <trkpt lat="47.31654" lon="-1.62926">
        <ele>38.9</ele>
        <time>2015-05-10T07:50:57Z</time>
      </trkpt>
      <trkpt lat="47.3166" lon="-1.62919">
        <ele>38.5</ele>
        <time>2015-05-10T07:50:58Z</time>
      </trkpt>
      <trkpt lat="47.31665" lon="-1.62914">
        <ele>38.2</ele>
        <time>2015-05-10T07:50:59Z</time>
      </trkpt>
      <trkpt lat="47.31671" lon="-1.62907">
        <ele>37.8</ele>
        <time>2015-05-10T07:51:00Z</time>
      </trkpt>
      <trkpt lat="47.31677" lon="-1.62901">
        <ele>37.5</ele>
        <time>2015-05-10T07:51:01Z</time>
      </trkpt>
      <trkpt lat="47.31683" lon="-1.62895">
        <ele>37.2</ele>
        <time>2015-05-10T07:51:02Z</time>
      </trkpt>
      <trkpt lat="47.3169" lon="-1.62889">
        <ele>36.8</ele>
        <time>2015-05-10T07:51:03Z</time>
      </trkpt>
      <trkpt lat="47.31697" lon="-1.62884">
        <ele>36.5</ele>
        <time>2015-05-10T07:51:04Z</time>
      </trkpt>
      <trkpt lat="47.31704" lon="-1.62878">
        <ele>36.2</ele>
        <time>2015-05-10T07:51:05Z</time>
      </trkpt>
      <trkpt lat="47.31711" lon="-1.62871">
        <ele>35.9</ele>
        <time>2015-05-10T07:51:06Z</time>
      </trkpt>
      <trkpt lat="47.31719" lon="-1.62865">
        <ele>35.6</ele>
        <time>2015-05-10T07:51:07Z</time>
      </trkpt>
      <trkpt lat="47.31726" lon="-1.62858">
        <ele>35.3</ele>
        <time>2015-05-10T07:51:08Z</time>
      </trkpt>
      <trkpt lat="47.31734" lon="-1.62851">
        <ele>35</ele>
        <time>2015-05-10T07:51:09Z</time>
      </trkpt>
      <trkpt lat="47.31741" lon="-1.62844">
        <ele>34.7</ele>
        <time>2015-05-10T07:51:10Z</time>
      </trkpt>
      <trkpt lat="47.31749" lon="-1.62837">
        <ele>34.4</ele>
        <time>2015-05-10T07:51:11Z</time>
      </trkpt>
      <trkpt lat="47.31756" lon="-1.6283">
        <ele>34</ele>
        <time>2015-05-10T07:51:12Z</time>
      </trkpt>
      <trkpt lat="47.31764" lon="-1.62824">
        <ele>33.7</ele>
        <time>2015-05-10T07:51:13Z</time>
      </trkpt>
      <trkpt lat="47.3177" lon="-1.62817">
        <ele>33.4</ele>
        <time>2015-05-10T07:51:14Z</time>
      </trkpt>
      <trkpt lat="47.31777" lon="-1.62811">
        <ele>33</ele>
        <time>2015-05-10T07:51:15Z</time>
      </trkpt>
      <trkpt lat="47.31784" lon="-1.62805">
        <ele>32.7</ele>
        <time>2015-05-10T07:51:16Z</time>
      </trkpt>
      <trkpt lat="47.3179" lon="-1.628">
        <ele>32.3</ele>
        <time>2015-05-10T07:51:17Z</time>
      </trkpt>
      <trkpt lat="47.31796" lon="-1.62794">
        <ele>32.1</ele>
        <time>2015-05-10T07:51:18Z</time>
      </trkpt>
      <trkpt lat="47.31802" lon="-1.62788">
        <ele>32</ele>
        <time>2015-05-10T07:51:19Z</time>
      </trkpt>
      <trkpt lat="47.31808" lon="-1.62783">
        <ele>31.9</ele>
        <time>2015-05-10T07:51:20Z</time>
      </trkpt>
      <trkpt lat="47.31814" lon="-1.62778">
        <ele>31.7</ele>
        <time>2015-05-10T07:51:21Z</time>
      </trkpt>
      <trkpt lat="47.3182" lon="-1.62773">
        <ele>31.6</ele>
        <time>2015-05-10T07:51:22Z</time>
      </trkpt>
      <trkpt lat="47.31824" lon="-1.62769">
        <ele>31.5</ele>
        <time>2015-05-10T07:51:23Z</time>
      </trkpt>
      <trkpt lat="47.31829" lon="-1.62764">
        <ele>31.3</ele>
        <time>2015-05-10T07:51:24Z</time>
      </trkpt>
      <trkpt lat="47.31834" lon="-1.62759">
        <ele>31.1</ele>
        <time>2015-05-10T07:51:25Z</time>
      </trkpt>
      <trkpt lat="47.31839" lon="-1.62756">
        <ele>31</ele>
        <time>2015-05-10T07:51:26Z</time>
      </trkpt>
      <trkpt lat="47.31843" lon="-1.62752">
        <ele>30.9</ele>
        <time>2015-05-10T07:51:27Z</time>
      </trkpt>
      <trkpt lat="47.31848" lon="-1.62748">
        <ele>30.7</ele>
        <time>2015-05-10T07:51:28Z</time>
      </trkpt>
      <trkpt lat="47.31853" lon="-1.62743">
        <ele>30.6</ele>
        <time>2015-05-10T07:51:29Z</time>
      </trkpt>
      <trkpt lat="47.31857" lon="-1.62738">
        <ele>30.3</ele>
        <time>2015-05-10T07:51:30Z</time>
      </trkpt>
      <trkpt lat="47.3186" lon="-1.62732">
        <ele>30.1</ele>
        <time>2015-05-10T07:51:31Z</time>
      </trkpt>
      <trkpt lat="47.31865" lon="-1.62726">
        <ele>29.8</ele>
        <time>2015-05-10T07:51:32Z</time>
      </trkpt>
      <trkpt lat="47.31869" lon="-1.6272">
        <ele>29.5</ele>
        <time>2015-05-10T07:51:33Z</time>
      </trkpt>
      <trkpt lat="47.31873" lon="-1.62713">
        <ele>29.2</ele>
        <time>2015-05-10T07:51:34Z</time>
      </trkpt>
      <trkpt lat="47.31876" lon="-1.62704">
        <ele>28.8</ele>
        <time>2015-05-10T07:51:35Z</time>
      </trkpt>
      <trkpt lat="47.31878" lon="-1.62695">
        <ele>28.3</ele>
        <time>2015-05-10T07:51:36Z</time>
      </trkpt>
      <trkpt lat="47.3188" lon="-1.62685">
        <ele>27.7</ele>
        <time>2015-05-10T07:51:37Z</time>
      </trkpt>
      <trkpt lat="47.31881" lon="-1.62674">
        <ele>27.2</ele>
        <time>2015-05-10T07:51:38Z</time>
      </trkpt>
      <trkpt lat="47.31882" lon="-1.62664">
        <ele>26.7</ele>
        <time>2015-05-10T07:51:39Z</time>
      </trkpt>
      <trkpt lat="47.31884" lon="-1.62653">
        <ele>26.1</ele>
        <time>2015-05-10T07:51:40Z</time>
      </trkpt>
      <trkpt lat="47.31884" lon="-1.62642">
        <ele>25.6</ele>
        <time>2015-05-10T07:51:41Z</time>
      </trkpt>
      <trkpt lat="47.31886" lon="-1.62632">
        <ele>25.1</ele>
        <time>2015-05-10T07:51:42Z</time>
      </trkpt>
      <trkpt lat="47.31887" lon="-1.62623">
        <ele>24.7</ele>
        <time>2015-05-10T07:51:43Z</time>
      </trkpt>
      <trkpt lat="47.31888" lon="-1.62613">
        <ele>24.5</ele>
        <time>2015-05-10T07:51:44Z</time>
      </trkpt>
      <trkpt lat="47.31889" lon="-1.62603">
        <ele>24.4</ele>
        <time>2015-05-10T07:51:45Z</time>
      </trkpt>
      <trkpt lat="47.3189" lon="-1.62593">
        <ele>24.3</ele>
        <time>2015-05-10T07:51:46Z</time>
      </trkpt>
      <trkpt lat="47.31891" lon="-1.62584">
        <ele>24.1</ele>
        <time>2015-05-10T07:51:47Z</time>
      </trkpt>
      <trkpt lat="47.31892" lon="-1.62576">
        <ele>24</ele>
        <time>2015-05-10T07:51:48Z</time>
      </trkpt>
      <trkpt lat="47.31893" lon="-1.62567">
        <ele>23.9</ele>
        <time>2015-05-10T07:51:49Z</time>
      </trkpt>
      <trkpt lat="47.31894" lon="-1.62559">
        <ele>23.8</ele>
        <time>2015-05-10T07:51:50Z</time>
      </trkpt>
      <trkpt lat="47.31894" lon="-1.62551">
        <ele>23.6</ele>
        <time>2015-05-10T07:51:51Z</time>
      </trkpt>
      <trkpt lat="47.31895" lon="-1.62543">
        <ele>23.5</ele>
        <time>2015-05-10T07:51:52Z</time>
      </trkpt>
      <trkpt lat="47.31894" lon="-1.62536">
        <ele>23.6</ele>
        <time>2015-05-10T07:51:53Z</time>
      </trkpt>
      <trkpt lat="47.31893" lon="-1.62529">
        <ele>23.7</ele>
        <time>2015-05-10T07:51:54Z</time>
      </trkpt>
      <trkpt lat="47.31892" lon="-1.62522">
        <ele>23.8</ele>
        <time>2015-05-10T07:51:55Z</time>
      </trkpt>
      <trkpt lat="47.3189" lon="-1.62516">
        <ele>24</ele>
        <time>2015-05-10T07:51:56Z</time>
      </trkpt>
      <trkpt lat="47.31888" lon="-1.62511">
        <ele>24.1</ele>
        <time>2015-05-10T07:51:57Z</time>
      </trkpt>
      <trkpt lat="47.31887" lon="-1.62506">
        <ele>24.1</ele>
        <time>2015-05-10T07:51:58Z</time>
      </trkpt>
      <trkpt lat="47.31886" lon="-1.62501">
        <ele>24.2</ele>
        <time>2015-05-10T07:51:59Z</time>
      </trkpt>
      <trkpt lat="47.31885" lon="-1.62495">
        <ele>24.3</ele>
        <time>2015-05-10T07:52:00Z</time>
      </trkpt>
      <trkpt lat="47.31883" lon="-1.6249">
        <ele>24.4</ele>
        <time>2015-05-10T07:52:01Z</time>
      </trkpt>
      <trkpt lat="47.31882" lon="-1.62486">
        <ele>24.5</ele>
        <time>2015-05-10T07:52:02Z</time>
      </trkpt>
      <trkpt lat="47.31881" lon="-1.62482">
        <ele>24.6</ele>
        <time>2015-05-10T07:52:03Z</time>
      </trkpt>
      <trkpt lat="47.3188" lon="-1.62477">
        <ele>24.7</ele>
        <time>2015-05-10T07:52:04Z</time>
      </trkpt>
      <trkpt lat="47.31878" lon="-1.6247">
        <ele>24.8</ele>
        <time>2015-05-10T07:52:06Z</time>
      </trkpt>
      <trkpt lat="47.31878" lon="-1.62465">
        <ele>24.8</ele>
        <time>2015-05-10T07:52:07Z</time>
      </trkpt>
      <trkpt lat="47.31877" lon="-1.6246">
        <ele>24.9</ele>
        <time>2015-05-10T07:52:08Z</time>
      </trkpt>
      <trkpt lat="47.31876" lon="-1.62454">
        <ele>25.2</ele>
        <time>2015-05-10T07:52:09Z</time>
      </trkpt>
      <trkpt lat="47.31875" lon="-1.6245">
        <ele>25.4</ele>
        <time>2015-05-10T07:52:10Z</time>
      </trkpt>
      <trkpt lat="47.31874" lon="-1.62445">
        <ele>25.7</ele>
        <time>2015-05-10T07:52:11Z</time>
      </trkpt>
      <trkpt lat="47.31874" lon="-1.6244">
        <ele>25.9</ele>
        <time>2015-05-10T07:52:12Z</time>
      </trkpt>
      <trkpt lat="47.31873" lon="-1.62435">
        <ele>26.2</ele>
        <time>2015-05-10T07:52:13Z</time>
      </trkpt>
      <trkpt lat="47.31872" lon="-1.6243">
        <ele>26.5</ele>
        <time>2015-05-10T07:52:14Z</time>
      </trkpt>
      <trkpt lat="47.31871" lon="-1.62426">
        <ele>26.7</ele>
        <time>2015-05-10T07:52:15Z</time>
      </trkpt>
      <trkpt lat="47.31871" lon="-1.62418">
        <ele>27.1</ele>
        <time>2015-05-10T07:52:17Z</time>
      </trkpt>
      <trkpt lat="47.31871" lon="-1.62414">
        <ele>27.2</ele>
        <time>2015-05-10T07:52:18Z</time>
      </trkpt>
      <trkpt lat="47.31872" lon="-1.62407">
        <ele>27.5</ele>
        <time>2015-05-10T07:52:20Z</time>
      </trkpt>
      <trkpt lat="47.31872" lon="-1.62402">
        <ele>27.8</ele>
        <time>2015-05-10T07:52:22Z</time>
      </trkpt>
      <trkpt lat="47.3187" lon="-1.62396">
        <ele>28</ele>
        <time>2015-05-10T07:52:25Z</time>
      </trkpt>
      <trkpt lat="47.31869" lon="-1.62393">
        <ele>28.2</ele>
        <time>2015-05-10T07:52:27Z</time>
      </trkpt>
      <trkpt lat="47.31867" lon="-1.62388">
        <ele>28.4</ele>
        <time>2015-05-10T07:52:29Z</time>
      </trkpt>
      <trkpt lat="47.31867" lon="-1.62384">
        <ele>28.6</ele>
        <time>2015-05-10T07:52:31Z</time>
      </trkpt>
      <trkpt lat="47.31866" lon="-1.62378">
        <ele>28.9</ele>
        <time>2015-05-10T07:52:34Z</time>
      </trkpt>
      <trkpt lat="47.31865" lon="-1.62373">
        <ele>29.2</ele>
        <time>2015-05-10T07:52:37Z</time>
      </trkpt>
      <trkpt lat="47.31864" lon="-1.62368">
        <ele>29.6</ele>
        <time>2015-05-10T07:52:41Z</time>
      </trkpt>
      <trkpt lat="47.31862" lon="-1.62364">
        <ele>29.9</ele>
        <time>2015-05-10T07:52:43Z</time>
      </trkpt>
      <trkpt lat="47.31862" lon="-1.6236">
        <ele>30.3</ele>
        <time>2015-05-10T07:52:45Z</time>
      </trkpt>
      <trkpt lat="47.31862" lon="-1.62355">
        <ele>30.6</ele>
        <time>2015-05-10T07:52:47Z</time>
      </trkpt>
      <trkpt lat="47.31862" lon="-1.62351">
        <ele>31</ele>
        <time>2015-05-10T07:52:49Z</time>
      </trkpt>
      <trkpt lat="47.31861" lon="-1.62347">
        <ele>31.3</ele>
        <time>2015-05-10T07:52:51Z</time>
      </trkpt>
      <trkpt lat="47.3186" lon="-1.62342">
        <ele>31.6</ele>
        <time>2015-05-10T07:52:53Z</time>
      </trkpt>
      <trkpt lat="47.31858" lon="-1.62339">
        <ele>31.9</ele>
        <time>2015-05-10T07:52:55Z</time>
      </trkpt>
      <trkpt lat="47.31855" lon="-1.62334">
        <ele>32.1</ele>
        <time>2015-05-10T07:52:56Z</time>
      </trkpt>
      <trkpt lat="47.31853" lon="-1.62329">
        <ele>32.4</ele>
        <time>2015-05-10T07:52:58Z</time>
      </trkpt>
      <trkpt lat="47.31851" lon="-1.62325">
        <ele>32.6</ele>
        <time>2015-05-10T07:53:01Z</time>
      </trkpt>
      <trkpt lat="47.31849" lon="-1.62321">
        <ele>32.8</ele>
        <time>2015-05-10T07:53:03Z</time>
      </trkpt>
      <trkpt lat="47.31848" lon="-1.62316">
        <ele>33.1</ele>
        <time>2015-05-10T07:53:05Z</time>
      </trkpt>
      <trkpt lat="47.31847" lon="-1.6231">
        <ele>33.4</ele>
        <time>2015-05-10T07:53:07Z</time>
      </trkpt>
      <trkpt lat="47.31847" lon="-1.62305">
        <ele>33.7</ele>
        <time>2015-05-10T07:53:09Z</time>
      </trkpt>
      <trkpt lat="47.31846" lon="-1.623">
        <ele>34</ele>
        <time>2015-05-10T07:53:11Z</time>
      </trkpt>
      <trkpt lat="47.31845" lon="-1.62294">
        <ele>34.3</ele>
        <time>2015-05-10T07:53:13Z</time>
      </trkpt>
      <trkpt lat="47.31842" lon="-1.62287">
        <ele>34.3</ele>
        <time>2015-05-10T07:53:15Z</time>
      </trkpt>
      <trkpt lat="47.31841" lon="-1.62281">
        <ele>34.2</ele>
        <time>2015-05-10T07:53:17Z</time>
      </trkpt>
      <trkpt lat="47.31839" lon="-1.62277">
        <ele>34.1</ele>
        <time>2015-05-10T07:53:19Z</time>
      </trkpt>
      <trkpt lat="47.31839" lon="-1.62271">
        <ele>34.1</ele>
        <time>2015-05-10T07:53:21Z</time>
      </trkpt>
      <trkpt lat="47.31836" lon="-1.62265">
        <ele>33.9</ele>
        <time>2015-05-10T07:53:23Z</time>
      </trkpt>
      <trkpt lat="47.31835" lon="-1.62261">
        <ele>33.8</ele>
        <time>2015-05-10T07:53:24Z</time>
      </trkpt>
      <trkpt lat="47.31833" lon="-1.62254">
        <ele>33.7</ele>
        <time>2015-05-10T07:53:26Z</time>
      </trkpt>
      <trkpt lat="47.31832" lon="-1.62248">
        <ele>33.6</ele>
        <time>2015-05-10T07:53:27Z</time>
      </trkpt>
      <trkpt lat="47.3183" lon="-1.62242">
        <ele>33.5</ele>
        <time>2015-05-10T07:53:28Z</time>
      </trkpt>
      <trkpt lat="47.31828" lon="-1.62238">
        <ele>33.3</ele>
        <time>2015-05-10T07:53:29Z</time>
      </trkpt>
      <trkpt lat="47.31826" lon="-1.62231">
        <ele>33.2</ele>
        <time>2015-05-10T07:53:31Z</time>
      </trkpt>
      <trkpt lat="47.31824" lon="-1.62226">
        <ele>33</ele>
        <time>2015-05-10T07:53:32Z</time>
      </trkpt>
      <trkpt lat="47.31823" lon="-1.62221">
        <ele>32.9</ele>
        <time>2015-05-10T07:53:33Z</time>
      </trkpt>
      <trkpt lat="47.31821" lon="-1.62214">
        <ele>32.7</ele>
        <time>2015-05-10T07:53:35Z</time>
      </trkpt>
      <trkpt lat="47.31819" lon="-1.62208">
        <ele>32.6</ele>
        <time>2015-05-10T07:53:37Z</time>
      </trkpt>
      <trkpt lat="47.31818" lon="-1.622">
        <ele>32.5</ele>
        <time>2015-05-10T07:53:39Z</time>
      </trkpt>
      <trkpt lat="47.31817" lon="-1.62196">
        <ele>32.4</ele>
        <time>2015-05-10T07:53:40Z</time>
      </trkpt>
      <trkpt lat="47.31816" lon="-1.62192">
        <ele>32.3</ele>
        <time>2015-05-10T07:53:41Z</time>
      </trkpt>
      <trkpt lat="47.31816" lon="-1.62188">
        <ele>32.2</ele>
        <time>2015-05-10T07:53:42Z</time>
      </trkpt>
      <trkpt lat="47.31814" lon="-1.62184">
        <ele>32</ele>
        <time>2015-05-10T07:53:43Z</time>
      </trkpt>
      <trkpt lat="47.31812" lon="-1.6218">
        <ele>31.8</ele>
        <time>2015-05-10T07:53:44Z</time>
      </trkpt>
      <trkpt lat="47.31811" lon="-1.62176">
        <ele>31.6</ele>
        <time>2015-05-10T07:53:45Z</time>
      </trkpt>
      <trkpt lat="47.3181" lon="-1.6217">
        <ele>31.5</ele>
        <time>2015-05-10T07:53:46Z</time>
      </trkpt>
      <trkpt lat="47.3181" lon="-1.62165">
        <ele>31.4</ele>
        <time>2015-05-10T07:53:47Z</time>
      </trkpt>
      <trkpt lat="47.31809" lon="-1.6216">
        <ele>31.3</ele>
        <time>2015-05-10T07:53:48Z</time>
      </trkpt>
      <trkpt lat="47.31808" lon="-1.62155">
        <ele>31.2</ele>
        <time>2015-05-10T07:53:49Z</time>
      </trkpt>
      <trkpt lat="47.31808" lon="-1.62149">
        <ele>31.1</ele>
        <time>2015-05-10T07:53:50Z</time>
      </trkpt>
      <trkpt lat="47.31805" lon="-1.62142">
        <ele>30.8</ele>
        <time>2015-05-10T07:53:51Z</time>
      </trkpt>
      <trkpt lat="47.31804" lon="-1.62136">
        <ele>30.6</ele>
        <time>2015-05-10T07:53:52Z</time>
      </trkpt>
      <trkpt lat="47.31802" lon="-1.6213">
        <ele>30.3</ele>
        <time>2015-05-10T07:53:53Z</time>
      </trkpt>
      <trkpt lat="47.318" lon="-1.62123">
        <ele>30</ele>
        <time>2015-05-10T07:53:54Z</time>
      </trkpt>
      <trkpt lat="47.31797" lon="-1.62116">
        <ele>29.5</ele>
        <time>2015-05-10T07:53:55Z</time>
      </trkpt>
      <trkpt lat="47.31796" lon="-1.6211">
        <ele>29.3</ele>
        <time>2015-05-10T07:53:56Z</time>
      </trkpt>
      <trkpt lat="47.31796" lon="-1.62102">
        <ele>29.2</ele>
        <time>2015-05-10T07:53:57Z</time>
      </trkpt>
      <trkpt lat="47.31797" lon="-1.62095">
        <ele>29.2</ele>
        <time>2015-05-10T07:53:58Z</time>
      </trkpt>
      <trkpt lat="47.318" lon="-1.62091">
        <ele>29.5</ele>
        <time>2015-05-10T07:53:59Z</time>
      </trkpt>
      <trkpt lat="47.31802" lon="-1.62087">
        <ele>29.8</ele>
        <time>2015-05-10T07:54:00Z</time>
      </trkpt>
      <trkpt lat="47.31806" lon="-1.62083">
        <ele>30.1</ele>
        <time>2015-05-10T07:54:01Z</time>
      </trkpt>
      <trkpt lat="47.31809" lon="-1.6208">
        <ele>30.4</ele>
        <time>2015-05-10T07:54:02Z</time>
      </trkpt>
      <trkpt lat="47.31813" lon="-1.62076">
        <ele>30.8</ele>
        <time>2015-05-10T07:54:03Z</time>
      </trkpt>
      <trkpt lat="47.31816" lon="-1.62074">
        <ele>31.1</ele>
        <time>2015-05-10T07:54:04Z</time>
      </trkpt>
      <trkpt lat="47.31819" lon="-1.62072">
        <ele>31.4</ele>
        <time>2015-05-10T07:54:05Z</time>
      </trkpt>
      <trkpt lat="47.31822" lon="-1.62071">
        <ele>31.8</ele>
        <time>2015-05-10T07:54:06Z</time>
      </trkpt>
      <trkpt lat="47.31825" lon="-1.6207">
        <ele>32.1</ele>
        <time>2015-05-10T07:54:07Z</time>
      </trkpt>
      <trkpt lat="47.31829" lon="-1.62069">
        <ele>32.5</ele>
        <time>2015-05-10T07:54:08Z</time>
      </trkpt>
      <trkpt lat="47.31831" lon="-1.62074">
        <ele>32.8</ele>
        <time>2015-05-10T07:54:10Z</time>
      </trkpt>
      <trkpt lat="47.31832" lon="-1.62078">
        <ele>33</ele>
        <time>2015-05-10T07:54:12Z</time>
      </trkpt>
      <trkpt lat="47.31834" lon="-1.62083">
        <ele>33.4</ele>
        <time>2015-05-10T07:54:15Z</time>
      </trkpt>
      <trkpt lat="47.31839" lon="-1.62082">
        <ele>33.9</ele>
        <time>2015-05-10T07:54:18Z</time>
      </trkpt>
      <trkpt lat="47.31842" lon="-1.6208">
        <ele>34.1</ele>
        <time>2015-05-10T07:54:21Z</time>
      </trkpt>
      <trkpt lat="47.3184" lon="-1.62074">
        <ele>33.9</ele>
        <time>2015-05-10T07:54:23Z</time>
      </trkpt>
      <trkpt lat="47.31839" lon="-1.6207">
        <ele>33.7</ele>
        <time>2015-05-10T07:54:24Z</time>
      </trkpt>
      <trkpt lat="47.31838" lon="-1.62065">
        <ele>33.4</ele>
        <time>2015-05-10T07:54:26Z</time>
      </trkpt>
      <trkpt lat="47.3184" lon="-1.62062">
        <ele>33.5</ele>
        <time>2015-05-10T07:54:28Z</time>
      </trkpt>
      <trkpt lat="47.31842" lon="-1.62059">
        <ele>33.8</ele>
        <time>2015-05-10T07:54:30Z</time>
      </trkpt>
      <trkpt lat="47.31845" lon="-1.62061">
        <ele>34.1</ele>
        <time>2015-05-10T07:54:32Z</time>
      </trkpt>
      <trkpt lat="47.31846" lon="-1.62068">
        <ele>34.4</ele>
        <time>2015-05-10T07:54:35Z</time>
      </trkpt>
      <trkpt lat="47.31847" lon="-1.62072">
        <ele>34.5</ele>
        <time>2015-05-10T07:54:37Z</time>
      </trkpt>
      <trkpt lat="47.3185" lon="-1.62075">
        <ele>34.9</ele>
        <time>2015-05-10T07:54:41Z</time>
      </trkpt>
      <trkpt lat="47.31853" lon="-1.62074">
        <ele>35.3</ele>
        <time>2015-05-10T07:54:45Z</time>
      </trkpt>
      <trkpt lat="47.31853" lon="-1.62068">
        <ele>35.2</ele>
        <time>2015-05-10T07:54:49Z</time>
      </trkpt>
      <trkpt lat="47.31851" lon="-1.62061">
        <ele>34.8</ele>
        <time>2015-05-10T07:54:51Z</time>
      </trkpt>
      <trkpt lat="47.31848" lon="-1.62058">
        <ele>34.5</ele>
        <time>2015-05-10T07:54:55Z</time>
      </trkpt>
      <trkpt lat="47.31852" lon="-1.62055">
        <ele>34.8</ele>
        <time>2015-05-10T07:54:58Z</time>
      </trkpt>
      <trkpt lat="47.31856" lon="-1.62053">
        <ele>35.1</ele>
        <time>2015-05-10T07:54:59Z</time>
      </trkpt>
      <trkpt lat="47.31858" lon="-1.62052">
        <ele>35.4</ele>
        <time>2015-05-10T07:55:00Z</time>
      </trkpt>
      <trkpt lat="47.31864" lon="-1.62053">
        <ele>36</ele>
        <time>2015-05-10T07:55:02Z</time>
      </trkpt>
      <trkpt lat="47.31867" lon="-1.62052">
        <ele>36.4</ele>
        <time>2015-05-10T07:55:03Z</time>
      </trkpt>
      <trkpt lat="47.31871" lon="-1.62052">
        <ele>36.8</ele>
        <time>2015-05-10T07:55:04Z</time>
      </trkpt>
      <trkpt lat="47.31875" lon="-1.62049">
        <ele>37.1</ele>
        <time>2015-05-10T07:55:05Z</time>
      </trkpt>
      <trkpt lat="47.31879" lon="-1.62048">
        <ele>36.9</ele>
        <time>2015-05-10T07:55:06Z</time>
      </trkpt>
      <trkpt lat="47.31883" lon="-1.62048">
        <ele>36.7</ele>
        <time>2015-05-10T07:55:07Z</time>
      </trkpt>
      <trkpt lat="47.31887" lon="-1.62047">
        <ele>36.4</ele>
        <time>2015-05-10T07:55:08Z</time>
      </trkpt>
      <trkpt lat="47.31891" lon="-1.62047">
        <ele>36.2</ele>
        <time>2015-05-10T07:55:09Z</time>
      </trkpt>
      <trkpt lat="47.31895" lon="-1.62046">
        <ele>36</ele>
        <time>2015-05-10T07:55:10Z</time>
      </trkpt>
      <trkpt lat="47.31899" lon="-1.62046">
        <ele>35.7</ele>
        <time>2015-05-10T07:55:11Z</time>
      </trkpt>
      <trkpt lat="47.31902" lon="-1.62046">
        <ele>35.5</ele>
        <time>2015-05-10T07:55:12Z</time>
      </trkpt>
      <trkpt lat="47.31904" lon="-1.62048">
        <ele>35.5</ele>
        <time>2015-05-10T07:55:13Z</time>
      </trkpt>
      <trkpt lat="47.31906" lon="-1.62053">
        <ele>35.6</ele>
        <time>2015-05-10T07:55:15Z</time>
      </trkpt>
      <trkpt lat="47.31908" lon="-1.62056">
        <ele>35.6</ele>
        <time>2015-05-10T07:55:16Z</time>
      </trkpt>
      <trkpt lat="47.31912" lon="-1.62062">
        <ele>35.6</ele>
        <time>2015-05-10T07:55:18Z</time>
      </trkpt>
      <trkpt lat="47.31914" lon="-1.62065">
        <ele>35.6</ele>
        <time>2015-05-10T07:55:19Z</time>
      </trkpt>
      <trkpt lat="47.31915" lon="-1.6207">
        <ele>35.8</ele>
        <time>2015-05-10T07:55:20Z</time>
      </trkpt>
      <trkpt lat="47.31915" lon="-1.62074">
        <ele>35.9</ele>
        <time>2015-05-10T07:55:21Z</time>
      </trkpt>
      <trkpt lat="47.31917" lon="-1.62078">
        <ele>36</ele>
        <time>2015-05-10T07:55:22Z</time>
      </trkpt>
      <trkpt lat="47.31917" lon="-1.62082">
        <ele>36.2</ele>
        <time>2015-05-10T07:55:23Z</time>
      </trkpt>
      <trkpt lat="47.31917" lon="-1.62089">
        <ele>36.5</ele>
        <time>2015-05-10T07:55:25Z</time>
      </trkpt>
      <trkpt lat="47.31919" lon="-1.62094">
        <ele>36.6</ele>
        <time>2015-05-10T07:55:27Z</time>
      </trkpt>
      <trkpt lat="47.3192" lon="-1.62099">
        <ele>36.8</ele>
        <time>2015-05-10T07:55:29Z</time>
      </trkpt>
      <trkpt lat="47.3192" lon="-1.62107">
        <ele>37.1</ele>
        <time>2015-05-10T07:55:31Z</time>
      </trkpt>
      <trkpt lat="47.3192" lon="-1.62113">
        <ele>37.4</ele>
        <time>2015-05-10T07:55:33Z</time>
      </trkpt>
      <trkpt lat="47.31924" lon="-1.62118">
        <ele>37.5</ele>
        <time>2015-05-10T07:55:35Z</time>
      </trkpt>
      <trkpt lat="47.31924" lon="-1.62123">
        <ele>37.7</ele>
        <time>2015-05-10T07:55:37Z</time>
      </trkpt>
      <trkpt lat="47.31926" lon="-1.62127">
        <ele>37.8</ele>
        <time>2015-05-10T07:55:39Z</time>
      </trkpt>
      <trkpt lat="47.31928" lon="-1.62132">
        <ele>37.9</ele>
        <time>2015-05-10T07:55:41Z</time>
      </trkpt>
      <trkpt lat="47.31929" lon="-1.62139">
        <ele>38.1</ele>
        <time>2015-05-10T07:55:43Z</time>
      </trkpt>
      <trkpt lat="47.31933" lon="-1.62173">
        <ele>39</ele>
        <time>2015-05-10T07:55:54Z</time>
      </trkpt>
      <trkpt lat="47.31932" lon="-1.62179">
        <ele>39.2</ele>
        <time>2015-05-10T07:55:56Z</time>
      </trkpt>
      <trkpt lat="47.31931" lon="-1.62183">
        <ele>39.3</ele>
        <time>2015-05-10T07:55:58Z</time>
      </trkpt>
      <trkpt lat="47.31932" lon="-1.62187">
        <ele>39.4</ele>
        <time>2015-05-10T07:56:02Z</time>
      </trkpt>
      <trkpt lat="47.3193" lon="-1.62189">
        <ele>39.4</ele>
        <time>2015-05-10T07:56:10Z</time>
      </trkpt>
      <trkpt lat="47.31929" lon="-1.62193">
        <ele>39.5</ele>
        <time>2015-05-10T07:56:11Z</time>
      </trkpt>
      <trkpt lat="47.31926" lon="-1.62193">
        <ele>39.4</ele>
        <time>2015-05-10T07:56:14Z</time>
      </trkpt>
      <trkpt lat="47.31924" lon="-1.62188">
        <ele>39.3</ele>
        <time>2015-05-10T07:56:17Z</time>
      </trkpt>
      <trkpt lat="47.31923" lon="-1.62182">
        <ele>39.1</ele>
        <time>2015-05-10T07:56:20Z</time>
      </trkpt>
      <trkpt lat="47.31921" lon="-1.62177">
        <ele>39</ele>
        <time>2015-05-10T07:56:22Z</time>
      </trkpt>
      <trkpt lat="47.31918" lon="-1.62173">
        <ele>38.9</ele>
        <time>2015-05-10T07:56:24Z</time>
      </trkpt>
      <trkpt lat="47.31916" lon="-1.62169">
        <ele>38.8</ele>
        <time>2015-05-10T07:56:26Z</time>
      </trkpt>
      <trkpt lat="47.31913" lon="-1.62164">
        <ele>38.7</ele>
        <time>2015-05-10T07:56:28Z</time>
      </trkpt>
      <trkpt lat="47.31911" lon="-1.62157">
        <ele>38.6</ele>
        <time>2015-05-10T07:56:30Z</time>
      </trkpt>
      <trkpt lat="47.31909" lon="-1.62154">
        <ele>38.5</ele>
        <time>2015-05-10T07:56:31Z</time>
      </trkpt>
      <trkpt lat="47.31907" lon="-1.6215">
        <ele>38.5</ele>
        <time>2015-05-10T07:56:32Z</time>
      </trkpt>
      <trkpt lat="47.31907" lon="-1.62144">
        <ele>38.4</ele>
        <time>2015-05-10T07:56:34Z</time>
      </trkpt>
      <trkpt lat="47.31905" lon="-1.62139">
        <ele>38.4</ele>
        <time>2015-05-10T07:56:36Z</time>
      </trkpt>
      <trkpt lat="47.31902" lon="-1.62136">
        <ele>38.4</ele>
        <time>2015-05-10T07:56:38Z</time>
      </trkpt>
      <trkpt lat="47.319" lon="-1.62131">
        <ele>38.4</ele>
        <time>2015-05-10T07:56:40Z</time>
      </trkpt>
      <trkpt lat="47.31898" lon="-1.62128">
        <ele>38.5</ele>
        <time>2015-05-10T07:56:42Z</time>
      </trkpt>
      <trkpt lat="47.31896" lon="-1.62132">
        <ele>38.5</ele>
        <time>2015-05-10T07:56:53Z</time>
      </trkpt>
      <trkpt lat="47.31893" lon="-1.62131">
        <ele>38.6</ele>
        <time>2015-05-10T07:56:56Z</time>
      </trkpt>
      <trkpt lat="47.3189" lon="-1.6213">
        <ele>38.6</ele>
        <time>2015-05-10T07:56:59Z</time>
      </trkpt>
      <trkpt lat="47.31887" lon="-1.62127">
        <ele>38.7</ele>
        <time>2015-05-10T07:57:02Z</time>
      </trkpt>
      <trkpt lat="47.31873" lon="-1.62188">
        <ele>38</ele>
        <time>2015-05-10T07:57:50Z</time>
      </trkpt>
      <trkpt lat="47.31872" lon="-1.62194">
        <ele>37.8</ele>
        <time>2015-05-10T07:57:52Z</time>
      </trkpt>
      <trkpt lat="47.31871" lon="-1.62199">
        <ele>37.7</ele>
        <time>2015-05-10T07:57:54Z</time>
      </trkpt>
      <trkpt lat="47.31872" lon="-1.62204">
        <ele>37.7</ele>
        <time>2015-05-10T07:57:56Z</time>
      </trkpt>
      <trkpt lat="47.31874" lon="-1.62208">
        <ele>37.9</ele>
        <time>2015-05-10T07:57:59Z</time>
      </trkpt>
      <trkpt lat="47.31877" lon="-1.62213">
        <ele>38</ele>
        <time>2015-05-10T07:58:02Z</time>
      </trkpt>
      <trkpt lat="47.31879" lon="-1.62218">
        <ele>38</ele>
        <time>2015-05-10T07:58:04Z</time>
      </trkpt>
      <trkpt lat="47.3188" lon="-1.62222">
        <ele>38</ele>
        <time>2015-05-10T07:58:05Z</time>
      </trkpt>
      <trkpt lat="47.31883" lon="-1.62227">
        <ele>38</ele>
        <time>2015-05-10T07:58:07Z</time>
      </trkpt>
      <trkpt lat="47.31887" lon="-1.62231">
        <ele>38.1</ele>
        <time>2015-05-10T07:58:09Z</time>
      </trkpt>
      <trkpt lat="47.31889" lon="-1.62236">
        <ele>38.1</ele>
        <time>2015-05-10T07:58:11Z</time>
      </trkpt>
      <trkpt lat="47.3189" lon="-1.62243">
        <ele>38.1</ele>
        <time>2015-05-10T07:58:13Z</time>
      </trkpt>
      <trkpt lat="47.31891" lon="-1.62248">
        <ele>38</ele>
        <time>2015-05-10T07:58:14Z</time>
      </trkpt>
      <trkpt lat="47.31892" lon="-1.62252">
        <ele>38</ele>
        <time>2015-05-10T07:58:15Z</time>
      </trkpt>
      <trkpt lat="47.31893" lon="-1.62258">
        <ele>37.9</ele>
        <time>2015-05-10T07:58:17Z</time>
      </trkpt>
      <trkpt lat="47.31893" lon="-1.62263">
        <ele>37.8</ele>
        <time>2015-05-10T07:58:18Z</time>
      </trkpt>
      <trkpt lat="47.31892" lon="-1.6227">
        <ele>37.7</ele>
        <time>2015-05-10T07:58:20Z</time>
      </trkpt>
      <trkpt lat="47.31893" lon="-1.62276">
        <ele>37.7</ele>
        <time>2015-05-10T07:58:21Z</time>
      </trkpt>
      <trkpt lat="47.31891" lon="-1.62281">
        <ele>37.5</ele>
        <time>2015-05-10T07:58:23Z</time>
      </trkpt>
      <trkpt lat="47.31889" lon="-1.62289">
        <ele>37.4</ele>
        <time>2015-05-10T07:58:25Z</time>
      </trkpt>
      <trkpt lat="47.31884" lon="-1.62294">
        <ele>37</ele>
        <time>2015-05-10T07:58:26Z</time>
      </trkpt>
      <trkpt lat="47.31878" lon="-1.623">
        <ele>36.2</ele>
        <time>2015-05-10T07:58:27Z</time>
      </trkpt>
      <trkpt lat="47.31878" lon="-1.62306">
        <ele>35.7</ele>
        <time>2015-05-10T07:58:29Z</time>
      </trkpt>
      <trkpt lat="47.31876" lon="-1.62312">
        <ele>35.1</ele>
        <time>2015-05-10T07:58:32Z</time>
      </trkpt>
      <trkpt lat="47.31875" lon="-1.62317">
        <ele>34.6</ele>
        <time>2015-05-10T07:58:34Z</time>
      </trkpt>
      <trkpt lat="47.31875" lon="-1.62321">
        <ele>34.2</ele>
        <time>2015-05-10T07:58:36Z</time>
      </trkpt>
      <trkpt lat="47.31875" lon="-1.62329">
        <ele>33.4</ele>
        <time>2015-05-10T07:58:38Z</time>
      </trkpt>
      <trkpt lat="47.31875" lon="-1.62334">
        <ele>32.9</ele>
        <time>2015-05-10T07:58:39Z</time>
      </trkpt>
      <trkpt lat="47.31876" lon="-1.62341">
        <ele>32.3</ele>
        <time>2015-05-10T07:58:40Z</time>
      </trkpt>
      <trkpt lat="47.31876" lon="-1.62345">
        <ele>31.9</ele>
        <time>2015-05-10T07:58:41Z</time>
      </trkpt>
      <trkpt lat="47.31876" lon="-1.62349">
        <ele>31.5</ele>
        <time>2015-05-10T07:58:42Z</time>
      </trkpt>
      <trkpt lat="47.31877" lon="-1.62353">
        <ele>31.1</ele>
        <time>2015-05-10T07:58:43Z</time>
      </trkpt>
      <trkpt lat="47.3188" lon="-1.62356">
        <ele>30.8</ele>
        <time>2015-05-10T07:58:45Z</time>
      </trkpt>
      <trkpt lat="47.31879" lon="-1.62362">
        <ele>30.3</ele>
        <time>2015-05-10T07:58:49Z</time>
      </trkpt>
      <trkpt lat="47.3188" lon="-1.62368">
        <ele>29.6</ele>
        <time>2015-05-10T07:58:52Z</time>
      </trkpt>
      <trkpt lat="47.31878" lon="-1.62373">
        <ele>29.2</ele>
        <time>2015-05-10T07:58:55Z</time>
      </trkpt>
      <trkpt lat="47.31893" lon="-1.62365">
        <ele>29.8</ele>
        <time>2015-05-10T07:59:08Z</time>
      </trkpt>
      <trkpt lat="47.31895" lon="-1.62362">
        <ele>30.1</ele>
        <time>2015-05-10T07:59:10Z</time>
      </trkpt>
      <trkpt lat="47.31895" lon="-1.62358">
        <ele>30.6</ele>
        <time>2015-05-10T07:59:14Z</time>
      </trkpt>
      <trkpt lat="47.31894" lon="-1.62353">
        <ele>31</ele>
        <time>2015-05-10T07:59:17Z</time>
      </trkpt>
      <trkpt lat="47.31893" lon="-1.62349">
        <ele>31.5</ele>
        <time>2015-05-10T07:59:20Z</time>
      </trkpt>
      <trkpt lat="47.31894" lon="-1.62344">
        <ele>32</ele>
        <time>2015-05-10T07:59:23Z</time>
      </trkpt>
      <trkpt lat="47.31897" lon="-1.62343">
        <ele>32.1</ele>
        <time>2015-05-10T07:59:25Z</time>
      </trkpt>
      <trkpt lat="47.31899" lon="-1.62346">
        <ele>31.8</ele>
        <time>2015-05-10T07:59:28Z</time>
      </trkpt>
      <trkpt lat="47.31901" lon="-1.6235">
        <ele>31.3</ele>
        <time>2015-05-10T07:59:30Z</time>
      </trkpt>
      <trkpt lat="47.31905" lon="-1.62352">
        <ele>31.1</ele>
        <time>2015-05-10T07:59:33Z</time>
      </trkpt>
      <trkpt lat="47.31909" lon="-1.62352">
        <ele>31.2</ele>
        <time>2015-05-10T07:59:35Z</time>
      </trkpt>
      <trkpt lat="47.31912" lon="-1.62352">
        <ele>31.2</ele>
        <time>2015-05-10T07:59:37Z</time>
      </trkpt>
      <trkpt lat="47.31914" lon="-1.62349">
        <ele>31.5</ele>
        <time>2015-05-10T07:59:40Z</time>
      </trkpt>
      <trkpt lat="47.3193" lon="-1.62306">
        <ele>36.7</ele>
        <time>2015-05-10T08:00:02Z</time>
      </trkpt>
      <trkpt lat="47.31934" lon="-1.62304">
        <ele>36.9</ele>
        <time>2015-05-10T08:00:03Z</time>
      </trkpt>
      <trkpt lat="47.31936" lon="-1.62302">
        <ele>37.2</ele>
        <time>2015-05-10T08:00:04Z</time>
      </trkpt>
      <trkpt lat="47.3194" lon="-1.62298">
        <ele>37.8</ele>
        <time>2015-05-10T08:00:06Z</time>
      </trkpt>
      <trkpt lat="47.31944" lon="-1.62297">
        <ele>38</ele>
        <time>2015-05-10T08:00:08Z</time>
      </trkpt>
      <trkpt lat="47.31945" lon="-1.62303">
        <ele>37.2</ele>
        <time>2015-05-10T08:00:11Z</time>
      </trkpt>
      <trkpt lat="47.31947" lon="-1.62308">
        <ele>36.7</ele>
        <time>2015-05-10T08:00:13Z</time>
      </trkpt>
      <trkpt lat="47.31951" lon="-1.62309">
        <ele>36.5</ele>
        <time>2015-05-10T08:00:15Z</time>
      </trkpt>
      <trkpt lat="47.31954" lon="-1.62312">
        <ele>36.3</ele>
        <time>2015-05-10T08:00:16Z</time>
      </trkpt>
      <trkpt lat="47.31957" lon="-1.62315">
        <ele>35.9</ele>
        <time>2015-05-10T08:00:17Z</time>
      </trkpt>
      <trkpt lat="47.31971" lon="-1.62312">
        <ele>34.4</ele>
        <time>2015-05-10T08:00:21Z</time>
      </trkpt>
      <trkpt lat="47.31976" lon="-1.62316">
        <ele>33.1</ele>
        <time>2015-05-10T08:00:23Z</time>
      </trkpt>
      <trkpt lat="47.31978" lon="-1.62321">
        <ele>32.2</ele>
        <time>2015-05-10T08:00:24Z</time>
      </trkpt>
      <trkpt lat="47.31982" lon="-1.62324">
        <ele>31.3</ele>
        <time>2015-05-10T08:00:25Z</time>
      </trkpt>
      <trkpt lat="47.31988" lon="-1.62324">
        <ele>30.5</ele>
        <time>2015-05-10T08:00:26Z</time>
      </trkpt>
      <trkpt lat="47.31993" lon="-1.62328">
        <ele>29.4</ele>
        <time>2015-05-10T08:00:27Z</time>
      </trkpt>
      <trkpt lat="47.31996" lon="-1.62334">
        <ele>28.5</ele>
        <time>2015-05-10T08:00:28Z</time>
      </trkpt>
      <trkpt lat="47.31997" lon="-1.62339">
        <ele>27.9</ele>
        <time>2015-05-10T08:00:29Z</time>
      </trkpt>
      <trkpt lat="47.31999" lon="-1.62346">
        <ele>27.2</ele>
        <time>2015-05-10T08:00:30Z</time>
      </trkpt>
      <trkpt lat="47.32001" lon="-1.62351">
        <ele>26.6</ele>
        <time>2015-05-10T08:00:31Z</time>
      </trkpt>
      <trkpt lat="47.32003" lon="-1.62357">
        <ele>26</ele>
        <time>2015-05-10T08:00:32Z</time>
      </trkpt>
      <trkpt lat="47.32005" lon="-1.62362">
        <ele>25.5</ele>
        <time>2015-05-10T08:00:33Z</time>
      </trkpt>
      <trkpt lat="47.32007" lon="-1.62367">
        <ele>25</ele>
        <time>2015-05-10T08:00:34Z</time>
      </trkpt>
      <trkpt lat="47.32008" lon="-1.62372">
        <ele>24.6</ele>
        <time>2015-05-10T08:00:35Z</time>
      </trkpt>
      <trkpt lat="47.3201" lon="-1.62376">
        <ele>24.2</ele>
        <time>2015-05-10T08:00:36Z</time>
      </trkpt>
      <trkpt lat="47.32013" lon="-1.6238">
        <ele>24</ele>
        <time>2015-05-10T08:00:37Z</time>
      </trkpt>
      <trkpt lat="47.32015" lon="-1.62384">
        <ele>23.7</ele>
        <time>2015-05-10T08:00:38Z</time>
      </trkpt>
      <trkpt lat="47.32018" lon="-1.62386">
        <ele>23.5</ele>
        <time>2015-05-10T08:00:39Z</time>
      </trkpt>
      <trkpt lat="47.32021" lon="-1.62387">
        <ele>23.3</ele>
        <time>2015-05-10T08:00:40Z</time>
      </trkpt>
      <trkpt lat="47.32026" lon="-1.62388">
        <ele>23</ele>
        <time>2015-05-10T08:00:41Z</time>
      </trkpt>
      <trkpt lat="47.32029" lon="-1.62388">
        <ele>22.8</ele>
        <time>2015-05-10T08:00:42Z</time>
      </trkpt>
      <trkpt lat="47.32033" lon="-1.62387">
        <ele>22.6</ele>
        <time>2015-05-10T08:00:43Z</time>
      </trkpt>
      <trkpt lat="47.32036" lon="-1.62387">
        <ele>22.3</ele>
        <time>2015-05-10T08:00:44Z</time>
      </trkpt>
      <trkpt lat="47.3204" lon="-1.62388">
        <ele>22.1</ele>
        <time>2015-05-10T08:00:45Z</time>
      </trkpt>
      <trkpt lat="47.32043" lon="-1.62387">
        <ele>22</ele>
        <time>2015-05-10T08:00:46Z</time>
      </trkpt>
      <trkpt lat="47.32048" lon="-1.62386">
        <ele>22</ele>
        <time>2015-05-10T08:00:47Z</time>
      </trkpt>
      <trkpt lat="47.32052" lon="-1.62385">
        <ele>22</ele>
        <time>2015-05-10T08:00:48Z</time>
      </trkpt>
      <trkpt lat="47.32056" lon="-1.62383">
        <ele>22</ele>
        <time>2015-05-10T08:00:49Z</time>
      </trkpt>
      <trkpt lat="47.32061" lon="-1.62381">
        <ele>22</ele>
        <time>2015-05-10T08:00:50Z</time>
      </trkpt>
      <trkpt lat="47.32065" lon="-1.62379">
        <ele>22</ele>
        <time>2015-05-10T08:00:51Z</time>
      </trkpt>
      <trkpt lat="47.32069" lon="-1.62377">
        <ele>22</ele>
        <time>2015-05-10T08:00:52Z</time>
      </trkpt>
      <trkpt lat="47.32072" lon="-1.62376">
        <ele>22</ele>
        <time>2015-05-10T08:00:53Z</time>
      </trkpt>
      <trkpt lat="47.32075" lon="-1.62376">
        <ele>22</ele>
        <time>2015-05-10T08:00:54Z</time>
      </trkpt>
      <trkpt lat="47.32078" lon="-1.62375">
        <ele>22</ele>
        <time>2015-05-10T08:00:55Z</time>
      </trkpt>
      <trkpt lat="47.32083" lon="-1.62373">
        <ele>22</ele>
        <time>2015-05-10T08:00:57Z</time>
      </trkpt>
      <trkpt lat="47.32086" lon="-1.62371">
        <ele>22</ele>
        <time>2015-05-10T08:00:59Z</time>
      </trkpt>
      <trkpt lat="47.32091" lon="-1.62367">
        <ele>21.9</ele>
        <time>2015-05-10T08:01:13Z</time>
      </trkpt>
      <trkpt lat="47.32094" lon="-1.62366">
        <ele>21.9</ele>
        <time>2015-05-10T08:01:15Z</time>
      </trkpt>
      <trkpt lat="47.32097" lon="-1.62366">
        <ele>21.9</ele>
        <time>2015-05-10T08:01:17Z</time>
      </trkpt>
      <trkpt lat="47.321" lon="-1.62363">
        <ele>21.8</ele>
        <time>2015-05-10T08:01:19Z</time>
      </trkpt>
      <trkpt lat="47.32104" lon="-1.62362">
        <ele>21.8</ele>
        <time>2015-05-10T08:01:21Z</time>
      </trkpt>
      <trkpt lat="47.32107" lon="-1.6236">
        <ele>21.8</ele>
        <time>2015-05-10T08:01:22Z</time>
      </trkpt>
      <trkpt lat="47.3211" lon="-1.62354">
        <ele>21.6</ele>
        <time>2015-05-10T08:01:24Z</time>
      </trkpt>
      <trkpt lat="47.3211" lon="-1.6235">
        <ele>21.6</ele>
        <time>2015-05-10T08:01:25Z</time>
      </trkpt>
      <trkpt lat="47.32112" lon="-1.62342">
        <ele>21.4</ele>
        <time>2015-05-10T08:01:27Z</time>
      </trkpt>
      <trkpt lat="47.32112" lon="-1.62338">
        <ele>21.3</ele>
        <time>2015-05-10T08:01:28Z</time>
      </trkpt>
      <trkpt lat="47.32115" lon="-1.62333">
        <ele>21.2</ele>
        <time>2015-05-10T08:01:30Z</time>
      </trkpt>
      <trkpt lat="47.3212" lon="-1.62331">
        <ele>21</ele>
        <time>2015-05-10T08:01:32Z</time>
      </trkpt>
      <trkpt lat="47.32123" lon="-1.62329">
        <ele>20.9</ele>
        <time>2015-05-10T08:01:33Z</time>
      </trkpt>
      <trkpt lat="47.32126" lon="-1.62327">
        <ele>20.9</ele>
        <time>2015-05-10T08:01:34Z</time>
      </trkpt>
      <trkpt lat="47.32129" lon="-1.62325">
        <ele>21</ele>
        <time>2015-05-10T08:01:35Z</time>
      </trkpt>
      <trkpt lat="47.32131" lon="-1.62324">
        <ele>21.1</ele>
        <time>2015-05-10T08:01:36Z</time>
      </trkpt>
      <trkpt lat="47.32134" lon="-1.62323">
        <ele>21.2</ele>
        <time>2015-05-10T08:01:37Z</time>
      </trkpt>
      <trkpt lat="47.32137" lon="-1.62321">
        <ele>21.4</ele>
        <time>2015-05-10T08:01:38Z</time>
      </trkpt>
      <trkpt lat="47.3214" lon="-1.6232">
        <ele>21.5</ele>
        <time>2015-05-10T08:01:39Z</time>
      </trkpt>
      <trkpt lat="47.32143" lon="-1.62319">
        <ele>21.6</ele>
        <time>2015-05-10T08:01:40Z</time>
      </trkpt>
      <trkpt lat="47.32148" lon="-1.62317">
        <ele>21.9</ele>
        <time>2015-05-10T08:01:42Z</time>
      </trkpt>
      <trkpt lat="47.32153" lon="-1.62316">
        <ele>22.1</ele>
        <time>2015-05-10T08:01:44Z</time>
      </trkpt>
      <trkpt lat="47.32155" lon="-1.62315">
        <ele>22.3</ele>
        <time>2015-05-10T08:01:45Z</time>
      </trkpt>
      <trkpt lat="47.32159" lon="-1.62314">
        <ele>22.5</ele>
        <time>2015-05-10T08:01:46Z</time>
      </trkpt>
      <trkpt lat="47.32162" lon="-1.62313">
        <ele>22.6</ele>
        <time>2015-05-10T08:01:47Z</time>
      </trkpt>
      <trkpt lat="47.32166" lon="-1.62312">
        <ele>22.8</ele>
        <time>2015-05-10T08:01:49Z</time>
      </trkpt>
      <trkpt lat="47.3217" lon="-1.62311">
        <ele>23.1</ele>
        <time>2015-05-10T08:01:52Z</time>
      </trkpt>
      <trkpt lat="47.32174" lon="-1.62309">
        <ele>23.2</ele>
        <time>2015-05-10T08:01:54Z</time>
      </trkpt>
      <trkpt lat="47.32178" lon="-1.62307">
        <ele>23.4</ele>
        <time>2015-05-10T08:01:56Z</time>
      </trkpt>
      <trkpt lat="47.3218" lon="-1.62303">
        <ele>23.5</ele>
        <time>2015-05-10T08:01:58Z</time>
      </trkpt>
      <trkpt lat="47.32182" lon="-1.62298">
        <ele>23.5</ele>
        <time>2015-05-10T08:01:59Z</time>
      </trkpt>
      <trkpt lat="47.32184" lon="-1.62293">
        <ele>23.5</ele>
        <time>2015-05-10T08:02:01Z</time>
      </trkpt>
      <trkpt lat="47.32184" lon="-1.62289">
        <ele>23.7</ele>
        <time>2015-05-10T08:02:03Z</time>
      </trkpt>
      <trkpt lat="47.32188" lon="-1.62285">
        <ele>24.1</ele>
        <time>2015-05-10T08:02:05Z</time>
      </trkpt>
      <trkpt lat="47.32191" lon="-1.62281">
        <ele>24.4</ele>
        <time>2015-05-10T08:02:07Z</time>
      </trkpt>
      <trkpt lat="47.32198" lon="-1.62258">
        <ele>26.1</ele>
        <time>2015-05-10T08:02:17Z</time>
      </trkpt>
      <trkpt lat="47.32201" lon="-1.62258">
        <ele>26.4</ele>
        <time>2015-05-10T08:02:19Z</time>
      </trkpt>
      <trkpt lat="47.32204" lon="-1.62262">
        <ele>26.4</ele>
        <time>2015-05-10T08:02:22Z</time>
      </trkpt>
      <trkpt lat="47.32205" lon="-1.62267">
        <ele>26.2</ele>
        <time>2015-05-10T08:02:25Z</time>
      </trkpt>
      <trkpt lat="47.32209" lon="-1.62265">
        <ele>26.6</ele>
        <time>2015-05-10T08:02:28Z</time>
      </trkpt>
      <trkpt lat="47.32211" lon="-1.62264">
        <ele>27</ele>
        <time>2015-05-10T08:02:30Z</time>
      </trkpt>
      <trkpt lat="47.32214" lon="-1.62266">
        <ele>27.4</ele>
        <time>2015-05-10T08:02:33Z</time>
      </trkpt>
      <trkpt lat="47.32217" lon="-1.62268">
        <ele>27.6</ele>
        <time>2015-05-10T08:02:36Z</time>
      </trkpt>
      <trkpt lat="47.3222" lon="-1.62267">
        <ele>28</ele>
        <time>2015-05-10T08:02:38Z</time>
      </trkpt>
      <trkpt lat="47.32225" lon="-1.62268">
        <ele>28.7</ele>
        <time>2015-05-10T08:02:41Z</time>
      </trkpt>
      <trkpt lat="47.32228" lon="-1.62269">
        <ele>29</ele>
        <time>2015-05-10T08:02:43Z</time>
      </trkpt>
      <trkpt lat="47.32232" lon="-1.6227">
        <ele>29.5</ele>
        <time>2015-05-10T08:02:48Z</time>
      </trkpt>
      <trkpt lat="47.32234" lon="-1.62271">
        <ele>29.7</ele>
        <time>2015-05-10T08:02:52Z</time>
      </trkpt>
      <trkpt lat="47.32238" lon="-1.62272">
        <ele>30.1</ele>
        <time>2015-05-10T08:02:56Z</time>
      </trkpt>
      <trkpt lat="47.32242" lon="-1.62274">
        <ele>30.5</ele>
        <time>2015-05-10T08:02:59Z</time>
      </trkpt>
      <trkpt lat="47.32245" lon="-1.62277">
        <ele>30.8</ele>
        <time>2015-05-10T08:03:03Z</time>
      </trkpt>
      <trkpt lat="47.32248" lon="-1.62279">
        <ele>31</ele>
        <time>2015-05-10T08:03:05Z</time>
      </trkpt>
      <trkpt lat="47.32252" lon="-1.6228">
        <ele>31.5</ele>
        <time>2015-05-10T08:03:08Z</time>
      </trkpt>
      <trkpt lat="47.32254" lon="-1.62283">
        <ele>31.6</ele>
        <time>2015-05-10T08:03:10Z</time>
      </trkpt>
      <trkpt lat="47.32257" lon="-1.62286">
        <ele>31.8</ele>
        <time>2015-05-10T08:03:12Z</time>
      </trkpt>
      <trkpt lat="47.3226" lon="-1.62287">
        <ele>32.1</ele>
        <time>2015-05-10T08:03:14Z</time>
      </trkpt>
      <trkpt lat="47.32263" lon="-1.62285">
        <ele>32.7</ele>
        <time>2015-05-10T08:03:17Z</time>
      </trkpt>
      <trkpt lat="47.32265" lon="-1.62281">
        <ele>33.2</ele>
        <time>2015-05-10T08:03:22Z</time>
      </trkpt>
      <trkpt lat="47.32268" lon="-1.6228">
        <ele>33.7</ele>
        <time>2015-05-10T08:03:25Z</time>
      </trkpt>
      <trkpt lat="47.32271" lon="-1.62281">
        <ele>34.1</ele>
        <time>2015-05-10T08:03:27Z</time>
      </trkpt>
      <trkpt lat="47.32274" lon="-1.6228">
        <ele>34.5</ele>
        <time>2015-05-10T08:03:29Z</time>
      </trkpt>
      <trkpt lat="47.32278" lon="-1.62284">
        <ele>34.7</ele>
        <time>2015-05-10T08:03:32Z</time>
      </trkpt>
      <trkpt lat="47.32281" lon="-1.62283">
        <ele>35.2</ele>
        <time>2015-05-10T08:03:37Z</time>
      </trkpt>
      <trkpt lat="47.32284" lon="-1.62283">
        <ele>35.5</ele>
        <time>2015-05-10T08:03:41Z</time>
      </trkpt>
      <trkpt lat="47.32287" lon="-1.62283">
        <ele>36</ele>
        <time>2015-05-10T08:03:44Z</time>
      </trkpt>
      <trkpt lat="47.3229" lon="-1.62281">
        <ele>36.5</ele>
        <time>2015-05-10T08:03:48Z</time>
      </trkpt>
      <trkpt lat="47.32291" lon="-1.62277">
        <ele>37</ele>
        <time>2015-05-10T08:03:53Z</time>
      </trkpt>
      <trkpt lat="47.32292" lon="-1.62273">
        <ele>37.4</ele>
        <time>2015-05-10T08:03:57Z</time>
      </trkpt>
      <trkpt lat="47.32291" lon="-1.62269">
        <ele>37.5</ele>
        <time>2015-05-10T08:04:01Z</time>
      </trkpt>
      <trkpt lat="47.32289" lon="-1.62265">
        <ele>37.5</ele>
        <time>2015-05-10T08:04:03Z</time>
      </trkpt>
      <trkpt lat="47.32287" lon="-1.62259">
        <ele>37.8</ele>
        <time>2015-05-10T08:04:05Z</time>
      </trkpt>
      <trkpt lat="47.32285" lon="-1.62256">
        <ele>37.6</ele>
        <time>2015-05-10T08:04:06Z</time>
      </trkpt>
      <trkpt lat="47.32282" lon="-1.62254">
        <ele>37.4</ele>
        <time>2015-05-10T08:04:07Z</time>
      </trkpt>
      <trkpt lat="47.32279" lon="-1.62252">
        <ele>37.1</ele>
        <time>2015-05-10T08:04:08Z</time>
      </trkpt>
      <trkpt lat="47.32275" lon="-1.62249">
        <ele>36.8</ele>
        <time>2015-05-10T08:04:09Z</time>
      </trkpt>
      <trkpt lat="47.3227" lon="-1.62247">
        <ele>36.2</ele>
        <time>2015-05-10T08:04:10Z</time>
      </trkpt>
      <trkpt lat="47.32264" lon="-1.62247">
        <ele>35.4</ele>
        <time>2015-05-10T08:04:11Z</time>
      </trkpt>
      <trkpt lat="47.32259" lon="-1.62246">
        <ele>34.7</ele>
        <time>2015-05-10T08:04:12Z</time>
      </trkpt>
      <trkpt lat="47.32254" lon="-1.62244">
        <ele>34.2</ele>
        <time>2015-05-10T08:04:13Z</time>
      </trkpt>
      <trkpt lat="47.32249" lon="-1.62241">
        <ele>33.7</ele>
        <time>2015-05-10T08:04:14Z</time>
      </trkpt>
      <trkpt lat="47.32243" lon="-1.62239">
        <ele>33.1</ele>
        <time>2015-05-10T08:04:15Z</time>
      </trkpt>
      <trkpt lat="47.32238" lon="-1.62237">
        <ele>32.4</ele>
        <time>2015-05-10T08:04:16Z</time>
      </trkpt>
      <trkpt lat="47.32233" lon="-1.62235">
        <ele>31.9</ele>
        <time>2015-05-10T08:04:17Z</time>
      </trkpt>
      <trkpt lat="47.32229" lon="-1.62233">
        <ele>31.4</ele>
        <time>2015-05-10T08:04:18Z</time>
      </trkpt>
      <trkpt lat="47.32225" lon="-1.62231">
        <ele>30.9</ele>
        <time>2015-05-10T08:04:19Z</time>
      </trkpt>
      <trkpt lat="47.32224" lon="-1.62224">
        <ele>31.3</ele>
        <time>2015-05-10T08:04:21Z</time>
      </trkpt>
      <trkpt lat="47.32221" lon="-1.62215">
        <ele>31.4</ele>
        <time>2015-05-10T08:04:23Z</time>
      </trkpt>
      <trkpt lat="47.32224" lon="-1.62214">
        <ele>31.9</ele>
        <time>2015-05-10T08:04:29Z</time>
      </trkpt>
      <trkpt lat="47.32227" lon="-1.62216">
        <ele>32.2</ele>
        <time>2015-05-10T08:04:32Z</time>
      </trkpt>
      <trkpt lat="47.3223" lon="-1.62215">
        <ele>32.7</ele>
        <time>2015-05-10T08:04:35Z</time>
      </trkpt>
      <trkpt lat="47.32233" lon="-1.62218">
        <ele>33</ele>
        <time>2015-05-10T08:04:39Z</time>
      </trkpt>
      <trkpt lat="47.32269" lon="-1.62129">
        <ele>37</ele>
        <time>2015-05-10T08:06:08Z</time>
      </trkpt>
      <trkpt lat="47.32267" lon="-1.62126">
        <ele>36.6</ele>
        <time>2015-05-10T08:06:09Z</time>
      </trkpt>
      <trkpt lat="47.32262" lon="-1.62124">
        <ele>35.5</ele>
        <time>2015-05-10T08:06:10Z</time>
      </trkpt>
      <trkpt lat="47.32257" lon="-1.62122">
        <ele>34.5</ele>
        <time>2015-05-10T08:06:11Z</time>
      </trkpt>
      <trkpt lat="47.3225" lon="-1.62121">
        <ele>33.3</ele>
        <time>2015-05-10T08:06:12Z</time>
      </trkpt>
      <trkpt lat="47.32243" lon="-1.62119">
        <ele>31.9</ele>
        <time>2015-05-10T08:06:13Z</time>
      </trkpt>
      <trkpt lat="47.32237" lon="-1.62116">
        <ele>30.7</ele>
        <time>2015-05-10T08:06:14Z</time>
      </trkpt>
      <trkpt lat="47.32232" lon="-1.62114">
        <ele>29.6</ele>
        <time>2015-05-10T08:06:15Z</time>
      </trkpt>
      <trkpt lat="47.32227" lon="-1.62113">
        <ele>28.7</ele>
        <time>2015-05-10T08:06:16Z</time>
      </trkpt>
      <trkpt lat="47.32222" lon="-1.62111">
        <ele>27.7</ele>
        <time>2015-05-10T08:06:17Z</time>
      </trkpt>
      <trkpt lat="47.32219" lon="-1.62107">
        <ele>27</ele>
        <time>2015-05-10T08:06:18Z</time>
      </trkpt>
      <trkpt lat="47.32216" lon="-1.62104">
        <ele>26.4</ele>
        <time>2015-05-10T08:06:19Z</time>
      </trkpt>
      <trkpt lat="47.32214" lon="-1.62101">
        <ele>25.9</ele>
        <time>2015-05-10T08:06:20Z</time>
      </trkpt>
      <trkpt lat="47.32214" lon="-1.62096">
        <ele>25.5</ele>
        <time>2015-05-10T08:06:21Z</time>
      </trkpt>
      <trkpt lat="47.3222" lon="-1.62087">
        <ele>26.1</ele>
        <time>2015-05-10T08:06:22Z</time>
      </trkpt>
      <trkpt lat="47.32222" lon="-1.62081">
        <ele>26.3</ele>
        <time>2015-05-10T08:06:23Z</time>
      </trkpt>
      <trkpt lat="47.32225" lon="-1.62076">
        <ele>26.4</ele>
        <time>2015-05-10T08:06:25Z</time>
      </trkpt>
      <trkpt lat="47.32228" lon="-1.62072">
        <ele>26.9</ele>
        <time>2015-05-10T08:06:27Z</time>
      </trkpt>
      <trkpt lat="47.32232" lon="-1.6207">
        <ele>27.5</ele>
        <time>2015-05-10T08:06:29Z</time>
      </trkpt>
      <trkpt lat="47.32236" lon="-1.62068">
        <ele>28.1</ele>
        <time>2015-05-10T08:06:31Z</time>
      </trkpt>
      <trkpt lat="47.3224" lon="-1.62068">
        <ele>28.6</ele>
        <time>2015-05-10T08:06:33Z</time>
      </trkpt>
      <trkpt lat="47.32243" lon="-1.62068">
        <ele>29.1</ele>
        <time>2015-05-10T08:06:35Z</time>
      </trkpt>
      <trkpt lat="47.32241" lon="-1.62071">
        <ele>29</ele>
        <time>2015-05-10T08:06:42Z</time>
      </trkpt>
      <trkpt lat="47.32239" lon="-1.62076">
        <ele>29</ele>
        <time>2015-05-10T08:06:44Z</time>
      </trkpt>
      <trkpt lat="47.32262" lon="-1.62088">
        <ele>33.6</ele>
        <time>2015-05-10T08:07:07Z</time>
      </trkpt>
      <trkpt lat="47.32265" lon="-1.62088">
        <ele>34.1</ele>
        <time>2015-05-10T08:07:10Z</time>
      </trkpt>
      <trkpt lat="47.32268" lon="-1.62092">
        <ele>34.8</ele>
        <time>2015-05-10T08:07:14Z</time>
      </trkpt>
      <trkpt lat="47.3227" lon="-1.62094">
        <ele>35.4</ele>
        <time>2015-05-10T08:07:16Z</time>
      </trkpt>
      <trkpt lat="47.32273" lon="-1.62096">
        <ele>35.9</ele>
        <time>2015-05-10T08:07:18Z</time>
      </trkpt>
      <trkpt lat="47.32296" lon="-1.62097">
        <ele>39.7</ele>
        <time>2015-05-10T08:07:54Z</time>
      </trkpt>
      <trkpt lat="47.32299" lon="-1.62097">
        <ele>39.9</ele>
        <time>2015-05-10T08:07:58Z</time>
      </trkpt>
      <trkpt lat="47.32301" lon="-1.62099">
        <ele>40.3</ele>
        <time>2015-05-10T08:08:01Z</time>
      </trkpt>
      <trkpt lat="47.32302" lon="-1.62103">
        <ele>40.6</ele>
        <time>2015-05-10T08:08:05Z</time>
      </trkpt>
      <trkpt lat="47.3234" lon="-1.62129">
        <ele>45.6</ele>
        <time>2015-05-10T08:08:38Z</time>
      </trkpt>
      <trkpt lat="47.32343" lon="-1.62126">
        <ele>45.9</ele>
        <time>2015-05-10T08:08:40Z</time>
      </trkpt>
      <trkpt lat="47.32346" lon="-1.62123">
        <ele>46</ele>
        <time>2015-05-10T08:08:42Z</time>
      </trkpt>
      <trkpt lat="47.32348" lon="-1.62118">
        <ele>45.9</ele>
        <time>2015-05-10T08:08:44Z</time>
      </trkpt>
      <trkpt lat="47.32352" lon="-1.62114">
        <ele>46</ele>
        <time>2015-05-10T08:08:46Z</time>
      </trkpt>
      <trkpt lat="47.32354" lon="-1.6211">
        <ele>45.9</ele>
        <time>2015-05-10T08:08:48Z</time>
      </trkpt>
      <trkpt lat="47.32358" lon="-1.62104">
        <ele>45.9</ele>
        <time>2015-05-10T08:08:50Z</time>
      </trkpt>
      <trkpt lat="47.3236" lon="-1.62101">
        <ele>45.8</ele>
        <time>2015-05-10T08:08:51Z</time>
      </trkpt>
      <trkpt lat="47.32364" lon="-1.62097">
        <ele>46</ele>
        <time>2015-05-10T08:08:53Z</time>
      </trkpt>
      <trkpt lat="47.32367" lon="-1.62097">
        <ele>46.2</ele>
        <time>2015-05-10T08:08:54Z</time>
      </trkpt>
      <trkpt lat="47.3237" lon="-1.62094">
        <ele>46.4</ele>
        <time>2015-05-10T08:08:55Z</time>
      </trkpt>
      <trkpt lat="47.32375" lon="-1.62094">
        <ele>46.7</ele>
        <time>2015-05-10T08:08:57Z</time>
      </trkpt>
      <trkpt lat="47.32379" lon="-1.62096">
        <ele>47</ele>
        <time>2015-05-10T08:08:59Z</time>
      </trkpt>
      <trkpt lat="47.32382" lon="-1.62099">
        <ele>47.1</ele>
        <time>2015-05-10T08:09:01Z</time>
      </trkpt>
      <trkpt lat="47.32385" lon="-1.62097">
        <ele>47</ele>
        <time>2015-05-10T08:09:03Z</time>
      </trkpt>
      <trkpt lat="47.32386" lon="-1.62092">
        <ele>46.7</ele>
        <time>2015-05-10T08:09:05Z</time>
      </trkpt>
      <trkpt lat="47.32383" lon="-1.62089">
        <ele>46.5</ele>
        <time>2015-05-10T08:09:07Z</time>
      </trkpt>
      <trkpt lat="47.32383" lon="-1.62085">
        <ele>46.2</ele>
        <time>2015-05-10T08:09:08Z</time>
      </trkpt>
      <trkpt lat="47.32383" lon="-1.6208">
        <ele>45.9</ele>
        <time>2015-05-10T08:09:09Z</time>
      </trkpt>
      <trkpt lat="47.32385" lon="-1.62077">
        <ele>45.7</ele>
        <time>2015-05-10T08:09:10Z</time>
      </trkpt>
      <trkpt lat="47.32387" lon="-1.62074">
        <ele>45.5</ele>
        <time>2015-05-10T08:09:11Z</time>
      </trkpt>
      <trkpt lat="47.3239" lon="-1.62068">
        <ele>45.2</ele>
        <time>2015-05-10T08:09:13Z</time>
      </trkpt>
      <trkpt lat="47.3239" lon="-1.62064">
        <ele>44.9</ele>
        <time>2015-05-10T08:09:17Z</time>
      </trkpt>
      <trkpt lat="47.32387" lon="-1.62066">
        <ele>45</ele>
        <time>2015-05-10T08:09:20Z</time>
      </trkpt>
      <trkpt lat="47.32384" lon="-1.62066">
        <ele>45</ele>
        <time>2015-05-10T08:09:22Z</time>
      </trkpt>
      <trkpt lat="47.3238" lon="-1.62068">
        <ele>45</ele>
        <time>2015-05-10T08:09:25Z</time>
      </trkpt>
      <trkpt lat="47.32376" lon="-1.62068">
        <ele>44.9</ele>
        <time>2015-05-10T08:09:27Z</time>
      </trkpt>
      <trkpt lat="47.32372" lon="-1.62066">
        <ele>44.4</ele>
        <time>2015-05-10T08:09:29Z</time>
      </trkpt>
      <trkpt lat="47.32369" lon="-1.62064">
        <ele>44</ele>
        <time>2015-05-10T08:09:30Z</time>
      </trkpt>
      <trkpt lat="47.32362" lon="-1.62062">
        <ele>43.3</ele>
        <time>2015-05-10T08:09:32Z</time>
      </trkpt>
      <trkpt lat="47.32358" lon="-1.6206">
        <ele>42.9</ele>
        <time>2015-05-10T08:09:33Z</time>
      </trkpt>
      <trkpt lat="47.32355" lon="-1.62058">
        <ele>42.4</ele>
        <time>2015-05-10T08:09:34Z</time>
      </trkpt>
      <trkpt lat="47.32351" lon="-1.62054">
        <ele>41.8</ele>
        <time>2015-05-10T08:09:36Z</time>
      </trkpt>
      <trkpt lat="47.32348" lon="-1.62051">
        <ele>41.3</ele>
        <time>2015-05-10T08:09:38Z</time>
      </trkpt>
      <trkpt lat="47.32343" lon="-1.62048">
        <ele>40.7</ele>
        <time>2015-05-10T08:09:40Z</time>
      </trkpt>
      <trkpt lat="47.32339" lon="-1.62045">
        <ele>40.2</ele>
        <time>2015-05-10T08:09:41Z</time>
      </trkpt>
      <trkpt lat="47.32334" lon="-1.62042">
        <ele>39.5</ele>
        <time>2015-05-10T08:09:42Z</time>
      </trkpt>
      <trkpt lat="47.32329" lon="-1.62039">
        <ele>39</ele>
        <time>2015-05-10T08:09:43Z</time>
      </trkpt>
      <trkpt lat="47.32325" lon="-1.62037">
        <ele>38.6</ele>
        <time>2015-05-10T08:09:44Z</time>
      </trkpt>
      <trkpt lat="47.3232" lon="-1.62035">
        <ele>38.1</ele>
        <time>2015-05-10T08:09:45Z</time>
      </trkpt>
      <trkpt lat="47.32315" lon="-1.62034">
        <ele>37.7</ele>
        <time>2015-05-10T08:09:46Z</time>
      </trkpt>
      <trkpt lat="47.32312" lon="-1.62032">
        <ele>37.4</ele>
        <time>2015-05-10T08:09:47Z</time>
      </trkpt>
      <trkpt lat="47.32303" lon="-1.62026">
        <ele>36.4</ele>
        <time>2015-05-10T08:09:49Z</time>
      </trkpt>
      <trkpt lat="47.323" lon="-1.62022">
        <ele>36</ele>
        <time>2015-05-10T08:09:50Z</time>
      </trkpt>
      <trkpt lat="47.323" lon="-1.62017">
        <ele>35.8</ele>
        <time>2015-05-10T08:09:53Z</time>
      </trkpt>
      <trkpt lat="47.323" lon="-1.62012">
        <ele>35.5</ele>
        <time>2015-05-10T08:09:56Z</time>
      </trkpt>
      <trkpt lat="47.32296" lon="-1.62012">
        <ele>35.3</ele>
        <time>2015-05-10T08:09:58Z</time>
      </trkpt>
      <trkpt lat="47.32295" lon="-1.62008">
        <ele>35</ele>
        <time>2015-05-10T08:10:00Z</time>
      </trkpt>
      <trkpt lat="47.32292" lon="-1.62003">
        <ele>34.6</ele>
        <time>2015-05-10T08:10:02Z</time>
      </trkpt>
      <trkpt lat="47.32291" lon="-1.61998">
        <ele>34.4</ele>
        <time>2015-05-10T08:10:04Z</time>
      </trkpt>
      <trkpt lat="47.32291" lon="-1.61992">
        <ele>34.2</ele>
        <time>2015-05-10T08:10:06Z</time>
      </trkpt>
      <trkpt lat="47.32292" lon="-1.61987">
        <ele>34.1</ele>
        <time>2015-05-10T08:10:07Z</time>
      </trkpt>
      <trkpt lat="47.3229" lon="-1.6198">
        <ele>33.5</ele>
        <time>2015-05-10T08:10:08Z</time>
      </trkpt>
      <trkpt lat="47.32293" lon="-1.61976">
        <ele>33.8</ele>
        <time>2015-05-10T08:10:10Z</time>
      </trkpt>
      <trkpt lat="47.32293" lon="-1.61971">
        <ele>33.5</ele>
        <time>2015-05-10T08:10:11Z</time>
      </trkpt>
      <trkpt lat="47.32293" lon="-1.61967">
        <ele>33.4</ele>
        <time>2015-05-10T08:10:12Z</time>
      </trkpt>
      <trkpt lat="47.32292" lon="-1.61963">
        <ele>33.1</ele>
        <time>2015-05-10T08:10:13Z</time>
      </trkpt>
      <trkpt lat="47.32294" lon="-1.61959">
        <ele>33.2</ele>
        <time>2015-05-10T08:10:15Z</time>
      </trkpt>
      <trkpt lat="47.32299" lon="-1.61956">
        <ele>33.5</ele>
        <time>2015-05-10T08:10:16Z</time>
      </trkpt>
      <trkpt lat="47.32304" lon="-1.61952">
        <ele>33.9</ele>
        <time>2015-05-10T08:10:18Z</time>
      </trkpt>
      <trkpt lat="47.3231" lon="-1.61947">
        <ele>34.3</ele>
        <time>2015-05-10T08:10:19Z</time>
      </trkpt>
      <trkpt lat="47.32313" lon="-1.61944">
        <ele>34.6</ele>
        <time>2015-05-10T08:10:20Z</time>
      </trkpt>
      <trkpt lat="47.32316" lon="-1.6194">
        <ele>34.7</ele>
        <time>2015-05-10T08:10:22Z</time>
      </trkpt>
      <trkpt lat="47.32319" lon="-1.61936">
        <ele>34.9</ele>
        <time>2015-05-10T08:10:24Z</time>
      </trkpt>
      <trkpt lat="47.32322" lon="-1.61935">
        <ele>35.2</ele>
        <time>2015-05-10T08:10:26Z</time>
      </trkpt>
      <trkpt lat="47.32326" lon="-1.61935">
        <ele>35.4</ele>
        <time>2015-05-10T08:10:28Z</time>
      </trkpt>
      <trkpt lat="47.32328" lon="-1.61935">
        <ele>35.6</ele>
        <time>2015-05-10T08:10:30Z</time>
      </trkpt>
      <trkpt lat="47.32353" lon="-1.61945">
        <ele>37.4</ele>
        <time>2015-05-10T08:10:46Z</time>
      </trkpt>
      <trkpt lat="47.32357" lon="-1.61947">
        <ele>37.7</ele>
        <time>2015-05-10T08:10:48Z</time>
      </trkpt>
      <trkpt lat="47.3236" lon="-1.61951">
        <ele>37.9</ele>
        <time>2015-05-10T08:10:50Z</time>
      </trkpt>
      <trkpt lat="47.32364" lon="-1.61953">
        <ele>38.2</ele>
        <time>2015-05-10T08:10:52Z</time>
      </trkpt>
      <trkpt lat="47.32369" lon="-1.61955">
        <ele>38.5</ele>
        <time>2015-05-10T08:10:54Z</time>
      </trkpt>
      <trkpt lat="47.32373" lon="-1.61959">
        <ele>38.9</ele>
        <time>2015-05-10T08:10:56Z</time>
      </trkpt>
      <trkpt lat="47.32376" lon="-1.61961">
        <ele>39.2</ele>
        <time>2015-05-10T08:10:57Z</time>
      </trkpt>
      <trkpt lat="47.3238" lon="-1.61962">
        <ele>39.7</ele>
        <time>2015-05-10T08:10:59Z</time>
      </trkpt>
      <trkpt lat="47.32382" lon="-1.61964">
        <ele>40</ele>
        <time>2015-05-10T08:11:00Z</time>
      </trkpt>
      <trkpt lat="47.32386" lon="-1.61965">
        <ele>40.5</ele>
        <time>2015-05-10T08:11:03Z</time>
      </trkpt>
      <trkpt lat="47.32391" lon="-1.61966">
        <ele>41</ele>
        <time>2015-05-10T08:11:05Z</time>
      </trkpt>
      <trkpt lat="47.32395" lon="-1.61966">
        <ele>41.4</ele>
        <time>2015-05-10T08:11:07Z</time>
      </trkpt>
      <trkpt lat="47.32399" lon="-1.61966">
        <ele>41.8</ele>
        <time>2015-05-10T08:11:09Z</time>
      </trkpt>
      <trkpt lat="47.32403" lon="-1.61966">
        <ele>42.2</ele>
        <time>2015-05-10T08:11:11Z</time>
      </trkpt>
      <trkpt lat="47.32407" lon="-1.61966">
        <ele>42.6</ele>
        <time>2015-05-10T08:11:13Z</time>
      </trkpt>
      <trkpt lat="47.32411" lon="-1.61966">
        <ele>43</ele>
        <time>2015-05-10T08:11:14Z</time>
      </trkpt>
      <trkpt lat="47.32415" lon="-1.61966">
        <ele>43.4</ele>
        <time>2015-05-10T08:11:16Z</time>
      </trkpt>
      <trkpt lat="47.32418" lon="-1.61967">
        <ele>43.8</ele>
        <time>2015-05-10T08:11:18Z</time>
      </trkpt>
      <trkpt lat="47.32422" lon="-1.61968">
        <ele>44.1</ele>
        <time>2015-05-10T08:11:20Z</time>
      </trkpt>
      <trkpt lat="47.32435" lon="-1.61971">
        <ele>45.5</ele>
        <time>2015-05-10T08:11:25Z</time>
      </trkpt>
      <trkpt lat="47.32439" lon="-1.61972">
        <ele>45.8</ele>
        <time>2015-05-10T08:11:26Z</time>
      </trkpt>
      <trkpt lat="47.32444" lon="-1.61973">
        <ele>46.3</ele>
        <time>2015-05-10T08:11:28Z</time>
      </trkpt>
      <trkpt lat="47.32449" lon="-1.61974">
        <ele>46.7</ele>
        <time>2015-05-10T08:11:30Z</time>
      </trkpt>
      <trkpt lat="47.32453" lon="-1.61976">
        <ele>47.1</ele>
        <time>2015-05-10T08:11:32Z</time>
      </trkpt>
      <trkpt lat="47.32457" lon="-1.61975">
        <ele>47.5</ele>
        <time>2015-05-10T08:11:34Z</time>
      </trkpt>
      <trkpt lat="47.3246" lon="-1.61976">
        <ele>47.5</ele>
        <time>2015-05-10T08:11:35Z</time>
      </trkpt>
      <trkpt lat="47.32465" lon="-1.61974">
        <ele>47.4</ele>
        <time>2015-05-10T08:11:37Z</time>
      </trkpt>
      <trkpt lat="47.3247" lon="-1.61974">
        <ele>47.2</ele>
        <time>2015-05-10T08:11:39Z</time>
      </trkpt>
      <trkpt lat="47.32474" lon="-1.61975">
        <ele>47</ele>
        <time>2015-05-10T08:11:41Z</time>
      </trkpt>
      <trkpt lat="47.32476" lon="-1.61978">
        <ele>46.9</ele>
        <time>2015-05-10T08:11:43Z</time>
      </trkpt>
      <trkpt lat="47.3248" lon="-1.61979">
        <ele>46.7</ele>
        <time>2015-05-10T08:11:45Z</time>
      </trkpt>
      <trkpt lat="47.32483" lon="-1.61981">
        <ele>46.6</ele>
        <time>2015-05-10T08:11:47Z</time>
      </trkpt>
      <trkpt lat="47.32486" lon="-1.6198">
        <ele>46.5</ele>
        <time>2015-05-10T08:11:49Z</time>
      </trkpt>
      <trkpt lat="47.32489" lon="-1.6198">
        <ele>46.4</ele>
        <time>2015-05-10T08:11:52Z</time>
      </trkpt>
      <trkpt lat="47.32492" lon="-1.61987">
        <ele>46.1</ele>
        <time>2015-05-10T08:11:54Z</time>
      </trkpt>
      <trkpt lat="47.32494" lon="-1.61994">
        <ele>45.9</ele>
        <time>2015-05-10T08:11:55Z</time>
      </trkpt>
      <trkpt lat="47.32496" lon="-1.61999">
        <ele>45.7</ele>
        <time>2015-05-10T08:12:00Z</time>
      </trkpt>
      <trkpt lat="47.32493" lon="-1.62001">
        <ele>45.7</ele>
        <time>2015-05-10T08:12:04Z</time>
      </trkpt>
      <trkpt lat="47.3249" lon="-1.62">
        <ele>45.8</ele>
        <time>2015-05-10T08:12:05Z</time>
      </trkpt>
      <trkpt lat="47.32488" lon="-1.61999">
        <ele>46</ele>
        <time>2015-05-10T08:12:07Z</time>
      </trkpt>
      <trkpt lat="47.32483" lon="-1.61999">
        <ele>46.1</ele>
        <time>2015-05-10T08:12:09Z</time>
      </trkpt>
      <trkpt lat="47.32481" lon="-1.61998">
        <ele>46.2</ele>
        <time>2015-05-10T08:12:11Z</time>
      </trkpt>
      <trkpt lat="47.32478" lon="-1.61996">
        <ele>46.4</ele>
        <time>2015-05-10T08:12:14Z</time>
      </trkpt>
      <trkpt lat="47.32475" lon="-1.61992">
        <ele>46.6</ele>
        <time>2015-05-10T08:12:17Z</time>
      </trkpt>
      <trkpt lat="47.32473" lon="-1.61995">
        <ele>46.6</ele>
        <time>2015-05-10T08:12:21Z</time>
      </trkpt>
      <trkpt lat="47.32469" lon="-1.61997">
        <ele>46.7</ele>
        <time>2015-05-10T08:12:23Z</time>
      </trkpt>
      <trkpt lat="47.32465" lon="-1.61998">
        <ele>46.8</ele>
        <time>2015-05-10T08:12:27Z</time>
      </trkpt>
      <trkpt lat="47.32467" lon="-1.62002">
        <ele>46.7</ele>
        <time>2015-05-10T08:12:31Z</time>
      </trkpt>
      <trkpt lat="47.32461" lon="-1.62003">
        <ele>46.8</ele>
        <time>2015-05-10T08:12:35Z</time>
      </trkpt>
      <trkpt lat="47.32458" lon="-1.62002">
        <ele>46.9</ele>
        <time>2015-05-10T08:12:36Z</time>
      </trkpt>
      <trkpt lat="47.32454" lon="-1.62003">
        <ele>46.6</ele>
        <time>2015-05-10T08:12:38Z</time>
      </trkpt>
      <trkpt lat="47.32451" lon="-1.62">
        <ele>46.5</ele>
        <time>2015-05-10T08:12:40Z</time>
      </trkpt>
      <trkpt lat="47.32453" lon="-1.61996">
        <ele>46.7</ele>
        <time>2015-05-10T08:12:45Z</time>
      </trkpt>
      <trkpt lat="47.32453" lon="-1.61991">
        <ele>46.8</ele>
        <time>2015-05-10T08:12:48Z</time>
      </trkpt>
      <trkpt lat="47.32455" lon="-1.61988">
        <ele>47</ele>
        <time>2015-05-10T08:12:52Z</time>
      </trkpt>
      <trkpt lat="47.32454" lon="-1.61984">
        <ele>47</ele>
        <time>2015-05-10T08:12:56Z</time>
      </trkpt>
      <trkpt lat="47.32438" lon="-1.61991">
        <ele>45.6</ele>
        <time>2015-05-10T08:13:15Z</time>
      </trkpt>
      <trkpt lat="47.32434" lon="-1.61992">
        <ele>45.3</ele>
        <time>2015-05-10T08:13:17Z</time>
      </trkpt>
      <trkpt lat="47.32431" lon="-1.61993">
        <ele>45</ele>
        <time>2015-05-10T08:13:19Z</time>
      </trkpt>
      <trkpt lat="47.32429" lon="-1.61995">
        <ele>44.9</ele>
        <time>2015-05-10T08:13:21Z</time>
      </trkpt>
      <trkpt lat="47.32424" lon="-1.61996">
        <ele>44.5</ele>
        <time>2015-05-10T08:13:23Z</time>
      </trkpt>
      <trkpt lat="47.32388" lon="-1.6196">
        <ele>40.5</ele>
        <time>2015-05-10T08:14:04Z</time>
      </trkpt>
      <trkpt lat="47.32385" lon="-1.61957">
        <ele>40.1</ele>
        <time>2015-05-10T08:14:06Z</time>
      </trkpt>
      <trkpt lat="47.32383" lon="-1.61959">
        <ele>39.9</ele>
        <time>2015-05-10T08:14:09Z</time>
      </trkpt>
      <trkpt lat="47.32379" lon="-1.61958">
        <ele>39.4</ele>
        <time>2015-05-10T08:14:11Z</time>
      </trkpt>
      <trkpt lat="47.32375" lon="-1.61956">
        <ele>39</ele>
        <time>2015-05-10T08:14:13Z</time>
      </trkpt>
      <trkpt lat="47.32374" lon="-1.61951">
        <ele>38.9</ele>
        <time>2015-05-10T08:14:15Z</time>
      </trkpt>
      <trkpt lat="47.32372" lon="-1.61944">
        <ele>38.8</ele>
        <time>2015-05-10T08:14:17Z</time>
      </trkpt>
      <trkpt lat="47.32373" lon="-1.6194">
        <ele>38.9</ele>
        <time>2015-05-10T08:14:22Z</time>
      </trkpt>
      <trkpt lat="47.32376" lon="-1.61937">
        <ele>39.1</ele>
        <time>2015-05-10T08:14:24Z</time>
      </trkpt>
      <trkpt lat="47.32377" lon="-1.6193">
        <ele>39.2</ele>
        <time>2015-05-10T08:14:26Z</time>
      </trkpt>
      <trkpt lat="47.3238" lon="-1.61928">
        <ele>39.6</ele>
        <time>2015-05-10T08:14:28Z</time>
      </trkpt>
      <trkpt lat="47.32382" lon="-1.61924">
        <ele>39.8</ele>
        <time>2015-05-10T08:14:31Z</time>
      </trkpt>
      <trkpt lat="47.32382" lon="-1.61919">
        <ele>39.8</ele>
        <time>2015-05-10T08:14:33Z</time>
      </trkpt>
      <trkpt lat="47.32382" lon="-1.61915">
        <ele>39.9</ele>
        <time>2015-05-10T08:14:35Z</time>
      </trkpt>
      <trkpt lat="47.32383" lon="-1.61911">
        <ele>40</ele>
        <time>2015-05-10T08:14:37Z</time>
      </trkpt>
      <trkpt lat="47.32387" lon="-1.61908">
        <ele>40.5</ele>
        <time>2015-05-10T08:14:39Z</time>
      </trkpt>
      <trkpt lat="47.32391" lon="-1.61905">
        <ele>41.1</ele>
        <time>2015-05-10T08:14:40Z</time>
      </trkpt>
      <trkpt lat="47.32395" lon="-1.61903">
        <ele>41.7</ele>
        <time>2015-05-10T08:14:41Z</time>
      </trkpt>
      <trkpt lat="47.32398" lon="-1.61903">
        <ele>42.1</ele>
        <time>2015-05-10T08:14:42Z</time>
      </trkpt>
      <trkpt lat="47.324" lon="-1.61899">
        <ele>42.4</ele>
        <time>2015-05-10T08:14:49Z</time>
      </trkpt>
      <trkpt lat="47.32399" lon="-1.61895">
        <ele>42.3</ele>
        <time>2015-05-10T08:14:56Z</time>
      </trkpt>
      <trkpt lat="47.32404" lon="-1.6189">
        <ele>43</ele>
        <time>2015-05-10T08:14:58Z</time>
      </trkpt>
      <trkpt lat="47.32408" lon="-1.61887">
        <ele>43.6</ele>
        <time>2015-05-10T08:14:59Z</time>
      </trkpt>
      <trkpt lat="47.32412" lon="-1.61884">
        <ele>44.2</ele>
        <time>2015-05-10T08:15:01Z</time>
      </trkpt>
      <trkpt lat="47.32416" lon="-1.61886">
        <ele>44.7</ele>
        <time>2015-05-10T08:15:05Z</time>
      </trkpt>
      <trkpt lat="47.3242" lon="-1.61887">
        <ele>45.2</ele>
        <time>2015-05-10T08:15:07Z</time>
      </trkpt>
      <trkpt lat="47.32424" lon="-1.61887">
        <ele>45.8</ele>
        <time>2015-05-10T08:15:09Z</time>
      </trkpt>
      <trkpt lat="47.32428" lon="-1.61888">
        <ele>46.3</ele>
        <time>2015-05-10T08:15:11Z</time>
      </trkpt>
      <trkpt lat="47.3243" lon="-1.61893">
        <ele>46.5</ele>
        <time>2015-05-10T08:15:13Z</time>
      </trkpt>
      <trkpt lat="47.32432" lon="-1.61899">
        <ele>46.6</ele>
        <time>2015-05-10T08:15:15Z</time>
      </trkpt>
      <trkpt lat="47.32434" lon="-1.61907">
        <ele>46.6</ele>
        <time>2015-05-10T08:15:17Z</time>
      </trkpt>
      <trkpt lat="47.32435" lon="-1.61913">
        <ele>46.7</ele>
        <time>2015-05-10T08:15:18Z</time>
      </trkpt>
      <trkpt lat="47.32437" lon="-1.61919">
        <ele>46.8</ele>
        <time>2015-05-10T08:15:20Z</time>
      </trkpt>
      <trkpt lat="47.32439" lon="-1.61922">
        <ele>47</ele>
        <time>2015-05-10T08:15:22Z</time>
      </trkpt>
      <trkpt lat="47.32443" lon="-1.61922">
        <ele>47.4</ele>
        <time>2015-05-10T08:15:23Z</time>
      </trkpt>
      <trkpt lat="47.32446" lon="-1.61923">
        <ele>47.8</ele>
        <time>2015-05-10T08:15:24Z</time>
      </trkpt>
      <trkpt lat="47.3245" lon="-1.61924">
        <ele>48.2</ele>
        <time>2015-05-10T08:15:25Z</time>
      </trkpt>
      <trkpt lat="47.32453" lon="-1.61924">
        <ele>48.6</ele>
        <time>2015-05-10T08:15:26Z</time>
      </trkpt>
      <trkpt lat="47.32456" lon="-1.61924">
        <ele>48.9</ele>
        <time>2015-05-10T08:15:27Z</time>
      </trkpt>
      <trkpt lat="47.32459" lon="-1.61924">
        <ele>49.2</ele>
        <time>2015-05-10T08:15:29Z</time>
      </trkpt>
      <trkpt lat="47.32463" lon="-1.61924">
        <ele>49</ele>
        <time>2015-05-10T08:15:31Z</time>
      </trkpt>
      <trkpt lat="47.32466" lon="-1.61924">
        <ele>48.9</ele>
        <time>2015-05-10T08:15:33Z</time>
      </trkpt>
      <trkpt lat="47.32469" lon="-1.61923">
        <ele>48.8</ele>
        <time>2015-05-10T08:15:36Z</time>
      </trkpt>
      <trkpt lat="47.32472" lon="-1.61923">
        <ele>48.6</ele>
        <time>2015-05-10T08:15:38Z</time>
      </trkpt>
      <trkpt lat="47.3247" lon="-1.61926">
        <ele>48.6</ele>
        <time>2015-05-10T08:15:44Z</time>
      </trkpt>
      <trkpt lat="47.32471" lon="-1.61932">
        <ele>48.4</ele>
        <time>2015-05-10T08:15:47Z</time>
      </trkpt>
      <trkpt lat="47.32467" lon="-1.61934">
        <ele>48.5</ele>
        <time>2015-05-10T08:15:49Z</time>
      </trkpt>
      <trkpt lat="47.32464" lon="-1.61933">
        <ele>48.7</ele>
        <time>2015-05-10T08:15:52Z</time>
      </trkpt>
      <trkpt lat="47.32462" lon="-1.61929">
        <ele>48.9</ele>
        <time>2015-05-10T08:15:55Z</time>
      </trkpt>
      <trkpt lat="47.32458" lon="-1.61928">
        <ele>49.1</ele>
        <time>2015-05-10T08:15:59Z</time>
      </trkpt>
      <trkpt lat="47.32455" lon="-1.61927">
        <ele>48.7</ele>
        <time>2015-05-10T08:16:00Z</time>
      </trkpt>
      <trkpt lat="47.32451" lon="-1.61926">
        <ele>48.2</ele>
        <time>2015-05-10T08:16:02Z</time>
      </trkpt>
      <trkpt lat="47.32447" lon="-1.61926">
        <ele>47.8</ele>
        <time>2015-05-10T08:16:05Z</time>
      </trkpt>
      <trkpt lat="47.32445" lon="-1.61922">
        <ele>47.6</ele>
        <time>2015-05-10T08:16:07Z</time>
      </trkpt>
      <trkpt lat="47.3244" lon="-1.61914">
        <ele>47.2</ele>
        <time>2015-05-10T08:16:09Z</time>
      </trkpt>
      <trkpt lat="47.32439" lon="-1.6191">
        <ele>47.2</ele>
        <time>2015-05-10T08:16:10Z</time>
      </trkpt>
      <trkpt lat="47.32436" lon="-1.61905">
        <ele>47</ele>
        <time>2015-05-10T08:16:11Z</time>
      </trkpt>
      <trkpt lat="47.32433" lon="-1.61902">
        <ele>46.6</ele>
        <time>2015-05-10T08:16:13Z</time>
      </trkpt>
      <trkpt lat="47.32429" lon="-1.61899">
        <ele>46.2</ele>
        <time>2015-05-10T08:16:14Z</time>
      </trkpt>
      <trkpt lat="47.32425" lon="-1.61896">
        <ele>45.7</ele>
        <time>2015-05-10T08:16:15Z</time>
      </trkpt>
      <trkpt lat="47.32422" lon="-1.61895">
        <ele>45.3</ele>
        <time>2015-05-10T08:16:16Z</time>
      </trkpt>
      <trkpt lat="47.32418" lon="-1.61891">
        <ele>44.9</ele>
        <time>2015-05-10T08:16:17Z</time>
      </trkpt>
      <trkpt lat="47.32414" lon="-1.61889">
        <ele>44.4</ele>
        <time>2015-05-10T08:16:19Z</time>
      </trkpt>
      <trkpt lat="47.32412" lon="-1.61891">
        <ele>44</ele>
        <time>2015-05-10T08:16:20Z</time>
      </trkpt>
      <trkpt lat="47.32409" lon="-1.61899">
        <ele>43.6</ele>
        <time>2015-05-10T08:16:22Z</time>
      </trkpt>
      <trkpt lat="47.32406" lon="-1.61905">
        <ele>43.1</ele>
        <time>2015-05-10T08:16:24Z</time>
      </trkpt>
      <trkpt lat="47.32401" lon="-1.61907">
        <ele>42.4</ele>
        <time>2015-05-10T08:16:25Z</time>
      </trkpt>
      <trkpt lat="47.32397" lon="-1.6191">
        <ele>41.8</ele>
        <time>2015-05-10T08:16:26Z</time>
      </trkpt>
      <trkpt lat="47.32394" lon="-1.61913">
        <ele>41.4</ele>
        <time>2015-05-10T08:16:27Z</time>
      </trkpt>
      <trkpt lat="47.32391" lon="-1.61917">
        <ele>41.1</ele>
        <time>2015-05-10T08:16:28Z</time>
      </trkpt>
      <trkpt lat="47.32389" lon="-1.61922">
        <ele>40.7</ele>
        <time>2015-05-10T08:16:29Z</time>
      </trkpt>
      <trkpt lat="47.32385" lon="-1.61926">
        <ele>40.2</ele>
        <time>2015-05-10T08:16:30Z</time>
      </trkpt>
      <trkpt lat="47.32382" lon="-1.6193">
        <ele>39.8</ele>
        <time>2015-05-10T08:16:31Z</time>
      </trkpt>
      <trkpt lat="47.32379" lon="-1.61934">
        <ele>39.5</ele>
        <time>2015-05-10T08:16:32Z</time>
      </trkpt>
      <trkpt lat="47.32377" lon="-1.61937">
        <ele>39.2</ele>
        <time>2015-05-10T08:16:33Z</time>
      </trkpt>
      <trkpt lat="47.32374" lon="-1.61941">
        <ele>38.9</ele>
        <time>2015-05-10T08:16:34Z</time>
      </trkpt>
      <trkpt lat="47.32371" lon="-1.61942">
        <ele>38.7</ele>
        <time>2015-05-10T08:16:35Z</time>
      </trkpt>
      <trkpt lat="47.32366" lon="-1.6194">
        <ele>38.4</ele>
        <time>2015-05-10T08:16:36Z</time>
      </trkpt>
      <trkpt lat="47.32361" lon="-1.61937">
        <ele>38</ele>
        <time>2015-05-10T08:16:37Z</time>
      </trkpt>
      <trkpt lat="47.32357" lon="-1.61934">
        <ele>37.7</ele>
        <time>2015-05-10T08:16:39Z</time>
      </trkpt>
      <trkpt lat="47.32354" lon="-1.61934">
        <ele>37.5</ele>
        <time>2015-05-10T08:16:40Z</time>
      </trkpt>
      <trkpt lat="47.32352" lon="-1.61933">
        <ele>37.3</ele>
        <time>2015-05-10T08:16:41Z</time>
      </trkpt>
      <trkpt lat="47.32349" lon="-1.6193">
        <ele>37.1</ele>
        <time>2015-05-10T08:16:43Z</time>
      </trkpt>
      <trkpt lat="47.32345" lon="-1.61928">
        <ele>36.9</ele>
        <time>2015-05-10T08:16:45Z</time>
      </trkpt>
      <trkpt lat="47.32343" lon="-1.61927">
        <ele>36.7</ele>
        <time>2015-05-10T08:16:46Z</time>
      </trkpt>
      <trkpt lat="47.3234" lon="-1.61925">
        <ele>36.5</ele>
        <time>2015-05-10T08:16:47Z</time>
      </trkpt>
      <trkpt lat="47.32337" lon="-1.61923">
        <ele>36.2</ele>
        <time>2015-05-10T08:16:48Z</time>
      </trkpt>
      <trkpt lat="47.32332" lon="-1.61921">
        <ele>35.9</ele>
        <time>2015-05-10T08:16:50Z</time>
      </trkpt>
      <trkpt lat="47.32328" lon="-1.61918">
        <ele>35.6</ele>
        <time>2015-05-10T08:16:52Z</time>
      </trkpt>
      <trkpt lat="47.32325" lon="-1.61917">
        <ele>35.4</ele>
        <time>2015-05-10T08:16:54Z</time>
      </trkpt>
      <trkpt lat="47.32321" lon="-1.61917">
        <ele>35.1</ele>
        <time>2015-05-10T08:16:56Z</time>
      </trkpt>
      <trkpt lat="47.32318" lon="-1.61915">
        <ele>34.9</ele>
        <time>2015-05-10T08:16:57Z</time>
      </trkpt>
      <trkpt lat="47.32313" lon="-1.61913">
        <ele>34.6</ele>
        <time>2015-05-10T08:16:59Z</time>
      </trkpt>
      <trkpt lat="47.32308" lon="-1.61909">
        <ele>34.2</ele>
        <time>2015-05-10T08:17:00Z</time>
      </trkpt>
      <trkpt lat="47.32305" lon="-1.61907">
        <ele>34</ele>
        <time>2015-05-10T08:17:01Z</time>
      </trkpt>
      <trkpt lat="47.32302" lon="-1.61904">
        <ele>33.7</ele>
        <time>2015-05-10T08:17:03Z</time>
      </trkpt>
      <trkpt lat="47.32298" lon="-1.61903">
        <ele>33.5</ele>
        <time>2015-05-10T08:17:04Z</time>
      </trkpt>
      <trkpt lat="47.32296" lon="-1.619">
        <ele>33.3</ele>
        <time>2015-05-10T08:17:05Z</time>
      </trkpt>
      <trkpt lat="47.32294" lon="-1.61898">
        <ele>33.1</ele>
        <time>2015-05-10T08:17:06Z</time>
      </trkpt>
      <trkpt lat="47.32291" lon="-1.61895">
        <ele>32.8</ele>
        <time>2015-05-10T08:17:07Z</time>
      </trkpt>
      <trkpt lat="47.32287" lon="-1.61893">
        <ele>32.3</ele>
        <time>2015-05-10T08:17:08Z</time>
      </trkpt>
      <trkpt lat="47.32283" lon="-1.6189">
        <ele>31.8</ele>
        <time>2015-05-10T08:17:09Z</time>
      </trkpt>
      <trkpt lat="47.32281" lon="-1.61886">
        <ele>31.5</ele>
        <time>2015-05-10T08:17:10Z</time>
      </trkpt>
      <trkpt lat="47.32278" lon="-1.61881">
        <ele>31</ele>
        <time>2015-05-10T08:17:12Z</time>
      </trkpt>
      <trkpt lat="47.32274" lon="-1.61876">
        <ele>30.4</ele>
        <time>2015-05-10T08:17:14Z</time>
      </trkpt>
      <trkpt lat="47.32268" lon="-1.61875">
        <ele>29.6</ele>
        <time>2015-05-10T08:17:15Z</time>
      </trkpt>
      <trkpt lat="47.32263" lon="-1.61873">
        <ele>28.9</ele>
        <time>2015-05-10T08:17:16Z</time>
      </trkpt>
      <trkpt lat="47.32245" lon="-1.61862">
        <ele>26.7</ele>
        <time>2015-05-10T08:17:18Z</time>
      </trkpt>
      <trkpt lat="47.32243" lon="-1.61856">
        <ele>26.6</ele>
        <time>2015-05-10T08:17:20Z</time>
      </trkpt>
      <trkpt lat="47.32242" lon="-1.6185">
        <ele>26.6</ele>
        <time>2015-05-10T08:17:22Z</time>
      </trkpt>
      <trkpt lat="47.3224" lon="-1.61844">
        <ele>26.5</ele>
        <time>2015-05-10T08:17:24Z</time>
      </trkpt>
      <trkpt lat="47.32238" lon="-1.61837">
        <ele>26.4</ele>
        <time>2015-05-10T08:17:26Z</time>
      </trkpt>
      <trkpt lat="47.32237" lon="-1.61828">
        <ele>26.4</ele>
        <time>2015-05-10T08:17:30Z</time>
      </trkpt>
      <trkpt lat="47.32234" lon="-1.61818">
        <ele>26.3</ele>
        <time>2015-05-10T08:17:32Z</time>
      </trkpt>
      <trkpt lat="47.32232" lon="-1.61813">
        <ele>26.1</ele>
        <time>2015-05-10T08:17:33Z</time>
      </trkpt>
      <trkpt lat="47.3223" lon="-1.6181">
        <ele>25.8</ele>
        <time>2015-05-10T08:17:34Z</time>
      </trkpt>
      <trkpt lat="47.32226" lon="-1.61807">
        <ele>25.3</ele>
        <time>2015-05-10T08:17:36Z</time>
      </trkpt>
      <trkpt lat="47.32224" lon="-1.61806">
        <ele>25</ele>
        <time>2015-05-10T08:17:37Z</time>
      </trkpt>
      <trkpt lat="47.32219" lon="-1.618">
        <ele>24.4</ele>
        <time>2015-05-10T08:17:38Z</time>
      </trkpt>
      <trkpt lat="47.32214" lon="-1.61794">
        <ele>23.9</ele>
        <time>2015-05-10T08:17:39Z</time>
      </trkpt>
      <trkpt lat="47.32207" lon="-1.61781">
        <ele>23.4</ele>
        <time>2015-05-10T08:17:40Z</time>
      </trkpt>
      <trkpt lat="47.32204" lon="-1.61777">
        <ele>23.4</ele>
        <time>2015-05-10T08:17:41Z</time>
      </trkpt>
      <trkpt lat="47.32197" lon="-1.61765">
        <ele>23.5</ele>
        <time>2015-05-10T08:17:42Z</time>
      </trkpt>
      <trkpt lat="47.32193" lon="-1.6176">
        <ele>23.4</ele>
        <time>2015-05-10T08:17:43Z</time>
      </trkpt>
      <trkpt lat="47.3219" lon="-1.61757">
        <ele>23.3</ele>
        <time>2015-05-10T08:17:44Z</time>
      </trkpt>
      <trkpt lat="47.32186" lon="-1.61755">
        <ele>23.1</ele>
        <time>2015-05-10T08:17:45Z</time>
      </trkpt>
      <trkpt lat="47.32182" lon="-1.61752">
        <ele>22.9</ele>
        <time>2015-05-10T08:17:46Z</time>
      </trkpt>
      <trkpt lat="47.32179" lon="-1.61749">
        <ele>22.8</ele>
        <time>2015-05-10T08:17:47Z</time>
      </trkpt>
      <trkpt lat="47.32177" lon="-1.61746">
        <ele>22.6</ele>
        <time>2015-05-10T08:17:48Z</time>
      </trkpt>
      <trkpt lat="47.32172" lon="-1.61735">
        <ele>22.5</ele>
        <time>2015-05-10T08:17:49Z</time>
      </trkpt>
      <trkpt lat="47.32166" lon="-1.61725">
        <ele>22.1</ele>
        <time>2015-05-10T08:17:50Z</time>
      </trkpt>
      <trkpt lat="47.32161" lon="-1.6172">
        <ele>21.7</ele>
        <time>2015-05-10T08:17:51Z</time>
      </trkpt>
      <trkpt lat="47.32157" lon="-1.61715">
        <ele>21.4</ele>
        <time>2015-05-10T08:17:52Z</time>
      </trkpt>
      <trkpt lat="47.32152" lon="-1.61709">
        <ele>20.9</ele>
        <time>2015-05-10T08:17:53Z</time>
      </trkpt>
      <trkpt lat="47.32146" lon="-1.61702">
        <ele>20.4</ele>
        <time>2015-05-10T08:17:54Z</time>
      </trkpt>
      <trkpt lat="47.32139" lon="-1.61693">
        <ele>19.9</ele>
        <time>2015-05-10T08:17:55Z</time>
      </trkpt>
      <trkpt lat="47.32133" lon="-1.61685">
        <ele>19.4</ele>
        <time>2015-05-10T08:17:56Z</time>
      </trkpt>
      <trkpt lat="47.32127" lon="-1.61679">
        <ele>19</ele>
        <time>2015-05-10T08:17:57Z</time>
      </trkpt>
      <trkpt lat="47.32121" lon="-1.61671">
        <ele>18.8</ele>
        <time>2015-05-10T08:17:58Z</time>
      </trkpt>
      <trkpt lat="47.32115" lon="-1.61661">
        <ele>18.8</ele>
        <time>2015-05-10T08:17:59Z</time>
      </trkpt>
      <trkpt lat="47.32108" lon="-1.61652">
        <ele>18.7</ele>
        <time>2015-05-10T08:18:00Z</time>
      </trkpt>
      <trkpt lat="47.32102" lon="-1.61645">
        <ele>18.5</ele>
        <time>2015-05-10T08:18:01Z</time>
      </trkpt>
      <trkpt lat="47.32095" lon="-1.61637">
        <ele>18.4</ele>
        <time>2015-05-10T08:18:02Z</time>
      </trkpt>
      <trkpt lat="47.3209" lon="-1.6163">
        <ele>18.3</ele>
        <time>2015-05-10T08:18:03Z</time>
      </trkpt>
      <trkpt lat="47.32085" lon="-1.61625">
        <ele>18.1</ele>
        <time>2015-05-10T08:18:04Z</time>
      </trkpt>
      <trkpt lat="47.32082" lon="-1.6162">
        <ele>18</ele>
        <time>2015-05-10T08:18:05Z</time>
      </trkpt>
      <trkpt lat="47.32078" lon="-1.61616">
        <ele>17.8</ele>
        <time>2015-05-10T08:18:06Z</time>
      </trkpt>
      <trkpt lat="47.32074" lon="-1.61612">
        <ele>17.7</ele>
        <time>2015-05-10T08:18:07Z</time>
      </trkpt>
      <trkpt lat="47.32069" lon="-1.61611">
        <ele>17.5</ele>
        <time>2015-05-10T08:18:08Z</time>
      </trkpt>
      <trkpt lat="47.32064" lon="-1.61608">
        <ele>17.3</ele>
        <time>2015-05-10T08:18:09Z</time>
      </trkpt>
      <trkpt lat="47.32059" lon="-1.61606">
        <ele>17</ele>
        <time>2015-05-10T08:18:10Z</time>
      </trkpt>
      <trkpt lat="47.32052" lon="-1.61604">
        <ele>16.7</ele>
        <time>2015-05-10T08:18:11Z</time>
      </trkpt>
      <trkpt lat="47.32045" lon="-1.61603">
        <ele>16.4</ele>
        <time>2015-05-10T08:18:12Z</time>
      </trkpt>
      <trkpt lat="47.32039" lon="-1.61603">
        <ele>16.4</ele>
        <time>2015-05-10T08:18:13Z</time>
      </trkpt>
      <trkpt lat="47.32032" lon="-1.61605">
        <ele>16.8</ele>
        <time>2015-05-10T08:18:14Z</time>
      </trkpt>
      <trkpt lat="47.32025" lon="-1.61608">
        <ele>17.1</ele>
        <time>2015-05-10T08:18:15Z</time>
      </trkpt>
      <trkpt lat="47.32019" lon="-1.61611">
        <ele>17.4</ele>
        <time>2015-05-10T08:18:16Z</time>
      </trkpt>
      <trkpt lat="47.32013" lon="-1.61613">
        <ele>17.8</ele>
        <time>2015-05-10T08:18:17Z</time>
      </trkpt>
      <trkpt lat="47.32008" lon="-1.61615">
        <ele>18.1</ele>
        <time>2015-05-10T08:18:18Z</time>
      </trkpt>
      <trkpt lat="47.32001" lon="-1.61617">
        <ele>18.5</ele>
        <time>2015-05-10T08:18:19Z</time>
      </trkpt>
      <trkpt lat="47.31994" lon="-1.61619">
        <ele>18.8</ele>
        <time>2015-05-10T08:18:20Z</time>
      </trkpt>
      <trkpt lat="47.31989" lon="-1.61623">
        <ele>19.2</ele>
        <time>2015-05-10T08:18:21Z</time>
      </trkpt>
      <trkpt lat="47.31984" lon="-1.61626">
        <ele>19.5</ele>
        <time>2015-05-10T08:18:22Z</time>
      </trkpt>
      <trkpt lat="47.31979" lon="-1.61629">
        <ele>19.8</ele>
        <time>2015-05-10T08:18:23Z</time>
      </trkpt>
      <trkpt lat="47.31975" lon="-1.61632">
        <ele>20.1</ele>
        <time>2015-05-10T08:18:24Z</time>
      </trkpt>
      <trkpt lat="47.31971" lon="-1.61635">
        <ele>20.4</ele>
        <time>2015-05-10T08:18:26Z</time>
      </trkpt>
      <trkpt lat="47.31968" lon="-1.61637">
        <ele>20.7</ele>
        <time>2015-05-10T08:18:28Z</time>
      </trkpt>
      <trkpt lat="47.31963" lon="-1.6164">
        <ele>21.1</ele>
        <time>2015-05-10T08:18:31Z</time>
      </trkpt>
      <trkpt lat="47.3196" lon="-1.61642">
        <ele>21.3</ele>
        <time>2015-05-10T08:18:32Z</time>
      </trkpt>
      <trkpt lat="47.31958" lon="-1.61644">
        <ele>21.6</ele>
        <time>2015-05-10T08:18:33Z</time>
      </trkpt>
      <trkpt lat="47.31952" lon="-1.61646">
        <ele>22.3</ele>
        <time>2015-05-10T08:18:35Z</time>
      </trkpt>
      <trkpt lat="47.31949" lon="-1.61647">
        <ele>22.7</ele>
        <time>2015-05-10T08:18:36Z</time>
      </trkpt>
      <trkpt lat="47.31945" lon="-1.61647">
        <ele>23.2</ele>
        <time>2015-05-10T08:18:38Z</time>
      </trkpt>
      <trkpt lat="47.31943" lon="-1.61648">
        <ele>23.6</ele>
        <time>2015-05-10T08:18:40Z</time>
      </trkpt>
      <trkpt lat="47.31939" lon="-1.6165">
        <ele>24.1</ele>
        <time>2015-05-10T08:18:42Z</time>
      </trkpt>
      <trkpt lat="47.31936" lon="-1.61655">
        <ele>24.6</ele>
        <time>2015-05-10T08:18:44Z</time>
      </trkpt>
      <trkpt lat="47.31933" lon="-1.61657">
        <ele>25</ele>
        <time>2015-05-10T08:18:45Z</time>
      </trkpt>
      <trkpt lat="47.31931" lon="-1.61659">
        <ele>25.3</ele>
        <time>2015-05-10T08:18:46Z</time>
      </trkpt>
      <trkpt lat="47.31927" lon="-1.61663">
        <ele>25.8</ele>
        <time>2015-05-10T08:18:47Z</time>
      </trkpt>
      <trkpt lat="47.31924" lon="-1.61667">
        <ele>26.3</ele>
        <time>2015-05-10T08:18:49Z</time>
      </trkpt>
      <trkpt lat="47.31922" lon="-1.6167">
        <ele>26.6</ele>
        <time>2015-05-10T08:18:50Z</time>
      </trkpt>
      <trkpt lat="47.3192" lon="-1.61673">
        <ele>27</ele>
        <time>2015-05-10T08:18:52Z</time>
      </trkpt>
      <trkpt lat="47.31918" lon="-1.61678">
        <ele>27.3</ele>
        <time>2015-05-10T08:18:54Z</time>
      </trkpt>
      <trkpt lat="47.31915" lon="-1.61681">
        <ele>27.8</ele>
        <time>2015-05-10T08:18:56Z</time>
      </trkpt>
      <trkpt lat="47.31912" lon="-1.61685">
        <ele>28.1</ele>
        <time>2015-05-10T08:18:58Z</time>
      </trkpt>
      <trkpt lat="47.31908" lon="-1.61689">
        <ele>28.7</ele>
        <time>2015-05-10T08:19:00Z</time>
      </trkpt>
      <trkpt lat="47.31906" lon="-1.61693">
        <ele>29.1</ele>
        <time>2015-05-10T08:19:02Z</time>
      </trkpt>
      <trkpt lat="47.31904" lon="-1.61699">
        <ele>29.3</ele>
        <time>2015-05-10T08:19:04Z</time>
      </trkpt>
      <trkpt lat="47.31904" lon="-1.61704">
        <ele>29.5</ele>
        <time>2015-05-10T08:19:06Z</time>
      </trkpt>
      <trkpt lat="47.31902" lon="-1.61708">
        <ele>29.7</ele>
        <time>2015-05-10T08:19:08Z</time>
      </trkpt>
      <trkpt lat="47.31901" lon="-1.61712">
        <ele>29.9</ele>
        <time>2015-05-10T08:19:10Z</time>
      </trkpt>
      <trkpt lat="47.31899" lon="-1.61719">
        <ele>30.1</ele>
        <time>2015-05-10T08:19:12Z</time>
      </trkpt>
      <trkpt lat="47.31898" lon="-1.61724">
        <ele>30.2</ele>
        <time>2015-05-10T08:19:14Z</time>
      </trkpt>
      <trkpt lat="47.31895" lon="-1.61729">
        <ele>30.6</ele>
        <time>2015-05-10T08:19:16Z</time>
      </trkpt>
      <trkpt lat="47.31894" lon="-1.61735">
        <ele>30.7</ele>
        <time>2015-05-10T08:19:18Z</time>
      </trkpt>
      <trkpt lat="47.31893" lon="-1.61742">
        <ele>30.9</ele>
        <time>2015-05-10T08:19:20Z</time>
      </trkpt>
      <trkpt lat="47.31891" lon="-1.61748">
        <ele>31.1</ele>
        <time>2015-05-10T08:19:22Z</time>
      </trkpt>
      <trkpt lat="47.3189" lon="-1.61752">
        <ele>31.3</ele>
        <time>2015-05-10T08:19:24Z</time>
      </trkpt>
      <trkpt lat="47.31889" lon="-1.61759">
        <ele>31.5</ele>
        <time>2015-05-10T08:19:26Z</time>
      </trkpt>
      <trkpt lat="47.31887" lon="-1.61764">
        <ele>31.9</ele>
        <time>2015-05-10T08:19:28Z</time>
      </trkpt>
      <trkpt lat="47.31886" lon="-1.61768">
        <ele>32.1</ele>
        <time>2015-05-10T08:19:29Z</time>
      </trkpt>
      <trkpt lat="47.31884" lon="-1.61774">
        <ele>32.3</ele>
        <time>2015-05-10T08:19:31Z</time>
      </trkpt>
      <trkpt lat="47.31883" lon="-1.61779">
        <ele>32.6</ele>
        <time>2015-05-10T08:19:33Z</time>
      </trkpt>
      <trkpt lat="47.31882" lon="-1.61783">
        <ele>32.7</ele>
        <time>2015-05-10T08:19:34Z</time>
      </trkpt>
      <trkpt lat="47.31881" lon="-1.61789">
        <ele>32.9</ele>
        <time>2015-05-10T08:19:36Z</time>
      </trkpt>
      <trkpt lat="47.31879" lon="-1.61791">
        <ele>33.3</ele>
        <time>2015-05-10T08:19:37Z</time>
      </trkpt>
      <trkpt lat="47.31877" lon="-1.61796">
        <ele>33.5</ele>
        <time>2015-05-10T08:19:39Z</time>
      </trkpt>
      <trkpt lat="47.31877" lon="-1.61801">
        <ele>33.4</ele>
        <time>2015-05-10T08:19:41Z</time>
      </trkpt>
      <trkpt lat="47.31874" lon="-1.61803">
        <ele>33.6</ele>
        <time>2015-05-10T08:19:44Z</time>
      </trkpt>
      <trkpt lat="47.31874" lon="-1.61807">
        <ele>33.5</ele>
        <time>2015-05-10T08:19:49Z</time>
      </trkpt>
      <trkpt lat="47.31874" lon="-1.61812">
        <ele>33.3</ele>
        <time>2015-05-10T08:19:51Z</time>
      </trkpt>
      <trkpt lat="47.31875" lon="-1.61816">
        <ele>33.1</ele>
        <time>2015-05-10T08:19:52Z</time>
      </trkpt>
      <trkpt lat="47.31876" lon="-1.61823">
        <ele>32.7</ele>
        <time>2015-05-10T08:19:53Z</time>
      </trkpt>
      <trkpt lat="47.31876" lon="-1.61827">
        <ele>32.5</ele>
        <time>2015-05-10T08:19:54Z</time>
      </trkpt>
      <trkpt lat="47.31877" lon="-1.61833">
        <ele>32.2</ele>
        <time>2015-05-10T08:19:56Z</time>
      </trkpt>
      <trkpt lat="47.31878" lon="-1.61839">
        <ele>31.8</ele>
        <time>2015-05-10T08:19:59Z</time>
      </trkpt>
      <trkpt lat="47.3188" lon="-1.61845">
        <ele>31.4</ele>
        <time>2015-05-10T08:20:00Z</time>
      </trkpt>
      <trkpt lat="47.31882" lon="-1.61852">
        <ele>30.9</ele>
        <time>2015-05-10T08:20:02Z</time>
      </trkpt>
      <trkpt lat="47.31883" lon="-1.6186">
        <ele>30.5</ele>
        <time>2015-05-10T08:20:04Z</time>
      </trkpt>
      <trkpt lat="47.31883" lon="-1.61864">
        <ele>30.3</ele>
        <time>2015-05-10T08:20:06Z</time>
      </trkpt>
      <trkpt lat="47.31883" lon="-1.6187">
        <ele>30.1</ele>
        <time>2015-05-10T08:20:08Z</time>
      </trkpt>
      <trkpt lat="47.31883" lon="-1.61877">
        <ele>29.9</ele>
        <time>2015-05-10T08:20:10Z</time>
      </trkpt>
      <trkpt lat="47.31884" lon="-1.61883">
        <ele>29.6</ele>
        <time>2015-05-10T08:20:11Z</time>
      </trkpt>
      <trkpt lat="47.31883" lon="-1.6189">
        <ele>29.3</ele>
        <time>2015-05-10T08:20:13Z</time>
      </trkpt>
      <trkpt lat="47.31883" lon="-1.61894">
        <ele>29.2</ele>
        <time>2015-05-10T08:20:14Z</time>
      </trkpt>
      <trkpt lat="47.31881" lon="-1.61898">
        <ele>29.2</ele>
        <time>2015-05-10T08:20:15Z</time>
      </trkpt>
      <trkpt lat="47.31881" lon="-1.61903">
        <ele>29</ele>
        <time>2015-05-10T08:20:16Z</time>
      </trkpt>
      <trkpt lat="47.3188" lon="-1.61906">
        <ele>29</ele>
        <time>2015-05-10T08:20:17Z</time>
      </trkpt>
      <trkpt lat="47.31878" lon="-1.61911">
        <ele>29</ele>
        <time>2015-05-10T08:20:19Z</time>
      </trkpt>
      <trkpt lat="47.31877" lon="-1.61918">
        <ele>28.8</ele>
        <time>2015-05-10T08:20:21Z</time>
      </trkpt>
      <trkpt lat="47.31876" lon="-1.61924">
        <ele>28.5</ele>
        <time>2015-05-10T08:20:23Z</time>
      </trkpt>
      <trkpt lat="47.31874" lon="-1.61931">
        <ele>28.3</ele>
        <time>2015-05-10T08:20:25Z</time>
      </trkpt>
      <trkpt lat="47.31874" lon="-1.61936">
        <ele>28.1</ele>
        <time>2015-05-10T08:20:27Z</time>
      </trkpt>
      <trkpt lat="47.31872" lon="-1.61939">
        <ele>28</ele>
        <time>2015-05-10T08:20:29Z</time>
      </trkpt>
      <trkpt lat="47.31857" lon="-1.61945">
        <ele>28.1</ele>
        <time>2015-05-10T08:20:36Z</time>
      </trkpt>
      <trkpt lat="47.31851" lon="-1.61945">
        <ele>28.2</ele>
        <time>2015-05-10T08:20:37Z</time>
      </trkpt>
      <trkpt lat="47.31847" lon="-1.61944">
        <ele>28.3</ele>
        <time>2015-05-10T08:20:39Z</time>
      </trkpt>
      <trkpt lat="47.31844" lon="-1.61944">
        <ele>28.4</ele>
        <time>2015-05-10T08:20:41Z</time>
      </trkpt>
      <trkpt lat="47.31811" lon="-1.6191">
        <ele>30.4</ele>
        <time>2015-05-10T08:22:10Z</time>
      </trkpt>
      <trkpt lat="47.31812" lon="-1.61906">
        <ele>30.6</ele>
        <time>2015-05-10T08:22:12Z</time>
      </trkpt>
      <trkpt lat="47.31814" lon="-1.61901">
        <ele>30.7</ele>
        <time>2015-05-10T08:22:14Z</time>
      </trkpt>
      <trkpt lat="47.31816" lon="-1.61896">
        <ele>30.9</ele>
        <time>2015-05-10T08:22:17Z</time>
      </trkpt>
      <trkpt lat="47.31819" lon="-1.61893">
        <ele>31</ele>
        <time>2015-05-10T08:22:19Z</time>
      </trkpt>
      <trkpt lat="47.31821" lon="-1.61887">
        <ele>31.2</ele>
        <time>2015-05-10T08:22:21Z</time>
      </trkpt>
      <trkpt lat="47.31823" lon="-1.61884">
        <ele>31.3</ele>
        <time>2015-05-10T08:22:23Z</time>
      </trkpt>
      <trkpt lat="47.31822" lon="-1.6188">
        <ele>31.5</ele>
        <time>2015-05-10T08:22:26Z</time>
      </trkpt>
      <trkpt lat="47.31819" lon="-1.61878">
        <ele>31.5</ele>
        <time>2015-05-10T08:22:31Z</time>
      </trkpt>
      <trkpt lat="47.31812" lon="-1.61916">
        <ele>30.2</ele>
        <time>2015-05-10T08:23:00Z</time>
      </trkpt>
      <trkpt lat="47.31808" lon="-1.61914">
        <ele>30.3</ele>
        <time>2015-05-10T08:23:03Z</time>
      </trkpt>
      <trkpt lat="47.31807" lon="-1.61908">
        <ele>30.6</ele>
        <time>2015-05-10T08:23:07Z</time>
      </trkpt>
      <trkpt lat="47.31807" lon="-1.61904">
        <ele>30.7</ele>
        <time>2015-05-10T08:23:11Z</time>
      </trkpt>
      <trkpt lat="47.31808" lon="-1.61889">
        <ele>31.3</ele>
        <time>2015-05-10T08:23:15Z</time>
      </trkpt>
      <trkpt lat="47.3181" lon="-1.61883">
        <ele>31.5</ele>
        <time>2015-05-10T08:23:17Z</time>
      </trkpt>
      <trkpt lat="47.31811" lon="-1.61879">
        <ele>31.6</ele>
        <time>2015-05-10T08:23:19Z</time>
      </trkpt>
      <trkpt lat="47.31813" lon="-1.61881">
        <ele>31.5</ele>
        <time>2015-05-10T08:23:26Z</time>
      </trkpt>
      <trkpt lat="47.31812" lon="-1.61885">
        <ele>31.4</ele>
        <time>2015-05-10T08:23:28Z</time>
      </trkpt>
      <trkpt lat="47.31809" lon="-1.61884">
        <ele>31.5</ele>
        <time>2015-05-10T08:23:31Z</time>
      </trkpt>
      <trkpt lat="47.31806" lon="-1.61886">
        <ele>31.4</ele>
        <time>2015-05-10T08:23:35Z</time>
      </trkpt>
      <trkpt lat="47.31803" lon="-1.61884">
        <ele>31.5</ele>
        <time>2015-05-10T08:23:37Z</time>
      </trkpt>
      <trkpt lat="47.31801" lon="-1.61886">
        <ele>31.5</ele>
        <time>2015-05-10T08:23:41Z</time>
      </trkpt>
      <trkpt lat="47.318" lon="-1.61891">
        <ele>31.3</ele>
        <time>2015-05-10T08:23:47Z</time>
      </trkpt>
      <trkpt lat="47.31799" lon="-1.61899">
        <ele>31</ele>
        <time>2015-05-10T08:23:49Z</time>
      </trkpt>
      <trkpt lat="47.31798" lon="-1.61905">
        <ele>30.8</ele>
        <time>2015-05-10T08:23:51Z</time>
      </trkpt>
      <trkpt lat="47.31799" lon="-1.6191">
        <ele>30.6</ele>
        <time>2015-05-10T08:23:53Z</time>
      </trkpt>
      <trkpt lat="47.31802" lon="-1.61914">
        <ele>30.4</ele>
        <time>2015-05-10T08:23:55Z</time>
      </trkpt>
      <trkpt lat="47.31803" lon="-1.61917">
        <ele>30.3</ele>
        <time>2015-05-10T08:23:56Z</time>
      </trkpt>
      <trkpt lat="47.31803" lon="-1.61923">
        <ele>30.1</ele>
        <time>2015-05-10T08:23:57Z</time>
      </trkpt>
      <trkpt lat="47.31801" lon="-1.6193">
        <ele>29.9</ele>
        <time>2015-05-10T08:23:59Z</time>
      </trkpt>
      <trkpt lat="47.31797" lon="-1.61932">
        <ele>29.9</ele>
        <time>2015-05-10T08:24:01Z</time>
      </trkpt>
      <trkpt lat="47.31793" lon="-1.61933">
        <ele>29.9</ele>
        <time>2015-05-10T08:24:02Z</time>
      </trkpt>
      <trkpt lat="47.31789" lon="-1.61935">
        <ele>29.8</ele>
        <time>2015-05-10T08:24:03Z</time>
      </trkpt>
      <trkpt lat="47.31786" lon="-1.61937">
        <ele>29.5</ele>
        <time>2015-05-10T08:24:04Z</time>
      </trkpt>
      <trkpt lat="47.31782" lon="-1.6194">
        <ele>29.3</ele>
        <time>2015-05-10T08:24:05Z</time>
      </trkpt>
      <trkpt lat="47.31778" lon="-1.61945">
        <ele>29</ele>
        <time>2015-05-10T08:24:07Z</time>
      </trkpt>
      <trkpt lat="47.31775" lon="-1.61947">
        <ele>28.8</ele>
        <time>2015-05-10T08:24:08Z</time>
      </trkpt>
      <trkpt lat="47.31772" lon="-1.61949">
        <ele>28.6</ele>
        <time>2015-05-10T08:24:09Z</time>
      </trkpt>
      <trkpt lat="47.31768" lon="-1.61951">
        <ele>28.4</ele>
        <time>2015-05-10T08:24:10Z</time>
      </trkpt>
      <trkpt lat="47.31765" lon="-1.61952">
        <ele>28.3</ele>
        <time>2015-05-10T08:24:11Z</time>
      </trkpt>
      <trkpt lat="47.31761" lon="-1.61953">
        <ele>28.1</ele>
        <time>2015-05-10T08:24:12Z</time>
      </trkpt>
      <trkpt lat="47.31758" lon="-1.61953">
        <ele>28</ele>
        <time>2015-05-10T08:24:13Z</time>
      </trkpt>
      <trkpt lat="47.31754" lon="-1.61953">
        <ele>27.9</ele>
        <time>2015-05-10T08:24:14Z</time>
      </trkpt>
      <trkpt lat="47.31751" lon="-1.61952">
        <ele>27.8</ele>
        <time>2015-05-10T08:24:15Z</time>
      </trkpt>
      <trkpt lat="47.31748" lon="-1.61952">
        <ele>27.6</ele>
        <time>2015-05-10T08:24:16Z</time>
      </trkpt>
      <trkpt lat="47.31743" lon="-1.61952">
        <ele>27.5</ele>
        <time>2015-05-10T08:24:17Z</time>
      </trkpt>
      <trkpt lat="47.31737" lon="-1.61952">
        <ele>27.2</ele>
        <time>2015-05-10T08:24:18Z</time>
      </trkpt>
      <trkpt lat="47.31733" lon="-1.61952">
        <ele>27.1</ele>
        <time>2015-05-10T08:24:19Z</time>
      </trkpt>
      <trkpt lat="47.3173" lon="-1.61951">
        <ele>27</ele>
        <time>2015-05-10T08:24:20Z</time>
      </trkpt>
      <trkpt lat="47.31726" lon="-1.61951">
        <ele>26.9</ele>
        <time>2015-05-10T08:24:21Z</time>
      </trkpt>
      <trkpt lat="47.31722" lon="-1.6195">
        <ele>26.8</ele>
        <time>2015-05-10T08:24:22Z</time>
      </trkpt>
      <trkpt lat="47.31719" lon="-1.61951">
        <ele>26.6</ele>
        <time>2015-05-10T08:24:23Z</time>
      </trkpt>
      <trkpt lat="47.31715" lon="-1.6195">
        <ele>26.6</ele>
        <time>2015-05-10T08:24:24Z</time>
      </trkpt>
      <trkpt lat="47.31711" lon="-1.61949">
        <ele>26.4</ele>
        <time>2015-05-10T08:24:25Z</time>
      </trkpt>
      <trkpt lat="47.31707" lon="-1.61948">
        <ele>26.3</ele>
        <time>2015-05-10T08:24:26Z</time>
      </trkpt>
      <trkpt lat="47.31703" lon="-1.61947">
        <ele>26.3</ele>
        <time>2015-05-10T08:24:27Z</time>
      </trkpt>
      <trkpt lat="47.31699" lon="-1.61946">
        <ele>26.2</ele>
        <time>2015-05-10T08:24:28Z</time>
      </trkpt>
      <trkpt lat="47.31695" lon="-1.61946">
        <ele>26.1</ele>
        <time>2015-05-10T08:24:29Z</time>
      </trkpt>
      <trkpt lat="47.31691" lon="-1.61944">
        <ele>26.1</ele>
        <time>2015-05-10T08:24:30Z</time>
      </trkpt>
      <trkpt lat="47.31688" lon="-1.61943">
        <ele>26</ele>
        <time>2015-05-10T08:24:31Z</time>
      </trkpt>
      <trkpt lat="47.31684" lon="-1.61941">
        <ele>26</ele>
        <time>2015-05-10T08:24:32Z</time>
      </trkpt>
      <trkpt lat="47.31681" lon="-1.61939">
        <ele>26</ele>
        <time>2015-05-10T08:24:33Z</time>
      </trkpt>
      <trkpt lat="47.31677" lon="-1.61937">
        <ele>25.9</ele>
        <time>2015-05-10T08:24:34Z</time>
      </trkpt>
      <trkpt lat="47.31674" lon="-1.61935">
        <ele>25.9</ele>
        <time>2015-05-10T08:24:35Z</time>
      </trkpt>
      <trkpt lat="47.31671" lon="-1.61932">
        <ele>25.9</ele>
        <time>2015-05-10T08:24:36Z</time>
      </trkpt>
      <trkpt lat="47.31668" lon="-1.61929">
        <ele>25.9</ele>
        <time>2015-05-10T08:24:37Z</time>
      </trkpt>
      <trkpt lat="47.31664" lon="-1.61925">
        <ele>25.9</ele>
        <time>2015-05-10T08:24:38Z</time>
      </trkpt>
      <trkpt lat="47.31662" lon="-1.61921">
        <ele>26</ele>
        <time>2015-05-10T08:24:39Z</time>
      </trkpt>
      <trkpt lat="47.31659" lon="-1.61918">
        <ele>26</ele>
        <time>2015-05-10T08:24:40Z</time>
      </trkpt>
      <trkpt lat="47.31656" lon="-1.61914">
        <ele>26</ele>
        <time>2015-05-10T08:24:41Z</time>
      </trkpt>
      <trkpt lat="47.31654" lon="-1.6191">
        <ele>26</ele>
        <time>2015-05-10T08:24:42Z</time>
      </trkpt>
      <trkpt lat="47.31651" lon="-1.61906">
        <ele>26.1</ele>
        <time>2015-05-10T08:24:43Z</time>
      </trkpt>
      <trkpt lat="47.31648" lon="-1.61901">
        <ele>26.1</ele>
        <time>2015-05-10T08:24:44Z</time>
      </trkpt>
      <trkpt lat="47.31646" lon="-1.61897">
        <ele>26.1</ele>
        <time>2015-05-10T08:24:45Z</time>
      </trkpt>
      <trkpt lat="47.31643" lon="-1.61894">
        <ele>26.2</ele>
        <time>2015-05-10T08:24:46Z</time>
      </trkpt>
      <trkpt lat="47.31641" lon="-1.6189">
        <ele>26.2</ele>
        <time>2015-05-10T08:24:47Z</time>
      </trkpt>
      <trkpt lat="47.31638" lon="-1.61886">
        <ele>26.2</ele>
        <time>2015-05-10T08:24:48Z</time>
      </trkpt>
      <trkpt lat="47.31635" lon="-1.61882">
        <ele>26.2</ele>
        <time>2015-05-10T08:24:49Z</time>
      </trkpt>
      <trkpt lat="47.31633" lon="-1.61878">
        <ele>26.2</ele>
        <time>2015-05-10T08:24:50Z</time>
      </trkpt>
      <trkpt lat="47.31631" lon="-1.61874">
        <ele>26.3</ele>
        <time>2015-05-10T08:24:51Z</time>
      </trkpt>
      <trkpt lat="47.31629" lon="-1.6187">
        <ele>26.5</ele>
        <time>2015-05-10T08:24:52Z</time>
      </trkpt>
      <trkpt lat="47.31627" lon="-1.61865">
        <ele>26.7</ele>
        <time>2015-05-10T08:24:53Z</time>
      </trkpt>
      <trkpt lat="47.31625" lon="-1.61861">
        <ele>26.8</ele>
        <time>2015-05-10T08:24:54Z</time>
      </trkpt>
      <trkpt lat="47.31622" lon="-1.61859">
        <ele>27</ele>
        <time>2015-05-10T08:24:55Z</time>
      </trkpt>
      <trkpt lat="47.31619" lon="-1.61859">
        <ele>27.1</ele>
        <time>2015-05-10T08:24:56Z</time>
      </trkpt>
      <trkpt lat="47.31616" lon="-1.61858">
        <ele>27.1</ele>
        <time>2015-05-10T08:24:57Z</time>
      </trkpt>
      <trkpt lat="47.31612" lon="-1.61859">
        <ele>27.1</ele>
        <time>2015-05-10T08:24:58Z</time>
      </trkpt>
      <trkpt lat="47.31608" lon="-1.61859">
        <ele>27.2</ele>
        <time>2015-05-10T08:24:59Z</time>
      </trkpt>
      <trkpt lat="47.31604" lon="-1.61859">
        <ele>27.2</ele>
        <time>2015-05-10T08:25:00Z</time>
      </trkpt>
      <trkpt lat="47.316" lon="-1.6186">
        <ele>27.2</ele>
        <time>2015-05-10T08:25:01Z</time>
      </trkpt>
      <trkpt lat="47.31596" lon="-1.61859">
        <ele>27.3</ele>
        <time>2015-05-10T08:25:02Z</time>
      </trkpt>
      <trkpt lat="47.31591" lon="-1.61859">
        <ele>27.4</ele>
        <time>2015-05-10T08:25:03Z</time>
      </trkpt>
      <trkpt lat="47.31586" lon="-1.61859">
        <ele>27.5</ele>
        <time>2015-05-10T08:25:04Z</time>
      </trkpt>
      <trkpt lat="47.31581" lon="-1.61859">
        <ele>27.5</ele>
        <time>2015-05-10T08:25:05Z</time>
      </trkpt>
      <trkpt lat="47.31576" lon="-1.61859">
        <ele>27.6</ele>
        <time>2015-05-10T08:25:06Z</time>
      </trkpt>
      <trkpt lat="47.31572" lon="-1.61859">
        <ele>27.6</ele>
        <time>2015-05-10T08:25:07Z</time>
      </trkpt>
      <trkpt lat="47.31567" lon="-1.61859">
        <ele>27.7</ele>
        <time>2015-05-10T08:25:08Z</time>
      </trkpt>
      <trkpt lat="47.31561" lon="-1.61859">
        <ele>27.7</ele>
        <time>2015-05-10T08:25:09Z</time>
      </trkpt>
      <trkpt lat="47.31556" lon="-1.61859">
        <ele>27.8</ele>
        <time>2015-05-10T08:25:10Z</time>
      </trkpt>
      <trkpt lat="47.3155" lon="-1.6186">
        <ele>27.8</ele>
        <time>2015-05-10T08:25:11Z</time>
      </trkpt>
      <trkpt lat="47.31544" lon="-1.6186">
        <ele>27.9</ele>
        <time>2015-05-10T08:25:12Z</time>
      </trkpt>
      <trkpt lat="47.31538" lon="-1.61861">
        <ele>28</ele>
        <time>2015-05-10T08:25:13Z</time>
      </trkpt>
      <trkpt lat="47.31533" lon="-1.61861">
        <ele>28.3</ele>
        <time>2015-05-10T08:25:14Z</time>
      </trkpt>
      <trkpt lat="47.31526" lon="-1.61861">
        <ele>28.7</ele>
        <time>2015-05-10T08:25:15Z</time>
      </trkpt>
      <trkpt lat="47.3152" lon="-1.61861">
        <ele>29</ele>
        <time>2015-05-10T08:25:16Z</time>
      </trkpt>
      <trkpt lat="47.31515" lon="-1.6186">
        <ele>29.3</ele>
        <time>2015-05-10T08:25:17Z</time>
      </trkpt>
      <trkpt lat="47.3151" lon="-1.6186">
        <ele>29.6</ele>
        <time>2015-05-10T08:25:18Z</time>
      </trkpt>
      <trkpt lat="47.31504" lon="-1.61859">
        <ele>30</ele>
        <time>2015-05-10T08:25:19Z</time>
      </trkpt>
      <trkpt lat="47.31498" lon="-1.61858">
        <ele>30.3</ele>
        <time>2015-05-10T08:25:20Z</time>
      </trkpt>
      <trkpt lat="47.31493" lon="-1.61858">
        <ele>30.6</ele>
        <time>2015-05-10T08:25:21Z</time>
      </trkpt>
      <trkpt lat="47.31489" lon="-1.61857">
        <ele>30.8</ele>
        <time>2015-05-10T08:25:22Z</time>
      </trkpt>
      <trkpt lat="47.31484" lon="-1.61857">
        <ele>31.1</ele>
        <time>2015-05-10T08:25:23Z</time>
      </trkpt>
      <trkpt lat="47.3148" lon="-1.61858">
        <ele>31.3</ele>
        <time>2015-05-10T08:25:24Z</time>
      </trkpt>
      <trkpt lat="47.31477" lon="-1.6186">
        <ele>31.3</ele>
        <time>2015-05-10T08:25:25Z</time>
      </trkpt>
      <trkpt lat="47.31474" lon="-1.61864">
        <ele>31.4</ele>
        <time>2015-05-10T08:25:26Z</time>
      </trkpt>
      <trkpt lat="47.31469" lon="-1.61868">
        <ele>31.5</ele>
        <time>2015-05-10T08:25:27Z</time>
      </trkpt>
      <trkpt lat="47.31464" lon="-1.61872">
        <ele>31.7</ele>
        <time>2015-05-10T08:25:28Z</time>
      </trkpt>
      <trkpt lat="47.31459" lon="-1.61874">
        <ele>32</ele>
        <time>2015-05-10T08:25:29Z</time>
      </trkpt>
      <trkpt lat="47.31453" lon="-1.61874">
        <ele>32.2</ele>
        <time>2015-05-10T08:25:30Z</time>
      </trkpt>
      <trkpt lat="47.31447" lon="-1.61875">
        <ele>32.3</ele>
        <time>2015-05-10T08:25:31Z</time>
      </trkpt>
      <trkpt lat="47.31442" lon="-1.61875">
        <ele>32.4</ele>
        <time>2015-05-10T08:25:32Z</time>
      </trkpt>
      <trkpt lat="47.31437" lon="-1.61877">
        <ele>32.5</ele>
        <time>2015-05-10T08:25:33Z</time>
      </trkpt>
      <trkpt lat="47.31431" lon="-1.61877">
        <ele>32.6</ele>
        <time>2015-05-10T08:25:34Z</time>
      </trkpt>
      <trkpt lat="47.31427" lon="-1.61877">
        <ele>32.7</ele>
        <time>2015-05-10T08:25:35Z</time>
      </trkpt>
      <trkpt lat="47.31422" lon="-1.61877">
        <ele>32.8</ele>
        <time>2015-05-10T08:25:36Z</time>
      </trkpt>
      <trkpt lat="47.31418" lon="-1.61878">
        <ele>32.9</ele>
        <time>2015-05-10T08:25:37Z</time>
      </trkpt>
      <trkpt lat="47.31414" lon="-1.61878">
        <ele>33</ele>
        <time>2015-05-10T08:25:38Z</time>
      </trkpt>
      <trkpt lat="47.31409" lon="-1.61878">
        <ele>33.1</ele>
        <time>2015-05-10T08:25:39Z</time>
      </trkpt>
      <trkpt lat="47.31405" lon="-1.61878">
        <ele>33.2</ele>
        <time>2015-05-10T08:25:40Z</time>
      </trkpt>
      <trkpt lat="47.31401" lon="-1.61877">
        <ele>33.3</ele>
        <time>2015-05-10T08:25:41Z</time>
      </trkpt>
      <trkpt lat="47.31396" lon="-1.61877">
        <ele>33.4</ele>
        <time>2015-05-10T08:25:42Z</time>
      </trkpt>
      <trkpt lat="47.31392" lon="-1.61876">
        <ele>33.6</ele>
        <time>2015-05-10T08:25:43Z</time>
      </trkpt>
      <trkpt lat="47.31388" lon="-1.61876">
        <ele>33.7</ele>
        <time>2015-05-10T08:25:44Z</time>
      </trkpt>
      <trkpt lat="47.31384" lon="-1.61876">
        <ele>33.7</ele>
        <time>2015-05-10T08:25:45Z</time>
      </trkpt>
      <trkpt lat="47.3138" lon="-1.61877">
        <ele>33.8</ele>
        <time>2015-05-10T08:25:46Z</time>
      </trkpt>
      <trkpt lat="47.31376" lon="-1.61877">
        <ele>33.9</ele>
        <time>2015-05-10T08:25:47Z</time>
      </trkpt>
      <trkpt lat="47.31372" lon="-1.61878">
        <ele>34.4</ele>
        <time>2015-05-10T08:25:48Z</time>
      </trkpt>
      <trkpt lat="47.31367" lon="-1.61878">
        <ele>34.9</ele>
        <time>2015-05-10T08:25:49Z</time>
      </trkpt>
      <trkpt lat="47.31362" lon="-1.61881">
        <ele>35.6</ele>
        <time>2015-05-10T08:25:50Z</time>
      </trkpt>
      <trkpt lat="47.31359" lon="-1.6188">
        <ele>36</ele>
        <time>2015-05-10T08:25:51Z</time>
      </trkpt>
      <trkpt lat="47.31354" lon="-1.61879">
        <ele>36.8</ele>
        <time>2015-05-10T08:25:53Z</time>
      </trkpt>
      <trkpt lat="47.3135" lon="-1.61879">
        <ele>37.2</ele>
        <time>2015-05-10T08:25:54Z</time>
      </trkpt>
      <trkpt lat="47.31347" lon="-1.61879">
        <ele>37.6</ele>
        <time>2015-05-10T08:25:55Z</time>
      </trkpt>
      <trkpt lat="47.31344" lon="-1.61879">
        <ele>38</ele>
        <time>2015-05-10T08:25:56Z</time>
      </trkpt>
      <trkpt lat="47.31341" lon="-1.61879">
        <ele>38.4</ele>
        <time>2015-05-10T08:25:57Z</time>
      </trkpt>
      <trkpt lat="47.31337" lon="-1.61879">
        <ele>39</ele>
        <time>2015-05-10T08:25:58Z</time>
      </trkpt>
      <trkpt lat="47.31333" lon="-1.6188">
        <ele>39.4</ele>
        <time>2015-05-10T08:25:59Z</time>
      </trkpt>
      <trkpt lat="47.31329" lon="-1.61881">
        <ele>39.9</ele>
        <time>2015-05-10T08:26:00Z</time>
      </trkpt>
      <trkpt lat="47.31327" lon="-1.6188">
        <ele>40.3</ele>
        <time>2015-05-10T08:26:01Z</time>
      </trkpt>
      <trkpt lat="47.31322" lon="-1.6188">
        <ele>41</ele>
        <time>2015-05-10T08:26:03Z</time>
      </trkpt>
      <trkpt lat="47.31319" lon="-1.61881">
        <ele>41.3</ele>
        <time>2015-05-10T08:26:04Z</time>
      </trkpt>
      <trkpt lat="47.31315" lon="-1.61883">
        <ele>41.8</ele>
        <time>2015-05-10T08:26:05Z</time>
      </trkpt>
      <trkpt lat="47.31313" lon="-1.61883">
        <ele>42.1</ele>
        <time>2015-05-10T08:26:06Z</time>
      </trkpt>
      <trkpt lat="47.31309" lon="-1.61885">
        <ele>42.6</ele>
        <time>2015-05-10T08:26:08Z</time>
      </trkpt>
      <trkpt lat="47.31305" lon="-1.61885">
        <ele>43.1</ele>
        <time>2015-05-10T08:26:10Z</time>
      </trkpt>
      <trkpt lat="47.31302" lon="-1.61887">
        <ele>43.5</ele>
        <time>2015-05-10T08:26:12Z</time>
      </trkpt>
      <trkpt lat="47.31299" lon="-1.61889">
        <ele>43.8</ele>
        <time>2015-05-10T08:26:14Z</time>
      </trkpt>
      <trkpt lat="47.31295" lon="-1.61891">
        <ele>44.3</ele>
        <time>2015-05-10T08:26:17Z</time>
      </trkpt>
      <trkpt lat="47.31292" lon="-1.61892">
        <ele>44.8</ele>
        <time>2015-05-10T08:26:19Z</time>
      </trkpt>
      <trkpt lat="47.31286" lon="-1.61893">
        <ele>45.2</ele>
        <time>2015-05-10T08:26:21Z</time>
      </trkpt>
      <trkpt lat="47.31282" lon="-1.61893">
        <ele>45.5</ele>
        <time>2015-05-10T08:26:22Z</time>
      </trkpt>
      <trkpt lat="47.31278" lon="-1.61894">
        <ele>45.8</ele>
        <time>2015-05-10T08:26:23Z</time>
      </trkpt>
      <trkpt lat="47.31276" lon="-1.61895">
        <ele>46</ele>
        <time>2015-05-10T08:26:24Z</time>
      </trkpt>
      <trkpt lat="47.31273" lon="-1.61895">
        <ele>46.2</ele>
        <time>2015-05-10T08:26:25Z</time>
      </trkpt>
      <trkpt lat="47.3127" lon="-1.61895">
        <ele>46.4</ele>
        <time>2015-05-10T08:26:26Z</time>
      </trkpt>
      <trkpt lat="47.31267" lon="-1.61896">
        <ele>46.6</ele>
        <time>2015-05-10T08:26:27Z</time>
      </trkpt>
      <trkpt lat="47.31263" lon="-1.61899">
        <ele>46.9</ele>
        <time>2015-05-10T08:26:29Z</time>
      </trkpt>
      <trkpt lat="47.3126" lon="-1.61901">
        <ele>47.1</ele>
        <time>2015-05-10T08:26:31Z</time>
      </trkpt>
      <trkpt lat="47.31258" lon="-1.61905">
        <ele>47.2</ele>
        <time>2015-05-10T08:26:33Z</time>
      </trkpt>
      <trkpt lat="47.31257" lon="-1.61912">
        <ele>47.3</ele>
        <time>2015-05-10T08:26:35Z</time>
      </trkpt>
      <trkpt lat="47.31256" lon="-1.61917">
        <ele>47.3</ele>
        <time>2015-05-10T08:26:37Z</time>
      </trkpt>
      <trkpt lat="47.31255" lon="-1.61921">
        <ele>47.3</ele>
        <time>2015-05-10T08:26:38Z</time>
      </trkpt>
      <trkpt lat="47.31254" lon="-1.61928">
        <ele>47.3</ele>
        <time>2015-05-10T08:26:40Z</time>
      </trkpt>
      <trkpt lat="47.31254" lon="-1.61933">
        <ele>47.4</ele>
        <time>2015-05-10T08:26:41Z</time>
      </trkpt>
      <trkpt lat="47.31253" lon="-1.61937">
        <ele>47.4</ele>
        <time>2015-05-10T08:26:42Z</time>
      </trkpt>
      <trkpt lat="47.31252" lon="-1.61942">
        <ele>47.4</ele>
        <time>2015-05-10T08:26:43Z</time>
      </trkpt>
      <trkpt lat="47.31253" lon="-1.61946">
        <ele>47.4</ele>
        <time>2015-05-10T08:26:44Z</time>
      </trkpt>
      <trkpt lat="47.31252" lon="-1.61952">
        <ele>47.3</ele>
        <time>2015-05-10T08:26:46Z</time>
      </trkpt>
      <trkpt lat="47.31251" lon="-1.61957">
        <ele>47.4</ele>
        <time>2015-05-10T08:26:48Z</time>
      </trkpt>
      <trkpt lat="47.31249" lon="-1.61961">
        <ele>47.6</ele>
        <time>2015-05-10T08:26:50Z</time>
      </trkpt>
      <trkpt lat="47.31242" lon="-1.61962">
        <ele>48.2</ele>
        <time>2015-05-10T08:26:52Z</time>
      </trkpt>
      <trkpt lat="47.31238" lon="-1.61961">
        <ele>48.5</ele>
        <time>2015-05-10T08:26:54Z</time>
      </trkpt>
      <trkpt lat="47.31234" lon="-1.6196">
        <ele>48.9</ele>
        <time>2015-05-10T08:26:56Z</time>
      </trkpt>
      <trkpt lat="47.31229" lon="-1.6196">
        <ele>49.3</ele>
        <time>2015-05-10T08:26:58Z</time>
      </trkpt>
      <trkpt lat="47.31223" lon="-1.61961">
        <ele>49.7</ele>
        <time>2015-05-10T08:27:00Z</time>
      </trkpt>
      <trkpt lat="47.3122" lon="-1.61961">
        <ele>50</ele>
        <time>2015-05-10T08:27:01Z</time>
      </trkpt>
      <trkpt lat="47.31216" lon="-1.61961">
        <ele>50.4</ele>
        <time>2015-05-10T08:27:03Z</time>
      </trkpt>
      <trkpt lat="47.31212" lon="-1.61959">
        <ele>50.7</ele>
        <time>2015-05-10T08:27:05Z</time>
      </trkpt>
      <trkpt lat="47.31209" lon="-1.61956">
        <ele>51</ele>
        <time>2015-05-10T08:27:07Z</time>
      </trkpt>
      <trkpt lat="47.31205" lon="-1.61953">
        <ele>51.1</ele>
        <time>2015-05-10T08:27:09Z</time>
      </trkpt>
      <trkpt lat="47.31201" lon="-1.61953">
        <ele>51.3</ele>
        <time>2015-05-10T08:27:11Z</time>
      </trkpt>
      <trkpt lat="47.31197" lon="-1.61951">
        <ele>51.5</ele>
        <time>2015-05-10T08:27:13Z</time>
      </trkpt>
      <trkpt lat="47.31193" lon="-1.61949">
        <ele>51.7</ele>
        <time>2015-05-10T08:27:15Z</time>
      </trkpt>
      <trkpt lat="47.31188" lon="-1.61948">
        <ele>51.9</ele>
        <time>2015-05-10T08:27:17Z</time>
      </trkpt>
      <trkpt lat="47.31186" lon="-1.61945">
        <ele>52.1</ele>
        <time>2015-05-10T08:27:19Z</time>
      </trkpt>
      <trkpt lat="47.31182" lon="-1.61942">
        <ele>52.2</ele>
        <time>2015-05-10T08:27:21Z</time>
      </trkpt>
      <trkpt lat="47.31177" lon="-1.61939">
        <ele>52.4</ele>
        <time>2015-05-10T08:27:23Z</time>
      </trkpt>
      <trkpt lat="47.31172" lon="-1.61936">
        <ele>52.6</ele>
        <time>2015-05-10T08:27:25Z</time>
      </trkpt>
      <trkpt lat="47.3117" lon="-1.61934">
        <ele>52.7</ele>
        <time>2015-05-10T08:27:26Z</time>
      </trkpt>
      <trkpt lat="47.31164" lon="-1.61932">
        <ele>52.9</ele>
        <time>2015-05-10T08:27:28Z</time>
      </trkpt>
      <trkpt lat="47.31162" lon="-1.61931">
        <ele>53.1</ele>
        <time>2015-05-10T08:27:29Z</time>
      </trkpt>
      <trkpt lat="47.31159" lon="-1.6193">
        <ele>53.2</ele>
        <time>2015-05-10T08:27:30Z</time>
      </trkpt>
      <trkpt lat="47.31156" lon="-1.61929">
        <ele>53.3</ele>
        <time>2015-05-10T08:27:31Z</time>
      </trkpt>
      <trkpt lat="47.31153" lon="-1.61927">
        <ele>53.4</ele>
        <time>2015-05-10T08:27:32Z</time>
      </trkpt>
      <trkpt lat="47.3115" lon="-1.61925">
        <ele>53.5</ele>
        <time>2015-05-10T08:27:33Z</time>
      </trkpt>
      <trkpt lat="47.31147" lon="-1.61923">
        <ele>53.6</ele>
        <time>2015-05-10T08:27:34Z</time>
      </trkpt>
      <trkpt lat="47.31144" lon="-1.61921">
        <ele>53.7</ele>
        <time>2015-05-10T08:27:35Z</time>
      </trkpt>
      <trkpt lat="47.3114" lon="-1.61919">
        <ele>53.9</ele>
        <time>2015-05-10T08:27:37Z</time>
      </trkpt>
      <trkpt lat="47.31137" lon="-1.61918">
        <ele>54</ele>
        <time>2015-05-10T08:27:38Z</time>
      </trkpt>
      <trkpt lat="47.31135" lon="-1.61917">
        <ele>54.1</ele>
        <time>2015-05-10T08:27:39Z</time>
      </trkpt>
      <trkpt lat="47.31132" lon="-1.61915">
        <ele>54.2</ele>
        <time>2015-05-10T08:27:40Z</time>
      </trkpt>
      <trkpt lat="47.31129" lon="-1.61914">
        <ele>54.3</ele>
        <time>2015-05-10T08:27:41Z</time>
      </trkpt>
      <trkpt lat="47.31125" lon="-1.61911">
        <ele>54.4</ele>
        <time>2015-05-10T08:27:43Z</time>
      </trkpt>
      <trkpt lat="47.3112" lon="-1.61909">
        <ele>54.7</ele>
        <time>2015-05-10T08:27:45Z</time>
      </trkpt>
      <trkpt lat="47.31117" lon="-1.61908">
        <ele>54.8</ele>
        <time>2015-05-10T08:27:46Z</time>
      </trkpt>
      <trkpt lat="47.31111" lon="-1.61907">
        <ele>55</ele>
        <time>2015-05-10T08:27:48Z</time>
      </trkpt>
      <trkpt lat="47.31106" lon="-1.61907">
        <ele>55.3</ele>
        <time>2015-05-10T08:27:50Z</time>
      </trkpt>
      <trkpt lat="47.31103" lon="-1.61906">
        <ele>55.4</ele>
        <time>2015-05-10T08:27:51Z</time>
      </trkpt>
      <trkpt lat="47.311" lon="-1.61903">
        <ele>55.4</ele>
        <time>2015-05-10T08:27:52Z</time>
      </trkpt>
      <trkpt lat="47.31098" lon="-1.61902">
        <ele>55.5</ele>
        <time>2015-05-10T08:27:53Z</time>
      </trkpt>
      <trkpt lat="47.31094" lon="-1.61895">
        <ele>55.5</ele>
        <time>2015-05-10T08:27:55Z</time>
      </trkpt>
      <trkpt lat="47.31092" lon="-1.61891">
        <ele>55.5</ele>
        <time>2015-05-10T08:27:57Z</time>
      </trkpt>
      <trkpt lat="47.31088" lon="-1.61887">
        <ele>55.6</ele>
        <time>2015-05-10T08:27:59Z</time>
      </trkpt>
      <trkpt lat="47.31085" lon="-1.61885">
        <ele>55.7</ele>
        <time>2015-05-10T08:28:00Z</time>
      </trkpt>
      <trkpt lat="47.31081" lon="-1.61884">
        <ele>55.8</ele>
        <time>2015-05-10T08:28:01Z</time>
      </trkpt>
      <trkpt lat="47.31078" lon="-1.61882">
        <ele>55.9</ele>
        <time>2015-05-10T08:28:02Z</time>
      </trkpt>
      <trkpt lat="47.31075" lon="-1.61879">
        <ele>55.9</ele>
        <time>2015-05-10T08:28:03Z</time>
      </trkpt>
      <trkpt lat="47.31073" lon="-1.61877">
        <ele>55.9</ele>
        <time>2015-05-10T08:28:04Z</time>
      </trkpt>
      <trkpt lat="47.3107" lon="-1.61875">
        <ele>56</ele>
        <time>2015-05-10T08:28:05Z</time>
      </trkpt>
      <trkpt lat="47.31067" lon="-1.61874">
        <ele>56</ele>
        <time>2015-05-10T08:28:06Z</time>
      </trkpt>
      <trkpt lat="47.31063" lon="-1.6187">
        <ele>56</ele>
        <time>2015-05-10T08:28:08Z</time>
      </trkpt>
      <trkpt lat="47.31059" lon="-1.61869">
        <ele>56.1</ele>
        <time>2015-05-10T08:28:10Z</time>
      </trkpt>
      <trkpt lat="47.31056" lon="-1.61868">
        <ele>56.2</ele>
        <time>2015-05-10T08:28:11Z</time>
      </trkpt>
      <trkpt lat="47.31053" lon="-1.61868">
        <ele>56.3</ele>
        <time>2015-05-10T08:28:12Z</time>
      </trkpt>
      <trkpt lat="47.31049" lon="-1.61867">
        <ele>56.4</ele>
        <time>2015-05-10T08:28:14Z</time>
      </trkpt>
      <trkpt lat="47.31045" lon="-1.61867">
        <ele>56.5</ele>
        <time>2015-05-10T08:28:16Z</time>
      </trkpt>
      <trkpt lat="47.31041" lon="-1.61866">
        <ele>56.6</ele>
        <time>2015-05-10T08:28:18Z</time>
      </trkpt>
      <trkpt lat="47.31036" lon="-1.61866">
        <ele>56.7</ele>
        <time>2015-05-10T08:28:20Z</time>
      </trkpt>
      <trkpt lat="47.31033" lon="-1.61866">
        <ele>56.7</ele>
        <time>2015-05-10T08:28:21Z</time>
      </trkpt>
      <trkpt lat="47.3103" lon="-1.61866">
        <ele>56.7</ele>
        <time>2015-05-10T08:28:22Z</time>
      </trkpt>
      <trkpt lat="47.31025" lon="-1.61865">
        <ele>56.8</ele>
        <time>2015-05-10T08:28:24Z</time>
      </trkpt>
      <trkpt lat="47.31021" lon="-1.61863">
        <ele>56.8</ele>
        <time>2015-05-10T08:28:26Z</time>
      </trkpt>
      <trkpt lat="47.31018" lon="-1.61862">
        <ele>56.7</ele>
        <time>2015-05-10T08:28:28Z</time>
      </trkpt>
      <trkpt lat="47.31014" lon="-1.6186">
        <ele>56.7</ele>
        <time>2015-05-10T08:28:30Z</time>
      </trkpt>
      <trkpt lat="47.31009" lon="-1.6186">
        <ele>56.8</ele>
        <time>2015-05-10T08:28:32Z</time>
      </trkpt>
      <trkpt lat="47.31004" lon="-1.6186">
        <ele>56.9</ele>
        <time>2015-05-10T08:28:34Z</time>
      </trkpt>
      <trkpt lat="47.31" lon="-1.6186">
        <ele>57</ele>
        <time>2015-05-10T08:28:36Z</time>
      </trkpt>
      <trkpt lat="47.30995" lon="-1.6186">
        <ele>57</ele>
        <time>2015-05-10T08:28:38Z</time>
      </trkpt>
      <trkpt lat="47.30991" lon="-1.6186">
        <ele>57.1</ele>
        <time>2015-05-10T08:28:40Z</time>
      </trkpt>
      <trkpt lat="47.30986" lon="-1.6186">
        <ele>57.2</ele>
        <time>2015-05-10T08:28:42Z</time>
      </trkpt>
      <trkpt lat="47.30983" lon="-1.6186">
        <ele>57.2</ele>
        <time>2015-05-10T08:28:43Z</time>
      </trkpt>
      <trkpt lat="47.30978" lon="-1.6186">
        <ele>57.3</ele>
        <time>2015-05-10T08:28:45Z</time>
      </trkpt>
      <trkpt lat="47.30974" lon="-1.61861">
        <ele>57.4</ele>
        <time>2015-05-10T08:28:47Z</time>
      </trkpt>
      <trkpt lat="47.3097" lon="-1.61861">
        <ele>57.5</ele>
        <time>2015-05-10T08:28:49Z</time>
      </trkpt>
      <trkpt lat="47.30965" lon="-1.6186">
        <ele>57.5</ele>
        <time>2015-05-10T08:28:51Z</time>
      </trkpt>
      <trkpt lat="47.3096" lon="-1.6186">
        <ele>57.6</ele>
        <time>2015-05-10T08:28:53Z</time>
      </trkpt>
      <trkpt lat="47.30956" lon="-1.6186">
        <ele>57.8</ele>
        <time>2015-05-10T08:28:55Z</time>
      </trkpt>
      <trkpt lat="47.30953" lon="-1.6186">
        <ele>57.9</ele>
        <time>2015-05-10T08:28:56Z</time>
      </trkpt>
      <trkpt lat="47.3095" lon="-1.61859">
        <ele>58</ele>
        <time>2015-05-10T08:28:57Z</time>
      </trkpt>
      <trkpt lat="47.30947" lon="-1.61858">
        <ele>58.2</ele>
        <time>2015-05-10T08:28:58Z</time>
      </trkpt>
      <trkpt lat="47.30943" lon="-1.6186">
        <ele>58.4</ele>
        <time>2015-05-10T08:29:00Z</time>
      </trkpt>
      <trkpt lat="47.30939" lon="-1.61859">
        <ele>58.6</ele>
        <time>2015-05-10T08:29:02Z</time>
      </trkpt>
      <trkpt lat="47.30934" lon="-1.61857">
        <ele>58.8</ele>
        <time>2015-05-10T08:29:04Z</time>
      </trkpt>
      <trkpt lat="47.3093" lon="-1.61855">
        <ele>58.9</ele>
        <time>2015-05-10T08:29:05Z</time>
      </trkpt>
      <trkpt lat="47.30927" lon="-1.61853">
        <ele>59.1</ele>
        <time>2015-05-10T08:29:06Z</time>
      </trkpt>
      <trkpt lat="47.30925" lon="-1.61852">
        <ele>59.2</ele>
        <time>2015-05-10T08:29:07Z</time>
      </trkpt>
      <trkpt lat="47.3092" lon="-1.6185">
        <ele>59.4</ele>
        <time>2015-05-10T08:29:09Z</time>
      </trkpt>
      <trkpt lat="47.30915" lon="-1.6185">
        <ele>59.6</ele>
        <time>2015-05-10T08:29:11Z</time>
      </trkpt>
      <trkpt lat="47.30912" lon="-1.61849">
        <ele>59.8</ele>
        <time>2015-05-10T08:29:13Z</time>
      </trkpt>
      <trkpt lat="47.30909" lon="-1.61848">
        <ele>59.9</ele>
        <time>2015-05-10T08:29:15Z</time>
      </trkpt>
      <trkpt lat="47.30906" lon="-1.61844">
        <ele>60</ele>
        <time>2015-05-10T08:29:17Z</time>
      </trkpt>
      <trkpt lat="47.30905" lon="-1.61839">
        <ele>60</ele>
        <time>2015-05-10T08:29:18Z</time>
      </trkpt>
      <trkpt lat="47.30906" lon="-1.61833">
        <ele>59.8</ele>
        <time>2015-05-10T08:29:19Z</time>
      </trkpt>
      <trkpt lat="47.30906" lon="-1.61827">
        <ele>59.7</ele>
        <time>2015-05-10T08:29:20Z</time>
      </trkpt>
      <trkpt lat="47.30907" lon="-1.61821">
        <ele>59.6</ele>
        <time>2015-05-10T08:29:21Z</time>
      </trkpt>
      <trkpt lat="47.30908" lon="-1.61814">
        <ele>59.4</ele>
        <time>2015-05-10T08:29:22Z</time>
      </trkpt>
      <trkpt lat="47.30909" lon="-1.61806">
        <ele>59.2</ele>
        <time>2015-05-10T08:29:23Z</time>
      </trkpt>
      <trkpt lat="47.30909" lon="-1.61799">
        <ele>59.1</ele>
        <time>2015-05-10T08:29:24Z</time>
      </trkpt>
      <trkpt lat="47.30909" lon="-1.61792">
        <ele>59</ele>
        <time>2015-05-10T08:29:25Z</time>
      </trkpt>
      <trkpt lat="47.30908" lon="-1.61785">
        <ele>59</ele>
        <time>2015-05-10T08:29:26Z</time>
      </trkpt>
      <trkpt lat="47.30908" lon="-1.61777">
        <ele>59</ele>
        <time>2015-05-10T08:29:27Z</time>
      </trkpt>
      <trkpt lat="47.30907" lon="-1.6177">
        <ele>59</ele>
        <time>2015-05-10T08:29:28Z</time>
      </trkpt>
      <trkpt lat="47.30906" lon="-1.61762">
        <ele>59</ele>
        <time>2015-05-10T08:29:29Z</time>
      </trkpt>
      <trkpt lat="47.30904" lon="-1.61756">
        <ele>59.1</ele>
        <time>2015-05-10T08:29:30Z</time>
      </trkpt>
      <trkpt lat="47.30903" lon="-1.6175">
        <ele>59.1</ele>
        <time>2015-05-10T08:29:31Z</time>
      </trkpt>
      <trkpt lat="47.30901" lon="-1.61746">
        <ele>59.3</ele>
        <time>2015-05-10T08:29:32Z</time>
      </trkpt>
      <trkpt lat="47.30898" lon="-1.61741">
        <ele>59.5</ele>
        <time>2015-05-10T08:29:33Z</time>
      </trkpt>
      <trkpt lat="47.30895" lon="-1.61737">
        <ele>59.7</ele>
        <time>2015-05-10T08:29:34Z</time>
      </trkpt>
      <trkpt lat="47.30891" lon="-1.61735">
        <ele>59.9</ele>
        <time>2015-05-10T08:29:35Z</time>
      </trkpt>
      <trkpt lat="47.30888" lon="-1.61734">
        <ele>60.1</ele>
        <time>2015-05-10T08:29:36Z</time>
      </trkpt>
      <trkpt lat="47.30884" lon="-1.61733">
        <ele>60.4</ele>
        <time>2015-05-10T08:29:37Z</time>
      </trkpt>
      <trkpt lat="47.30881" lon="-1.61733">
        <ele>60.6</ele>
        <time>2015-05-10T08:29:38Z</time>
      </trkpt>
      <trkpt lat="47.30877" lon="-1.61732">
        <ele>60.9</ele>
        <time>2015-05-10T08:29:39Z</time>
      </trkpt>
      <trkpt lat="47.30874" lon="-1.61732">
        <ele>61</ele>
        <time>2015-05-10T08:29:40Z</time>
      </trkpt>
      <trkpt lat="47.30871" lon="-1.61731">
        <ele>61.1</ele>
        <time>2015-05-10T08:29:41Z</time>
      </trkpt>
      <trkpt lat="47.30868" lon="-1.6173">
        <ele>61.3</ele>
        <time>2015-05-10T08:29:42Z</time>
      </trkpt>
      <trkpt lat="47.30865" lon="-1.61729">
        <ele>61.4</ele>
        <time>2015-05-10T08:29:43Z</time>
      </trkpt>
      <trkpt lat="47.30863" lon="-1.61727">
        <ele>61.4</ele>
        <time>2015-05-10T08:29:44Z</time>
      </trkpt>
      <trkpt lat="47.3086" lon="-1.61725">
        <ele>61.5</ele>
        <time>2015-05-10T08:29:45Z</time>
      </trkpt>
      <trkpt lat="47.30855" lon="-1.61722">
        <ele>61.7</ele>
        <time>2015-05-10T08:29:47Z</time>
      </trkpt>
      <trkpt lat="47.30852" lon="-1.61721">
        <ele>61.8</ele>
        <time>2015-05-10T08:29:48Z</time>
      </trkpt>
      <trkpt lat="47.30849" lon="-1.6172">
        <ele>61.9</ele>
        <time>2015-05-10T08:29:49Z</time>
      </trkpt>
      <trkpt lat="47.30843" lon="-1.61719">
        <ele>62.1</ele>
        <time>2015-05-10T08:29:51Z</time>
      </trkpt>
      <trkpt lat="47.30839" lon="-1.61717">
        <ele>62.3</ele>
        <time>2015-05-10T08:29:53Z</time>
      </trkpt>
      <trkpt lat="47.30834" lon="-1.61719">
        <ele>62.5</ele>
        <time>2015-05-10T08:29:55Z</time>
      </trkpt>
      <trkpt lat="47.3083" lon="-1.6172">
        <ele>62.6</ele>
        <time>2015-05-10T08:29:57Z</time>
      </trkpt>
      <trkpt lat="47.30827" lon="-1.61722">
        <ele>62.7</ele>
        <time>2015-05-10T08:29:59Z</time>
      </trkpt>
      <trkpt lat="47.30824" lon="-1.61723">
        <ele>62.9</ele>
        <time>2015-05-10T08:30:01Z</time>
      </trkpt>
      <trkpt lat="47.3082" lon="-1.61725">
        <ele>63</ele>
        <time>2015-05-10T08:30:04Z</time>
      </trkpt>
      <trkpt lat="47.30817" lon="-1.61725">
        <ele>63.1</ele>
        <time>2015-05-10T08:30:07Z</time>
      </trkpt>
      <trkpt lat="47.30815" lon="-1.61722">
        <ele>63.2</ele>
        <time>2015-05-10T08:30:10Z</time>
      </trkpt>
      <trkpt lat="47.30812" lon="-1.61718">
        <ele>63.3</ele>
        <time>2015-05-10T08:30:13Z</time>
      </trkpt>
      <trkpt lat="47.3081" lon="-1.6172">
        <ele>63.4</ele>
        <time>2015-05-10T08:30:16Z</time>
      </trkpt>
      <trkpt lat="47.30807" lon="-1.6172">
        <ele>63.5</ele>
        <time>2015-05-10T08:30:18Z</time>
      </trkpt>
      <trkpt lat="47.30804" lon="-1.61718">
        <ele>63.6</ele>
        <time>2015-05-10T08:30:20Z</time>
      </trkpt>
      <trkpt lat="47.30802" lon="-1.61714">
        <ele>63.6</ele>
        <time>2015-05-10T08:30:22Z</time>
      </trkpt>
      <trkpt lat="47.30803" lon="-1.61709">
        <ele>63.6</ele>
        <time>2015-05-10T08:30:24Z</time>
      </trkpt>
      <trkpt lat="47.30803" lon="-1.61705">
        <ele>63.6</ele>
        <time>2015-05-10T08:30:26Z</time>
      </trkpt>
      <trkpt lat="47.308" lon="-1.61704">
        <ele>63.6</ele>
        <time>2015-05-10T08:30:29Z</time>
      </trkpt>
      <trkpt lat="47.30796" lon="-1.61703">
        <ele>63.8</ele>
        <time>2015-05-10T08:30:32Z</time>
      </trkpt>
      <trkpt lat="47.30792" lon="-1.61702">
        <ele>63.9</ele>
        <time>2015-05-10T08:30:34Z</time>
      </trkpt>
      <trkpt lat="47.30793" lon="-1.61698">
        <ele>63.8</ele>
        <time>2015-05-10T08:30:37Z</time>
      </trkpt>
      <trkpt lat="47.30791" lon="-1.61693">
        <ele>63.8</ele>
        <time>2015-05-10T08:30:39Z</time>
      </trkpt>
      <trkpt lat="47.30788" lon="-1.61691">
        <ele>63.7</ele>
        <time>2015-05-10T08:30:40Z</time>
      </trkpt>
      <trkpt lat="47.30786" lon="-1.61688">
        <ele>63.7</ele>
        <time>2015-05-10T08:30:43Z</time>
      </trkpt>
      <trkpt lat="47.30783" lon="-1.61685">
        <ele>63.6</ele>
        <time>2015-05-10T08:30:47Z</time>
      </trkpt>
      <trkpt lat="47.30782" lon="-1.6168">
        <ele>63.5</ele>
        <time>2015-05-10T08:30:51Z</time>
      </trkpt>
      <trkpt lat="47.30779" lon="-1.61674">
        <ele>63.4</ele>
        <time>2015-05-10T08:30:53Z</time>
      </trkpt>
      <trkpt lat="47.30776" lon="-1.61669">
        <ele>63.3</ele>
        <time>2015-05-10T08:30:55Z</time>
      </trkpt>
      <trkpt lat="47.30773" lon="-1.61666">
        <ele>63.3</ele>
        <time>2015-05-10T08:30:57Z</time>
      </trkpt>
      <trkpt lat="47.3077" lon="-1.61665">
        <ele>63.2</ele>
        <time>2015-05-10T08:31:00Z</time>
      </trkpt>
      <trkpt lat="47.30766" lon="-1.61662">
        <ele>63.1</ele>
        <time>2015-05-10T08:31:02Z</time>
      </trkpt>
      <trkpt lat="47.30762" lon="-1.61658">
        <ele>63</ele>
        <time>2015-05-10T08:31:04Z</time>
      </trkpt>
      <trkpt lat="47.30759" lon="-1.61657">
        <ele>63</ele>
        <time>2015-05-10T08:31:05Z</time>
      </trkpt>
      <trkpt lat="47.30757" lon="-1.61654">
        <ele>62.9</ele>
        <time>2015-05-10T08:31:06Z</time>
      </trkpt>
      <trkpt lat="47.30754" lon="-1.61647">
        <ele>62.8</ele>
        <time>2015-05-10T08:31:08Z</time>
      </trkpt>
      <trkpt lat="47.30755" lon="-1.61641">
        <ele>62.8</ele>
        <time>2015-05-10T08:31:10Z</time>
      </trkpt>
      <trkpt lat="47.30756" lon="-1.61637">
        <ele>62.7</ele>
        <time>2015-05-10T08:31:12Z</time>
      </trkpt>
      <trkpt lat="47.30754" lon="-1.61631">
        <ele>62.6</ele>
        <time>2015-05-10T08:31:15Z</time>
      </trkpt>
      <trkpt lat="47.30751" lon="-1.61627">
        <ele>62.5</ele>
        <time>2015-05-10T08:31:17Z</time>
      </trkpt>
      <trkpt lat="47.30748" lon="-1.61625">
        <ele>62.5</ele>
        <time>2015-05-10T08:31:19Z</time>
      </trkpt>
      <trkpt lat="47.30746" lon="-1.61623">
        <ele>62.3</ele>
        <time>2015-05-10T08:31:21Z</time>
      </trkpt>
      <trkpt lat="47.30743" lon="-1.61618">
        <ele>62</ele>
        <time>2015-05-10T08:31:23Z</time>
      </trkpt>
      <trkpt lat="47.30741" lon="-1.61613">
        <ele>61.7</ele>
        <time>2015-05-10T08:31:25Z</time>
      </trkpt>
      <trkpt lat="47.30741" lon="-1.61606">
        <ele>61.3</ele>
        <time>2015-05-10T08:31:26Z</time>
      </trkpt>
      <trkpt lat="47.30741" lon="-1.61601">
        <ele>61</ele>
        <time>2015-05-10T08:31:27Z</time>
      </trkpt>
      <trkpt lat="47.30741" lon="-1.61597">
        <ele>60.8</ele>
        <time>2015-05-10T08:31:28Z</time>
      </trkpt>
      <trkpt lat="47.3074" lon="-1.61592">
        <ele>60.5</ele>
        <time>2015-05-10T08:31:29Z</time>
      </trkpt>
      <trkpt lat="47.30736" lon="-1.61581">
        <ele>59.9</ele>
        <time>2015-05-10T08:31:30Z</time>
      </trkpt>
      <trkpt lat="47.30734" lon="-1.61571">
        <ele>59.3</ele>
        <time>2015-05-10T08:31:31Z</time>
      </trkpt>
      <trkpt lat="47.30732" lon="-1.6156">
        <ele>58.7</ele>
        <time>2015-05-10T08:31:32Z</time>
      </trkpt>
      <trkpt lat="47.30729" lon="-1.61551">
        <ele>58.2</ele>
        <time>2015-05-10T08:31:33Z</time>
      </trkpt>
      <trkpt lat="47.3073" lon="-1.61542">
        <ele>57.8</ele>
        <time>2015-05-10T08:31:34Z</time>
      </trkpt>
      <trkpt lat="47.3073" lon="-1.61535">
        <ele>57.2</ele>
        <time>2015-05-10T08:31:35Z</time>
      </trkpt>
      <trkpt lat="47.30729" lon="-1.61528">
        <ele>56.7</ele>
        <time>2015-05-10T08:31:36Z</time>
      </trkpt>
      <trkpt lat="47.30725" lon="-1.61522">
        <ele>56.3</ele>
        <time>2015-05-10T08:31:37Z</time>
      </trkpt>
      <trkpt lat="47.30722" lon="-1.61518">
        <ele>56.1</ele>
        <time>2015-05-10T08:31:38Z</time>
      </trkpt>
      <trkpt lat="47.30722" lon="-1.61513">
        <ele>55.7</ele>
        <time>2015-05-10T08:31:39Z</time>
      </trkpt>
      <trkpt lat="47.30719" lon="-1.61511">
        <ele>55.6</ele>
        <time>2015-05-10T08:31:40Z</time>
      </trkpt>
      <trkpt lat="47.30715" lon="-1.61509">
        <ele>55.5</ele>
        <time>2015-05-10T08:31:41Z</time>
      </trkpt>
      <trkpt lat="47.30711" lon="-1.61507">
        <ele>55.4</ele>
        <time>2015-05-10T08:31:42Z</time>
      </trkpt>
      <trkpt lat="47.30708" lon="-1.61505">
        <ele>55.4</ele>
        <time>2015-05-10T08:31:43Z</time>
      </trkpt>
      <trkpt lat="47.30702" lon="-1.61503">
        <ele>55.3</ele>
        <time>2015-05-10T08:31:45Z</time>
      </trkpt>
      <trkpt lat="47.30699" lon="-1.61501">
        <ele>55.2</ele>
        <time>2015-05-10T08:31:46Z</time>
      </trkpt>
      <trkpt lat="47.30697" lon="-1.615">
        <ele>55.2</ele>
        <time>2015-05-10T08:31:47Z</time>
      </trkpt>
      <trkpt lat="47.30693" lon="-1.61499">
        <ele>55.2</ele>
        <time>2015-05-10T08:31:48Z</time>
      </trkpt>
      <trkpt lat="47.3069" lon="-1.61498">
        <ele>55.2</ele>
        <time>2015-05-10T08:31:49Z</time>
      </trkpt>
      <trkpt lat="47.30685" lon="-1.61496">
        <ele>55.2</ele>
        <time>2015-05-10T08:31:51Z</time>
      </trkpt>
      <trkpt lat="47.30681" lon="-1.61495">
        <ele>55.2</ele>
        <time>2015-05-10T08:31:53Z</time>
      </trkpt>
      <trkpt lat="47.30677" lon="-1.61492">
        <ele>55.1</ele>
        <time>2015-05-10T08:31:55Z</time>
      </trkpt>
      <trkpt lat="47.30674" lon="-1.6149">
        <ele>55.1</ele>
        <time>2015-05-10T08:31:56Z</time>
      </trkpt>
      <trkpt lat="47.30672" lon="-1.61487">
        <ele>54.9</ele>
        <time>2015-05-10T08:31:57Z</time>
      </trkpt>
      <trkpt lat="47.30671" lon="-1.61479">
        <ele>54.5</ele>
        <time>2015-05-10T08:31:59Z</time>
      </trkpt>
      <trkpt lat="47.30672" lon="-1.61475">
        <ele>54.2</ele>
        <time>2015-05-10T08:32:00Z</time>
      </trkpt>
      <trkpt lat="47.30674" lon="-1.61471">
        <ele>53.9</ele>
        <time>2015-05-10T08:32:01Z</time>
      </trkpt>
      <trkpt lat="47.30675" lon="-1.61466">
        <ele>53.6</ele>
        <time>2015-05-10T08:32:02Z</time>
      </trkpt>
      <trkpt lat="47.30677" lon="-1.61461">
        <ele>53.3</ele>
        <time>2015-05-10T08:32:03Z</time>
      </trkpt>
      <trkpt lat="47.3068" lon="-1.61456">
        <ele>52.9</ele>
        <time>2015-05-10T08:32:04Z</time>
      </trkpt>
      <trkpt lat="47.30684" lon="-1.61451">
        <ele>52.6</ele>
        <time>2015-05-10T08:32:05Z</time>
      </trkpt>
      <trkpt lat="47.30686" lon="-1.61445">
        <ele>52.4</ele>
        <time>2015-05-10T08:32:06Z</time>
      </trkpt>
      <trkpt lat="47.3069" lon="-1.61438">
        <ele>52</ele>
        <time>2015-05-10T08:32:07Z</time>
      </trkpt>
      <trkpt lat="47.30694" lon="-1.61431">
        <ele>51.6</ele>
        <time>2015-05-10T08:32:08Z</time>
      </trkpt>
      <trkpt lat="47.307" lon="-1.61424">
        <ele>51.1</ele>
        <time>2015-05-10T08:32:09Z</time>
      </trkpt>
      <trkpt lat="47.30704" lon="-1.61416">
        <ele>50.7</ele>
        <time>2015-05-10T08:32:10Z</time>
      </trkpt>
      <trkpt lat="47.30708" lon="-1.61408">
        <ele>50.2</ele>
        <time>2015-05-10T08:32:11Z</time>
      </trkpt>
      <trkpt lat="47.30713" lon="-1.61401">
        <ele>49.8</ele>
        <time>2015-05-10T08:32:12Z</time>
      </trkpt>
      <trkpt lat="47.30716" lon="-1.61393">
        <ele>49.4</ele>
        <time>2015-05-10T08:32:13Z</time>
      </trkpt>
      <trkpt lat="47.3072" lon="-1.61385">
        <ele>49.1</ele>
        <time>2015-05-10T08:32:14Z</time>
      </trkpt>
      <trkpt lat="47.30722" lon="-1.61377">
        <ele>48.7</ele>
        <time>2015-05-10T08:32:15Z</time>
      </trkpt>
      <trkpt lat="47.30723" lon="-1.61369">
        <ele>48.5</ele>
        <time>2015-05-10T08:32:16Z</time>
      </trkpt>
      <trkpt lat="47.30724" lon="-1.61361">
        <ele>48.3</ele>
        <time>2015-05-10T08:32:17Z</time>
      </trkpt>
      <trkpt lat="47.30724" lon="-1.61353">
        <ele>48.1</ele>
        <time>2015-05-10T08:32:18Z</time>
      </trkpt>
      <trkpt lat="47.30724" lon="-1.61344">
        <ele>47.9</ele>
        <time>2015-05-10T08:32:19Z</time>
      </trkpt>
      <trkpt lat="47.30724" lon="-1.61334">
        <ele>47.6</ele>
        <time>2015-05-10T08:32:20Z</time>
      </trkpt>
      <trkpt lat="47.30724" lon="-1.61325">
        <ele>47.4</ele>
        <time>2015-05-10T08:32:21Z</time>
      </trkpt>
      <trkpt lat="47.30723" lon="-1.61316">
        <ele>47.2</ele>
        <time>2015-05-10T08:32:22Z</time>
      </trkpt>
      <trkpt lat="47.30724" lon="-1.61306">
        <ele>47</ele>
        <time>2015-05-10T08:32:23Z</time>
      </trkpt>
      <trkpt lat="47.30725" lon="-1.61296">
        <ele>46.7</ele>
        <time>2015-05-10T08:32:24Z</time>
      </trkpt>
      <trkpt lat="47.30727" lon="-1.61286">
        <ele>46.3</ele>
        <time>2015-05-10T08:32:25Z</time>
      </trkpt>
      <trkpt lat="47.30728" lon="-1.61277">
        <ele>45.9</ele>
        <time>2015-05-10T08:32:26Z</time>
      </trkpt>
      <trkpt lat="47.3073" lon="-1.61268">
        <ele>45.4</ele>
        <time>2015-05-10T08:32:27Z</time>
      </trkpt>
      <trkpt lat="47.30733" lon="-1.6126">
        <ele>45</ele>
        <time>2015-05-10T08:32:28Z</time>
      </trkpt>
      <trkpt lat="47.30736" lon="-1.61251">
        <ele>44.6</ele>
        <time>2015-05-10T08:32:29Z</time>
      </trkpt>
      <trkpt lat="47.3074" lon="-1.61243">
        <ele>44.1</ele>
        <time>2015-05-10T08:32:30Z</time>
      </trkpt>
      <trkpt lat="47.30743" lon="-1.61236">
        <ele>43.8</ele>
        <time>2015-05-10T08:32:31Z</time>
      </trkpt>
      <trkpt lat="47.30745" lon="-1.61229">
        <ele>43.4</ele>
        <time>2015-05-10T08:32:32Z</time>
      </trkpt>
      <trkpt lat="47.30748" lon="-1.61223">
        <ele>43.1</ele>
        <time>2015-05-10T08:32:33Z</time>
      </trkpt>
      <trkpt lat="47.3075" lon="-1.61217">
        <ele>42.9</ele>
        <time>2015-05-10T08:32:34Z</time>
      </trkpt>
      <trkpt lat="47.30752" lon="-1.61211">
        <ele>42.6</ele>
        <time>2015-05-10T08:32:35Z</time>
      </trkpt>
      <trkpt lat="47.30754" lon="-1.61206">
        <ele>42.4</ele>
        <time>2015-05-10T08:32:36Z</time>
      </trkpt>
      <trkpt lat="47.30756" lon="-1.61201">
        <ele>42.1</ele>
        <time>2015-05-10T08:32:37Z</time>
      </trkpt>
      <trkpt lat="47.30757" lon="-1.61195">
        <ele>41.9</ele>
        <time>2015-05-10T08:32:38Z</time>
      </trkpt>
      <trkpt lat="47.30758" lon="-1.61189">
        <ele>41.7</ele>
        <time>2015-05-10T08:32:39Z</time>
      </trkpt>
      <trkpt lat="47.3076" lon="-1.61184">
        <ele>41.5</ele>
        <time>2015-05-10T08:32:40Z</time>
      </trkpt>
      <trkpt lat="47.30762" lon="-1.6118">
        <ele>41.3</ele>
        <time>2015-05-10T08:32:41Z</time>
      </trkpt>
      <trkpt lat="47.30765" lon="-1.61176">
        <ele>41.2</ele>
        <time>2015-05-10T08:32:42Z</time>
      </trkpt>
      <trkpt lat="47.30767" lon="-1.61172">
        <ele>41</ele>
        <time>2015-05-10T08:32:43Z</time>
      </trkpt>
      <trkpt lat="47.30769" lon="-1.61169">
        <ele>40.8</ele>
        <time>2015-05-10T08:32:44Z</time>
      </trkpt>
      <trkpt lat="47.30771" lon="-1.61165">
        <ele>40.7</ele>
        <time>2015-05-10T08:32:45Z</time>
      </trkpt>
      <trkpt lat="47.30773" lon="-1.61162">
        <ele>40.5</ele>
        <time>2015-05-10T08:32:46Z</time>
      </trkpt>
      <trkpt lat="47.30776" lon="-1.61156">
        <ele>40.3</ele>
        <time>2015-05-10T08:32:48Z</time>
      </trkpt>
      <trkpt lat="47.30778" lon="-1.61152">
        <ele>40.1</ele>
        <time>2015-05-10T08:32:49Z</time>
      </trkpt>
      <trkpt lat="47.3078" lon="-1.61149">
        <ele>40</ele>
        <time>2015-05-10T08:32:50Z</time>
      </trkpt>
      <trkpt lat="47.30782" lon="-1.61146">
        <ele>39.9</ele>
        <time>2015-05-10T08:32:51Z</time>
      </trkpt>
      <trkpt lat="47.30784" lon="-1.61142">
        <ele>39.7</ele>
        <time>2015-05-10T08:32:52Z</time>
      </trkpt>
      <trkpt lat="47.30786" lon="-1.61138">
        <ele>39.5</ele>
        <time>2015-05-10T08:32:53Z</time>
      </trkpt>
      <trkpt lat="47.30788" lon="-1.61135">
        <ele>39.4</ele>
        <time>2015-05-10T08:32:54Z</time>
      </trkpt>
      <trkpt lat="47.30791" lon="-1.61132">
        <ele>39.3</ele>
        <time>2015-05-10T08:32:55Z</time>
      </trkpt>
      <trkpt lat="47.30793" lon="-1.61129">
        <ele>39.1</ele>
        <time>2015-05-10T08:32:56Z</time>
      </trkpt>
      <trkpt lat="47.30796" lon="-1.61125">
        <ele>39</ele>
        <time>2015-05-10T08:32:57Z</time>
      </trkpt>
      <trkpt lat="47.30798" lon="-1.6112">
        <ele>39</ele>
        <time>2015-05-10T08:32:58Z</time>
      </trkpt>
      <trkpt lat="47.30799" lon="-1.61114">
        <ele>38.9</ele>
        <time>2015-05-10T08:32:59Z</time>
      </trkpt>
      <trkpt lat="47.308" lon="-1.61108">
        <ele>38.8</ele>
        <time>2015-05-10T08:33:00Z</time>
      </trkpt>
      <trkpt lat="47.30801" lon="-1.61102">
        <ele>38.7</ele>
        <time>2015-05-10T08:33:01Z</time>
      </trkpt>
      <trkpt lat="47.30801" lon="-1.61096">
        <ele>38.7</ele>
        <time>2015-05-10T08:33:02Z</time>
      </trkpt>
      <trkpt lat="47.30801" lon="-1.6109">
        <ele>38.6</ele>
        <time>2015-05-10T08:33:03Z</time>
      </trkpt>
      <trkpt lat="47.30803" lon="-1.61082">
        <ele>38.4</ele>
        <time>2015-05-10T08:33:04Z</time>
      </trkpt>
      <trkpt lat="47.30804" lon="-1.61074">
        <ele>38.3</ele>
        <time>2015-05-10T08:33:05Z</time>
      </trkpt>
      <trkpt lat="47.30804" lon="-1.61066">
        <ele>38.1</ele>
        <time>2015-05-10T08:33:06Z</time>
      </trkpt>
      <trkpt lat="47.30804" lon="-1.61059">
        <ele>38</ele>
        <time>2015-05-10T08:33:07Z</time>
      </trkpt>
      <trkpt lat="47.30805" lon="-1.61051">
        <ele>37.9</ele>
        <time>2015-05-10T08:33:08Z</time>
      </trkpt>
      <trkpt lat="47.30805" lon="-1.61043">
        <ele>37.7</ele>
        <time>2015-05-10T08:33:09Z</time>
      </trkpt>
      <trkpt lat="47.30805" lon="-1.61035">
        <ele>37.4</ele>
        <time>2015-05-10T08:33:10Z</time>
      </trkpt>
      <trkpt lat="47.30805" lon="-1.61027">
        <ele>37</ele>
        <time>2015-05-10T08:33:11Z</time>
      </trkpt>
      <trkpt lat="47.30804" lon="-1.61017">
        <ele>36.5</ele>
        <time>2015-05-10T08:33:12Z</time>
      </trkpt>
      <trkpt lat="47.30804" lon="-1.61008">
        <ele>36.1</ele>
        <time>2015-05-10T08:33:13Z</time>
      </trkpt>
      <trkpt lat="47.30804" lon="-1.61">
        <ele>35.7</ele>
        <time>2015-05-10T08:33:14Z</time>
      </trkpt>
      <trkpt lat="47.30805" lon="-1.60991">
        <ele>35.2</ele>
        <time>2015-05-10T08:33:15Z</time>
      </trkpt>
      <trkpt lat="47.30806" lon="-1.60983">
        <ele>34.8</ele>
        <time>2015-05-10T08:33:16Z</time>
      </trkpt>
      <trkpt lat="47.30806" lon="-1.60975">
        <ele>34.5</ele>
        <time>2015-05-10T08:33:17Z</time>
      </trkpt>
      <trkpt lat="47.30806" lon="-1.60967">
        <ele>34.1</ele>
        <time>2015-05-10T08:33:18Z</time>
      </trkpt>
      <trkpt lat="47.30806" lon="-1.60959">
        <ele>33.7</ele>
        <time>2015-05-10T08:33:19Z</time>
      </trkpt>
      <trkpt lat="47.30807" lon="-1.60952">
        <ele>33.8</ele>
        <time>2015-05-10T08:33:20Z</time>
      </trkpt>
      <trkpt lat="47.30806" lon="-1.60945">
        <ele>33.9</ele>
        <time>2015-05-10T08:33:21Z</time>
      </trkpt>
      <trkpt lat="47.30806" lon="-1.60939">
        <ele>34.1</ele>
        <time>2015-05-10T08:33:22Z</time>
      </trkpt>
      <trkpt lat="47.30805" lon="-1.60934">
        <ele>34.2</ele>
        <time>2015-05-10T08:33:23Z</time>
      </trkpt>
      <trkpt lat="47.30803" lon="-1.60927">
        <ele>34.4</ele>
        <time>2015-05-10T08:33:25Z</time>
      </trkpt>
      <trkpt lat="47.30802" lon="-1.60924">
        <ele>34.6</ele>
        <time>2015-05-10T08:33:26Z</time>
      </trkpt>
      <trkpt lat="47.30798" lon="-1.60921">
        <ele>34.7</ele>
        <time>2015-05-10T08:33:28Z</time>
      </trkpt>
      <trkpt lat="47.30794" lon="-1.6092">
        <ele>34.9</ele>
        <time>2015-05-10T08:33:30Z</time>
      </trkpt>
      <trkpt lat="47.30791" lon="-1.60918">
        <ele>35</ele>
        <time>2015-05-10T08:33:32Z</time>
      </trkpt>
      <trkpt lat="47.30787" lon="-1.60916">
        <ele>35.2</ele>
        <time>2015-05-10T08:33:35Z</time>
      </trkpt>
      <trkpt lat="47.30784" lon="-1.60913">
        <ele>35.3</ele>
        <time>2015-05-10T08:33:37Z</time>
      </trkpt>
      <trkpt lat="47.30781" lon="-1.60912">
        <ele>35.5</ele>
        <time>2015-05-10T08:33:39Z</time>
      </trkpt>
      <trkpt lat="47.30778" lon="-1.6091">
        <ele>35.6</ele>
        <time>2015-05-10T08:33:41Z</time>
      </trkpt>
      <trkpt lat="47.30772" lon="-1.6091">
        <ele>35.8</ele>
        <time>2015-05-10T08:33:43Z</time>
      </trkpt>
      <trkpt lat="47.3077" lon="-1.6091">
        <ele>35.9</ele>
        <time>2015-05-10T08:33:44Z</time>
      </trkpt>
      <trkpt lat="47.30768" lon="-1.60907">
        <ele>36.1</ele>
        <time>2015-05-10T08:33:47Z</time>
      </trkpt>
      <trkpt lat="47.30766" lon="-1.60902">
        <ele>36.3</ele>
        <time>2015-05-10T08:33:49Z</time>
      </trkpt>
      <trkpt lat="47.30763" lon="-1.609">
        <ele>36.5</ele>
        <time>2015-05-10T08:33:51Z</time>
      </trkpt>
      <trkpt lat="47.30759" lon="-1.60897">
        <ele>36.7</ele>
        <time>2015-05-10T08:33:53Z</time>
      </trkpt>
      <trkpt lat="47.30756" lon="-1.60897">
        <ele>36.9</ele>
        <time>2015-05-10T08:33:55Z</time>
      </trkpt>
      <trkpt lat="47.30755" lon="-1.60893">
        <ele>37.1</ele>
        <time>2015-05-10T08:33:57Z</time>
      </trkpt>
      <trkpt lat="47.30752" lon="-1.6089">
        <ele>37.3</ele>
        <time>2015-05-10T08:34:00Z</time>
      </trkpt>
      <trkpt lat="47.30748" lon="-1.60886">
        <ele>37.6</ele>
        <time>2015-05-10T08:34:02Z</time>
      </trkpt>
      <trkpt lat="47.30747" lon="-1.60883">
        <ele>37.8</ele>
        <time>2015-05-10T08:34:04Z</time>
      </trkpt>
      <trkpt lat="47.30744" lon="-1.60881">
        <ele>38</ele>
        <time>2015-05-10T08:34:06Z</time>
      </trkpt>
      <trkpt lat="47.30744" lon="-1.60876">
        <ele>38.3</ele>
        <time>2015-05-10T08:34:08Z</time>
      </trkpt>
      <trkpt lat="47.30742" lon="-1.60872">
        <ele>38.8</ele>
        <time>2015-05-10T08:34:10Z</time>
      </trkpt>
      <trkpt lat="47.30743" lon="-1.60869">
        <ele>39.1</ele>
        <time>2015-05-10T08:34:11Z</time>
      </trkpt>
      <trkpt lat="47.30741" lon="-1.60863">
        <ele>39.9</ele>
        <time>2015-05-10T08:34:13Z</time>
      </trkpt>
      <trkpt lat="47.30738" lon="-1.60859">
        <ele>40.6</ele>
        <time>2015-05-10T08:34:14Z</time>
      </trkpt>
      <trkpt lat="47.30735" lon="-1.60856">
        <ele>41.2</ele>
        <time>2015-05-10T08:34:17Z</time>
      </trkpt>
      <trkpt lat="47.30731" lon="-1.60854">
        <ele>41.5</ele>
        <time>2015-05-10T08:34:19Z</time>
      </trkpt>
      <trkpt lat="47.30728" lon="-1.60852">
        <ele>41.9</ele>
        <time>2015-05-10T08:34:21Z</time>
      </trkpt>
      <trkpt lat="47.30721" lon="-1.60847">
        <ele>42.9</ele>
        <time>2015-05-10T08:34:23Z</time>
      </trkpt>
      <trkpt lat="47.30718" lon="-1.60844">
        <ele>43.4</ele>
        <time>2015-05-10T08:34:24Z</time>
      </trkpt>
      <trkpt lat="47.30716" lon="-1.60839">
        <ele>44</ele>
        <time>2015-05-10T08:34:26Z</time>
      </trkpt>
      <trkpt lat="47.30713" lon="-1.60838">
        <ele>44.3</ele>
        <time>2015-05-10T08:34:28Z</time>
      </trkpt>
      <trkpt lat="47.30712" lon="-1.60834">
        <ele>44.8</ele>
        <time>2015-05-10T08:34:31Z</time>
      </trkpt>
      <trkpt lat="47.30712" lon="-1.60829">
        <ele>45.4</ele>
        <time>2015-05-10T08:34:33Z</time>
      </trkpt>
      <trkpt lat="47.30711" lon="-1.60824">
        <ele>46</ele>
        <time>2015-05-10T08:34:36Z</time>
      </trkpt>
      <trkpt lat="47.30709" lon="-1.60821">
        <ele>46.5</ele>
        <time>2015-05-10T08:34:40Z</time>
      </trkpt>
      <trkpt lat="47.30706" lon="-1.60818">
        <ele>46.9</ele>
        <time>2015-05-10T08:34:42Z</time>
      </trkpt>
      <trkpt lat="47.30704" lon="-1.60815">
        <ele>47.4</ele>
        <time>2015-05-10T08:34:45Z</time>
      </trkpt>
      <trkpt lat="47.30703" lon="-1.60811">
        <ele>47.9</ele>
        <time>2015-05-10T08:34:48Z</time>
      </trkpt>
      <trkpt lat="47.30703" lon="-1.60807">
        <ele>48.4</ele>
        <time>2015-05-10T08:34:51Z</time>
      </trkpt>
      <trkpt lat="47.30702" lon="-1.60802">
        <ele>49.1</ele>
        <time>2015-05-10T08:34:54Z</time>
      </trkpt>
      <trkpt lat="47.30699" lon="-1.60797">
        <ele>49.8</ele>
        <time>2015-05-10T08:34:56Z</time>
      </trkpt>
      <trkpt lat="47.30697" lon="-1.60793">
        <ele>50.3</ele>
        <time>2015-05-10T08:34:58Z</time>
      </trkpt>
      <trkpt lat="47.30696" lon="-1.60789">
        <ele>50.5</ele>
        <time>2015-05-10T08:35:00Z</time>
      </trkpt>
      <trkpt lat="47.30695" lon="-1.60785">
        <ele>50.7</ele>
        <time>2015-05-10T08:35:02Z</time>
      </trkpt>
      <trkpt lat="47.30694" lon="-1.6078">
        <ele>50.9</ele>
        <time>2015-05-10T08:35:05Z</time>
      </trkpt>
      <trkpt lat="47.30698" lon="-1.60774">
        <ele>51</ele>
        <time>2015-05-10T08:35:07Z</time>
      </trkpt>
      <trkpt lat="47.30701" lon="-1.60771">
        <ele>51</ele>
        <time>2015-05-10T08:35:08Z</time>
      </trkpt>
      <trkpt lat="47.30698" lon="-1.60774">
        <ele>51</ele>
        <time>2015-05-10T08:35:13Z</time>
      </trkpt>
      <trkpt lat="47.30696" lon="-1.60777">
        <ele>51</ele>
        <time>2015-05-10T08:35:17Z</time>
      </trkpt>
      <trkpt lat="47.30695" lon="-1.60781">
        <ele>50.9</ele>
        <time>2015-05-10T08:35:22Z</time>
      </trkpt>
      <trkpt lat="47.30693" lon="-1.60785">
        <ele>50.8</ele>
        <time>2015-05-10T08:35:25Z</time>
      </trkpt>
      <trkpt lat="47.30691" lon="-1.60789">
        <ele>50.7</ele>
        <time>2015-05-10T08:35:27Z</time>
      </trkpt>
      <trkpt lat="47.30689" lon="-1.60793">
        <ele>50.6</ele>
        <time>2015-05-10T08:35:29Z</time>
      </trkpt>
      <trkpt lat="47.30686" lon="-1.60797">
        <ele>50.3</ele>
        <time>2015-05-10T08:35:31Z</time>
      </trkpt>
      <trkpt lat="47.30682" lon="-1.60801">
        <ele>50.1</ele>
        <time>2015-05-10T08:35:33Z</time>
      </trkpt>
      <trkpt lat="47.3068" lon="-1.60804">
        <ele>49.9</ele>
        <time>2015-05-10T08:35:35Z</time>
      </trkpt>
      <trkpt lat="47.30677" lon="-1.60806">
        <ele>49.8</ele>
        <time>2015-05-10T08:35:37Z</time>
      </trkpt>
      <trkpt lat="47.30673" lon="-1.6081">
        <ele>49.7</ele>
        <time>2015-05-10T08:35:39Z</time>
      </trkpt>
      <trkpt lat="47.3067" lon="-1.60813">
        <ele>49.5</ele>
        <time>2015-05-10T08:35:41Z</time>
      </trkpt>
      <trkpt lat="47.30665" lon="-1.60816">
        <ele>49.5</ele>
        <time>2015-05-10T08:35:43Z</time>
      </trkpt>
      <trkpt lat="47.30662" lon="-1.60818">
        <ele>49.5</ele>
        <time>2015-05-10T08:35:44Z</time>
      </trkpt>
      <trkpt lat="47.30658" lon="-1.60821">
        <ele>49.6</ele>
        <time>2015-05-10T08:35:46Z</time>
      </trkpt>
      <trkpt lat="47.30653" lon="-1.60825">
        <ele>49.6</ele>
        <time>2015-05-10T08:35:48Z</time>
      </trkpt>
      <trkpt lat="47.30649" lon="-1.60825">
        <ele>49.8</ele>
        <time>2015-05-10T08:35:50Z</time>
      </trkpt>
      <trkpt lat="47.30645" lon="-1.60825">
        <ele>50.1</ele>
        <time>2015-05-10T08:35:52Z</time>
      </trkpt>
      <trkpt lat="47.30642" lon="-1.60827">
        <ele>50.2</ele>
        <time>2015-05-10T08:35:54Z</time>
      </trkpt>
      <trkpt lat="47.30638" lon="-1.60828">
        <ele>50.4</ele>
        <time>2015-05-10T08:35:57Z</time>
      </trkpt>
      <trkpt lat="47.30634" lon="-1.60829">
        <ele>50.6</ele>
        <time>2015-05-10T08:35:58Z</time>
      </trkpt>
      <trkpt lat="47.30631" lon="-1.60829">
        <ele>50.8</ele>
        <time>2015-05-10T08:35:59Z</time>
      </trkpt>
      <trkpt lat="47.30627" lon="-1.6083">
        <ele>51</ele>
        <time>2015-05-10T08:36:01Z</time>
      </trkpt>
      <trkpt lat="47.30624" lon="-1.60831">
        <ele>51.2</ele>
        <time>2015-05-10T08:36:03Z</time>
      </trkpt>
      <trkpt lat="47.3062" lon="-1.60833">
        <ele>51.5</ele>
        <time>2015-05-10T08:36:05Z</time>
      </trkpt>
      <trkpt lat="47.30617" lon="-1.60834">
        <ele>51.7</ele>
        <time>2015-05-10T08:36:06Z</time>
      </trkpt>
      <trkpt lat="47.30612" lon="-1.60835">
        <ele>52.2</ele>
        <time>2015-05-10T08:36:08Z</time>
      </trkpt>
      <trkpt lat="47.30607" lon="-1.60836">
        <ele>52.6</ele>
        <time>2015-05-10T08:36:10Z</time>
      </trkpt>
      <trkpt lat="47.30604" lon="-1.60837">
        <ele>52.9</ele>
        <time>2015-05-10T08:36:11Z</time>
      </trkpt>
      <trkpt lat="47.30598" lon="-1.60838">
        <ele>53.4</ele>
        <time>2015-05-10T08:36:13Z</time>
      </trkpt>
      <trkpt lat="47.30593" lon="-1.60839">
        <ele>53.8</ele>
        <time>2015-05-10T08:36:15Z</time>
      </trkpt>
      <trkpt lat="47.30589" lon="-1.60838">
        <ele>54.3</ele>
        <time>2015-05-10T08:36:17Z</time>
      </trkpt>
      <trkpt lat="47.30585" lon="-1.6084">
        <ele>54.6</ele>
        <time>2015-05-10T08:36:19Z</time>
      </trkpt>
      <trkpt lat="47.3058" lon="-1.60841">
        <ele>54.9</ele>
        <time>2015-05-10T08:36:21Z</time>
      </trkpt>
      <trkpt lat="47.30577" lon="-1.60843">
        <ele>55.1</ele>
        <time>2015-05-10T08:36:22Z</time>
      </trkpt>
      <trkpt lat="47.30573" lon="-1.60845">
        <ele>55.5</ele>
        <time>2015-05-10T08:36:24Z</time>
      </trkpt>
      <trkpt lat="47.30568" lon="-1.60846">
        <ele>55.8</ele>
        <time>2015-05-10T08:36:26Z</time>
      </trkpt>
      <trkpt lat="47.30564" lon="-1.60848">
        <ele>56.1</ele>
        <time>2015-05-10T08:36:28Z</time>
      </trkpt>
      <trkpt lat="47.3056" lon="-1.6085">
        <ele>56.4</ele>
        <time>2015-05-10T08:36:30Z</time>
      </trkpt>
      <trkpt lat="47.30557" lon="-1.60851">
        <ele>56.6</ele>
        <time>2015-05-10T08:36:32Z</time>
      </trkpt>
      <trkpt lat="47.30555" lon="-1.60854">
        <ele>56.7</ele>
        <time>2015-05-10T08:36:34Z</time>
      </trkpt>
      <trkpt lat="47.30552" lon="-1.60856">
        <ele>56.9</ele>
        <time>2015-05-10T08:36:36Z</time>
      </trkpt>
      <trkpt lat="47.30549" lon="-1.60858">
        <ele>57.1</ele>
        <time>2015-05-10T08:36:38Z</time>
      </trkpt>
      <trkpt lat="47.30546" lon="-1.6086">
        <ele>57.3</ele>
        <time>2015-05-10T08:36:40Z</time>
      </trkpt>
      <trkpt lat="47.30542" lon="-1.60862">
        <ele>57.6</ele>
        <time>2015-05-10T08:36:42Z</time>
      </trkpt>
      <trkpt lat="47.30539" lon="-1.60863">
        <ele>57.7</ele>
        <time>2015-05-10T08:36:44Z</time>
      </trkpt>
      <trkpt lat="47.30537" lon="-1.60865">
        <ele>57.7</ele>
        <time>2015-05-10T08:36:46Z</time>
      </trkpt>
      <trkpt lat="47.30533" lon="-1.60866">
        <ele>57.9</ele>
        <time>2015-05-10T08:36:49Z</time>
      </trkpt>
      <trkpt lat="47.3053" lon="-1.60868">
        <ele>57.9</ele>
        <time>2015-05-10T08:36:51Z</time>
      </trkpt>
      <trkpt lat="47.30526" lon="-1.6087">
        <ele>58</ele>
        <time>2015-05-10T08:36:53Z</time>
      </trkpt>
      <trkpt lat="47.30522" lon="-1.60872">
        <ele>58.1</ele>
        <time>2015-05-10T08:36:56Z</time>
      </trkpt>
      <trkpt lat="47.30519" lon="-1.60872">
        <ele>58.2</ele>
        <time>2015-05-10T08:37:00Z</time>
      </trkpt>
      <trkpt lat="47.30517" lon="-1.60875">
        <ele>58.2</ele>
        <time>2015-05-10T08:37:04Z</time>
      </trkpt>
      <trkpt lat="47.30518" lon="-1.6088">
        <ele>58.1</ele>
        <time>2015-05-10T08:37:08Z</time>
      </trkpt>
      <trkpt lat="47.30517" lon="-1.60884">
        <ele>58</ele>
        <time>2015-05-10T08:37:11Z</time>
      </trkpt>
      <trkpt lat="47.30518" lon="-1.60888">
        <ele>57.9</ele>
        <time>2015-05-10T08:37:14Z</time>
      </trkpt>
      <trkpt lat="47.30519" lon="-1.60893">
        <ele>57.8</ele>
        <time>2015-05-10T08:37:16Z</time>
      </trkpt>
      <trkpt lat="47.30518" lon="-1.60897">
        <ele>57.7</ele>
        <time>2015-05-10T08:37:18Z</time>
      </trkpt>
      <trkpt lat="47.30518" lon="-1.60903">
        <ele>57.6</ele>
        <time>2015-05-10T08:37:21Z</time>
      </trkpt>
      <trkpt lat="47.30519" lon="-1.60907">
        <ele>57.5</ele>
        <time>2015-05-10T08:37:23Z</time>
      </trkpt>
      <trkpt lat="47.3052" lon="-1.60911">
        <ele>57.4</ele>
        <time>2015-05-10T08:37:24Z</time>
      </trkpt>
      <trkpt lat="47.30521" lon="-1.60917">
        <ele>57.2</ele>
        <time>2015-05-10T08:37:26Z</time>
      </trkpt>
      <trkpt lat="47.30523" lon="-1.60923">
        <ele>57.1</ele>
        <time>2015-05-10T08:37:28Z</time>
      </trkpt>
      <trkpt lat="47.30523" lon="-1.60927">
        <ele>57</ele>
        <time>2015-05-10T08:37:29Z</time>
      </trkpt>
      <trkpt lat="47.30523" lon="-1.60932">
        <ele>56.9</ele>
        <time>2015-05-10T08:37:30Z</time>
      </trkpt>
      <trkpt lat="47.30524" lon="-1.60939">
        <ele>56.8</ele>
        <time>2015-05-10T08:37:32Z</time>
      </trkpt>
      <trkpt lat="47.30526" lon="-1.60943">
        <ele>56.6</ele>
        <time>2015-05-10T08:37:33Z</time>
      </trkpt>
      <trkpt lat="47.30527" lon="-1.60948">
        <ele>56.5</ele>
        <time>2015-05-10T08:37:34Z</time>
      </trkpt>
      <trkpt lat="47.30527" lon="-1.60953">
        <ele>56.4</ele>
        <time>2015-05-10T08:37:35Z</time>
      </trkpt>
      <trkpt lat="47.30527" lon="-1.60958">
        <ele>56.4</ele>
        <time>2015-05-10T08:37:36Z</time>
      </trkpt>
      <trkpt lat="47.30527" lon="-1.60962">
        <ele>56.3</ele>
        <time>2015-05-10T08:37:37Z</time>
      </trkpt>
      <trkpt lat="47.30527" lon="-1.60967">
        <ele>56.2</ele>
        <time>2015-05-10T08:37:38Z</time>
      </trkpt>
      <trkpt lat="47.30528" lon="-1.60972">
        <ele>56.1</ele>
        <time>2015-05-10T08:37:39Z</time>
      </trkpt>
      <trkpt lat="47.30528" lon="-1.60977">
        <ele>56</ele>
        <time>2015-05-10T08:37:40Z</time>
      </trkpt>
      <trkpt lat="47.30528" lon="-1.60983">
        <ele>55.9</ele>
        <time>2015-05-10T08:37:41Z</time>
      </trkpt>
      <trkpt lat="47.30528" lon="-1.60988">
        <ele>55.9</ele>
        <time>2015-05-10T08:37:42Z</time>
      </trkpt>
      <trkpt lat="47.30528" lon="-1.60992">
        <ele>55.8</ele>
        <time>2015-05-10T08:37:43Z</time>
      </trkpt>
      <trkpt lat="47.30529" lon="-1.60997">
        <ele>55.7</ele>
        <time>2015-05-10T08:37:44Z</time>
      </trkpt>
      <trkpt lat="47.30533" lon="-1.61009">
        <ele>55.5</ele>
        <time>2015-05-10T08:37:45Z</time>
      </trkpt>
      <trkpt lat="47.30535" lon="-1.61018">
        <ele>55.3</ele>
        <time>2015-05-10T08:37:46Z</time>
      </trkpt>
      <trkpt lat="47.30537" lon="-1.61028">
        <ele>55.2</ele>
        <time>2015-05-10T08:37:47Z</time>
      </trkpt>
      <trkpt lat="47.30537" lon="-1.61037">
        <ele>55.1</ele>
        <time>2015-05-10T08:37:48Z</time>
      </trkpt>
      <trkpt lat="47.30537" lon="-1.61045">
        <ele>54.8</ele>
        <time>2015-05-10T08:37:49Z</time>
      </trkpt>
      <trkpt lat="47.30536" lon="-1.61053">
        <ele>54.2</ele>
        <time>2015-05-10T08:37:50Z</time>
      </trkpt>
      <trkpt lat="47.30535" lon="-1.61061">
        <ele>53.6</ele>
        <time>2015-05-10T08:37:51Z</time>
      </trkpt>
      <trkpt lat="47.30534" lon="-1.61071">
        <ele>52.9</ele>
        <time>2015-05-10T08:37:52Z</time>
      </trkpt>
      <trkpt lat="47.30535" lon="-1.61083">
        <ele>52</ele>
        <time>2015-05-10T08:37:53Z</time>
      </trkpt>
      <trkpt lat="47.30535" lon="-1.61096">
        <ele>51.1</ele>
        <time>2015-05-10T08:37:54Z</time>
      </trkpt>
      <trkpt lat="47.30537" lon="-1.61109">
        <ele>50.2</ele>
        <time>2015-05-10T08:37:55Z</time>
      </trkpt>
      <trkpt lat="47.30537" lon="-1.61119">
        <ele>49.4</ele>
        <time>2015-05-10T08:37:56Z</time>
      </trkpt>
      <trkpt lat="47.30538" lon="-1.61127">
        <ele>49</ele>
        <time>2015-05-10T08:37:57Z</time>
      </trkpt>
      <trkpt lat="47.30537" lon="-1.61134">
        <ele>49.1</ele>
        <time>2015-05-10T08:37:58Z</time>
      </trkpt>
      <trkpt lat="47.30537" lon="-1.61141">
        <ele>49.2</ele>
        <time>2015-05-10T08:37:59Z</time>
      </trkpt>
      <trkpt lat="47.30536" lon="-1.61147">
        <ele>49.2</ele>
        <time>2015-05-10T08:38:00Z</time>
      </trkpt>
      <trkpt lat="47.30535" lon="-1.61152">
        <ele>49.3</ele>
        <time>2015-05-10T08:38:01Z</time>
      </trkpt>
      <trkpt lat="47.30532" lon="-1.61155">
        <ele>49.2</ele>
        <time>2015-05-10T08:38:02Z</time>
      </trkpt>
      <trkpt lat="47.30529" lon="-1.61158">
        <ele>49.2</ele>
        <time>2015-05-10T08:38:03Z</time>
      </trkpt>
      <trkpt lat="47.30526" lon="-1.61158">
        <ele>49.2</ele>
        <time>2015-05-10T08:38:05Z</time>
      </trkpt>
      <trkpt lat="47.30523" lon="-1.61156">
        <ele>49.1</ele>
        <time>2015-05-10T08:38:07Z</time>
      </trkpt>
      <trkpt lat="47.3052" lon="-1.61155">
        <ele>49.1</ele>
        <time>2015-05-10T08:38:09Z</time>
      </trkpt>
      <trkpt lat="47.30517" lon="-1.61152">
        <ele>49</ele>
        <time>2015-05-10T08:38:11Z</time>
      </trkpt>
      <trkpt lat="47.30514" lon="-1.61149">
        <ele>49</ele>
        <time>2015-05-10T08:38:13Z</time>
      </trkpt>
      <trkpt lat="47.30513" lon="-1.61144">
        <ele>49</ele>
        <time>2015-05-10T08:38:17Z</time>
      </trkpt>
      <trkpt lat="47.30512" lon="-1.61139">
        <ele>49</ele>
        <time>2015-05-10T08:38:20Z</time>
      </trkpt>
      <trkpt lat="47.30509" lon="-1.61136">
        <ele>49</ele>
        <time>2015-05-10T08:38:24Z</time>
      </trkpt>
      <trkpt lat="47.30505" lon="-1.61128">
        <ele>49</ele>
        <time>2015-05-10T08:38:32Z</time>
      </trkpt>
      <trkpt lat="47.30502" lon="-1.61125">
        <ele>49</ele>
        <time>2015-05-10T08:38:34Z</time>
      </trkpt>
      <trkpt lat="47.305" lon="-1.61121">
        <ele>49.3</ele>
        <time>2015-05-10T08:38:36Z</time>
      </trkpt>
      <trkpt lat="47.30502" lon="-1.61123">
        <ele>49.1</ele>
        <time>2015-05-10T08:38:43Z</time>
      </trkpt>
      <trkpt lat="47.30503" lon="-1.61127">
        <ele>49</ele>
        <time>2015-05-10T08:38:46Z</time>
      </trkpt>
      <trkpt lat="47.30505" lon="-1.61132">
        <ele>49</ele>
        <time>2015-05-10T08:38:49Z</time>
      </trkpt>
      <trkpt lat="47.30507" lon="-1.61137">
        <ele>49</ele>
        <time>2015-05-10T08:38:51Z</time>
      </trkpt>
      <trkpt lat="47.30506" lon="-1.61143">
        <ele>48.9</ele>
        <time>2015-05-10T08:38:54Z</time>
      </trkpt>
      <trkpt lat="47.30505" lon="-1.61151">
        <ele>48.9</ele>
        <time>2015-05-10T08:38:56Z</time>
      </trkpt>
      <trkpt lat="47.30503" lon="-1.61154">
        <ele>48.9</ele>
        <time>2015-05-10T08:38:57Z</time>
      </trkpt>
      <trkpt lat="47.30502" lon="-1.6116">
        <ele>48.8</ele>
        <time>2015-05-10T08:38:59Z</time>
      </trkpt>
      <trkpt lat="47.305" lon="-1.61166">
        <ele>48.8</ele>
        <time>2015-05-10T08:39:01Z</time>
      </trkpt>
      <trkpt lat="47.30498" lon="-1.61168">
        <ele>48.7</ele>
        <time>2015-05-10T08:39:02Z</time>
      </trkpt>
      <trkpt lat="47.30493" lon="-1.6117">
        <ele>48.6</ele>
        <time>2015-05-10T08:39:04Z</time>
      </trkpt>
      <trkpt lat="47.30489" lon="-1.61175">
        <ele>48.5</ele>
        <time>2015-05-10T08:39:06Z</time>
      </trkpt>
      <trkpt lat="47.30486" lon="-1.61178">
        <ele>48.4</ele>
        <time>2015-05-10T08:39:08Z</time>
      </trkpt>
      <trkpt lat="47.30484" lon="-1.61181">
        <ele>48.3</ele>
        <time>2015-05-10T08:39:09Z</time>
      </trkpt>
      <trkpt lat="47.30481" lon="-1.61184">
        <ele>48.2</ele>
        <time>2015-05-10T08:39:10Z</time>
      </trkpt>
      <trkpt lat="47.30479" lon="-1.61184">
        <ele>48.1</ele>
        <time>2015-05-10T08:39:11Z</time>
      </trkpt>
      <trkpt lat="47.30472" lon="-1.61184">
        <ele>47.9</ele>
        <time>2015-05-10T08:39:12Z</time>
      </trkpt>
      <trkpt lat="47.30468" lon="-1.61182">
        <ele>47.9</ele>
        <time>2015-05-10T08:39:13Z</time>
      </trkpt>
      <trkpt lat="47.30466" lon="-1.61179">
        <ele>47.9</ele>
        <time>2015-05-10T08:39:14Z</time>
      </trkpt>
      <trkpt lat="47.30465" lon="-1.61173">
        <ele>48</ele>
        <time>2015-05-10T08:39:15Z</time>
      </trkpt>
      <trkpt lat="47.30463" lon="-1.6117">
        <ele>48</ele>
        <time>2015-05-10T08:39:17Z</time>
      </trkpt>
      <trkpt lat="47.30443" lon="-1.6115">
        <ele>48.8</ele>
        <time>2015-05-10T08:39:43Z</time>
      </trkpt>
      <trkpt lat="47.30446" lon="-1.61146">
        <ele>48.9</ele>
        <time>2015-05-10T08:39:45Z</time>
      </trkpt>
      <trkpt lat="47.30449" lon="-1.61142">
        <ele>48.9</ele>
        <time>2015-05-10T08:39:47Z</time>
      </trkpt>
      <trkpt lat="47.30449" lon="-1.61137">
        <ele>49</ele>
        <time>2015-05-10T08:39:48Z</time>
      </trkpt>
      <trkpt lat="47.3045" lon="-1.61132">
        <ele>49.1</ele>
        <time>2015-05-10T08:39:50Z</time>
      </trkpt>
      <trkpt lat="47.30453" lon="-1.6113">
        <ele>49.1</ele>
        <time>2015-05-10T08:39:52Z</time>
      </trkpt>
      <trkpt lat="47.30456" lon="-1.61127">
        <ele>49</ele>
        <time>2015-05-10T08:39:54Z</time>
      </trkpt>
      <trkpt lat="47.30462" lon="-1.61123">
        <ele>49.1</ele>
        <time>2015-05-10T08:39:56Z</time>
      </trkpt>
      <trkpt lat="47.30464" lon="-1.61121">
        <ele>49.3</ele>
        <time>2015-05-10T08:39:58Z</time>
      </trkpt>
      <trkpt lat="47.30468" lon="-1.61118">
        <ele>49.5</ele>
        <time>2015-05-10T08:40:00Z</time>
      </trkpt>
      <trkpt lat="47.30471" lon="-1.61115">
        <ele>49.7</ele>
        <time>2015-05-10T08:40:02Z</time>
      </trkpt>
      <trkpt lat="47.30474" lon="-1.61116">
        <ele>49.7</ele>
        <time>2015-05-10T08:40:04Z</time>
      </trkpt>
      <trkpt lat="47.30475" lon="-1.61121">
        <ele>49.3</ele>
        <time>2015-05-10T08:40:07Z</time>
      </trkpt>
      <trkpt lat="47.30474" lon="-1.61126">
        <ele>49</ele>
        <time>2015-05-10T08:40:09Z</time>
      </trkpt>
      <trkpt lat="47.30472" lon="-1.61128">
        <ele>48.9</ele>
        <time>2015-05-10T08:40:12Z</time>
      </trkpt>
      <trkpt lat="47.3047" lon="-1.61132">
        <ele>48.9</ele>
        <time>2015-05-10T08:40:15Z</time>
      </trkpt>
      <trkpt lat="47.30478" lon="-1.61138">
        <ele>48.8</ele>
        <time>2015-05-10T08:40:32Z</time>
      </trkpt>
      <trkpt lat="47.30481" lon="-1.61136">
        <ele>48.8</ele>
        <time>2015-05-10T08:40:34Z</time>
      </trkpt>
      <trkpt lat="47.30483" lon="-1.61133">
        <ele>48.9</ele>
        <time>2015-05-10T08:40:36Z</time>
      </trkpt>
      <trkpt lat="47.3048" lon="-1.61133">
        <ele>48.9</ele>
        <time>2015-05-10T08:40:46Z</time>
      </trkpt>
      <trkpt lat="47.30477" lon="-1.61131">
        <ele>48.9</ele>
        <time>2015-05-10T08:40:49Z</time>
      </trkpt>
      <trkpt lat="47.30477" lon="-1.61126">
        <ele>49</ele>
        <time>2015-05-10T08:40:53Z</time>
      </trkpt>
      <trkpt lat="47.30475" lon="-1.61122">
        <ele>49.2</ele>
        <time>2015-05-10T08:40:56Z</time>
      </trkpt>
      <trkpt lat="47.30472" lon="-1.61123">
        <ele>49.2</ele>
        <time>2015-05-10T08:41:00Z</time>
      </trkpt>
      <trkpt lat="47.30469" lon="-1.61125">
        <ele>49</ele>
        <time>2015-05-10T08:41:05Z</time>
      </trkpt>
      <trkpt lat="47.30467" lon="-1.61127">
        <ele>49</ele>
        <time>2015-05-10T08:41:08Z</time>
      </trkpt>
      <trkpt lat="47.30462" lon="-1.61123">
        <ele>49.1</ele>
        <time>2015-05-10T08:41:10Z</time>
      </trkpt>
      <trkpt lat="47.30461" lon="-1.61119">
        <ele>49.5</ele>
        <time>2015-05-10T08:41:12Z</time>
      </trkpt>
      <trkpt lat="47.30463" lon="-1.61115">
        <ele>49.8</ele>
        <time>2015-05-10T08:41:14Z</time>
      </trkpt>
      <trkpt lat="47.30465" lon="-1.6111">
        <ele>50.1</ele>
        <time>2015-05-10T08:41:16Z</time>
      </trkpt>
      <trkpt lat="47.30466" lon="-1.61107">
        <ele>50.3</ele>
        <time>2015-05-10T08:41:19Z</time>
      </trkpt>
      <trkpt lat="47.30467" lon="-1.61103">
        <ele>50.6</ele>
        <time>2015-05-10T08:41:22Z</time>
      </trkpt>
      <trkpt lat="47.30472" lon="-1.611">
        <ele>50.8</ele>
        <time>2015-05-10T08:41:25Z</time>
      </trkpt>
      <trkpt lat="47.30475" lon="-1.61096">
        <ele>51.1</ele>
        <time>2015-05-10T08:41:27Z</time>
      </trkpt>
      <trkpt lat="47.30477" lon="-1.61093">
        <ele>51.3</ele>
        <time>2015-05-10T08:41:28Z</time>
      </trkpt>
      <trkpt lat="47.30477" lon="-1.61088">
        <ele>51.6</ele>
        <time>2015-05-10T08:41:30Z</time>
      </trkpt>
      <trkpt lat="47.30474" lon="-1.61087">
        <ele>51.7</ele>
        <time>2015-05-10T08:41:33Z</time>
      </trkpt>
      <trkpt lat="47.30471" lon="-1.61088">
        <ele>51.7</ele>
        <time>2015-05-10T08:41:36Z</time>
      </trkpt>
      <trkpt lat="47.30469" lon="-1.61084">
        <ele>52</ele>
        <time>2015-05-10T08:41:40Z</time>
      </trkpt>
      <trkpt lat="47.30466" lon="-1.61082">
        <ele>52.1</ele>
        <time>2015-05-10T08:41:43Z</time>
      </trkpt>
      <trkpt lat="47.30463" lon="-1.6108">
        <ele>52.3</ele>
        <time>2015-05-10T08:41:48Z</time>
      </trkpt>
      <trkpt lat="47.3046" lon="-1.61077">
        <ele>52.4</ele>
        <time>2015-05-10T08:41:50Z</time>
      </trkpt>
      <trkpt lat="47.30459" lon="-1.61073">
        <ele>52.7</ele>
        <time>2015-05-10T08:41:52Z</time>
      </trkpt>
      <trkpt lat="47.30458" lon="-1.61069">
        <ele>53</ele>
        <time>2015-05-10T08:41:53Z</time>
      </trkpt>
      <trkpt lat="47.30458" lon="-1.61064">
        <ele>53.4</ele>
        <time>2015-05-10T08:41:55Z</time>
      </trkpt>
      <trkpt lat="47.3046" lon="-1.6106">
        <ele>53.7</ele>
        <time>2015-05-10T08:41:57Z</time>
      </trkpt>
      <trkpt lat="47.3046" lon="-1.61055">
        <ele>54.1</ele>
        <time>2015-05-10T08:42:00Z</time>
      </trkpt>
      <trkpt lat="47.30457" lon="-1.61051">
        <ele>54.4</ele>
        <time>2015-05-10T08:42:02Z</time>
      </trkpt>
      <trkpt lat="47.30455" lon="-1.61047">
        <ele>54.7</ele>
        <time>2015-05-10T08:42:04Z</time>
      </trkpt>
      <trkpt lat="47.30453" lon="-1.61044">
        <ele>54.9</ele>
        <time>2015-05-10T08:42:06Z</time>
      </trkpt>
      <trkpt lat="47.3045" lon="-1.61042">
        <ele>55.1</ele>
        <time>2015-05-10T08:42:08Z</time>
      </trkpt>
      <trkpt lat="47.30447" lon="-1.6104">
        <ele>55.2</ele>
        <time>2015-05-10T08:42:13Z</time>
      </trkpt>
      <trkpt lat="47.30444" lon="-1.6104">
        <ele>55.2</ele>
        <time>2015-05-10T08:42:17Z</time>
      </trkpt>
      <trkpt lat="47.30441" lon="-1.6104">
        <ele>55.3</ele>
        <time>2015-05-10T08:42:19Z</time>
      </trkpt>
      <trkpt lat="47.30438" lon="-1.61039">
        <ele>55.4</ele>
        <time>2015-05-10T08:42:23Z</time>
      </trkpt>
      <trkpt lat="47.30434" lon="-1.61039">
        <ele>55.4</ele>
        <time>2015-05-10T08:42:25Z</time>
      </trkpt>
      <trkpt lat="47.30432" lon="-1.61037">
        <ele>55.5</ele>
        <time>2015-05-10T08:42:27Z</time>
      </trkpt>
      <trkpt lat="47.30427" lon="-1.61037">
        <ele>55.6</ele>
        <time>2015-05-10T08:42:29Z</time>
      </trkpt>
      <trkpt lat="47.30422" lon="-1.61038">
        <ele>55.6</ele>
        <time>2015-05-10T08:42:31Z</time>
      </trkpt>
      <trkpt lat="47.30419" lon="-1.61039">
        <ele>55.6</ele>
        <time>2015-05-10T08:42:33Z</time>
      </trkpt>
      <trkpt lat="47.30416" lon="-1.61038">
        <ele>55.6</ele>
        <time>2015-05-10T08:42:35Z</time>
      </trkpt>
      <trkpt lat="47.30412" lon="-1.61036">
        <ele>55.8</ele>
        <time>2015-05-10T08:42:38Z</time>
      </trkpt>
      <trkpt lat="47.30408" lon="-1.61036">
        <ele>55.8</ele>
        <time>2015-05-10T08:42:40Z</time>
      </trkpt>
      <trkpt lat="47.30405" lon="-1.61036">
        <ele>55.8</ele>
        <time>2015-05-10T08:42:42Z</time>
      </trkpt>
      <trkpt lat="47.30403" lon="-1.61035">
        <ele>55.9</ele>
        <time>2015-05-10T08:42:45Z</time>
      </trkpt>
      <trkpt lat="47.304" lon="-1.61032">
        <ele>56.1</ele>
        <time>2015-05-10T08:42:48Z</time>
      </trkpt>
      <trkpt lat="47.30399" lon="-1.61027">
        <ele>56.3</ele>
        <time>2015-05-10T08:42:50Z</time>
      </trkpt>
      <trkpt lat="47.30401" lon="-1.61023">
        <ele>56.4</ele>
        <time>2015-05-10T08:42:52Z</time>
      </trkpt>
      <trkpt lat="47.30401" lon="-1.61017">
        <ele>56.6</ele>
        <time>2015-05-10T08:42:54Z</time>
      </trkpt>
      <trkpt lat="47.30403" lon="-1.61013">
        <ele>56.7</ele>
        <time>2015-05-10T08:42:55Z</time>
      </trkpt>
      <trkpt lat="47.30405" lon="-1.61008">
        <ele>56.9</ele>
        <time>2015-05-10T08:42:57Z</time>
      </trkpt>
      <trkpt lat="47.30407" lon="-1.61006">
        <ele>56.9</ele>
        <time>2015-05-10T08:42:59Z</time>
      </trkpt>
      <trkpt lat="47.3041" lon="-1.61007">
        <ele>56.8</ele>
        <time>2015-05-10T08:43:01Z</time>
      </trkpt>
      <trkpt lat="47.30414" lon="-1.61005">
        <ele>56.9</ele>
        <time>2015-05-10T08:43:03Z</time>
      </trkpt>
      <trkpt lat="47.30417" lon="-1.61003">
        <ele>56.9</ele>
        <time>2015-05-10T08:43:05Z</time>
      </trkpt>
      <trkpt lat="47.3042" lon="-1.61003">
        <ele>56.9</ele>
        <time>2015-05-10T08:43:06Z</time>
      </trkpt>
      <trkpt lat="47.30423" lon="-1.61002">
        <ele>56.8</ele>
        <time>2015-05-10T08:43:08Z</time>
      </trkpt>
      <trkpt lat="47.30426" lon="-1.60999">
        <ele>56.9</ele>
        <time>2015-05-10T08:43:10Z</time>
      </trkpt>
      <trkpt lat="47.30428" lon="-1.60996">
        <ele>57</ele>
        <time>2015-05-10T08:43:25Z</time>
      </trkpt>
      <trkpt lat="47.30429" lon="-1.60992">
        <ele>57.1</ele>
        <time>2015-05-10T08:43:30Z</time>
      </trkpt>
      <trkpt lat="47.30429" lon="-1.60997">
        <ele>57</ele>
        <time>2015-05-10T08:45:12Z</time>
      </trkpt>
      <trkpt lat="47.30427" lon="-1.60997">
        <ele>57</ele>
        <time>2015-05-10T08:45:17Z</time>
      </trkpt>
      <trkpt lat="47.30424" lon="-1.61">
        <ele>56.9</ele>
        <time>2015-05-10T08:45:24Z</time>
      </trkpt>
      <trkpt lat="47.3042" lon="-1.61">
        <ele>57</ele>
        <time>2015-05-10T08:45:26Z</time>
      </trkpt>
      <trkpt lat="47.30418" lon="-1.60998">
        <ele>57</ele>
        <time>2015-05-10T08:45:28Z</time>
      </trkpt>
      <trkpt lat="47.30416" lon="-1.60995">
        <ele>57.2</ele>
        <time>2015-05-10T08:45:30Z</time>
      </trkpt>
      <trkpt lat="47.30413" lon="-1.60991">
        <ele>57.4</ele>
        <time>2015-05-10T08:45:32Z</time>
      </trkpt>
      <trkpt lat="47.3041" lon="-1.60989">
        <ele>57.5</ele>
        <time>2015-05-10T08:45:34Z</time>
      </trkpt>
      <trkpt lat="47.30407" lon="-1.60987">
        <ele>57.6</ele>
        <time>2015-05-10T08:45:37Z</time>
      </trkpt>
      <trkpt lat="47.30404" lon="-1.60984">
        <ele>57.7</ele>
        <time>2015-05-10T08:45:39Z</time>
      </trkpt>
      <trkpt lat="47.30403" lon="-1.60981">
        <ele>57.9</ele>
        <time>2015-05-10T08:45:41Z</time>
      </trkpt>
      <trkpt lat="47.30401" lon="-1.60977">
        <ele>58</ele>
        <time>2015-05-10T08:45:43Z</time>
      </trkpt>
      <trkpt lat="47.30399" lon="-1.60974">
        <ele>58.1</ele>
        <time>2015-05-10T08:45:45Z</time>
      </trkpt>
      <trkpt lat="47.30396" lon="-1.60971">
        <ele>58.3</ele>
        <time>2015-05-10T08:45:47Z</time>
      </trkpt>
      <trkpt lat="47.30393" lon="-1.60968">
        <ele>58.4</ele>
        <time>2015-05-10T08:45:49Z</time>
      </trkpt>
      <trkpt lat="47.3039" lon="-1.60967">
        <ele>58.5</ele>
        <time>2015-05-10T08:45:51Z</time>
      </trkpt>
      <trkpt lat="47.30387" lon="-1.60965">
        <ele>58.6</ele>
        <time>2015-05-10T08:45:53Z</time>
      </trkpt>
      <trkpt lat="47.30385" lon="-1.60961">
        <ele>58.8</ele>
        <time>2015-05-10T08:45:55Z</time>
      </trkpt>
      <trkpt lat="47.30382" lon="-1.60959">
        <ele>58.9</ele>
        <time>2015-05-10T08:45:57Z</time>
      </trkpt>
      <trkpt lat="47.3038" lon="-1.60963">
        <ele>58.8</ele>
        <time>2015-05-10T08:46:01Z</time>
      </trkpt>
      <trkpt lat="47.3038" lon="-1.60967">
        <ele>58.6</ele>
        <time>2015-05-10T08:46:03Z</time>
      </trkpt>
      <trkpt lat="47.30381" lon="-1.60972">
        <ele>58.4</ele>
        <time>2015-05-10T08:46:06Z</time>
      </trkpt>
      <trkpt lat="47.30383" lon="-1.60976">
        <ele>58.3</ele>
        <time>2015-05-10T08:46:08Z</time>
      </trkpt>
      <trkpt lat="47.30385" lon="-1.6098">
        <ele>58.1</ele>
        <time>2015-05-10T08:46:10Z</time>
      </trkpt>
      <trkpt lat="47.30386" lon="-1.60984">
        <ele>58</ele>
        <time>2015-05-10T08:46:12Z</time>
      </trkpt>
      <trkpt lat="47.30387" lon="-1.60989">
        <ele>57.8</ele>
        <time>2015-05-10T08:46:14Z</time>
      </trkpt>
      <trkpt lat="47.30389" lon="-1.60994">
        <ele>57.6</ele>
        <time>2015-05-10T08:46:16Z</time>
      </trkpt>
      <trkpt lat="47.3039" lon="-1.61">
        <ele>57.3</ele>
        <time>2015-05-10T08:46:18Z</time>
      </trkpt>
      <trkpt lat="47.3039" lon="-1.61006">
        <ele>57.1</ele>
        <time>2015-05-10T08:46:20Z</time>
      </trkpt>
      <trkpt lat="47.30391" lon="-1.61012">
        <ele>56.9</ele>
        <time>2015-05-10T08:46:22Z</time>
      </trkpt>
      <trkpt lat="47.30391" lon="-1.61017">
        <ele>56.7</ele>
        <time>2015-05-10T08:46:24Z</time>
      </trkpt>
      <trkpt lat="47.30391" lon="-1.61023">
        <ele>56.5</ele>
        <time>2015-05-10T08:46:26Z</time>
      </trkpt>
      <trkpt lat="47.3039" lon="-1.61027">
        <ele>56.4</ele>
        <time>2015-05-10T08:46:28Z</time>
      </trkpt>
      <trkpt lat="47.30386" lon="-1.61026">
        <ele>56.4</ele>
        <time>2015-05-10T08:46:31Z</time>
      </trkpt>
      <trkpt lat="47.30385" lon="-1.61022">
        <ele>56.6</ele>
        <time>2015-05-10T08:46:33Z</time>
      </trkpt>
      <trkpt lat="47.30383" lon="-1.61018">
        <ele>56.8</ele>
        <time>2015-05-10T08:46:35Z</time>
      </trkpt>
      <trkpt lat="47.30381" lon="-1.61015">
        <ele>56.9</ele>
        <time>2015-05-10T08:46:37Z</time>
      </trkpt>
      <trkpt lat="47.30379" lon="-1.61012">
        <ele>57</ele>
        <time>2015-05-10T08:46:39Z</time>
      </trkpt>
      <trkpt lat="47.30377" lon="-1.61009">
        <ele>57.2</ele>
        <time>2015-05-10T08:46:41Z</time>
      </trkpt>
      <trkpt lat="47.30374" lon="-1.61005">
        <ele>57.3</ele>
        <time>2015-05-10T08:46:45Z</time>
      </trkpt>
      <trkpt lat="47.30371" lon="-1.61003">
        <ele>57.2</ele>
        <time>2015-05-10T08:46:47Z</time>
      </trkpt>
      <trkpt lat="47.30369" lon="-1.61">
        <ele>57.2</ele>
        <time>2015-05-10T08:46:49Z</time>
      </trkpt>
      <trkpt lat="47.30366" lon="-1.60997">
        <ele>57.2</ele>
        <time>2015-05-10T08:46:51Z</time>
      </trkpt>
      <trkpt lat="47.30362" lon="-1.60996">
        <ele>57.1</ele>
        <time>2015-05-10T08:46:53Z</time>
      </trkpt>
      <trkpt lat="47.3036" lon="-1.60995">
        <ele>57</ele>
        <time>2015-05-10T08:46:55Z</time>
      </trkpt>
      <trkpt lat="47.30356" lon="-1.60995">
        <ele>56.9</ele>
        <time>2015-05-10T08:46:57Z</time>
      </trkpt>
      <trkpt lat="47.30353" lon="-1.60995">
        <ele>56.8</ele>
        <time>2015-05-10T08:46:59Z</time>
      </trkpt>
      <trkpt lat="47.30349" lon="-1.60991">
        <ele>56.8</ele>
        <time>2015-05-10T08:47:02Z</time>
      </trkpt>
      <trkpt lat="47.30347" lon="-1.60987">
        <ele>56.9</ele>
        <time>2015-05-10T08:47:04Z</time>
      </trkpt>
      <trkpt lat="47.30347" lon="-1.60982">
        <ele>57.1</ele>
        <time>2015-05-10T08:47:06Z</time>
      </trkpt>
      <trkpt lat="47.30349" lon="-1.60978">
        <ele>57.3</ele>
        <time>2015-05-10T08:47:08Z</time>
      </trkpt>
      <trkpt lat="47.30349" lon="-1.60974">
        <ele>57.4</ele>
        <time>2015-05-10T08:47:10Z</time>
      </trkpt>
      <trkpt lat="47.30349" lon="-1.60968">
        <ele>57.7</ele>
        <time>2015-05-10T08:47:12Z</time>
      </trkpt>
      <trkpt lat="47.30348" lon="-1.60963">
        <ele>57.8</ele>
        <time>2015-05-10T08:47:14Z</time>
      </trkpt>
      <trkpt lat="47.30345" lon="-1.60959">
        <ele>57.9</ele>
        <time>2015-05-10T08:47:16Z</time>
      </trkpt>
      <trkpt lat="47.30344" lon="-1.60954">
        <ele>58</ele>
        <time>2015-05-10T08:47:18Z</time>
      </trkpt>
      <trkpt lat="47.30343" lon="-1.60948">
        <ele>58.1</ele>
        <time>2015-05-10T08:47:20Z</time>
      </trkpt>
      <trkpt lat="47.30339" lon="-1.60944">
        <ele>58</ele>
        <time>2015-05-10T08:47:22Z</time>
      </trkpt>
      <trkpt lat="47.30336" lon="-1.60941">
        <ele>57.9</ele>
        <time>2015-05-10T08:47:24Z</time>
      </trkpt>
      <trkpt lat="47.30335" lon="-1.60938">
        <ele>57.9</ele>
        <time>2015-05-10T08:47:26Z</time>
      </trkpt>
      <trkpt lat="47.30333" lon="-1.60934">
        <ele>57.9</ele>
        <time>2015-05-10T08:47:28Z</time>
      </trkpt>
      <trkpt lat="47.30332" lon="-1.60929">
        <ele>58</ele>
        <time>2015-05-10T08:47:30Z</time>
      </trkpt>
      <trkpt lat="47.30328" lon="-1.60925">
        <ele>57.9</ele>
        <time>2015-05-10T08:47:32Z</time>
      </trkpt>
      <trkpt lat="47.30325" lon="-1.60926">
        <ele>57.8</ele>
        <time>2015-05-10T08:47:35Z</time>
      </trkpt>
      <trkpt lat="47.30322" lon="-1.60925">
        <ele>57.6</ele>
        <time>2015-05-10T08:47:37Z</time>
      </trkpt>
      <trkpt lat="47.30321" lon="-1.6092">
        <ele>57.7</ele>
        <time>2015-05-10T08:47:39Z</time>
      </trkpt>
      <trkpt lat="47.30322" lon="-1.60914">
        <ele>57.8</ele>
        <time>2015-05-10T08:47:42Z</time>
      </trkpt>
      <trkpt lat="47.30323" lon="-1.60908">
        <ele>57.9</ele>
        <time>2015-05-10T08:47:44Z</time>
      </trkpt>
      <trkpt lat="47.30321" lon="-1.60903">
        <ele>58</ele>
        <time>2015-05-10T08:47:46Z</time>
      </trkpt>
      <trkpt lat="47.30319" lon="-1.60897">
        <ele>58</ele>
        <time>2015-05-10T08:47:49Z</time>
      </trkpt>
      <trkpt lat="47.3032" lon="-1.60891">
        <ele>58.1</ele>
        <time>2015-05-10T08:47:51Z</time>
      </trkpt>
      <trkpt lat="47.30319" lon="-1.60887">
        <ele>58.1</ele>
        <time>2015-05-10T08:47:52Z</time>
      </trkpt>
      <trkpt lat="47.30317" lon="-1.60882">
        <ele>58.1</ele>
        <time>2015-05-10T08:47:54Z</time>
      </trkpt>
      <trkpt lat="47.30316" lon="-1.60875">
        <ele>58.2</ele>
        <time>2015-05-10T08:47:56Z</time>
      </trkpt>
      <trkpt lat="47.30317" lon="-1.60868">
        <ele>58.3</ele>
        <time>2015-05-10T08:47:58Z</time>
      </trkpt>
      <trkpt lat="47.30317" lon="-1.60862">
        <ele>58.3</ele>
        <time>2015-05-10T08:48:00Z</time>
      </trkpt>
      <trkpt lat="47.30317" lon="-1.60856">
        <ele>58.3</ele>
        <time>2015-05-10T08:48:02Z</time>
      </trkpt>
      <trkpt lat="47.30317" lon="-1.60851">
        <ele>58.3</ele>
        <time>2015-05-10T08:48:04Z</time>
      </trkpt>
      <trkpt lat="47.30315" lon="-1.60848">
        <ele>58.3</ele>
        <time>2015-05-10T08:48:07Z</time>
      </trkpt>
      <trkpt lat="47.30312" lon="-1.60845">
        <ele>58.2</ele>
        <time>2015-05-10T08:48:10Z</time>
      </trkpt>
      <trkpt lat="47.30309" lon="-1.60842">
        <ele>58.1</ele>
        <time>2015-05-10T08:48:12Z</time>
      </trkpt>
      <trkpt lat="47.30305" lon="-1.6084">
        <ele>57.9</ele>
        <time>2015-05-10T08:48:14Z</time>
      </trkpt>
      <trkpt lat="47.30302" lon="-1.60837">
        <ele>57.8</ele>
        <time>2015-05-10T08:48:16Z</time>
      </trkpt>
      <trkpt lat="47.30299" lon="-1.60834">
        <ele>57.8</ele>
        <time>2015-05-10T08:48:18Z</time>
      </trkpt>
      <trkpt lat="47.30297" lon="-1.6083">
        <ele>57.7</ele>
        <time>2015-05-10T08:48:21Z</time>
      </trkpt>
      <trkpt lat="47.30299" lon="-1.60817">
        <ele>57.9</ele>
        <time>2015-05-10T08:49:22Z</time>
      </trkpt>
      <trkpt lat="47.30297" lon="-1.60812">
        <ele>57.9</ele>
        <time>2015-05-10T08:49:25Z</time>
      </trkpt>
      <trkpt lat="47.30296" lon="-1.60807">
        <ele>57.9</ele>
        <time>2015-05-10T08:49:27Z</time>
      </trkpt>
      <trkpt lat="47.30292" lon="-1.60801">
        <ele>57.9</ele>
        <time>2015-05-10T08:49:29Z</time>
      </trkpt>
      <trkpt lat="47.30289" lon="-1.60797">
        <ele>58</ele>
        <time>2015-05-10T08:49:31Z</time>
      </trkpt>
      <trkpt lat="47.30285" lon="-1.60793">
        <ele>58.1</ele>
        <time>2015-05-10T08:49:33Z</time>
      </trkpt>
      <trkpt lat="47.30283" lon="-1.60789">
        <ele>58.1</ele>
        <time>2015-05-10T08:49:35Z</time>
      </trkpt>
      <trkpt lat="47.30282" lon="-1.60786">
        <ele>58.2</ele>
        <time>2015-05-10T08:49:37Z</time>
      </trkpt>
      <trkpt lat="47.3028" lon="-1.60782">
        <ele>58.2</ele>
        <time>2015-05-10T08:49:39Z</time>
      </trkpt>
      <trkpt lat="47.30275" lon="-1.60778">
        <ele>58.3</ele>
        <time>2015-05-10T08:49:41Z</time>
      </trkpt>
      <trkpt lat="47.30272" lon="-1.60772">
        <ele>58.4</ele>
        <time>2015-05-10T08:49:43Z</time>
      </trkpt>
      <trkpt lat="47.30269" lon="-1.60769">
        <ele>58.5</ele>
        <time>2015-05-10T08:49:44Z</time>
      </trkpt>
      <trkpt lat="47.30267" lon="-1.60767">
        <ele>58.5</ele>
        <time>2015-05-10T08:49:45Z</time>
      </trkpt>
      <trkpt lat="47.30265" lon="-1.60763">
        <ele>58.6</ele>
        <time>2015-05-10T08:49:47Z</time>
      </trkpt>
      <trkpt lat="47.30262" lon="-1.60759">
        <ele>58.6</ele>
        <time>2015-05-10T08:49:49Z</time>
      </trkpt>
      <trkpt lat="47.30259" lon="-1.60756">
        <ele>58.6</ele>
        <time>2015-05-10T08:49:50Z</time>
      </trkpt>
      <trkpt lat="47.30255" lon="-1.60752">
        <ele>58.7</ele>
        <time>2015-05-10T08:49:52Z</time>
      </trkpt>
      <trkpt lat="47.30253" lon="-1.60749">
        <ele>58.7</ele>
        <time>2015-05-10T08:49:53Z</time>
      </trkpt>
      <trkpt lat="47.30249" lon="-1.60744">
        <ele>58.8</ele>
        <time>2015-05-10T08:49:55Z</time>
      </trkpt>
      <trkpt lat="47.30244" lon="-1.6074">
        <ele>58.8</ele>
        <time>2015-05-10T08:49:57Z</time>
      </trkpt>
      <trkpt lat="47.30242" lon="-1.60736">
        <ele>58.9</ele>
        <time>2015-05-10T08:49:59Z</time>
      </trkpt>
      <trkpt lat="47.3024" lon="-1.60731">
        <ele>58.9</ele>
        <time>2015-05-10T08:50:01Z</time>
      </trkpt>
      <trkpt lat="47.30237" lon="-1.60726">
        <ele>58.9</ele>
        <time>2015-05-10T08:50:03Z</time>
      </trkpt>
      <trkpt lat="47.30234" lon="-1.60723">
        <ele>58.9</ele>
        <time>2015-05-10T08:50:04Z</time>
      </trkpt>
      <trkpt lat="47.3023" lon="-1.60718">
        <ele>59</ele>
        <time>2015-05-10T08:50:06Z</time>
      </trkpt>
      <trkpt lat="47.30227" lon="-1.60714">
        <ele>59</ele>
        <time>2015-05-10T08:50:08Z</time>
      </trkpt>
      <trkpt lat="47.30223" lon="-1.60709">
        <ele>59</ele>
        <time>2015-05-10T08:50:10Z</time>
      </trkpt>
      <trkpt lat="47.30221" lon="-1.60706">
        <ele>59.1</ele>
        <time>2015-05-10T08:50:11Z</time>
      </trkpt>
      <trkpt lat="47.30218" lon="-1.60704">
        <ele>59.1</ele>
        <time>2015-05-10T08:50:12Z</time>
      </trkpt>
      <trkpt lat="47.30214" lon="-1.60699">
        <ele>59.2</ele>
        <time>2015-05-10T08:50:14Z</time>
      </trkpt>
      <trkpt lat="47.30212" lon="-1.60696">
        <ele>59.3</ele>
        <time>2015-05-10T08:50:15Z</time>
      </trkpt>
      <trkpt lat="47.3021" lon="-1.60693">
        <ele>59.4</ele>
        <time>2015-05-10T08:50:16Z</time>
      </trkpt>
      <trkpt lat="47.30207" lon="-1.6069">
        <ele>59.4</ele>
        <time>2015-05-10T08:50:17Z</time>
      </trkpt>
      <trkpt lat="47.30205" lon="-1.60688">
        <ele>59.5</ele>
        <time>2015-05-10T08:50:18Z</time>
      </trkpt>
      <trkpt lat="47.30203" lon="-1.60685">
        <ele>59.5</ele>
        <time>2015-05-10T08:50:19Z</time>
      </trkpt>
      <trkpt lat="47.302" lon="-1.60682">
        <ele>59.6</ele>
        <time>2015-05-10T08:50:20Z</time>
      </trkpt>
      <trkpt lat="47.30198" lon="-1.60679">
        <ele>59.7</ele>
        <time>2015-05-10T08:50:21Z</time>
      </trkpt>
      <trkpt lat="47.30196" lon="-1.60677">
        <ele>59.7</ele>
        <time>2015-05-10T08:50:22Z</time>
      </trkpt>
      <trkpt lat="47.30193" lon="-1.60674">
        <ele>59.7</ele>
        <time>2015-05-10T08:50:23Z</time>
      </trkpt>
      <trkpt lat="47.3019" lon="-1.60669">
        <ele>59.8</ele>
        <time>2015-05-10T08:50:25Z</time>
      </trkpt>
      <trkpt lat="47.30186" lon="-1.60664">
        <ele>59.9</ele>
        <time>2015-05-10T08:50:27Z</time>
      </trkpt>
      <trkpt lat="47.30183" lon="-1.6066">
        <ele>60</ele>
        <time>2015-05-10T08:50:29Z</time>
      </trkpt>
      <trkpt lat="47.3018" lon="-1.60654">
        <ele>60.1</ele>
        <time>2015-05-10T08:50:31Z</time>
      </trkpt>
      <trkpt lat="47.30178" lon="-1.60651">
        <ele>60.1</ele>
        <time>2015-05-10T08:50:32Z</time>
      </trkpt>
      <trkpt lat="47.30176" lon="-1.60648">
        <ele>60.2</ele>
        <time>2015-05-10T08:50:33Z</time>
      </trkpt>
      <trkpt lat="47.30174" lon="-1.60645">
        <ele>60.2</ele>
        <time>2015-05-10T08:50:34Z</time>
      </trkpt>
      <trkpt lat="47.30171" lon="-1.60642">
        <ele>60.2</ele>
        <time>2015-05-10T08:50:35Z</time>
      </trkpt>
      <trkpt lat="47.30169" lon="-1.6064">
        <ele>60.3</ele>
        <time>2015-05-10T08:50:36Z</time>
      </trkpt>
      <trkpt lat="47.30167" lon="-1.60637">
        <ele>60.3</ele>
        <time>2015-05-10T08:50:37Z</time>
      </trkpt>
      <trkpt lat="47.30164" lon="-1.60634">
        <ele>60.3</ele>
        <time>2015-05-10T08:50:38Z</time>
      </trkpt>
      <trkpt lat="47.30162" lon="-1.60631">
        <ele>60.3</ele>
        <time>2015-05-10T08:50:39Z</time>
      </trkpt>
      <trkpt lat="47.3016" lon="-1.60628">
        <ele>60.4</ele>
        <time>2015-05-10T08:50:40Z</time>
      </trkpt>
      <trkpt lat="47.30157" lon="-1.60626">
        <ele>60.4</ele>
        <time>2015-05-10T08:50:41Z</time>
      </trkpt>
      <trkpt lat="47.30155" lon="-1.60624">
        <ele>60.4</ele>
        <time>2015-05-10T08:50:42Z</time>
      </trkpt>
      <trkpt lat="47.30153" lon="-1.60621">
        <ele>60.3</ele>
        <time>2015-05-10T08:50:43Z</time>
      </trkpt>
      <trkpt lat="47.30149" lon="-1.60617">
        <ele>60.3</ele>
        <time>2015-05-10T08:50:45Z</time>
      </trkpt>
      <trkpt lat="47.30146" lon="-1.60613">
        <ele>60.2</ele>
        <time>2015-05-10T08:50:47Z</time>
      </trkpt>
      <trkpt lat="47.30143" lon="-1.60608">
        <ele>60.2</ele>
        <time>2015-05-10T08:50:49Z</time>
      </trkpt>
      <trkpt lat="47.3014" lon="-1.60604">
        <ele>60.2</ele>
        <time>2015-05-10T08:50:51Z</time>
      </trkpt>
      <trkpt lat="47.30137" lon="-1.60599">
        <ele>60.1</ele>
        <time>2015-05-10T08:50:53Z</time>
      </trkpt>
      <trkpt lat="47.30134" lon="-1.60594">
        <ele>60.1</ele>
        <time>2015-05-10T08:50:55Z</time>
      </trkpt>
      <trkpt lat="47.30131" lon="-1.60589">
        <ele>60.1</ele>
        <time>2015-05-10T08:50:57Z</time>
      </trkpt>
      <trkpt lat="47.30129" lon="-1.60586">
        <ele>60</ele>
        <time>2015-05-10T08:50:58Z</time>
      </trkpt>
      <trkpt lat="47.30126" lon="-1.60582">
        <ele>60</ele>
        <time>2015-05-10T08:50:59Z</time>
      </trkpt>
      <trkpt lat="47.30123" lon="-1.60578">
        <ele>60</ele>
        <time>2015-05-10T08:51:01Z</time>
      </trkpt>
      <trkpt lat="47.30119" lon="-1.60572">
        <ele>60.1</ele>
        <time>2015-05-10T08:51:03Z</time>
      </trkpt>
      <trkpt lat="47.30116" lon="-1.60568">
        <ele>60.2</ele>
        <time>2015-05-10T08:51:05Z</time>
      </trkpt>
      <trkpt lat="47.30111" lon="-1.60563">
        <ele>60.2</ele>
        <time>2015-05-10T08:51:07Z</time>
      </trkpt>
      <trkpt lat="47.30107" lon="-1.60558">
        <ele>60.3</ele>
        <time>2015-05-10T08:51:09Z</time>
      </trkpt>
      <trkpt lat="47.30103" lon="-1.60554">
        <ele>60.5</ele>
        <time>2015-05-10T08:51:11Z</time>
      </trkpt>
      <trkpt lat="47.30099" lon="-1.60548">
        <ele>60.6</ele>
        <time>2015-05-10T08:51:13Z</time>
      </trkpt>
      <trkpt lat="47.30095" lon="-1.60543">
        <ele>60.7</ele>
        <time>2015-05-10T08:51:15Z</time>
      </trkpt>
      <trkpt lat="47.30091" lon="-1.60538">
        <ele>60.9</ele>
        <time>2015-05-10T08:51:17Z</time>
      </trkpt>
      <trkpt lat="47.30088" lon="-1.60533">
        <ele>61</ele>
        <time>2015-05-10T08:51:19Z</time>
      </trkpt>
      <trkpt lat="47.30084" lon="-1.60528">
        <ele>61.1</ele>
        <time>2015-05-10T08:51:21Z</time>
      </trkpt>
      <trkpt lat="47.30081" lon="-1.60523">
        <ele>61.3</ele>
        <time>2015-05-10T08:51:23Z</time>
      </trkpt>
      <trkpt lat="47.30077" lon="-1.60517">
        <ele>61.4</ele>
        <time>2015-05-10T08:51:25Z</time>
      </trkpt>
      <trkpt lat="47.30074" lon="-1.60512">
        <ele>61.6</ele>
        <time>2015-05-10T08:51:27Z</time>
      </trkpt>
      <trkpt lat="47.3007" lon="-1.60508">
        <ele>61.7</ele>
        <time>2015-05-10T08:51:29Z</time>
      </trkpt>
      <trkpt lat="47.30068" lon="-1.60503">
        <ele>61.8</ele>
        <time>2015-05-10T08:51:31Z</time>
      </trkpt>
      <trkpt lat="47.30065" lon="-1.60499">
        <ele>62</ele>
        <time>2015-05-10T08:51:33Z</time>
      </trkpt>
      <trkpt lat="47.30061" lon="-1.60494">
        <ele>62.1</ele>
        <time>2015-05-10T08:51:35Z</time>
      </trkpt>
      <trkpt lat="47.30059" lon="-1.60492">
        <ele>62.2</ele>
        <time>2015-05-10T08:51:36Z</time>
      </trkpt>
      <trkpt lat="47.30055" lon="-1.60488">
        <ele>62.3</ele>
        <time>2015-05-10T08:51:38Z</time>
      </trkpt>
      <trkpt lat="47.30052" lon="-1.60483">
        <ele>62.5</ele>
        <time>2015-05-10T08:51:40Z</time>
      </trkpt>
      <trkpt lat="47.30049" lon="-1.60478">
        <ele>62.6</ele>
        <time>2015-05-10T08:51:42Z</time>
      </trkpt>
      <trkpt lat="47.30045" lon="-1.60474">
        <ele>62.7</ele>
        <time>2015-05-10T08:51:44Z</time>
      </trkpt>
      <trkpt lat="47.30042" lon="-1.60469">
        <ele>62.9</ele>
        <time>2015-05-10T08:51:46Z</time>
      </trkpt>
      <trkpt lat="47.30039" lon="-1.60465">
        <ele>63</ele>
        <time>2015-05-10T08:51:48Z</time>
      </trkpt>
      <trkpt lat="47.30035" lon="-1.6046">
        <ele>63.1</ele>
        <time>2015-05-10T08:51:50Z</time>
      </trkpt>
      <trkpt lat="47.30032" lon="-1.60454">
        <ele>63.3</ele>
        <time>2015-05-10T08:51:52Z</time>
      </trkpt>
      <trkpt lat="47.30028" lon="-1.6045">
        <ele>63.4</ele>
        <time>2015-05-10T08:51:54Z</time>
      </trkpt>
      <trkpt lat="47.30025" lon="-1.60445">
        <ele>63.5</ele>
        <time>2015-05-10T08:51:56Z</time>
      </trkpt>
      <trkpt lat="47.30021" lon="-1.60441">
        <ele>63.6</ele>
        <time>2015-05-10T08:51:58Z</time>
      </trkpt>
      <trkpt lat="47.30018" lon="-1.60436">
        <ele>63.7</ele>
        <time>2015-05-10T08:52:00Z</time>
      </trkpt>
      <trkpt lat="47.30015" lon="-1.60431">
        <ele>63.8</ele>
        <time>2015-05-10T08:52:02Z</time>
      </trkpt>
      <trkpt lat="47.30014" lon="-1.60425">
        <ele>63.8</ele>
        <time>2015-05-10T08:52:04Z</time>
      </trkpt>
      <trkpt lat="47.30014" lon="-1.6042">
        <ele>63.8</ele>
        <time>2015-05-10T08:52:06Z</time>
      </trkpt>
      <trkpt lat="47.30017" lon="-1.60417">
        <ele>63.8</ele>
        <time>2015-05-10T08:52:08Z</time>
      </trkpt>
      <trkpt lat="47.30019" lon="-1.60415">
        <ele>63.8</ele>
        <time>2015-05-10T08:52:10Z</time>
      </trkpt>
      <trkpt lat="47.30022" lon="-1.60413">
        <ele>63.8</ele>
        <time>2015-05-10T08:52:12Z</time>
      </trkpt>
      <trkpt lat="47.30027" lon="-1.6041">
        <ele>63.7</ele>
        <time>2015-05-10T08:52:14Z</time>
      </trkpt>
      <trkpt lat="47.30032" lon="-1.60407">
        <ele>63.7</ele>
        <time>2015-05-10T08:52:16Z</time>
      </trkpt>
      <trkpt lat="47.30037" lon="-1.60405">
        <ele>63.7</ele>
        <time>2015-05-10T08:52:18Z</time>
      </trkpt>
      <trkpt lat="47.30039" lon="-1.60404">
        <ele>63.7</ele>
        <time>2015-05-10T08:52:19Z</time>
      </trkpt>
      <trkpt lat="47.30042" lon="-1.60402">
        <ele>63.7</ele>
        <time>2015-05-10T08:52:20Z</time>
      </trkpt>
      <trkpt lat="47.30045" lon="-1.60401">
        <ele>63.6</ele>
        <time>2015-05-10T08:52:21Z</time>
      </trkpt>
      <trkpt lat="47.30048" lon="-1.604">
        <ele>63.6</ele>
        <time>2015-05-10T08:52:22Z</time>
      </trkpt>
      <trkpt lat="47.30051" lon="-1.60398">
        <ele>63.5</ele>
        <time>2015-05-10T08:52:23Z</time>
      </trkpt>
      <trkpt lat="47.30054" lon="-1.60396">
        <ele>63.4</ele>
        <time>2015-05-10T08:52:24Z</time>
      </trkpt>
      <trkpt lat="47.30057" lon="-1.60395">
        <ele>63.4</ele>
        <time>2015-05-10T08:52:25Z</time>
      </trkpt>
      <trkpt lat="47.30061" lon="-1.60393">
        <ele>63.3</ele>
        <time>2015-05-10T08:52:26Z</time>
      </trkpt>
      <trkpt lat="47.30065" lon="-1.60391">
        <ele>63.2</ele>
        <time>2015-05-10T08:52:27Z</time>
      </trkpt>
      <trkpt lat="47.30068" lon="-1.6039">
        <ele>63.2</ele>
        <time>2015-05-10T08:52:28Z</time>
      </trkpt>
      <trkpt lat="47.30072" lon="-1.60388">
        <ele>63.1</ele>
        <time>2015-05-10T08:52:29Z</time>
      </trkpt>
      <trkpt lat="47.30075" lon="-1.60387">
        <ele>63.1</ele>
        <time>2015-05-10T08:52:30Z</time>
      </trkpt>
      <trkpt lat="47.30079" lon="-1.60385">
        <ele>63</ele>
        <time>2015-05-10T08:52:31Z</time>
      </trkpt>
      <trkpt lat="47.30082" lon="-1.60384">
        <ele>62.9</ele>
        <time>2015-05-10T08:52:32Z</time>
      </trkpt>
      <trkpt lat="47.30086" lon="-1.60383">
        <ele>62.8</ele>
        <time>2015-05-10T08:52:33Z</time>
      </trkpt>
      <trkpt lat="47.3009" lon="-1.6038">
        <ele>62.8</ele>
        <time>2015-05-10T08:52:34Z</time>
      </trkpt>
      <trkpt lat="47.30093" lon="-1.60379">
        <ele>62.7</ele>
        <time>2015-05-10T08:52:35Z</time>
      </trkpt>
      <trkpt lat="47.30096" lon="-1.60377">
        <ele>62.7</ele>
        <time>2015-05-10T08:52:36Z</time>
      </trkpt>
      <trkpt lat="47.301" lon="-1.60376">
        <ele>62.6</ele>
        <time>2015-05-10T08:52:37Z</time>
      </trkpt>
      <trkpt lat="47.30103" lon="-1.60374">
        <ele>62.5</ele>
        <time>2015-05-10T08:52:38Z</time>
      </trkpt>
      <trkpt lat="47.30106" lon="-1.60373">
        <ele>62.4</ele>
        <time>2015-05-10T08:52:39Z</time>
      </trkpt>
      <trkpt lat="47.30109" lon="-1.60371">
        <ele>62.3</ele>
        <time>2015-05-10T08:52:40Z</time>
      </trkpt>
      <trkpt lat="47.30112" lon="-1.6037">
        <ele>62.2</ele>
        <time>2015-05-10T08:52:41Z</time>
      </trkpt>
      <trkpt lat="47.30115" lon="-1.60369">
        <ele>62.2</ele>
        <time>2015-05-10T08:52:42Z</time>
      </trkpt>
      <trkpt lat="47.30119" lon="-1.60368">
        <ele>62.1</ele>
        <time>2015-05-10T08:52:43Z</time>
      </trkpt>
      <trkpt lat="47.30122" lon="-1.60366">
        <ele>62</ele>
        <time>2015-05-10T08:52:44Z</time>
      </trkpt>
      <trkpt lat="47.30125" lon="-1.60364">
        <ele>61.9</ele>
        <time>2015-05-10T08:52:45Z</time>
      </trkpt>
      <trkpt lat="47.30129" lon="-1.60363">
        <ele>61.9</ele>
        <time>2015-05-10T08:52:46Z</time>
      </trkpt>
      <trkpt lat="47.30132" lon="-1.60361">
        <ele>61.9</ele>
        <time>2015-05-10T08:52:47Z</time>
      </trkpt>
      <trkpt lat="47.30135" lon="-1.6036">
        <ele>61.9</ele>
        <time>2015-05-10T08:52:48Z</time>
      </trkpt>
      <trkpt lat="47.30138" lon="-1.60359">
        <ele>62</ele>
        <time>2015-05-10T08:52:49Z</time>
      </trkpt>
      <trkpt lat="47.30142" lon="-1.60356">
        <ele>62</ele>
        <time>2015-05-10T08:52:50Z</time>
      </trkpt>
      <trkpt lat="47.30146" lon="-1.60354">
        <ele>62</ele>
        <time>2015-05-10T08:52:51Z</time>
      </trkpt>
      <trkpt lat="47.30149" lon="-1.60352">
        <ele>62</ele>
        <time>2015-05-10T08:52:52Z</time>
      </trkpt>
      <trkpt lat="47.30152" lon="-1.60349">
        <ele>62</ele>
        <time>2015-05-10T08:52:53Z</time>
      </trkpt>
      <trkpt lat="47.30156" lon="-1.60347">
        <ele>62</ele>
        <time>2015-05-10T08:52:54Z</time>
      </trkpt>
      <trkpt lat="47.30159" lon="-1.60344">
        <ele>62</ele>
        <time>2015-05-10T08:52:55Z</time>
      </trkpt>
      <trkpt lat="47.30162" lon="-1.60343">
        <ele>62.1</ele>
        <time>2015-05-10T08:52:56Z</time>
      </trkpt>
      <trkpt lat="47.30165" lon="-1.60341">
        <ele>62.1</ele>
        <time>2015-05-10T08:52:57Z</time>
      </trkpt>
      <trkpt lat="47.30167" lon="-1.60338">
        <ele>62.1</ele>
        <time>2015-05-10T08:52:58Z</time>
      </trkpt>
      <trkpt lat="47.3017" lon="-1.60336">
        <ele>62.1</ele>
        <time>2015-05-10T08:52:59Z</time>
      </trkpt>
      <trkpt lat="47.30173" lon="-1.60333">
        <ele>62.1</ele>
        <time>2015-05-10T08:53:00Z</time>
      </trkpt>
      <trkpt lat="47.30176" lon="-1.60331">
        <ele>62.1</ele>
        <time>2015-05-10T08:53:01Z</time>
      </trkpt>
      <trkpt lat="47.30179" lon="-1.60329">
        <ele>62.1</ele>
        <time>2015-05-10T08:53:02Z</time>
      </trkpt>
      <trkpt lat="47.30182" lon="-1.60325">
        <ele>62.1</ele>
        <time>2015-05-10T08:53:03Z</time>
      </trkpt>
      <trkpt lat="47.30185" lon="-1.60323">
        <ele>62.1</ele>
        <time>2015-05-10T08:53:04Z</time>
      </trkpt>
      <trkpt lat="47.30189" lon="-1.60321">
        <ele>62.1</ele>
        <time>2015-05-10T08:53:05Z</time>
      </trkpt>
      <trkpt lat="47.30192" lon="-1.60318">
        <ele>62.1</ele>
        <time>2015-05-10T08:53:06Z</time>
      </trkpt>
      <trkpt lat="47.30196" lon="-1.60316">
        <ele>62.1</ele>
        <time>2015-05-10T08:53:07Z</time>
      </trkpt>
      <trkpt lat="47.30199" lon="-1.60313">
        <ele>62.1</ele>
        <time>2015-05-10T08:53:08Z</time>
      </trkpt>
      <trkpt lat="47.30203" lon="-1.60311">
        <ele>62.2</ele>
        <time>2015-05-10T08:53:09Z</time>
      </trkpt>
      <trkpt lat="47.30206" lon="-1.60308">
        <ele>62.2</ele>
        <time>2015-05-10T08:53:10Z</time>
      </trkpt>
      <trkpt lat="47.30209" lon="-1.60306">
        <ele>62.2</ele>
        <time>2015-05-10T08:53:11Z</time>
      </trkpt>
      <trkpt lat="47.30212" lon="-1.60304">
        <ele>62.1</ele>
        <time>2015-05-10T08:53:12Z</time>
      </trkpt>
      <trkpt lat="47.30216" lon="-1.60301">
        <ele>62.1</ele>
        <time>2015-05-10T08:53:13Z</time>
      </trkpt>
      <trkpt lat="47.30219" lon="-1.60299">
        <ele>62.1</ele>
        <time>2015-05-10T08:53:14Z</time>
      </trkpt>
      <trkpt lat="47.30222" lon="-1.60296">
        <ele>62</ele>
        <time>2015-05-10T08:53:15Z</time>
      </trkpt>
      <trkpt lat="47.30225" lon="-1.60294">
        <ele>62</ele>
        <time>2015-05-10T08:53:16Z</time>
      </trkpt>
      <trkpt lat="47.30229" lon="-1.60292">
        <ele>62</ele>
        <time>2015-05-10T08:53:17Z</time>
      </trkpt>
      <trkpt lat="47.30232" lon="-1.60289">
        <ele>62</ele>
        <time>2015-05-10T08:53:18Z</time>
      </trkpt>
      <trkpt lat="47.30235" lon="-1.60287">
        <ele>61.9</ele>
        <time>2015-05-10T08:53:19Z</time>
      </trkpt>
      <trkpt lat="47.30238" lon="-1.60285">
        <ele>61.9</ele>
        <time>2015-05-10T08:53:20Z</time>
      </trkpt>
      <trkpt lat="47.30241" lon="-1.60283">
        <ele>61.8</ele>
        <time>2015-05-10T08:53:21Z</time>
      </trkpt>
      <trkpt lat="47.30245" lon="-1.60281">
        <ele>61.8</ele>
        <time>2015-05-10T08:53:22Z</time>
      </trkpt>
      <trkpt lat="47.30248" lon="-1.60278">
        <ele>61.8</ele>
        <time>2015-05-10T08:53:23Z</time>
      </trkpt>
      <trkpt lat="47.30251" lon="-1.60276">
        <ele>61.7</ele>
        <time>2015-05-10T08:53:24Z</time>
      </trkpt>
      <trkpt lat="47.30254" lon="-1.60274">
        <ele>61.7</ele>
        <time>2015-05-10T08:53:25Z</time>
      </trkpt>
      <trkpt lat="47.30257" lon="-1.60272">
        <ele>61.7</ele>
        <time>2015-05-10T08:53:26Z</time>
      </trkpt>
      <trkpt lat="47.3026" lon="-1.6027">
        <ele>61.6</ele>
        <time>2015-05-10T08:53:27Z</time>
      </trkpt>
      <trkpt lat="47.30263" lon="-1.60268">
        <ele>61.6</ele>
        <time>2015-05-10T08:53:28Z</time>
      </trkpt>
      <trkpt lat="47.30266" lon="-1.60266">
        <ele>61.6</ele>
        <time>2015-05-10T08:53:29Z</time>
      </trkpt>
      <trkpt lat="47.30269" lon="-1.60264">
        <ele>61.6</ele>
        <time>2015-05-10T08:53:30Z</time>
      </trkpt>
      <trkpt lat="47.30272" lon="-1.60262">
        <ele>61.6</ele>
        <time>2015-05-10T08:53:31Z</time>
      </trkpt>
      <trkpt lat="47.30275" lon="-1.6026">
        <ele>61.5</ele>
        <time>2015-05-10T08:53:32Z</time>
      </trkpt>
      <trkpt lat="47.30277" lon="-1.60258">
        <ele>61.5</ele>
        <time>2015-05-10T08:53:33Z</time>
      </trkpt>
      <trkpt lat="47.30282" lon="-1.60253">
        <ele>61.5</ele>
        <time>2015-05-10T08:53:35Z</time>
      </trkpt>
      <trkpt lat="47.30286" lon="-1.60252">
        <ele>61.5</ele>
        <time>2015-05-10T08:53:36Z</time>
      </trkpt>
      <trkpt lat="47.30289" lon="-1.6025">
        <ele>61.5</ele>
        <time>2015-05-10T08:53:37Z</time>
      </trkpt>
      <trkpt lat="47.30292" lon="-1.60248">
        <ele>61.5</ele>
        <time>2015-05-10T08:53:38Z</time>
      </trkpt>
      <trkpt lat="47.30295" lon="-1.60246">
        <ele>61.5</ele>
        <time>2015-05-10T08:53:39Z</time>
      </trkpt>
      <trkpt lat="47.30298" lon="-1.60244">
        <ele>61.6</ele>
        <time>2015-05-10T08:53:40Z</time>
      </trkpt>
      <trkpt lat="47.30301" lon="-1.60242">
        <ele>61.7</ele>
        <time>2015-05-10T08:53:41Z</time>
      </trkpt>
      <trkpt lat="47.30304" lon="-1.60239">
        <ele>61.7</ele>
        <time>2015-05-10T08:53:42Z</time>
      </trkpt>
      <trkpt lat="47.30307" lon="-1.60238">
        <ele>61.8</ele>
        <time>2015-05-10T08:53:43Z</time>
      </trkpt>
      <trkpt lat="47.3031" lon="-1.60236">
        <ele>61.9</ele>
        <time>2015-05-10T08:53:44Z</time>
      </trkpt>
      <trkpt lat="47.30312" lon="-1.60234">
        <ele>62</ele>
        <time>2015-05-10T08:53:45Z</time>
      </trkpt>
      <trkpt lat="47.30315" lon="-1.60232">
        <ele>62.1</ele>
        <time>2015-05-10T08:53:46Z</time>
      </trkpt>
      <trkpt lat="47.30318" lon="-1.6023">
        <ele>62.2</ele>
        <time>2015-05-10T08:53:47Z</time>
      </trkpt>
      <trkpt lat="47.30321" lon="-1.60228">
        <ele>62.3</ele>
        <time>2015-05-10T08:53:48Z</time>
      </trkpt>
      <trkpt lat="47.30324" lon="-1.60225">
        <ele>62.4</ele>
        <time>2015-05-10T08:53:49Z</time>
      </trkpt>
      <trkpt lat="47.30327" lon="-1.60223">
        <ele>62.6</ele>
        <time>2015-05-10T08:53:50Z</time>
      </trkpt>
      <trkpt lat="47.3033" lon="-1.60221">
        <ele>62.7</ele>
        <time>2015-05-10T08:53:51Z</time>
      </trkpt>
      <trkpt lat="47.30335" lon="-1.60217">
        <ele>63</ele>
        <time>2015-05-10T08:53:53Z</time>
      </trkpt>
      <trkpt lat="47.30338" lon="-1.60215">
        <ele>63.1</ele>
        <time>2015-05-10T08:53:54Z</time>
      </trkpt>
      <trkpt lat="47.30341" lon="-1.60213">
        <ele>63.3</ele>
        <time>2015-05-10T08:53:55Z</time>
      </trkpt>
      <trkpt lat="47.30343" lon="-1.6021">
        <ele>63.4</ele>
        <time>2015-05-10T08:53:56Z</time>
      </trkpt>
      <trkpt lat="47.30346" lon="-1.60208">
        <ele>63.6</ele>
        <time>2015-05-10T08:53:57Z</time>
      </trkpt>
      <trkpt lat="47.30347" lon="-1.60205">
        <ele>63.7</ele>
        <time>2015-05-10T08:53:58Z</time>
      </trkpt>
      <trkpt lat="47.30351" lon="-1.602">
        <ele>63.8</ele>
        <time>2015-05-10T08:54:00Z</time>
      </trkpt>
      <trkpt lat="47.30355" lon="-1.60194">
        <ele>64</ele>
        <time>2015-05-10T08:54:02Z</time>
      </trkpt>
      <trkpt lat="47.30357" lon="-1.6019">
        <ele>64.1</ele>
        <time>2015-05-10T08:54:03Z</time>
      </trkpt>
      <trkpt lat="47.30359" lon="-1.60186">
        <ele>64.2</ele>
        <time>2015-05-10T08:54:04Z</time>
      </trkpt>
      <trkpt lat="47.30361" lon="-1.60183">
        <ele>64.3</ele>
        <time>2015-05-10T08:54:05Z</time>
      </trkpt>
      <trkpt lat="47.30363" lon="-1.60179">
        <ele>64.4</ele>
        <time>2015-05-10T08:54:06Z</time>
      </trkpt>
      <trkpt lat="47.30365" lon="-1.60176">
        <ele>64.5</ele>
        <time>2015-05-10T08:54:07Z</time>
      </trkpt>
      <trkpt lat="47.30367" lon="-1.60173">
        <ele>64.6</ele>
        <time>2015-05-10T08:54:08Z</time>
      </trkpt>
      <trkpt lat="47.30369" lon="-1.60169">
        <ele>64.7</ele>
        <time>2015-05-10T08:54:09Z</time>
      </trkpt>
      <trkpt lat="47.30371" lon="-1.60164">
        <ele>64.8</ele>
        <time>2015-05-10T08:54:10Z</time>
      </trkpt>
      <trkpt lat="47.30372" lon="-1.60161">
        <ele>64.9</ele>
        <time>2015-05-10T08:54:11Z</time>
      </trkpt>
      <trkpt lat="47.30375" lon="-1.60156">
        <ele>65</ele>
        <time>2015-05-10T08:54:12Z</time>
      </trkpt>
      <trkpt lat="47.30377" lon="-1.60151">
        <ele>65</ele>
        <time>2015-05-10T08:54:13Z</time>
      </trkpt>
      <trkpt lat="47.30379" lon="-1.60148">
        <ele>65</ele>
        <time>2015-05-10T08:54:14Z</time>
      </trkpt>
      <trkpt lat="47.30382" lon="-1.60144">
        <ele>65</ele>
        <time>2015-05-10T08:54:15Z</time>
      </trkpt>
      <trkpt lat="47.30384" lon="-1.6014">
        <ele>65</ele>
        <time>2015-05-10T08:54:16Z</time>
      </trkpt>
      <trkpt lat="47.30386" lon="-1.60136">
        <ele>65</ele>
        <time>2015-05-10T08:54:17Z</time>
      </trkpt>
      <trkpt lat="47.30388" lon="-1.60133">
        <ele>65</ele>
        <time>2015-05-10T08:54:18Z</time>
      </trkpt>
      <trkpt lat="47.30391" lon="-1.60129">
        <ele>65</ele>
        <time>2015-05-10T08:54:19Z</time>
      </trkpt>
      <trkpt lat="47.30393" lon="-1.60126">
        <ele>65</ele>
        <time>2015-05-10T08:54:20Z</time>
      </trkpt>
      <trkpt lat="47.30395" lon="-1.60123">
        <ele>65</ele>
        <time>2015-05-10T08:54:21Z</time>
      </trkpt>
      <trkpt lat="47.30397" lon="-1.6012">
        <ele>64.9</ele>
        <time>2015-05-10T08:54:22Z</time>
      </trkpt>
      <trkpt lat="47.30401" lon="-1.60115">
        <ele>64.8</ele>
        <time>2015-05-10T08:54:24Z</time>
      </trkpt>
      <trkpt lat="47.30404" lon="-1.60112">
        <ele>64.8</ele>
        <time>2015-05-10T08:54:25Z</time>
      </trkpt>
      <trkpt lat="47.30406" lon="-1.60108">
        <ele>64.7</ele>
        <time>2015-05-10T08:54:26Z</time>
      </trkpt>
      <trkpt lat="47.30408" lon="-1.60104">
        <ele>64.7</ele>
        <time>2015-05-10T08:54:27Z</time>
      </trkpt>
      <trkpt lat="47.3041" lon="-1.601">
        <ele>64.7</ele>
        <time>2015-05-10T08:54:28Z</time>
      </trkpt>
      <trkpt lat="47.30412" lon="-1.60097">
        <ele>64.6</ele>
        <time>2015-05-10T08:54:29Z</time>
      </trkpt>
      <trkpt lat="47.30415" lon="-1.60093">
        <ele>64.6</ele>
        <time>2015-05-10T08:54:30Z</time>
      </trkpt>
      <trkpt lat="47.30417" lon="-1.6009">
        <ele>64.6</ele>
        <time>2015-05-10T08:54:31Z</time>
      </trkpt>
      <trkpt lat="47.30419" lon="-1.60085">
        <ele>64.6</ele>
        <time>2015-05-10T08:54:32Z</time>
      </trkpt>
      <trkpt lat="47.30422" lon="-1.60081">
        <ele>64.5</ele>
        <time>2015-05-10T08:54:33Z</time>
      </trkpt>
      <trkpt lat="47.30424" lon="-1.60077">
        <ele>64.5</ele>
        <time>2015-05-10T08:54:34Z</time>
      </trkpt>
      <trkpt lat="47.30426" lon="-1.60072">
        <ele>64.5</ele>
        <time>2015-05-10T08:54:35Z</time>
      </trkpt>
      <trkpt lat="47.30429" lon="-1.60065">
        <ele>64.5</ele>
        <time>2015-05-10T08:54:36Z</time>
      </trkpt>
      <trkpt lat="47.30431" lon="-1.60061">
        <ele>64.5</ele>
        <time>2015-05-10T08:54:37Z</time>
      </trkpt>
      <trkpt lat="47.30433" lon="-1.60057">
        <ele>64.5</ele>
        <time>2015-05-10T08:54:38Z</time>
      </trkpt>
      <trkpt lat="47.30435" lon="-1.60053">
        <ele>64.5</ele>
        <time>2015-05-10T08:54:39Z</time>
      </trkpt>
      <trkpt lat="47.30437" lon="-1.60048">
        <ele>64.5</ele>
        <time>2015-05-10T08:54:40Z</time>
      </trkpt>
      <trkpt lat="47.30441" lon="-1.60043">
        <ele>64.6</ele>
        <time>2015-05-10T08:54:41Z</time>
      </trkpt>
      <trkpt lat="47.30444" lon="-1.60038">
        <ele>64.7</ele>
        <time>2015-05-10T08:54:42Z</time>
      </trkpt>
      <trkpt lat="47.30448" lon="-1.60034">
        <ele>64.8</ele>
        <time>2015-05-10T08:54:43Z</time>
      </trkpt>
      <trkpt lat="47.30452" lon="-1.60031">
        <ele>64.9</ele>
        <time>2015-05-10T08:54:44Z</time>
      </trkpt>
      <trkpt lat="47.30456" lon="-1.60028">
        <ele>65.1</ele>
        <time>2015-05-10T08:54:45Z</time>
      </trkpt>
      <trkpt lat="47.3046" lon="-1.60027">
        <ele>65.1</ele>
        <time>2015-05-10T08:54:46Z</time>
      </trkpt>
      <trkpt lat="47.30464" lon="-1.60025">
        <ele>65</ele>
        <time>2015-05-10T08:54:47Z</time>
      </trkpt>
      <trkpt lat="47.30469" lon="-1.60024">
        <ele>64.8</ele>
        <time>2015-05-10T08:54:48Z</time>
      </trkpt>
      <trkpt lat="47.30473" lon="-1.60023">
        <ele>64.7</ele>
        <time>2015-05-10T08:54:49Z</time>
      </trkpt>
      <trkpt lat="47.30477" lon="-1.60022">
        <ele>64.5</ele>
        <time>2015-05-10T08:54:50Z</time>
      </trkpt>
      <trkpt lat="47.30481" lon="-1.60021">
        <ele>64.4</ele>
        <time>2015-05-10T08:54:51Z</time>
      </trkpt>
      <trkpt lat="47.30485" lon="-1.60021">
        <ele>64.2</ele>
        <time>2015-05-10T08:54:52Z</time>
      </trkpt>
      <trkpt lat="47.30489" lon="-1.60021">
        <ele>64.1</ele>
        <time>2015-05-10T08:54:53Z</time>
      </trkpt>
      <trkpt lat="47.30493" lon="-1.60021">
        <ele>63.9</ele>
        <time>2015-05-10T08:54:54Z</time>
      </trkpt>
      <trkpt lat="47.30497" lon="-1.60021">
        <ele>63.7</ele>
        <time>2015-05-10T08:54:55Z</time>
      </trkpt>
      <trkpt lat="47.30502" lon="-1.60021">
        <ele>63.6</ele>
        <time>2015-05-10T08:54:56Z</time>
      </trkpt>
      <trkpt lat="47.30507" lon="-1.60021">
        <ele>63.4</ele>
        <time>2015-05-10T08:54:57Z</time>
      </trkpt>
      <trkpt lat="47.30512" lon="-1.60021">
        <ele>63.1</ele>
        <time>2015-05-10T08:54:58Z</time>
      </trkpt>
      <trkpt lat="47.30517" lon="-1.6002">
        <ele>63</ele>
        <time>2015-05-10T08:54:59Z</time>
      </trkpt>
      <trkpt lat="47.30522" lon="-1.6002">
        <ele>62.8</ele>
        <time>2015-05-10T08:55:00Z</time>
      </trkpt>
      <trkpt lat="47.30528" lon="-1.6002">
        <ele>62.6</ele>
        <time>2015-05-10T08:55:01Z</time>
      </trkpt>
      <trkpt lat="47.30533" lon="-1.6002">
        <ele>62.3</ele>
        <time>2015-05-10T08:55:02Z</time>
      </trkpt>
      <trkpt lat="47.30538" lon="-1.6002">
        <ele>62.1</ele>
        <time>2015-05-10T08:55:03Z</time>
      </trkpt>
      <trkpt lat="47.30543" lon="-1.60021">
        <ele>62</ele>
        <time>2015-05-10T08:55:04Z</time>
      </trkpt>
      <trkpt lat="47.30548" lon="-1.60022">
        <ele>61.8</ele>
        <time>2015-05-10T08:55:05Z</time>
      </trkpt>
      <trkpt lat="47.30552" lon="-1.60024">
        <ele>61.7</ele>
        <time>2015-05-10T08:55:06Z</time>
      </trkpt>
      <trkpt lat="47.30556" lon="-1.60026">
        <ele>61.6</ele>
        <time>2015-05-10T08:55:07Z</time>
      </trkpt>
      <trkpt lat="47.30558" lon="-1.60027">
        <ele>61.5</ele>
        <time>2015-05-10T08:55:08Z</time>
      </trkpt>
      <trkpt lat="47.30572" lon="-1.60029">
        <ele>61.1</ele>
        <time>2015-05-10T08:57:42Z</time>
      </trkpt>
      <trkpt lat="47.30571" lon="-1.60025">
        <ele>61.1</ele>
        <time>2015-05-10T08:58:10Z</time>
      </trkpt>
      <trkpt lat="47.30568" lon="-1.60022">
        <ele>61.1</ele>
        <time>2015-05-10T08:58:16Z</time>
      </trkpt>
      <trkpt lat="47.30568" lon="-1.60018">
        <ele>61.1</ele>
        <time>2015-05-10T08:58:23Z</time>
      </trkpt>
      <trkpt lat="47.30565" lon="-1.60019">
        <ele>61.2</ele>
        <time>2015-05-10T08:59:07Z</time>
      </trkpt>
      <trkpt lat="47.30564" lon="-1.60023">
        <ele>61.3</ele>
        <time>2015-05-10T09:01:35Z</time>
      </trkpt>
      <trkpt lat="47.30563" lon="-1.60019">
        <ele>61.3</ele>
        <time>2015-05-10T09:01:37Z</time>
      </trkpt>
      <trkpt lat="47.30564" lon="-1.60014">
        <ele>61.2</ele>
        <time>2015-05-10T09:01:40Z</time>
      </trkpt>
      <trkpt lat="47.30568" lon="-1.60011">
        <ele>61</ele>
        <time>2015-05-10T09:01:42Z</time>
      </trkpt>
      <trkpt lat="47.30571" lon="-1.6001">
        <ele>60.9</ele>
        <time>2015-05-10T09:01:43Z</time>
      </trkpt>
      <trkpt lat="47.30575" lon="-1.60008">
        <ele>60.7</ele>
        <time>2015-05-10T09:01:44Z</time>
      </trkpt>
      <trkpt lat="47.30579" lon="-1.60006">
        <ele>60.5</ele>
        <time>2015-05-10T09:01:45Z</time>
      </trkpt>
      <trkpt lat="47.30584" lon="-1.60005">
        <ele>60.3</ele>
        <time>2015-05-10T09:01:46Z</time>
      </trkpt>
      <trkpt lat="47.30588" lon="-1.60003">
        <ele>60.1</ele>
        <time>2015-05-10T09:01:47Z</time>
      </trkpt>
      <trkpt lat="47.30592" lon="-1.60001">
        <ele>59.9</ele>
        <time>2015-05-10T09:01:48Z</time>
      </trkpt>
      <trkpt lat="47.30597" lon="-1.59998">
        <ele>59.6</ele>
        <time>2015-05-10T09:01:49Z</time>
      </trkpt>
      <trkpt lat="47.30602" lon="-1.59996">
        <ele>59.3</ele>
        <time>2015-05-10T09:01:50Z</time>
      </trkpt>
      <trkpt lat="47.30608" lon="-1.59993">
        <ele>59</ele>
        <time>2015-05-10T09:01:51Z</time>
      </trkpt>
      <trkpt lat="47.30613" lon="-1.59991">
        <ele>58.7</ele>
        <time>2015-05-10T09:01:52Z</time>
      </trkpt>
      <trkpt lat="47.30619" lon="-1.59988">
        <ele>58.4</ele>
        <time>2015-05-10T09:01:53Z</time>
      </trkpt>
      <trkpt lat="47.30624" lon="-1.59985">
        <ele>58</ele>
        <time>2015-05-10T09:01:54Z</time>
      </trkpt>
      <trkpt lat="47.30629" lon="-1.59983">
        <ele>57.7</ele>
        <time>2015-05-10T09:01:55Z</time>
      </trkpt>
      <trkpt lat="47.30635" lon="-1.5998">
        <ele>57.4</ele>
        <time>2015-05-10T09:01:56Z</time>
      </trkpt>
      <trkpt lat="47.3064" lon="-1.59977">
        <ele>57.1</ele>
        <time>2015-05-10T09:01:57Z</time>
      </trkpt>
      <trkpt lat="47.30646" lon="-1.59974">
        <ele>56.8</ele>
        <time>2015-05-10T09:01:58Z</time>
      </trkpt>
      <trkpt lat="47.30652" lon="-1.5997">
        <ele>56.4</ele>
        <time>2015-05-10T09:01:59Z</time>
      </trkpt>
      <trkpt lat="47.30658" lon="-1.59967">
        <ele>56.1</ele>
        <time>2015-05-10T09:02:00Z</time>
      </trkpt>
      <trkpt lat="47.30665" lon="-1.59964">
        <ele>55.7</ele>
        <time>2015-05-10T09:02:01Z</time>
      </trkpt>
      <trkpt lat="47.30672" lon="-1.59962">
        <ele>55.4</ele>
        <time>2015-05-10T09:02:02Z</time>
      </trkpt>
      <trkpt lat="47.30678" lon="-1.59959">
        <ele>55.1</ele>
        <time>2015-05-10T09:02:03Z</time>
      </trkpt>
      <trkpt lat="47.30684" lon="-1.59957">
        <ele>54.8</ele>
        <time>2015-05-10T09:02:04Z</time>
      </trkpt>
      <trkpt lat="47.3069" lon="-1.59955">
        <ele>54.6</ele>
        <time>2015-05-10T09:02:05Z</time>
      </trkpt>
      <trkpt lat="47.30696" lon="-1.59953">
        <ele>54.3</ele>
        <time>2015-05-10T09:02:06Z</time>
      </trkpt>
      <trkpt lat="47.30701" lon="-1.59952">
        <ele>54.1</ele>
        <time>2015-05-10T09:02:07Z</time>
      </trkpt>
      <trkpt lat="47.30707" lon="-1.5995">
        <ele>53.8</ele>
        <time>2015-05-10T09:02:08Z</time>
      </trkpt>
      <trkpt lat="47.30713" lon="-1.59947">
        <ele>53.7</ele>
        <time>2015-05-10T09:02:09Z</time>
      </trkpt>
      <trkpt lat="47.30717" lon="-1.59945">
        <ele>53.6</ele>
        <time>2015-05-10T09:02:10Z</time>
      </trkpt>
      <trkpt lat="47.30722" lon="-1.59942">
        <ele>53.5</ele>
        <time>2015-05-10T09:02:11Z</time>
      </trkpt>
      <trkpt lat="47.30727" lon="-1.5994">
        <ele>53.3</ele>
        <time>2015-05-10T09:02:12Z</time>
      </trkpt>
      <trkpt lat="47.30732" lon="-1.59939">
        <ele>53.2</ele>
        <time>2015-05-10T09:02:13Z</time>
      </trkpt>
      <trkpt lat="47.30737" lon="-1.59938">
        <ele>53.2</ele>
        <time>2015-05-10T09:02:14Z</time>
      </trkpt>
      <trkpt lat="47.30742" lon="-1.59935">
        <ele>53</ele>
        <time>2015-05-10T09:02:15Z</time>
      </trkpt>
      <trkpt lat="47.30747" lon="-1.5993">
        <ele>52.8</ele>
        <time>2015-05-10T09:02:16Z</time>
      </trkpt>
      <trkpt lat="47.30752" lon="-1.59925">
        <ele>52.7</ele>
        <time>2015-05-10T09:02:17Z</time>
      </trkpt>
      <trkpt lat="47.30757" lon="-1.59922">
        <ele>52.5</ele>
        <time>2015-05-10T09:02:18Z</time>
      </trkpt>
      <trkpt lat="47.30763" lon="-1.59918">
        <ele>52.4</ele>
        <time>2015-05-10T09:02:19Z</time>
      </trkpt>
      <trkpt lat="47.30769" lon="-1.59914">
        <ele>52.2</ele>
        <time>2015-05-10T09:02:20Z</time>
      </trkpt>
      <trkpt lat="47.30775" lon="-1.5991">
        <ele>52</ele>
        <time>2015-05-10T09:02:21Z</time>
      </trkpt>
      <trkpt lat="47.30781" lon="-1.59906">
        <ele>51.9</ele>
        <time>2015-05-10T09:02:22Z</time>
      </trkpt>
      <trkpt lat="47.30788" lon="-1.59902">
        <ele>51.7</ele>
        <time>2015-05-10T09:02:23Z</time>
      </trkpt>
      <trkpt lat="47.30794" lon="-1.59897">
        <ele>51.4</ele>
        <time>2015-05-10T09:02:24Z</time>
      </trkpt>
      <trkpt lat="47.30801" lon="-1.59893">
        <ele>50.7</ele>
        <time>2015-05-10T09:02:25Z</time>
      </trkpt>
      <trkpt lat="47.30809" lon="-1.59888">
        <ele>50.1</ele>
        <time>2015-05-10T09:02:26Z</time>
      </trkpt>
      <trkpt lat="47.30816" lon="-1.59884">
        <ele>49.4</ele>
        <time>2015-05-10T09:02:27Z</time>
      </trkpt>
      <trkpt lat="47.30825" lon="-1.59879">
        <ele>48.7</ele>
        <time>2015-05-10T09:02:28Z</time>
      </trkpt>
      <trkpt lat="47.30833" lon="-1.59874">
        <ele>48</ele>
        <time>2015-05-10T09:02:29Z</time>
      </trkpt>
      <trkpt lat="47.30842" lon="-1.5987">
        <ele>47.3</ele>
        <time>2015-05-10T09:02:30Z</time>
      </trkpt>
      <trkpt lat="47.30852" lon="-1.59864">
        <ele>46.5</ele>
        <time>2015-05-10T09:02:31Z</time>
      </trkpt>
      <trkpt lat="47.30862" lon="-1.59859">
        <ele>45.8</ele>
        <time>2015-05-10T09:02:32Z</time>
      </trkpt>
      <trkpt lat="47.30871" lon="-1.59854">
        <ele>45.1</ele>
        <time>2015-05-10T09:02:33Z</time>
      </trkpt>
      <trkpt lat="47.3088" lon="-1.59848">
        <ele>44.5</ele>
        <time>2015-05-10T09:02:34Z</time>
      </trkpt>
      <trkpt lat="47.30889" lon="-1.59841">
        <ele>43.9</ele>
        <time>2015-05-10T09:02:35Z</time>
      </trkpt>
      <trkpt lat="47.30898" lon="-1.59835">
        <ele>43.4</ele>
        <time>2015-05-10T09:02:36Z</time>
      </trkpt>
      <trkpt lat="47.30908" lon="-1.59829">
        <ele>42.9</ele>
        <time>2015-05-10T09:02:37Z</time>
      </trkpt>
      <trkpt lat="47.30917" lon="-1.59824">
        <ele>42.4</ele>
        <time>2015-05-10T09:02:38Z</time>
      </trkpt>
      <trkpt lat="47.30926" lon="-1.59819">
        <ele>41.9</ele>
        <time>2015-05-10T09:02:39Z</time>
      </trkpt>
      <trkpt lat="47.30935" lon="-1.59814">
        <ele>41.4</ele>
        <time>2015-05-10T09:02:40Z</time>
      </trkpt>
      <trkpt lat="47.30944" lon="-1.5981">
        <ele>40.9</ele>
        <time>2015-05-10T09:02:41Z</time>
      </trkpt>
      <trkpt lat="47.30953" lon="-1.59805">
        <ele>40.4</ele>
        <time>2015-05-10T09:02:42Z</time>
      </trkpt>
      <trkpt lat="47.30962" lon="-1.59799">
        <ele>39.9</ele>
        <time>2015-05-10T09:02:43Z</time>
      </trkpt>
      <trkpt lat="47.3097" lon="-1.59792">
        <ele>39.5</ele>
        <time>2015-05-10T09:02:44Z</time>
      </trkpt>
      <trkpt lat="47.30977" lon="-1.59785">
        <ele>38.8</ele>
        <time>2015-05-10T09:02:45Z</time>
      </trkpt>
      <trkpt lat="47.30983" lon="-1.5978">
        <ele>38.2</ele>
        <time>2015-05-10T09:02:46Z</time>
      </trkpt>
      <trkpt lat="47.30987" lon="-1.59775">
        <ele>37.7</ele>
        <time>2015-05-10T09:02:47Z</time>
      </trkpt>
      <trkpt lat="47.30991" lon="-1.59772">
        <ele>37.4</ele>
        <time>2015-05-10T09:02:48Z</time>
      </trkpt>
      <trkpt lat="47.30994" lon="-1.59771">
        <ele>37.2</ele>
        <time>2015-05-10T09:02:49Z</time>
      </trkpt>
      <trkpt lat="47.30996" lon="-1.59768">
        <ele>36.9</ele>
        <time>2015-05-10T09:02:50Z</time>
      </trkpt>
      <trkpt lat="47.30997" lon="-1.59762">
        <ele>36.5</ele>
        <time>2015-05-10T09:02:51Z</time>
      </trkpt>
      <trkpt lat="47.30997" lon="-1.59755">
        <ele>36.2</ele>
        <time>2015-05-10T09:02:52Z</time>
      </trkpt>
      <trkpt lat="47.30996" lon="-1.59747">
        <ele>35.8</ele>
        <time>2015-05-10T09:02:53Z</time>
      </trkpt>
      <trkpt lat="47.30995" lon="-1.5974">
        <ele>35.5</ele>
        <time>2015-05-10T09:02:54Z</time>
      </trkpt>
      <trkpt lat="47.30994" lon="-1.59732">
        <ele>35.1</ele>
        <time>2015-05-10T09:02:55Z</time>
      </trkpt>
      <trkpt lat="47.30992" lon="-1.59724">
        <ele>34.8</ele>
        <time>2015-05-10T09:02:56Z</time>
      </trkpt>
      <trkpt lat="47.30992" lon="-1.59716">
        <ele>34.4</ele>
        <time>2015-05-10T09:02:57Z</time>
      </trkpt>
      <trkpt lat="47.30991" lon="-1.59708">
        <ele>34.1</ele>
        <time>2015-05-10T09:02:58Z</time>
      </trkpt>
      <trkpt lat="47.30989" lon="-1.597">
        <ele>33.9</ele>
        <time>2015-05-10T09:02:59Z</time>
      </trkpt>
      <trkpt lat="47.30988" lon="-1.59692">
        <ele>33.8</ele>
        <time>2015-05-10T09:03:00Z</time>
      </trkpt>
      <trkpt lat="47.30987" lon="-1.59684">
        <ele>33.7</ele>
        <time>2015-05-10T09:03:01Z</time>
      </trkpt>
      <trkpt lat="47.30986" lon="-1.59676">
        <ele>33.6</ele>
        <time>2015-05-10T09:03:02Z</time>
      </trkpt>
      <trkpt lat="47.30985" lon="-1.59668">
        <ele>33.4</ele>
        <time>2015-05-10T09:03:03Z</time>
      </trkpt>
      <trkpt lat="47.30984" lon="-1.5966">
        <ele>33.3</ele>
        <time>2015-05-10T09:03:04Z</time>
      </trkpt>
      <trkpt lat="47.30984" lon="-1.59652">
        <ele>33.1</ele>
        <time>2015-05-10T09:03:05Z</time>
      </trkpt>
      <trkpt lat="47.30984" lon="-1.59644">
        <ele>32.9</ele>
        <time>2015-05-10T09:03:06Z</time>
      </trkpt>
      <trkpt lat="47.30984" lon="-1.59635">
        <ele>32.7</ele>
        <time>2015-05-10T09:03:07Z</time>
      </trkpt>
      <trkpt lat="47.30984" lon="-1.59628">
        <ele>32.5</ele>
        <time>2015-05-10T09:03:08Z</time>
      </trkpt>
      <trkpt lat="47.30984" lon="-1.5962">
        <ele>32.5</ele>
        <time>2015-05-10T09:03:09Z</time>
      </trkpt>
      <trkpt lat="47.30984" lon="-1.59613">
        <ele>32.5</ele>
        <time>2015-05-10T09:03:10Z</time>
      </trkpt>
      <trkpt lat="47.30985" lon="-1.59607">
        <ele>32.6</ele>
        <time>2015-05-10T09:03:11Z</time>
      </trkpt>
      <trkpt lat="47.30985" lon="-1.59601">
        <ele>32.6</ele>
        <time>2015-05-10T09:03:12Z</time>
      </trkpt>
      <trkpt lat="47.30985" lon="-1.59595">
        <ele>32.6</ele>
        <time>2015-05-10T09:03:13Z</time>
      </trkpt>
      <trkpt lat="47.30985" lon="-1.5959">
        <ele>32.7</ele>
        <time>2015-05-10T09:03:14Z</time>
      </trkpt>
      <trkpt lat="47.30985" lon="-1.59584">
        <ele>32.7</ele>
        <time>2015-05-10T09:03:15Z</time>
      </trkpt>
      <trkpt lat="47.30985" lon="-1.59579">
        <ele>32.7</ele>
        <time>2015-05-10T09:03:16Z</time>
      </trkpt>
      <trkpt lat="47.30986" lon="-1.59574">
        <ele>32.8</ele>
        <time>2015-05-10T09:03:17Z</time>
      </trkpt>
      <trkpt lat="47.30986" lon="-1.59569">
        <ele>32.8</ele>
        <time>2015-05-10T09:03:18Z</time>
      </trkpt>
      <trkpt lat="47.30986" lon="-1.59565">
        <ele>32.8</ele>
        <time>2015-05-10T09:03:19Z</time>
      </trkpt>
      <trkpt lat="47.30986" lon="-1.59561">
        <ele>32.9</ele>
        <time>2015-05-10T09:03:20Z</time>
      </trkpt>
      <trkpt lat="47.30986" lon="-1.59553">
        <ele>32.9</ele>
        <time>2015-05-10T09:03:22Z</time>
      </trkpt>
      <trkpt lat="47.30986" lon="-1.59545">
        <ele>33</ele>
        <time>2015-05-10T09:03:24Z</time>
      </trkpt>
      <trkpt lat="47.30986" lon="-1.5954">
        <ele>33.1</ele>
        <time>2015-05-10T09:03:25Z</time>
      </trkpt>
      <trkpt lat="47.30987" lon="-1.59536">
        <ele>33.3</ele>
        <time>2015-05-10T09:03:26Z</time>
      </trkpt>
      <trkpt lat="47.30987" lon="-1.59531">
        <ele>33.6</ele>
        <time>2015-05-10T09:03:27Z</time>
      </trkpt>
      <trkpt lat="47.30986" lon="-1.59525">
        <ele>33.8</ele>
        <time>2015-05-10T09:03:28Z</time>
      </trkpt>
      <trkpt lat="47.30986" lon="-1.59521">
        <ele>34.1</ele>
        <time>2015-05-10T09:03:29Z</time>
      </trkpt>
      <trkpt lat="47.30985" lon="-1.59513">
        <ele>34.6</ele>
        <time>2015-05-10T09:03:31Z</time>
      </trkpt>
      <trkpt lat="47.30983" lon="-1.5951">
        <ele>34.8</ele>
        <time>2015-05-10T09:03:32Z</time>
      </trkpt>
      <trkpt lat="47.30982" lon="-1.59506">
        <ele>35</ele>
        <time>2015-05-10T09:03:33Z</time>
      </trkpt>
      <trkpt lat="47.30981" lon="-1.59502">
        <ele>35.3</ele>
        <time>2015-05-10T09:03:34Z</time>
      </trkpt>
      <trkpt lat="47.30978" lon="-1.59499">
        <ele>35.6</ele>
        <time>2015-05-10T09:03:35Z</time>
      </trkpt>
      <trkpt lat="47.30975" lon="-1.59496">
        <ele>35.9</ele>
        <time>2015-05-10T09:03:36Z</time>
      </trkpt>
      <trkpt lat="47.30972" lon="-1.59493">
        <ele>36.3</ele>
        <time>2015-05-10T09:03:37Z</time>
      </trkpt>
      <trkpt lat="47.30968" lon="-1.59491">
        <ele>36.6</ele>
        <time>2015-05-10T09:03:38Z</time>
      </trkpt>
      <trkpt lat="47.30965" lon="-1.59489">
        <ele>36.8</ele>
        <time>2015-05-10T09:03:39Z</time>
      </trkpt>
      <trkpt lat="47.30962" lon="-1.59486">
        <ele>37.1</ele>
        <time>2015-05-10T09:03:40Z</time>
      </trkpt>
      <trkpt lat="47.3096" lon="-1.59484">
        <ele>37.4</ele>
        <time>2015-05-10T09:03:41Z</time>
      </trkpt>
      <trkpt lat="47.30956" lon="-1.59479">
        <ele>37.9</ele>
        <time>2015-05-10T09:03:43Z</time>
      </trkpt>
      <trkpt lat="47.30953" lon="-1.59475">
        <ele>38.3</ele>
        <time>2015-05-10T09:03:45Z</time>
      </trkpt>
      <trkpt lat="47.30949" lon="-1.59472">
        <ele>38.7</ele>
        <time>2015-05-10T09:03:47Z</time>
      </trkpt>
      <trkpt lat="47.30946" lon="-1.59469">
        <ele>39</ele>
        <time>2015-05-10T09:03:49Z</time>
      </trkpt>
      <trkpt lat="47.30943" lon="-1.59468">
        <ele>39.2</ele>
        <time>2015-05-10T09:03:51Z</time>
      </trkpt>
      <trkpt lat="47.3094" lon="-1.59466">
        <ele>39.5</ele>
        <time>2015-05-10T09:03:53Z</time>
      </trkpt>
      <trkpt lat="47.30939" lon="-1.59462">
        <ele>39.8</ele>
        <time>2015-05-10T09:03:55Z</time>
      </trkpt>
      <trkpt lat="47.30936" lon="-1.59457">
        <ele>40.1</ele>
        <time>2015-05-10T09:03:58Z</time>
      </trkpt>
      <trkpt lat="47.30935" lon="-1.59452">
        <ele>40.5</ele>
        <time>2015-05-10T09:04:00Z</time>
      </trkpt>
      <trkpt lat="47.30937" lon="-1.59448">
        <ele>40.7</ele>
        <time>2015-05-10T09:04:03Z</time>
      </trkpt>
      <trkpt lat="47.30938" lon="-1.59444">
        <ele>40.9</ele>
        <time>2015-05-10T09:04:06Z</time>
      </trkpt>
      <trkpt lat="47.30941" lon="-1.5944">
        <ele>41</ele>
        <time>2015-05-10T09:04:09Z</time>
      </trkpt>
      <trkpt lat="47.30944" lon="-1.59437">
        <ele>41.1</ele>
        <time>2015-05-10T09:04:12Z</time>
      </trkpt>
      <trkpt lat="47.30948" lon="-1.59436">
        <ele>41</ele>
        <time>2015-05-10T09:04:16Z</time>
      </trkpt>
      <trkpt lat="47.30952" lon="-1.59434">
        <ele>41</ele>
        <time>2015-05-10T09:04:19Z</time>
      </trkpt>
      <trkpt lat="47.30954" lon="-1.59431">
        <ele>41.1</ele>
        <time>2015-05-10T09:04:23Z</time>
      </trkpt>
      <trkpt lat="47.30957" lon="-1.59432">
        <ele>40.9</ele>
        <time>2015-05-10T09:04:27Z</time>
      </trkpt>
      <trkpt lat="47.3096" lon="-1.59434">
        <ele>40.7</ele>
        <time>2015-05-10T09:04:30Z</time>
      </trkpt>
      <trkpt lat="47.30964" lon="-1.59434">
        <ele>40.5</ele>
        <time>2015-05-10T09:04:33Z</time>
      </trkpt>
      <trkpt lat="47.30965" lon="-1.5943">
        <ele>40.7</ele>
        <time>2015-05-10T09:04:36Z</time>
      </trkpt>
      <trkpt lat="47.30965" lon="-1.59425">
        <ele>41</ele>
        <time>2015-05-10T09:04:40Z</time>
      </trkpt>
      <trkpt lat="47.30965" lon="-1.59421">
        <ele>41.4</ele>
        <time>2015-05-10T09:04:45Z</time>
      </trkpt>
      <trkpt lat="47.30965" lon="-1.59415">
        <ele>41.8</ele>
        <time>2015-05-10T09:04:56Z</time>
      </trkpt>
      <trkpt lat="47.30965" lon="-1.59411">
        <ele>42.1</ele>
        <time>2015-05-10T09:04:58Z</time>
      </trkpt>
      <trkpt lat="47.30964" lon="-1.59406">
        <ele>42.5</ele>
        <time>2015-05-10T09:05:02Z</time>
      </trkpt>
      <trkpt lat="47.30965" lon="-1.59401">
        <ele>42.8</ele>
        <time>2015-05-10T09:05:06Z</time>
      </trkpt>
      <trkpt lat="47.30968" lon="-1.59398">
        <ele>43</ele>
        <time>2015-05-10T09:05:09Z</time>
      </trkpt>
      <trkpt lat="47.3097" lon="-1.59394">
        <ele>43.1</ele>
        <time>2015-05-10T09:05:12Z</time>
      </trkpt>
      <trkpt lat="47.3097" lon="-1.59399">
        <ele>42.8</ele>
        <time>2015-05-10T09:05:17Z</time>
      </trkpt>
      <trkpt lat="47.3097" lon="-1.59404">
        <ele>42.4</ele>
        <time>2015-05-10T09:05:21Z</time>
      </trkpt>
      <trkpt lat="47.30969" lon="-1.59408">
        <ele>42.1</ele>
        <time>2015-05-10T09:05:23Z</time>
      </trkpt>
      <trkpt lat="47.30968" lon="-1.59413">
        <ele>41.8</ele>
        <time>2015-05-10T09:05:25Z</time>
      </trkpt>
      <trkpt lat="47.30969" lon="-1.59419">
        <ele>41.3</ele>
        <time>2015-05-10T09:05:28Z</time>
      </trkpt>
      <trkpt lat="47.30974" lon="-1.59423">
        <ele>40.7</ele>
        <time>2015-05-10T09:05:30Z</time>
      </trkpt>
      <trkpt lat="47.30978" lon="-1.59426">
        <ele>40.3</ele>
        <time>2015-05-10T09:05:31Z</time>
      </trkpt>
      <trkpt lat="47.30981" lon="-1.59429">
        <ele>40</ele>
        <time>2015-05-10T09:05:32Z</time>
      </trkpt>
      <trkpt lat="47.30984" lon="-1.59432">
        <ele>39.6</ele>
        <time>2015-05-10T09:05:33Z</time>
      </trkpt>
      <trkpt lat="47.3099" lon="-1.59438">
        <ele>38.7</ele>
        <time>2015-05-10T09:05:35Z</time>
      </trkpt>
      <trkpt lat="47.30994" lon="-1.5944">
        <ele>38.4</ele>
        <time>2015-05-10T09:05:37Z</time>
      </trkpt>
      <trkpt lat="47.30997" lon="-1.59439">
        <ele>38.3</ele>
        <time>2015-05-10T09:05:43Z</time>
      </trkpt>
      <trkpt lat="47.30999" lon="-1.59432">
        <ele>38.8</ele>
        <time>2015-05-10T09:05:46Z</time>
      </trkpt>
      <trkpt lat="47.30999" lon="-1.59427">
        <ele>39.1</ele>
        <time>2015-05-10T09:05:48Z</time>
      </trkpt>
      <trkpt lat="47.31" lon="-1.59422">
        <ele>39.5</ele>
        <time>2015-05-10T09:05:50Z</time>
      </trkpt>
      <trkpt lat="47.30999" lon="-1.59418">
        <ele>40</ele>
        <time>2015-05-10T09:05:54Z</time>
      </trkpt>
      <trkpt lat="47.30997" lon="-1.59414">
        <ele>40.4</ele>
        <time>2015-05-10T09:05:58Z</time>
      </trkpt>
      <trkpt lat="47.30998" lon="-1.5941">
        <ele>40.7</ele>
        <time>2015-05-10T09:06:01Z</time>
      </trkpt>
      <trkpt lat="47.31" lon="-1.59409">
        <ele>40.6</ele>
        <time>2015-05-10T09:06:05Z</time>
      </trkpt>
      <trkpt lat="47.31003" lon="-1.59406">
        <ele>40.8</ele>
        <time>2015-05-10T09:06:09Z</time>
      </trkpt>
      <trkpt lat="47.31007" lon="-1.59404">
        <ele>40.8</ele>
        <time>2015-05-10T09:06:11Z</time>
      </trkpt>
      <trkpt lat="47.3101" lon="-1.59401">
        <ele>40.9</ele>
        <time>2015-05-10T09:06:13Z</time>
      </trkpt>
      <trkpt lat="47.31014" lon="-1.59402">
        <ele>40.7</ele>
        <time>2015-05-10T09:06:16Z</time>
      </trkpt>
      <trkpt lat="47.31017" lon="-1.59401">
        <ele>40.6</ele>
        <time>2015-05-10T09:06:19Z</time>
      </trkpt>
      <trkpt lat="47.31019" lon="-1.59397">
        <ele>40.9</ele>
        <time>2015-05-10T09:06:23Z</time>
      </trkpt>
      <trkpt lat="47.31018" lon="-1.59388">
        <ele>41.7</ele>
        <time>2015-05-10T09:06:30Z</time>
      </trkpt>
      <trkpt lat="47.3102" lon="-1.59384">
        <ele>42</ele>
        <time>2015-05-10T09:06:33Z</time>
      </trkpt>
      <trkpt lat="47.31022" lon="-1.5938">
        <ele>42.2</ele>
        <time>2015-05-10T09:06:35Z</time>
      </trkpt>
      <trkpt lat="47.31022" lon="-1.59376">
        <ele>42.7</ele>
        <time>2015-05-10T09:06:39Z</time>
      </trkpt>
      <trkpt lat="47.31023" lon="-1.59372">
        <ele>42.7</ele>
        <time>2015-05-10T09:06:42Z</time>
      </trkpt>
      <trkpt lat="47.31024" lon="-1.59367">
        <ele>42.8</ele>
        <time>2015-05-10T09:06:45Z</time>
      </trkpt>
      <trkpt lat="47.31022" lon="-1.59338">
        <ele>43.6</ele>
        <time>2015-05-10T09:07:01Z</time>
      </trkpt>
      <trkpt lat="47.31025" lon="-1.59338">
        <ele>43.5</ele>
        <time>2015-05-10T09:07:02Z</time>
      </trkpt>
      <trkpt lat="47.31028" lon="-1.59338">
        <ele>43.4</ele>
        <time>2015-05-10T09:07:03Z</time>
      </trkpt>
      <trkpt lat="47.3103" lon="-1.59341">
        <ele>43.2</ele>
        <time>2015-05-10T09:07:04Z</time>
      </trkpt>
      <trkpt lat="47.31031" lon="-1.59348">
        <ele>43</ele>
        <time>2015-05-10T09:07:06Z</time>
      </trkpt>
      <trkpt lat="47.31032" lon="-1.59353">
        <ele>42.9</ele>
        <time>2015-05-10T09:07:07Z</time>
      </trkpt>
      <trkpt lat="47.31032" lon="-1.59358">
        <ele>42.8</ele>
        <time>2015-05-10T09:07:08Z</time>
      </trkpt>
      <trkpt lat="47.31032" lon="-1.59363">
        <ele>42.6</ele>
        <time>2015-05-10T09:07:09Z</time>
      </trkpt>
      <trkpt lat="47.31032" lon="-1.59371">
        <ele>42.5</ele>
        <time>2015-05-10T09:07:10Z</time>
      </trkpt>
      <trkpt lat="47.31034" lon="-1.59378">
        <ele>42</ele>
        <time>2015-05-10T09:07:11Z</time>
      </trkpt>
      <trkpt lat="47.31036" lon="-1.59387">
        <ele>41.1</ele>
        <time>2015-05-10T09:07:12Z</time>
      </trkpt>
      <trkpt lat="47.31032" lon="-1.59393">
        <ele>40.7</ele>
        <time>2015-05-10T09:07:13Z</time>
      </trkpt>
      <trkpt lat="47.31026" lon="-1.59399">
        <ele>40.4</ele>
        <time>2015-05-10T09:07:14Z</time>
      </trkpt>
      <trkpt lat="47.31022" lon="-1.59404">
        <ele>40.1</ele>
        <time>2015-05-10T09:07:15Z</time>
      </trkpt>
      <trkpt lat="47.31019" lon="-1.5941">
        <ele>39.7</ele>
        <time>2015-05-10T09:07:16Z</time>
      </trkpt>
      <trkpt lat="47.31015" lon="-1.59415">
        <ele>39.4</ele>
        <time>2015-05-10T09:07:17Z</time>
      </trkpt>
      <trkpt lat="47.31012" lon="-1.59422">
        <ele>39</ele>
        <time>2015-05-10T09:07:18Z</time>
      </trkpt>
      <trkpt lat="47.31009" lon="-1.59428">
        <ele>38.6</ele>
        <time>2015-05-10T09:07:19Z</time>
      </trkpt>
      <trkpt lat="47.31005" lon="-1.59435">
        <ele>38.2</ele>
        <time>2015-05-10T09:07:20Z</time>
      </trkpt>
      <trkpt lat="47.31001" lon="-1.59442">
        <ele>37.8</ele>
        <time>2015-05-10T09:07:21Z</time>
      </trkpt>
      <trkpt lat="47.30997" lon="-1.5945">
        <ele>37.4</ele>
        <time>2015-05-10T09:07:22Z</time>
      </trkpt>
      <trkpt lat="47.30994" lon="-1.59459">
        <ele>36.9</ele>
        <time>2015-05-10T09:07:23Z</time>
      </trkpt>
      <trkpt lat="47.30991" lon="-1.59469">
        <ele>36.5</ele>
        <time>2015-05-10T09:07:24Z</time>
      </trkpt>
      <trkpt lat="47.30989" lon="-1.59478">
        <ele>36.2</ele>
        <time>2015-05-10T09:07:25Z</time>
      </trkpt>
      <trkpt lat="47.30987" lon="-1.59485">
        <ele>35.9</ele>
        <time>2015-05-10T09:07:26Z</time>
      </trkpt>
      <trkpt lat="47.30986" lon="-1.5949">
        <ele>35.7</ele>
        <time>2015-05-10T09:07:27Z</time>
      </trkpt>
      <trkpt lat="47.30989" lon="-1.59496">
        <ele>35.2</ele>
        <time>2015-05-10T09:07:28Z</time>
      </trkpt>
      <trkpt lat="47.30993" lon="-1.59502">
        <ele>34.8</ele>
        <time>2015-05-10T09:07:29Z</time>
      </trkpt>
      <trkpt lat="47.30997" lon="-1.59506">
        <ele>34.4</ele>
        <time>2015-05-10T09:07:30Z</time>
      </trkpt>
      <trkpt lat="47.31002" lon="-1.5951">
        <ele>34</ele>
        <time>2015-05-10T09:07:31Z</time>
      </trkpt>
      <trkpt lat="47.31007" lon="-1.59515">
        <ele>33.5</ele>
        <time>2015-05-10T09:07:32Z</time>
      </trkpt>
      <trkpt lat="47.31012" lon="-1.5952">
        <ele>33</ele>
        <time>2015-05-10T09:07:33Z</time>
      </trkpt>
      <trkpt lat="47.31018" lon="-1.59526">
        <ele>32.5</ele>
        <time>2015-05-10T09:07:34Z</time>
      </trkpt>
      <trkpt lat="47.31025" lon="-1.59532">
        <ele>32</ele>
        <time>2015-05-10T09:07:35Z</time>
      </trkpt>
      <trkpt lat="47.31031" lon="-1.59535">
        <ele>31.6</ele>
        <time>2015-05-10T09:07:36Z</time>
      </trkpt>
      <trkpt lat="47.31038" lon="-1.59539">
        <ele>31.3</ele>
        <time>2015-05-10T09:07:37Z</time>
      </trkpt>
      <trkpt lat="47.31043" lon="-1.59541">
        <ele>31</ele>
        <time>2015-05-10T09:07:38Z</time>
      </trkpt>
      <trkpt lat="47.31047" lon="-1.59544">
        <ele>30.8</ele>
        <time>2015-05-10T09:07:39Z</time>
      </trkpt>
      <trkpt lat="47.3105" lon="-1.59547">
        <ele>30.6</ele>
        <time>2015-05-10T09:07:40Z</time>
      </trkpt>
      <trkpt lat="47.31054" lon="-1.59549">
        <ele>30.4</ele>
        <time>2015-05-10T09:07:41Z</time>
      </trkpt>
      <trkpt lat="47.31057" lon="-1.59548">
        <ele>30.3</ele>
        <time>2015-05-10T09:07:42Z</time>
      </trkpt>
      <trkpt lat="47.31061" lon="-1.59546">
        <ele>30.2</ele>
        <time>2015-05-10T09:07:43Z</time>
      </trkpt>
      <trkpt lat="47.31064" lon="-1.59546">
        <ele>30.1</ele>
        <time>2015-05-10T09:07:44Z</time>
      </trkpt>
      <trkpt lat="47.31068" lon="-1.59546">
        <ele>30</ele>
        <time>2015-05-10T09:07:45Z</time>
      </trkpt>
      <trkpt lat="47.31072" lon="-1.59546">
        <ele>29.9</ele>
        <time>2015-05-10T09:07:46Z</time>
      </trkpt>
      <trkpt lat="47.31075" lon="-1.59547">
        <ele>29.8</ele>
        <time>2015-05-10T09:07:47Z</time>
      </trkpt>
      <trkpt lat="47.31078" lon="-1.59549">
        <ele>29.7</ele>
        <time>2015-05-10T09:07:48Z</time>
      </trkpt>
      <trkpt lat="47.31081" lon="-1.59548">
        <ele>29.5</ele>
        <time>2015-05-10T09:07:49Z</time>
      </trkpt>
      <trkpt lat="47.31085" lon="-1.59548">
        <ele>29.4</ele>
        <time>2015-05-10T09:07:51Z</time>
      </trkpt>
      <trkpt lat="47.31089" lon="-1.59551">
        <ele>29.3</ele>
        <time>2015-05-10T09:07:53Z</time>
      </trkpt>
      <trkpt lat="47.31092" lon="-1.59553">
        <ele>29.2</ele>
        <time>2015-05-10T09:07:55Z</time>
      </trkpt>
      <trkpt lat="47.31095" lon="-1.59554">
        <ele>29.1</ele>
        <time>2015-05-10T09:07:57Z</time>
      </trkpt>
      <trkpt lat="47.311" lon="-1.59555">
        <ele>28.9</ele>
        <time>2015-05-10T09:07:59Z</time>
      </trkpt>
      <trkpt lat="47.31102" lon="-1.59556">
        <ele>28.8</ele>
        <time>2015-05-10T09:08:00Z</time>
      </trkpt>
      <trkpt lat="47.31105" lon="-1.59557">
        <ele>28.8</ele>
        <time>2015-05-10T09:08:01Z</time>
      </trkpt>
      <trkpt lat="47.31109" lon="-1.59557">
        <ele>28.7</ele>
        <time>2015-05-10T09:08:03Z</time>
      </trkpt>
      <trkpt lat="47.31113" lon="-1.59555">
        <ele>28.5</ele>
        <time>2015-05-10T09:08:05Z</time>
      </trkpt>
      <trkpt lat="47.31117" lon="-1.59554">
        <ele>28.4</ele>
        <time>2015-05-10T09:08:07Z</time>
      </trkpt>
      <trkpt lat="47.31122" lon="-1.5955">
        <ele>28.2</ele>
        <time>2015-05-10T09:08:09Z</time>
      </trkpt>
      <trkpt lat="47.31125" lon="-1.59545">
        <ele>28.1</ele>
        <time>2015-05-10T09:08:11Z</time>
      </trkpt>
      <trkpt lat="47.31127" lon="-1.59539">
        <ele>28.1</ele>
        <time>2015-05-10T09:08:13Z</time>
      </trkpt>
      <trkpt lat="47.31129" lon="-1.59535">
        <ele>28.3</ele>
        <time>2015-05-10T09:08:14Z</time>
      </trkpt>
      <trkpt lat="47.31132" lon="-1.5953">
        <ele>28.5</ele>
        <time>2015-05-10T09:08:16Z</time>
      </trkpt>
      <trkpt lat="47.31135" lon="-1.59527">
        <ele>28.6</ele>
        <time>2015-05-10T09:08:18Z</time>
      </trkpt>
      <trkpt lat="47.31138" lon="-1.59527">
        <ele>28.6</ele>
        <time>2015-05-10T09:08:19Z</time>
      </trkpt>
      <trkpt lat="47.31142" lon="-1.59526">
        <ele>28.7</ele>
        <time>2015-05-10T09:08:21Z</time>
      </trkpt>
      <trkpt lat="47.31146" lon="-1.59524">
        <ele>28.7</ele>
        <time>2015-05-10T09:08:23Z</time>
      </trkpt>
      <trkpt lat="47.3115" lon="-1.5952">
        <ele>28.8</ele>
        <time>2015-05-10T09:08:25Z</time>
      </trkpt>
      <trkpt lat="47.31154" lon="-1.59519">
        <ele>28.9</ele>
        <time>2015-05-10T09:08:28Z</time>
      </trkpt>
      <trkpt lat="47.31158" lon="-1.59517">
        <ele>28.9</ele>
        <time>2015-05-10T09:08:30Z</time>
      </trkpt>
      <trkpt lat="47.31163" lon="-1.59516">
        <ele>29</ele>
        <time>2015-05-10T09:08:32Z</time>
      </trkpt>
      <trkpt lat="47.31166" lon="-1.59515">
        <ele>29</ele>
        <time>2015-05-10T09:08:33Z</time>
      </trkpt>
      <trkpt lat="47.31169" lon="-1.59514">
        <ele>29</ele>
        <time>2015-05-10T09:08:34Z</time>
      </trkpt>
      <trkpt lat="47.31173" lon="-1.59513">
        <ele>29</ele>
        <time>2015-05-10T09:08:35Z</time>
      </trkpt>
      <trkpt lat="47.31177" lon="-1.59513">
        <ele>29</ele>
        <time>2015-05-10T09:08:36Z</time>
      </trkpt>
      <trkpt lat="47.31181" lon="-1.59513">
        <ele>29</ele>
        <time>2015-05-10T09:08:37Z</time>
      </trkpt>
      <trkpt lat="47.31185" lon="-1.59514">
        <ele>29</ele>
        <time>2015-05-10T09:08:38Z</time>
      </trkpt>
      <trkpt lat="47.3119" lon="-1.59516">
        <ele>29</ele>
        <time>2015-05-10T09:08:40Z</time>
      </trkpt>
      <trkpt lat="47.31195" lon="-1.59518">
        <ele>29</ele>
        <time>2015-05-10T09:08:42Z</time>
      </trkpt>
      <trkpt lat="47.31201" lon="-1.59517">
        <ele>29</ele>
        <time>2015-05-10T09:08:44Z</time>
      </trkpt>
      <trkpt lat="47.31205" lon="-1.59515">
        <ele>29</ele>
        <time>2015-05-10T09:08:46Z</time>
      </trkpt>
      <trkpt lat="47.31202" lon="-1.59516">
        <ele>29</ele>
        <time>2015-05-10T09:08:53Z</time>
      </trkpt>
      <trkpt lat="47.31199" lon="-1.59518">
        <ele>29</ele>
        <time>2015-05-10T09:08:55Z</time>
      </trkpt>
      <trkpt lat="47.31195" lon="-1.5952">
        <ele>29</ele>
        <time>2015-05-10T09:08:58Z</time>
      </trkpt>
      <trkpt lat="47.31193" lon="-1.59523">
        <ele>28.9</ele>
        <time>2015-05-10T09:09:00Z</time>
      </trkpt>
      <trkpt lat="47.3119" lon="-1.59526">
        <ele>28.9</ele>
        <time>2015-05-10T09:09:02Z</time>
      </trkpt>
      <trkpt lat="47.31186" lon="-1.59529">
        <ele>28.9</ele>
        <time>2015-05-10T09:09:04Z</time>
      </trkpt>
      <trkpt lat="47.31183" lon="-1.59532">
        <ele>28.8</ele>
        <time>2015-05-10T09:09:06Z</time>
      </trkpt>
      <trkpt lat="47.3118" lon="-1.59535">
        <ele>28.8</ele>
        <time>2015-05-10T09:09:08Z</time>
      </trkpt>
      <trkpt lat="47.31178" lon="-1.59538">
        <ele>28.7</ele>
        <time>2015-05-10T09:09:10Z</time>
      </trkpt>
      <trkpt lat="47.31175" lon="-1.59541">
        <ele>28.6</ele>
        <time>2015-05-10T09:09:12Z</time>
      </trkpt>
      <trkpt lat="47.31173" lon="-1.59544">
        <ele>28.6</ele>
        <time>2015-05-10T09:09:14Z</time>
      </trkpt>
      <trkpt lat="47.31171" lon="-1.59547">
        <ele>28.7</ele>
        <time>2015-05-10T09:09:16Z</time>
      </trkpt>
      <trkpt lat="47.31169" lon="-1.59552">
        <ele>28.8</ele>
        <time>2015-05-10T09:09:18Z</time>
      </trkpt>
      <trkpt lat="47.31165" lon="-1.59554">
        <ele>28.8</ele>
        <time>2015-05-10T09:09:20Z</time>
      </trkpt>
      <trkpt lat="47.31162" lon="-1.59558">
        <ele>28.8</ele>
        <time>2015-05-10T09:09:22Z</time>
      </trkpt>
      <trkpt lat="47.31159" lon="-1.59561">
        <ele>28.8</ele>
        <time>2015-05-10T09:09:24Z</time>
      </trkpt>
      <trkpt lat="47.31158" lon="-1.59566">
        <ele>28.9</ele>
        <time>2015-05-10T09:09:27Z</time>
      </trkpt>
      <trkpt lat="47.31156" lon="-1.5957">
        <ele>29</ele>
        <time>2015-05-10T09:09:30Z</time>
      </trkpt>
      <trkpt lat="47.31157" lon="-1.59575">
        <ele>29.1</ele>
        <time>2015-05-10T09:09:32Z</time>
      </trkpt>
      <trkpt lat="47.31158" lon="-1.5958">
        <ele>29.2</ele>
        <time>2015-05-10T09:09:34Z</time>
      </trkpt>
      <trkpt lat="47.31159" lon="-1.59584">
        <ele>29.3</ele>
        <time>2015-05-10T09:09:35Z</time>
      </trkpt>
      <trkpt lat="47.31164" lon="-1.59591">
        <ele>29.6</ele>
        <time>2015-05-10T09:09:37Z</time>
      </trkpt>
      <trkpt lat="47.31167" lon="-1.59594">
        <ele>29.8</ele>
        <time>2015-05-10T09:09:39Z</time>
      </trkpt>
      <trkpt lat="47.31169" lon="-1.59598">
        <ele>29.9</ele>
        <time>2015-05-10T09:09:44Z</time>
      </trkpt>
      <trkpt lat="47.31168" lon="-1.59603">
        <ele>30</ele>
        <time>2015-05-10T09:09:48Z</time>
      </trkpt>
      <trkpt lat="47.3117" lon="-1.59608">
        <ele>30.2</ele>
        <time>2015-05-10T09:09:50Z</time>
      </trkpt>
      <trkpt lat="47.31172" lon="-1.59612">
        <ele>30.3</ele>
        <time>2015-05-10T09:09:52Z</time>
      </trkpt>
      <trkpt lat="47.31175" lon="-1.59616">
        <ele>30.5</ele>
        <time>2015-05-10T09:09:54Z</time>
      </trkpt>
      <trkpt lat="47.31177" lon="-1.59615">
        <ele>30.6</ele>
        <time>2015-05-10T09:09:56Z</time>
      </trkpt>
      <trkpt lat="47.3118" lon="-1.5961">
        <ele>30.6</ele>
        <time>2015-05-10T09:09:58Z</time>
      </trkpt>
      <trkpt lat="47.3118" lon="-1.59605">
        <ele>30.4</ele>
        <time>2015-05-10T09:10:01Z</time>
      </trkpt>
      <trkpt lat="47.31179" lon="-1.59601">
        <ele>30.3</ele>
        <time>2015-05-10T09:10:03Z</time>
      </trkpt>
      <trkpt lat="47.3118" lon="-1.59595">
        <ele>30.2</ele>
        <time>2015-05-10T09:10:06Z</time>
      </trkpt>
      <trkpt lat="47.31183" lon="-1.59593">
        <ele>30.2</ele>
        <time>2015-05-10T09:10:10Z</time>
      </trkpt>
      <trkpt lat="47.31186" lon="-1.59591">
        <ele>30.2</ele>
        <time>2015-05-10T09:10:12Z</time>
      </trkpt>
      <trkpt lat="47.31188" lon="-1.59589">
        <ele>30.2</ele>
        <time>2015-05-10T09:10:14Z</time>
      </trkpt>
      <trkpt lat="47.31191" lon="-1.59588">
        <ele>30.2</ele>
        <time>2015-05-10T09:10:16Z</time>
      </trkpt>
      <trkpt lat="47.31195" lon="-1.59589">
        <ele>30.4</ele>
        <time>2015-05-10T09:10:19Z</time>
      </trkpt>
      <trkpt lat="47.31198" lon="-1.5959">
        <ele>30.5</ele>
        <time>2015-05-10T09:10:22Z</time>
      </trkpt>
      <trkpt lat="47.312" lon="-1.59587">
        <ele>30.4</ele>
        <time>2015-05-10T09:10:25Z</time>
      </trkpt>
      <trkpt lat="47.31202" lon="-1.59588">
        <ele>30.5</ele>
        <time>2015-05-10T09:10:27Z</time>
      </trkpt>
      <trkpt lat="47.31205" lon="-1.5959">
        <ele>30.7</ele>
        <time>2015-05-10T09:10:33Z</time>
      </trkpt>
      <trkpt lat="47.31208" lon="-1.59591">
        <ele>30.7</ele>
        <time>2015-05-10T09:10:36Z</time>
      </trkpt>
      <trkpt lat="47.31212" lon="-1.5959">
        <ele>30.7</ele>
        <time>2015-05-10T09:10:39Z</time>
      </trkpt>
      <trkpt lat="47.31215" lon="-1.5959">
        <ele>30.6</ele>
        <time>2015-05-10T09:10:42Z</time>
      </trkpt>
      <trkpt lat="47.31218" lon="-1.59587">
        <ele>30.5</ele>
        <time>2015-05-10T09:10:44Z</time>
      </trkpt>
      <trkpt lat="47.31222" lon="-1.59585">
        <ele>30.4</ele>
        <time>2015-05-10T09:10:46Z</time>
      </trkpt>
      <trkpt lat="47.31225" lon="-1.59586">
        <ele>30.4</ele>
        <time>2015-05-10T09:10:48Z</time>
      </trkpt>
      <trkpt lat="47.31229" lon="-1.59585">
        <ele>30.3</ele>
        <time>2015-05-10T09:10:50Z</time>
      </trkpt>
      <trkpt lat="47.31231" lon="-1.59583">
        <ele>30.2</ele>
        <time>2015-05-10T09:10:52Z</time>
      </trkpt>
      <trkpt lat="47.31233" lon="-1.5958">
        <ele>30.1</ele>
        <time>2015-05-10T09:10:53Z</time>
      </trkpt>
      <trkpt lat="47.31235" lon="-1.59576">
        <ele>29.9</ele>
        <time>2015-05-10T09:10:54Z</time>
      </trkpt>
      <trkpt lat="47.31238" lon="-1.59572">
        <ele>29.7</ele>
        <time>2015-05-10T09:10:55Z</time>
      </trkpt>
      <trkpt lat="47.31241" lon="-1.5957">
        <ele>29.6</ele>
        <time>2015-05-10T09:10:56Z</time>
      </trkpt>
      <trkpt lat="47.31244" lon="-1.5957">
        <ele>29.6</ele>
        <time>2015-05-10T09:10:57Z</time>
      </trkpt>
      <trkpt lat="47.31247" lon="-1.59571">
        <ele>29.6</ele>
        <time>2015-05-10T09:10:58Z</time>
      </trkpt>
      <trkpt lat="47.3125" lon="-1.59571">
        <ele>29.5</ele>
        <time>2015-05-10T09:10:59Z</time>
      </trkpt>
      <trkpt lat="47.31253" lon="-1.5957">
        <ele>29.5</ele>
        <time>2015-05-10T09:11:00Z</time>
      </trkpt>
      <trkpt lat="47.31257" lon="-1.59569">
        <ele>29.4</ele>
        <time>2015-05-10T09:11:02Z</time>
      </trkpt>
      <trkpt lat="47.3126" lon="-1.5957">
        <ele>29.4</ele>
        <time>2015-05-10T09:11:05Z</time>
      </trkpt>
      <trkpt lat="47.31262" lon="-1.59571">
        <ele>29.4</ele>
        <time>2015-05-10T09:11:07Z</time>
      </trkpt>
      <trkpt lat="47.31264" lon="-1.59574">
        <ele>29.5</ele>
        <time>2015-05-10T09:11:10Z</time>
      </trkpt>
      <trkpt lat="47.31265" lon="-1.59578">
        <ele>29.6</ele>
        <time>2015-05-10T09:11:12Z</time>
      </trkpt>
      <trkpt lat="47.31264" lon="-1.59582">
        <ele>29.8</ele>
        <time>2015-05-10T09:11:17Z</time>
      </trkpt>
      <trkpt lat="47.31265" lon="-1.59586">
        <ele>29.9</ele>
        <time>2015-05-10T09:11:19Z</time>
      </trkpt>
      <trkpt lat="47.31266" lon="-1.59591">
        <ele>30.1</ele>
        <time>2015-05-10T09:11:22Z</time>
      </trkpt>
      <trkpt lat="47.31266" lon="-1.59596">
        <ele>30.3</ele>
        <time>2015-05-10T09:11:24Z</time>
      </trkpt>
      <trkpt lat="47.31265" lon="-1.59601">
        <ele>30.5</ele>
        <time>2015-05-10T09:11:26Z</time>
      </trkpt>
      <trkpt lat="47.31263" lon="-1.59605">
        <ele>30.6</ele>
        <time>2015-05-10T09:11:28Z</time>
      </trkpt>
      <trkpt lat="47.31264" lon="-1.59611">
        <ele>30.8</ele>
        <time>2015-05-10T09:11:31Z</time>
      </trkpt>
      <trkpt lat="47.31263" lon="-1.59616">
        <ele>31</ele>
        <time>2015-05-10T09:11:34Z</time>
      </trkpt>
      <trkpt lat="47.31261" lon="-1.59621">
        <ele>31.2</ele>
        <time>2015-05-10T09:11:36Z</time>
      </trkpt>
      <trkpt lat="47.31258" lon="-1.59623">
        <ele>31.3</ele>
        <time>2015-05-10T09:11:38Z</time>
      </trkpt>
      <trkpt lat="47.31258" lon="-1.59627">
        <ele>31.5</ele>
        <time>2015-05-10T09:11:39Z</time>
      </trkpt>
      <trkpt lat="47.31259" lon="-1.59633">
        <ele>31.7</ele>
        <time>2015-05-10T09:11:41Z</time>
      </trkpt>
      <trkpt lat="47.3126" lon="-1.59637">
        <ele>31.9</ele>
        <time>2015-05-10T09:11:44Z</time>
      </trkpt>
      <trkpt lat="47.31261" lon="-1.59642">
        <ele>32.1</ele>
        <time>2015-05-10T09:11:47Z</time>
      </trkpt>
      <trkpt lat="47.31262" lon="-1.59648">
        <ele>32.3</ele>
        <time>2015-05-10T09:11:50Z</time>
      </trkpt>
      <trkpt lat="47.31261" lon="-1.59652">
        <ele>32.4</ele>
        <time>2015-05-10T09:11:53Z</time>
      </trkpt>
      <trkpt lat="47.31262" lon="-1.59658">
        <ele>32.7</ele>
        <time>2015-05-10T09:11:56Z</time>
      </trkpt>
      <trkpt lat="47.31263" lon="-1.59663">
        <ele>32.9</ele>
        <time>2015-05-10T09:11:58Z</time>
      </trkpt>
      <trkpt lat="47.31264" lon="-1.59668">
        <ele>33</ele>
        <time>2015-05-10T09:12:00Z</time>
      </trkpt>
      <trkpt lat="47.31265" lon="-1.59675">
        <ele>33.3</ele>
        <time>2015-05-10T09:12:03Z</time>
      </trkpt>
      <trkpt lat="47.31266" lon="-1.5968">
        <ele>33.5</ele>
        <time>2015-05-10T09:12:05Z</time>
      </trkpt>
      <trkpt lat="47.31267" lon="-1.59684">
        <ele>33.6</ele>
        <time>2015-05-10T09:12:07Z</time>
      </trkpt>
      <trkpt lat="47.31267" lon="-1.59689">
        <ele>33.8</ele>
        <time>2015-05-10T09:12:10Z</time>
      </trkpt>
      <trkpt lat="47.31267" lon="-1.59694">
        <ele>34</ele>
        <time>2015-05-10T09:12:12Z</time>
      </trkpt>
      <trkpt lat="47.31265" lon="-1.597">
        <ele>34.3</ele>
        <time>2015-05-10T09:12:15Z</time>
      </trkpt>
      <trkpt lat="47.31266" lon="-1.59705">
        <ele>34.5</ele>
        <time>2015-05-10T09:12:17Z</time>
      </trkpt>
      <trkpt lat="47.31266" lon="-1.59709">
        <ele>34.6</ele>
        <time>2015-05-10T09:12:20Z</time>
      </trkpt>
      <trkpt lat="47.31268" lon="-1.59716">
        <ele>34.9</ele>
        <time>2015-05-10T09:12:22Z</time>
      </trkpt>
      <trkpt lat="47.31269" lon="-1.59722">
        <ele>35.1</ele>
        <time>2015-05-10T09:12:24Z</time>
      </trkpt>
      <trkpt lat="47.31271" lon="-1.59728">
        <ele>35.3</ele>
        <time>2015-05-10T09:12:26Z</time>
      </trkpt>
      <trkpt lat="47.31276" lon="-1.59737">
        <ele>35.6</ele>
        <time>2015-05-10T09:12:27Z</time>
      </trkpt>
      <trkpt lat="47.31278" lon="-1.59741">
        <ele>35.8</ele>
        <time>2015-05-10T09:12:28Z</time>
      </trkpt>
      <trkpt lat="47.31282" lon="-1.59746">
        <ele>35.9</ele>
        <time>2015-05-10T09:12:29Z</time>
      </trkpt>
      <trkpt lat="47.31285" lon="-1.59751">
        <ele>36.1</ele>
        <time>2015-05-10T09:12:31Z</time>
      </trkpt>
      <trkpt lat="47.31286" lon="-1.59756">
        <ele>36.3</ele>
        <time>2015-05-10T09:12:33Z</time>
      </trkpt>
      <trkpt lat="47.31288" lon="-1.59761">
        <ele>36.6</ele>
        <time>2015-05-10T09:12:34Z</time>
      </trkpt>
      <trkpt lat="47.31289" lon="-1.59765">
        <ele>36.7</ele>
        <time>2015-05-10T09:12:35Z</time>
      </trkpt>
      <trkpt lat="47.3129" lon="-1.59772">
        <ele>37</ele>
        <time>2015-05-10T09:12:37Z</time>
      </trkpt>
      <trkpt lat="47.3129" lon="-1.59779">
        <ele>37.4</ele>
        <time>2015-05-10T09:12:39Z</time>
      </trkpt>
      <trkpt lat="47.31291" lon="-1.59784">
        <ele>37.6</ele>
        <time>2015-05-10T09:12:40Z</time>
      </trkpt>
      <trkpt lat="47.31291" lon="-1.59792">
        <ele>38</ele>
        <time>2015-05-10T09:12:42Z</time>
      </trkpt>
      <trkpt lat="47.31291" lon="-1.59797">
        <ele>37.8</ele>
        <time>2015-05-10T09:12:44Z</time>
      </trkpt>
      <trkpt lat="47.3129" lon="-1.59801">
        <ele>37.7</ele>
        <time>2015-05-10T09:12:47Z</time>
      </trkpt>
      <trkpt lat="47.3129" lon="-1.59806">
        <ele>37.5</ele>
        <time>2015-05-10T09:12:49Z</time>
      </trkpt>
      <trkpt lat="47.31288" lon="-1.5981">
        <ele>37.4</ele>
        <time>2015-05-10T09:12:52Z</time>
      </trkpt>
      <trkpt lat="47.31285" lon="-1.59812">
        <ele>37.3</ele>
        <time>2015-05-10T09:12:54Z</time>
      </trkpt>
      <trkpt lat="47.31283" lon="-1.59816">
        <ele>37.2</ele>
        <time>2015-05-10T09:12:56Z</time>
      </trkpt>
      <trkpt lat="47.31282" lon="-1.5982">
        <ele>37.1</ele>
        <time>2015-05-10T09:12:58Z</time>
      </trkpt>
      <trkpt lat="47.31282" lon="-1.59826">
        <ele>36.9</ele>
        <time>2015-05-10T09:13:00Z</time>
      </trkpt>
      <trkpt lat="47.31279" lon="-1.59829">
        <ele>36.8</ele>
        <time>2015-05-10T09:13:02Z</time>
      </trkpt>
      <trkpt lat="47.3128" lon="-1.59835">
        <ele>36.6</ele>
        <time>2015-05-10T09:13:04Z</time>
      </trkpt>
      <trkpt lat="47.31281" lon="-1.59839">
        <ele>36.5</ele>
        <time>2015-05-10T09:13:05Z</time>
      </trkpt>
      <trkpt lat="47.31284" lon="-1.59847">
        <ele>36.2</ele>
        <time>2015-05-10T09:13:08Z</time>
      </trkpt>
      <trkpt lat="47.31283" lon="-1.59852">
        <ele>36</ele>
        <time>2015-05-10T09:13:10Z</time>
      </trkpt>
      <trkpt lat="47.3128" lon="-1.59856">
        <ele>35.9</ele>
        <time>2015-05-10T09:13:13Z</time>
      </trkpt>
      <trkpt lat="47.3128" lon="-1.5986">
        <ele>35.8</ele>
        <time>2015-05-10T09:13:15Z</time>
      </trkpt>
      <trkpt lat="47.31279" lon="-1.59866">
        <ele>35.6</ele>
        <time>2015-05-10T09:13:17Z</time>
      </trkpt>
      <trkpt lat="47.31277" lon="-1.59869">
        <ele>35.6</ele>
        <time>2015-05-10T09:13:20Z</time>
      </trkpt>
      <trkpt lat="47.31271" lon="-1.59871">
        <ele>35.6</ele>
        <time>2015-05-10T09:13:22Z</time>
      </trkpt>
      <trkpt lat="47.31268" lon="-1.59873">
        <ele>35.6</ele>
        <time>2015-05-10T09:13:23Z</time>
      </trkpt>
      <trkpt lat="47.31267" lon="-1.59878">
        <ele>35.4</ele>
        <time>2015-05-10T09:13:25Z</time>
      </trkpt>
      <trkpt lat="47.31267" lon="-1.59883">
        <ele>35.2</ele>
        <time>2015-05-10T09:13:26Z</time>
      </trkpt>
      <trkpt lat="47.31266" lon="-1.59887">
        <ele>34.9</ele>
        <time>2015-05-10T09:13:27Z</time>
      </trkpt>
      <trkpt lat="47.31267" lon="-1.59891">
        <ele>34.7</ele>
        <time>2015-05-10T09:13:28Z</time>
      </trkpt>
      <trkpt lat="47.3127" lon="-1.59897">
        <ele>34.3</ele>
        <time>2015-05-10T09:13:29Z</time>
      </trkpt>
      <trkpt lat="47.31273" lon="-1.599">
        <ele>34</ele>
        <time>2015-05-10T09:13:30Z</time>
      </trkpt>
      <trkpt lat="47.31276" lon="-1.59902">
        <ele>33.8</ele>
        <time>2015-05-10T09:13:31Z</time>
      </trkpt>
      <trkpt lat="47.31279" lon="-1.59906">
        <ele>33.5</ele>
        <time>2015-05-10T09:13:33Z</time>
      </trkpt>
      <trkpt lat="47.3128" lon="-1.59914">
        <ele>33</ele>
        <time>2015-05-10T09:13:35Z</time>
      </trkpt>
      <trkpt lat="47.3128" lon="-1.59919">
        <ele>32.7</ele>
        <time>2015-05-10T09:13:36Z</time>
      </trkpt>
      <trkpt lat="47.31282" lon="-1.59924">
        <ele>32.4</ele>
        <time>2015-05-10T09:13:37Z</time>
      </trkpt>
      <trkpt lat="47.31283" lon="-1.59928">
        <ele>32.1</ele>
        <time>2015-05-10T09:13:38Z</time>
      </trkpt>
      <trkpt lat="47.31283" lon="-1.59935">
        <ele>31.7</ele>
        <time>2015-05-10T09:13:40Z</time>
      </trkpt>
      <trkpt lat="47.31286" lon="-1.59942">
        <ele>31.2</ele>
        <time>2015-05-10T09:13:42Z</time>
      </trkpt>
      <trkpt lat="47.31288" lon="-1.59945">
        <ele>30.9</ele>
        <time>2015-05-10T09:13:43Z</time>
      </trkpt>
      <trkpt lat="47.31289" lon="-1.59951">
        <ele>30.5</ele>
        <time>2015-05-10T09:13:45Z</time>
      </trkpt>
      <trkpt lat="47.31288" lon="-1.59957">
        <ele>30.2</ele>
        <time>2015-05-10T09:13:48Z</time>
      </trkpt>
      <trkpt lat="47.31292" lon="-1.59961">
        <ele>29.9</ele>
        <time>2015-05-10T09:13:51Z</time>
      </trkpt>
      <trkpt lat="47.31297" lon="-1.59964">
        <ele>29.3</ele>
        <time>2015-05-10T09:13:53Z</time>
      </trkpt>
      <trkpt lat="47.31301" lon="-1.59967">
        <ele>28.9</ele>
        <time>2015-05-10T09:13:55Z</time>
      </trkpt>
      <trkpt lat="47.31304" lon="-1.59966">
        <ele>28.5</ele>
        <time>2015-05-10T09:13:58Z</time>
      </trkpt>
      <trkpt lat="47.31306" lon="-1.59963">
        <ele>28.3</ele>
        <time>2015-05-10T09:14:01Z</time>
      </trkpt>
      <trkpt lat="47.31307" lon="-1.59958">
        <ele>28.2</ele>
        <time>2015-05-10T09:14:04Z</time>
      </trkpt>
      <trkpt lat="47.31308" lon="-1.59954">
        <ele>28.3</ele>
        <time>2015-05-10T09:14:10Z</time>
      </trkpt>
      <trkpt lat="47.31307" lon="-1.59949">
        <ele>28.7</ele>
        <time>2015-05-10T09:14:13Z</time>
      </trkpt>
      <trkpt lat="47.31307" lon="-1.59943">
        <ele>29</ele>
        <time>2015-05-10T09:14:15Z</time>
      </trkpt>
      <trkpt lat="47.31306" lon="-1.5994">
        <ele>29.4</ele>
        <time>2015-05-10T09:14:17Z</time>
      </trkpt>
      <trkpt lat="47.31307" lon="-1.59935">
        <ele>29.6</ele>
        <time>2015-05-10T09:14:20Z</time>
      </trkpt>
      <trkpt lat="47.31307" lon="-1.59927">
        <ele>30</ele>
        <time>2015-05-10T09:14:28Z</time>
      </trkpt>
      <trkpt lat="47.31308" lon="-1.5992">
        <ele>30.3</ele>
        <time>2015-05-10T09:14:31Z</time>
      </trkpt>
      <trkpt lat="47.31309" lon="-1.59913">
        <ele>30.6</ele>
        <time>2015-05-10T09:14:33Z</time>
      </trkpt>
      <trkpt lat="47.31311" lon="-1.59909">
        <ele>30.7</ele>
        <time>2015-05-10T09:14:34Z</time>
      </trkpt>
      <trkpt lat="47.31311" lon="-1.59904">
        <ele>30.9</ele>
        <time>2015-05-10T09:14:36Z</time>
      </trkpt>
      <trkpt lat="47.31312" lon="-1.59898">
        <ele>31.3</ele>
        <time>2015-05-10T09:14:38Z</time>
      </trkpt>
      <trkpt lat="47.31314" lon="-1.59891">
        <ele>31.4</ele>
        <time>2015-05-10T09:14:40Z</time>
      </trkpt>
      <trkpt lat="47.31314" lon="-1.59887">
        <ele>31.6</ele>
        <time>2015-05-10T09:14:42Z</time>
      </trkpt>
      <trkpt lat="47.31317" lon="-1.5988">
        <ele>31.7</ele>
        <time>2015-05-10T09:14:44Z</time>
      </trkpt>
      <trkpt lat="47.31317" lon="-1.59874">
        <ele>32</ele>
        <time>2015-05-10T09:14:46Z</time>
      </trkpt>
      <trkpt lat="47.31317" lon="-1.5987">
        <ele>32.1</ele>
        <time>2015-05-10T09:14:47Z</time>
      </trkpt>
      <trkpt lat="47.31316" lon="-1.59864">
        <ele>32.4</ele>
        <time>2015-05-10T09:14:49Z</time>
      </trkpt>
      <trkpt lat="47.31317" lon="-1.59856">
        <ele>32.6</ele>
        <time>2015-05-10T09:14:51Z</time>
      </trkpt>
      <trkpt lat="47.31317" lon="-1.59849">
        <ele>32.7</ele>
        <time>2015-05-10T09:14:53Z</time>
      </trkpt>
      <trkpt lat="47.31317" lon="-1.59844">
        <ele>32.9</ele>
        <time>2015-05-10T09:14:55Z</time>
      </trkpt>
      <trkpt lat="47.31317" lon="-1.59839">
        <ele>33</ele>
        <time>2015-05-10T09:14:56Z</time>
      </trkpt>
      <trkpt lat="47.31317" lon="-1.59835">
        <ele>33.1</ele>
        <time>2015-05-10T09:14:57Z</time>
      </trkpt>
      <trkpt lat="47.31316" lon="-1.59828">
        <ele>33.4</ele>
        <time>2015-05-10T09:14:59Z</time>
      </trkpt>
      <trkpt lat="47.31317" lon="-1.59821">
        <ele>33.6</ele>
        <time>2015-05-10T09:15:01Z</time>
      </trkpt>
      <trkpt lat="47.31318" lon="-1.59815">
        <ele>33.5</ele>
        <time>2015-05-10T09:15:03Z</time>
      </trkpt>
      <trkpt lat="47.31321" lon="-1.59808">
        <ele>33.3</ele>
        <time>2015-05-10T09:15:05Z</time>
      </trkpt>
      <trkpt lat="47.31322" lon="-1.59805">
        <ele>33.2</ele>
        <time>2015-05-10T09:15:08Z</time>
      </trkpt>
      <trkpt lat="47.31323" lon="-1.59801">
        <ele>33.2</ele>
        <time>2015-05-10T09:15:09Z</time>
      </trkpt>
      <trkpt lat="47.31326" lon="-1.59798">
        <ele>32.9</ele>
        <time>2015-05-10T09:15:12Z</time>
      </trkpt>
      <trkpt lat="47.31325" lon="-1.59803">
        <ele>33</ele>
        <time>2015-05-10T09:15:18Z</time>
      </trkpt>
      <trkpt lat="47.31324" lon="-1.59809">
        <ele>32.9</ele>
        <time>2015-05-10T09:15:21Z</time>
      </trkpt>
      <trkpt lat="47.31323" lon="-1.59812">
        <ele>32.9</ele>
        <time>2015-05-10T09:15:23Z</time>
      </trkpt>
      <trkpt lat="47.31321" lon="-1.59818">
        <ele>33</ele>
        <time>2015-05-10T09:15:26Z</time>
      </trkpt>
      <trkpt lat="47.31321" lon="-1.59823">
        <ele>33</ele>
        <time>2015-05-10T09:15:28Z</time>
      </trkpt>
      <trkpt lat="47.31318" lon="-1.59826">
        <ele>33.2</ele>
        <time>2015-05-10T09:15:30Z</time>
      </trkpt>
      <trkpt lat="47.31317" lon="-1.5983">
        <ele>33.3</ele>
        <time>2015-05-10T09:15:33Z</time>
      </trkpt>
      <trkpt lat="47.31317" lon="-1.59836">
        <ele>33</ele>
        <time>2015-05-10T09:15:35Z</time>
      </trkpt>
      <trkpt lat="47.31319" lon="-1.59841">
        <ele>32.7</ele>
        <time>2015-05-10T09:15:36Z</time>
      </trkpt>
      <trkpt lat="47.31319" lon="-1.59845">
        <ele>32.6</ele>
        <time>2015-05-10T09:15:38Z</time>
      </trkpt>
      <trkpt lat="47.31317" lon="-1.59849">
        <ele>32.7</ele>
        <time>2015-05-10T09:15:40Z</time>
      </trkpt>
      <trkpt lat="47.31315" lon="-1.59851">
        <ele>33</ele>
        <time>2015-05-10T09:15:41Z</time>
      </trkpt>
      <trkpt lat="47.3131" lon="-1.59857">
        <ele>33.3</ele>
        <time>2015-05-10T09:15:42Z</time>
      </trkpt>
      <trkpt lat="47.31313" lon="-1.59862">
        <ele>32.9</ele>
        <time>2015-05-10T09:15:43Z</time>
      </trkpt>
      <trkpt lat="47.31316" lon="-1.59871">
        <ele>32.2</ele>
        <time>2015-05-10T09:15:44Z</time>
      </trkpt>
      <trkpt lat="47.31318" lon="-1.59876">
        <ele>31.8</ele>
        <time>2015-05-10T09:15:45Z</time>
      </trkpt>
      <trkpt lat="47.31318" lon="-1.5988">
        <ele>31.6</ele>
        <time>2015-05-10T09:15:48Z</time>
      </trkpt>
      <trkpt lat="47.31315" lon="-1.59883">
        <ele>31.8</ele>
        <time>2015-05-10T09:15:51Z</time>
      </trkpt>
      <trkpt lat="47.31313" lon="-1.59888">
        <ele>31.6</ele>
        <time>2015-05-10T09:15:54Z</time>
      </trkpt>
      <trkpt lat="47.31311" lon="-1.59892">
        <ele>31.6</ele>
        <time>2015-05-10T09:15:58Z</time>
      </trkpt>
      <trkpt lat="47.31313" lon="-1.59897">
        <ele>31.1</ele>
        <time>2015-05-10T09:16:01Z</time>
      </trkpt>
      <trkpt lat="47.31314" lon="-1.59903">
        <ele>30.7</ele>
        <time>2015-05-10T09:16:03Z</time>
      </trkpt>
      <trkpt lat="47.31314" lon="-1.59907">
        <ele>30.4</ele>
        <time>2015-05-10T09:16:05Z</time>
      </trkpt>
      <trkpt lat="47.31314" lon="-1.59911">
        <ele>30.1</ele>
        <time>2015-05-10T09:16:09Z</time>
      </trkpt>
      <trkpt lat="47.31318" lon="-1.59918">
        <ele>29.3</ele>
        <time>2015-05-10T09:16:12Z</time>
      </trkpt>
      <trkpt lat="47.31316" lon="-1.59922">
        <ele>29.3</ele>
        <time>2015-05-10T09:16:14Z</time>
      </trkpt>
      <trkpt lat="47.31314" lon="-1.59926">
        <ele>29.2</ele>
        <time>2015-05-10T09:16:16Z</time>
      </trkpt>
      <trkpt lat="47.31319" lon="-1.59935">
        <ele>28.1</ele>
        <time>2015-05-10T09:16:18Z</time>
      </trkpt>
      <trkpt lat="47.3132" lon="-1.5994">
        <ele>27.8</ele>
        <time>2015-05-10T09:16:20Z</time>
      </trkpt>
      <trkpt lat="47.31322" lon="-1.59946">
        <ele>27.1</ele>
        <time>2015-05-10T09:16:22Z</time>
      </trkpt>
      <trkpt lat="47.31325" lon="-1.59951">
        <ele>26.5</ele>
        <time>2015-05-10T09:16:23Z</time>
      </trkpt>
      <trkpt lat="47.31327" lon="-1.59955">
        <ele>25.9</ele>
        <time>2015-05-10T09:16:24Z</time>
      </trkpt>
      <trkpt lat="47.3133" lon="-1.59959">
        <ele>25.4</ele>
        <time>2015-05-10T09:16:25Z</time>
      </trkpt>
      <trkpt lat="47.31332" lon="-1.59962">
        <ele>25.2</ele>
        <time>2015-05-10T09:16:26Z</time>
      </trkpt>
      <trkpt lat="47.31336" lon="-1.59967">
        <ele>24.8</ele>
        <time>2015-05-10T09:16:28Z</time>
      </trkpt>
      <trkpt lat="47.31338" lon="-1.59971">
        <ele>24.5</ele>
        <time>2015-05-10T09:16:29Z</time>
      </trkpt>
      <trkpt lat="47.3134" lon="-1.59973">
        <ele>24.3</ele>
        <time>2015-05-10T09:16:30Z</time>
      </trkpt>
      <trkpt lat="47.31344" lon="-1.59975">
        <ele>23.8</ele>
        <time>2015-05-10T09:16:32Z</time>
      </trkpt>
      <trkpt lat="47.31349" lon="-1.59973">
        <ele>23.3</ele>
        <time>2015-05-10T09:16:34Z</time>
      </trkpt>
      <trkpt lat="47.31352" lon="-1.59972">
        <ele>22.9</ele>
        <time>2015-05-10T09:16:35Z</time>
      </trkpt>
      <trkpt lat="47.31355" lon="-1.59971">
        <ele>22.5</ele>
        <time>2015-05-10T09:16:36Z</time>
      </trkpt>
      <trkpt lat="47.31358" lon="-1.59969">
        <ele>22.1</ele>
        <time>2015-05-10T09:16:37Z</time>
      </trkpt>
      <trkpt lat="47.31362" lon="-1.59967">
        <ele>21.6</ele>
        <time>2015-05-10T09:16:38Z</time>
      </trkpt>
      <trkpt lat="47.31367" lon="-1.59967">
        <ele>21.1</ele>
        <time>2015-05-10T09:16:39Z</time>
      </trkpt>
      <trkpt lat="47.31371" lon="-1.59967">
        <ele>20.6</ele>
        <time>2015-05-10T09:16:40Z</time>
      </trkpt>
      <trkpt lat="47.31375" lon="-1.59967">
        <ele>20.1</ele>
        <time>2015-05-10T09:16:41Z</time>
      </trkpt>
      <trkpt lat="47.31379" lon="-1.59967">
        <ele>19.8</ele>
        <time>2015-05-10T09:16:42Z</time>
      </trkpt>
      <trkpt lat="47.31383" lon="-1.59967">
        <ele>19.6</ele>
        <time>2015-05-10T09:16:43Z</time>
      </trkpt>
      <trkpt lat="47.31387" lon="-1.59967">
        <ele>19.4</ele>
        <time>2015-05-10T09:16:44Z</time>
      </trkpt>
      <trkpt lat="47.3139" lon="-1.59969">
        <ele>19.2</ele>
        <time>2015-05-10T09:16:45Z</time>
      </trkpt>
      <trkpt lat="47.31394" lon="-1.59969">
        <ele>19</ele>
        <time>2015-05-10T09:16:46Z</time>
      </trkpt>
      <trkpt lat="47.31397" lon="-1.5997">
        <ele>18.8</ele>
        <time>2015-05-10T09:16:47Z</time>
      </trkpt>
      <trkpt lat="47.314" lon="-1.5997">
        <ele>18.6</ele>
        <time>2015-05-10T09:16:48Z</time>
      </trkpt>
      <trkpt lat="47.31403" lon="-1.59972">
        <ele>18.4</ele>
        <time>2015-05-10T09:16:49Z</time>
      </trkpt>
      <trkpt lat="47.31406" lon="-1.59973">
        <ele>18.3</ele>
        <time>2015-05-10T09:16:50Z</time>
      </trkpt>
      <trkpt lat="47.3141" lon="-1.59976">
        <ele>18</ele>
        <time>2015-05-10T09:16:52Z</time>
      </trkpt>
      <trkpt lat="47.31415" lon="-1.59979">
        <ele>17.8</ele>
        <time>2015-05-10T09:16:54Z</time>
      </trkpt>
      <trkpt lat="47.31419" lon="-1.59979">
        <ele>17.5</ele>
        <time>2015-05-10T09:16:56Z</time>
      </trkpt>
      <trkpt lat="47.31423" lon="-1.59981">
        <ele>17.2</ele>
        <time>2015-05-10T09:16:58Z</time>
      </trkpt>
      <trkpt lat="47.31427" lon="-1.59983">
        <ele>17</ele>
        <time>2015-05-10T09:17:00Z</time>
      </trkpt>
      <trkpt lat="47.3143" lon="-1.59984">
        <ele>16.8</ele>
        <time>2015-05-10T09:17:02Z</time>
      </trkpt>
      <trkpt lat="47.31434" lon="-1.59981">
        <ele>16.5</ele>
        <time>2015-05-10T09:17:04Z</time>
      </trkpt>
      <trkpt lat="47.31438" lon="-1.59981">
        <ele>16.3</ele>
        <time>2015-05-10T09:17:06Z</time>
      </trkpt>
      <trkpt lat="47.31441" lon="-1.59983">
        <ele>16.1</ele>
        <time>2015-05-10T09:17:08Z</time>
      </trkpt>
      <trkpt lat="47.31445" lon="-1.59987">
        <ele>15.9</ele>
        <time>2015-05-10T09:17:10Z</time>
      </trkpt>
      <trkpt lat="47.31449" lon="-1.5999">
        <ele>15.6</ele>
        <time>2015-05-10T09:17:12Z</time>
      </trkpt>
      <trkpt lat="47.31451" lon="-1.59993">
        <ele>15.5</ele>
        <time>2015-05-10T09:17:14Z</time>
      </trkpt>
      <trkpt lat="47.31453" lon="-1.59995">
        <ele>15.3</ele>
        <time>2015-05-10T09:17:16Z</time>
      </trkpt>
      <trkpt lat="47.31455" lon="-1.6">
        <ele>15.2</ele>
        <time>2015-05-10T09:17:18Z</time>
      </trkpt>
      <trkpt lat="47.31457" lon="-1.60003">
        <ele>15.1</ele>
        <time>2015-05-10T09:17:21Z</time>
      </trkpt>
      <trkpt lat="47.31457" lon="-1.60009">
        <ele>15.1</ele>
        <time>2015-05-10T09:17:24Z</time>
      </trkpt>
      <trkpt lat="47.31456" lon="-1.60013">
        <ele>15.1</ele>
        <time>2015-05-10T09:17:27Z</time>
      </trkpt>
      <trkpt lat="47.31456" lon="-1.60019">
        <ele>15.2</ele>
        <time>2015-05-10T09:17:29Z</time>
      </trkpt>
      <trkpt lat="47.31455" lon="-1.60024">
        <ele>15.2</ele>
        <time>2015-05-10T09:17:31Z</time>
      </trkpt>
      <trkpt lat="47.31454" lon="-1.6003">
        <ele>15.3</ele>
        <time>2015-05-10T09:17:33Z</time>
      </trkpt>
      <trkpt lat="47.31454" lon="-1.60036">
        <ele>15.3</ele>
        <time>2015-05-10T09:17:35Z</time>
      </trkpt>
      <trkpt lat="47.31454" lon="-1.6004">
        <ele>15.3</ele>
        <time>2015-05-10T09:17:37Z</time>
      </trkpt>
      <trkpt lat="47.31453" lon="-1.60045">
        <ele>15.4</ele>
        <time>2015-05-10T09:17:40Z</time>
      </trkpt>
      <trkpt lat="47.31454" lon="-1.6005">
        <ele>15.5</ele>
        <time>2015-05-10T09:17:43Z</time>
      </trkpt>
      <trkpt lat="47.31455" lon="-1.60054">
        <ele>15.6</ele>
        <time>2015-05-10T09:17:45Z</time>
      </trkpt>
      <trkpt lat="47.31455" lon="-1.6006">
        <ele>15.7</ele>
        <time>2015-05-10T09:17:47Z</time>
      </trkpt>
      <trkpt lat="47.31457" lon="-1.60064">
        <ele>15.7</ele>
        <time>2015-05-10T09:17:49Z</time>
      </trkpt>
      <trkpt lat="47.31458" lon="-1.60069">
        <ele>15.7</ele>
        <time>2015-05-10T09:17:52Z</time>
      </trkpt>
      <trkpt lat="47.31461" lon="-1.60074">
        <ele>16.1</ele>
        <time>2015-05-10T09:17:54Z</time>
      </trkpt>
      <trkpt lat="47.31463" lon="-1.60077">
        <ele>16.4</ele>
        <time>2015-05-10T09:17:55Z</time>
      </trkpt>
      <trkpt lat="47.31465" lon="-1.60081">
        <ele>16.9</ele>
        <time>2015-05-10T09:17:57Z</time>
      </trkpt>
      <trkpt lat="47.31469" lon="-1.60088">
        <ele>17.5</ele>
        <time>2015-05-10T09:17:58Z</time>
      </trkpt>
      <trkpt lat="47.31472" lon="-1.60091">
        <ele>17.9</ele>
        <time>2015-05-10T09:18:00Z</time>
      </trkpt>
      <trkpt lat="47.31475" lon="-1.60095">
        <ele>18.4</ele>
        <time>2015-05-10T09:18:01Z</time>
      </trkpt>
      <trkpt lat="47.31477" lon="-1.60098">
        <ele>18.7</ele>
        <time>2015-05-10T09:18:02Z</time>
      </trkpt>
      <trkpt lat="47.3148" lon="-1.60101">
        <ele>19.2</ele>
        <time>2015-05-10T09:18:03Z</time>
      </trkpt>
      <trkpt lat="47.31483" lon="-1.60104">
        <ele>19.5</ele>
        <time>2015-05-10T09:18:04Z</time>
      </trkpt>
      <trkpt lat="47.31487" lon="-1.60109">
        <ele>20.2</ele>
        <time>2015-05-10T09:18:06Z</time>
      </trkpt>
      <trkpt lat="47.31491" lon="-1.60113">
        <ele>20.8</ele>
        <time>2015-05-10T09:18:07Z</time>
      </trkpt>
      <trkpt lat="47.31495" lon="-1.60116">
        <ele>21.3</ele>
        <time>2015-05-10T09:18:09Z</time>
      </trkpt>
      <trkpt lat="47.31498" lon="-1.60117">
        <ele>21.7</ele>
        <time>2015-05-10T09:18:11Z</time>
      </trkpt>
      <trkpt lat="47.31502" lon="-1.60117">
        <ele>22.2</ele>
        <time>2015-05-10T09:18:13Z</time>
      </trkpt>
      <trkpt lat="47.31506" lon="-1.60116">
        <ele>22.6</ele>
        <time>2015-05-10T09:18:16Z</time>
      </trkpt>
      <trkpt lat="47.31508" lon="-1.60113">
        <ele>22.8</ele>
        <time>2015-05-10T09:18:18Z</time>
      </trkpt>
      <trkpt lat="47.31511" lon="-1.60111">
        <ele>23.1</ele>
        <time>2015-05-10T09:18:20Z</time>
      </trkpt>
      <trkpt lat="47.31513" lon="-1.60108">
        <ele>23.5</ele>
        <time>2015-05-10T09:18:22Z</time>
      </trkpt>
      <trkpt lat="47.31516" lon="-1.60104">
        <ele>23.7</ele>
        <time>2015-05-10T09:18:24Z</time>
      </trkpt>
      <trkpt lat="47.31517" lon="-1.601">
        <ele>23.9</ele>
        <time>2015-05-10T09:18:26Z</time>
      </trkpt>
      <trkpt lat="47.31518" lon="-1.60095">
        <ele>24</ele>
        <time>2015-05-10T09:18:29Z</time>
      </trkpt>
      <trkpt lat="47.31519" lon="-1.60091">
        <ele>24</ele>
        <time>2015-05-10T09:18:31Z</time>
      </trkpt>
      <trkpt lat="47.3152" lon="-1.60085">
        <ele>24.1</ele>
        <time>2015-05-10T09:18:34Z</time>
      </trkpt>
      <trkpt lat="47.3152" lon="-1.60077">
        <ele>24.1</ele>
        <time>2015-05-10T09:18:36Z</time>
      </trkpt>
      <trkpt lat="47.3152" lon="-1.60071">
        <ele>24.1</ele>
        <time>2015-05-10T09:18:38Z</time>
      </trkpt>
      <trkpt lat="47.3152" lon="-1.60064">
        <ele>24</ele>
        <time>2015-05-10T09:18:40Z</time>
      </trkpt>
      <trkpt lat="47.3152" lon="-1.60057">
        <ele>23.9</ele>
        <time>2015-05-10T09:18:42Z</time>
      </trkpt>
      <trkpt lat="47.31519" lon="-1.60052">
        <ele>23.8</ele>
        <time>2015-05-10T09:18:44Z</time>
      </trkpt>
      <trkpt lat="47.31518" lon="-1.60046">
        <ele>23.6</ele>
        <time>2015-05-10T09:18:46Z</time>
      </trkpt>
      <trkpt lat="47.31516" lon="-1.60039">
        <ele>23.3</ele>
        <time>2015-05-10T09:18:48Z</time>
      </trkpt>
      <trkpt lat="47.31515" lon="-1.60032">
        <ele>23</ele>
        <time>2015-05-10T09:18:50Z</time>
      </trkpt>
      <trkpt lat="47.31514" lon="-1.60026">
        <ele>22.9</ele>
        <time>2015-05-10T09:18:52Z</time>
      </trkpt>
      <trkpt lat="47.31515" lon="-1.60021">
        <ele>22.9</ele>
        <time>2015-05-10T09:18:53Z</time>
      </trkpt>
      <trkpt lat="47.31513" lon="-1.60017">
        <ele>22.7</ele>
        <time>2015-05-10T09:18:54Z</time>
      </trkpt>
      <trkpt lat="47.31513" lon="-1.6001">
        <ele>22.6</ele>
        <time>2015-05-10T09:18:56Z</time>
      </trkpt>
      <trkpt lat="47.31512" lon="-1.60005">
        <ele>22.4</ele>
        <time>2015-05-10T09:18:58Z</time>
      </trkpt>
      <trkpt lat="47.31512" lon="-1.59999">
        <ele>22.4</ele>
        <time>2015-05-10T09:19:00Z</time>
      </trkpt>
      <trkpt lat="47.31511" lon="-1.59994">
        <ele>22.3</ele>
        <time>2015-05-10T09:19:02Z</time>
      </trkpt>
      <trkpt lat="47.3151" lon="-1.59989">
        <ele>22.1</ele>
        <time>2015-05-10T09:19:04Z</time>
      </trkpt>
      <trkpt lat="47.3151" lon="-1.59984">
        <ele>22</ele>
        <time>2015-05-10T09:19:06Z</time>
      </trkpt>
      <trkpt lat="47.31508" lon="-1.59979">
        <ele>21.7</ele>
        <time>2015-05-10T09:19:08Z</time>
      </trkpt>
      <trkpt lat="47.31507" lon="-1.59974">
        <ele>21.6</ele>
        <time>2015-05-10T09:19:10Z</time>
      </trkpt>
      <trkpt lat="47.31508" lon="-1.5997">
        <ele>21.6</ele>
        <time>2015-05-10T09:19:12Z</time>
      </trkpt>
      <trkpt lat="47.31509" lon="-1.59965">
        <ele>21.7</ele>
        <time>2015-05-10T09:19:14Z</time>
      </trkpt>
      <trkpt lat="47.31509" lon="-1.5996">
        <ele>21.7</ele>
        <time>2015-05-10T09:19:16Z</time>
      </trkpt>
      <trkpt lat="47.31509" lon="-1.59956">
        <ele>21.6</ele>
        <time>2015-05-10T09:19:18Z</time>
      </trkpt>
      <trkpt lat="47.31509" lon="-1.59952">
        <ele>21.6</ele>
        <time>2015-05-10T09:19:20Z</time>
      </trkpt>
      <trkpt lat="47.31509" lon="-1.59946">
        <ele>21.6</ele>
        <time>2015-05-10T09:19:23Z</time>
      </trkpt>
      <trkpt lat="47.3151" lon="-1.59942">
        <ele>21.8</ele>
        <time>2015-05-10T09:19:25Z</time>
      </trkpt>
      <trkpt lat="47.31509" lon="-1.59938">
        <ele>21.6</ele>
        <time>2015-05-10T09:19:28Z</time>
      </trkpt>
      <trkpt lat="47.3151" lon="-1.59933">
        <ele>21.7</ele>
        <time>2015-05-10T09:19:30Z</time>
      </trkpt>
      <trkpt lat="47.3151" lon="-1.59929">
        <ele>21.7</ele>
        <time>2015-05-10T09:19:32Z</time>
      </trkpt>
      <trkpt lat="47.31511" lon="-1.59925">
        <ele>21.9</ele>
        <time>2015-05-10T09:19:34Z</time>
      </trkpt>
      <trkpt lat="47.31512" lon="-1.59921">
        <ele>21.9</ele>
        <time>2015-05-10T09:19:37Z</time>
      </trkpt>
      <trkpt lat="47.31512" lon="-1.59916">
        <ele>22</ele>
        <time>2015-05-10T09:19:39Z</time>
      </trkpt>
      <trkpt lat="47.31513" lon="-1.59911">
        <ele>22.1</ele>
        <time>2015-05-10T09:19:42Z</time>
      </trkpt>
      <trkpt lat="47.31514" lon="-1.59906">
        <ele>22.2</ele>
        <time>2015-05-10T09:19:44Z</time>
      </trkpt>
      <trkpt lat="47.31516" lon="-1.59901">
        <ele>22.4</ele>
        <time>2015-05-10T09:19:46Z</time>
      </trkpt>
      <trkpt lat="47.31518" lon="-1.59894">
        <ele>22.5</ele>
        <time>2015-05-10T09:19:48Z</time>
      </trkpt>
      <trkpt lat="47.31519" lon="-1.59888">
        <ele>22.6</ele>
        <time>2015-05-10T09:19:50Z</time>
      </trkpt>
      <trkpt lat="47.31521" lon="-1.59883">
        <ele>22.8</ele>
        <time>2015-05-10T09:19:52Z</time>
      </trkpt>
      <trkpt lat="47.31522" lon="-1.59878">
        <ele>22.9</ele>
        <time>2015-05-10T09:19:54Z</time>
      </trkpt>
      <trkpt lat="47.31524" lon="-1.59873">
        <ele>23</ele>
        <time>2015-05-10T09:19:56Z</time>
      </trkpt>
      <trkpt lat="47.31526" lon="-1.59867">
        <ele>23.2</ele>
        <time>2015-05-10T09:19:58Z</time>
      </trkpt>
      <trkpt lat="47.31527" lon="-1.59863">
        <ele>23.3</ele>
        <time>2015-05-10T09:20:00Z</time>
      </trkpt>
      <trkpt lat="47.3153" lon="-1.59859">
        <ele>23.5</ele>
        <time>2015-05-10T09:20:02Z</time>
      </trkpt>
      <trkpt lat="47.31532" lon="-1.59856">
        <ele>23.7</ele>
        <time>2015-05-10T09:20:04Z</time>
      </trkpt>
      <trkpt lat="47.31534" lon="-1.59852">
        <ele>23.9</ele>
        <time>2015-05-10T09:20:06Z</time>
      </trkpt>
      <trkpt lat="47.31536" lon="-1.59848">
        <ele>24.1</ele>
        <time>2015-05-10T09:20:08Z</time>
      </trkpt>
      <trkpt lat="47.31539" lon="-1.59845">
        <ele>24.3</ele>
        <time>2015-05-10T09:20:10Z</time>
      </trkpt>
      <trkpt lat="47.31541" lon="-1.59842">
        <ele>24.6</ele>
        <time>2015-05-10T09:20:12Z</time>
      </trkpt>
      <trkpt lat="47.31544" lon="-1.5984">
        <ele>24.9</ele>
        <time>2015-05-10T09:20:14Z</time>
      </trkpt>
      <trkpt lat="47.31547" lon="-1.59839">
        <ele>25.2</ele>
        <time>2015-05-10T09:20:16Z</time>
      </trkpt>
      <trkpt lat="47.3155" lon="-1.59837">
        <ele>25.6</ele>
        <time>2015-05-10T09:20:18Z</time>
      </trkpt>
      <trkpt lat="47.31553" lon="-1.59836">
        <ele>26.1</ele>
        <time>2015-05-10T09:20:20Z</time>
      </trkpt>
      <trkpt lat="47.31557" lon="-1.59835">
        <ele>26.5</ele>
        <time>2015-05-10T09:20:22Z</time>
      </trkpt>
      <trkpt lat="47.31561" lon="-1.59833">
        <ele>27</ele>
        <time>2015-05-10T09:20:24Z</time>
      </trkpt>
      <trkpt lat="47.31565" lon="-1.59831">
        <ele>27.5</ele>
        <time>2015-05-10T09:20:26Z</time>
      </trkpt>
      <trkpt lat="47.31568" lon="-1.59831">
        <ele>27.9</ele>
        <time>2015-05-10T09:20:28Z</time>
      </trkpt>
      <trkpt lat="47.31572" lon="-1.59833">
        <ele>28.4</ele>
        <time>2015-05-10T09:20:31Z</time>
      </trkpt>
      <trkpt lat="47.31575" lon="-1.59835">
        <ele>28.8</ele>
        <time>2015-05-10T09:20:33Z</time>
      </trkpt>
      <trkpt lat="47.31578" lon="-1.59836">
        <ele>29.3</ele>
        <time>2015-05-10T09:20:35Z</time>
      </trkpt>
      <trkpt lat="47.3158" lon="-1.59838">
        <ele>29.6</ele>
        <time>2015-05-10T09:20:37Z</time>
      </trkpt>
      <trkpt lat="47.31582" lon="-1.59842">
        <ele>29.9</ele>
        <time>2015-05-10T09:20:39Z</time>
      </trkpt>
      <trkpt lat="47.31584" lon="-1.59846">
        <ele>30.2</ele>
        <time>2015-05-10T09:20:41Z</time>
      </trkpt>
      <trkpt lat="47.31585" lon="-1.59851">
        <ele>30.5</ele>
        <time>2015-05-10T09:20:43Z</time>
      </trkpt>
      <trkpt lat="47.31587" lon="-1.59856">
        <ele>30.7</ele>
        <time>2015-05-10T09:20:45Z</time>
      </trkpt>
      <trkpt lat="47.31588" lon="-1.59861">
        <ele>31</ele>
        <time>2015-05-10T09:20:47Z</time>
      </trkpt>
      <trkpt lat="47.3159" lon="-1.59866">
        <ele>31.2</ele>
        <time>2015-05-10T09:20:49Z</time>
      </trkpt>
      <trkpt lat="47.31591" lon="-1.59872">
        <ele>31.4</ele>
        <time>2015-05-10T09:20:51Z</time>
      </trkpt>
      <trkpt lat="47.31591" lon="-1.59877">
        <ele>31.5</ele>
        <time>2015-05-10T09:20:53Z</time>
      </trkpt>
      <trkpt lat="47.31591" lon="-1.59882">
        <ele>31.5</ele>
        <time>2015-05-10T09:20:56Z</time>
      </trkpt>
      <trkpt lat="47.31591" lon="-1.59889">
        <ele>31.6</ele>
        <time>2015-05-10T09:20:59Z</time>
      </trkpt>
      <trkpt lat="47.31592" lon="-1.59893">
        <ele>31.7</ele>
        <time>2015-05-10T09:21:01Z</time>
      </trkpt>
      <trkpt lat="47.31592" lon="-1.59897">
        <ele>31.7</ele>
        <time>2015-05-10T09:21:03Z</time>
      </trkpt>
      <trkpt lat="47.31592" lon="-1.59902">
        <ele>31.8</ele>
        <time>2015-05-10T09:21:05Z</time>
      </trkpt>
      <trkpt lat="47.31593" lon="-1.59907">
        <ele>31.9</ele>
        <time>2015-05-10T09:21:07Z</time>
      </trkpt>
      <trkpt lat="47.31594" lon="-1.59912">
        <ele>32.1</ele>
        <time>2015-05-10T09:21:09Z</time>
      </trkpt>
      <trkpt lat="47.31595" lon="-1.59918">
        <ele>32.2</ele>
        <time>2015-05-10T09:21:11Z</time>
      </trkpt>
      <trkpt lat="47.31595" lon="-1.59923">
        <ele>32.3</ele>
        <time>2015-05-10T09:21:13Z</time>
      </trkpt>
      <trkpt lat="47.31596" lon="-1.59928">
        <ele>32.4</ele>
        <time>2015-05-10T09:21:15Z</time>
      </trkpt>
      <trkpt lat="47.31597" lon="-1.59934">
        <ele>32.6</ele>
        <time>2015-05-10T09:21:17Z</time>
      </trkpt>
      <trkpt lat="47.31598" lon="-1.59938">
        <ele>32.7</ele>
        <time>2015-05-10T09:21:19Z</time>
      </trkpt>
      <trkpt lat="47.31599" lon="-1.59943">
        <ele>32.8</ele>
        <time>2015-05-10T09:21:21Z</time>
      </trkpt>
      <trkpt lat="47.316" lon="-1.59947">
        <ele>33</ele>
        <time>2015-05-10T09:21:23Z</time>
      </trkpt>
      <trkpt lat="47.31601" lon="-1.59952">
        <ele>33.1</ele>
        <time>2015-05-10T09:21:25Z</time>
      </trkpt>
      <trkpt lat="47.31601" lon="-1.59957">
        <ele>33.1</ele>
        <time>2015-05-10T09:21:27Z</time>
      </trkpt>
      <trkpt lat="47.31601" lon="-1.59962">
        <ele>33.2</ele>
        <time>2015-05-10T09:21:28Z</time>
      </trkpt>
      <trkpt lat="47.31602" lon="-1.59967">
        <ele>33.4</ele>
        <time>2015-05-10T09:21:30Z</time>
      </trkpt>
      <trkpt lat="47.31603" lon="-1.59971">
        <ele>33.5</ele>
        <time>2015-05-10T09:21:32Z</time>
      </trkpt>
      <trkpt lat="47.31604" lon="-1.59978">
        <ele>33.7</ele>
        <time>2015-05-10T09:21:34Z</time>
      </trkpt>
      <trkpt lat="47.31606" lon="-1.59984">
        <ele>34</ele>
        <time>2015-05-10T09:21:36Z</time>
      </trkpt>
      <trkpt lat="47.31607" lon="-1.59988">
        <ele>34.2</ele>
        <time>2015-05-10T09:21:37Z</time>
      </trkpt>
      <trkpt lat="47.31609" lon="-1.59994">
        <ele>34.5</ele>
        <time>2015-05-10T09:21:39Z</time>
      </trkpt>
      <trkpt lat="47.31611" lon="-1.6">
        <ele>34.9</ele>
        <time>2015-05-10T09:21:41Z</time>
      </trkpt>
      <trkpt lat="47.31613" lon="-1.60004">
        <ele>35.1</ele>
        <time>2015-05-10T09:21:42Z</time>
      </trkpt>
      <trkpt lat="47.31615" lon="-1.60007">
        <ele>35.4</ele>
        <time>2015-05-10T09:21:43Z</time>
      </trkpt>
      <trkpt lat="47.31617" lon="-1.60011">
        <ele>35.7</ele>
        <time>2015-05-10T09:21:44Z</time>
      </trkpt>
      <trkpt lat="47.31621" lon="-1.60017">
        <ele>36.2</ele>
        <time>2015-05-10T09:21:46Z</time>
      </trkpt>
      <trkpt lat="47.31625" lon="-1.60022">
        <ele>36.7</ele>
        <time>2015-05-10T09:21:48Z</time>
      </trkpt>
      <trkpt lat="47.31629" lon="-1.60026">
        <ele>37</ele>
        <time>2015-05-10T09:21:50Z</time>
      </trkpt>
      <trkpt lat="47.31633" lon="-1.60029">
        <ele>37.2</ele>
        <time>2015-05-10T09:21:52Z</time>
      </trkpt>
      <trkpt lat="47.31636" lon="-1.60031">
        <ele>37.4</ele>
        <time>2015-05-10T09:21:54Z</time>
      </trkpt>
      <trkpt lat="47.31639" lon="-1.60034">
        <ele>37.6</ele>
        <time>2015-05-10T09:21:55Z</time>
      </trkpt>
      <trkpt lat="47.31641" lon="-1.60035">
        <ele>37.7</ele>
        <time>2015-05-10T09:21:56Z</time>
      </trkpt>
      <trkpt lat="47.31646" lon="-1.60039">
        <ele>38</ele>
        <time>2015-05-10T09:21:58Z</time>
      </trkpt>
      <trkpt lat="47.31649" lon="-1.60041">
        <ele>38.2</ele>
        <time>2015-05-10T09:21:59Z</time>
      </trkpt>
      <trkpt lat="47.31654" lon="-1.60044">
        <ele>38.4</ele>
        <time>2015-05-10T09:22:01Z</time>
      </trkpt>
      <trkpt lat="47.31659" lon="-1.60046">
        <ele>38.6</ele>
        <time>2015-05-10T09:22:03Z</time>
      </trkpt>
      <trkpt lat="47.31664" lon="-1.60046">
        <ele>38.9</ele>
        <time>2015-05-10T09:22:05Z</time>
      </trkpt>
      <trkpt lat="47.31668" lon="-1.60045">
        <ele>39.1</ele>
        <time>2015-05-10T09:22:07Z</time>
      </trkpt>
      <trkpt lat="47.31671" lon="-1.60044">
        <ele>39.2</ele>
        <time>2015-05-10T09:22:08Z</time>
      </trkpt>
      <trkpt lat="47.31676" lon="-1.60043">
        <ele>39.4</ele>
        <time>2015-05-10T09:22:10Z</time>
      </trkpt>
      <trkpt lat="47.31681" lon="-1.6004">
        <ele>39.7</ele>
        <time>2015-05-10T09:22:12Z</time>
      </trkpt>
      <trkpt lat="47.31685" lon="-1.60039">
        <ele>39.9</ele>
        <time>2015-05-10T09:22:14Z</time>
      </trkpt>
      <trkpt lat="47.3169" lon="-1.60037">
        <ele>40.1</ele>
        <time>2015-05-10T09:22:16Z</time>
      </trkpt>
      <trkpt lat="47.31694" lon="-1.60035">
        <ele>40.2</ele>
        <time>2015-05-10T09:22:18Z</time>
      </trkpt>
      <trkpt lat="47.31698" lon="-1.60034">
        <ele>40.4</ele>
        <time>2015-05-10T09:22:20Z</time>
      </trkpt>
      <trkpt lat="47.31703" lon="-1.60031">
        <ele>40.6</ele>
        <time>2015-05-10T09:22:22Z</time>
      </trkpt>
      <trkpt lat="47.31707" lon="-1.6003">
        <ele>40.8</ele>
        <time>2015-05-10T09:22:24Z</time>
      </trkpt>
      <trkpt lat="47.31711" lon="-1.60028">
        <ele>41</ele>
        <time>2015-05-10T09:22:26Z</time>
      </trkpt>
      <trkpt lat="47.31716" lon="-1.60026">
        <ele>41.4</ele>
        <time>2015-05-10T09:22:28Z</time>
      </trkpt>
      <trkpt lat="47.31718" lon="-1.60024">
        <ele>41.5</ele>
        <time>2015-05-10T09:22:29Z</time>
      </trkpt>
      <trkpt lat="47.31721" lon="-1.60022">
        <ele>41.7</ele>
        <time>2015-05-10T09:22:30Z</time>
      </trkpt>
      <trkpt lat="47.31724" lon="-1.6002">
        <ele>41.9</ele>
        <time>2015-05-10T09:22:31Z</time>
      </trkpt>
      <trkpt lat="47.31726" lon="-1.60018">
        <ele>42</ele>
        <time>2015-05-10T09:22:32Z</time>
      </trkpt>
      <trkpt lat="47.31729" lon="-1.60016">
        <ele>42.2</ele>
        <time>2015-05-10T09:22:33Z</time>
      </trkpt>
      <trkpt lat="47.31732" lon="-1.60015">
        <ele>42.4</ele>
        <time>2015-05-10T09:22:34Z</time>
      </trkpt>
      <trkpt lat="47.31736" lon="-1.60012">
        <ele>42.8</ele>
        <time>2015-05-10T09:22:36Z</time>
      </trkpt>
      <trkpt lat="47.31739" lon="-1.6001">
        <ele>43</ele>
        <time>2015-05-10T09:22:37Z</time>
      </trkpt>
      <trkpt lat="47.31742" lon="-1.60008">
        <ele>43.1</ele>
        <time>2015-05-10T09:22:38Z</time>
      </trkpt>
      <trkpt lat="47.31744" lon="-1.60006">
        <ele>43.3</ele>
        <time>2015-05-10T09:22:39Z</time>
      </trkpt>
      <trkpt lat="47.31746" lon="-1.60004">
        <ele>43.5</ele>
        <time>2015-05-10T09:22:40Z</time>
      </trkpt>
      <trkpt lat="47.31749" lon="-1.60003">
        <ele>43.7</ele>
        <time>2015-05-10T09:22:41Z</time>
      </trkpt>
      <trkpt lat="47.31752" lon="-1.60001">
        <ele>43.9</ele>
        <time>2015-05-10T09:22:42Z</time>
      </trkpt>
      <trkpt lat="47.31754" lon="-1.59999">
        <ele>44.1</ele>
        <time>2015-05-10T09:22:43Z</time>
      </trkpt>
      <trkpt lat="47.31757" lon="-1.59998">
        <ele>44.3</ele>
        <time>2015-05-10T09:22:44Z</time>
      </trkpt>
      <trkpt lat="47.3176" lon="-1.59996">
        <ele>44.5</ele>
        <time>2015-05-10T09:22:45Z</time>
      </trkpt>
      <trkpt lat="47.31763" lon="-1.59994">
        <ele>44.7</ele>
        <time>2015-05-10T09:22:46Z</time>
      </trkpt>
      <trkpt lat="47.31765" lon="-1.59992">
        <ele>44.9</ele>
        <time>2015-05-10T09:22:47Z</time>
      </trkpt>
      <trkpt lat="47.31768" lon="-1.59991">
        <ele>45.1</ele>
        <time>2015-05-10T09:22:48Z</time>
      </trkpt>
      <trkpt lat="47.31771" lon="-1.5999">
        <ele>45.3</ele>
        <time>2015-05-10T09:22:49Z</time>
      </trkpt>
      <trkpt lat="47.31774" lon="-1.59988">
        <ele>45.6</ele>
        <time>2015-05-10T09:22:50Z</time>
      </trkpt>
      <trkpt lat="47.31779" lon="-1.59986">
        <ele>46</ele>
        <time>2015-05-10T09:22:52Z</time>
      </trkpt>
      <trkpt lat="47.31781" lon="-1.59984">
        <ele>46.2</ele>
        <time>2015-05-10T09:22:53Z</time>
      </trkpt>
      <trkpt lat="47.31786" lon="-1.59981">
        <ele>46.5</ele>
        <time>2015-05-10T09:22:55Z</time>
      </trkpt>
      <trkpt lat="47.31789" lon="-1.59979">
        <ele>46.7</ele>
        <time>2015-05-10T09:22:56Z</time>
      </trkpt>
      <trkpt lat="47.31791" lon="-1.59977">
        <ele>46.9</ele>
        <time>2015-05-10T09:22:57Z</time>
      </trkpt>
      <trkpt lat="47.31794" lon="-1.59975">
        <ele>47</ele>
        <time>2015-05-10T09:22:58Z</time>
      </trkpt>
      <trkpt lat="47.31797" lon="-1.59973">
        <ele>46.9</ele>
        <time>2015-05-10T09:22:59Z</time>
      </trkpt>
      <trkpt lat="47.31799" lon="-1.59972">
        <ele>46.9</ele>
        <time>2015-05-10T09:23:00Z</time>
      </trkpt>
      <trkpt lat="47.31801" lon="-1.5997">
        <ele>46.9</ele>
        <time>2015-05-10T09:23:01Z</time>
      </trkpt>
      <trkpt lat="47.31804" lon="-1.59968">
        <ele>46.8</ele>
        <time>2015-05-10T09:23:02Z</time>
      </trkpt>
      <trkpt lat="47.31808" lon="-1.59967">
        <ele>46.7</ele>
        <time>2015-05-10T09:23:03Z</time>
      </trkpt>
      <trkpt lat="47.31811" lon="-1.59965">
        <ele>46.7</ele>
        <time>2015-05-10T09:23:04Z</time>
      </trkpt>
      <trkpt lat="47.31814" lon="-1.59964">
        <ele>46.6</ele>
        <time>2015-05-10T09:23:05Z</time>
      </trkpt>
      <trkpt lat="47.31816" lon="-1.59962">
        <ele>46.5</ele>
        <time>2015-05-10T09:23:06Z</time>
      </trkpt>
      <trkpt lat="47.31819" lon="-1.59961">
        <ele>46.4</ele>
        <time>2015-05-10T09:23:07Z</time>
      </trkpt>
      <trkpt lat="47.31822" lon="-1.5996">
        <ele>46.3</ele>
        <time>2015-05-10T09:23:08Z</time>
      </trkpt>
      <trkpt lat="47.31827" lon="-1.59957">
        <ele>46</ele>
        <time>2015-05-10T09:23:10Z</time>
      </trkpt>
      <trkpt lat="47.3183" lon="-1.59955">
        <ele>45.9</ele>
        <time>2015-05-10T09:23:11Z</time>
      </trkpt>
      <trkpt lat="47.31833" lon="-1.59954">
        <ele>45.7</ele>
        <time>2015-05-10T09:23:12Z</time>
      </trkpt>
      <trkpt lat="47.31836" lon="-1.59954">
        <ele>45.6</ele>
        <time>2015-05-10T09:23:13Z</time>
      </trkpt>
      <trkpt lat="47.31839" lon="-1.59955">
        <ele>45.7</ele>
        <time>2015-05-10T09:23:14Z</time>
      </trkpt>
      <trkpt lat="47.31842" lon="-1.5996">
        <ele>45.9</ele>
        <time>2015-05-10T09:23:16Z</time>
      </trkpt>
      <trkpt lat="47.31843" lon="-1.59963">
        <ele>46</ele>
        <time>2015-05-10T09:23:17Z</time>
      </trkpt>
      <trkpt lat="47.31845" lon="-1.5997">
        <ele>46.3</ele>
        <time>2015-05-10T09:23:19Z</time>
      </trkpt>
      <trkpt lat="47.31845" lon="-1.59977">
        <ele>46.6</ele>
        <time>2015-05-10T09:23:21Z</time>
      </trkpt>
      <trkpt lat="47.31846" lon="-1.59985">
        <ele>46.9</ele>
        <time>2015-05-10T09:23:23Z</time>
      </trkpt>
      <trkpt lat="47.31847" lon="-1.59989">
        <ele>47.1</ele>
        <time>2015-05-10T09:23:24Z</time>
      </trkpt>
      <trkpt lat="47.31848" lon="-1.59992">
        <ele>47.3</ele>
        <time>2015-05-10T09:23:25Z</time>
      </trkpt>
      <trkpt lat="47.31849" lon="-1.59996">
        <ele>47.5</ele>
        <time>2015-05-10T09:23:26Z</time>
      </trkpt>
      <trkpt lat="47.3185" lon="-1.6">
        <ele>47.7</ele>
        <time>2015-05-10T09:23:27Z</time>
      </trkpt>
      <trkpt lat="47.31852" lon="-1.60003">
        <ele>47.9</ele>
        <time>2015-05-10T09:23:28Z</time>
      </trkpt>
      <trkpt lat="47.31852" lon="-1.60007">
        <ele>48.1</ele>
        <time>2015-05-10T09:23:29Z</time>
      </trkpt>
      <trkpt lat="47.31854" lon="-1.60014">
        <ele>48.5</ele>
        <time>2015-05-10T09:23:31Z</time>
      </trkpt>
      <trkpt lat="47.31855" lon="-1.60018">
        <ele>48.7</ele>
        <time>2015-05-10T09:23:32Z</time>
      </trkpt>
      <trkpt lat="47.31857" lon="-1.60024">
        <ele>49.1</ele>
        <time>2015-05-10T09:23:34Z</time>
      </trkpt>
      <trkpt lat="47.31858" lon="-1.60031">
        <ele>49.6</ele>
        <time>2015-05-10T09:23:36Z</time>
      </trkpt>
      <trkpt lat="47.3186" lon="-1.60038">
        <ele>50.1</ele>
        <time>2015-05-10T09:23:38Z</time>
      </trkpt>
      <trkpt lat="47.31861" lon="-1.60045">
        <ele>50.5</ele>
        <time>2015-05-10T09:23:40Z</time>
      </trkpt>
      <trkpt lat="47.31863" lon="-1.60051">
        <ele>50.7</ele>
        <time>2015-05-10T09:23:42Z</time>
      </trkpt>
      <trkpt lat="47.31864" lon="-1.60057">
        <ele>51</ele>
        <time>2015-05-10T09:23:44Z</time>
      </trkpt>
      <trkpt lat="47.31865" lon="-1.60065">
        <ele>51.4</ele>
        <time>2015-05-10T09:23:46Z</time>
      </trkpt>
      <trkpt lat="47.31867" lon="-1.60071">
        <ele>51.7</ele>
        <time>2015-05-10T09:23:48Z</time>
      </trkpt>
      <trkpt lat="47.31868" lon="-1.60077">
        <ele>51.9</ele>
        <time>2015-05-10T09:23:50Z</time>
      </trkpt>
      <trkpt lat="47.31869" lon="-1.60084">
        <ele>52.2</ele>
        <time>2015-05-10T09:23:52Z</time>
      </trkpt>
      <trkpt lat="47.3187" lon="-1.60091">
        <ele>52.5</ele>
        <time>2015-05-10T09:23:54Z</time>
      </trkpt>
      <trkpt lat="47.31871" lon="-1.60095">
        <ele>52.7</ele>
        <time>2015-05-10T09:23:55Z</time>
      </trkpt>
      <trkpt lat="47.31872" lon="-1.60101">
        <ele>53</ele>
        <time>2015-05-10T09:23:57Z</time>
      </trkpt>
      <trkpt lat="47.31873" lon="-1.60107">
        <ele>53.3</ele>
        <time>2015-05-10T09:23:59Z</time>
      </trkpt>
      <trkpt lat="47.31874" lon="-1.60114">
        <ele>53.6</ele>
        <time>2015-05-10T09:24:01Z</time>
      </trkpt>
      <trkpt lat="47.31875" lon="-1.60122">
        <ele>53.9</ele>
        <time>2015-05-10T09:24:03Z</time>
      </trkpt>
      <trkpt lat="47.31876" lon="-1.60126">
        <ele>53.9</ele>
        <time>2015-05-10T09:24:04Z</time>
      </trkpt>
      <trkpt lat="47.31876" lon="-1.6013">
        <ele>53.7</ele>
        <time>2015-05-10T09:24:05Z</time>
      </trkpt>
      <trkpt lat="47.31877" lon="-1.60137">
        <ele>53.3</ele>
        <time>2015-05-10T09:24:07Z</time>
      </trkpt>
      <trkpt lat="47.31878" lon="-1.60144">
        <ele>52.9</ele>
        <time>2015-05-10T09:24:09Z</time>
      </trkpt>
      <trkpt lat="47.31878" lon="-1.6015">
        <ele>52.6</ele>
        <time>2015-05-10T09:24:11Z</time>
      </trkpt>
      <trkpt lat="47.31878" lon="-1.60158">
        <ele>52.2</ele>
        <time>2015-05-10T09:24:13Z</time>
      </trkpt>
      <trkpt lat="47.31879" lon="-1.60162">
        <ele>52</ele>
        <time>2015-05-10T09:24:14Z</time>
      </trkpt>
      <trkpt lat="47.3188" lon="-1.60171">
        <ele>51.5</ele>
        <time>2015-05-10T09:24:16Z</time>
      </trkpt>
      <trkpt lat="47.31881" lon="-1.60181">
        <ele>51</ele>
        <time>2015-05-10T09:24:18Z</time>
      </trkpt>
      <trkpt lat="47.31882" lon="-1.60186">
        <ele>50.8</ele>
        <time>2015-05-10T09:24:19Z</time>
      </trkpt>
      <trkpt lat="47.31883" lon="-1.60193">
        <ele>50.4</ele>
        <time>2015-05-10T09:24:21Z</time>
      </trkpt>
      <trkpt lat="47.31883" lon="-1.602">
        <ele>50.1</ele>
        <time>2015-05-10T09:24:23Z</time>
      </trkpt>
      <trkpt lat="47.31883" lon="-1.60204">
        <ele>49.9</ele>
        <time>2015-05-10T09:24:25Z</time>
      </trkpt>
      <trkpt lat="47.31882" lon="-1.60209">
        <ele>49.8</ele>
        <time>2015-05-10T09:24:27Z</time>
      </trkpt>
      <trkpt lat="47.3188" lon="-1.60214">
        <ele>50</ele>
        <time>2015-05-10T09:24:29Z</time>
      </trkpt>
      <trkpt lat="47.31877" lon="-1.60218">
        <ele>50.1</ele>
        <time>2015-05-10T09:24:31Z</time>
      </trkpt>
      <trkpt lat="47.31876" lon="-1.60222">
        <ele>50.3</ele>
        <time>2015-05-10T09:24:32Z</time>
      </trkpt>
      <trkpt lat="47.31876" lon="-1.60227">
        <ele>50.4</ele>
        <time>2015-05-10T09:24:33Z</time>
      </trkpt>
      <trkpt lat="47.31877" lon="-1.60236">
        <ele>50.6</ele>
        <time>2015-05-10T09:24:34Z</time>
      </trkpt>
      <trkpt lat="47.31877" lon="-1.60243">
        <ele>50.7</ele>
        <time>2015-05-10T09:24:35Z</time>
      </trkpt>
      <trkpt lat="47.31877" lon="-1.60251">
        <ele>50.9</ele>
        <time>2015-05-10T09:24:36Z</time>
      </trkpt>
      <trkpt lat="47.31877" lon="-1.60259">
        <ele>51.1</ele>
        <time>2015-05-10T09:24:37Z</time>
      </trkpt>
      <trkpt lat="47.31877" lon="-1.60267">
        <ele>51.3</ele>
        <time>2015-05-10T09:24:38Z</time>
      </trkpt>
      <trkpt lat="47.31876" lon="-1.60273">
        <ele>51.5</ele>
        <time>2015-05-10T09:24:39Z</time>
      </trkpt>
      <trkpt lat="47.31876" lon="-1.60281">
        <ele>51.7</ele>
        <time>2015-05-10T09:24:40Z</time>
      </trkpt>
      <trkpt lat="47.31875" lon="-1.60289">
        <ele>51.9</ele>
        <time>2015-05-10T09:24:41Z</time>
      </trkpt>
      <trkpt lat="47.31874" lon="-1.60296">
        <ele>51.6</ele>
        <time>2015-05-10T09:24:42Z</time>
      </trkpt>
      <trkpt lat="47.31873" lon="-1.60302">
        <ele>51.1</ele>
        <time>2015-05-10T09:24:43Z</time>
      </trkpt>
      <trkpt lat="47.31871" lon="-1.60308">
        <ele>50.5</ele>
        <time>2015-05-10T09:24:44Z</time>
      </trkpt>
      <trkpt lat="47.31869" lon="-1.60314">
        <ele>49.9</ele>
        <time>2015-05-10T09:24:45Z</time>
      </trkpt>
      <trkpt lat="47.31866" lon="-1.60318">
        <ele>49.5</ele>
        <time>2015-05-10T09:24:46Z</time>
      </trkpt>
      <trkpt lat="47.31863" lon="-1.60322">
        <ele>49</ele>
        <time>2015-05-10T09:24:47Z</time>
      </trkpt>
      <trkpt lat="47.31861" lon="-1.60325">
        <ele>48.6</ele>
        <time>2015-05-10T09:24:48Z</time>
      </trkpt>
      <trkpt lat="47.31858" lon="-1.60329">
        <ele>48.1</ele>
        <time>2015-05-10T09:24:49Z</time>
      </trkpt>
      <trkpt lat="47.31856" lon="-1.60332">
        <ele>47.7</ele>
        <time>2015-05-10T09:24:50Z</time>
      </trkpt>
      <trkpt lat="47.31855" lon="-1.60337">
        <ele>47.3</ele>
        <time>2015-05-10T09:24:51Z</time>
      </trkpt>
      <trkpt lat="47.31855" lon="-1.60341">
        <ele>47</ele>
        <time>2015-05-10T09:24:52Z</time>
      </trkpt>
      <trkpt lat="47.31858" lon="-1.60348">
        <ele>46.7</ele>
        <time>2015-05-10T09:24:53Z</time>
      </trkpt>
      <trkpt lat="47.3186" lon="-1.60353">
        <ele>46.5</ele>
        <time>2015-05-10T09:24:54Z</time>
      </trkpt>
      <trkpt lat="47.31862" lon="-1.60359">
        <ele>46.2</ele>
        <time>2015-05-10T09:24:55Z</time>
      </trkpt>
      <trkpt lat="47.31864" lon="-1.60364">
        <ele>46</ele>
        <time>2015-05-10T09:24:56Z</time>
      </trkpt>
      <trkpt lat="47.31865" lon="-1.60369">
        <ele>45.7</ele>
        <time>2015-05-10T09:24:57Z</time>
      </trkpt>
      <trkpt lat="47.31867" lon="-1.60377">
        <ele>45.2</ele>
        <time>2015-05-10T09:24:58Z</time>
      </trkpt>
      <trkpt lat="47.31869" lon="-1.60385">
        <ele>44.5</ele>
        <time>2015-05-10T09:24:59Z</time>
      </trkpt>
      <trkpt lat="47.31871" lon="-1.60392">
        <ele>43.8</ele>
        <time>2015-05-10T09:25:00Z</time>
      </trkpt>
      <trkpt lat="47.31872" lon="-1.60401">
        <ele>42.9</ele>
        <time>2015-05-10T09:25:01Z</time>
      </trkpt>
      <trkpt lat="47.31874" lon="-1.6041">
        <ele>42.1</ele>
        <time>2015-05-10T09:25:02Z</time>
      </trkpt>
      <trkpt lat="47.31876" lon="-1.60419">
        <ele>41.2</ele>
        <time>2015-05-10T09:25:03Z</time>
      </trkpt>
      <trkpt lat="47.31879" lon="-1.60428">
        <ele>40.1</ele>
        <time>2015-05-10T09:25:04Z</time>
      </trkpt>
      <trkpt lat="47.31881" lon="-1.60435">
        <ele>39.3</ele>
        <time>2015-05-10T09:25:05Z</time>
      </trkpt>
      <trkpt lat="47.31885" lon="-1.60446">
        <ele>38</ele>
        <time>2015-05-10T09:25:06Z</time>
      </trkpt>
      <trkpt lat="47.31888" lon="-1.60454">
        <ele>37.1</ele>
        <time>2015-05-10T09:25:07Z</time>
      </trkpt>
      <trkpt lat="47.31891" lon="-1.60461">
        <ele>36.3</ele>
        <time>2015-05-10T09:25:08Z</time>
      </trkpt>
      <trkpt lat="47.31894" lon="-1.60468">
        <ele>35.5</ele>
        <time>2015-05-10T09:25:09Z</time>
      </trkpt>
      <trkpt lat="47.31896" lon="-1.60474">
        <ele>34.8</ele>
        <time>2015-05-10T09:25:10Z</time>
      </trkpt>
      <trkpt lat="47.31898" lon="-1.60481">
        <ele>34.1</ele>
        <time>2015-05-10T09:25:11Z</time>
      </trkpt>
      <trkpt lat="47.319" lon="-1.60487">
        <ele>33.5</ele>
        <time>2015-05-10T09:25:12Z</time>
      </trkpt>
      <trkpt lat="47.31903" lon="-1.60496">
        <ele>32.6</ele>
        <time>2015-05-10T09:25:13Z</time>
      </trkpt>
      <trkpt lat="47.31905" lon="-1.60503">
        <ele>31.9</ele>
        <time>2015-05-10T09:25:14Z</time>
      </trkpt>
      <trkpt lat="47.31907" lon="-1.60512">
        <ele>31.1</ele>
        <time>2015-05-10T09:25:15Z</time>
      </trkpt>
      <trkpt lat="47.3191" lon="-1.60522">
        <ele>30.1</ele>
        <time>2015-05-10T09:25:16Z</time>
      </trkpt>
      <trkpt lat="47.31911" lon="-1.60532">
        <ele>29.2</ele>
        <time>2015-05-10T09:25:17Z</time>
      </trkpt>
      <trkpt lat="47.31914" lon="-1.60544">
        <ele>28.2</ele>
        <time>2015-05-10T09:25:18Z</time>
      </trkpt>
      <trkpt lat="47.31916" lon="-1.60555">
        <ele>27.3</ele>
        <time>2015-05-10T09:25:19Z</time>
      </trkpt>
      <trkpt lat="47.31919" lon="-1.60565">
        <ele>26.5</ele>
        <time>2015-05-10T09:25:20Z</time>
      </trkpt>
      <trkpt lat="47.31921" lon="-1.60575">
        <ele>25.7</ele>
        <time>2015-05-10T09:25:21Z</time>
      </trkpt>
      <trkpt lat="47.31922" lon="-1.60585">
        <ele>24.9</ele>
        <time>2015-05-10T09:25:22Z</time>
      </trkpt>
      <trkpt lat="47.31923" lon="-1.60595">
        <ele>24</ele>
        <time>2015-05-10T09:25:23Z</time>
      </trkpt>
      <trkpt lat="47.31923" lon="-1.60605">
        <ele>23.1</ele>
        <time>2015-05-10T09:25:24Z</time>
      </trkpt>
      <trkpt lat="47.31922" lon="-1.60614">
        <ele>22.2</ele>
        <time>2015-05-10T09:25:25Z</time>
      </trkpt>
      <trkpt lat="47.31921" lon="-1.60623">
        <ele>21.4</ele>
        <time>2015-05-10T09:25:26Z</time>
      </trkpt>
      <trkpt lat="47.3192" lon="-1.6063">
        <ele>20.9</ele>
        <time>2015-05-10T09:25:27Z</time>
      </trkpt>
      <trkpt lat="47.31919" lon="-1.60636">
        <ele>20.6</ele>
        <time>2015-05-10T09:25:28Z</time>
      </trkpt>
      <trkpt lat="47.3192" lon="-1.60644">
        <ele>20.2</ele>
        <time>2015-05-10T09:25:29Z</time>
      </trkpt>
      <trkpt lat="47.3192" lon="-1.6065">
        <ele>19.9</ele>
        <time>2015-05-10T09:25:30Z</time>
      </trkpt>
      <trkpt lat="47.31922" lon="-1.60657">
        <ele>19.6</ele>
        <time>2015-05-10T09:25:31Z</time>
      </trkpt>
      <trkpt lat="47.31923" lon="-1.60665">
        <ele>19.3</ele>
        <time>2015-05-10T09:25:32Z</time>
      </trkpt>
      <trkpt lat="47.31924" lon="-1.60672">
        <ele>19</ele>
        <time>2015-05-10T09:25:33Z</time>
      </trkpt>
      <trkpt lat="47.31924" lon="-1.60681">
        <ele>18.6</ele>
        <time>2015-05-10T09:25:34Z</time>
      </trkpt>
      <trkpt lat="47.31924" lon="-1.60688">
        <ele>18.2</ele>
        <time>2015-05-10T09:25:35Z</time>
      </trkpt>
      <trkpt lat="47.31923" lon="-1.60695">
        <ele>17.8</ele>
        <time>2015-05-10T09:25:36Z</time>
      </trkpt>
      <trkpt lat="47.31928" lon="-1.60707">
        <ele>17.4</ele>
        <time>2015-05-10T09:25:37Z</time>
      </trkpt>
      <trkpt lat="47.31933" lon="-1.60716">
        <ele>17.3</ele>
        <time>2015-05-10T09:25:38Z</time>
      </trkpt>
      <trkpt lat="47.31938" lon="-1.60725">
        <ele>17.3</ele>
        <time>2015-05-10T09:25:39Z</time>
      </trkpt>
      <trkpt lat="47.31943" lon="-1.60733">
        <ele>17.3</ele>
        <time>2015-05-10T09:25:40Z</time>
      </trkpt>
      <trkpt lat="47.31948" lon="-1.60739">
        <ele>17.4</ele>
        <time>2015-05-10T09:25:41Z</time>
      </trkpt>
      <trkpt lat="47.31953" lon="-1.60746">
        <ele>17.4</ele>
        <time>2015-05-10T09:25:42Z</time>
      </trkpt>
      <trkpt lat="47.31957" lon="-1.60751">
        <ele>17.5</ele>
        <time>2015-05-10T09:25:43Z</time>
      </trkpt>
      <trkpt lat="47.31961" lon="-1.60755">
        <ele>17.6</ele>
        <time>2015-05-10T09:25:44Z</time>
      </trkpt>
      <trkpt lat="47.31963" lon="-1.6076">
        <ele>17.7</ele>
        <time>2015-05-10T09:25:45Z</time>
      </trkpt>
      <trkpt lat="47.31966" lon="-1.60764">
        <ele>17.8</ele>
        <time>2015-05-10T09:25:46Z</time>
      </trkpt>
      <trkpt lat="47.31968" lon="-1.60769">
        <ele>17.9</ele>
        <time>2015-05-10T09:25:47Z</time>
      </trkpt>
      <trkpt lat="47.3197" lon="-1.60773">
        <ele>18</ele>
        <time>2015-05-10T09:25:48Z</time>
      </trkpt>
      <trkpt lat="47.31972" lon="-1.60777">
        <ele>18.1</ele>
        <time>2015-05-10T09:25:49Z</time>
      </trkpt>
      <trkpt lat="47.31974" lon="-1.6078">
        <ele>18.2</ele>
        <time>2015-05-10T09:25:50Z</time>
      </trkpt>
      <trkpt lat="47.31975" lon="-1.60783">
        <ele>18.3</ele>
        <time>2015-05-10T09:25:51Z</time>
      </trkpt>
      <trkpt lat="47.31976" lon="-1.60788">
        <ele>18.3</ele>
        <time>2015-05-10T09:25:52Z</time>
      </trkpt>
      <trkpt lat="47.31978" lon="-1.60792">
        <ele>18.4</ele>
        <time>2015-05-10T09:25:53Z</time>
      </trkpt>
      <trkpt lat="47.31979" lon="-1.60796">
        <ele>18.5</ele>
        <time>2015-05-10T09:25:54Z</time>
      </trkpt>
      <trkpt lat="47.31982" lon="-1.60802">
        <ele>18.6</ele>
        <time>2015-05-10T09:25:56Z</time>
      </trkpt>
      <trkpt lat="47.31984" lon="-1.60809">
        <ele>18.7</ele>
        <time>2015-05-10T09:25:58Z</time>
      </trkpt>
      <trkpt lat="47.31985" lon="-1.60813">
        <ele>18.8</ele>
        <time>2015-05-10T09:25:59Z</time>
      </trkpt>
      <trkpt lat="47.31987" lon="-1.60819">
        <ele>18.8</ele>
        <time>2015-05-10T09:26:01Z</time>
      </trkpt>
      <trkpt lat="47.31989" lon="-1.60822">
        <ele>18.9</ele>
        <time>2015-05-10T09:26:02Z</time>
      </trkpt>
      <trkpt lat="47.31991" lon="-1.60828">
        <ele>19</ele>
        <time>2015-05-10T09:26:04Z</time>
      </trkpt>
      <trkpt lat="47.31993" lon="-1.60835">
        <ele>19.1</ele>
        <time>2015-05-10T09:26:06Z</time>
      </trkpt>
      <trkpt lat="47.31995" lon="-1.6084">
        <ele>19.1</ele>
        <time>2015-05-10T09:26:07Z</time>
      </trkpt>
      <trkpt lat="47.31996" lon="-1.60844">
        <ele>19.1</ele>
        <time>2015-05-10T09:26:08Z</time>
      </trkpt>
      <trkpt lat="47.31999" lon="-1.6085">
        <ele>19.2</ele>
        <time>2015-05-10T09:26:10Z</time>
      </trkpt>
      <trkpt lat="47.32" lon="-1.60853">
        <ele>19.3</ele>
        <time>2015-05-10T09:26:11Z</time>
      </trkpt>
      <trkpt lat="47.32002" lon="-1.60858">
        <ele>19.3</ele>
        <time>2015-05-10T09:26:13Z</time>
      </trkpt>
      <trkpt lat="47.32004" lon="-1.60864">
        <ele>19.3</ele>
        <time>2015-05-10T09:26:15Z</time>
      </trkpt>
      <trkpt lat="47.32006" lon="-1.60869">
        <ele>19.4</ele>
        <time>2015-05-10T09:26:17Z</time>
      </trkpt>
      <trkpt lat="47.32008" lon="-1.60874">
        <ele>19.4</ele>
        <time>2015-05-10T09:26:19Z</time>
      </trkpt>
      <trkpt lat="47.3201" lon="-1.6088">
        <ele>19.4</ele>
        <time>2015-05-10T09:26:21Z</time>
      </trkpt>
      <trkpt lat="47.32012" lon="-1.60885">
        <ele>19.5</ele>
        <time>2015-05-10T09:26:23Z</time>
      </trkpt>
      <trkpt lat="47.32014" lon="-1.60889">
        <ele>19.5</ele>
        <time>2015-05-10T09:26:25Z</time>
      </trkpt>
      <trkpt lat="47.32016" lon="-1.60893">
        <ele>19.6</ele>
        <time>2015-05-10T09:26:27Z</time>
      </trkpt>
      <trkpt lat="47.32019" lon="-1.60899">
        <ele>19.6</ele>
        <time>2015-05-10T09:26:29Z</time>
      </trkpt>
      <trkpt lat="47.32021" lon="-1.60901">
        <ele>19.7</ele>
        <time>2015-05-10T09:26:30Z</time>
      </trkpt>
      <trkpt lat="47.32025" lon="-1.60906">
        <ele>19.8</ele>
        <time>2015-05-10T09:26:31Z</time>
      </trkpt>
      <trkpt lat="47.32029" lon="-1.60909">
        <ele>20</ele>
        <time>2015-05-10T09:26:32Z</time>
      </trkpt>
      <trkpt lat="47.32033" lon="-1.6091">
        <ele>20.1</ele>
        <time>2015-05-10T09:26:33Z</time>
      </trkpt>
      <trkpt lat="47.32036" lon="-1.60911">
        <ele>20.3</ele>
        <time>2015-05-10T09:26:34Z</time>
      </trkpt>
      <trkpt lat="47.32039" lon="-1.60912">
        <ele>20.4</ele>
        <time>2015-05-10T09:26:35Z</time>
      </trkpt>
      <trkpt lat="47.32044" lon="-1.60912">
        <ele>20.7</ele>
        <time>2015-05-10T09:26:37Z</time>
      </trkpt>
      <trkpt lat="47.32047" lon="-1.60913">
        <ele>21</ele>
        <time>2015-05-10T09:26:38Z</time>
      </trkpt>
      <trkpt lat="47.32051" lon="-1.60912">
        <ele>21.4</ele>
        <time>2015-05-10T09:26:39Z</time>
      </trkpt>
      <trkpt lat="47.32054" lon="-1.60912">
        <ele>21.7</ele>
        <time>2015-05-10T09:26:40Z</time>
      </trkpt>
      <trkpt lat="47.32058" lon="-1.60912">
        <ele>22.1</ele>
        <time>2015-05-10T09:26:42Z</time>
      </trkpt>
      <trkpt lat="47.32063" lon="-1.60912">
        <ele>22.4</ele>
        <time>2015-05-10T09:26:44Z</time>
      </trkpt>
      <trkpt lat="47.32066" lon="-1.60913">
        <ele>22.8</ele>
        <time>2015-05-10T09:26:46Z</time>
      </trkpt>
      <trkpt lat="47.3207" lon="-1.6091">
        <ele>23.2</ele>
        <time>2015-05-10T09:26:48Z</time>
      </trkpt>
      <trkpt lat="47.32075" lon="-1.60909">
        <ele>23.6</ele>
        <time>2015-05-10T09:26:50Z</time>
      </trkpt>
      <trkpt lat="47.32079" lon="-1.60908">
        <ele>24</ele>
        <time>2015-05-10T09:26:52Z</time>
      </trkpt>
      <trkpt lat="47.32084" lon="-1.60906">
        <ele>24.5</ele>
        <time>2015-05-10T09:26:54Z</time>
      </trkpt>
      <trkpt lat="47.32088" lon="-1.60905">
        <ele>24.9</ele>
        <time>2015-05-10T09:26:56Z</time>
      </trkpt>
      <trkpt lat="47.32091" lon="-1.60905">
        <ele>25.2</ele>
        <time>2015-05-10T09:26:58Z</time>
      </trkpt>
      <trkpt lat="47.32094" lon="-1.60906">
        <ele>25.4</ele>
        <time>2015-05-10T09:27:01Z</time>
      </trkpt>
      <trkpt lat="47.32096" lon="-1.60911">
        <ele>25.5</ele>
        <time>2015-05-10T09:27:04Z</time>
      </trkpt>
      <trkpt lat="47.32097" lon="-1.60917">
        <ele>25.5</ele>
        <time>2015-05-10T09:27:07Z</time>
      </trkpt>
      <trkpt lat="47.321" lon="-1.6092">
        <ele>25.6</ele>
        <time>2015-05-10T09:27:09Z</time>
      </trkpt>
      <trkpt lat="47.321" lon="-1.60925">
        <ele>25.6</ele>
        <time>2015-05-10T09:27:12Z</time>
      </trkpt>
      <trkpt lat="47.321" lon="-1.6093">
        <ele>25.5</ele>
        <time>2015-05-10T09:27:14Z</time>
      </trkpt>
      <trkpt lat="47.32101" lon="-1.60936">
        <ele>25.4</ele>
        <time>2015-05-10T09:27:17Z</time>
      </trkpt>
      <trkpt lat="47.32102" lon="-1.6094">
        <ele>25.5</ele>
        <time>2015-05-10T09:27:19Z</time>
      </trkpt>
      <trkpt lat="47.32103" lon="-1.60946">
        <ele>25.4</ele>
        <time>2015-05-10T09:27:21Z</time>
      </trkpt>
      <trkpt lat="47.32105" lon="-1.60952">
        <ele>25.5</ele>
        <time>2015-05-10T09:27:23Z</time>
      </trkpt>
      <trkpt lat="47.32106" lon="-1.60956">
        <ele>25.5</ele>
        <time>2015-05-10T09:27:24Z</time>
      </trkpt>
      <trkpt lat="47.32109" lon="-1.60962">
        <ele>25.5</ele>
        <time>2015-05-10T09:27:26Z</time>
      </trkpt>
      <trkpt lat="47.3211" lon="-1.60968">
        <ele>25.5</ele>
        <time>2015-05-10T09:27:28Z</time>
      </trkpt>
      <trkpt lat="47.32113" lon="-1.60975">
        <ele>25.6</ele>
        <time>2015-05-10T09:27:30Z</time>
      </trkpt>
      <trkpt lat="47.32113" lon="-1.60981">
        <ele>25.5</ele>
        <time>2015-05-10T09:27:32Z</time>
      </trkpt>
      <trkpt lat="47.32114" lon="-1.60985">
        <ele>25.5</ele>
        <time>2015-05-10T09:27:33Z</time>
      </trkpt>
      <trkpt lat="47.32115" lon="-1.60993">
        <ele>25.4</ele>
        <time>2015-05-10T09:27:35Z</time>
      </trkpt>
      <trkpt lat="47.32117" lon="-1.60999">
        <ele>25.4</ele>
        <time>2015-05-10T09:27:37Z</time>
      </trkpt>
      <trkpt lat="47.32119" lon="-1.61007">
        <ele>25.4</ele>
        <time>2015-05-10T09:27:39Z</time>
      </trkpt>
      <trkpt lat="47.32119" lon="-1.61012">
        <ele>25.2</ele>
        <time>2015-05-10T09:27:40Z</time>
      </trkpt>
      <trkpt lat="47.3212" lon="-1.61017">
        <ele>25.2</ele>
        <time>2015-05-10T09:27:41Z</time>
      </trkpt>
      <trkpt lat="47.32121" lon="-1.61021">
        <ele>25.2</ele>
        <time>2015-05-10T09:27:42Z</time>
      </trkpt>
      <trkpt lat="47.32122" lon="-1.61027">
        <ele>25.1</ele>
        <time>2015-05-10T09:27:44Z</time>
      </trkpt>
      <trkpt lat="47.32123" lon="-1.61031">
        <ele>25.1</ele>
        <time>2015-05-10T09:27:45Z</time>
      </trkpt>
      <trkpt lat="47.32124" lon="-1.61035">
        <ele>25.1</ele>
        <time>2015-05-10T09:27:46Z</time>
      </trkpt>
      <trkpt lat="47.32127" lon="-1.61041">
        <ele>25.2</ele>
        <time>2015-05-10T09:27:48Z</time>
      </trkpt>
      <trkpt lat="47.32129" lon="-1.61048">
        <ele>25.7</ele>
        <time>2015-05-10T09:27:50Z</time>
      </trkpt>
      <trkpt lat="47.32132" lon="-1.61054">
        <ele>26.2</ele>
        <time>2015-05-10T09:27:52Z</time>
      </trkpt>
      <trkpt lat="47.32135" lon="-1.6106">
        <ele>26.7</ele>
        <time>2015-05-10T09:27:54Z</time>
      </trkpt>
      <trkpt lat="47.32138" lon="-1.61064">
        <ele>27.2</ele>
        <time>2015-05-10T09:27:56Z</time>
      </trkpt>
      <trkpt lat="47.3214" lon="-1.61069">
        <ele>27.6</ele>
        <time>2015-05-10T09:27:58Z</time>
      </trkpt>
      <trkpt lat="47.32144" lon="-1.61073">
        <ele>28.1</ele>
        <time>2015-05-10T09:28:00Z</time>
      </trkpt>
      <trkpt lat="47.32146" lon="-1.61078">
        <ele>28.6</ele>
        <time>2015-05-10T09:28:02Z</time>
      </trkpt>
      <trkpt lat="47.32149" lon="-1.61081">
        <ele>29</ele>
        <time>2015-05-10T09:28:04Z</time>
      </trkpt>
      <trkpt lat="47.32151" lon="-1.61085">
        <ele>29.4</ele>
        <time>2015-05-10T09:28:06Z</time>
      </trkpt>
      <trkpt lat="47.32155" lon="-1.61089">
        <ele>29.9</ele>
        <time>2015-05-10T09:28:08Z</time>
      </trkpt>
      <trkpt lat="47.32158" lon="-1.61093">
        <ele>30.4</ele>
        <time>2015-05-10T09:28:10Z</time>
      </trkpt>
      <trkpt lat="47.32161" lon="-1.61096">
        <ele>30.8</ele>
        <time>2015-05-10T09:28:12Z</time>
      </trkpt>
      <trkpt lat="47.32163" lon="-1.61098">
        <ele>31.1</ele>
        <time>2015-05-10T09:28:14Z</time>
      </trkpt>
      <trkpt lat="47.32166" lon="-1.61101">
        <ele>31.5</ele>
        <time>2015-05-10T09:28:16Z</time>
      </trkpt>
      <trkpt lat="47.32168" lon="-1.61104">
        <ele>31.9</ele>
        <time>2015-05-10T09:28:18Z</time>
      </trkpt>
      <trkpt lat="47.32172" lon="-1.61107">
        <ele>32.4</ele>
        <time>2015-05-10T09:28:20Z</time>
      </trkpt>
      <trkpt lat="47.32174" lon="-1.61111">
        <ele>32.8</ele>
        <time>2015-05-10T09:28:22Z</time>
      </trkpt>
      <trkpt lat="47.32176" lon="-1.61114">
        <ele>33.1</ele>
        <time>2015-05-10T09:28:24Z</time>
      </trkpt>
      <trkpt lat="47.3218" lon="-1.61116">
        <ele>33.6</ele>
        <time>2015-05-10T09:28:27Z</time>
      </trkpt>
      <trkpt lat="47.32182" lon="-1.61118">
        <ele>33.9</ele>
        <time>2015-05-10T09:28:29Z</time>
      </trkpt>
      <trkpt lat="47.32185" lon="-1.61121">
        <ele>34.3</ele>
        <time>2015-05-10T09:28:31Z</time>
      </trkpt>
      <trkpt lat="47.32188" lon="-1.61125">
        <ele>34.8</ele>
        <time>2015-05-10T09:28:33Z</time>
      </trkpt>
      <trkpt lat="47.32191" lon="-1.61129">
        <ele>35.3</ele>
        <time>2015-05-10T09:28:35Z</time>
      </trkpt>
      <trkpt lat="47.32194" lon="-1.61133">
        <ele>35.7</ele>
        <time>2015-05-10T09:28:37Z</time>
      </trkpt>
      <trkpt lat="47.32197" lon="-1.61137">
        <ele>36.1</ele>
        <time>2015-05-10T09:28:39Z</time>
      </trkpt>
      <trkpt lat="47.32199" lon="-1.61141">
        <ele>36.5</ele>
        <time>2015-05-10T09:28:41Z</time>
      </trkpt>
      <trkpt lat="47.32202" lon="-1.61145">
        <ele>36.9</ele>
        <time>2015-05-10T09:28:43Z</time>
      </trkpt>
      <trkpt lat="47.32204" lon="-1.61148">
        <ele>37.1</ele>
        <time>2015-05-10T09:28:45Z</time>
      </trkpt>
      <trkpt lat="47.32207" lon="-1.6115">
        <ele>37.4</ele>
        <time>2015-05-10T09:28:47Z</time>
      </trkpt>
      <trkpt lat="47.3221" lon="-1.61152">
        <ele>37.7</ele>
        <time>2015-05-10T09:28:49Z</time>
      </trkpt>
      <trkpt lat="47.32212" lon="-1.61156">
        <ele>38</ele>
        <time>2015-05-10T09:28:51Z</time>
      </trkpt>
      <trkpt lat="47.32214" lon="-1.6116">
        <ele>38.2</ele>
        <time>2015-05-10T09:28:53Z</time>
      </trkpt>
      <trkpt lat="47.32216" lon="-1.61164">
        <ele>38.4</ele>
        <time>2015-05-10T09:28:55Z</time>
      </trkpt>
      <trkpt lat="47.32217" lon="-1.61169">
        <ele>38.6</ele>
        <time>2015-05-10T09:28:58Z</time>
      </trkpt>
      <trkpt lat="47.32219" lon="-1.61173">
        <ele>38.8</ele>
        <time>2015-05-10T09:29:00Z</time>
      </trkpt>
      <trkpt lat="47.32222" lon="-1.61177">
        <ele>39</ele>
        <time>2015-05-10T09:29:02Z</time>
      </trkpt>
      <trkpt lat="47.32223" lon="-1.61181">
        <ele>39.2</ele>
        <time>2015-05-10T09:29:04Z</time>
      </trkpt>
      <trkpt lat="47.32225" lon="-1.61184">
        <ele>39.3</ele>
        <time>2015-05-10T09:29:06Z</time>
      </trkpt>
      <trkpt lat="47.32226" lon="-1.61188">
        <ele>39.5</ele>
        <time>2015-05-10T09:29:09Z</time>
      </trkpt>
      <trkpt lat="47.32228" lon="-1.61193">
        <ele>39.7</ele>
        <time>2015-05-10T09:29:12Z</time>
      </trkpt>
      <trkpt lat="47.32231" lon="-1.61197">
        <ele>39.9</ele>
        <time>2015-05-10T09:29:14Z</time>
      </trkpt>
      <trkpt lat="47.32233" lon="-1.61202">
        <ele>40.1</ele>
        <time>2015-05-10T09:29:16Z</time>
      </trkpt>
      <trkpt lat="47.32235" lon="-1.61207">
        <ele>40.2</ele>
        <time>2015-05-10T09:29:18Z</time>
      </trkpt>
      <trkpt lat="47.32236" lon="-1.61211">
        <ele>40.3</ele>
        <time>2015-05-10T09:29:20Z</time>
      </trkpt>
      <trkpt lat="47.32237" lon="-1.61215">
        <ele>40.4</ele>
        <time>2015-05-10T09:29:22Z</time>
      </trkpt>
      <trkpt lat="47.32238" lon="-1.6122">
        <ele>40.5</ele>
        <time>2015-05-10T09:29:24Z</time>
      </trkpt>
      <trkpt lat="47.3224" lon="-1.61224">
        <ele>40.6</ele>
        <time>2015-05-10T09:29:26Z</time>
      </trkpt>
      <trkpt lat="47.32242" lon="-1.61229">
        <ele>40.7</ele>
        <time>2015-05-10T09:29:28Z</time>
      </trkpt>
      <trkpt lat="47.32244" lon="-1.61234">
        <ele>40.8</ele>
        <time>2015-05-10T09:29:30Z</time>
      </trkpt>
      <trkpt lat="47.32245" lon="-1.61238">
        <ele>40.9</ele>
        <time>2015-05-10T09:29:32Z</time>
      </trkpt>
      <trkpt lat="47.32247" lon="-1.61243">
        <ele>41</ele>
        <time>2015-05-10T09:29:34Z</time>
      </trkpt>
      <trkpt lat="47.32248" lon="-1.61249">
        <ele>41.1</ele>
        <time>2015-05-10T09:29:37Z</time>
      </trkpt>
      <trkpt lat="47.32249" lon="-1.61252">
        <ele>41.2</ele>
        <time>2015-05-10T09:29:39Z</time>
      </trkpt>
      <trkpt lat="47.32251" lon="-1.61257">
        <ele>41.3</ele>
        <time>2015-05-10T09:29:40Z</time>
      </trkpt>
      <trkpt lat="47.32252" lon="-1.6126">
        <ele>41.4</ele>
        <time>2015-05-10T09:29:41Z</time>
      </trkpt>
      <trkpt lat="47.32254" lon="-1.61264">
        <ele>41.6</ele>
        <time>2015-05-10T09:29:43Z</time>
      </trkpt>
      <trkpt lat="47.32256" lon="-1.61268">
        <ele>41.7</ele>
        <time>2015-05-10T09:29:45Z</time>
      </trkpt>
      <trkpt lat="47.32258" lon="-1.6127">
        <ele>41.8</ele>
        <time>2015-05-10T09:29:47Z</time>
      </trkpt>
      <trkpt lat="47.32261" lon="-1.61273">
        <ele>42</ele>
        <time>2015-05-10T09:29:49Z</time>
      </trkpt>
      <trkpt lat="47.32264" lon="-1.61277">
        <ele>42.2</ele>
        <time>2015-05-10T09:29:55Z</time>
      </trkpt>
      <trkpt lat="47.32266" lon="-1.61282">
        <ele>42.4</ele>
        <time>2015-05-10T09:29:57Z</time>
      </trkpt>
      <trkpt lat="47.32268" lon="-1.61287">
        <ele>42.5</ele>
        <time>2015-05-10T09:29:59Z</time>
      </trkpt>
      <trkpt lat="47.32271" lon="-1.61293">
        <ele>42.7</ele>
        <time>2015-05-10T09:30:01Z</time>
      </trkpt>
      <trkpt lat="47.32272" lon="-1.61298">
        <ele>42.8</ele>
        <time>2015-05-10T09:30:03Z</time>
      </trkpt>
      <trkpt lat="47.32274" lon="-1.61304">
        <ele>42.9</ele>
        <time>2015-05-10T09:30:05Z</time>
      </trkpt>
      <trkpt lat="47.32276" lon="-1.61309">
        <ele>43</ele>
        <time>2015-05-10T09:30:07Z</time>
      </trkpt>
      <trkpt lat="47.32277" lon="-1.61313">
        <ele>43</ele>
        <time>2015-05-10T09:30:09Z</time>
      </trkpt>
      <trkpt lat="47.32278" lon="-1.61317">
        <ele>43.1</ele>
        <time>2015-05-10T09:30:11Z</time>
      </trkpt>
      <trkpt lat="47.32279" lon="-1.61322">
        <ele>43.1</ele>
        <time>2015-05-10T09:30:13Z</time>
      </trkpt>
      <trkpt lat="47.32281" lon="-1.61328">
        <ele>43.3</ele>
        <time>2015-05-10T09:30:15Z</time>
      </trkpt>
      <trkpt lat="47.32284" lon="-1.61334">
        <ele>43.5</ele>
        <time>2015-05-10T09:30:17Z</time>
      </trkpt>
      <trkpt lat="47.32286" lon="-1.61337">
        <ele>43.6</ele>
        <time>2015-05-10T09:30:18Z</time>
      </trkpt>
      <trkpt lat="47.3229" lon="-1.61345">
        <ele>43.9</ele>
        <time>2015-05-10T09:30:20Z</time>
      </trkpt>
      <trkpt lat="47.32292" lon="-1.61348">
        <ele>44</ele>
        <time>2015-05-10T09:30:21Z</time>
      </trkpt>
      <trkpt lat="47.32293" lon="-1.61353">
        <ele>44.1</ele>
        <time>2015-05-10T09:30:22Z</time>
      </trkpt>
      <trkpt lat="47.32296" lon="-1.61357">
        <ele>44.2</ele>
        <time>2015-05-10T09:30:23Z</time>
      </trkpt>
      <trkpt lat="47.32298" lon="-1.61361">
        <ele>44.3</ele>
        <time>2015-05-10T09:30:24Z</time>
      </trkpt>
      <trkpt lat="47.32299" lon="-1.61364">
        <ele>44.4</ele>
        <time>2015-05-10T09:30:25Z</time>
      </trkpt>
      <trkpt lat="47.32301" lon="-1.61368">
        <ele>44.4</ele>
        <time>2015-05-10T09:30:26Z</time>
      </trkpt>
      <trkpt lat="47.32303" lon="-1.61372">
        <ele>44.5</ele>
        <time>2015-05-10T09:30:27Z</time>
      </trkpt>
      <trkpt lat="47.32305" lon="-1.61375">
        <ele>44.6</ele>
        <time>2015-05-10T09:30:28Z</time>
      </trkpt>
      <trkpt lat="47.32309" lon="-1.6138">
        <ele>44.8</ele>
        <time>2015-05-10T09:30:30Z</time>
      </trkpt>
      <trkpt lat="47.32313" lon="-1.61385">
        <ele>45</ele>
        <time>2015-05-10T09:30:32Z</time>
      </trkpt>
      <trkpt lat="47.32317" lon="-1.61388">
        <ele>45.2</ele>
        <time>2015-05-10T09:30:34Z</time>
      </trkpt>
      <trkpt lat="47.3232" lon="-1.61393">
        <ele>45.3</ele>
        <time>2015-05-10T09:30:36Z</time>
      </trkpt>
      <trkpt lat="47.32323" lon="-1.61398">
        <ele>45.4</ele>
        <time>2015-05-10T09:30:38Z</time>
      </trkpt>
      <trkpt lat="47.32327" lon="-1.61402">
        <ele>45.6</ele>
        <time>2015-05-10T09:30:40Z</time>
      </trkpt>
      <trkpt lat="47.3233" lon="-1.61406">
        <ele>45.8</ele>
        <time>2015-05-10T09:30:42Z</time>
      </trkpt>
      <trkpt lat="47.32334" lon="-1.6141">
        <ele>46</ele>
        <time>2015-05-10T09:30:44Z</time>
      </trkpt>
      <trkpt lat="47.32337" lon="-1.61413">
        <ele>46.2</ele>
        <time>2015-05-10T09:30:46Z</time>
      </trkpt>
      <trkpt lat="47.32341" lon="-1.61417">
        <ele>46.5</ele>
        <time>2015-05-10T09:30:48Z</time>
      </trkpt>
      <trkpt lat="47.32346" lon="-1.6142">
        <ele>46.7</ele>
        <time>2015-05-10T09:30:50Z</time>
      </trkpt>
      <trkpt lat="47.32349" lon="-1.61424">
        <ele>47</ele>
        <time>2015-05-10T09:30:52Z</time>
      </trkpt>
      <trkpt lat="47.32352" lon="-1.61429">
        <ele>47.2</ele>
        <time>2015-05-10T09:30:54Z</time>
      </trkpt>
      <trkpt lat="47.32354" lon="-1.61432">
        <ele>47.3</ele>
        <time>2015-05-10T09:30:55Z</time>
      </trkpt>
      <trkpt lat="47.32357" lon="-1.61438">
        <ele>47.6</ele>
        <time>2015-05-10T09:30:57Z</time>
      </trkpt>
      <trkpt lat="47.32359" lon="-1.61442">
        <ele>47.7</ele>
        <time>2015-05-10T09:30:58Z</time>
      </trkpt>
      <trkpt lat="47.32364" lon="-1.61445">
        <ele>48.1</ele>
        <time>2015-05-10T09:31:00Z</time>
      </trkpt>
      <trkpt lat="47.32368" lon="-1.61449">
        <ele>48.4</ele>
        <time>2015-05-10T09:31:02Z</time>
      </trkpt>
      <trkpt lat="47.32372" lon="-1.61451">
        <ele>48.7</ele>
        <time>2015-05-10T09:31:04Z</time>
      </trkpt>
      <trkpt lat="47.32377" lon="-1.61453">
        <ele>48.9</ele>
        <time>2015-05-10T09:31:06Z</time>
      </trkpt>
      <trkpt lat="47.32381" lon="-1.61456">
        <ele>48.9</ele>
        <time>2015-05-10T09:31:08Z</time>
      </trkpt>
      <trkpt lat="47.32384" lon="-1.61461">
        <ele>48.8</ele>
        <time>2015-05-10T09:31:10Z</time>
      </trkpt>
      <trkpt lat="47.32388" lon="-1.61465">
        <ele>48.5</ele>
        <time>2015-05-10T09:31:12Z</time>
      </trkpt>
      <trkpt lat="47.32391" lon="-1.61468">
        <ele>48.4</ele>
        <time>2015-05-10T09:31:13Z</time>
      </trkpt>
      <trkpt lat="47.32393" lon="-1.6147">
        <ele>48.2</ele>
        <time>2015-05-10T09:31:14Z</time>
      </trkpt>
      <trkpt lat="47.32396" lon="-1.61472">
        <ele>48.1</ele>
        <time>2015-05-10T09:31:15Z</time>
      </trkpt>
      <trkpt lat="47.32398" lon="-1.61474">
        <ele>48</ele>
        <time>2015-05-10T09:31:16Z</time>
      </trkpt>
      <trkpt lat="47.32402" lon="-1.61476">
        <ele>47.9</ele>
        <time>2015-05-10T09:31:17Z</time>
      </trkpt>
      <trkpt lat="47.32404" lon="-1.61477">
        <ele>47.9</ele>
        <time>2015-05-10T09:31:18Z</time>
      </trkpt>
      <trkpt lat="47.32407" lon="-1.61476">
        <ele>48</ele>
        <time>2015-05-10T09:31:19Z</time>
      </trkpt>
      <trkpt lat="47.32412" lon="-1.61476">
        <ele>48</ele>
        <time>2015-05-10T09:31:21Z</time>
      </trkpt>
      <trkpt lat="47.32416" lon="-1.61476">
        <ele>48</ele>
        <time>2015-05-10T09:31:23Z</time>
      </trkpt>
      <trkpt lat="47.32421" lon="-1.61478">
        <ele>47.9</ele>
        <time>2015-05-10T09:31:25Z</time>
      </trkpt>
      <trkpt lat="47.32426" lon="-1.6148">
        <ele>47.9</ele>
        <time>2015-05-10T09:31:27Z</time>
      </trkpt>
      <trkpt lat="47.32431" lon="-1.61482">
        <ele>47.9</ele>
        <time>2015-05-10T09:31:29Z</time>
      </trkpt>
      <trkpt lat="47.32434" lon="-1.61483">
        <ele>47.9</ele>
        <time>2015-05-10T09:31:30Z</time>
      </trkpt>
      <trkpt lat="47.32438" lon="-1.61485">
        <ele>47.9</ele>
        <time>2015-05-10T09:31:32Z</time>
      </trkpt>
      <trkpt lat="47.32441" lon="-1.61486">
        <ele>47.9</ele>
        <time>2015-05-10T09:31:33Z</time>
      </trkpt>
      <trkpt lat="47.32444" lon="-1.61487">
        <ele>47.9</ele>
        <time>2015-05-10T09:31:34Z</time>
      </trkpt>
      <trkpt lat="47.32447" lon="-1.61489">
        <ele>47.9</ele>
        <time>2015-05-10T09:31:35Z</time>
      </trkpt>
      <trkpt lat="47.3245" lon="-1.61491">
        <ele>47.9</ele>
        <time>2015-05-10T09:31:36Z</time>
      </trkpt>
      <trkpt lat="47.32452" lon="-1.61492">
        <ele>47.9</ele>
        <time>2015-05-10T09:31:37Z</time>
      </trkpt>
      <trkpt lat="47.32455" lon="-1.61493">
        <ele>48</ele>
        <time>2015-05-10T09:31:38Z</time>
      </trkpt>
      <trkpt lat="47.32458" lon="-1.61495">
        <ele>48</ele>
        <time>2015-05-10T09:31:39Z</time>
      </trkpt>
      <trkpt lat="47.32461" lon="-1.61496">
        <ele>48</ele>
        <time>2015-05-10T09:31:40Z</time>
      </trkpt>
      <trkpt lat="47.32464" lon="-1.61498">
        <ele>48.1</ele>
        <time>2015-05-10T09:31:41Z</time>
      </trkpt>
      <trkpt lat="47.32467" lon="-1.61498">
        <ele>48.1</ele>
        <time>2015-05-10T09:31:42Z</time>
      </trkpt>
      <trkpt lat="47.3247" lon="-1.61499">
        <ele>48.1</ele>
        <time>2015-05-10T09:31:43Z</time>
      </trkpt>
      <trkpt lat="47.32473" lon="-1.615">
        <ele>48.2</ele>
        <time>2015-05-10T09:31:44Z</time>
      </trkpt>
      <trkpt lat="47.32476" lon="-1.61502">
        <ele>48.2</ele>
        <time>2015-05-10T09:31:45Z</time>
      </trkpt>
      <trkpt lat="47.32479" lon="-1.61503">
        <ele>48.3</ele>
        <time>2015-05-10T09:31:46Z</time>
      </trkpt>
      <trkpt lat="47.32483" lon="-1.61505">
        <ele>48.3</ele>
        <time>2015-05-10T09:31:47Z</time>
      </trkpt>
      <trkpt lat="47.32485" lon="-1.61507">
        <ele>48.3</ele>
        <time>2015-05-10T09:31:48Z</time>
      </trkpt>
      <trkpt lat="47.32489" lon="-1.61509">
        <ele>48.4</ele>
        <time>2015-05-10T09:31:49Z</time>
      </trkpt>
      <trkpt lat="47.32491" lon="-1.6151">
        <ele>48.4</ele>
        <time>2015-05-10T09:31:50Z</time>
      </trkpt>
      <trkpt lat="47.32495" lon="-1.61511">
        <ele>48.4</ele>
        <time>2015-05-10T09:31:51Z</time>
      </trkpt>
      <trkpt lat="47.32498" lon="-1.61512">
        <ele>48.5</ele>
        <time>2015-05-10T09:31:52Z</time>
      </trkpt>
      <trkpt lat="47.32501" lon="-1.61514">
        <ele>48.5</ele>
        <time>2015-05-10T09:31:53Z</time>
      </trkpt>
      <trkpt lat="47.32505" lon="-1.61515">
        <ele>48.6</ele>
        <time>2015-05-10T09:31:54Z</time>
      </trkpt>
      <trkpt lat="47.32508" lon="-1.61515">
        <ele>48.6</ele>
        <time>2015-05-10T09:31:55Z</time>
      </trkpt>
      <trkpt lat="47.32512" lon="-1.61516">
        <ele>48.6</ele>
        <time>2015-05-10T09:31:56Z</time>
      </trkpt>
      <trkpt lat="47.32515" lon="-1.61517">
        <ele>48.7</ele>
        <time>2015-05-10T09:31:57Z</time>
      </trkpt>
      <trkpt lat="47.32518" lon="-1.61518">
        <ele>48.7</ele>
        <time>2015-05-10T09:31:58Z</time>
      </trkpt>
      <trkpt lat="47.32521" lon="-1.61519">
        <ele>48.8</ele>
        <time>2015-05-10T09:31:59Z</time>
      </trkpt>
      <trkpt lat="47.32524" lon="-1.61521">
        <ele>48.8</ele>
        <time>2015-05-10T09:32:00Z</time>
      </trkpt>
      <trkpt lat="47.32527" lon="-1.61522">
        <ele>48.8</ele>
        <time>2015-05-10T09:32:01Z</time>
      </trkpt>
      <trkpt lat="47.3253" lon="-1.61524">
        <ele>48.9</ele>
        <time>2015-05-10T09:32:02Z</time>
      </trkpt>
      <trkpt lat="47.32533" lon="-1.61525">
        <ele>48.9</ele>
        <time>2015-05-10T09:32:03Z</time>
      </trkpt>
      <trkpt lat="47.32536" lon="-1.61527">
        <ele>48.9</ele>
        <time>2015-05-10T09:32:04Z</time>
      </trkpt>
      <trkpt lat="47.32539" lon="-1.61528">
        <ele>49</ele>
        <time>2015-05-10T09:32:05Z</time>
      </trkpt>
      <trkpt lat="47.32542" lon="-1.61529">
        <ele>49</ele>
        <time>2015-05-10T09:32:06Z</time>
      </trkpt>
      <trkpt lat="47.32545" lon="-1.61531">
        <ele>49.1</ele>
        <time>2015-05-10T09:32:07Z</time>
      </trkpt>
      <trkpt lat="47.32548" lon="-1.61532">
        <ele>49.1</ele>
        <time>2015-05-10T09:32:08Z</time>
      </trkpt>
      <trkpt lat="47.32554" lon="-1.61533">
        <ele>49.3</ele>
        <time>2015-05-10T09:32:10Z</time>
      </trkpt>
      <trkpt lat="47.32557" lon="-1.61535">
        <ele>49.3</ele>
        <time>2015-05-10T09:32:11Z</time>
      </trkpt>
      <trkpt lat="47.3256" lon="-1.61535">
        <ele>49.4</ele>
        <time>2015-05-10T09:32:12Z</time>
      </trkpt>
      <trkpt lat="47.32563" lon="-1.61536">
        <ele>49.5</ele>
        <time>2015-05-10T09:32:13Z</time>
      </trkpt>
      <trkpt lat="47.32566" lon="-1.61537">
        <ele>49.6</ele>
        <time>2015-05-10T09:32:14Z</time>
      </trkpt>
      <trkpt lat="47.32569" lon="-1.61538">
        <ele>49.6</ele>
        <time>2015-05-10T09:32:15Z</time>
      </trkpt>
      <trkpt lat="47.32572" lon="-1.61539">
        <ele>49.7</ele>
        <time>2015-05-10T09:32:16Z</time>
      </trkpt>
      <trkpt lat="47.32576" lon="-1.6154">
        <ele>49.8</ele>
        <time>2015-05-10T09:32:17Z</time>
      </trkpt>
      <trkpt lat="47.32579" lon="-1.61541">
        <ele>49.9</ele>
        <time>2015-05-10T09:32:18Z</time>
      </trkpt>
      <trkpt lat="47.32583" lon="-1.61542">
        <ele>50</ele>
        <time>2015-05-10T09:32:19Z</time>
      </trkpt>
      <trkpt lat="47.32587" lon="-1.61542">
        <ele>50.1</ele>
        <time>2015-05-10T09:32:20Z</time>
      </trkpt>
      <trkpt lat="47.32591" lon="-1.61544">
        <ele>50.2</ele>
        <time>2015-05-10T09:32:21Z</time>
      </trkpt>
      <trkpt lat="47.32594" lon="-1.61545">
        <ele>50.3</ele>
        <time>2015-05-10T09:32:22Z</time>
      </trkpt>
      <trkpt lat="47.32597" lon="-1.61546">
        <ele>50.4</ele>
        <time>2015-05-10T09:32:23Z</time>
      </trkpt>
      <trkpt lat="47.326" lon="-1.61547">
        <ele>50.4</ele>
        <time>2015-05-10T09:32:24Z</time>
      </trkpt>
      <trkpt lat="47.32603" lon="-1.61549">
        <ele>50.5</ele>
        <time>2015-05-10T09:32:25Z</time>
      </trkpt>
      <trkpt lat="47.32606" lon="-1.61551">
        <ele>50.6</ele>
        <time>2015-05-10T09:32:26Z</time>
      </trkpt>
      <trkpt lat="47.32609" lon="-1.61552">
        <ele>50.7</ele>
        <time>2015-05-10T09:32:27Z</time>
      </trkpt>
      <trkpt lat="47.32612" lon="-1.61554">
        <ele>50.8</ele>
        <time>2015-05-10T09:32:28Z</time>
      </trkpt>
      <trkpt lat="47.32615" lon="-1.61556">
        <ele>50.9</ele>
        <time>2015-05-10T09:32:29Z</time>
      </trkpt>
      <trkpt lat="47.3262" lon="-1.61558">
        <ele>51.1</ele>
        <time>2015-05-10T09:32:31Z</time>
      </trkpt>
      <trkpt lat="47.32623" lon="-1.61559">
        <ele>51.2</ele>
        <time>2015-05-10T09:32:32Z</time>
      </trkpt>
      <trkpt lat="47.32626" lon="-1.6156">
        <ele>51.2</ele>
        <time>2015-05-10T09:32:33Z</time>
      </trkpt>
      <trkpt lat="47.32629" lon="-1.6156">
        <ele>51.3</ele>
        <time>2015-05-10T09:32:34Z</time>
      </trkpt>
      <trkpt lat="47.32631" lon="-1.61561">
        <ele>51.3</ele>
        <time>2015-05-10T09:32:35Z</time>
      </trkpt>
      <trkpt lat="47.32634" lon="-1.61562">
        <ele>51.4</ele>
        <time>2015-05-10T09:32:36Z</time>
      </trkpt>
      <trkpt lat="47.32637" lon="-1.61563">
        <ele>51.4</ele>
        <time>2015-05-10T09:32:37Z</time>
      </trkpt>
      <trkpt lat="47.3264" lon="-1.61564">
        <ele>51.4</ele>
        <time>2015-05-10T09:32:38Z</time>
      </trkpt>
      <trkpt lat="47.32643" lon="-1.61565">
        <ele>51.5</ele>
        <time>2015-05-10T09:32:39Z</time>
      </trkpt>
      <trkpt lat="47.32646" lon="-1.61565">
        <ele>51.5</ele>
        <time>2015-05-10T09:32:40Z</time>
      </trkpt>
      <trkpt lat="47.32649" lon="-1.61566">
        <ele>51.6</ele>
        <time>2015-05-10T09:32:41Z</time>
      </trkpt>
      <trkpt lat="47.32652" lon="-1.61567">
        <ele>51.6</ele>
        <time>2015-05-10T09:32:42Z</time>
      </trkpt>
      <trkpt lat="47.32655" lon="-1.61568">
        <ele>51.7</ele>
        <time>2015-05-10T09:32:43Z</time>
      </trkpt>
      <trkpt lat="47.32658" lon="-1.61569">
        <ele>51.7</ele>
        <time>2015-05-10T09:32:44Z</time>
      </trkpt>
      <trkpt lat="47.32661" lon="-1.6157">
        <ele>51.8</ele>
        <time>2015-05-10T09:32:45Z</time>
      </trkpt>
      <trkpt lat="47.32663" lon="-1.61571">
        <ele>51.8</ele>
        <time>2015-05-10T09:32:46Z</time>
      </trkpt>
      <trkpt lat="47.32668" lon="-1.61573">
        <ele>51.9</ele>
        <time>2015-05-10T09:32:48Z</time>
      </trkpt>
      <trkpt lat="47.32673" lon="-1.61575">
        <ele>52</ele>
        <time>2015-05-10T09:32:50Z</time>
      </trkpt>
      <trkpt lat="47.32677" lon="-1.61578">
        <ele>52.1</ele>
        <time>2015-05-10T09:32:52Z</time>
      </trkpt>
      <trkpt lat="47.32682" lon="-1.61581">
        <ele>52.1</ele>
        <time>2015-05-10T09:32:54Z</time>
      </trkpt>
      <trkpt lat="47.32684" lon="-1.61583">
        <ele>52.2</ele>
        <time>2015-05-10T09:32:55Z</time>
      </trkpt>
      <trkpt lat="47.32687" lon="-1.61584">
        <ele>52.2</ele>
        <time>2015-05-10T09:32:56Z</time>
      </trkpt>
      <trkpt lat="47.32689" lon="-1.61586">
        <ele>52.3</ele>
        <time>2015-05-10T09:32:57Z</time>
      </trkpt>
      <trkpt lat="47.32692" lon="-1.61587">
        <ele>52.3</ele>
        <time>2015-05-10T09:32:58Z</time>
      </trkpt>
      <trkpt lat="47.32697" lon="-1.6159">
        <ele>52.4</ele>
        <time>2015-05-10T09:33:00Z</time>
      </trkpt>
      <trkpt lat="47.32702" lon="-1.61592">
        <ele>52.5</ele>
        <time>2015-05-10T09:33:02Z</time>
      </trkpt>
      <trkpt lat="47.32705" lon="-1.61594">
        <ele>52.6</ele>
        <time>2015-05-10T09:33:03Z</time>
      </trkpt>
      <trkpt lat="47.32708" lon="-1.61594">
        <ele>52.6</ele>
        <time>2015-05-10T09:33:04Z</time>
      </trkpt>
      <trkpt lat="47.32711" lon="-1.61595">
        <ele>52.7</ele>
        <time>2015-05-10T09:33:05Z</time>
      </trkpt>
      <trkpt lat="47.32714" lon="-1.61596">
        <ele>52.7</ele>
        <time>2015-05-10T09:33:06Z</time>
      </trkpt>
      <trkpt lat="47.32717" lon="-1.61596">
        <ele>52.8</ele>
        <time>2015-05-10T09:33:07Z</time>
      </trkpt>
      <trkpt lat="47.3272" lon="-1.61596">
        <ele>52.8</ele>
        <time>2015-05-10T09:33:08Z</time>
      </trkpt>
      <trkpt lat="47.32723" lon="-1.61597">
        <ele>52.9</ele>
        <time>2015-05-10T09:33:09Z</time>
      </trkpt>
      <trkpt lat="47.32726" lon="-1.61597">
        <ele>52.9</ele>
        <time>2015-05-10T09:33:10Z</time>
      </trkpt>
      <trkpt lat="47.32728" lon="-1.61598">
        <ele>53</ele>
        <time>2015-05-10T09:33:11Z</time>
      </trkpt>
      <trkpt lat="47.32731" lon="-1.61599">
        <ele>53</ele>
        <time>2015-05-10T09:33:12Z</time>
      </trkpt>
      <trkpt lat="47.32734" lon="-1.61599">
        <ele>53.1</ele>
        <time>2015-05-10T09:33:13Z</time>
      </trkpt>
      <trkpt lat="47.32737" lon="-1.616">
        <ele>53.1</ele>
        <time>2015-05-10T09:33:14Z</time>
      </trkpt>
      <trkpt lat="47.32739" lon="-1.61601">
        <ele>53.2</ele>
        <time>2015-05-10T09:33:15Z</time>
      </trkpt>
      <trkpt lat="47.32742" lon="-1.61603">
        <ele>53.2</ele>
        <time>2015-05-10T09:33:16Z</time>
      </trkpt>
      <trkpt lat="47.32744" lon="-1.61604">
        <ele>53.3</ele>
        <time>2015-05-10T09:33:17Z</time>
      </trkpt>
      <trkpt lat="47.32747" lon="-1.61605">
        <ele>53.3</ele>
        <time>2015-05-10T09:33:18Z</time>
      </trkpt>
      <trkpt lat="47.3275" lon="-1.61605">
        <ele>53.4</ele>
        <time>2015-05-10T09:33:19Z</time>
      </trkpt>
      <trkpt lat="47.32753" lon="-1.61606">
        <ele>53.4</ele>
        <time>2015-05-10T09:33:20Z</time>
      </trkpt>
      <trkpt lat="47.32756" lon="-1.61607">
        <ele>53.5</ele>
        <time>2015-05-10T09:33:21Z</time>
      </trkpt>
      <trkpt lat="47.32761" lon="-1.61608">
        <ele>53.6</ele>
        <time>2015-05-10T09:33:23Z</time>
      </trkpt>
      <trkpt lat="47.32764" lon="-1.61609">
        <ele>53.6</ele>
        <time>2015-05-10T09:33:24Z</time>
      </trkpt>
      <trkpt lat="47.32767" lon="-1.61611">
        <ele>53.7</ele>
        <time>2015-05-10T09:33:25Z</time>
      </trkpt>
      <trkpt lat="47.3277" lon="-1.61613">
        <ele>53.7</ele>
        <time>2015-05-10T09:33:26Z</time>
      </trkpt>
      <trkpt lat="47.32774" lon="-1.61615">
        <ele>53.8</ele>
        <time>2015-05-10T09:33:27Z</time>
      </trkpt>
      <trkpt lat="47.32777" lon="-1.61616">
        <ele>53.8</ele>
        <time>2015-05-10T09:33:28Z</time>
      </trkpt>
      <trkpt lat="47.32781" lon="-1.61617">
        <ele>53.9</ele>
        <time>2015-05-10T09:33:29Z</time>
      </trkpt>
      <trkpt lat="47.32784" lon="-1.61618">
        <ele>53.9</ele>
        <time>2015-05-10T09:33:30Z</time>
      </trkpt>
      <trkpt lat="47.32787" lon="-1.61619">
        <ele>53.9</ele>
        <time>2015-05-10T09:33:31Z</time>
      </trkpt>
      <trkpt lat="47.3279" lon="-1.61622">
        <ele>54</ele>
        <time>2015-05-10T09:33:32Z</time>
      </trkpt>
      <trkpt lat="47.32791" lon="-1.61626">
        <ele>54</ele>
        <time>2015-05-10T09:33:33Z</time>
      </trkpt>
      <trkpt lat="47.32791" lon="-1.6163">
        <ele>54</ele>
        <time>2015-05-10T09:33:34Z</time>
      </trkpt>
      <trkpt lat="47.3279" lon="-1.61634">
        <ele>54</ele>
        <time>2015-05-10T09:33:35Z</time>
      </trkpt>
      <trkpt lat="47.32791" lon="-1.61641">
        <ele>54</ele>
        <time>2015-05-10T09:33:37Z</time>
      </trkpt>
      <trkpt lat="47.32794" lon="-1.61648">
        <ele>54</ele>
        <time>2015-05-10T09:33:39Z</time>
      </trkpt>
      <trkpt lat="47.32798" lon="-1.61654">
        <ele>54.1</ele>
        <time>2015-05-10T09:33:41Z</time>
      </trkpt>
      <trkpt lat="47.328" lon="-1.61657">
        <ele>54.2</ele>
        <time>2015-05-10T09:33:42Z</time>
      </trkpt>
      <trkpt lat="47.32802" lon="-1.61663">
        <ele>54.2</ele>
        <time>2015-05-10T09:33:44Z</time>
      </trkpt>
      <trkpt lat="47.32805" lon="-1.61669">
        <ele>54.2</ele>
        <time>2015-05-10T09:33:46Z</time>
      </trkpt>
      <trkpt lat="47.32808" lon="-1.61675">
        <ele>54.3</ele>
        <time>2015-05-10T09:33:48Z</time>
      </trkpt>
      <trkpt lat="47.3281" lon="-1.61679">
        <ele>54.3</ele>
        <time>2015-05-10T09:33:49Z</time>
      </trkpt>
      <trkpt lat="47.32812" lon="-1.61686">
        <ele>54.3</ele>
        <time>2015-05-10T09:33:51Z</time>
      </trkpt>
      <trkpt lat="47.32812" lon="-1.61692">
        <ele>54.3</ele>
        <time>2015-05-10T09:33:52Z</time>
      </trkpt>
      <trkpt lat="47.32814" lon="-1.61698">
        <ele>54.3</ele>
        <time>2015-05-10T09:33:53Z</time>
      </trkpt>
      <trkpt lat="47.32816" lon="-1.61702">
        <ele>54.3</ele>
        <time>2015-05-10T09:33:54Z</time>
      </trkpt>
      <trkpt lat="47.32818" lon="-1.61708">
        <ele>54.3</ele>
        <time>2015-05-10T09:33:56Z</time>
      </trkpt>
      <trkpt lat="47.32822" lon="-1.61714">
        <ele>54.4</ele>
        <time>2015-05-10T09:33:58Z</time>
      </trkpt>
      <trkpt lat="47.32824" lon="-1.61718">
        <ele>54.4</ele>
        <time>2015-05-10T09:33:59Z</time>
      </trkpt>
      <trkpt lat="47.32826" lon="-1.61723">
        <ele>54.5</ele>
        <time>2015-05-10T09:34:00Z</time>
      </trkpt>
      <trkpt lat="47.32829" lon="-1.61727">
        <ele>54.5</ele>
        <time>2015-05-10T09:34:01Z</time>
      </trkpt>
      <trkpt lat="47.32831" lon="-1.6173">
        <ele>54.6</ele>
        <time>2015-05-10T09:34:02Z</time>
      </trkpt>
      <trkpt lat="47.32832" lon="-1.61734">
        <ele>54.6</ele>
        <time>2015-05-10T09:34:03Z</time>
      </trkpt>
      <trkpt lat="47.32834" lon="-1.61737">
        <ele>54.7</ele>
        <time>2015-05-10T09:34:04Z</time>
      </trkpt>
      <trkpt lat="47.32835" lon="-1.6174">
        <ele>54.7</ele>
        <time>2015-05-10T09:34:05Z</time>
      </trkpt>
      <trkpt lat="47.32837" lon="-1.61744">
        <ele>54.8</ele>
        <time>2015-05-10T09:34:06Z</time>
      </trkpt>
      <trkpt lat="47.32839" lon="-1.61748">
        <ele>54.8</ele>
        <time>2015-05-10T09:34:07Z</time>
      </trkpt>
      <trkpt lat="47.32841" lon="-1.61752">
        <ele>54.9</ele>
        <time>2015-05-10T09:34:08Z</time>
      </trkpt>
      <trkpt lat="47.32843" lon="-1.61757">
        <ele>55</ele>
        <time>2015-05-10T09:34:09Z</time>
      </trkpt>
      <trkpt lat="47.32844" lon="-1.61762">
        <ele>55</ele>
        <time>2015-05-10T09:34:10Z</time>
      </trkpt>
      <trkpt lat="47.32846" lon="-1.61766">
        <ele>55.1</ele>
        <time>2015-05-10T09:34:11Z</time>
      </trkpt>
      <trkpt lat="47.32848" lon="-1.61771">
        <ele>55.2</ele>
        <time>2015-05-10T09:34:12Z</time>
      </trkpt>
      <trkpt lat="47.3285" lon="-1.61776">
        <ele>55.3</ele>
        <time>2015-05-10T09:34:13Z</time>
      </trkpt>
      <trkpt lat="47.32851" lon="-1.6178">
        <ele>55.3</ele>
        <time>2015-05-10T09:34:14Z</time>
      </trkpt>
      <trkpt lat="47.32853" lon="-1.61785">
        <ele>55.4</ele>
        <time>2015-05-10T09:34:15Z</time>
      </trkpt>
      <trkpt lat="47.32854" lon="-1.6179">
        <ele>55.5</ele>
        <time>2015-05-10T09:34:16Z</time>
      </trkpt>
      <trkpt lat="47.32856" lon="-1.61794">
        <ele>55.5</ele>
        <time>2015-05-10T09:34:17Z</time>
      </trkpt>
      <trkpt lat="47.32858" lon="-1.61799">
        <ele>55.6</ele>
        <time>2015-05-10T09:34:18Z</time>
      </trkpt>
      <trkpt lat="47.32859" lon="-1.61803">
        <ele>55.6</ele>
        <time>2015-05-10T09:34:19Z</time>
      </trkpt>
      <trkpt lat="47.32861" lon="-1.61808">
        <ele>55.6</ele>
        <time>2015-05-10T09:34:20Z</time>
      </trkpt>
      <trkpt lat="47.32862" lon="-1.61813">
        <ele>55.7</ele>
        <time>2015-05-10T09:34:21Z</time>
      </trkpt>
      <trkpt lat="47.32864" lon="-1.61818">
        <ele>55.7</ele>
        <time>2015-05-10T09:34:22Z</time>
      </trkpt>
      <trkpt lat="47.32866" lon="-1.61825">
        <ele>55.7</ele>
        <time>2015-05-10T09:34:23Z</time>
      </trkpt>
      <trkpt lat="47.32868" lon="-1.6183">
        <ele>55.8</ele>
        <time>2015-05-10T09:34:24Z</time>
      </trkpt>
      <trkpt lat="47.3287" lon="-1.61834">
        <ele>55.8</ele>
        <time>2015-05-10T09:34:25Z</time>
      </trkpt>
      <trkpt lat="47.32871" lon="-1.61839">
        <ele>55.9</ele>
        <time>2015-05-10T09:34:26Z</time>
      </trkpt>
      <trkpt lat="47.32872" lon="-1.61844">
        <ele>55.9</ele>
        <time>2015-05-10T09:34:27Z</time>
      </trkpt>
      <trkpt lat="47.32874" lon="-1.61849">
        <ele>56</ele>
        <time>2015-05-10T09:34:28Z</time>
      </trkpt>
      <trkpt lat="47.32875" lon="-1.61853">
        <ele>56</ele>
        <time>2015-05-10T09:34:29Z</time>
      </trkpt>
      <trkpt lat="47.32876" lon="-1.61857">
        <ele>56</ele>
        <time>2015-05-10T09:34:30Z</time>
      </trkpt>
      <trkpt lat="47.32878" lon="-1.61864">
        <ele>56.1</ele>
        <time>2015-05-10T09:34:32Z</time>
      </trkpt>
      <trkpt lat="47.32879" lon="-1.61868">
        <ele>56.1</ele>
        <time>2015-05-10T09:34:33Z</time>
      </trkpt>
      <trkpt lat="47.32879" lon="-1.61873">
        <ele>56.1</ele>
        <time>2015-05-10T09:34:34Z</time>
      </trkpt>
      <trkpt lat="47.32878" lon="-1.61877">
        <ele>56.1</ele>
        <time>2015-05-10T09:34:35Z</time>
      </trkpt>
      <trkpt lat="47.32877" lon="-1.6188">
        <ele>56</ele>
        <time>2015-05-10T09:34:36Z</time>
      </trkpt>
      <trkpt lat="47.32874" lon="-1.61883">
        <ele>56</ele>
        <time>2015-05-10T09:34:37Z</time>
      </trkpt>
      <trkpt lat="47.32871" lon="-1.61885">
        <ele>55.8</ele>
        <time>2015-05-10T09:34:38Z</time>
      </trkpt>
      <trkpt lat="47.32867" lon="-1.61887">
        <ele>55.7</ele>
        <time>2015-05-10T09:34:39Z</time>
      </trkpt>
      <trkpt lat="47.32863" lon="-1.6189">
        <ele>55.6</ele>
        <time>2015-05-10T09:34:40Z</time>
      </trkpt>
      <trkpt lat="47.3286" lon="-1.61894">
        <ele>55.4</ele>
        <time>2015-05-10T09:34:41Z</time>
      </trkpt>
      <trkpt lat="47.32856" lon="-1.61897">
        <ele>55.3</ele>
        <time>2015-05-10T09:34:42Z</time>
      </trkpt>
      <trkpt lat="47.32853" lon="-1.61901">
        <ele>55.1</ele>
        <time>2015-05-10T09:34:43Z</time>
      </trkpt>
      <trkpt lat="47.32849" lon="-1.61905">
        <ele>55</ele>
        <time>2015-05-10T09:34:44Z</time>
      </trkpt>
      <trkpt lat="47.32846" lon="-1.61909">
        <ele>54.8</ele>
        <time>2015-05-10T09:34:45Z</time>
      </trkpt>
      <trkpt lat="47.32842" lon="-1.61913">
        <ele>54.6</ele>
        <time>2015-05-10T09:34:46Z</time>
      </trkpt>
      <trkpt lat="47.32839" lon="-1.61917">
        <ele>54.5</ele>
        <time>2015-05-10T09:34:47Z</time>
      </trkpt>
      <trkpt lat="47.32836" lon="-1.6192">
        <ele>54.3</ele>
        <time>2015-05-10T09:34:48Z</time>
      </trkpt>
      <trkpt lat="47.32832" lon="-1.61923">
        <ele>54.2</ele>
        <time>2015-05-10T09:34:49Z</time>
      </trkpt>
      <trkpt lat="47.3283" lon="-1.61928">
        <ele>54.1</ele>
        <time>2015-05-10T09:34:50Z</time>
      </trkpt>
      <trkpt lat="47.32827" lon="-1.61931">
        <ele>53.9</ele>
        <time>2015-05-10T09:34:51Z</time>
      </trkpt>
      <trkpt lat="47.32825" lon="-1.61935">
        <ele>53.8</ele>
        <time>2015-05-10T09:34:52Z</time>
      </trkpt>
      <trkpt lat="47.32823" lon="-1.61937">
        <ele>53.6</ele>
        <time>2015-05-10T09:34:53Z</time>
      </trkpt>
      <trkpt lat="47.32818" lon="-1.61942">
        <ele>53.4</ele>
        <time>2015-05-10T09:34:55Z</time>
      </trkpt>
      <trkpt lat="47.32813" lon="-1.61946">
        <ele>53.1</ele>
        <time>2015-05-10T09:34:57Z</time>
      </trkpt>
      <trkpt lat="47.3281" lon="-1.61949">
        <ele>53</ele>
        <time>2015-05-10T09:34:58Z</time>
      </trkpt>
      <trkpt lat="47.32807" lon="-1.61953">
        <ele>52.8</ele>
        <time>2015-05-10T09:34:59Z</time>
      </trkpt>
      <trkpt lat="47.32804" lon="-1.61955">
        <ele>52.6</ele>
        <time>2015-05-10T09:35:00Z</time>
      </trkpt>
      <trkpt lat="47.32801" lon="-1.61956">
        <ele>52.5</ele>
        <time>2015-05-10T09:35:01Z</time>
      </trkpt>
      <trkpt lat="47.32798" lon="-1.61959">
        <ele>52.3</ele>
        <time>2015-05-10T09:35:02Z</time>
      </trkpt>
      <trkpt lat="47.32794" lon="-1.61961">
        <ele>52.1</ele>
        <time>2015-05-10T09:35:03Z</time>
      </trkpt>
      <trkpt lat="47.32791" lon="-1.61965">
        <ele>51.8</ele>
        <time>2015-05-10T09:35:04Z</time>
      </trkpt>
      <trkpt lat="47.32788" lon="-1.61969">
        <ele>51.5</ele>
        <time>2015-05-10T09:35:05Z</time>
      </trkpt>
      <trkpt lat="47.32784" lon="-1.61971">
        <ele>51.3</ele>
        <time>2015-05-10T09:35:06Z</time>
      </trkpt>
      <trkpt lat="47.32781" lon="-1.61974">
        <ele>51</ele>
        <time>2015-05-10T09:35:07Z</time>
      </trkpt>
      <trkpt lat="47.32777" lon="-1.61977">
        <ele>50.7</ele>
        <time>2015-05-10T09:35:08Z</time>
      </trkpt>
      <trkpt lat="47.32772" lon="-1.61979">
        <ele>50.4</ele>
        <time>2015-05-10T09:35:09Z</time>
      </trkpt>
      <trkpt lat="47.32768" lon="-1.6198">
        <ele>50.1</ele>
        <time>2015-05-10T09:35:10Z</time>
      </trkpt>
      <trkpt lat="47.32764" lon="-1.61981">
        <ele>49.9</ele>
        <time>2015-05-10T09:35:11Z</time>
      </trkpt>
      <trkpt lat="47.32759" lon="-1.61982">
        <ele>49.6</ele>
        <time>2015-05-10T09:35:12Z</time>
      </trkpt>
      <trkpt lat="47.32754" lon="-1.61982">
        <ele>49.3</ele>
        <time>2015-05-10T09:35:13Z</time>
      </trkpt>
      <trkpt lat="47.3275" lon="-1.61982">
        <ele>49.1</ele>
        <time>2015-05-10T09:35:14Z</time>
      </trkpt>
      <trkpt lat="47.32746" lon="-1.61981">
        <ele>48.8</ele>
        <time>2015-05-10T09:35:15Z</time>
      </trkpt>
      <trkpt lat="47.32743" lon="-1.61981">
        <ele>48.7</ele>
        <time>2015-05-10T09:35:16Z</time>
      </trkpt>
      <trkpt lat="47.32738" lon="-1.61981">
        <ele>48.4</ele>
        <time>2015-05-10T09:35:17Z</time>
      </trkpt>
      <trkpt lat="47.32734" lon="-1.6198">
        <ele>48.2</ele>
        <time>2015-05-10T09:35:18Z</time>
      </trkpt>
      <trkpt lat="47.32729" lon="-1.6198">
        <ele>47.9</ele>
        <time>2015-05-10T09:35:19Z</time>
      </trkpt>
      <trkpt lat="47.32724" lon="-1.6198">
        <ele>47.6</ele>
        <time>2015-05-10T09:35:20Z</time>
      </trkpt>
      <trkpt lat="47.3272" lon="-1.61981">
        <ele>47.4</ele>
        <time>2015-05-10T09:35:21Z</time>
      </trkpt>
      <trkpt lat="47.32715" lon="-1.61981">
        <ele>47.1</ele>
        <time>2015-05-10T09:35:22Z</time>
      </trkpt>
      <trkpt lat="47.3271" lon="-1.61982">
        <ele>46.8</ele>
        <time>2015-05-10T09:35:23Z</time>
      </trkpt>
      <trkpt lat="47.32705" lon="-1.61983">
        <ele>46.7</ele>
        <time>2015-05-10T09:35:24Z</time>
      </trkpt>
      <trkpt lat="47.32702" lon="-1.61984">
        <ele>46.6</ele>
        <time>2015-05-10T09:35:25Z</time>
      </trkpt>
      <trkpt lat="47.32698" lon="-1.61984">
        <ele>46.6</ele>
        <time>2015-05-10T09:35:26Z</time>
      </trkpt>
      <trkpt lat="47.32693" lon="-1.61984">
        <ele>46.5</ele>
        <time>2015-05-10T09:35:27Z</time>
      </trkpt>
      <trkpt lat="47.32686" lon="-1.61985">
        <ele>46.4</ele>
        <time>2015-05-10T09:35:28Z</time>
      </trkpt>
      <trkpt lat="47.32679" lon="-1.61987">
        <ele>46.3</ele>
        <time>2015-05-10T09:35:29Z</time>
      </trkpt>
      <trkpt lat="47.32673" lon="-1.6199">
        <ele>46.2</ele>
        <time>2015-05-10T09:35:30Z</time>
      </trkpt>
      <trkpt lat="47.32669" lon="-1.61994">
        <ele>46.1</ele>
        <time>2015-05-10T09:35:31Z</time>
      </trkpt>
      <trkpt lat="47.32666" lon="-1.61999">
        <ele>46</ele>
        <time>2015-05-10T09:35:32Z</time>
      </trkpt>
      <trkpt lat="47.32663" lon="-1.62005">
        <ele>45.9</ele>
        <time>2015-05-10T09:35:33Z</time>
      </trkpt>
      <trkpt lat="47.32661" lon="-1.62012">
        <ele>45.8</ele>
        <time>2015-05-10T09:35:34Z</time>
      </trkpt>
      <trkpt lat="47.3266" lon="-1.62017">
        <ele>45.7</ele>
        <time>2015-05-10T09:35:35Z</time>
      </trkpt>
      <trkpt lat="47.32659" lon="-1.62022">
        <ele>45.6</ele>
        <time>2015-05-10T09:35:36Z</time>
      </trkpt>
      <trkpt lat="47.32658" lon="-1.62026">
        <ele>45.6</ele>
        <time>2015-05-10T09:35:37Z</time>
      </trkpt>
      <trkpt lat="47.32658" lon="-1.6203">
        <ele>45.5</ele>
        <time>2015-05-10T09:35:38Z</time>
      </trkpt>
      <trkpt lat="47.32659" lon="-1.62035">
        <ele>45.5</ele>
        <time>2015-05-10T09:35:39Z</time>
      </trkpt>
      <trkpt lat="47.3266" lon="-1.62041">
        <ele>45.4</ele>
        <time>2015-05-10T09:35:40Z</time>
      </trkpt>
      <trkpt lat="47.32662" lon="-1.62047">
        <ele>45.6</ele>
        <time>2015-05-10T09:35:41Z</time>
      </trkpt>
      <trkpt lat="47.32664" lon="-1.62054">
        <ele>45.8</ele>
        <time>2015-05-10T09:35:42Z</time>
      </trkpt>
      <trkpt lat="47.32665" lon="-1.62062">
        <ele>46</ele>
        <time>2015-05-10T09:35:43Z</time>
      </trkpt>
      <trkpt lat="47.32667" lon="-1.62069">
        <ele>46.2</ele>
        <time>2015-05-10T09:35:44Z</time>
      </trkpt>
      <trkpt lat="47.32669" lon="-1.62076">
        <ele>46.3</ele>
        <time>2015-05-10T09:35:45Z</time>
      </trkpt>
      <trkpt lat="47.3267" lon="-1.62081">
        <ele>46.5</ele>
        <time>2015-05-10T09:35:46Z</time>
      </trkpt>
      <trkpt lat="47.32672" lon="-1.62088">
        <ele>46.7</ele>
        <time>2015-05-10T09:35:47Z</time>
      </trkpt>
      <trkpt lat="47.32673" lon="-1.62093">
        <ele>46.8</ele>
        <time>2015-05-10T09:35:48Z</time>
      </trkpt>
      <trkpt lat="47.32674" lon="-1.62098">
        <ele>46.9</ele>
        <time>2015-05-10T09:35:49Z</time>
      </trkpt>
      <trkpt lat="47.32676" lon="-1.62103">
        <ele>47.1</ele>
        <time>2015-05-10T09:35:50Z</time>
      </trkpt>
      <trkpt lat="47.32679" lon="-1.62109">
        <ele>47.3</ele>
        <time>2015-05-10T09:35:51Z</time>
      </trkpt>
      <trkpt lat="47.32681" lon="-1.62113">
        <ele>47.4</ele>
        <time>2015-05-10T09:35:52Z</time>
      </trkpt>
      <trkpt lat="47.32682" lon="-1.62117">
        <ele>47.5</ele>
        <time>2015-05-10T09:35:53Z</time>
      </trkpt>
      <trkpt lat="47.32683" lon="-1.62121">
        <ele>47.6</ele>
        <time>2015-05-10T09:35:54Z</time>
      </trkpt>
      <trkpt lat="47.32684" lon="-1.62125">
        <ele>47.7</ele>
        <time>2015-05-10T09:35:55Z</time>
      </trkpt>
      <trkpt lat="47.32685" lon="-1.62131">
        <ele>47.8</ele>
        <time>2015-05-10T09:35:57Z</time>
      </trkpt>
      <trkpt lat="47.32688" lon="-1.62135">
        <ele>47.9</ele>
        <time>2015-05-10T09:36:00Z</time>
      </trkpt>
      <trkpt lat="47.32691" lon="-1.62142">
        <ele>48</ele>
        <time>2015-05-10T09:36:43Z</time>
      </trkpt>
      <trkpt lat="47.32691" lon="-1.62146">
        <ele>48</ele>
        <time>2015-05-10T09:36:45Z</time>
      </trkpt>
      <trkpt lat="47.32692" lon="-1.62152">
        <ele>48.1</ele>
        <time>2015-05-10T09:36:47Z</time>
      </trkpt>
      <trkpt lat="47.32692" lon="-1.6216">
        <ele>48.2</ele>
        <time>2015-05-10T09:36:49Z</time>
      </trkpt>
      <trkpt lat="47.32694" lon="-1.62167">
        <ele>48.3</ele>
        <time>2015-05-10T09:36:50Z</time>
      </trkpt>
      <trkpt lat="47.32695" lon="-1.62174">
        <ele>48.4</ele>
        <time>2015-05-10T09:36:51Z</time>
      </trkpt>
      <trkpt lat="47.32695" lon="-1.62182">
        <ele>48.5</ele>
        <time>2015-05-10T09:36:52Z</time>
      </trkpt>
      <trkpt lat="47.32695" lon="-1.6219">
        <ele>48.6</ele>
        <time>2015-05-10T09:36:53Z</time>
      </trkpt>
      <trkpt lat="47.32694" lon="-1.62194">
        <ele>48.7</ele>
        <time>2015-05-10T09:36:54Z</time>
      </trkpt>
      <trkpt lat="47.32695" lon="-1.622">
        <ele>48.7</ele>
        <time>2015-05-10T09:36:55Z</time>
      </trkpt>
      <trkpt lat="47.32696" lon="-1.62207">
        <ele>48.8</ele>
        <time>2015-05-10T09:36:56Z</time>
      </trkpt>
      <trkpt lat="47.32696" lon="-1.62214">
        <ele>48.9</ele>
        <time>2015-05-10T09:36:57Z</time>
      </trkpt>
      <trkpt lat="47.32696" lon="-1.6222">
        <ele>48.9</ele>
        <time>2015-05-10T09:36:58Z</time>
      </trkpt>
      <trkpt lat="47.32697" lon="-1.62226">
        <ele>48.9</ele>
        <time>2015-05-10T09:36:59Z</time>
      </trkpt>
      <trkpt lat="47.32697" lon="-1.62232">
        <ele>48.9</ele>
        <time>2015-05-10T09:37:00Z</time>
      </trkpt>
      <trkpt lat="47.32697" lon="-1.62238">
        <ele>48.9</ele>
        <time>2015-05-10T09:37:01Z</time>
      </trkpt>
      <trkpt lat="47.32697" lon="-1.62242">
        <ele>48.9</ele>
        <time>2015-05-10T09:37:02Z</time>
      </trkpt>
      <trkpt lat="47.32696" lon="-1.62247">
        <ele>48.9</ele>
        <time>2015-05-10T09:37:03Z</time>
      </trkpt>
      <trkpt lat="47.32697" lon="-1.62254">
        <ele>48.9</ele>
        <time>2015-05-10T09:37:04Z</time>
      </trkpt>
      <trkpt lat="47.32699" lon="-1.6226">
        <ele>49</ele>
        <time>2015-05-10T09:37:05Z</time>
      </trkpt>
      <trkpt lat="47.32699" lon="-1.62265">
        <ele>49</ele>
        <time>2015-05-10T09:37:06Z</time>
      </trkpt>
      <trkpt lat="47.327" lon="-1.62273">
        <ele>49</ele>
        <time>2015-05-10T09:37:08Z</time>
      </trkpt>
      <trkpt lat="47.32703" lon="-1.62279">
        <ele>49</ele>
        <time>2015-05-10T09:37:10Z</time>
      </trkpt>
    </trkseg>
  </trk>
</gpx>